﻿<?xml version="1.0" encoding="utf-8"?><gpx creator="Garmin Desktop App" version="1.1" xsi:schemaLocation="http://www.topografix.com/GPX/1/1 http://www.topografix.com/GPX/1/1/gpx.xsd http://www.garmin.com/xmlschemas/WaypointExtension/v1 http://www8.garmin.com/xmlschemas/WaypointExtensionv1.xsd http://www.garmin.com/xmlschemas/TrackPointExtension/v1 http://www.garmin.com/xmlschemas/TrackPointExtensionv1.xsd http://www.garmin.com/xmlschemas/GpxExtensions/v3 http://www8.garmin.com/xmlschemas/GpxExtensionsv3.xsd http://www.garmin.com/xmlschemas/ActivityExtension/v1 http://www8.garmin.com/xmlschemas/ActivityExtensionv1.xsd http://www.garmin.com/xmlschemas/AdventuresExtensions/v1 http://www8.garmin.com/xmlschemas/AdventuresExtensionv1.xsd http://www.garmin.com/xmlschemas/PressureExtension/v1 http://www.garmin.com/xmlschemas/PressureExtensionv1.xsd http://www.garmin.com/xmlschemas/TripExtensions/v1 http://www.garmin.com/xmlschemas/TripExtensionsv1.xsd http://www.garmin.com/xmlschemas/TripMetaDataExtensions/v1 http://www.garmin.com/xmlschemas/TripMetaDataExtensionsv1.xsd http://www.garmin.com/xmlschemas/ViaPointTransportationModeExtensions/v1 http://www.garmin.com/xmlschemas/ViaPointTransportationModeExtensionsv1.xsd http://www.garmin.com/xmlschemas/CreationTimeExtension/v1 http://www.garmin.com/xmlschemas/CreationTimeExtensionsv1.xsd http://www.garmin.com/xmlschemas/AccelerationExtension/v1 http://www.garmin.com/xmlschemas/AccelerationExtensionv1.xsd http://www.garmin.com/xmlschemas/PowerExtension/v1 http://www.garmin.com/xmlschemas/PowerExtensionv1.xsd http://www.garmin.com/xmlschemas/VideoExtension/v1 http://www.garmin.com/xmlschemas/VideoExtensionv1.xsd" xmlns="http://www.topografix.com/GPX/1/1" xmlns:xsi="http://www.w3.org/2001/XMLSchema-instance" xmlns:wptx1="http://www.garmin.com/xmlschemas/WaypointExtension/v1" xmlns:gpxtrx="http://www.garmin.com/xmlschemas/GpxExtensions/v3" xmlns:gpxtpx="http://www.garmin.com/xmlschemas/TrackPointExtension/v1" xmlns:gpxx="http://www.garmin.com/xmlschemas/GpxExtensions/v3" xmlns:trp="http://www.garmin.com/xmlschemas/TripExtensions/v1" xmlns:adv="http://www.garmin.com/xmlschemas/AdventuresExtensions/v1" xmlns:prs="http://www.garmin.com/xmlschemas/PressureExtension/v1" xmlns:tmd="http://www.garmin.com/xmlschemas/TripMetaDataExtensions/v1" xmlns:vptm="http://www.garmin.com/xmlschemas/ViaPointTransportationModeExtensions/v1" xmlns:ctx="http://www.garmin.com/xmlschemas/CreationTimeExtension/v1" xmlns:gpxacc="http://www.garmin.com/xmlschemas/AccelerationExtension/v1" xmlns:gpxpx="http://www.garmin.com/xmlschemas/PowerExtension/v1" xmlns:vidx1="http://www.garmin.com/xmlschemas/VideoExtension/v1">

  <metadata>
    <link href="http://www.garmin.com">
      <text>Garmin International</text>
    </link>
    <time>2026-06-28T17:19:18Z</time>
    <bounds maxlat="52.122418032959104" maxlon="-9.505537021905184" minlat="51.602140981703997" minlon="-10.154885994270444" />
  </metadata>

  <trk>
    <name>260628_Ring_of_Beara_Track</name>
    <extensions>
      <gpxx:TrackExtension>
        <gpxx:DisplayColor>DarkGray</gpxx:DisplayColor>
      </gpxx:TrackExtension>
    </extensions>
    <trkseg>
      <trkpt lat="52.11138803511858" lon="-9.505773978307843">
        <ele>107.31999999999999</ele>
        <time>2026-06-28T06:59:16Z</time>
      </trkpt>
      <trkpt lat="52.11130497045815" lon="-9.505692003294826">
        <ele>95.790000000000006</ele>
        <time>2026-06-28T07:00:36Z</time>
      </trkpt>
      <trkpt lat="52.111307987943292" lon="-9.505682028830051">
        <ele>97.230000000000004</ele>
        <time>2026-06-28T07:01:15Z</time>
      </trkpt>
      <trkpt lat="52.111341012641788" lon="-9.505609022453427">
        <ele>97.230000000000004</ele>
        <time>2026-06-28T07:01:20Z</time>
      </trkpt>
      <trkpt lat="52.111374037340283" lon="-9.505555965006352">
        <ele>97.230000000000004</ele>
        <time>2026-06-28T07:01:22Z</time>
      </trkpt>
      <trkpt lat="52.111402032896876" lon="-9.505554959177971">
        <ele>97.230000000000004</ele>
        <time>2026-06-28T07:01:23Z</time>
      </trkpt>
      <trkpt lat="52.111427010968328" lon="-9.505554037168622">
        <ele>97.230000000000004</ele>
        <time>2026-06-28T07:01:24Z</time>
      </trkpt>
      <trkpt lat="52.111427010968328" lon="-9.505554037168622">
        <ele>97.230000000000004</ele>
        <time>2026-06-28T07:01:25Z</time>
      </trkpt>
      <trkpt lat="52.111427010968328" lon="-9.505554037168622">
        <ele>97.230000000000004</ele>
        <time>2026-06-28T07:01:45Z</time>
      </trkpt>
      <trkpt lat="52.111704032868147" lon="-9.505541967228055">
        <ele>98.189999999999998</ele>
        <time>2026-06-28T07:02:01Z</time>
      </trkpt>
      <trkpt lat="52.111822972074151" lon="-9.505537021905184">
        <ele>98.189999999999998</ele>
        <time>2026-06-28T07:02:05Z</time>
      </trkpt>
      <trkpt lat="52.11190796457231" lon="-9.505618996918201">
        <ele>98.189999999999998</ele>
        <time>2026-06-28T07:02:06Z</time>
      </trkpt>
      <trkpt lat="52.111925985664129" lon="-9.505696026608348">
        <ele>98.189999999999998</ele>
        <time>2026-06-28T07:02:07Z</time>
      </trkpt>
      <trkpt lat="52.11194803006947" lon="-9.50578898191452">
        <ele>97.709999999999994</ele>
        <time>2026-06-28T07:02:08Z</time>
      </trkpt>
      <trkpt lat="52.111972002312541" lon="-9.505893001332879">
        <ele>97.709999999999994</ele>
        <time>2026-06-28T07:02:09Z</time>
      </trkpt>
      <trkpt lat="52.112090019509196" lon="-9.506402034312487">
        <ele>97.230000000000004</ele>
        <time>2026-06-28T07:02:13Z</time>
      </trkpt>
      <trkpt lat="52.112121032550931" lon="-9.506535977125168">
        <ele>97.230000000000004</ele>
        <time>2026-06-28T07:02:14Z</time>
      </trkpt>
      <trkpt lat="52.112525040283799" lon="-9.507769038900733">
        <ele>94.829999999999998</ele>
        <time>2026-06-28T07:02:23Z</time>
      </trkpt>
      <trkpt lat="52.112790998071432" lon="-9.509217012673616">
        <ele>92.420000000000002</ele>
        <time>2026-06-28T07:02:32Z</time>
      </trkpt>
      <trkpt lat="52.113020997494459" lon="-9.511603005230427">
        <ele>89.540000000000006</ele>
        <time>2026-06-28T07:02:46Z</time>
      </trkpt>
      <trkpt lat="52.11304496973753" lon="-9.51352103613317">
        <ele>88.579999999999998</ele>
        <time>2026-06-28T07:02:56Z</time>
      </trkpt>
      <trkpt lat="52.112996019423008" lon="-9.515811977908015">
        <ele>83.290000000000006</ele>
        <time>2026-06-28T07:03:08Z</time>
      </trkpt>
      <trkpt lat="52.112970035523176" lon="-9.516323022544384">
        <ele>80.409999999999997</ele>
        <time>2026-06-28T07:03:14Z</time>
      </trkpt>
      <trkpt lat="52.112970035523176" lon="-9.516323022544384">
        <ele>79.930000000000007</ele>
        <time>2026-06-28T07:03:21Z</time>
      </trkpt>
      <trkpt lat="52.112951008602977" lon="-9.516748990863562">
        <ele>80.409999999999997</ele>
        <time>2026-06-28T07:03:27Z</time>
      </trkpt>
      <trkpt lat="52.112944973632693" lon="-9.516887962818146">
        <ele>80.409999999999997</ele>
        <time>2026-06-28T07:03:28Z</time>
      </trkpt>
      <trkpt lat="52.112928964197636" lon="-9.517053002491593">
        <ele>80.409999999999997</ele>
        <time>2026-06-28T07:03:29Z</time>
      </trkpt>
      <trkpt lat="52.112467959523201" lon="-9.518516985699534">
        <ele>77.519999999999996</ele>
        <time>2026-06-28T07:03:37Z</time>
      </trkpt>
      <trkpt lat="52.11190796457231" lon="-9.52037600800395">
        <ele>77.519999999999996</ele>
        <time>2026-06-28T07:03:46Z</time>
      </trkpt>
      <trkpt lat="52.111795982345939" lon="-9.520789990201592">
        <ele>77.040000000000006</ele>
        <time>2026-06-28T07:03:48Z</time>
      </trkpt>
      <trkpt lat="52.111734040081501" lon="-9.520994005724788">
        <ele>77.040000000000006</ele>
        <time>2026-06-28T07:03:49Z</time>
      </trkpt>
      <trkpt lat="52.111652987077832" lon="-9.521262980997562">
        <ele>76.560000000000002</ele>
        <time>2026-06-28T07:03:50Z</time>
      </trkpt>
      <trkpt lat="52.110944967716932" lon="-9.522478021681309">
        <ele>70.310000000000002</ele>
        <time>2026-06-28T07:03:58Z</time>
      </trkpt>
      <trkpt lat="52.110416991636157" lon="-9.523447975516319">
        <ele>66.950000000000003</ele>
        <time>2026-06-28T07:04:04Z</time>
      </trkpt>
      <trkpt lat="52.110335016623139" lon="-9.52359901741147">
        <ele>66.469999999999999</ele>
        <time>2026-06-28T07:04:05Z</time>
      </trkpt>
      <trkpt lat="52.109283003956079" lon="-9.525268021970987">
        <ele>68.390000000000001</ele>
        <time>2026-06-28T07:04:17Z</time>
      </trkpt>
      <trkpt lat="52.108522010967135" lon="-9.526233030483127">
        <ele>68.390000000000001</ele>
        <time>2026-06-28T07:04:25Z</time>
      </trkpt>
      <trkpt lat="52.108452022075653" lon="-9.526340989395976">
        <ele>67.909999999999997</ele>
        <time>2026-06-28T07:04:26Z</time>
      </trkpt>
      <trkpt lat="52.108407011255622" lon="-9.526473004370928">
        <ele>67.909999999999997</ele>
        <time>2026-06-28T07:04:27Z</time>
      </trkpt>
      <trkpt lat="52.108371974900365" lon="-9.526612982153893">
        <ele>67.909999999999997</ele>
        <time>2026-06-28T07:04:28Z</time>
      </trkpt>
      <trkpt lat="52.10833802819252" lon="-9.526744997128844">
        <ele>67.430000000000007</ele>
        <time>2026-06-28T07:04:29Z</time>
      </trkpt>
      <trkpt lat="52.108306009322405" lon="-9.526867037639022">
        <ele>67.430000000000007</ele>
        <time>2026-06-28T07:04:30Z</time>
      </trkpt>
      <trkpt lat="52.108278013765812" lon="-9.526977008208633">
        <ele>67.430000000000007</ele>
        <time>2026-06-28T07:04:31Z</time>
      </trkpt>
      <trkpt lat="52.10825202986598" lon="-9.52707901597023">
        <ele>67.430000000000007</ele>
        <time>2026-06-28T07:04:32Z</time>
      </trkpt>
      <trkpt lat="52.108225040137768" lon="-9.527184963226318">
        <ele>67.430000000000007</ele>
        <time>2026-06-28T07:04:33Z</time>
      </trkpt>
      <trkpt lat="52.108243983238935" lon="-9.527317984029651">
        <ele>67.430000000000007</ele>
        <time>2026-06-28T07:04:34Z</time>
      </trkpt>
      <trkpt lat="52.10827399045229" lon="-9.527454022318125">
        <ele>67.430000000000007</ele>
        <time>2026-06-28T07:04:35Z</time>
      </trkpt>
      <trkpt lat="52.108307015150785" lon="-9.527601040899754">
        <ele>67.430000000000007</ele>
        <time>2026-06-28T07:04:36Z</time>
      </trkpt>
      <trkpt lat="52.108341967687011" lon="-9.527759961783886">
        <ele>67.430000000000007</ele>
        <time>2026-06-28T07:04:37Z</time>
      </trkpt>
      <trkpt lat="52.108325036242604" lon="-9.52796196565032">
        <ele>66.950000000000003</ele>
        <time>2026-06-28T07:04:38Z</time>
      </trkpt>
      <trkpt lat="52.108300980180502" lon="-9.528136979788542">
        <ele>66.950000000000003</ele>
        <time>2026-06-28T07:04:39Z</time>
      </trkpt>
      <trkpt lat="52.108277007937431" lon="-9.528321968391538">
        <ele>66.469999999999999</ele>
        <time>2026-06-28T07:04:40Z</time>
      </trkpt>
      <trkpt lat="52.10825202986598" lon="-9.528507962822914">
        <ele>65.989999999999995</ele>
        <time>2026-06-28T07:04:41Z</time>
      </trkpt>
      <trkpt lat="52.108226967975497" lon="-9.528694963082671">
        <ele>65.510000000000005</ele>
        <time>2026-06-28T07:04:42Z</time>
      </trkpt>
      <trkpt lat="52.108201989904046" lon="-9.528881041333079">
        <ele>65.510000000000005</ele>
        <time>2026-06-28T07:04:43Z</time>
      </trkpt>
      <trkpt lat="52.108176006004214" lon="-9.529072986915708">
        <ele>65.510000000000005</ele>
        <time>2026-06-28T07:04:44Z</time>
      </trkpt>
      <trkpt lat="52.108182040974498" lon="-9.529260993003845">
        <ele>65.030000000000001</ele>
        <time>2026-06-28T07:04:45Z</time>
      </trkpt>
      <trkpt lat="52.108186986297369" lon="-9.529451010748744">
        <ele>65.030000000000001</ele>
        <time>2026-06-28T07:04:46Z</time>
      </trkpt>
      <trkpt lat="52.108193021267653" lon="-9.529638011008501">
        <ele>65.030000000000001</ele>
        <time>2026-06-28T07:04:47Z</time>
      </trkpt>
      <trkpt lat="52.108254041522741" lon="-9.53077401034534">
        <ele>64.549999999999997</ele>
        <time>2026-06-28T07:04:53Z</time>
      </trkpt>
      <trkpt lat="52.108283964917064" lon="-9.530958998948336">
        <ele>65.030000000000001</ele>
        <time>2026-06-28T07:04:54Z</time>
      </trkpt>
      <trkpt lat="52.108315983787179" lon="-9.531114986166358">
        <ele>65.030000000000001</ele>
        <time>2026-06-28T07:04:55Z</time>
      </trkpt>
      <trkpt lat="52.10838102735579" lon="-9.53127097338438">
        <ele>64.549999999999997</ele>
        <time>2026-06-28T07:04:56Z</time>
      </trkpt>
      <trkpt lat="52.108447998762131" lon="-9.531429978087544">
        <ele>64.549999999999997</ele>
        <time>2026-06-28T07:04:57Z</time>
      </trkpt>
      <trkpt lat="52.108523016795516" lon="-9.5315479952842">
        <ele>64.549999999999997</ele>
        <time>2026-06-28T07:04:58Z</time>
      </trkpt>
      <trkpt lat="52.108619995415211" lon="-9.531652014702559">
        <ele>64.549999999999997</ele>
        <time>2026-06-28T07:04:59Z</time>
      </trkpt>
      <trkpt lat="52.108715968206525" lon="-9.531755028292537">
        <ele>65.030000000000001</ele>
        <time>2026-06-28T07:05:00Z</time>
      </trkpt>
      <trkpt lat="52.108814958482981" lon="-9.5318260230124">
        <ele>65.030000000000001</ele>
        <time>2026-06-28T07:05:01Z</time>
      </trkpt>
      <trkpt lat="52.108928030356765" lon="-9.531843960285187">
        <ele>65.030000000000001</ele>
        <time>2026-06-28T07:05:02Z</time>
      </trkpt>
      <trkpt lat="52.109042024239898" lon="-9.531862987205386">
        <ele>65.510000000000005</ele>
        <time>2026-06-28T07:05:03Z</time>
      </trkpt>
      <trkpt lat="52.109154006466269" lon="-9.531881008297205">
        <ele>65.510000000000005</ele>
        <time>2026-06-28T07:05:04Z</time>
      </trkpt>
      <trkpt lat="52.109265988692641" lon="-9.531899029389024">
        <ele>65.510000000000005</ele>
        <time>2026-06-28T07:05:05Z</time>
      </trkpt>
      <trkpt lat="52.109376965090632" lon="-9.531916966661811">
        <ele>65.030000000000001</ele>
        <time>2026-06-28T07:05:06Z</time>
      </trkpt>
      <trkpt lat="52.109480984508991" lon="-9.531979998573661">
        <ele>65.510000000000005</ele>
        <time>2026-06-28T07:05:07Z</time>
      </trkpt>
      <trkpt lat="52.109568994492292" lon="-9.532099021598697">
        <ele>65.510000000000005</ele>
        <time>2026-06-28T07:05:08Z</time>
      </trkpt>
      <trkpt lat="52.109659016132355" lon="-9.532222989946604">
        <ele>65.030000000000001</ele>
        <time>2026-06-28T07:05:09Z</time>
      </trkpt>
      <trkpt lat="52.109735962003469" lon="-9.532372020184994">
        <ele>65.030000000000001</ele>
        <time>2026-06-28T07:05:10Z</time>
      </trkpt>
      <trkpt lat="52.109810980036855" lon="-9.532533958554268">
        <ele>65.030000000000001</ele>
        <time>2026-06-28T07:05:11Z</time>
      </trkpt>
      <trkpt lat="52.110617989674211" lon="-9.534272029995918">
        <ele>66.469999999999999</ele>
        <time>2026-06-28T07:05:21Z</time>
      </trkpt>
      <trkpt lat="52.111577969044447" lon="-9.536862038075924">
        <ele>65.030000000000001</ele>
        <time>2026-06-28T07:05:34Z</time>
      </trkpt>
      <trkpt lat="52.112234020605683" lon="-9.538737991824746">
        <ele>73.200000000000003</ele>
        <time>2026-06-28T07:05:44Z</time>
      </trkpt>
      <trkpt lat="52.112768031656742" lon="-9.540854003280401">
        <ele>75.599999999999994</ele>
        <time>2026-06-28T07:05:54Z</time>
      </trkpt>
      <trkpt lat="52.113111019134521" lon="-9.542845040559769">
        <ele>70.310000000000002</ele>
        <time>2026-06-28T07:06:04Z</time>
      </trkpt>
      <trkpt lat="52.113032983615994" lon="-9.54321401193738">
        <ele>68.390000000000001</ele>
        <time>2026-06-28T07:06:06Z</time>
      </trkpt>
      <trkpt lat="52.112988978624344" lon="-9.543415009975433">
        <ele>67.909999999999997</ele>
        <time>2026-06-28T07:06:07Z</time>
      </trkpt>
      <trkpt lat="52.112943967804313" lon="-9.543622964993119">
        <ele>67.430000000000007</ele>
        <time>2026-06-28T07:06:08Z</time>
      </trkpt>
      <trkpt lat="52.112510958686471" lon="-9.545080997049809">
        <ele>64.069999999999993</ele>
        <time>2026-06-28T07:06:16Z</time>
      </trkpt>
      <trkpt lat="52.112501990050077" lon="-9.545336980372667">
        <ele>63.579999999999998</ele>
        <time>2026-06-28T07:06:17Z</time>
      </trkpt>
      <trkpt lat="52.112496038898826" lon="-9.54551400616765">
        <ele>62.619999999999997</ele>
        <time>2026-06-28T07:06:18Z</time>
      </trkpt>
      <trkpt lat="52.112488998100162" lon="-9.545703018084168">
        <ele>62.140000000000001</ele>
        <time>2026-06-28T07:06:19Z</time>
      </trkpt>
      <trkpt lat="52.112497966736555" lon="-9.545845007523894">
        <ele>61.18</ele>
        <time>2026-06-28T07:06:20Z</time>
      </trkpt>
      <trkpt lat="52.112605003640056" lon="-9.547977028414607">
        <ele>54.93</ele>
        <time>2026-06-28T07:06:31Z</time>
      </trkpt>
      <trkpt lat="52.11261497810483" lon="-9.548583040013909">
        <ele>54.93</ele>
        <time>2026-06-28T07:06:34Z</time>
      </trkpt>
      <trkpt lat="52.112627970054746" lon="-9.549376973882318">
        <ele>54.93</ele>
        <time>2026-06-28T07:06:38Z</time>
      </trkpt>
      <trkpt lat="52.112630987539887" lon="-9.549572020769119">
        <ele>54.93</ele>
        <time>2026-06-28T07:06:39Z</time>
      </trkpt>
      <trkpt lat="52.112634005025029" lon="-9.549774024635553">
        <ele>54.93</ele>
        <time>2026-06-28T07:06:40Z</time>
      </trkpt>
      <trkpt lat="52.112637022510171" lon="-9.549967981874943">
        <ele>55.409999999999997</ele>
        <time>2026-06-28T07:06:41Z</time>
      </trkpt>
      <trkpt lat="52.112640039995313" lon="-9.550150958821178">
        <ele>55.890000000000001</ele>
        <time>2026-06-28T07:06:42Z</time>
      </trkpt>
      <trkpt lat="52.112642973661423" lon="-9.550337959080935">
        <ele>55.890000000000001</ele>
        <time>2026-06-28T07:06:43Z</time>
      </trkpt>
      <trkpt lat="52.112645991146564" lon="-9.550526970997453">
        <ele>55.890000000000001</ele>
        <time>2026-06-28T07:06:44Z</time>
      </trkpt>
      <trkpt lat="52.112649008631706" lon="-9.550720006227493">
        <ele>56.369999999999997</ele>
        <time>2026-06-28T07:06:45Z</time>
      </trkpt>
      <trkpt lat="52.112652026116848" lon="-9.550918992608786">
        <ele>56.369999999999997</ele>
        <time>2026-06-28T07:06:46Z</time>
      </trkpt>
      <trkpt lat="52.112659988924861" lon="-9.551544031128287">
        <ele>55.890000000000001</ele>
        <time>2026-06-28T07:06:49Z</time>
      </trkpt>
      <trkpt lat="52.112651020288467" lon="-9.552378030493856">
        <ele>55.409999999999997</ele>
        <time>2026-06-28T07:06:53Z</time>
      </trkpt>
      <trkpt lat="52.112672980874777" lon="-9.554041000083089">
        <ele>55.409999999999997</ele>
        <time>2026-06-28T07:07:01Z</time>
      </trkpt>
      <trkpt lat="52.112683961167932" lon="-9.554251972585917">
        <ele>54.93</ele>
        <time>2026-06-28T07:07:02Z</time>
      </trkpt>
      <trkpt lat="52.112695025280118" lon="-9.554463028907776">
        <ele>54.93</ele>
        <time>2026-06-28T07:07:03Z</time>
      </trkpt>
      <trkpt lat="52.112727966159582" lon="-9.555093012750149">
        <ele>54.450000000000003</ele>
        <time>2026-06-28T07:07:06Z</time>
      </trkpt>
      <trkpt lat="52.112739030271769" lon="-9.555300967767835">
        <ele>54.450000000000003</ele>
        <time>2026-06-28T07:07:07Z</time>
      </trkpt>
      <trkpt lat="52.112749004736543" lon="-9.555506994947791">
        <ele>54.450000000000003</ele>
        <time>2026-06-28T07:07:08Z</time>
      </trkpt>
      <trkpt lat="52.112759985029697" lon="-9.555706987157464">
        <ele>54.450000000000003</ele>
        <time>2026-06-28T07:07:09Z</time>
      </trkpt>
      <trkpt lat="52.112769959494472" lon="-9.555909996852279">
        <ele>54.450000000000003</ele>
        <time>2026-06-28T07:07:10Z</time>
      </trkpt>
      <trkpt lat="52.112781023606658" lon="-9.556116024032235">
        <ele>54.93</ele>
        <time>2026-06-28T07:07:11Z</time>
      </trkpt>
      <trkpt lat="52.112792003899813" lon="-9.556326996535063">
        <ele>54.93</ele>
        <time>2026-06-28T07:07:12Z</time>
      </trkpt>
      <trkpt lat="52.112895017489791" lon="-9.558325996622443">
        <ele>55.409999999999997</ele>
        <time>2026-06-28T07:07:21Z</time>
      </trkpt>
      <trkpt lat="52.113120993599296" lon="-9.560335977002978">
        <ele>56.369999999999997</ele>
        <time>2026-06-28T07:07:31Z</time>
      </trkpt>
      <trkpt lat="52.113132979720831" lon="-9.560626996681094">
        <ele>56.859999999999999</ele>
        <time>2026-06-28T07:07:37Z</time>
      </trkpt>
      <trkpt lat="52.113132979720831" lon="-9.560637976974249">
        <ele>56.859999999999999</ele>
        <time>2026-06-28T07:07:38Z</time>
      </trkpt>
      <trkpt lat="52.113132979720831" lon="-9.560637976974249">
        <ele>56.859999999999999</ele>
        <time>2026-06-28T07:07:39Z</time>
      </trkpt>
      <trkpt lat="52.113211015239358" lon="-9.560737973079085">
        <ele>56.859999999999999</ele>
        <time>2026-06-28T07:07:40Z</time>
      </trkpt>
      <trkpt lat="52.11325803771615" lon="-9.560797987505794">
        <ele>56.859999999999999</ele>
        <time>2026-06-28T07:07:41Z</time>
      </trkpt>
      <trkpt lat="52.113318974152207" lon="-9.560877028852701">
        <ele>56.859999999999999</ele>
        <time>2026-06-28T07:07:42Z</time>
      </trkpt>
      <trkpt lat="52.113390974700451" lon="-9.560968978330493">
        <ele>56.859999999999999</ele>
        <time>2026-06-28T07:07:43Z</time>
      </trkpt>
      <trkpt lat="52.114189015701413" lon="-9.561998024582863">
        <ele>58.780000000000001</ele>
        <time>2026-06-28T07:07:52Z</time>
      </trkpt>
      <trkpt lat="52.114602997899055" lon="-9.562498005107045">
        <ele>60.700000000000003</ele>
        <time>2026-06-28T07:07:57Z</time>
      </trkpt>
      <trkpt lat="52.115530958399177" lon="-9.563718996942043">
        <ele>68.390000000000001</ele>
        <time>2026-06-28T07:08:07Z</time>
      </trkpt>
      <trkpt lat="52.115646963939071" lon="-9.563800971955061">
        <ele>69.829999999999998</ele>
        <time>2026-06-28T07:08:08Z</time>
      </trkpt>
      <trkpt lat="52.11581502109766" lon="-9.563899040222168">
        <ele>73.680000000000007</ele>
        <time>2026-06-28T07:08:10Z</time>
      </trkpt>
      <trkpt lat="52.115933038294315" lon="-9.563880013301969">
        <ele>75.120000000000005</ele>
        <time>2026-06-28T07:08:11Z</time>
      </trkpt>
      <trkpt lat="52.116032028570771" lon="-9.56386299803853">
        <ele>76.560000000000002</ele>
        <time>2026-06-28T07:08:12Z</time>
      </trkpt>
      <trkpt lat="52.116130013018847" lon="-9.563846988603473">
        <ele>78</ele>
        <time>2026-06-28T07:08:13Z</time>
      </trkpt>
      <trkpt lat="52.116222968325019" lon="-9.563830979168415">
        <ele>78.969999999999999</ele>
        <time>2026-06-28T07:08:14Z</time>
      </trkpt>
      <trkpt lat="52.116618007421494" lon="-9.563772976398468">
        <ele>80.890000000000001</ele>
        <time>2026-06-28T07:08:18Z</time>
      </trkpt>
      <trkpt lat="52.116721021011472" lon="-9.563784040510654">
        <ele>81.370000000000005</ele>
        <time>2026-06-28T07:08:19Z</time>
      </trkpt>
      <trkpt lat="52.116837026551366" lon="-9.563813041895628">
        <ele>81.370000000000005</ele>
        <time>2026-06-28T07:08:20Z</time>
      </trkpt>
      <trkpt lat="52.116942973807454" lon="-9.563876995816827">
        <ele>81.849999999999994</ele>
        <time>2026-06-28T07:08:21Z</time>
      </trkpt>
      <trkpt lat="52.117053028196096" lon="-9.563942039385438">
        <ele>81.370000000000005</ele>
        <time>2026-06-28T07:08:22Z</time>
      </trkpt>
      <trkpt lat="52.117164004594088" lon="-9.564010016620159">
        <ele>81.370000000000005</ele>
        <time>2026-06-28T07:08:23Z</time>
      </trkpt>
      <trkpt lat="52.118727983906865" lon="-9.564963039010763">
        <ele>79.930000000000007</ele>
        <time>2026-06-28T07:08:37Z</time>
      </trkpt>
      <trkpt lat="52.119445977732539" lon="-9.565452039241791">
        <ele>76.560000000000002</ele>
        <time>2026-06-28T07:08:45Z</time>
      </trkpt>
      <trkpt lat="52.119504986330867" lon="-9.5654930267483">
        <ele>75.599999999999994</ele>
        <time>2026-06-28T07:08:46Z</time>
      </trkpt>
      <trkpt lat="52.119591990485787" lon="-9.565596962347627">
        <ele>74.640000000000001</ele>
        <time>2026-06-28T07:08:47Z</time>
      </trkpt>
      <trkpt lat="52.119591990485787" lon="-9.565698970109224">
        <ele>73.680000000000007</ele>
        <time>2026-06-28T07:08:48Z</time>
      </trkpt>
      <trkpt lat="52.119591990485787" lon="-9.565821010619402">
        <ele>73.200000000000003</ele>
        <time>2026-06-28T07:08:49Z</time>
      </trkpt>
      <trkpt lat="52.119591990485787" lon="-9.565959982573986">
        <ele>72.719999999999999</ele>
        <time>2026-06-28T07:08:50Z</time>
      </trkpt>
      <trkpt lat="52.119591990485787" lon="-9.566107001155615">
        <ele>72.239999999999995</ele>
        <time>2026-06-28T07:08:51Z</time>
      </trkpt>
      <trkpt lat="52.119591990485787" lon="-9.566244967281818">
        <ele>71.760000000000005</ele>
        <time>2026-06-28T07:08:52Z</time>
      </trkpt>
      <trkpt lat="52.11957698687911" lon="-9.566486030817032">
        <ele>71.760000000000005</ele>
        <time>2026-06-28T07:08:54Z</time>
      </trkpt>
      <trkpt lat="52.119485037401319" lon="-9.567076032981277">
        <ele>71.760000000000005</ele>
        <time>2026-06-28T07:08:59Z</time>
      </trkpt>
      <trkpt lat="52.11938101798296" lon="-9.567739963531494">
        <ele>72.239999999999995</ele>
        <time>2026-06-28T07:09:04Z</time>
      </trkpt>
      <trkpt lat="52.119357967749238" lon="-9.567889999598265">
        <ele>72.719999999999999</ele>
        <time>2026-06-28T07:09:05Z</time>
      </trkpt>
      <trkpt lat="52.119335001334548" lon="-9.568038024008274">
        <ele>73.200000000000003</ele>
        <time>2026-06-28T07:09:06Z</time>
      </trkpt>
      <trkpt lat="52.119238022714853" lon="-9.568654010072351">
        <ele>73.200000000000003</ele>
        <time>2026-06-28T07:09:10Z</time>
      </trkpt>
      <trkpt lat="52.119224024936557" lon="-9.568817038089037">
        <ele>73.200000000000003</ele>
        <time>2026-06-28T07:09:11Z</time>
      </trkpt>
      <trkpt lat="52.119217989966273" lon="-9.568992974236608">
        <ele>73.680000000000007</ele>
        <time>2026-06-28T07:09:12Z</time>
      </trkpt>
      <trkpt lat="52.119216984137893" lon="-9.569709040224552">
        <ele>74.159999999999997</ele>
        <time>2026-06-28T07:09:16Z</time>
      </trkpt>
      <trkpt lat="52.119442960247397" lon="-9.571448033675551">
        <ele>72.239999999999995</ele>
        <time>2026-06-28T07:09:26Z</time>
      </trkpt>
      <trkpt lat="52.11946802213788" lon="-9.571763025596738">
        <ele>71.760000000000005</ele>
        <time>2026-06-28T07:09:28Z</time>
      </trkpt>
      <trkpt lat="52.119543962180614" lon="-9.57239099778235">
        <ele>69.829999999999998</ele>
        <time>2026-06-28T07:09:32Z</time>
      </trkpt>
      <trkpt lat="52.119589978829026" lon="-9.572542039677501">
        <ele>69.829999999999998</ele>
        <time>2026-06-28T07:09:33Z</time>
      </trkpt>
      <trkpt lat="52.119656028226018" lon="-9.57267195917666">
        <ele>69.829999999999998</ele>
        <time>2026-06-28T07:09:34Z</time>
      </trkpt>
      <trkpt lat="52.119722999632359" lon="-9.572802968323231">
        <ele>69.829999999999998</ele>
        <time>2026-06-28T07:09:35Z</time>
      </trkpt>
      <trkpt lat="52.119787037372589" lon="-9.572929032146931">
        <ele>70.310000000000002</ele>
        <time>2026-06-28T07:09:36Z</time>
      </trkpt>
      <trkpt lat="52.119849985465407" lon="-9.573050988838077">
        <ele>70.310000000000002</ele>
        <time>2026-06-28T07:09:37Z</time>
      </trkpt>
      <trkpt lat="52.119909999892116" lon="-9.573169006034732">
        <ele>70.310000000000002</ele>
        <time>2026-06-28T07:09:38Z</time>
      </trkpt>
      <trkpt lat="52.12009197100997" lon="-9.573526997119188">
        <ele>69.829999999999998</ele>
        <time>2026-06-28T07:09:41Z</time>
      </trkpt>
      <trkpt lat="52.120138993486762" lon="-9.573652977123857">
        <ele>69.349999999999994</ele>
        <time>2026-06-28T07:09:42Z</time>
      </trkpt>
      <trkpt lat="52.120182998478413" lon="-9.573784992098808">
        <ele>68.870000000000005</ele>
        <time>2026-06-28T07:09:43Z</time>
      </trkpt>
      <trkpt lat="52.120602009817958" lon="-9.574982011690736">
        <ele>63.100000000000001</ele>
        <time>2026-06-28T07:09:52Z</time>
      </trkpt>
      <trkpt lat="52.120669987052679" lon="-9.575092988088727">
        <ele>62.619999999999997</ele>
        <time>2026-06-28T07:09:53Z</time>
      </trkpt>
      <trkpt lat="52.121253032237291" lon="-9.576060008257628">
        <ele>61.18</ele>
        <time>2026-06-28T07:10:02Z</time>
      </trkpt>
      <trkpt lat="52.12142201140523" lon="-9.576340969651938">
        <ele>59.740000000000002</ele>
        <time>2026-06-28T07:10:05Z</time>
      </trkpt>
      <trkpt lat="52.121501974761486" lon="-9.576472984626889">
        <ele>59.259999999999998</ele>
        <time>2026-06-28T07:10:06Z</time>
      </trkpt>
      <trkpt lat="52.121510021388531" lon="-9.576569963246584">
        <ele>58.780000000000001</ele>
        <time>2026-06-28T07:10:07Z</time>
      </trkpt>
      <trkpt lat="52.121523013338447" lon="-9.576730979606509">
        <ele>58.299999999999997</ele>
        <time>2026-06-28T07:10:08Z</time>
      </trkpt>
      <trkpt lat="52.121510021388531" lon="-9.576867017894983">
        <ele>58.299999999999997</ele>
        <time>2026-06-28T07:10:09Z</time>
      </trkpt>
      <trkpt lat="52.121497029438615" lon="-9.577013030648232">
        <ele>58.299999999999997</ele>
        <time>2026-06-28T07:10:10Z</time>
      </trkpt>
      <trkpt lat="52.121483031660318" lon="-9.57716298289597">
        <ele>58.299999999999997</ele>
        <time>2026-06-28T07:10:11Z</time>
      </trkpt>
      <trkpt lat="52.121469033882022" lon="-9.577313018962741">
        <ele>58.299999999999997</ele>
        <time>2026-06-28T07:10:12Z</time>
      </trkpt>
      <trkpt lat="52.121455958113074" lon="-9.577451990917325">
        <ele>57.82</ele>
        <time>2026-06-28T07:10:13Z</time>
      </trkpt>
      <trkpt lat="52.121443971991539" lon="-9.577583000063896">
        <ele>57.82</ele>
        <time>2026-06-28T07:10:14Z</time>
      </trkpt>
      <trkpt lat="52.121385969221592" lon="-9.577845018357039">
        <ele>58.299999999999997</ele>
        <time>2026-06-28T07:10:16Z</time>
      </trkpt>
      <trkpt lat="52.121240040287375" lon="-9.578486988320947">
        <ele>60.219999999999999</ele>
        <time>2026-06-28T07:10:21Z</time>
      </trkpt>
      <trkpt lat="52.121001994237304" lon="-9.580227993428707">
        <ele>59.740000000000002</ele>
        <time>2026-06-28T07:10:32Z</time>
      </trkpt>
      <trkpt lat="52.120891017839313" lon="-9.581045983359218">
        <ele>58.780000000000001</ele>
        <time>2026-06-28T07:10:37Z</time>
      </trkpt>
      <trkpt lat="52.120892023667693" lon="-9.581218985840678">
        <ele>58.299999999999997</ele>
        <time>2026-06-28T07:10:38Z</time>
      </trkpt>
      <trkpt lat="52.120917001739144" lon="-9.581397017464042">
        <ele>58.299999999999997</ele>
        <time>2026-06-28T07:10:39Z</time>
      </trkpt>
      <trkpt lat="52.121182037517428" lon="-9.583288980647922">
        <ele>58.780000000000001</ele>
        <time>2026-06-28T07:10:50Z</time>
      </trkpt>
      <trkpt lat="52.121483031660318" lon="-9.585287980735302">
        <ele>59.259999999999998</ele>
        <time>2026-06-28T07:11:02Z</time>
      </trkpt>
      <trkpt lat="52.121900031343102" lon="-9.58758101798594">
        <ele>54.450000000000003</ele>
        <time>2026-06-28T07:11:15Z</time>
      </trkpt>
      <trkpt lat="52.121973959729075" lon="-9.588060965761542">
        <ele>53.490000000000002</ele>
        <time>2026-06-28T07:11:18Z</time>
      </trkpt>
      <trkpt lat="52.121973959729075" lon="-9.588396996259689">
        <ele>53.490000000000002</ele>
        <time>2026-06-28T07:11:20Z</time>
      </trkpt>
      <trkpt lat="52.122032968327403" lon="-9.590055020526052">
        <ele>52.049999999999997</ele>
        <time>2026-06-28T07:11:29Z</time>
      </trkpt>
      <trkpt lat="52.122267996892333" lon="-9.591692006215453">
        <ele>52.530000000000001</ele>
        <time>2026-06-28T07:11:39Z</time>
      </trkpt>
      <trkpt lat="52.122370004653931" lon="-9.592141024768353">
        <ele>52.530000000000001</ele>
        <time>2026-06-28T07:11:42Z</time>
      </trkpt>
      <trkpt lat="52.122403029352427" lon="-9.59228795953095">
        <ele>52.049999999999997</ele>
        <time>2026-06-28T07:11:43Z</time>
      </trkpt>
      <trkpt lat="52.122404035180807" lon="-9.59241402335465">
        <ele>51.57</ele>
        <time>2026-06-28T07:11:44Z</time>
      </trkpt>
      <trkpt lat="52.122418032959104" lon="-9.593859985470772">
        <ele>49.649999999999999</ele>
        <time>2026-06-28T07:11:52Z</time>
      </trkpt>
      <trkpt lat="52.12241199798882" lon="-9.59456498734653">
        <ele>49.649999999999999</ele>
        <time>2026-06-28T07:11:59Z</time>
      </trkpt>
      <trkpt lat="52.12239196524024" lon="-9.594603963196278">
        <ele>49.649999999999999</ele>
        <time>2026-06-28T07:12:00Z</time>
      </trkpt>
      <trkpt lat="52.122371010482311" lon="-9.594647968187928">
        <ele>49.649999999999999</ele>
        <time>2026-06-28T07:12:01Z</time>
      </trkpt>
      <trkpt lat="52.12230496108532" lon="-9.594695996493101">
        <ele>50.130000000000003</ele>
        <time>2026-06-28T07:12:02Z</time>
      </trkpt>
      <trkpt lat="52.122241007164121" lon="-9.594663977622986">
        <ele>50.130000000000003</ele>
        <time>2026-06-28T07:12:03Z</time>
      </trkpt>
      <trkpt lat="52.122163977473974" lon="-9.594648974016309">
        <ele>49.649999999999999</ele>
        <time>2026-06-28T07:12:04Z</time>
      </trkpt>
      <trkpt lat="52.122075967490673" lon="-9.594651991501451">
        <ele>49.649999999999999</ele>
        <time>2026-06-28T07:12:05Z</time>
      </trkpt>
      <trkpt lat="52.121985023841262" lon="-9.594654003158212">
        <ele>49.159999999999997</ele>
        <time>2026-06-28T07:12:06Z</time>
      </trkpt>
      <trkpt lat="52.120875008404255" lon="-9.59452198818326">
        <ele>47.719999999999999</ele>
        <time>2026-06-28T07:12:18Z</time>
      </trkpt>
      <trkpt lat="52.120535960420966" lon="-9.594432972371578">
        <ele>47.719999999999999</ele>
        <time>2026-06-28T07:12:22Z</time>
      </trkpt>
      <trkpt lat="52.120467983186245" lon="-9.594440013170242">
        <ele>47.240000000000002</ele>
        <time>2026-06-28T07:12:23Z</time>
      </trkpt>
      <trkpt lat="52.120408974587917" lon="-9.594445964321494">
        <ele>46.759999999999998</ele>
        <time>2026-06-28T07:12:24Z</time>
      </trkpt>
      <trkpt lat="52.120363041758537" lon="-9.594450993463397">
        <ele>46.759999999999998</ele>
        <time>2026-06-28T07:12:25Z</time>
      </trkpt>
      <trkpt lat="52.120316019281745" lon="-9.594468008726835">
        <ele>46.280000000000001</ele>
        <time>2026-06-28T07:12:26Z</time>
      </trkpt>
      <trkpt lat="52.120282994583249" lon="-9.594551995396614">
        <ele>45.799999999999997</ele>
        <time>2026-06-28T07:12:27Z</time>
      </trkpt>
      <trkpt lat="52.120244018733501" lon="-9.594648974016309">
        <ele>45.32</ele>
        <time>2026-06-28T07:12:28Z</time>
      </trkpt>
      <trkpt lat="52.12021904066205" lon="-9.594769002869725">
        <ele>45.32</ele>
        <time>2026-06-28T07:12:29Z</time>
      </trkpt>
      <trkpt lat="52.120200013741851" lon="-9.594892971217632">
        <ele>45.32</ele>
        <time>2026-06-28T07:12:30Z</time>
      </trkpt>
      <trkpt lat="52.12017796933651" lon="-9.595025992020965">
        <ele>44.840000000000003</ele>
        <time>2026-06-28T07:12:31Z</time>
      </trkpt>
      <trkpt lat="52.120102029293776" lon="-9.595581041648984">
        <ele>44.840000000000003</ele>
        <time>2026-06-28T07:12:35Z</time>
      </trkpt>
      <trkpt lat="52.120087025687099" lon="-9.595718001946807">
        <ele>45.32</ele>
        <time>2026-06-28T07:12:36Z</time>
      </trkpt>
      <trkpt lat="52.120073027908802" lon="-9.595848005264998">
        <ele>45.799999999999997</ele>
        <time>2026-06-28T07:12:37Z</time>
      </trkpt>
      <trkpt lat="52.120060035958886" lon="-9.595968034118414">
        <ele>46.280000000000001</ele>
        <time>2026-06-28T07:12:38Z</time>
      </trkpt>
      <trkpt lat="52.120047966018319" lon="-9.596080016344786">
        <ele>46.759999999999998</ele>
        <time>2026-06-28T07:12:39Z</time>
      </trkpt>
      <trkpt lat="52.120034974068403" lon="-9.596200967207551">
        <ele>47.240000000000002</ele>
        <time>2026-06-28T07:12:40Z</time>
      </trkpt>
      <trkpt lat="52.120021982118487" lon="-9.596329964697361">
        <ele>48.200000000000003</ele>
        <time>2026-06-28T07:12:41Z</time>
      </trkpt>
      <trkpt lat="52.119915029034019" lon="-9.597330009564757">
        <ele>54.450000000000003</ele>
        <time>2026-06-28T07:12:48Z</time>
      </trkpt>
      <trkpt lat="52.119901031255722" lon="-9.597459007054567">
        <ele>54.93</ele>
        <time>2026-06-28T07:12:49Z</time>
      </trkpt>
      <trkpt lat="52.119886027649045" lon="-9.597598984837532">
        <ele>54.93</ele>
        <time>2026-06-28T07:12:50Z</time>
      </trkpt>
      <trkpt lat="52.119796006008983" lon="-9.598082033917308">
        <ele>53.490000000000002</ele>
        <time>2026-06-28T07:12:53Z</time>
      </trkpt>
      <trkpt lat="52.119669020175934" lon="-9.59866801276803">
        <ele>51.57</ele>
        <time>2026-06-28T07:12:57Z</time>
      </trkpt>
      <trkpt lat="52.119549997150898" lon="-9.599218033254147">
        <ele>50.130000000000003</ele>
        <time>2026-06-28T07:13:02Z</time>
      </trkpt>
      <trkpt lat="52.119538011029363" lon="-9.599271006882191">
        <ele>50.130000000000003</ele>
        <time>2026-06-28T07:13:03Z</time>
      </trkpt>
      <trkpt lat="52.119530970230699" lon="-9.599305959418416">
        <ele>49.649999999999999</ele>
        <time>2026-06-28T07:13:04Z</time>
      </trkpt>
      <trkpt lat="52.119523007422686" lon="-9.599339989945293">
        <ele>50.130000000000003</ele>
        <time>2026-06-28T07:13:10Z</time>
      </trkpt>
      <trkpt lat="52.119383029639721" lon="-9.599427999928594">
        <ele>50.609999999999999</ele>
        <time>2026-06-28T07:13:12Z</time>
      </trkpt>
      <trkpt lat="52.119344975799322" lon="-9.599394975230098">
        <ele>50.609999999999999</ele>
        <time>2026-06-28T07:13:13Z</time>
      </trkpt>
      <trkpt lat="52.119289990514517" lon="-9.599346024915576">
        <ele>50.609999999999999</ele>
        <time>2026-06-28T07:13:14Z</time>
      </trkpt>
      <trkpt lat="52.119220001623034" lon="-9.599282993003726">
        <ele>50.609999999999999</ele>
        <time>2026-06-28T07:13:15Z</time>
      </trkpt>
      <trkpt lat="52.118965024128556" lon="-9.599070008844137">
        <ele>50.609999999999999</ele>
        <time>2026-06-28T07:13:18Z</time>
      </trkpt>
      <trkpt lat="52.118871985003352" lon="-9.598994990810752">
        <ele>50.609999999999999</ele>
        <time>2026-06-28T07:13:19Z</time>
      </trkpt>
      <trkpt lat="52.118119960650802" lon="-9.598397025838494">
        <ele>56.369999999999997</ele>
        <time>2026-06-28T07:13:28Z</time>
      </trkpt>
      <trkpt lat="52.118087019771338" lon="-9.598370958119631">
        <ele>56.369999999999997</ele>
        <time>2026-06-28T07:13:29Z</time>
      </trkpt>
      <trkpt lat="52.118032034486532" lon="-9.598374981433153">
        <ele>56.369999999999997</ele>
        <time>2026-06-28T07:13:30Z</time>
      </trkpt>
      <trkpt lat="52.118004038929939" lon="-9.598445976153016">
        <ele>56.859999999999999</ele>
        <time>2026-06-28T07:13:31Z</time>
      </trkpt>
      <trkpt lat="52.117966990917921" lon="-9.598540021106601">
        <ele>56.859999999999999</ele>
        <time>2026-06-28T07:13:32Z</time>
      </trkpt>
      <trkpt lat="52.117920974269509" lon="-9.598653009161353">
        <ele>56.859999999999999</ele>
        <time>2026-06-28T07:13:33Z</time>
      </trkpt>
      <trkpt lat="52.117870012298226" lon="-9.598781000822783">
        <ele>56.859999999999999</ele>
        <time>2026-06-28T07:13:34Z</time>
      </trkpt>
      <trkpt lat="52.117753000929952" lon="-9.59907403215766">
        <ele>57.340000000000003</ele>
        <time>2026-06-28T07:13:36Z</time>
      </trkpt>
      <trkpt lat="52.1177280228585" lon="-9.599260026589036">
        <ele>57.82</ele>
        <time>2026-06-28T07:13:37Z</time>
      </trkpt>
      <trkpt lat="52.117558037862182" lon="-9.600827023386955">
        <ele>58.299999999999997</ele>
        <time>2026-06-28T07:13:46Z</time>
      </trkpt>
      <trkpt lat="52.11712502874434" lon="-9.602705994620919">
        <ele>56.369999999999997</ele>
        <time>2026-06-28T07:13:57Z</time>
      </trkpt>
      <trkpt lat="52.116897040978074" lon="-9.603623980656266">
        <ele>53.009999999999998</ele>
        <time>2026-06-28T07:14:02Z</time>
      </trkpt>
      <trkpt lat="52.116604009643197" lon="-9.604337029159069">
        <ele>52.049999999999997</ele>
        <time>2026-06-28T07:14:07Z</time>
      </trkpt>
      <trkpt lat="52.116545001044869" lon="-9.604399977251887">
        <ele>52.049999999999997</ele>
        <time>2026-06-28T07:14:08Z</time>
      </trkpt>
      <trkpt lat="52.116483980789781" lon="-9.60446703247726">
        <ele>51.57</ele>
        <time>2026-06-28T07:14:09Z</time>
      </trkpt>
      <trkpt lat="52.116422038525343" lon="-9.60453299805522">
        <ele>51.090000000000003</ele>
        <time>2026-06-28T07:14:10Z</time>
      </trkpt>
      <trkpt lat="52.116382978856564" lon="-9.604628970846534">
        <ele>50.609999999999999</ele>
        <time>2026-06-28T07:14:11Z</time>
      </trkpt>
      <trkpt lat="52.116350037977099" lon="-9.604729972779751">
        <ele>50.130000000000003</ele>
        <time>2026-06-28T07:14:12Z</time>
      </trkpt>
      <trkpt lat="52.116340985521674" lon="-9.60485796444118">
        <ele>49.649999999999999</ele>
        <time>2026-06-28T07:14:13Z</time>
      </trkpt>
      <trkpt lat="52.1163310110569" lon="-9.60500699467957">
        <ele>49.159999999999997</ele>
        <time>2026-06-28T07:14:14Z</time>
      </trkpt>
      <trkpt lat="52.116220034658909" lon="-9.605969991534948">
        <ele>47.719999999999999</ele>
        <time>2026-06-28T07:14:20Z</time>
      </trkpt>
      <trkpt lat="52.116179969161749" lon="-9.606021037325263">
        <ele>47.719999999999999</ele>
        <time>2026-06-28T07:14:21Z</time>
      </trkpt>
      <trkpt lat="52.116079973056912" lon="-9.605979965999723">
        <ele>47.240000000000002</ele>
        <time>2026-06-28T07:14:23Z</time>
      </trkpt>
      <trkpt lat="52.116018030792475" lon="-9.605953982099891">
        <ele>47.240000000000002</ele>
        <time>2026-06-28T07:14:24Z</time>
      </trkpt>
      <trkpt lat="52.115404978394508" lon="-9.605703027918935">
        <ele>48.200000000000003</ele>
        <time>2026-06-28T07:14:31Z</time>
      </trkpt>
      <trkpt lat="52.115303976461291" lon="-9.605662040412426">
        <ele>49.159999999999997</ele>
        <time>2026-06-28T07:14:32Z</time>
      </trkpt>
      <trkpt lat="52.114966018125415" lon="-9.60552298463881">
        <ele>53.969999999999999</ele>
        <time>2026-06-28T07:14:36Z</time>
      </trkpt>
      <trkpt lat="52.11487096734345" lon="-9.605484008789063">
        <ele>54.450000000000003</ele>
        <time>2026-06-28T07:14:37Z</time>
      </trkpt>
      <trkpt lat="52.11480500176549" lon="-9.605536982417107">
        <ele>54.93</ele>
        <time>2026-06-28T07:14:38Z</time>
      </trkpt>
      <trkpt lat="52.114733001217246" lon="-9.605594985187054">
        <ele>55.409999999999997</ele>
        <time>2026-06-28T07:14:39Z</time>
      </trkpt>
      <trkpt lat="52.114657983183861" lon="-9.605653993785381">
        <ele>55.409999999999997</ele>
        <time>2026-06-28T07:14:40Z</time>
      </trkpt>
      <trkpt lat="52.114581959322095" lon="-9.605716019868851">
        <ele>55.890000000000001</ele>
        <time>2026-06-28T07:14:41Z</time>
      </trkpt>
      <trkpt lat="52.114519011229277" lon="-9.605815010145307">
        <ele>55.890000000000001</ele>
        <time>2026-06-28T07:14:42Z</time>
      </trkpt>
      <trkpt lat="52.114469977095723" lon="-9.605931015685201">
        <ele>55.890000000000001</ele>
        <time>2026-06-28T07:14:43Z</time>
      </trkpt>
      <trkpt lat="52.114428989589214" lon="-9.606076022610068">
        <ele>55.890000000000001</ele>
        <time>2026-06-28T07:14:44Z</time>
      </trkpt>
      <trkpt lat="52.114403005689383" lon="-9.60622999817133">
        <ele>55.409999999999997</ele>
        <time>2026-06-28T07:14:45Z</time>
      </trkpt>
      <trkpt lat="52.11437501013279" lon="-9.606392020359635">
        <ele>54.93</ele>
        <time>2026-06-28T07:14:46Z</time>
      </trkpt>
      <trkpt lat="52.114103017374873" lon="-9.607981983572245">
        <ele>53.969999999999999</ele>
        <time>2026-06-28T07:14:56Z</time>
      </trkpt>
      <trkpt lat="52.1140549890697" lon="-9.608265040442348">
        <ele>54.450000000000003</ele>
        <time>2026-06-28T07:14:58Z</time>
      </trkpt>
      <trkpt lat="52.11403202265501" lon="-9.608403006568551">
        <ele>54.450000000000003</ele>
        <time>2026-06-28T07:14:59Z</time>
      </trkpt>
      <trkpt lat="52.113958010450006" lon="-9.608694026246667">
        <ele>54.93</ele>
        <time>2026-06-28T07:15:01Z</time>
      </trkpt>
      <trkpt lat="52.113818032667041" lon="-9.608930982649326">
        <ele>54.93</ele>
        <time>2026-06-28T07:15:03Z</time>
      </trkpt>
      <trkpt lat="52.113375971093774" lon="-9.60968803614378">
        <ele>55.890000000000001</ele>
        <time>2026-06-28T07:15:10Z</time>
      </trkpt>
      <trkpt lat="52.113334983587265" lon="-9.609760036692023">
        <ele>57.340000000000003</ele>
        <time>2026-06-28T07:15:17Z</time>
      </trkpt>
      <trkpt lat="52.113334983587265" lon="-9.609760036692023">
        <ele>57.82</ele>
        <time>2026-06-28T07:16:08Z</time>
      </trkpt>
      <trkpt lat="52.113308999687433" lon="-9.60986296646297">
        <ele>57.82</ele>
        <time>2026-06-28T07:16:19Z</time>
      </trkpt>
      <trkpt lat="52.113290978595614" lon="-9.609960028901696">
        <ele>57.82</ele>
        <time>2026-06-28T07:16:20Z</time>
      </trkpt>
      <trkpt lat="52.113032983615994" lon="-9.611126035451889">
        <ele>56.859999999999999</ele>
        <time>2026-06-28T07:16:28Z</time>
      </trkpt>
      <trkpt lat="52.112972969189286" lon="-9.611308006569743">
        <ele>56.859999999999999</ele>
        <time>2026-06-28T07:16:29Z</time>
      </trkpt>
      <trkpt lat="52.112910021096468" lon="-9.611496012657881">
        <ele>56.859999999999999</ele>
        <time>2026-06-28T07:16:30Z</time>
      </trkpt>
      <trkpt lat="52.112845983356237" lon="-9.611676977947354">
        <ele>56.369999999999997</ele>
        <time>2026-06-28T07:16:31Z</time>
      </trkpt>
      <trkpt lat="52.11186496540904" lon="-9.613659968599677">
        <ele>57.82</ele>
        <time>2026-06-28T07:16:42Z</time>
      </trkpt>
      <trkpt lat="52.111397003754973" lon="-9.614664958789945">
        <ele>58.299999999999997</ele>
        <time>2026-06-28T07:16:47Z</time>
      </trkpt>
      <trkpt lat="52.110804989933968" lon="-9.616411998867989">
        <ele>56.369999999999997</ele>
        <time>2026-06-28T07:16:56Z</time>
      </trkpt>
      <trkpt lat="52.110701976343989" lon="-9.616669993847609">
        <ele>55.409999999999997</ele>
        <time>2026-06-28T07:17:01Z</time>
      </trkpt>
      <trkpt lat="52.110692001879215" lon="-9.616692960262299">
        <ele>55.409999999999997</ele>
        <time>2026-06-28T07:17:05Z</time>
      </trkpt>
      <trkpt lat="52.110643973574042" lon="-9.616813994944096">
        <ele>55.409999999999997</ele>
        <time>2026-06-28T07:17:06Z</time>
      </trkpt>
      <trkpt lat="52.110608015209436" lon="-9.616790022701025">
        <ele>54.93</ele>
        <time>2026-06-28T07:17:07Z</time>
      </trkpt>
      <trkpt lat="52.110540037974715" lon="-9.616743000224233">
        <ele>54.93</ele>
        <time>2026-06-28T07:17:08Z</time>
      </trkpt>
      <trkpt lat="52.110462002456188" lon="-9.616690026596189">
        <ele>54.93</ele>
        <time>2026-06-28T07:17:09Z</time>
      </trkpt>
      <trkpt lat="52.110378015786409" lon="-9.616632023826242">
        <ele>54.93</ele>
        <time>2026-06-28T07:17:10Z</time>
      </trkpt>
      <trkpt lat="52.109463969245553" lon="-9.616010002791882">
        <ele>56.859999999999999</ele>
        <time>2026-06-28T07:17:18Z</time>
      </trkpt>
      <trkpt lat="52.10803703404963" lon="-9.615038959309459">
        <ele>59.740000000000002</ele>
        <time>2026-06-28T07:17:28Z</time>
      </trkpt>
      <trkpt lat="52.106488980352879" lon="-9.614191967993975">
        <ele>62.140000000000001</ele>
        <time>2026-06-28T07:17:39Z</time>
      </trkpt>
      <trkpt lat="52.104874961078167" lon="-9.613713026046753">
        <ele>66.950000000000003</ele>
        <time>2026-06-28T07:17:50Z</time>
      </trkpt>
      <trkpt lat="52.102659959346056" lon="-9.613122018054128">
        <ele>67.909999999999997</ele>
        <time>2026-06-28T07:18:04Z</time>
      </trkpt>
      <trkpt lat="52.10152898915112" lon="-9.61295303888619">
        <ele>62.619999999999997</ele>
        <time>2026-06-28T07:18:12Z</time>
      </trkpt>
      <trkpt lat="52.101417006924748" lon="-9.612987991422415">
        <ele>61.659999999999997</ele>
        <time>2026-06-28T07:18:13Z</time>
      </trkpt>
      <trkpt lat="52.10129396058619" lon="-9.613058986142278">
        <ele>60.219999999999999</ele>
        <time>2026-06-28T07:18:14Z</time>
      </trkpt>
      <trkpt lat="52.10116202943027" lon="-9.613135010004044">
        <ele>58.780000000000001</ele>
        <time>2026-06-28T07:18:15Z</time>
      </trkpt>
      <trkpt lat="52.101019034162164" lon="-9.613216985017061">
        <ele>57.82</ele>
        <time>2026-06-28T07:18:16Z</time>
      </trkpt>
      <trkpt lat="52.099481038749218" lon="-9.614205965772271">
        <ele>51.57</ele>
        <time>2026-06-28T07:18:26Z</time>
      </trkpt>
      <trkpt lat="52.098201038315892" lon="-9.615139039233327">
        <ele>59.740000000000002</ele>
        <time>2026-06-28T07:18:36Z</time>
      </trkpt>
      <trkpt lat="52.097969027236104" lon="-9.615309024229646">
        <ele>61.18</ele>
        <time>2026-06-28T07:18:39Z</time>
      </trkpt>
      <trkpt lat="52.097919993102551" lon="-9.615343976765871">
        <ele>61.659999999999997</ele>
        <time>2026-06-28T07:18:40Z</time>
      </trkpt>
      <trkpt lat="52.097876993939281" lon="-9.615375995635986">
        <ele>62.140000000000001</ele>
        <time>2026-06-28T07:18:41Z</time>
      </trkpt>
      <trkpt lat="52.097858972847462" lon="-9.615416983142495">
        <ele>62.619999999999997</ele>
        <time>2026-06-28T07:18:42Z</time>
      </trkpt>
      <trkpt lat="52.097847992554307" lon="-9.615441961213946">
        <ele>63.100000000000001</ele>
        <time>2026-06-28T07:18:43Z</time>
      </trkpt>
      <trkpt lat="52.097839023917913" lon="-9.615464005619288">
        <ele>63.579999999999998</ele>
        <time>2026-06-28T07:18:44Z</time>
      </trkpt>
      <trkpt lat="52.097812034189701" lon="-9.615526031702757">
        <ele>64.069999999999993</ele>
        <time>2026-06-28T07:18:45Z</time>
      </trkpt>
      <trkpt lat="52.097770040854812" lon="-9.615507004782558">
        <ele>65.030000000000001</ele>
        <time>2026-06-28T07:18:46Z</time>
      </trkpt>
      <trkpt lat="52.09770399145782" lon="-9.615476997569203">
        <ele>65.510000000000005</ele>
        <time>2026-06-28T07:18:47Z</time>
      </trkpt>
      <trkpt lat="52.097627967596054" lon="-9.615442967042327">
        <ele>65.989999999999995</ele>
        <time>2026-06-28T07:18:48Z</time>
      </trkpt>
      <trkpt lat="52.097541969269514" lon="-9.615403991192579">
        <ele>65.989999999999995</ele>
        <time>2026-06-28T07:18:49Z</time>
      </trkpt>
      <trkpt lat="52.09733996540308" lon="-9.615312041714788">
        <ele>65.989999999999995</ele>
        <time>2026-06-28T07:18:51Z</time>
      </trkpt>
      <trkpt lat="52.097240975126624" lon="-9.615238029509783">
        <ele>65.989999999999995</ele>
        <time>2026-06-28T07:18:52Z</time>
      </trkpt>
      <trkpt lat="52.096916008740664" lon="-9.614998977631331">
        <ele>66.469999999999999</ele>
        <time>2026-06-28T07:18:55Z</time>
      </trkpt>
      <trkpt lat="52.096800003200769" lon="-9.614947009831667">
        <ele>66.469999999999999</ele>
        <time>2026-06-28T07:18:56Z</time>
      </trkpt>
      <trkpt lat="52.096677962690592" lon="-9.614947009831667">
        <ele>66.950000000000003</ele>
        <time>2026-06-28T07:18:57Z</time>
      </trkpt>
      <trkpt lat="52.096546031534672" lon="-9.614947009831667">
        <ele>66.469999999999999</ele>
        <time>2026-06-28T07:18:58Z</time>
      </trkpt>
      <trkpt lat="52.096418039873242" lon="-9.614947009831667">
        <ele>66.469999999999999</ele>
        <time>2026-06-28T07:18:59Z</time>
      </trkpt>
      <trkpt lat="52.096294993534684" lon="-9.61491197347641">
        <ele>65.989999999999995</ele>
        <time>2026-06-28T07:19:00Z</time>
      </trkpt>
      <trkpt lat="52.096174964681268" lon="-9.614878026768565">
        <ele>65.989999999999995</ele>
        <time>2026-06-28T07:19:01Z</time>
      </trkpt>
      <trkpt lat="52.096065999940038" lon="-9.614809965714812">
        <ele>65.989999999999995</ele>
        <time>2026-06-28T07:19:02Z</time>
      </trkpt>
      <trkpt lat="52.095958041027188" lon="-9.614702006801963">
        <ele>65.989999999999995</ele>
        <time>2026-06-28T07:19:03Z</time>
      </trkpt>
      <trkpt lat="52.095843041315675" lon="-9.614587007090449">
        <ele>65.989999999999995</ele>
        <time>2026-06-28T07:19:04Z</time>
      </trkpt>
      <trkpt lat="52.095730975270271" lon="-9.614475024864078">
        <ele>65.989999999999995</ele>
        <time>2026-06-28T07:19:05Z</time>
      </trkpt>
      <trkpt lat="52.0956189930439" lon="-9.614318031817675">
        <ele>65.989999999999995</ele>
        <time>2026-06-28T07:19:06Z</time>
      </trkpt>
      <trkpt lat="52.094612997025251" lon="-9.612785987555981">
        <ele>68.390000000000001</ele>
        <time>2026-06-28T07:19:15Z</time>
      </trkpt>
      <trkpt lat="52.093446990475059" lon="-9.611196024343371">
        <ele>71.269999999999996</ele>
        <time>2026-06-28T07:19:24Z</time>
      </trkpt>
      <trkpt lat="52.091784020885825" lon="-9.608900975435972">
        <ele>72.239999999999995</ele>
        <time>2026-06-28T07:19:36Z</time>
      </trkpt>
      <trkpt lat="52.090324983000755" lon="-9.606623025611043">
        <ele>74.159999999999997</ele>
        <time>2026-06-28T07:19:47Z</time>
      </trkpt>
      <trkpt lat="52.089213961735368" lon="-9.604778001084924">
        <ele>73.200000000000003</ele>
        <time>2026-06-28T07:19:56Z</time>
      </trkpt>
      <trkpt lat="52.088319025933743" lon="-9.602958960458636">
        <ele>74.159999999999997</ele>
        <time>2026-06-28T07:20:05Z</time>
      </trkpt>
      <trkpt lat="52.088221041485667" lon="-9.60268403403461">
        <ele>74.640000000000001</ele>
        <time>2026-06-28T07:20:08Z</time>
      </trkpt>
      <trkpt lat="52.088200002908707" lon="-9.602623013779521">
        <ele>74.640000000000001</ele>
        <time>2026-06-28T07:20:09Z</time>
      </trkpt>
      <trkpt lat="52.088130014017224" lon="-9.602522011846304">
        <ele>74.640000000000001</ele>
        <time>2026-06-28T07:20:10Z</time>
      </trkpt>
      <trkpt lat="52.088091960176826" lon="-9.602552019059658">
        <ele>74.640000000000001</ele>
        <time>2026-06-28T07:20:11Z</time>
      </trkpt>
      <trkpt lat="52.08803697489202" lon="-9.602595018222928">
        <ele>75.120000000000005</ele>
        <time>2026-06-28T07:20:12Z</time>
      </trkpt>
      <trkpt lat="52.087968997657299" lon="-9.602647991850972">
        <ele>75.120000000000005</ele>
        <time>2026-06-28T07:20:13Z</time>
      </trkpt>
      <trkpt lat="52.087889034301043" lon="-9.602711023762822">
        <ele>74.640000000000001</ele>
        <time>2026-06-28T07:20:14Z</time>
      </trkpt>
      <trkpt lat="52.08779901266098" lon="-9.602781012654305">
        <ele>74.159999999999997</ele>
        <time>2026-06-28T07:20:15Z</time>
      </trkpt>
      <trkpt lat="52.086944980546832" lon="-9.603450978174806">
        <ele>70.790000000000006</ele>
        <time>2026-06-28T07:20:22Z</time>
      </trkpt>
      <trkpt lat="52.084931982681155" lon="-9.605014035478234">
        <ele>62.619999999999997</ele>
        <time>2026-06-28T07:20:36Z</time>
      </trkpt>
      <trkpt lat="52.082919990643859" lon="-9.606540966778994">
        <ele>57.340000000000003</ele>
        <time>2026-06-28T07:20:50Z</time>
      </trkpt>
      <trkpt lat="52.080406006425619" lon="-9.608444999903441">
        <ele>58.780000000000001</ele>
        <time>2026-06-28T07:21:07Z</time>
      </trkpt>
      <trkpt lat="52.079998981207609" lon="-9.608709029853344">
        <ele>59.259999999999998</ele>
        <time>2026-06-28T07:21:10Z</time>
      </trkpt>
      <trkpt lat="52.079868977889419" lon="-9.608768038451672">
        <ele>59.740000000000002</ele>
        <time>2026-06-28T07:21:11Z</time>
      </trkpt>
      <trkpt lat="52.079745009541512" lon="-9.608825035393238">
        <ele>59.740000000000002</ele>
        <time>2026-06-28T07:21:12Z</time>
      </trkpt>
      <trkpt lat="52.079637972638011" lon="-9.60887398570776">
        <ele>59.740000000000002</ele>
        <time>2026-06-28T07:21:13Z</time>
      </trkpt>
      <trkpt lat="52.0795280020684" lon="-9.609008012339473">
        <ele>59.259999999999998</ele>
        <time>2026-06-28T07:21:14Z</time>
      </trkpt>
      <trkpt lat="52.079429011791945" lon="-9.609128041192889">
        <ele>58.299999999999997</ele>
        <time>2026-06-28T07:21:15Z</time>
      </trkpt>
      <trkpt lat="52.078501973301172" lon="-9.610194973647595">
        <ele>51.57</ele>
        <time>2026-06-28T07:21:23Z</time>
      </trkpt>
      <trkpt lat="52.077303025871515" lon="-9.611405991017819">
        <ele>47.719999999999999</ele>
        <time>2026-06-28T07:21:33Z</time>
      </trkpt>
      <trkpt lat="52.077195988968015" lon="-9.611511016264558">
        <ele>47.240000000000002</ele>
        <time>2026-06-28T07:21:34Z</time>
      </trkpt>
      <trkpt lat="52.077063973993063" lon="-9.611598020419478">
        <ele>46.759999999999998</ele>
        <time>2026-06-28T07:21:35Z</time>
      </trkpt>
      <trkpt lat="52.07615596242249" lon="-9.611889962106943">
        <ele>45.799999999999997</ele>
        <time>2026-06-28T07:21:41Z</time>
      </trkpt>
      <trkpt lat="52.075996035709977" lon="-9.611941007897258">
        <ele>45.32</ele>
        <time>2026-06-28T07:21:42Z</time>
      </trkpt>
      <trkpt lat="52.074727015569806" lon="-9.612348033115268">
        <ele>35.229999999999997</ele>
        <time>2026-06-28T07:21:50Z</time>
      </trkpt>
      <trkpt lat="52.073816992342472" lon="-9.612672999501228">
        <ele>34.740000000000002</ele>
        <time>2026-06-28T07:21:56Z</time>
      </trkpt>
      <trkpt lat="52.073690006509423" lon="-9.612723961472511">
        <ele>35.710000000000001</ele>
        <time>2026-06-28T07:21:57Z</time>
      </trkpt>
      <trkpt lat="52.072839997708797" lon="-9.613073989748955">
        <ele>37.630000000000003</ele>
        <time>2026-06-28T07:22:05Z</time>
      </trkpt>
      <trkpt lat="52.07269499078393" lon="-9.613164011389017">
        <ele>37.630000000000003</ele>
        <time>2026-06-28T07:22:13Z</time>
      </trkpt>
      <trkpt lat="52.07267596386373" lon="-9.613174991682172">
        <ele>37.630000000000003</ele>
        <time>2026-06-28T07:22:14Z</time>
      </trkpt>
      <trkpt lat="52.072620978578925" lon="-9.613209022209048">
        <ele>38.109999999999999</ele>
        <time>2026-06-28T07:22:15Z</time>
      </trkpt>
      <trkpt lat="52.072631036862731" lon="-9.613247998058796">
        <ele>38.109999999999999</ele>
        <time>2026-06-28T07:22:16Z</time>
      </trkpt>
      <trkpt lat="52.072658026590943" lon="-9.613347994163632">
        <ele>38.590000000000003</ele>
        <time>2026-06-28T07:22:17Z</time>
      </trkpt>
      <trkpt lat="52.072689961642027" lon="-9.613471040502191">
        <ele>39.07</ele>
        <time>2026-06-28T07:22:18Z</time>
      </trkpt>
      <trkpt lat="52.072727009654045" lon="-9.613613029941917">
        <ele>39.07</ele>
        <time>2026-06-28T07:22:19Z</time>
      </trkpt>
      <trkpt lat="52.073083994910121" lon="-9.614892024546862">
        <ele>40.509999999999998</ele>
        <time>2026-06-28T07:22:25Z</time>
      </trkpt>
      <trkpt lat="52.073902990669012" lon="-9.617453031241894">
        <ele>40.990000000000002</ele>
        <time>2026-06-28T07:22:34Z</time>
      </trkpt>
      <trkpt lat="52.074789041653275" lon="-9.620998995378614">
        <ele>39.07</ele>
        <time>2026-06-28T07:22:46Z</time>
      </trkpt>
      <trkpt lat="52.075094981119037" lon="-9.623701991513372">
        <ele>34.740000000000002</ele>
        <time>2026-06-28T07:22:55Z</time>
      </trkpt>
      <trkpt lat="52.074878979474306" lon="-9.626069962978363">
        <ele>29.940000000000001</ele>
        <time>2026-06-28T07:23:03Z</time>
      </trkpt>
      <trkpt lat="52.074831034988165" lon="-9.628957025706768">
        <ele>25.609999999999999</ele>
        <time>2026-06-28T07:23:13Z</time>
      </trkpt>
      <trkpt lat="52.074884008616209" lon="-9.629226000979543">
        <ele>25.609999999999999</ele>
        <time>2026-06-28T07:23:14Z</time>
      </trkpt>
      <trkpt lat="52.074945028871298" lon="-9.629491036757827">
        <ele>25.129999999999999</ele>
        <time>2026-06-28T07:23:15Z</time>
      </trkpt>
      <trkpt lat="52.075004959478974" lon="-9.629747020080686">
        <ele>25.129999999999999</ele>
        <time>2026-06-28T07:23:16Z</time>
      </trkpt>
      <trkpt lat="52.075062040239573" lon="-9.629991017282009">
        <ele>25.129999999999999</ele>
        <time>2026-06-28T07:23:17Z</time>
      </trkpt>
      <trkpt lat="52.075399998575449" lon="-9.631568994373083">
        <ele>23.690000000000001</ele>
        <time>2026-06-28T07:23:25Z</time>
      </trkpt>
      <trkpt lat="52.075432017445564" lon="-9.631769992411137">
        <ele>24.170000000000002</ele>
        <time>2026-06-28T07:23:26Z</time>
      </trkpt>
      <trkpt lat="52.07535901106894" lon="-9.631799999624491">
        <ele>24.170000000000002</ele>
        <time>2026-06-28T07:23:27Z</time>
      </trkpt>
      <trkpt lat="52.075283993035555" lon="-9.631831012666225">
        <ele>24.170000000000002</ele>
        <time>2026-06-28T07:23:28Z</time>
      </trkpt>
      <trkpt lat="52.075174022465944" lon="-9.631877029314637">
        <ele>24.170000000000002</ele>
        <time>2026-06-28T07:23:29Z</time>
      </trkpt>
      <trkpt lat="52.075096992775798" lon="-9.63190795853734">
        <ele>24.170000000000002</ele>
        <time>2026-06-28T07:23:30Z</time>
      </trkpt>
      <trkpt lat="52.074985010549426" lon="-9.631938971579075">
        <ele>24.170000000000002</ele>
        <time>2026-06-28T07:23:31Z</time>
      </trkpt>
      <trkpt lat="52.073777010664344" lon="-9.632426965981722">
        <ele>24.170000000000002</ele>
        <time>2026-06-28T07:23:40Z</time>
      </trkpt>
      <trkpt lat="52.072267010807991" lon="-9.633378982543945">
        <ele>29.460000000000001</ele>
        <time>2026-06-28T07:23:51Z</time>
      </trkpt>
      <trkpt lat="52.072123009711504" lon="-9.633378982543945">
        <ele>29.940000000000001</ele>
        <time>2026-06-28T07:23:52Z</time>
      </trkpt>
      <trkpt lat="52.071979008615017" lon="-9.633378982543945">
        <ele>30.899999999999999</ele>
        <time>2026-06-28T07:23:53Z</time>
      </trkpt>
      <trkpt lat="52.070885002613068" lon="-9.633354004472494">
        <ele>33.299999999999997</ele>
        <time>2026-06-28T07:24:02Z</time>
      </trkpt>
      <trkpt lat="52.069802982732654" lon="-9.633286027237773">
        <ele>36.189999999999998</ele>
        <time>2026-06-28T07:24:11Z</time>
      </trkpt>
      <trkpt lat="52.068605963140726" lon="-9.633207991719246">
        <ele>36.670000000000002</ele>
        <time>2026-06-28T07:24:20Z</time>
      </trkpt>
      <trkpt lat="52.06708800047636" lon="-9.633143031969667">
        <ele>41.950000000000003</ele>
        <time>2026-06-28T07:24:29Z</time>
      </trkpt>
      <trkpt lat="52.066936958581209" lon="-9.633212015032768">
        <ele>41.950000000000003</ele>
        <time>2026-06-28T07:24:30Z</time>
      </trkpt>
      <trkpt lat="52.066794969141483" lon="-9.63330103084445">
        <ele>41.950000000000003</ele>
        <time>2026-06-28T07:24:31Z</time>
      </trkpt>
      <trkpt lat="52.06665800884366" lon="-9.633424999192357">
        <ele>41.469999999999999</ele>
        <time>2026-06-28T07:24:32Z</time>
      </trkpt>
      <trkpt lat="52.066520964726806" lon="-9.633548967540264">
        <ele>40.990000000000002</ele>
        <time>2026-06-28T07:24:33Z</time>
      </trkpt>
      <trkpt lat="52.066019978374243" lon="-9.633994968608022">
        <ele>39.549999999999997</ele>
        <time>2026-06-28T07:24:37Z</time>
      </trkpt>
      <trkpt lat="52.065899027511477" lon="-9.634047020226717">
        <ele>39.07</ele>
        <time>2026-06-28T07:24:38Z</time>
      </trkpt>
      <trkpt lat="52.065774975344539" lon="-9.634099993854761">
        <ele>38.590000000000003</ele>
        <time>2026-06-28T07:24:39Z</time>
      </trkpt>
      <trkpt lat="52.06562896259129" lon="-9.634123966097832">
        <ele>39.07</ele>
        <time>2026-06-28T07:24:40Z</time>
      </trkpt>
      <trkpt lat="52.06547699868679" lon="-9.634142993018031">
        <ele>39.07</ele>
        <time>2026-06-28T07:24:41Z</time>
      </trkpt>
      <trkpt lat="52.064140001311898" lon="-9.634138969704509">
        <ele>42.920000000000002</ele>
        <time>2026-06-28T07:24:49Z</time>
      </trkpt>
      <trkpt lat="52.063976973295212" lon="-9.634134024381638">
        <ele>42.439999999999998</ele>
        <time>2026-06-28T07:24:50Z</time>
      </trkpt>
      <trkpt lat="52.063812017440796" lon="-9.634137963876128">
        <ele>42.439999999999998</ele>
        <time>2026-06-28T07:24:51Z</time>
      </trkpt>
      <trkpt lat="52.063643038272858" lon="-9.634181968867779">
        <ele>41.950000000000003</ele>
        <time>2026-06-28T07:24:52Z</time>
      </trkpt>
      <trkpt lat="52.062142007052898" lon="-9.634566027671099">
        <ele>40.030000000000001</ele>
        <time>2026-06-28T07:25:01Z</time>
      </trkpt>
      <trkpt lat="52.060647010803223" lon="-9.634880013763905">
        <ele>44.359999999999999</ele>
        <time>2026-06-28T07:25:11Z</time>
      </trkpt>
      <trkpt lat="52.060511978343129" lon="-9.634908009320498">
        <ele>44.359999999999999</ele>
        <time>2026-06-28T07:25:12Z</time>
      </trkpt>
      <trkpt lat="52.060374012216926" lon="-9.634910020977259">
        <ele>43.880000000000003</ele>
        <time>2026-06-28T07:25:13Z</time>
      </trkpt>
      <trkpt lat="52.059354018419981" lon="-9.634650014340878">
        <ele>37.630000000000003</ele>
        <time>2026-06-28T07:25:20Z</time>
      </trkpt>
      <trkpt lat="52.058942969888449" lon="-9.634406017139554">
        <ele>34.740000000000002</ele>
        <time>2026-06-28T07:25:23Z</time>
      </trkpt>
      <trkpt lat="52.058803997933865" lon="-9.634323958307505">
        <ele>33.780000000000001</ele>
        <time>2026-06-28T07:25:24Z</time>
      </trkpt>
      <trkpt lat="52.058221958577633" lon="-9.633691040799022">
        <ele>31.379999999999999</ele>
        <time>2026-06-28T07:25:30Z</time>
      </trkpt>
      <trkpt lat="52.058154987171292" lon="-9.633599007502198">
        <ele>30.899999999999999</ele>
        <time>2026-06-28T07:25:31Z</time>
      </trkpt>
      <trkpt lat="52.058129003271461" lon="-9.63347302749753">
        <ele>30.420000000000002</ele>
        <time>2026-06-28T07:25:32Z</time>
      </trkpt>
      <trkpt lat="52.058102013543248" lon="-9.633345035836101">
        <ele>30.420000000000002</ele>
        <time>2026-06-28T07:25:33Z</time>
      </trkpt>
      <trkpt lat="52.058073012158275" lon="-9.633205980062485">
        <ele>30.420000000000002</ele>
        <time>2026-06-28T07:25:34Z</time>
      </trkpt>
      <trkpt lat="52.058038981631398" lon="-9.633042030036449">
        <ele>29.940000000000001</ele>
        <time>2026-06-28T07:25:35Z</time>
      </trkpt>
      <trkpt lat="52.058004029095173" lon="-9.63287397287786">
        <ele>29.940000000000001</ele>
        <time>2026-06-28T07:25:36Z</time>
      </trkpt>
      <trkpt lat="52.057971004396677" lon="-9.632715974003077">
        <ele>29.460000000000001</ele>
        <time>2026-06-28T07:25:37Z</time>
      </trkpt>
      <trkpt lat="52.057936973869801" lon="-9.63255001232028">
        <ele>29.460000000000001</ele>
        <time>2026-06-28T07:25:38Z</time>
      </trkpt>
      <trkpt lat="52.057830020785332" lon="-9.632039973512292">
        <ele>29.460000000000001</ele>
        <time>2026-06-28T07:25:41Z</time>
      </trkpt>
      <trkpt lat="52.057792972773314" lon="-9.631860014051199">
        <ele>29.460000000000001</ele>
        <time>2026-06-28T07:25:42Z</time>
      </trkpt>
      <trkpt lat="52.057633968070149" lon="-9.631098015233874">
        <ele>29.460000000000001</ele>
        <time>2026-06-28T07:25:46Z</time>
      </trkpt>
      <trkpt lat="52.057347977533937" lon="-9.629884986206889">
        <ele>33.299999999999997</ele>
        <time>2026-06-28T07:25:52Z</time>
      </trkpt>
      <trkpt lat="52.057213028892875" lon="-9.629319040104747">
        <ele>38.109999999999999</ele>
        <time>2026-06-28T07:25:57Z</time>
      </trkpt>
      <trkpt lat="52.057196013629436" lon="-9.629266988486052">
        <ele>39.07</ele>
        <time>2026-06-28T07:25:58Z</time>
      </trkpt>
      <trkpt lat="52.05718201585114" lon="-9.629226000979543">
        <ele>40.030000000000001</ele>
        <time>2026-06-28T07:25:59Z</time>
      </trkpt>
      <trkpt lat="52.057123007252812" lon="-9.629148971289396">
        <ele>40.990000000000002</ele>
        <time>2026-06-28T07:26:00Z</time>
      </trkpt>
      <trkpt lat="52.057085959240794" lon="-9.62917503900826">
        <ele>41.469999999999999</ele>
        <time>2026-06-28T07:26:01Z</time>
      </trkpt>
      <trkpt lat="52.057031979784369" lon="-9.629212003201246">
        <ele>42.439999999999998</ele>
        <time>2026-06-28T07:26:02Z</time>
      </trkpt>
      <trkpt lat="52.056960985064507" lon="-9.6292610373348">
        <ele>42.920000000000002</ele>
        <time>2026-06-28T07:26:03Z</time>
      </trkpt>
      <trkpt lat="52.056208960711956" lon="-9.629638977348805">
        <ele>43.880000000000003</ele>
        <time>2026-06-28T07:26:10Z</time>
      </trkpt>
      <trkpt lat="52.055855998769403" lon="-9.62986595928669">
        <ele>43.880000000000003</ele>
        <time>2026-06-28T07:26:13Z</time>
      </trkpt>
      <trkpt lat="52.055754996836185" lon="-9.629966961219907">
        <ele>43.880000000000003</ele>
        <time>2026-06-28T07:26:14Z</time>
      </trkpt>
      <trkpt lat="52.055661035701632" lon="-9.630120014771819">
        <ele>44.359999999999999</ele>
        <time>2026-06-28T07:26:15Z</time>
      </trkpt>
      <trkpt lat="52.05557000823319" lon="-9.630268039181829">
        <ele>44.359999999999999</ele>
        <time>2026-06-28T07:26:16Z</time>
      </trkpt>
      <trkpt lat="52.055477974936366" lon="-9.630417991429567">
        <ele>44.840000000000003</ele>
        <time>2026-06-28T07:26:17Z</time>
      </trkpt>
      <trkpt lat="52.05458102747798" lon="-9.632353959605098">
        <ele>44.359999999999999</ele>
        <time>2026-06-28T07:26:28Z</time>
      </trkpt>
      <trkpt lat="52.054440965875983" lon="-9.632660988718271">
        <ele>42.920000000000002</ele>
        <time>2026-06-28T07:26:30Z</time>
      </trkpt>
      <trkpt lat="52.054208032786846" lon="-9.63306600227952">
        <ele>41.950000000000003</ele>
        <time>2026-06-28T07:26:34Z</time>
      </trkpt>
      <trkpt lat="52.054152963683009" lon="-9.633136996999383">
        <ele>42.439999999999998</ele>
        <time>2026-06-28T07:26:35Z</time>
      </trkpt>
      <trkpt lat="52.05406897701323" lon="-9.633104978129268">
        <ele>42.439999999999998</ele>
        <time>2026-06-28T07:26:36Z</time>
      </trkpt>
      <trkpt lat="52.053993958979845" lon="-9.633091986179352">
        <ele>42.439999999999998</ele>
        <time>2026-06-28T07:26:37Z</time>
      </trkpt>
      <trkpt lat="52.053909972310066" lon="-9.633077988401055">
        <ele>41.950000000000003</ele>
        <time>2026-06-28T07:26:38Z</time>
      </trkpt>
      <trkpt lat="52.053720960393548" lon="-9.63304596953094">
        <ele>42.920000000000002</ele>
        <time>2026-06-28T07:26:40Z</time>
      </trkpt>
      <trkpt lat="52.053499007597566" lon="-9.633009005337954">
        <ele>43.880000000000003</ele>
        <time>2026-06-28T07:26:42Z</time>
      </trkpt>
      <trkpt lat="52.052257983013988" lon="-9.632799960672855">
        <ele>46.759999999999998</ele>
        <time>2026-06-28T07:26:51Z</time>
      </trkpt>
      <trkpt lat="52.050729040056467" lon="-9.632773976773024">
        <ele>52.530000000000001</ele>
        <time>2026-06-28T07:27:02Z</time>
      </trkpt>
      <trkpt lat="52.050349004566669" lon="-9.632683033123612">
        <ele>53.969999999999999</ele>
        <time>2026-06-28T07:27:05Z</time>
      </trkpt>
      <trkpt lat="52.049605026841164" lon="-9.632267961278558">
        <ele>57.82</ele>
        <time>2026-06-28T07:27:11Z</time>
      </trkpt>
      <trkpt lat="52.049471000209451" lon="-9.632216999307275">
        <ele>58.780000000000001</ele>
        <time>2026-06-28T07:27:12Z</time>
      </trkpt>
      <trkpt lat="52.048474978655577" lon="-9.631853979080916">
        <ele>59.740000000000002</ele>
        <time>2026-06-28T07:27:19Z</time>
      </trkpt>
      <trkpt lat="52.0474290009588" lon="-9.631564971059561">
        <ele>58.299999999999997</ele>
        <time>2026-06-28T07:27:26Z</time>
      </trkpt>
      <trkpt lat="52.04609602689743" lon="-9.631229024380446">
        <ele>60.219999999999999</ele>
        <time>2026-06-28T07:27:35Z</time>
      </trkpt>
      <trkpt lat="52.044899007305503" lon="-9.630928030237556">
        <ele>59.259999999999998</ele>
        <time>2026-06-28T07:27:43Z</time>
      </trkpt>
      <trkpt lat="52.043357994407415" lon="-9.630747986957431">
        <ele>56.369999999999997</ele>
        <time>2026-06-28T07:27:53Z</time>
      </trkpt>
      <trkpt lat="52.042344035580754" lon="-9.630674980580807">
        <ele>54.93</ele>
        <time>2026-06-28T07:28:00Z</time>
      </trkpt>
      <trkpt lat="52.042086040601134" lon="-9.630732983350754">
        <ele>55.890000000000001</ele>
        <time>2026-06-28T07:28:02Z</time>
      </trkpt>
      <trkpt lat="52.040840992704034" lon="-9.631356010213494">
        <ele>58.299999999999997</ele>
        <time>2026-06-28T07:28:11Z</time>
      </trkpt>
      <trkpt lat="52.039919989183545" lon="-9.631898989900947">
        <ele>62.619999999999997</ele>
        <time>2026-06-28T07:28:20Z</time>
      </trkpt>
      <trkpt lat="52.039840025827289" lon="-9.632032010704279">
        <ele>63.579999999999998</ele>
        <time>2026-06-28T07:28:21Z</time>
      </trkpt>
      <trkpt lat="52.039762996137142" lon="-9.63216201402247">
        <ele>64.069999999999993</ele>
        <time>2026-06-28T07:28:22Z</time>
      </trkpt>
      <trkpt lat="52.039682026952505" lon="-9.632299980148673">
        <ele>64.549999999999997</ele>
        <time>2026-06-28T07:28:23Z</time>
      </trkpt>
      <trkpt lat="52.039575995877385" lon="-9.632478011772037">
        <ele>64.549999999999997</ele>
        <time>2026-06-28T07:28:24Z</time>
      </trkpt>
      <trkpt lat="52.03909495845437" lon="-9.633483001962304">
        <ele>66.469999999999999</ele>
        <time>2026-06-28T07:28:30Z</time>
      </trkpt>
      <trkpt lat="52.039065035060048" lon="-9.633674025535584">
        <ele>67.430000000000007</ele>
        <time>2026-06-28T07:28:31Z</time>
      </trkpt>
      <trkpt lat="52.039023963734508" lon="-9.634052971377969">
        <ele>68.870000000000005</ele>
        <time>2026-06-28T07:28:33Z</time>
      </trkpt>
      <trkpt lat="52.038980964571238" lon="-9.634455973282456">
        <ele>69.349999999999994</ele>
        <time>2026-06-28T07:28:35Z</time>
      </trkpt>
      <trkpt lat="52.038960009813309" lon="-9.634651020169258">
        <ele>69.829999999999998</ele>
        <time>2026-06-28T07:28:36Z</time>
      </trkpt>
      <trkpt lat="52.038927990943193" lon="-9.63482704013586">
        <ele>69.829999999999998</ele>
        <time>2026-06-28T07:28:37Z</time>
      </trkpt>
      <trkpt lat="52.038813997060061" lon="-9.635346969589591">
        <ele>70.310000000000002</ele>
        <time>2026-06-28T07:28:40Z</time>
      </trkpt>
      <trkpt lat="52.038780972361565" lon="-9.635499017313123">
        <ele>70.790000000000006</ele>
        <time>2026-06-28T07:28:41Z</time>
      </trkpt>
      <trkpt lat="52.038745013996959" lon="-9.635621979832649">
        <ele>70.790000000000006</ele>
        <time>2026-06-28T07:28:42Z</time>
      </trkpt>
      <trkpt lat="52.038688017055392" lon="-9.635734967887402">
        <ele>71.269999999999996</ele>
        <time>2026-06-28T07:28:43Z</time>
      </trkpt>
      <trkpt lat="52.038622973486781" lon="-9.635833036154509">
        <ele>71.760000000000005</ele>
        <time>2026-06-28T07:28:44Z</time>
      </trkpt>
      <trkpt lat="52.03855499625206" lon="-9.635929008945823">
        <ele>72.239999999999995</ele>
        <time>2026-06-28T07:28:45Z</time>
      </trkpt>
      <trkpt lat="52.038488024845719" lon="-9.636021964251995">
        <ele>72.719999999999999</ele>
        <time>2026-06-28T07:28:46Z</time>
      </trkpt>
      <trkpt lat="52.038418035954237" lon="-9.636084996163845">
        <ele>73.200000000000003</ele>
        <time>2026-06-28T07:28:47Z</time>
      </trkpt>
      <trkpt lat="52.038335977122188" lon="-9.636130006983876">
        <ele>73.680000000000007</ele>
        <time>2026-06-28T07:28:48Z</time>
      </trkpt>
      <trkpt lat="52.038246039301157" lon="-9.636169988662005">
        <ele>74.640000000000001</ele>
        <time>2026-06-28T07:28:49Z</time>
      </trkpt>
      <trkpt lat="52.038155011832714" lon="-9.636177029460669">
        <ele>75.120000000000005</ele>
        <time>2026-06-28T07:28:50Z</time>
      </trkpt>
      <trkpt lat="52.037979997694492" lon="-9.636189015582204">
        <ele>76.560000000000002</ele>
        <time>2026-06-28T07:28:52Z</time>
      </trkpt>
      <trkpt lat="52.037903973832726" lon="-9.636155990883708">
        <ele>77.519999999999996</ele>
        <time>2026-06-28T07:28:53Z</time>
      </trkpt>
      <trkpt lat="52.037759972736239" lon="-9.636078039184213">
        <ele>79.450000000000003</ele>
        <time>2026-06-28T07:28:55Z</time>
      </trkpt>
      <trkpt lat="52.037706999108195" lon="-9.636049959808588">
        <ele>80.409999999999997</ele>
        <time>2026-06-28T07:28:56Z</time>
      </trkpt>
      <trkpt lat="52.037680009379983" lon="-9.63600997813046">
        <ele>81.370000000000005</ele>
        <time>2026-06-28T07:28:57Z</time>
      </trkpt>
      <trkpt lat="52.037657964974642" lon="-9.6359249856323">
        <ele>82.329999999999998</ele>
        <time>2026-06-28T07:28:58Z</time>
      </trkpt>
      <trkpt lat="52.037636004388332" lon="-9.635842004790902">
        <ele>83.769999999999996</ele>
        <time>2026-06-28T07:28:59Z</time>
      </trkpt>
      <trkpt lat="52.037614965811372" lon="-9.635763969272375">
        <ele>84.730000000000004</ele>
        <time>2026-06-28T07:29:00Z</time>
      </trkpt>
      <trkpt lat="52.037598034366965" lon="-9.635696997866035">
        <ele>85.209999999999994</ele>
        <time>2026-06-28T07:29:01Z</time>
      </trkpt>
      <trkpt lat="52.037569032981992" lon="-9.635632038116455">
        <ele>85.689999999999998</ele>
        <time>2026-06-28T07:29:02Z</time>
      </trkpt>
      <trkpt lat="52.037527961656451" lon="-9.635632038116455">
        <ele>86.180000000000007</ele>
        <time>2026-06-28T07:29:03Z</time>
      </trkpt>
      <trkpt lat="52.037484040483832" lon="-9.635694986209273">
        <ele>86.180000000000007</ele>
        <time>2026-06-28T07:29:04Z</time>
      </trkpt>
      <trkpt lat="52.037443974986672" lon="-9.6357730217278">
        <ele>86.659999999999997</ele>
        <time>2026-06-28T07:29:05Z</time>
      </trkpt>
      <trkpt lat="52.037395024672151" lon="-9.635867988690734">
        <ele>86.659999999999997</ele>
        <time>2026-06-28T07:29:06Z</time>
      </trkpt>
      <trkpt lat="52.037340039387345" lon="-9.635974019765854">
        <ele>87.140000000000001</ele>
        <time>2026-06-28T07:29:07Z</time>
      </trkpt>
      <trkpt lat="52.037223028019071" lon="-9.636199995875359">
        <ele>87.620000000000005</ele>
        <time>2026-06-28T07:29:09Z</time>
      </trkpt>
      <trkpt lat="52.037151027470827" lon="-9.636339973658323">
        <ele>88.099999999999994</ele>
        <time>2026-06-28T07:29:10Z</time>
      </trkpt>
      <trkpt lat="52.037087995558977" lon="-9.636398982256651">
        <ele>88.579999999999998</ele>
        <time>2026-06-28T07:29:11Z</time>
      </trkpt>
      <trkpt lat="52.036841986700892" lon="-9.636626970022917">
        <ele>91.459999999999994</ele>
        <time>2026-06-28T07:29:14Z</time>
      </trkpt>
      <trkpt lat="52.036763029173017" lon="-9.636699976399541">
        <ele>91.939999999999998</ele>
        <time>2026-06-28T07:29:15Z</time>
      </trkpt>
      <trkpt lat="52.036693962290883" lon="-9.636764014139772">
        <ele>92.900000000000006</ele>
        <time>2026-06-28T07:29:16Z</time>
      </trkpt>
      <trkpt lat="52.036629002541304" lon="-9.63682402856648">
        <ele>93.870000000000005</ele>
        <time>2026-06-28T07:29:17Z</time>
      </trkpt>
      <trkpt lat="52.036559013649821" lon="-9.636873984709382">
        <ele>94.829999999999998</ele>
        <time>2026-06-28T07:29:18Z</time>
      </trkpt>
      <trkpt lat="52.036485001444817" lon="-9.636857975274324">
        <ele>95.790000000000006</ele>
        <time>2026-06-28T07:29:19Z</time>
      </trkpt>
      <trkpt lat="52.036410989239812" lon="-9.636840960010886">
        <ele>96.75</ele>
        <time>2026-06-28T07:29:20Z</time>
      </trkpt>
      <trkpt lat="52.036348041146994" lon="-9.63678102940321">
        <ele>97.709999999999994</ele>
        <time>2026-06-28T07:29:21Z</time>
      </trkpt>
      <trkpt lat="52.036293977871537" lon="-9.636688996106386">
        <ele>98.189999999999998</ele>
        <time>2026-06-28T07:29:22Z</time>
      </trkpt>
      <trkpt lat="52.036236980929971" lon="-9.636593023315072">
        <ele>98.670000000000002</ele>
        <time>2026-06-28T07:29:23Z</time>
      </trkpt>
      <trkpt lat="52.036179983988404" lon="-9.636495038866997">
        <ele>99.150000000000006</ele>
        <time>2026-06-28T07:29:24Z</time>
      </trkpt>
      <trkpt lat="52.036098008975387" lon="-9.636428989470005">
        <ele>99.629999999999995</ele>
        <time>2026-06-28T07:29:25Z</time>
      </trkpt>
      <trkpt lat="52.036007987335324" lon="-9.636405017226934">
        <ele>100.11</ele>
        <time>2026-06-28T07:29:26Z</time>
      </trkpt>
      <trkpt lat="52.035924000665545" lon="-9.636405017226934">
        <ele>100.59999999999999</ele>
        <time>2026-06-28T07:29:27Z</time>
      </trkpt>
      <trkpt lat="52.035845965147018" lon="-9.636405017226934">
        <ele>101.08</ele>
        <time>2026-06-28T07:29:28Z</time>
      </trkpt>
      <trkpt lat="52.035769019275904" lon="-9.636449022218585">
        <ele>101.56</ele>
        <time>2026-06-28T07:29:29Z</time>
      </trkpt>
      <trkpt lat="52.035694001242518" lon="-9.636513981968164">
        <ele>101.56</ele>
        <time>2026-06-28T07:29:30Z</time>
      </trkpt>
      <trkpt lat="52.035613032057881" lon="-9.636583970859647">
        <ele>101.56</ele>
        <time>2026-06-28T07:29:31Z</time>
      </trkpt>
      <trkpt lat="52.035533990710974" lon="-9.63665303774178">
        <ele>101.56</ele>
        <time>2026-06-28T07:29:32Z</time>
      </trkpt>
      <trkpt lat="52.035458972677588" lon="-9.636716991662979">
        <ele>101.08</ele>
        <time>2026-06-28T07:29:33Z</time>
      </trkpt>
      <trkpt lat="52.035386972129345" lon="-9.636780023574829">
        <ele>101.08</ele>
        <time>2026-06-28T07:29:34Z</time>
      </trkpt>
      <trkpt lat="52.035128977149725" lon="-9.636901980265975">
        <ele>102.52</ele>
        <time>2026-06-28T07:29:37Z</time>
      </trkpt>
      <trkpt lat="52.035041972994804" lon="-9.636938022449613">
        <ele>103</ele>
        <time>2026-06-28T07:29:38Z</time>
      </trkpt>
      <trkpt lat="52.034943988546729" lon="-9.636978004127741">
        <ele>103</ele>
        <time>2026-06-28T07:29:39Z</time>
      </trkpt>
      <trkpt lat="52.034825971350074" lon="-9.636993007734418">
        <ele>103</ele>
        <time>2026-06-28T07:29:40Z</time>
      </trkpt>
      <trkpt lat="52.034704014658928" lon="-9.636961994692683">
        <ele>102.52</ele>
        <time>2026-06-28T07:29:41Z</time>
      </trkpt>
      <trkpt lat="52.03457803465426" lon="-9.636930981650949">
        <ele>102.04000000000001</ele>
        <time>2026-06-28T07:29:42Z</time>
      </trkpt>
      <trkpt lat="52.033642027527094" lon="-9.637003988027573">
        <ele>101.08</ele>
        <time>2026-06-28T07:29:49Z</time>
      </trkpt>
      <trkpt lat="52.033515041694045" lon="-9.637059979140759">
        <ele>101.08</ele>
        <time>2026-06-28T07:29:50Z</time>
      </trkpt>
      <trkpt lat="52.032484989613295" lon="-9.637318979948759">
        <ele>101.56</ele>
        <time>2026-06-28T07:29:59Z</time>
      </trkpt>
      <trkpt lat="52.032365966588259" lon="-9.637327026575804">
        <ele>101.08</ele>
        <time>2026-06-28T07:30:00Z</time>
      </trkpt>
      <trkpt lat="52.031887024641037" lon="-9.637247985228896">
        <ele>99.629999999999995</ele>
        <time>2026-06-28T07:30:05Z</time>
      </trkpt>
      <trkpt lat="52.031793985515833" lon="-9.637253014370799">
        <ele>99.629999999999995</ele>
        <time>2026-06-28T07:30:06Z</time>
      </trkpt>
      <trkpt lat="52.031294004991651" lon="-9.637286039069295">
        <ele>103.48</ele>
        <time>2026-06-28T07:30:14Z</time>
      </trkpt>
      <trkpt lat="52.031267015263438" lon="-9.637244967743754">
        <ele>103.95999999999999</ele>
        <time>2026-06-28T07:30:15Z</time>
      </trkpt>
      <trkpt lat="52.031251005828381" lon="-9.637219989672303">
        <ele>104.92</ele>
        <time>2026-06-28T07:30:16Z</time>
      </trkpt>
      <trkpt lat="52.031246982514858" lon="-9.637150000780821">
        <ele>105.40000000000001</ele>
        <time>2026-06-28T07:30:17Z</time>
      </trkpt>
      <trkpt lat="52.031243965029716" lon="-9.637066014111042">
        <ele>105.40000000000001</ele>
        <time>2026-06-28T07:30:18Z</time>
      </trkpt>
      <trkpt lat="52.031239019706845" lon="-9.636970963329077">
        <ele>106.36</ele>
        <time>2026-06-28T07:30:19Z</time>
      </trkpt>
      <trkpt lat="52.031234996393323" lon="-9.636879013851285">
        <ele>106.36</ele>
        <time>2026-06-28T07:30:20Z</time>
      </trkpt>
      <trkpt lat="52.031231978908181" lon="-9.636808019131422">
        <ele>106.84</ele>
        <time>2026-06-28T07:30:21Z</time>
      </trkpt>
      <trkpt lat="52.03122996725142" lon="-9.636756973341107">
        <ele>107.31999999999999</ele>
        <time>2026-06-28T07:30:22Z</time>
      </trkpt>
      <trkpt lat="52.03122996725142" lon="-9.636756973341107">
        <ele>108.77</ele>
        <time>2026-06-28T07:30:31Z</time>
      </trkpt>
      <trkpt lat="52.03122996725142" lon="-9.636756973341107">
        <ele>109.25</ele>
        <time>2026-06-28T07:31:19Z</time>
      </trkpt>
      <trkpt lat="52.03122996725142" lon="-9.636756973341107">
        <ele>109.73</ele>
        <time>2026-06-28T07:32:03Z</time>
      </trkpt>
      <trkpt lat="52.03122996725142" lon="-9.636756973341107">
        <ele>109.25</ele>
        <time>2026-06-28T07:32:55Z</time>
      </trkpt>
      <trkpt lat="52.03122996725142" lon="-9.636756973341107">
        <ele>108.77</ele>
        <time>2026-06-28T07:33:44Z</time>
      </trkpt>
      <trkpt lat="52.03122996725142" lon="-9.636756973341107">
        <ele>109.73</ele>
        <time>2026-06-28T07:34:23Z</time>
      </trkpt>
      <trkpt lat="52.031228961423039" lon="-9.636748004704714">
        <ele>108.77</ele>
        <time>2026-06-28T07:34:31Z</time>
      </trkpt>
      <trkpt lat="52.031219992786646" lon="-9.636687990278006">
        <ele>108.77</ele>
        <time>2026-06-28T07:34:32Z</time>
      </trkpt>
      <trkpt lat="52.031210018321872" lon="-9.636623030528426">
        <ele>108.77</ele>
        <time>2026-06-28T07:34:33Z</time>
      </trkpt>
      <trkpt lat="52.031122008338571" lon="-9.636040991172195">
        <ele>112.13</ele>
        <time>2026-06-28T07:34:38Z</time>
      </trkpt>
      <trkpt lat="52.031046990305185" lon="-9.635942000895739">
        <ele>112.13</ele>
        <time>2026-06-28T07:34:39Z</time>
      </trkpt>
      <trkpt lat="52.030972978100181" lon="-9.635845022276044">
        <ele>112.61</ele>
        <time>2026-06-28T07:34:40Z</time>
      </trkpt>
      <trkpt lat="52.030899971723557" lon="-9.635749971494079">
        <ele>113.09</ele>
        <time>2026-06-28T07:34:41Z</time>
      </trkpt>
      <trkpt lat="52.030833000317216" lon="-9.635662967339158">
        <ele>113.56999999999999</ele>
        <time>2026-06-28T07:34:42Z</time>
      </trkpt>
      <trkpt lat="52.030701991170645" lon="-9.635490970686078">
        <ele>113.56999999999999</ele>
        <time>2026-06-28T07:34:44Z</time>
      </trkpt>
      <trkpt lat="52.030637031421065" lon="-9.635404972359538">
        <ele>113.09</ele>
        <time>2026-06-28T07:34:45Z</time>
      </trkpt>
      <trkpt lat="52.030490012839437" lon="-9.63523699901998">
        <ele>112.61</ele>
        <time>2026-06-28T07:34:47Z</time>
      </trkpt>
      <trkpt lat="52.03041197732091" lon="-9.635158963501453">
        <ele>112.13</ele>
        <time>2026-06-28T07:34:48Z</time>
      </trkpt>
      <trkpt lat="52.030349029228091" lon="-9.635096015408635">
        <ele>112.13</ele>
        <time>2026-06-28T07:34:49Z</time>
      </trkpt>
      <trkpt lat="52.030267976224422" lon="-9.635086040943861">
        <ele>112.13</ele>
        <time>2026-06-28T07:34:50Z</time>
      </trkpt>
      <trkpt lat="52.03019798733294" lon="-9.635076988488436">
        <ele>111.65000000000001</ele>
        <time>2026-06-28T07:34:51Z</time>
      </trkpt>
      <trkpt lat="52.030125986784697" lon="-9.635098027065396">
        <ele>111.65000000000001</ele>
        <time>2026-06-28T07:34:52Z</time>
      </trkpt>
      <trkpt lat="52.030047029256821" lon="-9.635133985430002">
        <ele>111.65000000000001</ele>
        <time>2026-06-28T07:34:53Z</time>
      </trkpt>
      <trkpt lat="52.02996295876801" lon="-9.635172039270401">
        <ele>111.65000000000001</ele>
        <time>2026-06-28T07:34:54Z</time>
      </trkpt>
      <trkpt lat="52.029876038432121" lon="-9.635233981534839">
        <ele>111.65000000000001</ele>
        <time>2026-06-28T07:34:55Z</time>
      </trkpt>
      <trkpt lat="52.029789034277201" lon="-9.63530296459794">
        <ele>111.65000000000001</ele>
        <time>2026-06-28T07:34:56Z</time>
      </trkpt>
      <trkpt lat="52.029698006808758" lon="-9.63536599650979">
        <ele>111.65000000000001</ele>
        <time>2026-06-28T07:34:57Z</time>
      </trkpt>
      <trkpt lat="52.029597004875541" lon="-9.63540798984468">
        <ele>112.13</ele>
        <time>2026-06-28T07:34:58Z</time>
      </trkpt>
      <trkpt lat="52.028570976108313" lon="-9.635845022276044">
        <ele>110.20999999999999</ele>
        <time>2026-06-28T07:35:08Z</time>
      </trkpt>
      <trkpt lat="52.028481038287282" lon="-9.635813003405929">
        <ele>110.20999999999999</ele>
        <time>2026-06-28T07:35:09Z</time>
      </trkpt>
      <trkpt lat="52.028390010818839" lon="-9.635777967050672">
        <ele>110.69</ele>
        <time>2026-06-28T07:35:10Z</time>
      </trkpt>
      <trkpt lat="52.028289008885622" lon="-9.635738991200924">
        <ele>110.69</ele>
        <time>2026-06-28T07:35:11Z</time>
      </trkpt>
      <trkpt lat="52.028213990852237" lon="-9.635667996481061">
        <ele>111.17</ele>
        <time>2026-06-28T07:35:12Z</time>
      </trkpt>
      <trkpt lat="52.028127992525697" lon="-9.635587027296424">
        <ele>111.65000000000001</ele>
        <time>2026-06-28T07:35:13Z</time>
      </trkpt>
      <trkpt lat="52.027948033064604" lon="-9.635416958481073">
        <ele>112.61</ele>
        <time>2026-06-28T07:35:15Z</time>
      </trkpt>
      <trkpt lat="52.027848036959767" lon="-9.635371025651693">
        <ele>112.61</ele>
        <time>2026-06-28T07:35:16Z</time>
      </trkpt>
      <trkpt lat="52.027743011713028" lon="-9.635363984853029">
        <ele>112.13</ele>
        <time>2026-06-28T07:35:17Z</time>
      </trkpt>
      <trkpt lat="52.027632035315037" lon="-9.635356022045016">
        <ele>112.13</ele>
        <time>2026-06-28T07:35:18Z</time>
      </trkpt>
      <trkpt lat="52.027516029775143" lon="-9.635347975417972">
        <ele>111.65000000000001</ele>
        <time>2026-06-28T07:35:19Z</time>
      </trkpt>
      <trkpt lat="52.027399018406868" lon="-9.635340012609959">
        <ele>111.65000000000001</ele>
        <time>2026-06-28T07:35:20Z</time>
      </trkpt>
      <trkpt lat="52.027279995381832" lon="-9.635331965982914">
        <ele>111.65000000000001</ele>
        <time>2026-06-28T07:35:21Z</time>
      </trkpt>
      <trkpt lat="52.025780975818634" lon="-9.635608987882733">
        <ele>107.31999999999999</ele>
        <time>2026-06-28T07:35:33Z</time>
      </trkpt>
      <trkpt lat="52.023765966296196" lon="-9.635979970917106">
        <ele>109.25</ele>
        <time>2026-06-28T07:35:49Z</time>
      </trkpt>
      <trkpt lat="52.02291201800108" lon="-9.63630803860724">
        <ele>108.77</ele>
        <time>2026-06-28T07:35:57Z</time>
      </trkpt>
      <trkpt lat="52.021831003949046" lon="-9.636748004704714">
        <ele>110.69</ele>
        <time>2026-06-28T07:36:07Z</time>
      </trkpt>
      <trkpt lat="52.021734025329351" lon="-9.63673803023994">
        <ele>111.17</ele>
        <time>2026-06-28T07:36:08Z</time>
      </trkpt>
      <trkpt lat="52.021658001467586" lon="-9.636730989441276">
        <ele>111.17</ele>
        <time>2026-06-28T07:36:09Z</time>
      </trkpt>
      <trkpt lat="52.021577032282948" lon="-9.636711040511727">
        <ele>111.17</ele>
        <time>2026-06-28T07:36:10Z</time>
      </trkpt>
      <trkpt lat="52.020540023222566" lon="-9.636304015293717">
        <ele>109.73</ele>
        <time>2026-06-28T07:36:20Z</time>
      </trkpt>
      <trkpt lat="52.019285000860691" lon="-9.635947030037642">
        <ele>117.42</ele>
        <time>2026-06-28T07:36:32Z</time>
      </trkpt>
      <trkpt lat="52.019229009747505" lon="-9.635935965925455">
        <ele>117.90000000000001</ele>
        <time>2026-06-28T07:36:37Z</time>
      </trkpt>
      <trkpt lat="52.019229009747505" lon="-9.635935965925455">
        <ele>117.90000000000001</ele>
        <time>2026-06-28T07:36:53Z</time>
      </trkpt>
      <trkpt lat="52.018924998119473" lon="-9.635914005339146">
        <ele>117.90000000000001</ele>
        <time>2026-06-28T07:37:09Z</time>
      </trkpt>
      <trkpt lat="52.017971975728869" lon="-9.635853990912437">
        <ele>117.90000000000001</ele>
        <time>2026-06-28T07:37:17Z</time>
      </trkpt>
      <trkpt lat="52.016980983316898" lon="-9.635791964828968">
        <ele>121.26000000000001</ele>
        <time>2026-06-28T07:37:25Z</time>
      </trkpt>
      <trkpt lat="52.016805969178677" lon="-9.635774027556181">
        <ele>122.22</ele>
        <time>2026-06-28T07:37:27Z</time>
      </trkpt>
      <trkpt lat="52.016137009486556" lon="-9.635554002597928">
        <ele>130.40000000000001</ele>
        <time>2026-06-28T07:37:37Z</time>
      </trkpt>
      <trkpt lat="52.016137009486556" lon="-9.635554002597928">
        <ele>131.84</ele>
        <time>2026-06-28T07:37:48Z</time>
      </trkpt>
      <trkpt lat="52.015867028385401" lon="-9.635464986786246">
        <ele>132.31999999999999</ele>
        <time>2026-06-28T07:38:03Z</time>
      </trkpt>
      <trkpt lat="52.015084996819496" lon="-9.635207997635007">
        <ele>135.19999999999999</ele>
        <time>2026-06-28T07:38:10Z</time>
      </trkpt>
      <trkpt lat="52.014946024864912" lon="-9.635189976543188">
        <ele>135.19999999999999</ele>
        <time>2026-06-28T07:38:11Z</time>
      </trkpt>
      <trkpt lat="52.014223001897335" lon="-9.635412013158202">
        <ele>132.31999999999999</ele>
        <time>2026-06-28T07:38:16Z</time>
      </trkpt>
      <trkpt lat="52.014094004407525" lon="-9.635517038404942">
        <ele>132.31999999999999</ele>
        <time>2026-06-28T07:38:17Z</time>
      </trkpt>
      <trkpt lat="52.013536021113396" lon="-9.635976031422615">
        <ele>130.40000000000001</ele>
        <time>2026-06-28T07:38:23Z</time>
      </trkpt>
      <trkpt lat="52.012808974832296" lon="-9.636556981131434">
        <ele>127.03</ele>
        <time>2026-06-28T07:38:31Z</time>
      </trkpt>
      <trkpt lat="52.012477973476052" lon="-9.636707017198205">
        <ele>127.51000000000001</ele>
        <time>2026-06-28T07:38:35Z</time>
      </trkpt>
      <trkpt lat="52.012418964877725" lon="-9.63671799749136">
        <ele>127.51000000000001</ele>
        <time>2026-06-28T07:38:36Z</time>
      </trkpt>
      <trkpt lat="52.012350987643003" lon="-9.636730989441276">
        <ele>127.51000000000001</ele>
        <time>2026-06-28T07:38:37Z</time>
      </trkpt>
      <trkpt lat="52.012260966002941" lon="-9.636748004704714">
        <ele>127.98999999999999</ele>
        <time>2026-06-28T07:38:38Z</time>
      </trkpt>
      <trkpt lat="52.012196006253362" lon="-9.636780023574829">
        <ele>127.98999999999999</ele>
        <time>2026-06-28T07:38:39Z</time>
      </trkpt>
      <trkpt lat="52.012031972408295" lon="-9.636861998587847">
        <ele>127.51000000000001</ele>
        <time>2026-06-28T07:38:41Z</time>
      </trkpt>
      <trkpt lat="52.011961983516812" lon="-9.636897034943104">
        <ele>127.51000000000001</ele>
        <time>2026-06-28T07:38:42Z</time>
      </trkpt>
      <trkpt lat="52.011914039030671" lon="-9.636925030499697">
        <ele>127.98999999999999</ele>
        <time>2026-06-28T07:38:43Z</time>
      </trkpt>
      <trkpt lat="52.011882020160556" lon="-9.636980015784502">
        <ele>128.47</ele>
        <time>2026-06-28T07:38:44Z</time>
      </trkpt>
      <trkpt lat="52.011840026825666" lon="-9.637050004675984">
        <ele>128.47</ele>
        <time>2026-06-28T07:38:45Z</time>
      </trkpt>
      <trkpt lat="52.011794010177255" lon="-9.63712896220386">
        <ele>128.47</ele>
        <time>2026-06-28T07:38:46Z</time>
      </trkpt>
      <trkpt lat="52.011745981872082" lon="-9.63721102103591">
        <ele>128.94999999999999</ele>
        <time>2026-06-28T07:38:47Z</time>
      </trkpt>
      <trkpt lat="52.011621007695794" lon="-9.637352004647255">
        <ele>128.47</ele>
        <time>2026-06-28T07:38:49Z</time>
      </trkpt>
      <trkpt lat="52.011382039636374" lon="-9.637549985200167">
        <ele>127.98999999999999</ele>
        <time>2026-06-28T07:38:52Z</time>
      </trkpt>
      <trkpt lat="52.011137036606669" lon="-9.637751989066601">
        <ele>127.51000000000001</ele>
        <time>2026-06-28T07:38:55Z</time>
      </trkpt>
      <trkpt lat="52.011059001088142" lon="-9.637829018756747">
        <ele>127.51000000000001</ele>
        <time>2026-06-28T07:38:56Z</time>
      </trkpt>
      <trkpt lat="52.010845011100173" lon="-9.638124983757734">
        <ele>126.55</ele>
        <time>2026-06-28T07:38:59Z</time>
      </trkpt>
      <trkpt lat="52.01077401638031" lon="-9.63824300095439">
        <ele>126.55</ele>
        <time>2026-06-28T07:39:00Z</time>
      </trkpt>
      <trkpt lat="52.010717019438744" lon="-9.638362023979425">
        <ele>126.55</ele>
        <time>2026-06-28T07:39:01Z</time>
      </trkpt>
      <trkpt lat="52.010664967820048" lon="-9.638471994549036">
        <ele>126.06999999999999</ele>
        <time>2026-06-28T07:39:02Z</time>
      </trkpt>
      <trkpt lat="52.010620962828398" lon="-9.638563022017479">
        <ele>126.06999999999999</ele>
        <time>2026-06-28T07:39:03Z</time>
      </trkpt>
      <trkpt lat="52.010587016120553" lon="-9.638635022565723">
        <ele>126.55</ele>
        <time>2026-06-28T07:39:04Z</time>
      </trkpt>
      <trkpt lat="52.010547034442425" lon="-9.638690007850528">
        <ele>126.55</ele>
        <time>2026-06-28T07:39:05Z</time>
      </trkpt>
      <trkpt lat="52.010484002530575" lon="-9.638726972043514">
        <ele>126.55</ele>
        <time>2026-06-28T07:39:06Z</time>
      </trkpt>
      <trkpt lat="52.010418036952615" lon="-9.638765025883913">
        <ele>127.03</ele>
        <time>2026-06-28T07:39:07Z</time>
      </trkpt>
      <trkpt lat="52.010356010869145" lon="-9.638800984248519">
        <ele>127.03</ele>
        <time>2026-06-28T07:39:08Z</time>
      </trkpt>
      <trkpt lat="52.010231036692858" lon="-9.638835014775395">
        <ele>128.47</ele>
        <time>2026-06-28T07:39:10Z</time>
      </trkpt>
      <trkpt lat="52.010166998952627" lon="-9.638839038088918">
        <ele>129.43000000000001</ele>
        <time>2026-06-28T07:39:11Z</time>
      </trkpt>
      <trkpt lat="52.010110002011061" lon="-9.638842977583408">
        <ele>130.40000000000001</ele>
        <time>2026-06-28T07:39:12Z</time>
      </trkpt>
      <trkpt lat="52.010053005069494" lon="-9.638848006725311">
        <ele>131.36000000000001</ele>
        <time>2026-06-28T07:39:13Z</time>
      </trkpt>
      <trkpt lat="52.009989973157644" lon="-9.638868039473891">
        <ele>132.31999999999999</ele>
        <time>2026-06-28T07:39:14Z</time>
      </trkpt>
      <trkpt lat="52.009929036721587" lon="-9.638928975909948">
        <ele>133.28</ele>
        <time>2026-06-28T07:39:15Z</time>
      </trkpt>
      <trkpt lat="52.009866004809737" lon="-9.638992007821798">
        <ele>134.72</ele>
        <time>2026-06-28T07:39:16Z</time>
      </trkpt>
      <trkpt lat="52.00980699621141" lon="-9.639051016420126">
        <ele>135.68000000000001</ele>
        <time>2026-06-28T07:39:17Z</time>
      </trkpt>
      <trkpt lat="52.009748993441463" lon="-9.639109019190073">
        <ele>137.13</ele>
        <time>2026-06-28T07:39:18Z</time>
      </trkpt>
      <trkpt lat="52.009707000106573" lon="-9.639195017516613">
        <ele>138.09</ele>
        <time>2026-06-28T07:39:19Z</time>
      </trkpt>
      <trkpt lat="52.009675987064838" lon="-9.639286966994405">
        <ele>138.56999999999999</ele>
        <time>2026-06-28T07:39:20Z</time>
      </trkpt>
      <trkpt lat="52.009645979851484" lon="-9.639379000291228">
        <ele>139.53</ele>
        <time>2026-06-28T07:39:21Z</time>
      </trkpt>
      <trkpt lat="52.009611027315259" lon="-9.639461981132627">
        <ele>140.00999999999999</ele>
        <time>2026-06-28T07:39:22Z</time>
      </trkpt>
      <trkpt lat="52.009546989575028" lon="-9.639525013044477">
        <ele>140.49000000000001</ele>
        <time>2026-06-28T07:39:23Z</time>
      </trkpt>
      <trkpt lat="52.00948303565383" lon="-9.639583015814424">
        <ele>141.44999999999999</ele>
        <time>2026-06-28T07:39:24Z</time>
      </trkpt>
      <trkpt lat="52.009127978235483" lon="-9.639859031885862">
        <ele>146.74000000000001</ele>
        <time>2026-06-28T07:39:29Z</time>
      </trkpt>
      <trkpt lat="52.009072992950678" lon="-9.639876969158649">
        <ele>147.69999999999999</ele>
        <time>2026-06-28T07:39:30Z</time>
      </trkpt>
      <trkpt lat="52.008943995460868" lon="-9.639919968321919">
        <ele>149.62</ele>
        <time>2026-06-28T07:39:32Z</time>
      </trkpt>
      <trkpt lat="52.008893033489585" lon="-9.639974031597376">
        <ele>150.58000000000001</ele>
        <time>2026-06-28T07:39:33Z</time>
      </trkpt>
      <trkpt lat="52.008826984092593" lon="-9.640051983296871">
        <ele>151.53999999999999</ele>
        <time>2026-06-28T07:39:34Z</time>
      </trkpt>
      <trkpt lat="52.008807035163045" lon="-9.640105040743947">
        <ele>152.03</ele>
        <time>2026-06-28T07:39:35Z</time>
      </trkpt>
      <trkpt lat="52.008778033778071" lon="-9.640181986615062">
        <ele>152.99000000000001</ele>
        <time>2026-06-28T07:39:36Z</time>
      </trkpt>
      <trkpt lat="52.008750960230827" lon="-9.640249963849783">
        <ele>153.47</ele>
        <time>2026-06-28T07:39:37Z</time>
      </trkpt>
      <trkpt lat="52.008688012138009" lon="-9.640381978824735">
        <ele>155.38999999999999</ele>
        <time>2026-06-28T07:39:40Z</time>
      </trkpt>
      <trkpt lat="52.008674014359713" lon="-9.640406034886837">
        <ele>155.87</ele>
        <time>2026-06-28T07:39:41Z</time>
      </trkpt>
      <trkpt lat="52.008663034066558" lon="-9.640422966331244">
        <ele>156.83000000000001</ele>
        <time>2026-06-28T07:39:42Z</time>
      </trkpt>
      <trkpt lat="52.008663034066558" lon="-9.640422966331244">
        <ele>157.78999999999999</ele>
        <time>2026-06-28T07:39:55Z</time>
      </trkpt>
      <trkpt lat="52.008663034066558" lon="-9.640422966331244">
        <ele>158.27000000000001</ele>
        <time>2026-06-28T07:40:39Z</time>
      </trkpt>
      <trkpt lat="52.00851802714169" lon="-9.640654977411032">
        <ele>159.72</ele>
        <time>2026-06-28T07:40:54Z</time>
      </trkpt>
      <trkpt lat="52.008444014936686" lon="-9.640712980180979">
        <ele>160.68000000000001</ele>
        <time>2026-06-28T07:40:55Z</time>
      </trkpt>
      <trkpt lat="52.0083689969033" lon="-9.640760002657771">
        <ele>161.63999999999999</ele>
        <time>2026-06-28T07:40:56Z</time>
      </trkpt>
      <trkpt lat="52.008289033547044" lon="-9.640792021527886">
        <ele>162.59999999999999</ele>
        <time>2026-06-28T07:40:57Z</time>
      </trkpt>
      <trkpt lat="52.008212003856897" lon="-9.640809036791325">
        <ele>163.56</ele>
        <time>2026-06-28T07:40:58Z</time>
      </trkpt>
      <trkpt lat="52.008127011358738" lon="-9.640853041782975">
        <ele>165</ele>
        <time>2026-06-28T07:40:59Z</time>
      </trkpt>
      <trkpt lat="52.008076971396804" lon="-9.640953037887812">
        <ele>165.96000000000001</ele>
        <time>2026-06-28T07:41:00Z</time>
      </trkpt>
      <trkpt lat="52.00802399776876" lon="-9.6410589851439">
        <ele>167.41</ele>
        <time>2026-06-28T07:41:01Z</time>
      </trkpt>
      <trkpt lat="52.007953003048897" lon="-9.641156969591975">
        <ele>168.37</ele>
        <time>2026-06-28T07:41:02Z</time>
      </trkpt>
      <trkpt lat="52.007868010550737" lon="-9.641226958483458">
        <ele>169.81</ele>
        <time>2026-06-28T07:41:03Z</time>
      </trkpt>
      <trkpt lat="52.007784023880959" lon="-9.641297031193972">
        <ele>171.25</ele>
        <time>2026-06-28T07:41:04Z</time>
      </trkpt>
      <trkpt lat="52.007709005847573" lon="-9.64135997928679">
        <ele>172.69</ele>
        <time>2026-06-28T07:41:05Z</time>
      </trkpt>
      <trkpt lat="52.007220005616546" lon="-9.6417670045048">
        <ele>181.83000000000001</ele>
        <time>2026-06-28T07:41:14Z</time>
      </trkpt>
      <trkpt lat="52.007220005616546" lon="-9.6417670045048">
        <ele>183.27000000000001</ele>
        <time>2026-06-28T07:41:27Z</time>
      </trkpt>
      <trkpt lat="52.007195027545094" lon="-9.64187596924603">
        <ele>184.22999999999999</ele>
        <time>2026-06-28T07:41:51Z</time>
      </trkpt>
      <trkpt lat="52.007188992574811" lon="-9.641906982287765">
        <ele>184.71000000000001</ele>
        <time>2026-06-28T07:41:52Z</time>
      </trkpt>
      <trkpt lat="52.007178012281656" lon="-9.641956016421318">
        <ele>185.19</ele>
        <time>2026-06-28T07:41:53Z</time>
      </trkpt>
      <trkpt lat="52.007167031988502" lon="-9.642008990049362">
        <ele>186.15000000000001</ele>
        <time>2026-06-28T07:41:54Z</time>
      </trkpt>
      <trkpt lat="52.007154962047935" lon="-9.642063975334168">
        <ele>187.11000000000001</ele>
        <time>2026-06-28T07:41:55Z</time>
      </trkpt>
      <trkpt lat="52.007138030603528" lon="-9.642073027789593">
        <ele>187.11000000000001</ele>
        <time>2026-06-28T07:41:56Z</time>
      </trkpt>
      <trkpt lat="52.007086984813213" lon="-9.642083002254367">
        <ele>188.08000000000001</ele>
        <time>2026-06-28T07:41:57Z</time>
      </trkpt>
      <trkpt lat="52.007022025063634" lon="-9.642095994204283">
        <ele>188.56</ele>
        <time>2026-06-28T07:41:58Z</time>
      </trkpt>
      <trkpt lat="52.006946001201868" lon="-9.64211099781096">
        <ele>189.52000000000001</ele>
        <time>2026-06-28T07:41:59Z</time>
      </trkpt>
      <trkpt lat="52.006876012310386" lon="-9.642161037772894">
        <ele>190</ele>
        <time>2026-06-28T07:42:00Z</time>
      </trkpt>
      <trkpt lat="52.006808035075665" lon="-9.642214011400938">
        <ele>190.47999999999999</ele>
        <time>2026-06-28T07:42:01Z</time>
      </trkpt>
      <trkpt lat="52.006574012339115" lon="-9.642396988347173">
        <ele>192.40000000000001</ele>
        <time>2026-06-28T07:42:04Z</time>
      </trkpt>
      <trkpt lat="52.005761973559856" lon="-9.642964024096727">
        <ele>195.28</ele>
        <time>2026-06-28T07:42:14Z</time>
      </trkpt>
      <trkpt lat="52.005679998546839" lon="-9.642976010218263">
        <ele>195.28</ele>
        <time>2026-06-28T07:42:15Z</time>
      </trkpt>
      <trkpt lat="52.005514036864042" lon="-9.642999982461333">
        <ele>193.84</ele>
        <time>2026-06-28T07:42:17Z</time>
      </trkpt>
      <trkpt lat="52.00533801689744" lon="-9.643024960532785">
        <ele>191.91999999999999</ele>
        <time>2026-06-28T07:42:19Z</time>
      </trkpt>
      <trkpt lat="52.004749020561576" lon="-9.643200980499387">
        <ele>188.08000000000001</ele>
        <time>2026-06-28T07:42:26Z</time>
      </trkpt>
      <trkpt lat="52.004518015310168" lon="-9.643274992704392">
        <ele>186.63</ele>
        <time>2026-06-28T07:42:30Z</time>
      </trkpt>
      <trkpt lat="52.004482978954911" lon="-9.643285972997546">
        <ele>186.63</ele>
        <time>2026-06-28T07:42:31Z</time>
      </trkpt>
      <trkpt lat="52.004482978954911" lon="-9.643285972997546">
        <ele>187.11000000000001</ele>
        <time>2026-06-28T07:42:38Z</time>
      </trkpt>
      <trkpt lat="52.004347024485469" lon="-9.643329977989197">
        <ele>187.11000000000001</ele>
        <time>2026-06-28T07:43:17Z</time>
      </trkpt>
      <trkpt lat="52.00409397482872" lon="-9.643399966880679">
        <ele>187.11000000000001</ele>
        <time>2026-06-28T07:43:20Z</time>
      </trkpt>
      <trkpt lat="52.003818964585662" lon="-9.643373982980847">
        <ele>186.63</ele>
        <time>2026-06-28T07:43:23Z</time>
      </trkpt>
      <trkpt lat="52.003758028149605" lon="-9.643343975767493">
        <ele>186.63</ele>
        <time>2026-06-28T07:43:24Z</time>
      </trkpt>
      <trkpt lat="52.003742018714547" lon="-9.643309023231268">
        <ele>186.63</ele>
        <time>2026-06-28T07:43:25Z</time>
      </trkpt>
      <trkpt lat="52.003742018714547" lon="-9.64322998188436">
        <ele>186.63</ele>
        <time>2026-06-28T07:43:26Z</time>
      </trkpt>
      <trkpt lat="52.003742018714547" lon="-9.643147001042962">
        <ele>186.63</ele>
        <time>2026-06-28T07:43:27Z</time>
      </trkpt>
      <trkpt lat="52.003667000681162" lon="-9.643047004938126">
        <ele>186.15000000000001</ele>
        <time>2026-06-28T07:43:28Z</time>
      </trkpt>
      <trkpt lat="52.003616960719228" lon="-9.642996964976192">
        <ele>186.15000000000001</ele>
        <time>2026-06-28T07:43:29Z</time>
      </trkpt>
      <trkpt lat="52.003543032333255" lon="-9.642962012439966">
        <ele>186.15000000000001</ele>
        <time>2026-06-28T07:43:30Z</time>
      </trkpt>
      <trkpt lat="52.003456028178334" lon="-9.642946003004909">
        <ele>186.15000000000001</ele>
        <time>2026-06-28T07:43:31Z</time>
      </trkpt>
      <trkpt lat="52.003359971567988" lon="-9.64292898774147">
        <ele>186.63</ele>
        <time>2026-06-28T07:43:32Z</time>
      </trkpt>
      <trkpt lat="52.003287971019745" lon="-9.642854975536466">
        <ele>188.08000000000001</ele>
        <time>2026-06-28T07:43:33Z</time>
      </trkpt>
      <trkpt lat="52.003223011270165" lon="-9.642783980816603">
        <ele>189.52000000000001</ele>
        <time>2026-06-28T07:43:34Z</time>
      </trkpt>
      <trkpt lat="52.003098037093878" lon="-9.642649032175541">
        <ele>191.44</ele>
        <time>2026-06-28T07:43:36Z</time>
      </trkpt>
      <trkpt lat="52.0029950235039" lon="-9.642637968063355">
        <ele>192.40000000000001</ele>
        <time>2026-06-28T07:43:37Z</time>
      </trkpt>
      <trkpt lat="52.002918999642134" lon="-9.642628999426961">
        <ele>192.88</ele>
        <time>2026-06-28T07:43:38Z</time>
      </trkpt>
      <trkpt lat="52.002905001863837" lon="-9.6426269877702">
        <ele>193.84</ele>
        <time>2026-06-28T07:43:39Z</time>
      </trkpt>
      <trkpt lat="52.00286703184247" lon="-9.642732013016939">
        <ele>194.31999999999999</ele>
        <time>2026-06-28T07:43:40Z</time>
      </trkpt>
      <trkpt lat="52.002840964123607" lon="-9.642805019393563">
        <ele>195.28</ele>
        <time>2026-06-28T07:43:41Z</time>
      </trkpt>
      <trkpt lat="52.002807017415762" lon="-9.642899986356497">
        <ele>195.77000000000001</ele>
        <time>2026-06-28T07:43:42Z</time>
      </trkpt>
      <trkpt lat="52.00269503518939" lon="-9.643268035724759">
        <ele>197.69</ele>
        <time>2026-06-28T07:43:45Z</time>
      </trkpt>
      <trkpt lat="52.002655975520611" lon="-9.643496023491025">
        <ele>199.13</ele>
        <time>2026-06-28T07:43:47Z</time>
      </trkpt>
      <trkpt lat="52.002592021599412" lon="-9.643577998504043">
        <ele>200.09</ele>
        <time>2026-06-28T07:43:48Z</time>
      </trkpt>
      <trkpt lat="52.002532007172704" lon="-9.643597025424242">
        <ele>200.56999999999999</ele>
        <time>2026-06-28T07:43:49Z</time>
      </trkpt>
      <trkpt lat="52.002456989139318" lon="-9.643608005717397">
        <ele>201.05000000000001</ele>
        <time>2026-06-28T07:43:50Z</time>
      </trkpt>
      <trkpt lat="52.002369984984398" lon="-9.643619991838932">
        <ele>201.53</ele>
        <time>2026-06-28T07:43:51Z</time>
      </trkpt>
      <trkpt lat="52.002265965566039" lon="-9.643634995445609">
        <ele>202.00999999999999</ele>
        <time>2026-06-28T07:43:52Z</time>
      </trkpt>
      <trkpt lat="52.001767996698618" lon="-9.643726022914052">
        <ele>202.00999999999999</ele>
        <time>2026-06-28T07:43:56Z</time>
      </trkpt>
      <trkpt lat="52.001640005037189" lon="-9.643802968785167">
        <ele>202.00999999999999</ele>
        <time>2026-06-28T07:43:57Z</time>
      </trkpt>
      <trkpt lat="52.001507990062237" lon="-9.643882010132074">
        <ele>202.00999999999999</ele>
        <time>2026-06-28T07:43:58Z</time>
      </trkpt>
      <trkpt lat="51.999901011586189" lon="-9.644724978134036">
        <ele>205.38</ele>
        <time>2026-06-28T07:44:10Z</time>
      </trkpt>
      <trkpt lat="51.999646034091711" lon="-9.644783986732364">
        <ele>206.34</ele>
        <time>2026-06-28T07:44:12Z</time>
      </trkpt>
      <trkpt lat="51.998957963660359" lon="-9.644804019480944">
        <ele>205.38</ele>
        <time>2026-06-28T07:44:18Z</time>
      </trkpt>
      <trkpt lat="51.998843969777226" lon="-9.644777029752731">
        <ele>205.38</ele>
        <time>2026-06-28T07:44:19Z</time>
      </trkpt>
      <trkpt lat="51.998654035851359" lon="-9.644618025049567">
        <ele>205.38</ele>
        <time>2026-06-28T07:44:21Z</time>
      </trkpt>
      <trkpt lat="51.998577006161213" lon="-9.644549963995814">
        <ele>205.38</ele>
        <time>2026-06-28T07:44:22Z</time>
      </trkpt>
      <trkpt lat="51.998494025319815" lon="-9.644476035609841">
        <ele>205.38</ele>
        <time>2026-06-28T07:44:23Z</time>
      </trkpt>
      <trkpt lat="51.997699001803994" lon="-9.643844040110707">
        <ele>205.38</ele>
        <time>2026-06-28T07:44:31Z</time>
      </trkpt>
      <trkpt lat="51.997597999870777" lon="-9.64380900375545">
        <ele>206.34</ele>
        <time>2026-06-28T07:44:32Z</time>
      </trkpt>
      <trkpt lat="51.997412005439401" lon="-9.64374303817749">
        <ele>207.30000000000001</ele>
        <time>2026-06-28T07:44:34Z</time>
      </trkpt>
      <trkpt lat="51.997374035418034" lon="-9.643714958801866">
        <ele>208.25999999999999</ele>
        <time>2026-06-28T07:44:35Z</time>
      </trkpt>
      <trkpt lat="51.997317960485816" lon="-9.643672965466976">
        <ele>208.74000000000001</ele>
        <time>2026-06-28T07:44:36Z</time>
      </trkpt>
      <trkpt lat="51.997263981029391" lon="-9.643631977960467">
        <ele>209.69999999999999</ele>
        <time>2026-06-28T07:44:37Z</time>
      </trkpt>
      <trkpt lat="51.997201032936573" lon="-9.643620997667313">
        <ele>210.19</ele>
        <time>2026-06-28T07:44:38Z</time>
      </trkpt>
      <trkpt lat="51.997125009074807" lon="-9.643633989617229">
        <ele>210.66999999999999</ele>
        <time>2026-06-28T07:44:39Z</time>
      </trkpt>
      <trkpt lat="51.99706600047648" lon="-9.643712025135756">
        <ele>211.15000000000001</ele>
        <time>2026-06-28T07:44:40Z</time>
      </trkpt>
      <trkpt lat="51.997012021020055" lon="-9.643801040947437">
        <ele>212.59</ele>
        <time>2026-06-28T07:44:41Z</time>
      </trkpt>
      <trkpt lat="51.99695804156363" lon="-9.643890978768468">
        <ele>213.55000000000001</ele>
        <time>2026-06-28T07:44:42Z</time>
      </trkpt>
      <trkpt lat="51.99691797606647" lon="-9.64395803399384">
        <ele>214.03</ele>
        <time>2026-06-28T07:44:43Z</time>
      </trkpt>
      <trkpt lat="51.996825020760298" lon="-9.644040009006858">
        <ele>214.03</ele>
        <time>2026-06-28T07:44:44Z</time>
      </trkpt>
      <trkpt lat="51.996740028262138" lon="-9.64410999789834">
        <ele>214.50999999999999</ele>
        <time>2026-06-28T07:44:45Z</time>
      </trkpt>
      <trkpt lat="51.996641037985682" lon="-9.644149979576469">
        <ele>214.99000000000001</ele>
        <time>2026-06-28T07:44:46Z</time>
      </trkpt>
      <trkpt lat="51.996537018567324" lon="-9.644191972911358">
        <ele>215.94999999999999</ele>
        <time>2026-06-28T07:44:47Z</time>
      </trkpt>
      <trkpt lat="51.996441967785358" lon="-9.644230026751757">
        <ele>216.43000000000001</ele>
        <time>2026-06-28T07:44:48Z</time>
      </trkpt>
      <trkpt lat="51.996362004429102" lon="-9.644212005659938">
        <ele>217.40000000000001</ele>
        <time>2026-06-28T07:44:49Z</time>
      </trkpt>
      <trkpt lat="51.996295033022761" lon="-9.644185015931726">
        <ele>217.88</ele>
        <time>2026-06-28T07:44:50Z</time>
      </trkpt>
      <trkpt lat="51.996224960312247" lon="-9.644157020375133">
        <ele>217.88</ele>
        <time>2026-06-28T07:44:51Z</time>
      </trkpt>
      <trkpt lat="51.99614298529923" lon="-9.644123995676637">
        <ele>217.88</ele>
        <time>2026-06-28T07:44:52Z</time>
      </trkpt>
      <trkpt lat="51.995882978662848" lon="-9.644019976258278">
        <ele>218.36000000000001</ele>
        <time>2026-06-28T07:44:55Z</time>
      </trkpt>
      <trkpt lat="51.995815001428127" lon="-9.643992986530066">
        <ele>218.84</ele>
        <time>2026-06-28T07:44:56Z</time>
      </trkpt>
      <trkpt lat="51.995748030021787" lon="-9.644025005400181">
        <ele>219.31999999999999</ele>
        <time>2026-06-28T07:44:57Z</time>
      </trkpt>
      <trkpt lat="51.995689021423459" lon="-9.644105974584818">
        <ele>220.28</ele>
        <time>2026-06-28T07:44:58Z</time>
      </trkpt>
      <trkpt lat="51.995624983683228" lon="-9.6441949903965">
        <ele>220.75999999999999</ele>
        <time>2026-06-28T07:44:59Z</time>
      </trkpt>
      <trkpt lat="51.995557006448507" lon="-9.644290041178465">
        <ele>221.72</ele>
        <time>2026-06-28T07:45:00Z</time>
      </trkpt>
      <trkpt lat="51.995449969545007" lon="-9.644572008401156">
        <ele>222.68000000000001</ele>
        <time>2026-06-28T07:45:02Z</time>
      </trkpt>
      <trkpt lat="51.995410993695259" lon="-9.64473101310432">
        <ele>223.16</ele>
        <time>2026-06-28T07:45:03Z</time>
      </trkpt>
      <trkpt lat="51.995373023673892" lon="-9.644881971180439">
        <ele>223.63999999999999</ele>
        <time>2026-06-28T07:45:04Z</time>
      </trkpt>
      <trkpt lat="51.995266992598772" lon="-9.645292013883591">
        <ele>225.56999999999999</ele>
        <time>2026-06-28T07:45:08Z</time>
      </trkpt>
      <trkpt lat="51.995226005092263" lon="-9.645383041352034">
        <ele>226.53</ele>
        <time>2026-06-28T07:45:10Z</time>
      </trkpt>
      <trkpt lat="51.995202032849193" lon="-9.645395027473569">
        <ele>227.00999999999999</ele>
        <time>2026-06-28T07:45:11Z</time>
      </trkpt>
      <trkpt lat="51.995202032849193" lon="-9.645365020260215">
        <ele>227.00999999999999</ele>
        <time>2026-06-28T07:45:12Z</time>
      </trkpt>
      <trkpt lat="51.995202032849193" lon="-9.645319003611803">
        <ele>227.49000000000001</ele>
        <time>2026-06-28T07:45:13Z</time>
      </trkpt>
      <trkpt lat="51.995202032849193" lon="-9.645258989185095">
        <ele>227.97</ele>
        <time>2026-06-28T07:45:14Z</time>
      </trkpt>
      <trkpt lat="51.995202032849193" lon="-9.645180031657219">
        <ele>228.44999999999999</ele>
        <time>2026-06-28T07:45:15Z</time>
      </trkpt>
      <trkpt lat="51.995202032849193" lon="-9.645091015845537">
        <ele>228.44999999999999</ele>
        <time>2026-06-28T07:45:16Z</time>
      </trkpt>
      <trkpt lat="51.995202032849193" lon="-9.645008035004139">
        <ele>228.93000000000001</ele>
        <time>2026-06-28T07:45:17Z</time>
      </trkpt>
      <trkpt lat="51.995202032849193" lon="-9.644859004765749">
        <ele>229.41</ele>
        <time>2026-06-28T07:45:18Z</time>
      </trkpt>
      <trkpt lat="51.995192980393767" lon="-9.64484098367393">
        <ele>229.41</ele>
        <time>2026-06-28T07:45:19Z</time>
      </trkpt>
      <trkpt lat="51.995148975402117" lon="-9.64475397951901">
        <ele>229.88999999999999</ele>
        <time>2026-06-28T07:45:20Z</time>
      </trkpt>
      <trkpt lat="51.99493900872767" lon="-9.644333040341735">
        <ele>230.37</ele>
        <time>2026-06-28T07:45:24Z</time>
      </trkpt>
      <trkpt lat="51.994913024827838" lon="-9.644251987338066">
        <ele>230.37</ele>
        <time>2026-06-28T07:45:25Z</time>
      </trkpt>
      <trkpt lat="51.99489701539278" lon="-9.64417202398181">
        <ele>230.84999999999999</ele>
        <time>2026-06-28T07:45:26Z</time>
      </trkpt>
      <trkpt lat="51.994902966544032" lon="-9.644045038148761">
        <ele>230.84999999999999</ele>
        <time>2026-06-28T07:45:27Z</time>
      </trkpt>
      <trkpt lat="51.994946971535683" lon="-9.643969014286995">
        <ele>230.84999999999999</ele>
        <time>2026-06-28T07:45:28Z</time>
      </trkpt>
      <trkpt lat="51.995045961812139" lon="-9.643929032608867">
        <ele>231.33000000000001</ele>
        <time>2026-06-28T07:45:29Z</time>
      </trkpt>
      <trkpt lat="51.995114022865891" lon="-9.643922997638583">
        <ele>232.30000000000001</ele>
        <time>2026-06-28T07:45:30Z</time>
      </trkpt>
      <trkpt lat="51.995174959301949" lon="-9.6439169626683">
        <ele>233.25999999999999</ele>
        <time>2026-06-28T07:45:31Z</time>
      </trkpt>
      <trkpt lat="51.995202032849193" lon="-9.64391503483057">
        <ele>234.69999999999999</ele>
        <time>2026-06-28T07:45:32Z</time>
      </trkpt>
      <trkpt lat="51.995203960686922" lon="-9.643901959061623">
        <ele>235.66</ele>
        <time>2026-06-28T07:45:33Z</time>
      </trkpt>
      <trkpt lat="51.995212007313967" lon="-9.64385099709034">
        <ele>236.62</ele>
        <time>2026-06-28T07:45:34Z</time>
      </trkpt>
      <trkpt lat="51.995222987607121" lon="-9.64378603734076">
        <ele>237.58000000000001</ele>
        <time>2026-06-28T07:45:35Z</time>
      </trkpt>
      <trkpt lat="51.995202032849193" lon="-9.643762987107039">
        <ele>238.06</ele>
        <time>2026-06-28T07:45:36Z</time>
      </trkpt>
      <trkpt lat="51.995160039514303" lon="-9.643718982115388">
        <ele>238.53999999999999</ele>
        <time>2026-06-28T07:45:37Z</time>
      </trkpt>
      <trkpt lat="51.99511100538075" lon="-9.643667014315724">
        <ele>239.02000000000001</ele>
        <time>2026-06-28T07:45:38Z</time>
      </trkpt>
      <trkpt lat="51.994947977364063" lon="-9.643494011834264">
        <ele>241.43000000000001</ele>
        <time>2026-06-28T07:45:41Z</time>
      </trkpt>
      <trkpt lat="51.994905984029174" lon="-9.643449001014233">
        <ele>241.91</ele>
        <time>2026-06-28T07:45:42Z</time>
      </trkpt>
      <trkpt lat="51.994858039543033" lon="-9.643407007679343">
        <ele>242.38999999999999</ele>
        <time>2026-06-28T07:45:43Z</time>
      </trkpt>
      <trkpt lat="51.994815040379763" lon="-9.64337800629437">
        <ele>242.87</ele>
        <time>2026-06-28T07:45:44Z</time>
      </trkpt>
      <trkpt lat="51.994769023731351" lon="-9.643424022942781">
        <ele>242.87</ele>
        <time>2026-06-28T07:45:45Z</time>
      </trkpt>
      <trkpt lat="51.994729964062572" lon="-9.64346400462091">
        <ele>242.87</ele>
        <time>2026-06-28T07:45:46Z</time>
      </trkpt>
      <trkpt lat="51.99470398016274" lon="-9.643537010997534">
        <ele>243.34999999999999</ele>
        <time>2026-06-28T07:45:47Z</time>
      </trkpt>
      <trkpt lat="51.994671039283276" lon="-9.643627032637596">
        <ele>243.34999999999999</ele>
        <time>2026-06-28T07:45:48Z</time>
      </trkpt>
      <trkpt lat="51.994548998773098" lon="-9.643970020115376">
        <ele>244.31</ele>
        <time>2026-06-28T07:45:51Z</time>
      </trkpt>
      <trkpt lat="51.994422012940049" lon="-9.644146040081978">
        <ele>245.27000000000001</ele>
        <time>2026-06-28T07:45:53Z</time>
      </trkpt>
      <trkpt lat="51.994354035705328" lon="-9.644205970689654">
        <ele>245.75</ele>
        <time>2026-06-28T07:45:54Z</time>
      </trkpt>
      <trkpt lat="51.99431799352169" lon="-9.64434502646327">
        <ele>246.22999999999999</ele>
        <time>2026-06-28T07:45:55Z</time>
      </trkpt>
      <trkpt lat="51.994249010458589" lon="-9.644370004534721">
        <ele>246.72</ele>
        <time>2026-06-28T07:45:56Z</time>
      </trkpt>
      <trkpt lat="51.994177009910345" lon="-9.644395988434553">
        <ele>246.72</ele>
        <time>2026-06-28T07:45:57Z</time>
      </trkpt>
      <trkpt lat="51.993851037696004" lon="-9.644512999802828">
        <ele>245.75</ele>
        <time>2026-06-28T07:46:01Z</time>
      </trkpt>
      <trkpt lat="51.99375900439918" lon="-9.644520040601492">
        <ele>245.27000000000001</ele>
        <time>2026-06-28T07:46:02Z</time>
      </trkpt>
      <trkpt lat="51.993677029386163" lon="-9.644466983154416">
        <ele>244.78999999999999</ele>
        <time>2026-06-28T07:46:03Z</time>
      </trkpt>
      <trkpt lat="51.993592958897352" lon="-9.644411997869611">
        <ele>244.31</ele>
        <time>2026-06-28T07:46:04Z</time>
      </trkpt>
      <trkpt lat="51.993512995541096" lon="-9.644360030069947">
        <ele>243.34999999999999</ele>
        <time>2026-06-28T07:46:05Z</time>
      </trkpt>
      <trkpt lat="51.993439989164472" lon="-9.644313007593155">
        <ele>242.38999999999999</ele>
        <time>2026-06-28T07:46:06Z</time>
      </trkpt>
      <trkpt lat="51.993380980566144" lon="-9.644274031743407">
        <ele>241.91</ele>
        <time>2026-06-28T07:46:07Z</time>
      </trkpt>
      <trkpt lat="51.993333036080003" lon="-9.644265985116363">
        <ele>240.94999999999999</ele>
        <time>2026-06-28T07:46:08Z</time>
      </trkpt>
      <trkpt lat="51.993270004168153" lon="-9.644287023693323">
        <ele>240.47</ele>
        <time>2026-06-28T07:46:09Z</time>
      </trkpt>
      <trkpt lat="51.99319900944829" lon="-9.644310995936394">
        <ele>239.99000000000001</ele>
        <time>2026-06-28T07:46:10Z</time>
      </trkpt>
      <trkpt lat="51.993123991414905" lon="-9.644309990108013">
        <ele>239.50999999999999</ele>
        <time>2026-06-28T07:46:11Z</time>
      </trkpt>
      <trkpt lat="51.993048973381519" lon="-9.644284006208181">
        <ele>239.02000000000001</ele>
        <time>2026-06-28T07:46:12Z</time>
      </trkpt>
      <trkpt lat="51.992989964783192" lon="-9.644200019538403">
        <ele>238.53999999999999</ele>
        <time>2026-06-28T07:46:13Z</time>
      </trkpt>
      <trkpt lat="51.992936991155148" lon="-9.644103040918708">
        <ele>237.58000000000001</ele>
        <time>2026-06-28T07:46:14Z</time>
      </trkpt>
      <trkpt lat="51.992897009477019" lon="-9.643994998186827">
        <ele>236.62</ele>
        <time>2026-06-28T07:46:15Z</time>
      </trkpt>
      <trkpt lat="51.992857027798891" lon="-9.64387496933341">
        <ele>235.66</ele>
        <time>2026-06-28T07:46:16Z</time>
      </trkpt>
      <trkpt lat="51.992815034464002" lon="-9.643751000985503">
        <ele>234.69999999999999</ele>
        <time>2026-06-28T07:46:17Z</time>
      </trkpt>
      <trkpt lat="51.992772035300732" lon="-9.643622003495693">
        <ele>234.22</ele>
        <time>2026-06-28T07:46:18Z</time>
      </trkpt>
      <trkpt lat="51.9927270244807" lon="-9.643485965207219">
        <ele>233.25999999999999</ele>
        <time>2026-06-28T07:46:19Z</time>
      </trkpt>
      <trkpt lat="51.992685031145811" lon="-9.643359985202551">
        <ele>232.30000000000001</ele>
        <time>2026-06-28T07:46:20Z</time>
      </trkpt>
      <trkpt lat="51.992591992020607" lon="-9.643284967169166">
        <ele>231.81</ele>
        <time>2026-06-28T07:46:21Z</time>
      </trkpt>
      <trkpt lat="51.992505993694067" lon="-9.643254037946463">
        <ele>230.84999999999999</ele>
        <time>2026-06-28T07:46:22Z</time>
      </trkpt>
      <trkpt lat="51.992428964003921" lon="-9.643225036561489">
        <ele>229.88999999999999</ele>
        <time>2026-06-28T07:46:23Z</time>
      </trkpt>
      <trkpt lat="51.992358975112438" lon="-9.643199974671006">
        <ele>228.93000000000001</ele>
        <time>2026-06-28T07:46:24Z</time>
      </trkpt>
      <trkpt lat="51.992294015362859" lon="-9.643176002427936">
        <ele>227.97</ele>
        <time>2026-06-28T07:46:25Z</time>
      </trkpt>
      <trkpt lat="51.992234000936151" lon="-9.643182037398219">
        <ele>227.49000000000001</ele>
        <time>2026-06-28T07:46:26Z</time>
      </trkpt>
      <trkpt lat="51.992177003994584" lon="-9.643220007419586">
        <ele>226.53</ele>
        <time>2026-06-28T07:46:27Z</time>
      </trkpt>
      <trkpt lat="51.992129981517792" lon="-9.643258983269334">
        <ele>225.56999999999999</ele>
        <time>2026-06-28T07:46:28Z</time>
      </trkpt>
      <trkpt lat="51.992105003446341" lon="-9.643329977989197">
        <ele>225.09</ele>
        <time>2026-06-28T07:46:29Z</time>
      </trkpt>
      <trkpt lat="51.992076002061367" lon="-9.643409019336104">
        <ele>224.12</ele>
        <time>2026-06-28T07:46:30Z</time>
      </trkpt>
      <trkpt lat="51.992043983191252" lon="-9.643500968813896">
        <ele>223.63999999999999</ele>
        <time>2026-06-28T07:46:31Z</time>
      </trkpt>
      <trkpt lat="51.991928983479738" lon="-9.643819984048605">
        <ele>221.24000000000001</ele>
        <time>2026-06-28T07:46:34Z</time>
      </trkpt>
      <trkpt lat="51.991865029558539" lon="-9.643901037052274">
        <ele>220.28</ele>
        <time>2026-06-28T07:46:35Z</time>
      </trkpt>
      <trkpt lat="51.991790011525154" lon="-9.643973959609866">
        <ele>218.84</ele>
        <time>2026-06-28T07:46:36Z</time>
      </trkpt>
      <trkpt lat="51.991261029615998" lon="-9.644551975652576">
        <ele>211.63</ele>
        <time>2026-06-28T07:46:43Z</time>
      </trkpt>
      <trkpt lat="51.990830032154918" lon="-9.64572099968791">
        <ele>208.74000000000001</ele>
        <time>2026-06-28T07:46:53Z</time>
      </trkpt>
      <trkpt lat="51.9907929841429" lon="-9.645838011056185">
        <ele>206.34</ele>
        <time>2026-06-28T07:46:59Z</time>
      </trkpt>
      <trkpt lat="51.9907929841429" lon="-9.645838011056185">
        <ele>206.34</ele>
        <time>2026-06-28T07:47:24Z</time>
      </trkpt>
      <trkpt lat="51.99068795889616" lon="-9.646174963563681">
        <ele>205.86000000000001</ele>
        <time>2026-06-28T07:47:43Z</time>
      </trkpt>
      <trkpt lat="51.990586034953594" lon="-9.646501019597054">
        <ele>205.86000000000001</ele>
        <time>2026-06-28T07:47:46Z</time>
      </trkpt>
      <trkpt lat="51.990271965041757" lon="-9.647512966766954">
        <ele>204.41999999999999</ele>
        <time>2026-06-28T07:47:52Z</time>
      </trkpt>
      <trkpt lat="51.989843985065818" lon="-9.649070994928479">
        <ele>194.80000000000001</ele>
        <time>2026-06-28T07:48:00Z</time>
      </trkpt>
      <trkpt lat="51.989763015881181" lon="-9.649366959929466">
        <ele>192.88</ele>
        <time>2026-06-28T07:48:02Z</time>
      </trkpt>
      <trkpt lat="51.98973803780973" lon="-9.649533005431294">
        <ele>191.91999999999999</ele>
        <time>2026-06-28T07:48:03Z</time>
      </trkpt>
      <trkpt lat="51.989584984257817" lon="-9.651226988062263">
        <ele>187.59</ele>
        <time>2026-06-28T07:48:11Z</time>
      </trkpt>
      <trkpt lat="51.98939798399806" lon="-9.653759999200702">
        <ele>177.02000000000001</ele>
        <time>2026-06-28T07:48:23Z</time>
      </trkpt>
      <trkpt lat="51.989218024536967" lon="-9.655162962153554">
        <ele>171.25</ele>
        <time>2026-06-28T07:48:31Z</time>
      </trkpt>
      <trkpt lat="51.989177037030458" lon="-9.655769979581237">
        <ele>169.33000000000001</ele>
        <time>2026-06-28T07:48:35Z</time>
      </trkpt>
      <trkpt lat="51.989187011495233" lon="-9.656595010310412">
        <ele>167.41</ele>
        <time>2026-06-28T07:48:40Z</time>
      </trkpt>
      <trkpt lat="51.988972015678883" lon="-9.658037032932043">
        <ele>159.24000000000001</ele>
        <time>2026-06-28T07:48:48Z</time>
      </trkpt>
      <trkpt lat="51.988955000415444" lon="-9.658211041241884">
        <ele>157.78999999999999</ele>
        <time>2026-06-28T07:48:49Z</time>
      </trkpt>
      <trkpt lat="51.988950977101922" lon="-9.658383037894964">
        <ele>156.83000000000001</ele>
        <time>2026-06-28T07:48:50Z</time>
      </trkpt>
      <trkpt lat="51.988904038444161" lon="-9.660295033827424">
        <ele>149.62</ele>
        <time>2026-06-28T07:49:00Z</time>
      </trkpt>
      <trkpt lat="51.98894795961678" lon="-9.661422986537218">
        <ele>145.78</ele>
        <time>2026-06-28T07:49:08Z</time>
      </trkpt>
      <trkpt lat="51.98898802511394" lon="-9.661918021738529">
        <ele>143.84999999999999</ele>
        <time>2026-06-28T07:49:17Z</time>
      </trkpt>
      <trkpt lat="51.989000011235476" lon="-9.662067973986268">
        <ele>143.37</ele>
        <time>2026-06-28T07:49:19Z</time>
      </trkpt>
      <trkpt lat="51.988939996808767" lon="-9.662511963397265">
        <ele>142.41</ele>
        <time>2026-06-28T07:49:27Z</time>
      </trkpt>
      <trkpt lat="51.988909989595413" lon="-9.662549011409283">
        <ele>142.41</ele>
        <time>2026-06-28T07:49:28Z</time>
      </trkpt>
      <trkpt lat="51.988875037059188" lon="-9.662559991702437">
        <ele>141.93000000000001</ele>
        <time>2026-06-28T07:49:29Z</time>
      </trkpt>
      <trkpt lat="51.988857015967369" lon="-9.662515986710787">
        <ele>141.44999999999999</ele>
        <time>2026-06-28T07:49:30Z</time>
      </trkpt>
      <trkpt lat="51.988844024017453" lon="-9.662470975890756">
        <ele>140.97</ele>
        <time>2026-06-28T07:49:31Z</time>
      </trkpt>
      <trkpt lat="51.988832037895918" lon="-9.662416996434331">
        <ele>140.49000000000001</ele>
        <time>2026-06-28T07:49:32Z</time>
      </trkpt>
      <trkpt lat="51.98881896212697" lon="-9.662361005321145">
        <ele>140.00999999999999</ele>
        <time>2026-06-28T07:49:33Z</time>
      </trkpt>
      <trkpt lat="51.988805970177054" lon="-9.66230702586472">
        <ele>140.00999999999999</ele>
        <time>2026-06-28T07:49:34Z</time>
      </trkpt>
      <trkpt lat="51.988792978227139" lon="-9.662250028923154">
        <ele>139.53</ele>
        <time>2026-06-28T07:49:35Z</time>
      </trkpt>
      <trkpt lat="51.988620981574059" lon="-9.66157604008913">
        <ele>136.63999999999999</ele>
        <time>2026-06-28T07:49:45Z</time>
      </trkpt>
      <trkpt lat="51.988390982151031" lon="-9.661035994067788">
        <ele>134.24000000000001</ele>
        <time>2026-06-28T07:49:51Z</time>
      </trkpt>
      <trkpt lat="51.988201970234513" lon="-9.660590998828411">
        <ele>129.91999999999999</ele>
        <time>2026-06-28T07:49:56Z</time>
      </trkpt>
      <trkpt lat="51.98817296884954" lon="-9.66052302159369">
        <ele>128.94999999999999</ele>
        <time>2026-06-28T07:49:57Z</time>
      </trkpt>
      <trkpt lat="51.988164000213146" lon="-9.660501983016729">
        <ele>128.47</ele>
        <time>2026-06-28T07:49:58Z</time>
      </trkpt>
      <trkpt lat="51.988101974129677" lon="-9.660477004945278">
        <ele>127.51000000000001</ele>
        <time>2026-06-28T07:49:59Z</time>
      </trkpt>
      <trkpt lat="51.988066015765071" lon="-9.660463007166982">
        <ele>126.55</ele>
        <time>2026-06-28T07:50:00Z</time>
      </trkpt>
      <trkpt lat="51.988056041300297" lon="-9.660458983853459">
        <ele>125.11</ele>
        <time>2026-06-28T07:50:01Z</time>
      </trkpt>
      <trkpt lat="51.988049000501633" lon="-9.660495026037097">
        <ele>124.63</ele>
        <time>2026-06-28T07:50:02Z</time>
      </trkpt>
      <trkpt lat="51.988038020208478" lon="-9.66054598800838">
        <ele>124.15000000000001</ele>
        <time>2026-06-28T07:50:03Z</time>
      </trkpt>
      <trkpt lat="51.988027961924672" lon="-9.660590998828411">
        <ele>123.19</ele>
        <time>2026-06-28T07:50:04Z</time>
      </trkpt>
      <trkpt lat="51.98802100494504" lon="-9.660623017698526">
        <ele>122.70999999999999</ele>
        <time>2026-06-28T07:50:05Z</time>
      </trkpt>
      <trkpt lat="51.98802100494504" lon="-9.660623017698526">
        <ele>121.26000000000001</ele>
        <time>2026-06-28T07:50:15Z</time>
      </trkpt>
      <trkpt lat="51.98802100494504" lon="-9.660623017698526">
        <ele>120.3</ele>
        <time>2026-06-28T07:50:55Z</time>
      </trkpt>
      <trkpt lat="51.987994015216827" lon="-9.660747991874814">
        <ele>120.78</ele>
        <time>2026-06-28T07:51:00Z</time>
      </trkpt>
      <trkpt lat="51.987959984689951" lon="-9.660783028230071">
        <ele>120.78</ele>
        <time>2026-06-28T07:51:01Z</time>
      </trkpt>
      <trkpt lat="51.987900976091623" lon="-9.660817980766296">
        <ele>120.3</ele>
        <time>2026-06-28T07:51:02Z</time>
      </trkpt>
      <trkpt lat="51.98785001412034" lon="-9.660767018795013">
        <ele>119.34</ele>
        <time>2026-06-28T07:51:03Z</time>
      </trkpt>
      <trkpt lat="51.987805003300309" lon="-9.66069501824677">
        <ele>119.34</ele>
        <time>2026-06-28T07:51:04Z</time>
      </trkpt>
      <trkpt lat="51.987778013572097" lon="-9.660622011870146">
        <ele>118.86</ele>
        <time>2026-06-28T07:51:05Z</time>
      </trkpt>
      <trkpt lat="51.987751023843884" lon="-9.660549005493522">
        <ele>118.86</ele>
        <time>2026-06-28T07:51:06Z</time>
      </trkpt>
      <trkpt lat="51.987697966396809" lon="-9.660406010225415">
        <ele>118.86</ele>
        <time>2026-06-28T07:51:08Z</time>
      </trkpt>
      <trkpt lat="51.987565029412508" lon="-9.660003008320928">
        <ele>116.45999999999999</ele>
        <time>2026-06-28T07:51:13Z</time>
      </trkpt>
      <trkpt lat="51.987337041646242" lon="-9.658724013715982">
        <ele>111.65000000000001</ele>
        <time>2026-06-28T07:51:22Z</time>
      </trkpt>
      <trkpt lat="51.987268980592489" lon="-9.658139040693641">
        <ele>109.73</ele>
        <time>2026-06-28T07:51:26Z</time>
      </trkpt>
      <trkpt lat="51.987109975889325" lon="-9.657161040231586">
        <ele>104.44</ele>
        <time>2026-06-28T07:51:33Z</time>
      </trkpt>
      <trkpt lat="51.987063037231565" lon="-9.657031958922744">
        <ele>103.48</ele>
        <time>2026-06-28T07:51:34Z</time>
      </trkpt>
      <trkpt lat="51.987019032239914" lon="-9.656910002231598">
        <ele>103</ele>
        <time>2026-06-28T07:51:35Z</time>
      </trkpt>
      <trkpt lat="51.986982990056276" lon="-9.656811011955142">
        <ele>102.52</ele>
        <time>2026-06-28T07:51:36Z</time>
      </trkpt>
      <trkpt lat="51.986977038905025" lon="-9.656660975888372">
        <ele>101.56</ele>
        <time>2026-06-28T07:51:37Z</time>
      </trkpt>
      <trkpt lat="51.986971003934741" lon="-9.656532984226942">
        <ele>101.08</ele>
        <time>2026-06-28T07:51:38Z</time>
      </trkpt>
      <trkpt lat="51.986964968964458" lon="-9.656404992565513">
        <ele>100.11</ele>
        <time>2026-06-28T07:51:39Z</time>
      </trkpt>
      <trkpt lat="51.986934961751103" lon="-9.656273983418942">
        <ele>99.629999999999995</ele>
        <time>2026-06-28T07:51:40Z</time>
      </trkpt>
      <trkpt lat="51.986885005608201" lon="-9.656150015071034">
        <ele>98.670000000000002</ele>
        <time>2026-06-28T07:51:41Z</time>
      </trkpt>
      <trkpt lat="51.986832031980157" lon="-9.656021017581224">
        <ele>97.709999999999994</ele>
        <time>2026-06-28T07:51:42Z</time>
      </trkpt>
      <trkpt lat="51.986781992018223" lon="-9.655898977071047">
        <ele>97.230000000000004</ele>
        <time>2026-06-28T07:51:43Z</time>
      </trkpt>
      <trkpt lat="51.986759025603533" lon="-9.655780037865043">
        <ele>96.75</ele>
        <time>2026-06-28T07:51:44Z</time>
      </trkpt>
      <trkpt lat="51.986745027825236" lon="-9.655667971819639">
        <ele>96.269999999999996</ele>
        <time>2026-06-28T07:51:45Z</time>
      </trkpt>
      <trkpt lat="51.986726000905037" lon="-9.655502010136843">
        <ele>95.790000000000006</ele>
        <time>2026-06-28T07:51:46Z</time>
      </trkpt>
      <trkpt lat="51.986741004511714" lon="-9.655391033738852">
        <ele>95.310000000000002</ele>
        <time>2026-06-28T07:51:47Z</time>
      </trkpt>
      <trkpt lat="51.986782997846603" lon="-9.655084004625678">
        <ele>95.310000000000002</ele>
        <time>2026-06-28T07:51:49Z</time>
      </trkpt>
      <trkpt lat="51.986847035586834" lon="-9.65461503714323">
        <ele>96.269999999999996</ele>
        <time>2026-06-28T07:51:52Z</time>
      </trkpt>
      <trkpt lat="51.986854998394847" lon="-9.654472041875124">
        <ele>96.75</ele>
        <time>2026-06-28T07:51:53Z</time>
      </trkpt>
      <trkpt lat="51.986854998394847" lon="-9.654305996373296">
        <ele>96.269999999999996</ele>
        <time>2026-06-28T07:51:54Z</time>
      </trkpt>
      <trkpt lat="51.986853992566466" lon="-9.65414397418499">
        <ele>96.269999999999996</ele>
        <time>2026-06-28T07:51:55Z</time>
      </trkpt>
      <trkpt lat="51.986833959817886" lon="-9.65397197753191">
        <ele>96.75</ele>
        <time>2026-06-28T07:51:56Z</time>
      </trkpt>
      <trkpt lat="51.986815016716719" lon="-9.65379998087883">
        <ele>96.269999999999996</ele>
        <time>2026-06-28T07:51:57Z</time>
      </trkpt>
      <trkpt lat="51.9867779687047" lon="-9.65347602032125">
        <ele>95.790000000000006</ele>
        <time>2026-06-28T07:51:59Z</time>
      </trkpt>
      <trkpt lat="51.986764976754785" lon="-9.653307963162661">
        <ele>95.310000000000002</ele>
        <time>2026-06-28T07:52:00Z</time>
      </trkpt>
      <trkpt lat="51.986757013946772" lon="-9.653145018965006">
        <ele>95.310000000000002</ele>
        <time>2026-06-28T07:52:01Z</time>
      </trkpt>
      <trkpt lat="51.986748967319727" lon="-9.652985008433461">
        <ele>94.829999999999998</ele>
        <time>2026-06-28T07:52:02Z</time>
      </trkpt>
      <trkpt lat="51.986742010340095" lon="-9.652822986245155">
        <ele>94.829999999999998</ele>
        <time>2026-06-28T07:52:03Z</time>
      </trkpt>
      <trkpt lat="51.986599015071988" lon="-9.650798002257943">
        <ele>90.019999999999996</ele>
        <time>2026-06-28T07:52:14Z</time>
      </trkpt>
      <trkpt lat="51.98658300563693" lon="-9.650612007826567">
        <ele>89.540000000000006</ele>
        <time>2026-06-28T07:52:15Z</time>
      </trkpt>
      <trkpt lat="51.986564984545112" lon="-9.650428025051951">
        <ele>88.579999999999998</ele>
        <time>2026-06-28T07:52:16Z</time>
      </trkpt>
      <trkpt lat="51.9865189678967" lon="-9.650244964286685">
        <ele>87.620000000000005</ele>
        <time>2026-06-28T07:52:17Z</time>
      </trkpt>
      <trkpt lat="51.986459037289023" lon="-9.650098029524088">
        <ele>86.659999999999997</ele>
        <time>2026-06-28T07:52:18Z</time>
      </trkpt>
      <trkpt lat="51.986402040347457" lon="-9.649957967922092">
        <ele>86.180000000000007</ele>
        <time>2026-06-28T07:52:19Z</time>
      </trkpt>
      <trkpt lat="51.986344959586859" lon="-9.649822013452649">
        <ele>85.689999999999998</ele>
        <time>2026-06-28T07:52:20Z</time>
      </trkpt>
      <trkpt lat="51.986249992623925" lon="-9.649590002372861">
        <ele>85.209999999999994</ele>
        <time>2026-06-28T07:52:22Z</time>
      </trkpt>
      <trkpt lat="51.986185032874346" lon="-9.64935396797955">
        <ele>82.810000000000002</ele>
        <time>2026-06-28T07:52:24Z</time>
      </trkpt>
      <trkpt lat="51.986158965155482" lon="-9.649218013510108">
        <ele>81.370000000000005</ele>
        <time>2026-06-28T07:52:25Z</time>
      </trkpt>
      <trkpt lat="51.985956961289048" lon="-9.647765010595322">
        <ele>72.239999999999995</ele>
        <time>2026-06-28T07:52:35Z</time>
      </trkpt>
      <trkpt lat="51.985927037894726" lon="-9.647611035034061">
        <ele>71.760000000000005</ele>
        <time>2026-06-28T07:52:36Z</time>
      </trkpt>
      <trkpt lat="51.985899964347482" lon="-9.647467033937573">
        <ele>70.790000000000006</ele>
        <time>2026-06-28T07:52:37Z</time>
      </trkpt>
      <trkpt lat="51.985845984891057" lon="-9.647338958457112">
        <ele>69.829999999999998</ele>
        <time>2026-06-28T07:52:38Z</time>
      </trkpt>
      <trkpt lat="51.985783036798239" lon="-9.647232005372644">
        <ele>69.349999999999994</ele>
        <time>2026-06-28T07:52:39Z</time>
      </trkpt>
      <trkpt lat="51.985720004886389" lon="-9.647124968469143">
        <ele>68.390000000000001</ele>
        <time>2026-06-28T07:52:40Z</time>
      </trkpt>
      <trkpt lat="51.985665019601583" lon="-9.646993959322572">
        <ele>67.430000000000007</ele>
        <time>2026-06-28T07:52:41Z</time>
      </trkpt>
      <trkpt lat="51.985637024044991" lon="-9.646844007074833">
        <ele>66.950000000000003</ele>
        <time>2026-06-28T07:52:42Z</time>
      </trkpt>
      <trkpt lat="51.985606011003256" lon="-9.646680979058147">
        <ele>65.989999999999995</ele>
        <time>2026-06-28T07:52:43Z</time>
      </trkpt>
      <trkpt lat="51.985573992133141" lon="-9.646508982405067">
        <ele>65.030000000000001</ele>
        <time>2026-06-28T07:52:44Z</time>
      </trkpt>
      <trkpt lat="51.985541973263025" lon="-9.646333968266845">
        <ele>64.549999999999997</ele>
        <time>2026-06-28T07:52:45Z</time>
      </trkpt>
      <trkpt lat="51.985457986593246" lon="-9.645887967199087">
        <ele>63.100000000000001</ele>
        <time>2026-06-28T07:52:48Z</time>
      </trkpt>
      <trkpt lat="51.985438959673047" lon="-9.645782019942999">
        <ele>62.619999999999997</ele>
        <time>2026-06-28T07:52:49Z</time>
      </trkpt>
      <trkpt lat="51.985360002145171" lon="-9.645732985809445">
        <ele>62.140000000000001</ele>
        <time>2026-06-28T07:52:50Z</time>
      </trkpt>
      <trkpt lat="51.985282972455025" lon="-9.645685963332653">
        <ele>61.18</ele>
        <time>2026-06-28T07:52:51Z</time>
      </trkpt>
      <trkpt lat="51.985202003270388" lon="-9.645636007189751">
        <ele>60.700000000000003</ele>
        <time>2026-06-28T07:52:52Z</time>
      </trkpt>
      <trkpt lat="51.985122039914131" lon="-9.645554032176733">
        <ele>60.219999999999999</ele>
        <time>2026-06-28T07:52:53Z</time>
      </trkpt>
      <trkpt lat="51.985055990517139" lon="-9.645437020808458">
        <ele>59.259999999999998</ele>
        <time>2026-06-28T07:52:54Z</time>
      </trkpt>
      <trkpt lat="51.985001005232334" lon="-9.645299976691604">
        <ele>58.780000000000001</ele>
        <time>2026-06-28T07:52:55Z</time>
      </trkpt>
      <trkpt lat="51.984945014119148" lon="-9.64516100473702">
        <ele>58.299999999999997</ele>
        <time>2026-06-28T07:52:56Z</time>
      </trkpt>
      <trkpt lat="51.984890028834343" lon="-9.645022032782435">
        <ele>57.340000000000003</ele>
        <time>2026-06-28T07:52:57Z</time>
      </trkpt>
      <trkpt lat="51.984837977215648" lon="-9.644891023635864">
        <ele>56.859999999999999</ele>
        <time>2026-06-28T07:52:58Z</time>
      </trkpt>
      <trkpt lat="51.984806964173913" lon="-9.644749034196138">
        <ele>56.369999999999997</ele>
        <time>2026-06-28T07:52:59Z</time>
      </trkpt>
      <trkpt lat="51.984791960567236" lon="-9.644608972594142">
        <ele>55.890000000000001</ele>
        <time>2026-06-28T07:53:00Z</time>
      </trkpt>
      <trkpt lat="51.98477603495121" lon="-9.644464971497655">
        <ele>55.409999999999997</ele>
        <time>2026-06-28T07:53:01Z</time>
      </trkpt>
      <trkpt lat="51.984727000817657" lon="-9.64415199123323">
        <ele>54.93</ele>
        <time>2026-06-28T07:53:03Z</time>
      </trkpt>
      <trkpt lat="51.984678972512484" lon="-9.643991980701685">
        <ele>53.969999999999999</ele>
        <time>2026-06-28T07:53:04Z</time>
      </trkpt>
      <trkpt lat="51.984631028026342" lon="-9.64383096434176">
        <ele>53.490000000000002</ele>
        <time>2026-06-28T07:53:05Z</time>
      </trkpt>
      <trkpt lat="51.984579982236028" lon="-9.64365703985095">
        <ele>52.530000000000001</ele>
        <time>2026-06-28T07:53:06Z</time>
      </trkpt>
      <trkpt lat="51.984500018879771" lon="-9.643532987684012">
        <ele>52.049999999999997</ele>
        <time>2026-06-28T07:53:07Z</time>
      </trkpt>
      <trkpt lat="51.984421983361244" lon="-9.643412036821246">
        <ele>51.090000000000003</ele>
        <time>2026-06-28T07:53:08Z</time>
      </trkpt>
      <trkpt lat="51.984357023611665" lon="-9.643280021846294">
        <ele>50.130000000000003</ele>
        <time>2026-06-28T07:53:09Z</time>
      </trkpt>
      <trkpt lat="51.984301032498479" lon="-9.643139038234949">
        <ele>49.649999999999999</ele>
        <time>2026-06-28T07:53:10Z</time>
      </trkpt>
      <trkpt lat="51.984245041385293" lon="-9.642996964976192">
        <ele>48.68</ele>
        <time>2026-06-28T07:53:11Z</time>
      </trkpt>
      <trkpt lat="51.984188966453075" lon="-9.642854975536466">
        <ele>47.719999999999999</ele>
        <time>2026-06-28T07:53:12Z</time>
      </trkpt>
      <trkpt lat="51.984134986996651" lon="-9.642716003581882">
        <ele>46.759999999999998</ele>
        <time>2026-06-28T07:53:13Z</time>
      </trkpt>
      <trkpt lat="51.984060974791646" lon="-9.642426995560527">
        <ele>44.840000000000003</ele>
        <time>2026-06-28T07:53:15Z</time>
      </trkpt>
      <trkpt lat="51.984027028083801" lon="-9.642265979200602">
        <ele>43.880000000000003</ele>
        <time>2026-06-28T07:53:16Z</time>
      </trkpt>
      <trkpt lat="51.983620002865791" lon="-9.640422966331244">
        <ele>39.549999999999997</ele>
        <time>2026-06-28T07:53:27Z</time>
      </trkpt>
      <trkpt lat="51.98357398621738" lon="-9.640261027961969">
        <ele>39.07</ele>
        <time>2026-06-28T07:53:28Z</time>
      </trkpt>
      <trkpt lat="51.983516989275813" lon="-9.640111997723579">
        <ele>39.07</ele>
        <time>2026-06-28T07:53:29Z</time>
      </trkpt>
      <trkpt lat="51.98344498872757" lon="-9.639974031597376">
        <ele>38.590000000000003</ele>
        <time>2026-06-28T07:53:30Z</time>
      </trkpt>
      <trkpt lat="51.982539994642138" lon="-9.638710040599108">
        <ele>37.149999999999999</ele>
        <time>2026-06-28T07:53:40Z</time>
      </trkpt>
      <trkpt lat="51.982067003846169" lon="-9.63804803788662">
        <ele>40.509999999999998</ele>
        <time>2026-06-28T07:53:47Z</time>
      </trkpt>
      <trkpt lat="51.981931971386075" lon="-9.637866988778114">
        <ele>43.399999999999999</ele>
        <time>2026-06-28T07:53:52Z</time>
      </trkpt>
      <trkpt lat="51.981885032728314" lon="-9.637803034856916">
        <ele>43.880000000000003</ele>
        <time>2026-06-28T07:53:53Z</time>
      </trkpt>
      <trkpt lat="51.981831975281239" lon="-9.637732962146401">
        <ele>44.359999999999999</ele>
        <time>2026-06-28T07:53:54Z</time>
      </trkpt>
      <trkpt lat="51.981777995824814" lon="-9.637660961598158">
        <ele>44.840000000000003</ele>
        <time>2026-06-28T07:53:55Z</time>
      </trkpt>
      <trkpt lat="51.981707001104951" lon="-9.637648975476623">
        <ele>44.359999999999999</ele>
        <time>2026-06-28T07:53:56Z</time>
      </trkpt>
      <trkpt lat="51.98164002969861" lon="-9.637648975476623">
        <ele>44.359999999999999</ele>
        <time>2026-06-28T07:53:57Z</time>
      </trkpt>
      <trkpt lat="51.981572974473238" lon="-9.63772801682353">
        <ele>44.359999999999999</ele>
        <time>2026-06-28T07:53:58Z</time>
      </trkpt>
      <trkpt lat="51.981502985581756" lon="-9.637809991836548">
        <ele>43.880000000000003</ele>
        <time>2026-06-28T07:53:59Z</time>
      </trkpt>
      <trkpt lat="51.981431990861893" lon="-9.637891966849566">
        <ele>43.399999999999999</ele>
        <time>2026-06-28T07:54:00Z</time>
      </trkpt>
      <trkpt lat="51.981182964518666" lon="-9.638181980699301">
        <ele>42.920000000000002</ele>
        <time>2026-06-28T07:54:04Z</time>
      </trkpt>
      <trkpt lat="51.9811259675771" lon="-9.638249035924673">
        <ele>42.439999999999998</ele>
        <time>2026-06-28T07:54:05Z</time>
      </trkpt>
      <trkpt lat="51.981084980070591" lon="-9.638348026201129">
        <ele>42.439999999999998</ele>
        <time>2026-06-28T07:54:06Z</time>
      </trkpt>
      <trkpt lat="51.981049021705985" lon="-9.63843503035605">
        <ele>42.439999999999998</ele>
        <time>2026-06-28T07:54:07Z</time>
      </trkpt>
      <trkpt lat="51.981012979522347" lon="-9.63852203451097">
        <ele>42.439999999999998</ele>
        <time>2026-06-28T07:54:08Z</time>
      </trkpt>
      <trkpt lat="51.980977021157742" lon="-9.63860996067524">
        <ele>42.920000000000002</ele>
        <time>2026-06-28T07:54:09Z</time>
      </trkpt>
      <trkpt lat="51.980928992852569" lon="-9.6386309992522">
        <ele>42.920000000000002</ele>
        <time>2026-06-28T07:54:10Z</time>
      </trkpt>
      <trkpt lat="51.980874007567763" lon="-9.63865103200078">
        <ele>42.439999999999998</ele>
        <time>2026-06-28T07:54:11Z</time>
      </trkpt>
      <trkpt lat="51.980816004797816" lon="-9.638671986758709">
        <ele>42.439999999999998</ele>
        <time>2026-06-28T07:54:12Z</time>
      </trkpt>
      <trkpt lat="51.980753978714347" lon="-9.63869403116405">
        <ele>42.439999999999998</ele>
        <time>2026-06-28T07:54:13Z</time>
      </trkpt>
      <trkpt lat="51.980692958459258" lon="-9.63871599175036">
        <ele>42.439999999999998</ele>
        <time>2026-06-28T07:54:14Z</time>
      </trkpt>
      <trkpt lat="51.980632022023201" lon="-9.638670980930328">
        <ele>41.469999999999999</ele>
        <time>2026-06-28T07:54:15Z</time>
      </trkpt>
      <trkpt lat="51.980579970404506" lon="-9.63860803283751">
        <ele>40.990000000000002</ele>
        <time>2026-06-28T07:54:16Z</time>
      </trkpt>
      <trkpt lat="51.980543006211519" lon="-9.638506025075913">
        <ele>40.509999999999998</ele>
        <time>2026-06-28T07:54:17Z</time>
      </trkpt>
      <trkpt lat="51.980510987341404" lon="-9.638387002050877">
        <ele>40.030000000000001</ele>
        <time>2026-06-28T07:54:18Z</time>
      </trkpt>
      <trkpt lat="51.980440998449922" lon="-9.638135964050889">
        <ele>39.549999999999997</ele>
        <time>2026-06-28T07:54:20Z</time>
      </trkpt>
      <trkpt lat="51.98039598762989" lon="-9.637971008196473">
        <ele>39.549999999999997</ele>
        <time>2026-06-28T07:54:21Z</time>
      </trkpt>
      <trkpt lat="51.980270007625222" lon="-9.637015974149108">
        <ele>42.439999999999998</ele>
        <time>2026-06-28T07:54:28Z</time>
      </trkpt>
      <trkpt lat="51.980251986533403" lon="-9.636882031336427">
        <ele>42.439999999999998</ele>
        <time>2026-06-28T07:54:29Z</time>
      </trkpt>
      <trkpt lat="51.980250980705023" lon="-9.636768037453294">
        <ele>42.439999999999998</ele>
        <time>2026-06-28T07:54:30Z</time>
      </trkpt>
      <trkpt lat="51.980260033160448" lon="-9.636658988893032">
        <ele>42.439999999999998</ele>
        <time>2026-06-28T07:54:31Z</time>
      </trkpt>
      <trkpt lat="51.980270007625222" lon="-9.636537032201886">
        <ele>42.439999999999998</ele>
        <time>2026-06-28T07:54:32Z</time>
      </trkpt>
      <trkpt lat="51.980346031486988" lon="-9.635587027296424">
        <ele>40.509999999999998</ele>
        <time>2026-06-28T07:54:38Z</time>
      </trkpt>
      <trkpt lat="51.980342008173466" lon="-9.635458029806614">
        <ele>40.030000000000001</ele>
        <time>2026-06-28T07:54:39Z</time>
      </trkpt>
      <trkpt lat="51.980315018445253" lon="-9.635351998731494">
        <ele>39.549999999999997</ele>
        <time>2026-06-28T07:54:40Z</time>
      </trkpt>
      <trkpt lat="51.980284005403519" lon="-9.635238004848361">
        <ele>39.07</ele>
        <time>2026-06-28T07:54:41Z</time>
      </trkpt>
      <trkpt lat="51.980220973491669" lon="-9.635139014571905">
        <ele>38.109999999999999</ele>
        <time>2026-06-28T07:54:42Z</time>
      </trkpt>
      <trkpt lat="51.980155007913709" lon="-9.635037006810308">
        <ele>38.109999999999999</ele>
        <time>2026-06-28T07:54:43Z</time>
      </trkpt>
      <trkpt lat="51.979785030707717" lon="-9.63448497466743">
        <ele>36.189999999999998</ele>
        <time>2026-06-28T07:54:48Z</time>
      </trkpt>
      <trkpt lat="51.979715963825583" lon="-9.63446200825274">
        <ele>35.710000000000001</ele>
        <time>2026-06-28T07:54:49Z</time>
      </trkpt>
      <trkpt lat="51.979644969105721" lon="-9.634482963010669">
        <ele>35.229999999999997</ele>
        <time>2026-06-28T07:54:50Z</time>
      </trkpt>
      <trkpt lat="51.979562994092703" lon="-9.634506013244391">
        <ele>34.740000000000002</ele>
        <time>2026-06-28T07:54:51Z</time>
      </trkpt>
      <trkpt lat="51.979452017694712" lon="-9.634538032114506">
        <ele>34.259999999999998</ele>
        <time>2026-06-28T07:54:52Z</time>
      </trkpt>
      <trkpt lat="51.978540988638997" lon="-9.635006999596953">
        <ele>33.299999999999997</ele>
        <time>2026-06-28T07:55:02Z</time>
      </trkpt>
      <trkpt lat="51.977716041728854" lon="-9.635890033096075">
        <ele>31.379999999999999</ele>
        <time>2026-06-28T07:55:12Z</time>
      </trkpt>
      <trkpt lat="51.97699997574091" lon="-9.636615989729762">
        <ele>30.899999999999999</ele>
        <time>2026-06-28T07:55:21Z</time>
      </trkpt>
      <trkpt lat="51.976926969364285" lon="-9.636664018034935">
        <ele>30.420000000000002</ele>
        <time>2026-06-28T07:55:22Z</time>
      </trkpt>
      <trkpt lat="51.976850023493171" lon="-9.63667499832809">
        <ele>29.940000000000001</ele>
        <time>2026-06-28T07:55:23Z</time>
      </trkpt>
      <trkpt lat="51.976779028773308" lon="-9.63667499832809">
        <ele>29.940000000000001</ele>
        <time>2026-06-28T07:55:24Z</time>
      </trkpt>
      <trkpt lat="51.976717002689838" lon="-9.6366330049932">
        <ele>30.420000000000002</ele>
        <time>2026-06-28T07:55:25Z</time>
      </trkpt>
      <trkpt lat="51.976649025455117" lon="-9.636586988344789">
        <ele>30.420000000000002</ele>
        <time>2026-06-28T07:55:26Z</time>
      </trkpt>
      <trkpt lat="51.976575013250113" lon="-9.636537032201886">
        <ele>30.420000000000002</ele>
        <time>2026-06-28T07:55:27Z</time>
      </trkpt>
      <trkpt lat="51.976503012701869" lon="-9.636486992239952">
        <ele>30.899999999999999</ele>
        <time>2026-06-28T07:55:28Z</time>
      </trkpt>
      <trkpt lat="51.976435035467148" lon="-9.63644097559154">
        <ele>30.899999999999999</ele>
        <time>2026-06-28T07:55:29Z</time>
      </trkpt>
      <trkpt lat="51.976364040747285" lon="-9.636392025277019">
        <ele>30.899999999999999</ele>
        <time>2026-06-28T07:55:30Z</time>
      </trkpt>
      <trkpt lat="51.976288016885519" lon="-9.636360006406903">
        <ele>30.899999999999999</ele>
        <time>2026-06-28T07:55:31Z</time>
      </trkpt>
      <trkpt lat="51.976207969710231" lon="-9.63635397143662">
        <ele>30.420000000000002</ele>
        <time>2026-06-28T07:55:32Z</time>
      </trkpt>
      <trkpt lat="51.975299036130309" lon="-9.636469976976514">
        <ele>29.460000000000001</ele>
        <time>2026-06-28T07:55:43Z</time>
      </trkpt>
      <trkpt lat="51.974299997091293" lon="-9.636938022449613">
        <ele>29.460000000000001</ele>
        <time>2026-06-28T07:55:54Z</time>
      </trkpt>
      <trkpt lat="51.973847039043903" lon="-9.637139020487666">
        <ele>30.420000000000002</ele>
        <time>2026-06-28T07:55:59Z</time>
      </trkpt>
      <trkpt lat="51.973600024357438" lon="-9.637166010215879">
        <ele>31.859999999999999</ele>
        <time>2026-06-28T07:56:02Z</time>
      </trkpt>
      <trkpt lat="51.973521988838911" lon="-9.637217978015542">
        <ele>31.859999999999999</ele>
        <time>2026-06-28T07:56:03Z</time>
      </trkpt>
      <trkpt lat="51.973440013825893" lon="-9.637272041290999">
        <ele>31.379999999999999</ele>
        <time>2026-06-28T07:56:04Z</time>
      </trkpt>
      <trkpt lat="51.973358038812876" lon="-9.637327026575804">
        <ele>31.379999999999999</ele>
        <time>2026-06-28T07:56:05Z</time>
      </trkpt>
      <trkpt lat="51.973267011344433" lon="-9.637357033789158">
        <ele>31.379999999999999</ele>
        <time>2026-06-28T07:56:06Z</time>
      </trkpt>
      <trkpt lat="51.97317598387599" lon="-9.637387963011861">
        <ele>31.379999999999999</ele>
        <time>2026-06-28T07:56:07Z</time>
      </trkpt>
      <trkpt lat="51.972911031916738" lon="-9.637475972995162">
        <ele>32.340000000000003</ele>
        <time>2026-06-28T07:56:10Z</time>
      </trkpt>
      <trkpt lat="51.972820004448295" lon="-9.637460969388485">
        <ele>32.82</ele>
        <time>2026-06-28T07:56:11Z</time>
      </trkpt>
      <trkpt lat="51.972728976979852" lon="-9.637443032115698">
        <ele>32.82</ele>
        <time>2026-06-28T07:56:12Z</time>
      </trkpt>
      <trkpt lat="51.971571017056704" lon="-9.637208003550768">
        <ele>37.149999999999999</ele>
        <time>2026-06-28T07:56:24Z</time>
      </trkpt>
      <trkpt lat="51.971489964053035" lon="-9.637158969417214">
        <ele>37.630000000000003</ele>
        <time>2026-06-28T07:56:25Z</time>
      </trkpt>
      <trkpt lat="51.971408994868398" lon="-9.63708596304059">
        <ele>37.630000000000003</ele>
        <time>2026-06-28T07:56:26Z</time>
      </trkpt>
      <trkpt lat="51.971114035695791" lon="-9.636820005252957">
        <ele>40.990000000000002</ele>
        <time>2026-06-28T07:56:30Z</time>
      </trkpt>
      <trkpt lat="51.971073970198631" lon="-9.636724032461643">
        <ele>41.469999999999999</ele>
        <time>2026-06-28T07:56:31Z</time>
      </trkpt>
      <trkpt lat="51.971038011834025" lon="-9.636618001386523">
        <ele>42.439999999999998</ele>
        <time>2026-06-28T07:56:32Z</time>
      </trkpt>
      <trkpt lat="51.970998030155897" lon="-9.636500990018249">
        <ele>42.920000000000002</ele>
        <time>2026-06-28T07:56:33Z</time>
      </trkpt>
      <trkpt lat="51.970955030992627" lon="-9.636377021670342">
        <ele>43.399999999999999</ele>
        <time>2026-06-28T07:56:34Z</time>
      </trkpt>
      <trkpt lat="51.970913959667087" lon="-9.636255986988545">
        <ele>43.399999999999999</ele>
        <time>2026-06-28T07:56:35Z</time>
      </trkpt>
      <trkpt lat="51.97087598964572" lon="-9.636148028075695">
        <ele>43.880000000000003</ele>
        <time>2026-06-28T07:56:36Z</time>
      </trkpt>
      <trkpt lat="51.970804994925857" lon="-9.636089019477367">
        <ele>43.880000000000003</ele>
        <time>2026-06-28T07:56:37Z</time>
      </trkpt>
      <trkpt lat="51.970726037397981" lon="-9.636044008657336">
        <ele>44.359999999999999</ele>
        <time>2026-06-28T07:56:38Z</time>
      </trkpt>
      <trkpt lat="51.970632998272777" lon="-9.636039985343814">
        <ele>44.359999999999999</ele>
        <time>2026-06-28T07:56:39Z</time>
      </trkpt>
      <trkpt lat="51.97053300216794" lon="-9.636039985343814">
        <ele>44.359999999999999</ele>
        <time>2026-06-28T07:56:40Z</time>
      </trkpt>
      <trkpt lat="51.970243994146585" lon="-9.636040991172195">
        <ele>44.840000000000003</ele>
        <time>2026-06-28T07:56:43Z</time>
      </trkpt>
      <trkpt lat="51.969676958397031" lon="-9.636256992816925">
        <ele>46.280000000000001</ele>
        <time>2026-06-28T07:56:49Z</time>
      </trkpt>
      <trkpt lat="51.969576962292194" lon="-9.636309966444969">
        <ele>46.759999999999998</ele>
        <time>2026-06-28T07:56:50Z</time>
      </trkpt>
      <trkpt lat="51.969485012814403" lon="-9.636391019448638">
        <ele>47.240000000000002</ele>
        <time>2026-06-28T07:56:51Z</time>
      </trkpt>
      <trkpt lat="51.96939398534596" lon="-9.636479029431939">
        <ele>48.200000000000003</ele>
        <time>2026-06-28T07:56:52Z</time>
      </trkpt>
      <trkpt lat="51.969304969534278" lon="-9.636564021930099">
        <ele>48.68</ele>
        <time>2026-06-28T07:56:53Z</time>
      </trkpt>
      <trkpt lat="51.969057032838464" lon="-9.636802989989519">
        <ele>50.130000000000003</ele>
        <time>2026-06-28T07:56:56Z</time>
      </trkpt>
      <trkpt lat="51.96898796595633" lon="-9.63686996139586">
        <ele>51.090000000000003</ele>
        <time>2026-06-28T07:56:57Z</time>
      </trkpt>
      <trkpt lat="51.968914959579706" lon="-9.63688999414444">
        <ele>52.049999999999997</ele>
        <time>2026-06-28T07:56:58Z</time>
      </trkpt>
      <trkpt lat="51.968837007880211" lon="-9.636904997751117">
        <ele>52.530000000000001</ele>
        <time>2026-06-28T07:56:59Z</time>
      </trkpt>
      <trkpt lat="51.968751009553671" lon="-9.636922013014555">
        <ele>53.009999999999998</ele>
        <time>2026-06-28T07:57:00Z</time>
      </trkpt>
      <trkpt lat="51.967704026028514" lon="-9.636843977496028">
        <ele>54.450000000000003</ele>
        <time>2026-06-28T07:57:10Z</time>
      </trkpt>
      <trkpt lat="51.967385010793805" lon="-9.636650020256639">
        <ele>53.969999999999999</ele>
        <time>2026-06-28T07:57:13Z</time>
      </trkpt>
      <trkpt lat="51.96728702634573" lon="-9.63654700666666">
        <ele>53.969999999999999</ele>
        <time>2026-06-28T07:57:14Z</time>
      </trkpt>
      <trkpt lat="51.966313971206546" lon="-9.635648969560862">
        <ele>54.93</ele>
        <time>2026-06-28T07:57:25Z</time>
      </trkpt>
      <trkpt lat="51.965346029028296" lon="-9.63499803096056">
        <ele>62.140000000000001</ele>
        <time>2026-06-28T07:57:34Z</time>
      </trkpt>
      <trkpt lat="51.965130027383566" lon="-9.634864004328847">
        <ele>64.549999999999997</ele>
        <time>2026-06-28T07:57:37Z</time>
      </trkpt>
      <trkpt lat="51.965059032663703" lon="-9.634896023198962">
        <ele>65.510000000000005</ele>
        <time>2026-06-28T07:57:38Z</time>
      </trkpt>
      <trkpt lat="51.964977979660034" lon="-9.634932987391949">
        <ele>65.989999999999995</ele>
        <time>2026-06-28T07:57:39Z</time>
      </trkpt>
      <trkpt lat="51.964892987161875" lon="-9.634976992383599">
        <ele>66.950000000000003</ele>
        <time>2026-06-28T07:57:40Z</time>
      </trkpt>
      <trkpt lat="51.964803971350193" lon="-9.635056033730507">
        <ele>67.909999999999997</ele>
        <time>2026-06-28T07:57:41Z</time>
      </trkpt>
      <trkpt lat="51.964028980582952" lon="-9.635693980380893">
        <ele>71.760000000000005</ele>
        <time>2026-06-28T07:57:49Z</time>
      </trkpt>
      <trkpt lat="51.963932001963258" lon="-9.635761035606265">
        <ele>72.239999999999995</ele>
        <time>2026-06-28T07:57:50Z</time>
      </trkpt>
      <trkpt lat="51.963848015293479" lon="-9.635819960385561">
        <ele>72.719999999999999</ele>
        <time>2026-06-28T07:57:51Z</time>
      </trkpt>
      <trkpt lat="51.963772997260094" lon="-9.635896990075707">
        <ele>73.200000000000003</ele>
        <time>2026-06-28T07:57:52Z</time>
      </trkpt>
      <trkpt lat="51.963702002540231" lon="-9.635992962867022">
        <ele>73.680000000000007</ele>
        <time>2026-06-28T07:57:53Z</time>
      </trkpt>
      <trkpt lat="51.963627990335226" lon="-9.636092958971858">
        <ele>74.159999999999997</ele>
        <time>2026-06-28T07:57:54Z</time>
      </trkpt>
      <trkpt lat="51.963552972301841" lon="-9.636174011975527">
        <ele>74.159999999999997</ele>
        <time>2026-06-28T07:57:55Z</time>
      </trkpt>
      <trkpt lat="51.963453982025385" lon="-9.636199995875359">
        <ele>74.640000000000001</ele>
        <time>2026-06-28T07:57:56Z</time>
      </trkpt>
      <trkpt lat="51.963349040597677" lon="-9.636227991431952">
        <ele>75.599999999999994</ele>
        <time>2026-06-28T07:57:57Z</time>
      </trkpt>
      <trkpt lat="51.963242003694177" lon="-9.636252969503403">
        <ele>76.560000000000002</ele>
        <time>2026-06-28T07:57:58Z</time>
      </trkpt>
      <trkpt lat="51.963136978447437" lon="-9.636234026402235">
        <ele>77.040000000000006</ele>
        <time>2026-06-28T07:57:59Z</time>
      </trkpt>
      <trkpt lat="51.963043017312884" lon="-9.636218016967177">
        <ele>77.519999999999996</ele>
        <time>2026-06-28T07:58:00Z</time>
      </trkpt>
      <trkpt lat="51.962965987622738" lon="-9.636204019188881">
        <ele>78</ele>
        <time>2026-06-28T07:58:01Z</time>
      </trkpt>
      <trkpt lat="51.962895998731256" lon="-9.636192033067346">
        <ele>78.480000000000004</ele>
        <time>2026-06-28T07:58:02Z</time>
      </trkpt>
      <trkpt lat="51.962759038433433" lon="-9.636236038058996">
        <ele>78.480000000000004</ele>
        <time>2026-06-28T07:58:04Z</time>
      </trkpt>
      <trkpt lat="51.961984969675541" lon="-9.636511970311403">
        <ele>78</ele>
        <time>2026-06-28T07:58:12Z</time>
      </trkpt>
      <trkpt lat="51.961892014369369" lon="-9.63648397475481">
        <ele>77.519999999999996</ele>
        <time>2026-06-28T07:58:13Z</time>
      </trkpt>
      <trkpt lat="51.961804004386067" lon="-9.636457990854979">
        <ele>77.519999999999996</ele>
        <time>2026-06-28T07:58:14Z</time>
      </trkpt>
      <trkpt lat="51.961735021322966" lon="-9.636408034712076">
        <ele>77.519999999999996</ele>
        <time>2026-06-28T07:58:15Z</time>
      </trkpt>
      <trkpt lat="51.961661009117961" lon="-9.636325975880027">
        <ele>77.040000000000006</ele>
        <time>2026-06-28T07:58:16Z</time>
      </trkpt>
      <trkpt lat="51.961580961942673" lon="-9.636236960068345">
        <ele>77.040000000000006</ele>
        <time>2026-06-28T07:58:17Z</time>
      </trkpt>
      <trkpt lat="51.961341993883252" lon="-9.635933032259345">
        <ele>77.040000000000006</ele>
        <time>2026-06-28T07:58:20Z</time>
      </trkpt>
      <trkpt lat="51.961282985284925" lon="-9.635806968435645">
        <ele>77.519999999999996</ele>
        <time>2026-06-28T07:58:21Z</time>
      </trkpt>
      <trkpt lat="51.961065977811813" lon="-9.6353430300951">
        <ele>78.969999999999999</ele>
        <time>2026-06-28T07:58:25Z</time>
      </trkpt>
      <trkpt lat="51.961001018062234" lon="-9.63530195876956">
        <ele>78.969999999999999</ele>
        <time>2026-06-28T07:58:26Z</time>
      </trkpt>
      <trkpt lat="51.960955001413822" lon="-9.635316962376237">
        <ele>79.450000000000003</ele>
        <time>2026-06-28T07:58:27Z</time>
      </trkpt>
      <trkpt lat="51.960912002250552" lon="-9.635331965982914">
        <ele>79.450000000000003</ele>
        <time>2026-06-28T07:58:28Z</time>
      </trkpt>
      <trkpt lat="51.960893981158733" lon="-9.635382005944848">
        <ele>79.450000000000003</ele>
        <time>2026-06-28T07:58:29Z</time>
      </trkpt>
      <trkpt lat="51.96086497977376" lon="-9.635462975129485">
        <ele>79.450000000000003</ele>
        <time>2026-06-28T07:58:30Z</time>
      </trkpt>
      <trkpt lat="51.960829021409154" lon="-9.635564982891083">
        <ele>79.930000000000007</ele>
        <time>2026-06-28T07:58:31Z</time>
      </trkpt>
      <trkpt lat="51.960745034739375" lon="-9.635796993970871">
        <ele>80.409999999999997</ele>
        <time>2026-06-28T07:58:33Z</time>
      </trkpt>
      <trkpt lat="51.960698012262583" lon="-9.635878968983889">
        <ele>81.370000000000005</ele>
        <time>2026-06-28T07:58:34Z</time>
      </trkpt>
      <trkpt lat="51.960641015321016" lon="-9.635906964540482">
        <ele>81.849999999999994</ele>
        <time>2026-06-28T07:58:35Z</time>
      </trkpt>
      <trkpt lat="51.960581000894308" lon="-9.635872012004256">
        <ele>82.329999999999998</ele>
        <time>2026-06-28T07:58:36Z</time>
      </trkpt>
      <trkpt lat="51.960509000346065" lon="-9.635818032547832">
        <ele>82.810000000000002</ele>
        <time>2026-06-28T07:58:37Z</time>
      </trkpt>
      <trkpt lat="51.960431970655918" lon="-9.635761035606265">
        <ele>83.290000000000006</ele>
        <time>2026-06-28T07:58:38Z</time>
      </trkpt>
      <trkpt lat="51.960375979542732" lon="-9.635718036442995">
        <ele>84.25</ele>
        <time>2026-06-28T07:58:39Z</time>
      </trkpt>
      <trkpt lat="51.96030699647963" lon="-9.635718036442995">
        <ele>84.730000000000004</ele>
        <time>2026-06-28T07:58:40Z</time>
      </trkpt>
      <trkpt lat="51.960281012579799" lon="-9.635747959837318">
        <ele>85.689999999999998</ele>
        <time>2026-06-28T07:58:41Z</time>
      </trkpt>
      <trkpt lat="51.960257962346077" lon="-9.635820966213942">
        <ele>86.180000000000007</ele>
        <time>2026-06-28T07:58:42Z</time>
      </trkpt>
      <trkpt lat="51.960229966789484" lon="-9.635910987854004">
        <ele>87.620000000000005</ele>
        <time>2026-06-28T07:58:43Z</time>
      </trkpt>
      <trkpt lat="51.960201971232891" lon="-9.636000003665686">
        <ele>88.579999999999998</ele>
        <time>2026-06-28T07:58:44Z</time>
      </trkpt>
      <trkpt lat="51.960146985948086" lon="-9.636069992557168">
        <ele>89.540000000000006</ele>
        <time>2026-06-28T07:58:45Z</time>
      </trkpt>
      <trkpt lat="51.960085965692997" lon="-9.636084996163845">
        <ele>90.5</ele>
        <time>2026-06-28T07:58:46Z</time>
      </trkpt>
      <trkpt lat="51.960014970973134" lon="-9.636103017255664">
        <ele>90.980000000000004</ele>
        <time>2026-06-28T07:58:47Z</time>
      </trkpt>
      <trkpt lat="51.959946993738413" lon="-9.636120032519102">
        <ele>91.939999999999998</ele>
        <time>2026-06-28T07:58:48Z</time>
      </trkpt>
      <trkpt lat="51.959888990968466" lon="-9.636080972850323">
        <ele>92.900000000000006</ele>
        <time>2026-06-28T07:58:49Z</time>
      </trkpt>
      <trkpt lat="51.959844985976815" lon="-9.636024981737137">
        <ele>93.390000000000001</ele>
        <time>2026-06-28T07:58:50Z</time>
      </trkpt>
      <trkpt lat="51.959839034825563" lon="-9.635948035866022">
        <ele>94.349999999999994</ele>
        <time>2026-06-28T07:58:51Z</time>
      </trkpt>
      <trkpt lat="51.959839034825563" lon="-9.635862959548831">
        <ele>94.829999999999998</ele>
        <time>2026-06-28T07:58:52Z</time>
      </trkpt>
      <trkpt lat="51.959815984591842" lon="-9.635782996192575">
        <ele>95.790000000000006</ele>
        <time>2026-06-28T07:58:53Z</time>
      </trkpt>
      <trkpt lat="51.959784971550107" lon="-9.635698003694415">
        <ele>96.75</ele>
        <time>2026-06-28T07:58:54Z</time>
      </trkpt>
      <trkpt lat="51.959738032892346" lon="-9.635607982054353">
        <ele>97.230000000000004</ele>
        <time>2026-06-28T07:58:55Z</time>
      </trkpt>
      <trkpt lat="51.959677012637258" lon="-9.635595995932818">
        <ele>98.189999999999998</ele>
        <time>2026-06-28T07:58:56Z</time>
      </trkpt>
      <trkpt lat="51.959603000432253" lon="-9.63558099232614">
        <ele>98.670000000000002</ele>
        <time>2026-06-28T07:58:57Z</time>
      </trkpt>
      <trkpt lat="51.959538962692022" lon="-9.635568000376225">
        <ele>99.150000000000006</ele>
        <time>2026-06-28T07:58:58Z</time>
      </trkpt>
      <trkpt lat="51.959463022649288" lon="-9.635634971782565">
        <ele>99.150000000000006</ele>
        <time>2026-06-28T07:58:59Z</time>
      </trkpt>
      <trkpt lat="51.959400996565819" lon="-9.635689035058022">
        <ele>99.629999999999995</ele>
        <time>2026-06-28T07:59:00Z</time>
      </trkpt>
      <trkpt lat="51.959345005452633" lon="-9.635749971494079">
        <ele>99.629999999999995</ele>
        <time>2026-06-28T07:59:01Z</time>
      </trkpt>
      <trkpt lat="51.959288008511066" lon="-9.635832030326128">
        <ele>100.11</ele>
        <time>2026-06-28T07:59:02Z</time>
      </trkpt>
      <trkpt lat="51.9592310115695" lon="-9.635915011167526">
        <ele>100.11</ele>
        <time>2026-06-28T07:59:03Z</time>
      </trkpt>
      <trkpt lat="51.959177032113075" lon="-9.635992962867022">
        <ele>100.11</ele>
        <time>2026-06-28T07:59:04Z</time>
      </trkpt>
      <trkpt lat="51.959117017686367" lon="-9.636016013100743">
        <ele>100.11</ele>
        <time>2026-06-28T07:59:05Z</time>
      </trkpt>
      <trkpt lat="51.959067983552814" lon="-9.636032022535801">
        <ele>100.59999999999999</ele>
        <time>2026-06-28T07:59:06Z</time>
      </trkpt>
      <trkpt lat="51.959020961076021" lon="-9.635992962867022">
        <ele>100.59999999999999</ele>
        <time>2026-06-28T07:59:07Z</time>
      </trkpt>
      <trkpt lat="51.958978967741132" lon="-9.635912999510765">
        <ele>100.59999999999999</ele>
        <time>2026-06-28T07:59:08Z</time>
      </trkpt>
      <trkpt lat="51.95893001742661" lon="-9.635818032547832">
        <ele>100.59999999999999</ele>
        <time>2026-06-28T07:59:09Z</time>
      </trkpt>
      <trkpt lat="51.958874026313424" lon="-9.635710995644331">
        <ele>100.59999999999999</ele>
        <time>2026-06-28T07:59:10Z</time>
      </trkpt>
      <trkpt lat="51.958820968866348" lon="-9.635608987882733">
        <ele>100.59999999999999</ele>
        <time>2026-06-28T07:59:11Z</time>
      </trkpt>
      <trkpt lat="51.958757014945149" lon="-9.63553698733449">
        <ele>101.08</ele>
        <time>2026-06-28T07:59:12Z</time>
      </trkpt>
      <trkpt lat="51.958689037710428" lon="-9.635517038404942">
        <ele>101.56</ele>
        <time>2026-06-28T07:59:13Z</time>
      </trkpt>
      <trkpt lat="51.958617959171534" lon="-9.635497005656362">
        <ele>102.04000000000001</ele>
        <time>2026-06-28T07:59:14Z</time>
      </trkpt>
      <trkpt lat="51.958339009433985" lon="-9.635362979024649">
        <ele>104.92</ele>
        <time>2026-06-28T07:59:18Z</time>
      </trkpt>
      <trkpt lat="51.958271032199264" lon="-9.63530195876956">
        <ele>105.40000000000001</ele>
        <time>2026-06-28T07:59:19Z</time>
      </trkpt>
      <trkpt lat="51.95794397033751" lon="-9.635024014860392">
        <ele>104.92</ele>
        <time>2026-06-28T07:59:23Z</time>
      </trkpt>
      <trkpt lat="51.957867024466395" lon="-9.635015968233347">
        <ele>103.95999999999999</ele>
        <time>2026-06-28T07:59:24Z</time>
      </trkpt>
      <trkpt lat="51.957784965634346" lon="-9.635039018467069">
        <ele>103.48</ele>
        <time>2026-06-28T07:59:25Z</time>
      </trkpt>
      <trkpt lat="51.957697039470077" lon="-9.635089980438352">
        <ele>103</ele>
        <time>2026-06-28T07:59:26Z</time>
      </trkpt>
      <trkpt lat="51.957610035315156" lon="-9.63517103344202">
        <ele>103</ele>
        <time>2026-06-28T07:59:27Z</time>
      </trkpt>
      <trkpt lat="51.957516996189952" lon="-9.635258037596941">
        <ele>102.52</ele>
        <time>2026-06-28T07:59:28Z</time>
      </trkpt>
      <trkpt lat="51.956349983811378" lon="-9.636349026113749">
        <ele>103</ele>
        <time>2026-06-28T07:59:39Z</time>
      </trkpt>
      <trkpt lat="51.954948026686907" lon="-9.637047993019223">
        <ele>105.88</ele>
        <time>2026-06-28T07:59:50Z</time>
      </trkpt>
      <trkpt lat="51.954859010875225" lon="-9.63710599578917">
        <ele>106.84</ele>
        <time>2026-06-28T07:59:51Z</time>
      </trkpt>
      <trkpt lat="51.954769995063543" lon="-9.637175984680653">
        <ele>106.84</ele>
        <time>2026-06-28T07:59:52Z</time>
      </trkpt>
      <trkpt lat="51.954669998958707" lon="-9.63725502602756">
        <ele>107.31999999999999</ele>
        <time>2026-06-28T07:59:53Z</time>
      </trkpt>
      <trkpt lat="51.954560028389096" lon="-9.6373410243541">
        <ele>107.31999999999999</ele>
        <time>2026-06-28T07:59:54Z</time>
      </trkpt>
      <trkpt lat="51.954450979828835" lon="-9.637482007965446">
        <ele>107.31999999999999</ele>
        <time>2026-06-28T07:59:55Z</time>
      </trkpt>
      <trkpt lat="51.954367998987436" lon="-9.637647969648242">
        <ele>107.81</ele>
        <time>2026-06-28T07:59:56Z</time>
      </trkpt>
      <trkpt lat="51.954284012317657" lon="-9.637818038463593">
        <ele>108.29000000000001</ele>
        <time>2026-06-28T07:59:57Z</time>
      </trkpt>
      <trkpt lat="51.954203965142369" lon="-9.637991962954402">
        <ele>108.29000000000001</ele>
        <time>2026-06-28T07:59:58Z</time>
      </trkpt>
      <trkpt lat="51.954146968200803" lon="-9.638176029548049">
        <ele>107.81</ele>
        <time>2026-06-28T07:59:59Z</time>
      </trkpt>
      <trkpt lat="51.954040015116334" lon="-9.638517005369067">
        <ele>106.84</ele>
        <time>2026-06-28T08:00:01Z</time>
      </trkpt>
      <trkpt lat="51.954001039266586" lon="-9.638689002022147">
        <ele>106.36</ele>
        <time>2026-06-28T08:00:02Z</time>
      </trkpt>
      <trkpt lat="51.953992992639542" lon="-9.638860998675227">
        <ele>106.36</ele>
        <time>2026-06-28T08:00:03Z</time>
      </trkpt>
      <trkpt lat="51.953985029831529" lon="-9.639046993106604">
        <ele>106.36</ele>
        <time>2026-06-28T08:00:04Z</time>
      </trkpt>
      <trkpt lat="51.953976983204484" lon="-9.639242962002754">
        <ele>106.36</ele>
        <time>2026-06-28T08:00:05Z</time>
      </trkpt>
      <trkpt lat="51.953848991543055" lon="-9.640918001532555">
        <ele>106.36</ele>
        <time>2026-06-28T08:00:13Z</time>
      </trkpt>
      <trkpt lat="51.953802974894643" lon="-9.641106007620692">
        <ele>106.36</ele>
        <time>2026-06-28T08:00:14Z</time>
      </trkpt>
      <trkpt lat="51.953738015145063" lon="-9.641274986788631">
        <ele>106.84</ele>
        <time>2026-06-28T08:00:15Z</time>
      </trkpt>
      <trkpt lat="51.952882977202535" lon="-9.643076006323099">
        <ele>106.36</ele>
        <time>2026-06-28T08:00:24Z</time>
      </trkpt>
      <trkpt lat="51.951729962602258" lon="-9.645284973084927">
        <ele>107.31999999999999</ele>
        <time>2026-06-28T08:00:35Z</time>
      </trkpt>
      <trkpt lat="51.951483031734824" lon="-9.645722005516291">
        <ele>108.77</ele>
        <time>2026-06-28T08:00:38Z</time>
      </trkpt>
      <trkpt lat="51.951441038399935" lon="-9.645853014662862">
        <ele>109.73</ele>
        <time>2026-06-28T08:00:39Z</time>
      </trkpt>
      <trkpt lat="51.951418993994594" lon="-9.646025011315942">
        <ele>110.20999999999999</ele>
        <time>2026-06-28T08:00:40Z</time>
      </trkpt>
      <trkpt lat="51.951395021751523" lon="-9.646208994090557">
        <ele>110.69</ele>
        <time>2026-06-28T08:00:41Z</time>
      </trkpt>
      <trkpt lat="51.95136995986104" lon="-9.646410997956991">
        <ele>111.17</ele>
        <time>2026-06-28T08:00:42Z</time>
      </trkpt>
      <trkpt lat="51.951199974864721" lon="-9.647606005892158">
        <ele>110.20999999999999</ele>
        <time>2026-06-28T08:00:48Z</time>
      </trkpt>
      <trkpt lat="51.951150018721819" lon="-9.647789988666773">
        <ele>109.73</ele>
        <time>2026-06-28T08:00:49Z</time>
      </trkpt>
      <trkpt lat="51.951093021780252" lon="-9.647974977269769">
        <ele>109.25</ele>
        <time>2026-06-28T08:00:50Z</time>
      </trkpt>
      <trkpt lat="51.951009035110474" lon="-9.648138005286455">
        <ele>109.25</ele>
        <time>2026-06-28T08:00:51Z</time>
      </trkpt>
      <trkpt lat="51.950923958793283" lon="-9.648302961140871">
        <ele>109.25</ele>
        <time>2026-06-28T08:00:52Z</time>
      </trkpt>
      <trkpt lat="51.950299004092813" lon="-9.650096017867327">
        <ele>108.29000000000001</ele>
        <time>2026-06-28T08:01:01Z</time>
      </trkpt>
      <trkpt lat="51.949904970824718" lon="-9.651661003008485">
        <ele>109.73</ele>
        <time>2026-06-28T08:01:09Z</time>
      </trkpt>
      <trkpt lat="51.949896002188325" lon="-9.651842974126339">
        <ele>109.73</ele>
        <time>2026-06-28T08:01:10Z</time>
      </trkpt>
      <trkpt lat="51.949888039380312" lon="-9.652017988264561">
        <ele>109.73</ele>
        <time>2026-06-28T08:01:11Z</time>
      </trkpt>
      <trkpt lat="51.949871024116874" lon="-9.652407998219132">
        <ele>109.73</ele>
        <time>2026-06-28T08:01:13Z</time>
      </trkpt>
      <trkpt lat="51.949859960004687" lon="-9.652616959065199">
        <ele>109.73</ele>
        <time>2026-06-28T08:01:14Z</time>
      </trkpt>
      <trkpt lat="51.949840011075139" lon="-9.652797002345324">
        <ele>109.73</ele>
        <time>2026-06-28T08:01:15Z</time>
      </trkpt>
      <trkpt lat="51.949814027175307" lon="-9.65302599593997">
        <ele>109.73</ele>
        <time>2026-06-28T08:01:17Z</time>
      </trkpt>
      <trkpt lat="51.949803968891501" lon="-9.653119035065174">
        <ele>109.73</ele>
        <time>2026-06-28T08:01:18Z</time>
      </trkpt>
      <trkpt lat="51.949791982769966" lon="-9.653221964836121">
        <ele>109.73</ele>
        <time>2026-06-28T08:01:19Z</time>
      </trkpt>
      <trkpt lat="51.949706990271807" lon="-9.654069039970636">
        <ele>110.69</ele>
        <time>2026-06-28T08:01:25Z</time>
      </trkpt>
      <trkpt lat="51.949701961129904" lon="-9.65422997251153">
        <ele>111.17</ele>
        <time>2026-06-28T08:01:26Z</time>
      </trkpt>
      <trkpt lat="51.949696009978652" lon="-9.654402974992991">
        <ele>110.69</ele>
        <time>2026-06-28T08:01:27Z</time>
      </trkpt>
      <trkpt lat="51.949689975008368" lon="-9.654578994959593">
        <ele>110.69</ele>
        <time>2026-06-28T08:01:28Z</time>
      </trkpt>
      <trkpt lat="51.949662985280156" lon="-9.654732970520854">
        <ele>110.69</ele>
        <time>2026-06-28T08:01:29Z</time>
      </trkpt>
      <trkpt lat="51.949637001380324" lon="-9.654880994930863">
        <ele>110.20999999999999</ele>
        <time>2026-06-28T08:01:30Z</time>
      </trkpt>
      <trkpt lat="51.949528958648443" lon="-9.655487006530166">
        <ele>109.73</ele>
        <time>2026-06-28T08:01:34Z</time>
      </trkpt>
      <trkpt lat="51.949453018605709" lon="-9.655953040346503">
        <ele>109.73</ele>
        <time>2026-06-28T08:01:37Z</time>
      </trkpt>
      <trkpt lat="51.949450001120567" lon="-9.656102992594242">
        <ele>109.25</ele>
        <time>2026-06-28T08:01:38Z</time>
      </trkpt>
      <trkpt lat="51.94943399168551" lon="-9.656946966424584">
        <ele>109.25</ele>
        <time>2026-06-28T08:01:43Z</time>
      </trkpt>
      <trkpt lat="51.949405996128917" lon="-9.657100019976497">
        <ele>109.25</ele>
        <time>2026-06-28T08:01:44Z</time>
      </trkpt>
      <trkpt lat="51.949366014450788" lon="-9.657242009416223">
        <ele>109.73</ele>
        <time>2026-06-28T08:01:45Z</time>
      </trkpt>
      <trkpt lat="51.949097039178014" lon="-9.658199977129698">
        <ele>112.13</ele>
        <time>2026-06-28T08:01:52Z</time>
      </trkpt>
      <trkpt lat="51.949071977287531" lon="-9.658372979611158">
        <ele>111.65000000000001</ele>
        <time>2026-06-28T08:01:53Z</time>
      </trkpt>
      <trkpt lat="51.949031995609403" lon="-9.658725019544363">
        <ele>111.17</ele>
        <time>2026-06-28T08:01:55Z</time>
      </trkpt>
      <trkpt lat="51.948885982856154" lon="-9.660764001309872">
        <ele>109.73</ele>
        <time>2026-06-28T08:02:07Z</time>
      </trkpt>
      <trkpt lat="51.948809958994389" lon="-9.66144603677094">
        <ele>110.20999999999999</ele>
        <time>2026-06-28T08:02:11Z</time>
      </trkpt>
      <trkpt lat="51.948879025876522" lon="-9.663716023787856">
        <ele>111.17</ele>
        <time>2026-06-28T08:02:22Z</time>
      </trkpt>
      <trkpt lat="51.949053034186363" lon="-9.666463024914265">
        <ele>113.09</ele>
        <time>2026-06-28T08:02:35Z</time>
      </trkpt>
      <trkpt lat="51.94904699921608" lon="-9.667634982615709">
        <ele>112.61</ele>
        <time>2026-06-28T08:02:42Z</time>
      </trkpt>
      <trkpt lat="51.949020009487867" lon="-9.667798010632396">
        <ele>112.13</ele>
        <time>2026-06-28T08:02:43Z</time>
      </trkpt>
      <trkpt lat="51.948992013931274" lon="-9.667966989800334">
        <ele>112.13</ele>
        <time>2026-06-28T08:02:44Z</time>
      </trkpt>
      <trkpt lat="51.948727983981371" lon="-9.669673964381218">
        <ele>115.01000000000001</ele>
        <time>2026-06-28T08:02:54Z</time>
      </trkpt>
      <trkpt lat="51.948736030608416" lon="-9.669777983799577">
        <ele>115.5</ele>
        <time>2026-06-28T08:02:55Z</time>
      </trkpt>
      <trkpt lat="51.948760002851486" lon="-9.669888038188219">
        <ele>115.98</ele>
        <time>2026-06-28T08:02:56Z</time>
      </trkpt>
      <trkpt lat="51.948785986751318" lon="-9.670001026242971">
        <ele>116.45999999999999</ele>
        <time>2026-06-28T08:02:57Z</time>
      </trkpt>
      <trkpt lat="51.94881297647953" lon="-9.670118959620595">
        <ele>116.94</ele>
        <time>2026-06-28T08:02:58Z</time>
      </trkpt>
      <trkpt lat="51.948838960379362" lon="-9.670234965160489">
        <ele>117.42</ele>
        <time>2026-06-28T08:02:59Z</time>
      </trkpt>
      <trkpt lat="51.948864022269845" lon="-9.670348037034273">
        <ele>117.90000000000001</ele>
        <time>2026-06-28T08:03:00Z</time>
      </trkpt>
      <trkpt lat="51.948877014219761" lon="-9.670462030917406">
        <ele>117.90000000000001</ele>
        <time>2026-06-28T08:03:01Z</time>
      </trkpt>
      <trkpt lat="51.948884977027774" lon="-9.671983011066914">
        <ele>117.90000000000001</ele>
        <time>2026-06-28T08:03:11Z</time>
      </trkpt>
      <trkpt lat="51.948851030319929" lon="-9.672488020732999">
        <ele>118.38</ele>
        <time>2026-06-28T08:03:14Z</time>
      </trkpt>
      <trkpt lat="51.948680961504579" lon="-9.673510026186705">
        <ele>120.78</ele>
        <time>2026-06-28T08:03:21Z</time>
      </trkpt>
      <trkpt lat="51.948680961504579" lon="-9.673666013404727">
        <ele>121.73999999999999</ele>
        <time>2026-06-28T08:03:22Z</time>
      </trkpt>
      <trkpt lat="51.948680961504579" lon="-9.674281999468803">
        <ele>123.67</ele>
        <time>2026-06-28T08:03:26Z</time>
      </trkpt>
      <trkpt lat="51.948680961504579" lon="-9.674428012222052">
        <ele>124.63</ele>
        <time>2026-06-28T08:03:27Z</time>
      </trkpt>
      <trkpt lat="51.948717003688216" lon="-9.674508981406689">
        <ele>125.11</ele>
        <time>2026-06-28T08:03:28Z</time>
      </trkpt>
      <trkpt lat="51.948758997023106" lon="-9.674607971683145">
        <ele>125.11</ele>
        <time>2026-06-28T08:03:29Z</time>
      </trkpt>
      <trkpt lat="51.948808031156659" lon="-9.674720037728548">
        <ele>125.59</ele>
        <time>2026-06-28T08:03:30Z</time>
      </trkpt>
      <trkpt lat="51.949385963380337" lon="-9.676061980426312">
        <ele>128.47</ele>
        <time>2026-06-28T08:03:40Z</time>
      </trkpt>
      <trkpt lat="51.949621997773647" lon="-9.676608983427286">
        <ele>129.91999999999999</ele>
        <time>2026-06-28T08:03:45Z</time>
      </trkpt>
      <trkpt lat="51.949729034677148" lon="-9.676728006452322">
        <ele>129.43000000000001</ele>
        <time>2026-06-28T08:03:47Z</time>
      </trkpt>
      <trkpt lat="51.949791982769966" lon="-9.676796989515424">
        <ele>128.94999999999999</ele>
        <time>2026-06-28T08:03:48Z</time>
      </trkpt>
      <trkpt lat="51.949859037995338" lon="-9.676869995892048">
        <ele>128.94999999999999</ele>
        <time>2026-06-28T08:03:49Z</time>
      </trkpt>
      <trkpt lat="51.949929026886821" lon="-9.676945013925433">
        <ele>128.47</ele>
        <time>2026-06-28T08:03:50Z</time>
      </trkpt>
      <trkpt lat="51.950006978586316" lon="-9.677030006423593">
        <ele>127.98999999999999</ele>
        <time>2026-06-28T08:03:51Z</time>
      </trkpt>
      <trkpt lat="51.9501649774611" lon="-9.677223963662982">
        <ele>127.51000000000001</ele>
        <time>2026-06-28T08:03:53Z</time>
      </trkpt>
      <trkpt lat="51.950230021029711" lon="-9.677353966981173">
        <ele>127.51000000000001</ele>
        <time>2026-06-28T08:03:54Z</time>
      </trkpt>
      <trkpt lat="51.9502910412848" lon="-9.67747500166297">
        <ele>127.98999999999999</ele>
        <time>2026-06-28T08:03:55Z</time>
      </trkpt>
      <trkpt lat="51.950345020741224" lon="-9.677643980830908">
        <ele>127.98999999999999</ele>
        <time>2026-06-28T08:03:56Z</time>
      </trkpt>
      <trkpt lat="51.950393971055746" lon="-9.67779896222055">
        <ele>127.98999999999999</ele>
        <time>2026-06-28T08:03:57Z</time>
      </trkpt>
      <trkpt lat="51.9504430051893" lon="-9.677954027429223">
        <ele>127.98999999999999</ele>
        <time>2026-06-28T08:03:58Z</time>
      </trkpt>
      <trkpt lat="51.950589017942548" lon="-9.678566996008158">
        <ele>128.47</ele>
        <time>2026-06-28T08:04:02Z</time>
      </trkpt>
      <trkpt lat="51.950586000457406" lon="-9.678727006539702">
        <ele>128.47</ele>
        <time>2026-06-28T08:04:03Z</time>
      </trkpt>
      <trkpt lat="51.95054903626442" lon="-9.67981799505651">
        <ele>129.43000000000001</ele>
        <time>2026-06-28T08:04:11Z</time>
      </trkpt>
      <trkpt lat="51.950534032657743" lon="-9.679894018918276">
        <ele>129.43000000000001</ele>
        <time>2026-06-28T08:04:13Z</time>
      </trkpt>
      <trkpt lat="51.95052900351584" lon="-9.679923020303249">
        <ele>129.43000000000001</ele>
        <time>2026-06-28T08:04:14Z</time>
      </trkpt>
      <trkpt lat="51.950522968545556" lon="-9.679953027516604">
        <ele>129.43000000000001</ele>
        <time>2026-06-28T08:04:15Z</time>
      </trkpt>
      <trkpt lat="51.950517017394304" lon="-9.679984962567687">
        <ele>128.94999999999999</ele>
        <time>2026-06-28T08:04:16Z</time>
      </trkpt>
      <trkpt lat="51.950517017394304" lon="-9.679984962567687">
        <ele>128.94999999999999</ele>
        <time>2026-06-28T08:04:28Z</time>
      </trkpt>
      <trkpt lat="51.950517017394304" lon="-9.679984962567687">
        <ele>128.47</ele>
        <time>2026-06-28T08:04:57Z</time>
      </trkpt>
      <trkpt lat="51.950517017394304" lon="-9.679984962567687">
        <ele>127.03</ele>
        <time>2026-06-28T08:05:14Z</time>
      </trkpt>
      <trkpt lat="51.950517017394304" lon="-9.679984962567687">
        <ele>127.03</ele>
        <time>2026-06-28T08:05:54Z</time>
      </trkpt>
      <trkpt lat="51.950517017394304" lon="-9.679984962567687">
        <ele>126.55</ele>
        <time>2026-06-28T08:06:33Z</time>
      </trkpt>
      <trkpt lat="51.950517017394304" lon="-9.679984962567687">
        <ele>126.55</ele>
        <time>2026-06-28T08:07:10Z</time>
      </trkpt>
      <trkpt lat="51.950517017394304" lon="-9.679984962567687">
        <ele>127.03</ele>
        <time>2026-06-28T08:07:51Z</time>
      </trkpt>
      <trkpt lat="51.950517017394304" lon="-9.679984962567687">
        <ele>126.55</ele>
        <time>2026-06-28T08:08:35Z</time>
      </trkpt>
      <trkpt lat="51.950517017394304" lon="-9.679984962567687">
        <ele>126.06999999999999</ele>
        <time>2026-06-28T08:09:17Z</time>
      </trkpt>
      <trkpt lat="51.950517017394304" lon="-9.679984962567687">
        <ele>126.06999999999999</ele>
        <time>2026-06-28T08:10:10Z</time>
      </trkpt>
      <trkpt lat="51.950517017394304" lon="-9.679984962567687">
        <ele>126.06999999999999</ele>
        <time>2026-06-28T08:11:00Z</time>
      </trkpt>
      <trkpt lat="51.950517017394304" lon="-9.679984962567687">
        <ele>126.06999999999999</ele>
        <time>2026-06-28T08:11:38Z</time>
      </trkpt>
      <trkpt lat="51.950517017394304" lon="-9.679984962567687">
        <ele>126.06999999999999</ele>
        <time>2026-06-28T08:12:19Z</time>
      </trkpt>
      <trkpt lat="51.950517017394304" lon="-9.679984962567687">
        <ele>126.06999999999999</ele>
        <time>2026-06-28T08:12:59Z</time>
      </trkpt>
      <trkpt lat="51.950517017394304" lon="-9.679984962567687">
        <ele>126.06999999999999</ele>
        <time>2026-06-28T08:13:07Z</time>
      </trkpt>
      <trkpt lat="51.95050897076726" lon="-9.680024022236466">
        <ele>126.06999999999999</ele>
        <time>2026-06-28T08:13:08Z</time>
      </trkpt>
      <trkpt lat="51.950500002130866" lon="-9.68007599003613">
        <ele>126.06999999999999</ele>
        <time>2026-06-28T08:13:09Z</time>
      </trkpt>
      <trkpt lat="51.950471000745893" lon="-9.680224014446139">
        <ele>126.06999999999999</ele>
        <time>2026-06-28T08:13:11Z</time>
      </trkpt>
      <trkpt lat="51.950258016586304" lon="-9.681347021833062">
        <ele>126.06999999999999</ele>
        <time>2026-06-28T08:13:19Z</time>
      </trkpt>
      <trkpt lat="51.950206970795989" lon="-9.681613985449076">
        <ele>126.06999999999999</ele>
        <time>2026-06-28T08:13:21Z</time>
      </trkpt>
      <trkpt lat="51.950048971921206" lon="-9.682398028671742">
        <ele>125.11</ele>
        <time>2026-06-28T08:13:26Z</time>
      </trkpt>
      <trkpt lat="51.949416976422071" lon="-9.68430700711906">
        <ele>127.51000000000001</ele>
        <time>2026-06-28T08:13:37Z</time>
      </trkpt>
      <trkpt lat="51.948600998148322" lon="-9.686515973880887">
        <ele>129.91999999999999</ele>
        <time>2026-06-28T08:13:51Z</time>
      </trkpt>
      <trkpt lat="51.948404023423791" lon="-9.687339998781681">
        <ele>130.88</ele>
        <time>2026-06-28T08:13:58Z</time>
      </trkpt>
      <trkpt lat="51.948365969583392" lon="-9.687462961301208">
        <ele>130.40000000000001</ele>
        <time>2026-06-28T08:13:59Z</time>
      </trkpt>
      <trkpt lat="51.948279971256852" lon="-9.687744006514549">
        <ele>129.43000000000001</ele>
        <time>2026-06-28T08:14:02Z</time>
      </trkpt>
      <trkpt lat="51.948259016498923" lon="-9.68781198374927">
        <ele>129.43000000000001</ele>
        <time>2026-06-28T08:14:03Z</time>
      </trkpt>
      <trkpt lat="51.94823102094233" lon="-9.687903011217713">
        <ele>129.43000000000001</ele>
        <time>2026-06-28T08:14:04Z</time>
      </trkpt>
      <trkpt lat="51.948221968486905" lon="-9.687921032309532">
        <ele>128.94999999999999</ele>
        <time>2026-06-28T08:14:05Z</time>
      </trkpt>
      <trkpt lat="51.948119038715959" lon="-9.687822964042425">
        <ele>128.47</ele>
        <time>2026-06-28T08:14:06Z</time>
      </trkpt>
      <trkpt lat="51.94805902428925" lon="-9.687780970707536">
        <ele>128.47</ele>
        <time>2026-06-28T08:14:07Z</time>
      </trkpt>
      <trkpt lat="51.947991969063878" lon="-9.687733026221395">
        <ele>128.47</ele>
        <time>2026-06-28T08:14:08Z</time>
      </trkpt>
      <trkpt lat="51.947581004351377" lon="-9.687438989058137">
        <ele>128.94999999999999</ele>
        <time>2026-06-28T08:14:13Z</time>
      </trkpt>
      <trkpt lat="51.946621024981141" lon="-9.686415977776051">
        <ele>127.51000000000001</ele>
        <time>2026-06-28T08:14:24Z</time>
      </trkpt>
      <trkpt lat="51.94593396037817" lon="-9.685654984787107">
        <ele>128.94999999999999</ele>
        <time>2026-06-28T08:14:33Z</time>
      </trkpt>
      <trkpt lat="51.94556700065732" lon="-9.685334041714668">
        <ele>129.91999999999999</ele>
        <time>2026-06-28T08:14:38Z</time>
      </trkpt>
      <trkpt lat="51.945496005937457" lon="-9.685310991480947">
        <ele>129.91999999999999</ele>
        <time>2026-06-28T08:14:39Z</time>
      </trkpt>
      <trkpt lat="51.945453006774187" lon="-9.685337981209159">
        <ele>130.40000000000001</ele>
        <time>2026-06-28T08:14:40Z</time>
      </trkpt>
      <trkpt lat="51.945401038974524" lon="-9.685390032827854">
        <ele>130.40000000000001</ele>
        <time>2026-06-28T08:14:41Z</time>
      </trkpt>
      <trkpt lat="51.945356028154492" lon="-9.685434959828854">
        <ele>130.40000000000001</ele>
        <time>2026-06-28T08:14:42Z</time>
      </trkpt>
      <trkpt lat="51.945325015112758" lon="-9.685492962598801">
        <ele>130.88</ele>
        <time>2026-06-28T08:14:43Z</time>
      </trkpt>
      <trkpt lat="51.945284027606249" lon="-9.685570998117328">
        <ele>130.88</ele>
        <time>2026-06-28T08:14:44Z</time>
      </trkpt>
      <trkpt lat="51.945234993472695" lon="-9.685662025585771">
        <ele>131.36000000000001</ele>
        <time>2026-06-28T08:14:45Z</time>
      </trkpt>
      <trkpt lat="51.94500801153481" lon="-9.686090005561709">
        <ele>133.28</ele>
        <time>2026-06-28T08:14:49Z</time>
      </trkpt>
      <trkpt lat="51.944974986836314" lon="-9.686219003051519">
        <ele>133.75999999999999</ele>
        <time>2026-06-28T08:14:50Z</time>
      </trkpt>
      <trkpt lat="51.944952020421624" lon="-9.686352023854852">
        <ele>134.72</ele>
        <time>2026-06-28T08:14:51Z</time>
      </trkpt>
      <trkpt lat="51.94494497962296" lon="-9.686470041051507">
        <ele>135.19999999999999</ele>
        <time>2026-06-28T08:14:52Z</time>
      </trkpt>
      <trkpt lat="51.944941040128469" lon="-9.686583029106259">
        <ele>135.19999999999999</ele>
        <time>2026-06-28T08:14:53Z</time>
      </trkpt>
      <trkpt lat="51.944937016814947" lon="-9.686698028817773">
        <ele>135.68000000000001</ele>
        <time>2026-06-28T08:14:54Z</time>
      </trkpt>
      <trkpt lat="51.944931987673044" lon="-9.686817973852158">
        <ele>136.16</ele>
        <time>2026-06-28T08:14:55Z</time>
      </trkpt>
      <trkpt lat="51.944927964359522" lon="-9.686933979392052">
        <ele>137.13</ele>
        <time>2026-06-28T08:14:56Z</time>
      </trkpt>
      <trkpt lat="51.944898962974548" lon="-9.687043027952313">
        <ele>137.61000000000001</ele>
        <time>2026-06-28T08:14:57Z</time>
      </trkpt>
      <trkpt lat="51.94485797546804" lon="-9.687140006572008">
        <ele>138.56999999999999</ele>
        <time>2026-06-28T08:14:58Z</time>
      </trkpt>
      <trkpt lat="51.944812964648008" lon="-9.687245031818748">
        <ele>139.05000000000001</ele>
        <time>2026-06-28T08:14:59Z</time>
      </trkpt>
      <trkpt lat="51.944572990760207" lon="-9.687736965715885">
        <ele>142.41</ele>
        <time>2026-06-28T08:15:04Z</time>
      </trkpt>
      <trkpt lat="51.944501996040344" lon="-9.687871998175979">
        <ele>143.37</ele>
        <time>2026-06-28T08:15:06Z</time>
      </trkpt>
      <trkpt lat="51.944451034069061" lon="-9.687881972640753">
        <ele>143.37</ele>
        <time>2026-06-28T08:15:07Z</time>
      </trkpt>
      <trkpt lat="51.94440602324903" lon="-9.687881972640753">
        <ele>143.84999999999999</ele>
        <time>2026-06-28T08:15:08Z</time>
      </trkpt>
      <trkpt lat="51.944359000772238" lon="-9.687881972640753">
        <ele>143.84999999999999</ele>
        <time>2026-06-28T08:15:09Z</time>
      </trkpt>
      <trkpt lat="51.944303009659052" lon="-9.687878033146262">
        <ele>144.34</ele>
        <time>2026-06-28T08:15:10Z</time>
      </trkpt>
      <trkpt lat="51.94427702575922" lon="-9.687804020941258">
        <ele>144.81999999999999</ele>
        <time>2026-06-28T08:15:11Z</time>
      </trkpt>
      <trkpt lat="51.944248024374247" lon="-9.687722967937589">
        <ele>145.30000000000001</ele>
        <time>2026-06-28T08:15:12Z</time>
      </trkpt>
      <trkpt lat="51.944214999675751" lon="-9.687631018459797">
        <ele>145.78</ele>
        <time>2026-06-28T08:15:13Z</time>
      </trkpt>
      <trkpt lat="51.944187004119158" lon="-9.687513001263142">
        <ele>146.25999999999999</ele>
        <time>2026-06-28T08:15:14Z</time>
      </trkpt>
      <trkpt lat="51.944053983315825" lon="-9.686618987470865">
        <ele>150.09999999999999</ele>
        <time>2026-06-28T08:15:20Z</time>
      </trkpt>
      <trkpt lat="51.944003021344543" lon="-9.686455959454179">
        <ele>150.58000000000001</ele>
        <time>2026-06-28T08:15:21Z</time>
      </trkpt>
      <trkpt lat="51.943746032193303" lon="-9.685779036954045">
        <ele>154.43000000000001</ele>
        <time>2026-06-28T08:15:26Z</time>
      </trkpt>
      <trkpt lat="51.943721976131201" lon="-9.685655990615487">
        <ele>155.38999999999999</ele>
        <time>2026-06-28T08:15:27Z</time>
      </trkpt>
      <trkpt lat="51.94369699805975" lon="-9.685526993125677">
        <ele>156.34999999999999</ele>
        <time>2026-06-28T08:15:28Z</time>
      </trkpt>
      <trkpt lat="51.943671014159918" lon="-9.685392966493964">
        <ele>156.83000000000001</ele>
        <time>2026-06-28T08:15:29Z</time>
      </trkpt>
      <trkpt lat="51.943643018603325" lon="-9.685249971225858">
        <ele>157.78999999999999</ele>
        <time>2026-06-28T08:15:30Z</time>
      </trkpt>
      <trkpt lat="51.943615023046732" lon="-9.685106975957751">
        <ele>158.27000000000001</ele>
        <time>2026-06-28T08:15:31Z</time>
      </trkpt>
      <trkpt lat="51.943589961156249" lon="-9.68497596681118">
        <ele>159.24000000000001</ele>
        <time>2026-06-28T08:15:32Z</time>
      </trkpt>
      <trkpt lat="51.943575041368604" lon="-9.684850992634893">
        <ele>159.72</ele>
        <time>2026-06-28T08:15:33Z</time>
      </trkpt>
      <trkpt lat="51.943575041368604" lon="-9.684718977659941">
        <ele>160.68000000000001</ele>
        <time>2026-06-28T08:15:34Z</time>
      </trkpt>
      <trkpt lat="51.943575041368604" lon="-9.684577994048595">
        <ele>161.63999999999999</ele>
        <time>2026-06-28T08:15:35Z</time>
      </trkpt>
      <trkpt lat="51.94359096698463" lon="-9.684439022094011">
        <ele>162.59999999999999</ele>
        <time>2026-06-28T08:15:36Z</time>
      </trkpt>
      <trkpt lat="51.943616028875113" lon="-9.684299966320396">
        <ele>163.08000000000001</ele>
        <time>2026-06-28T08:15:37Z</time>
      </trkpt>
      <trkpt lat="51.943638995289803" lon="-9.684169040992856">
        <ele>164.03999999999999</ele>
        <time>2026-06-28T08:15:38Z</time>
      </trkpt>
      <trkpt lat="51.943638995289803" lon="-9.684022022411227">
        <ele>165</ele>
        <time>2026-06-28T08:15:39Z</time>
      </trkpt>
      <trkpt lat="51.943638995289803" lon="-9.68387701548636">
        <ele>165.47999999999999</ele>
        <time>2026-06-28T08:15:40Z</time>
      </trkpt>
      <trkpt lat="51.943615023046732" lon="-9.68372899107635">
        <ele>165.96000000000001</ele>
        <time>2026-06-28T08:15:41Z</time>
      </trkpt>
      <trkpt lat="51.94358803331852" lon="-9.683575015515089">
        <ele>166.44999999999999</ele>
        <time>2026-06-28T08:15:42Z</time>
      </trkpt>
      <trkpt lat="51.943560959771276" lon="-9.683419028297067">
        <ele>167.41</ele>
        <time>2026-06-28T08:15:43Z</time>
      </trkpt>
      <trkpt lat="51.943449983373284" lon="-9.682779991999269">
        <ele>169.81</ele>
        <time>2026-06-28T08:15:47Z</time>
      </trkpt>
      <trkpt lat="51.943404972553253" lon="-9.682659963145852">
        <ele>170.28999999999999</ele>
        <time>2026-06-28T08:15:48Z</time>
      </trkpt>
      <trkpt lat="51.94335300475359" lon="-9.682555021718144">
        <ele>170.77000000000001</ele>
        <time>2026-06-28T08:15:49Z</time>
      </trkpt>
      <trkpt lat="51.943288967013359" lon="-9.682505987584591">
        <ele>171.72999999999999</ele>
        <time>2026-06-28T08:15:50Z</time>
      </trkpt>
      <trkpt lat="51.943221995607018" lon="-9.682454019784927">
        <ele>172.21000000000001</ele>
        <time>2026-06-28T08:15:51Z</time>
      </trkpt>
      <trkpt lat="51.943154018372297" lon="-9.682401968166232">
        <ele>173.16999999999999</ele>
        <time>2026-06-28T08:15:52Z</time>
      </trkpt>
      <trkpt lat="51.943081011995673" lon="-9.682345977053046">
        <ele>173.66</ele>
        <time>2026-06-28T08:15:53Z</time>
      </trkpt>
      <trkpt lat="51.943054022267461" lon="-9.682250004261732">
        <ele>174.13999999999999</ele>
        <time>2026-06-28T08:15:54Z</time>
      </trkpt>
      <trkpt lat="51.943022003397346" lon="-9.682141961529851">
        <ele>174.62</ele>
        <time>2026-06-28T08:15:55Z</time>
      </trkpt>
      <trkpt lat="51.942986967042089" lon="-9.682018999010325">
        <ele>175.09999999999999</ele>
        <time>2026-06-28T08:15:56Z</time>
      </trkpt>
      <trkpt lat="51.942744981497526" lon="-9.681176031008363">
        <ele>178.94</ele>
        <time>2026-06-28T08:16:02Z</time>
      </trkpt>
      <trkpt lat="51.942699970677495" lon="-9.681020965799689">
        <ele>179.41999999999999</ele>
        <time>2026-06-28T08:16:03Z</time>
      </trkpt>
      <trkpt lat="51.942563010379672" lon="-9.680586028844118">
        <ele>180.38</ele>
        <time>2026-06-28T08:16:06Z</time>
      </trkpt>
      <trkpt lat="51.942502995952964" lon="-9.680478991940618">
        <ele>181.34999999999999</ele>
        <time>2026-06-28T08:16:07Z</time>
      </trkpt>
      <trkpt lat="51.942443987354636" lon="-9.680373966693878">
        <ele>181.83000000000001</ele>
        <time>2026-06-28T08:16:08Z</time>
      </trkpt>
      <trkpt lat="51.942384978756309" lon="-9.680270031094551">
        <ele>182.78999999999999</ele>
        <time>2026-06-28T08:16:09Z</time>
      </trkpt>
      <trkpt lat="51.942327981814742" lon="-9.680169029161334">
        <ele>183.75</ele>
        <time>2026-06-28T08:16:10Z</time>
      </trkpt>
      <trkpt lat="51.94228095933795" lon="-9.680052017793059">
        <ele>184.22999999999999</ele>
        <time>2026-06-28T08:16:11Z</time>
      </trkpt>
      <trkpt lat="51.942239971831441" lon="-9.679927965626121">
        <ele>185.19</ele>
        <time>2026-06-28T08:16:12Z</time>
      </trkpt>
      <trkpt lat="51.942197978496552" lon="-9.679803997278214">
        <ele>186.15000000000001</ele>
        <time>2026-06-28T08:16:13Z</time>
      </trkpt>
      <trkpt lat="51.942157996818423" lon="-9.679684974253178">
        <ele>186.63</ele>
        <time>2026-06-28T08:16:14Z</time>
      </trkpt>
      <trkpt lat="51.942097982391715" lon="-9.679615991190076">
        <ele>187.59</ele>
        <time>2026-06-28T08:16:15Z</time>
      </trkpt>
      <trkpt lat="51.942031010985374" lon="-9.679538961499929">
        <ele>188.56</ele>
        <time>2026-06-28T08:16:16Z</time>
      </trkpt>
      <trkpt lat="51.941898996010423" lon="-9.679231010377407">
        <ele>190.47999999999999</ele>
        <time>2026-06-28T08:16:19Z</time>
      </trkpt>
      <trkpt lat="51.941750971600413" lon="-9.678848041221499">
        <ele>192.88</ele>
        <time>2026-06-28T08:16:24Z</time>
      </trkpt>
      <trkpt lat="51.941697997972369" lon="-9.678803030401468">
        <ele>192.88</ele>
        <time>2026-06-28T08:16:25Z</time>
      </trkpt>
      <trkpt lat="51.941651981323957" lon="-9.678763970732689">
        <ele>193.36000000000001</ele>
        <time>2026-06-28T08:16:26Z</time>
      </trkpt>
      <trkpt lat="51.941594984382391" lon="-9.678716026246548">
        <ele>193.84</ele>
        <time>2026-06-28T08:16:27Z</time>
      </trkpt>
      <trkpt lat="51.941534969955683" lon="-9.678665986284614">
        <ele>193.84</ele>
        <time>2026-06-28T08:16:28Z</time>
      </trkpt>
      <trkpt lat="51.941472021862864" lon="-9.678612006828189">
        <ele>194.31999999999999</ele>
        <time>2026-06-28T08:16:29Z</time>
      </trkpt>
      <trkpt lat="51.941437991335988" lon="-9.678544029593468">
        <ele>194.80000000000001</ele>
        <time>2026-06-28T08:16:30Z</time>
      </trkpt>
      <trkpt lat="51.941432962194085" lon="-9.678424000740051">
        <ele>195.28</ele>
        <time>2026-06-28T08:16:31Z</time>
      </trkpt>
      <trkpt lat="51.941438997164369" lon="-9.678293997421861">
        <ele>195.77000000000001</ele>
        <time>2026-06-28T08:16:32Z</time>
      </trkpt>
      <trkpt lat="51.941445032134652" lon="-9.678148990496993">
        <ele>196.72999999999999</ele>
        <time>2026-06-28T08:16:33Z</time>
      </trkpt>
      <trkpt lat="51.941451989114285" lon="-9.678008006885648">
        <ele>197.69</ele>
        <time>2026-06-28T08:16:34Z</time>
      </trkpt>
      <trkpt lat="51.941458024084568" lon="-9.677874986082315">
        <ele>198.16999999999999</ele>
        <time>2026-06-28T08:16:35Z</time>
      </trkpt>
      <trkpt lat="51.941462969407439" lon="-9.677751017734408">
        <ele>199.13</ele>
        <time>2026-06-28T08:16:36Z</time>
      </trkpt>
      <trkpt lat="51.941469004377723" lon="-9.67762797139585">
        <ele>200.09</ele>
        <time>2026-06-28T08:16:37Z</time>
      </trkpt>
      <trkpt lat="51.941460035741329" lon="-9.677507020533085">
        <ele>200.56999999999999</ele>
        <time>2026-06-28T08:16:38Z</time>
      </trkpt>
      <trkpt lat="51.941440002992749" lon="-9.677415993064642">
        <ele>201.05000000000001</ele>
        <time>2026-06-28T08:16:39Z</time>
      </trkpt>
      <trkpt lat="51.941409995779395" lon="-9.677341980859637">
        <ele>201.53</ele>
        <time>2026-06-28T08:16:40Z</time>
      </trkpt>
      <trkpt lat="51.941371019929647" lon="-9.677290013059974">
        <ele>202.49000000000001</ele>
        <time>2026-06-28T08:16:41Z</time>
      </trkpt>
      <trkpt lat="51.941302958875895" lon="-9.677295964211226">
        <ele>202.97999999999999</ele>
        <time>2026-06-28T08:16:42Z</time>
      </trkpt>
      <trkpt lat="51.941230036318302" lon="-9.677312979474664">
        <ele>203.94</ele>
        <time>2026-06-28T08:16:43Z</time>
      </trkpt>
      <trkpt lat="51.941147977486253" lon="-9.677332006394863">
        <ele>204.90000000000001</ele>
        <time>2026-06-28T08:16:44Z</time>
      </trkpt>
      <trkpt lat="51.941063990816474" lon="-9.677352039143443">
        <ele>205.38</ele>
        <time>2026-06-28T08:16:45Z</time>
      </trkpt>
      <trkpt lat="51.940984027460217" lon="-9.677356984466314">
        <ele>206.34</ele>
        <time>2026-06-28T08:16:46Z</time>
      </trkpt>
      <trkpt lat="51.940920995548368" lon="-9.677314991131425">
        <ele>206.81999999999999</ele>
        <time>2026-06-28T08:16:47Z</time>
      </trkpt>
      <trkpt lat="51.940858969464898" lon="-9.677249025553465">
        <ele>207.30000000000001</ele>
        <time>2026-06-28T08:16:48Z</time>
      </trkpt>
      <trkpt lat="51.94081898778677" lon="-9.677141988649964">
        <ele>207.78</ele>
        <time>2026-06-28T08:16:49Z</time>
      </trkpt>
      <trkpt lat="51.94077699445188" lon="-9.677029000595212">
        <ele>208.25999999999999</ele>
        <time>2026-06-28T08:16:50Z</time>
      </trkpt>
      <trkpt lat="51.94073298946023" lon="-9.676909977570176">
        <ele>209.22</ele>
        <time>2026-06-28T08:16:51Z</time>
      </trkpt>
      <trkpt lat="51.940636010840535" lon="-9.676649970933795">
        <ele>210.19</ele>
        <time>2026-06-28T08:16:53Z</time>
      </trkpt>
      <trkpt lat="51.94058496505022" lon="-9.676523990929127">
        <ele>210.66999999999999</ele>
        <time>2026-06-28T08:16:54Z</time>
      </trkpt>
      <trkpt lat="51.940505001693964" lon="-9.67644302174449">
        <ele>211.15000000000001</ele>
        <time>2026-06-28T08:16:55Z</time>
      </trkpt>
      <trkpt lat="51.940417997539043" lon="-9.67635702341795">
        <ele>211.63</ele>
        <time>2026-06-28T08:16:56Z</time>
      </trkpt>
      <trkpt lat="51.940326970070601" lon="-9.676265995949507">
        <ele>212.59</ele>
        <time>2026-06-28T08:16:57Z</time>
      </trkpt>
      <trkpt lat="51.940234014764428" lon="-9.676173040643334">
        <ele>213.06999999999999</ele>
        <time>2026-06-28T08:16:58Z</time>
      </trkpt>
      <trkpt lat="51.940141981467605" lon="-9.67608000151813">
        <ele>213.06999999999999</ele>
        <time>2026-06-28T08:16:59Z</time>
      </trkpt>
      <trkpt lat="51.940077021718025" lon="-9.675940023735166">
        <ele>213.55000000000001</ele>
        <time>2026-06-28T08:17:00Z</time>
      </trkpt>
      <trkpt lat="51.940016001462936" lon="-9.675805997103453">
        <ele>214.03</ele>
        <time>2026-06-28T08:17:01Z</time>
      </trkpt>
      <trkpt lat="51.939960010349751" lon="-9.675684040412307">
        <ele>214.50999999999999</ele>
        <time>2026-06-28T08:17:02Z</time>
      </trkpt>
      <trkpt lat="51.939912987872958" lon="-9.67558303847909">
        <ele>214.99000000000001</ele>
        <time>2026-06-28T08:17:03Z</time>
      </trkpt>
      <trkpt lat="51.939859008416533" lon="-9.675526963546872">
        <ele>215.47</ele>
        <time>2026-06-28T08:17:04Z</time>
      </trkpt>
      <trkpt lat="51.939795976504683" lon="-9.675473989918828">
        <ele>215.94999999999999</ele>
        <time>2026-06-28T08:17:05Z</time>
      </trkpt>
      <trkpt lat="51.93972397595644" lon="-9.67545798048377">
        <ele>216.43000000000001</ele>
        <time>2026-06-28T08:17:06Z</time>
      </trkpt>
      <trkpt lat="51.939642000943422" lon="-9.67545798048377">
        <ele>216.91</ele>
        <time>2026-06-28T08:17:07Z</time>
      </trkpt>
      <trkpt lat="51.939550973474979" lon="-9.67545798048377">
        <ele>216.91</ele>
        <time>2026-06-28T08:17:08Z</time>
      </trkpt>
      <trkpt lat="51.939369002357125" lon="-9.67545798048377">
        <ele>217.40000000000001</ele>
        <time>2026-06-28T08:17:10Z</time>
      </trkpt>
      <trkpt lat="51.939276969060302" lon="-9.675390003249049">
        <ele>217.88</ele>
        <time>2026-06-28T08:17:11Z</time>
      </trkpt>
      <trkpt lat="51.939187031239271" lon="-9.675323031842709">
        <ele>217.40000000000001</ele>
        <time>2026-06-28T08:17:12Z</time>
      </trkpt>
      <trkpt lat="51.938960971310735" lon="-9.67515698634088">
        <ele>217.88</ele>
        <time>2026-06-28T08:17:15Z</time>
      </trkpt>
      <trkpt lat="51.938889976590872" lon="-9.675147011876106">
        <ele>218.36000000000001</ele>
        <time>2026-06-28T08:17:16Z</time>
      </trkpt>
      <trkpt lat="51.938811019062996" lon="-9.675136031582952">
        <ele>218.36000000000001</ele>
        <time>2026-06-28T08:17:17Z</time>
      </trkpt>
      <trkpt lat="51.938761984929442" lon="-9.675207026302815">
        <ele>218.36000000000001</ele>
        <time>2026-06-28T08:17:18Z</time>
      </trkpt>
      <trkpt lat="51.938698031008244" lon="-9.675297969952226">
        <ele>218.84</ele>
        <time>2026-06-28T08:17:19Z</time>
      </trkpt>
      <trkpt lat="51.938627036288381" lon="-9.675399977713823">
        <ele>219.31999999999999</ele>
        <time>2026-06-28T08:17:20Z</time>
      </trkpt>
      <trkpt lat="51.938545983284712" lon="-9.675515983253717">
        <ele>219.80000000000001</ele>
        <time>2026-06-28T08:17:21Z</time>
      </trkpt>
      <trkpt lat="51.938469959422946" lon="-9.675625031813979">
        <ele>219.80000000000001</ele>
        <time>2026-06-28T08:17:22Z</time>
      </trkpt>
      <trkpt lat="51.938382033258677" lon="-9.67567197047174">
        <ele>220.28</ele>
        <time>2026-06-28T08:17:23Z</time>
      </trkpt>
      <trkpt lat="51.938300980255008" lon="-9.6757120359689">
        <ele>220.28</ele>
        <time>2026-06-28T08:17:24Z</time>
      </trkpt>
      <trkpt lat="51.938221016898751" lon="-9.675726033747196">
        <ele>220.75999999999999</ele>
        <time>2026-06-28T08:17:25Z</time>
      </trkpt>
      <trkpt lat="51.938141975551844" lon="-9.675699966028333">
        <ele>220.75999999999999</ele>
        <time>2026-06-28T08:17:26Z</time>
      </trkpt>
      <trkpt lat="51.93806704133749" lon="-9.675616985186935">
        <ele>220.75999999999999</ele>
        <time>2026-06-28T08:17:27Z</time>
      </trkpt>
      <trkpt lat="51.938019013032317" lon="-9.67549704015255">
        <ele>220.75999999999999</ele>
        <time>2026-06-28T08:17:28Z</time>
      </trkpt>
      <trkpt lat="51.937971990555525" lon="-9.675369970500469">
        <ele>220.75999999999999</ele>
        <time>2026-06-28T08:17:29Z</time>
      </trkpt>
      <trkpt lat="51.937909964472055" lon="-9.67519998550415">
        <ele>220.75999999999999</ele>
        <time>2026-06-28T08:17:30Z</time>
      </trkpt>
      <trkpt lat="51.937883980572224" lon="-9.675080040469766">
        <ele>220.75999999999999</ele>
        <time>2026-06-28T08:17:31Z</time>
      </trkpt>
      <trkpt lat="51.937852967530489" lon="-9.674936039373279">
        <ele>221.24000000000001</ele>
        <time>2026-06-28T08:17:32Z</time>
      </trkpt>
      <trkpt lat="51.937802005559206" lon="-9.674821961671114">
        <ele>221.72</ele>
        <time>2026-06-28T08:17:33Z</time>
      </trkpt>
      <trkpt lat="51.937748026102781" lon="-9.674723977223039">
        <ele>222.19999999999999</ele>
        <time>2026-06-28T08:17:34Z</time>
      </trkpt>
      <trkpt lat="51.937677031382918" lon="-9.674659017473459">
        <ele>222.68000000000001</ele>
        <time>2026-06-28T08:17:35Z</time>
      </trkpt>
      <trkpt lat="51.937598995864391" lon="-9.67459799721837">
        <ele>223.16</ele>
        <time>2026-06-28T08:17:36Z</time>
      </trkpt>
      <trkpt lat="51.937517020851374" lon="-9.67453395947814">
        <ele>224.12</ele>
        <time>2026-06-28T08:17:37Z</time>
      </trkpt>
      <trkpt lat="51.936592999845743" lon="-9.673830969259143">
        <ele>234.69999999999999</ele>
        <time>2026-06-28T08:17:47Z</time>
      </trkpt>
      <trkpt lat="51.936365012079477" lon="-9.673698032274842">
        <ele>237.58000000000001</ele>
        <time>2026-06-28T08:17:50Z</time>
      </trkpt>
      <trkpt lat="51.936327964067459" lon="-9.673618990927935">
        <ele>238.53999999999999</ele>
        <time>2026-06-28T08:17:51Z</time>
      </trkpt>
      <trkpt lat="51.93628597073257" lon="-9.673529975116253">
        <ele>239.50999999999999</ele>
        <time>2026-06-28T08:17:52Z</time>
      </trkpt>
      <trkpt lat="51.936240959912539" lon="-9.673431990668178">
        <ele>239.99000000000001</ele>
        <time>2026-06-28T08:17:53Z</time>
      </trkpt>
      <trkpt lat="51.93619703873992" lon="-9.673338029533625">
        <ele>240.94999999999999</ele>
        <time>2026-06-28T08:17:54Z</time>
      </trkpt>
      <trkpt lat="51.93615403957665" lon="-9.673247002065182">
        <ele>241.43000000000001</ele>
        <time>2026-06-28T08:17:55Z</time>
      </trkpt>
      <trkpt lat="51.936115985736251" lon="-9.673165027052164">
        <ele>241.91</ele>
        <time>2026-06-28T08:17:56Z</time>
      </trkpt>
      <trkpt lat="51.936082039028406" lon="-9.673091014847159">
        <ele>242.38999999999999</ele>
        <time>2026-06-28T08:17:57Z</time>
      </trkpt>
      <trkpt lat="51.936067035421729" lon="-9.673027982935309">
        <ele>242.87</ele>
        <time>2026-06-28T08:17:58Z</time>
      </trkpt>
      <trkpt lat="51.936076004058123" lon="-9.672927986830473">
        <ele>242.87</ele>
        <time>2026-06-28T08:17:59Z</time>
      </trkpt>
      <trkpt lat="51.936086984351277" lon="-9.672816004604101">
        <ele>243.34999999999999</ele>
        <time>2026-06-28T08:18:00Z</time>
      </trkpt>
      <trkpt lat="51.936140963807702" lon="-9.672739980742335">
        <ele>243.83000000000001</ele>
        <time>2026-06-28T08:18:01Z</time>
      </trkpt>
      <trkpt lat="51.936201984062791" lon="-9.672653982415795">
        <ele>244.78999999999999</ele>
        <time>2026-06-28T08:18:02Z</time>
      </trkpt>
      <trkpt lat="51.936266021803021" lon="-9.672563960775733">
        <ele>245.27000000000001</ele>
        <time>2026-06-28T08:18:03Z</time>
      </trkpt>
      <trkpt lat="51.936411028727889" lon="-9.672304959967732">
        <ele>246.72</ele>
        <time>2026-06-28T08:18:06Z</time>
      </trkpt>
      <trkpt lat="51.936445981264114" lon="-9.672229019924998">
        <ele>247.68000000000001</ele>
        <time>2026-06-28T08:18:07Z</time>
      </trkpt>
      <trkpt lat="51.936437012627721" lon="-9.672128017991781">
        <ele>248.63999999999999</ele>
        <time>2026-06-28T08:18:08Z</time>
      </trkpt>
      <trkpt lat="51.936418991535902" lon="-9.672010000795126">
        <ele>250.08000000000001</ele>
        <time>2026-06-28T08:18:09Z</time>
      </trkpt>
      <trkpt lat="51.936398036777973" lon="-9.671876979991794">
        <ele>251.03999999999999</ele>
        <time>2026-06-28T08:18:10Z</time>
      </trkpt>
      <trkpt lat="51.936378004029393" lon="-9.671745970845223">
        <ele>252</ele>
        <time>2026-06-28T08:18:11Z</time>
      </trkpt>
      <trkpt lat="51.936346990987659" lon="-9.671616973355413">
        <ele>252.96000000000001</ele>
        <time>2026-06-28T08:18:12Z</time>
      </trkpt>
      <trkpt lat="51.936298040673137" lon="-9.671499039977789">
        <ele>253.93000000000001</ele>
        <time>2026-06-28T08:18:13Z</time>
      </trkpt>
      <trkpt lat="51.936152027919888" lon="-9.671144988387823">
        <ele>255.37</ele>
        <time>2026-06-28T08:18:16Z</time>
      </trkpt>
      <trkpt lat="51.936107017099857" lon="-9.671034011989832">
        <ele>255.84999999999999</ele>
        <time>2026-06-28T08:18:17Z</time>
      </trkpt>
      <trkpt lat="51.936107017099857" lon="-9.6709009911865">
        <ele>256.32999999999998</ele>
        <time>2026-06-28T08:18:18Z</time>
      </trkpt>
      <trkpt lat="51.936107017099857" lon="-9.670765036717057">
        <ele>256.81</ele>
        <time>2026-06-28T08:18:19Z</time>
      </trkpt>
      <trkpt lat="51.936143981292844" lon="-9.670630004256964">
        <ele>257.29000000000002</ele>
        <time>2026-06-28T08:18:20Z</time>
      </trkpt>
      <trkpt lat="51.936184968799353" lon="-9.670484997332096">
        <ele>257.76999999999998</ele>
        <time>2026-06-28T08:18:21Z</time>
      </trkpt>
      <trkpt lat="51.936283959075809" lon="-9.670198000967503">
        <ele>259.20999999999998</ele>
        <time>2026-06-28T08:18:23Z</time>
      </trkpt>
      <trkpt lat="51.936339028179646" lon="-9.670072020962834">
        <ele>259.69</ele>
        <time>2026-06-28T08:18:24Z</time>
      </trkpt>
      <trkpt lat="51.936405999585986" lon="-9.669950986281037">
        <ele>261.13999999999999</ele>
        <time>2026-06-28T08:18:25Z</time>
      </trkpt>
      <trkpt lat="51.936489986255765" lon="-9.66989298351109">
        <ele>262.10000000000002</ele>
        <time>2026-06-28T08:18:26Z</time>
      </trkpt>
      <trkpt lat="51.936576990410686" lon="-9.669831963256002">
        <ele>263.54000000000002</ele>
        <time>2026-06-28T08:18:27Z</time>
      </trkpt>
      <trkpt lat="51.936665000393987" lon="-9.669771026819944">
        <ele>264.5</ele>
        <time>2026-06-28T08:18:28Z</time>
      </trkpt>
      <trkpt lat="51.936750998720527" lon="-9.669690979644656">
        <ele>265.45999999999998</ele>
        <time>2026-06-28T08:18:29Z</time>
      </trkpt>
      <trkpt lat="51.936840014532208" lon="-9.669606992974877">
        <ele>266.89999999999998</ele>
        <time>2026-06-28T08:18:30Z</time>
      </trkpt>
      <trkpt lat="51.93692903034389" lon="-9.669523006305099">
        <ele>267.86000000000001</ele>
        <time>2026-06-28T08:18:31Z</time>
      </trkpt>
      <trkpt lat="51.937425993382931" lon="-9.669040041044354">
        <ele>275.56</ele>
        <time>2026-06-28T08:18:38Z</time>
      </trkpt>
      <trkpt lat="51.937453988939524" lon="-9.668973991647363">
        <ele>276.04000000000002</ele>
        <time>2026-06-28T08:18:39Z</time>
      </trkpt>
      <trkpt lat="51.937477039173245" lon="-9.668922023847699">
        <ele>277</ele>
        <time>2026-06-28T08:18:40Z</time>
      </trkpt>
      <trkpt lat="51.937480978667736" lon="-9.668763019144535">
        <ele>277.48000000000002</ele>
        <time>2026-06-28T08:18:47Z</time>
      </trkpt>
      <trkpt lat="51.937496988102794" lon="-9.668728988617659">
        <ele>277.95999999999998</ele>
        <time>2026-06-28T08:18:48Z</time>
      </trkpt>
      <trkpt lat="51.937534958124161" lon="-9.668653970584273">
        <ele>277.95999999999998</ele>
        <time>2026-06-28T08:18:49Z</time>
      </trkpt>
      <trkpt lat="51.937643000856042" lon="-9.668438974767923">
        <ele>278.44</ele>
        <time>2026-06-28T08:18:51Z</time>
      </trkpt>
      <trkpt lat="51.937693962827325" lon="-9.668289022520185">
        <ele>278.44</ele>
        <time>2026-06-28T08:18:52Z</time>
      </trkpt>
      <trkpt lat="51.937734028324485" lon="-9.668113002553582">
        <ele>277.95999999999998</ele>
        <time>2026-06-28T08:18:53Z</time>
      </trkpt>
      <trkpt lat="51.937922034412622" lon="-9.667313033714891">
        <ele>276.51999999999998</ele>
        <time>2026-06-28T08:18:57Z</time>
      </trkpt>
      <trkpt lat="51.937995962798595" lon="-9.667108012363315">
        <ele>276.04000000000002</ele>
        <time>2026-06-28T08:18:58Z</time>
      </trkpt>
      <trkpt lat="51.938303997740149" lon="-9.666044013574719">
        <ele>273.14999999999998</ele>
        <time>2026-06-28T08:19:03Z</time>
      </trkpt>
      <trkpt lat="51.938814958557487" lon="-9.664335027337074">
        <ele>270.75</ele>
        <time>2026-06-28T08:19:11Z</time>
      </trkpt>
      <trkpt lat="51.939401021227241" lon="-9.662712961435318">
        <ele>266.89999999999998</ele>
        <time>2026-06-28T08:19:20Z</time>
      </trkpt>
      <trkpt lat="51.939663039520383" lon="-9.662116002291441">
        <ele>266.89999999999998</ele>
        <time>2026-06-28T08:19:24Z</time>
      </trkpt>
      <trkpt lat="51.939708972349763" lon="-9.662009971216321">
        <ele>266.89999999999998</ele>
        <time>2026-06-28T08:19:25Z</time>
      </trkpt>
      <trkpt lat="51.939698997884989" lon="-9.661870999261737">
        <ele>266.42000000000002</ele>
        <time>2026-06-28T08:19:26Z</time>
      </trkpt>
      <trkpt lat="51.939683994278312" lon="-9.661711994558573">
        <ele>265.94</ele>
        <time>2026-06-28T08:19:27Z</time>
      </trkpt>
      <trkpt lat="51.939665973186493" lon="-9.66153496876359">
        <ele>265.45999999999998</ele>
        <time>2026-06-28T08:19:28Z</time>
      </trkpt>
      <trkpt lat="51.939345030114055" lon="-9.659746019169688">
        <ele>262.10000000000002</ele>
        <time>2026-06-28T08:19:37Z</time>
      </trkpt>
      <trkpt lat="51.938795009627938" lon="-9.658287987112999">
        <ele>261.62</ele>
        <time>2026-06-28T08:19:46Z</time>
      </trkpt>
      <trkpt lat="51.93862603046" lon="-9.65783997438848">
        <ele>262.10000000000002</ele>
        <time>2026-06-28T08:19:51Z</time>
      </trkpt>
      <trkpt lat="51.938599040731788" lon="-9.657768979668617">
        <ele>261.62</ele>
        <time>2026-06-28T08:19:52Z</time>
      </trkpt>
      <trkpt lat="51.938570039346814" lon="-9.657692033797503">
        <ele>261.62</ele>
        <time>2026-06-28T08:19:53Z</time>
      </trkpt>
      <trkpt lat="51.938492003828287" lon="-9.65762103907764">
        <ele>262.10000000000002</ele>
        <time>2026-06-28T08:19:54Z</time>
      </trkpt>
      <trkpt lat="51.938402988016605" lon="-9.657582985237241">
        <ele>262.57999999999998</ele>
        <time>2026-06-28T08:19:55Z</time>
      </trkpt>
      <trkpt lat="51.938353031873703" lon="-9.657524982467294">
        <ele>263.06</ele>
        <time>2026-06-28T08:19:56Z</time>
      </trkpt>
      <trkpt lat="51.938064023852348" lon="-9.657095996662974">
        <ele>265.94</ele>
        <time>2026-06-28T08:20:00Z</time>
      </trkpt>
      <trkpt lat="51.938005015254021" lon="-9.656963981688023">
        <ele>266.42000000000002</ele>
        <time>2026-06-28T08:20:01Z</time>
      </trkpt>
      <trkpt lat="51.937948018312454" lon="-9.656833978369832">
        <ele>266.42000000000002</ele>
        <time>2026-06-28T08:20:02Z</time>
      </trkpt>
      <trkpt lat="51.937909964472055" lon="-9.656746974214912">
        <ele>266.42000000000002</ele>
        <time>2026-06-28T08:20:03Z</time>
      </trkpt>
      <trkpt lat="51.937915999442339" lon="-9.656626023352146">
        <ele>265.94</ele>
        <time>2026-06-28T08:20:04Z</time>
      </trkpt>
      <trkpt lat="51.937922034412622" lon="-9.656504988670349">
        <ele>264.98000000000002</ele>
        <time>2026-06-28T08:20:05Z</time>
      </trkpt>
      <trkpt lat="51.937929997220635" lon="-9.656370962038636">
        <ele>264.5</ele>
        <time>2026-06-28T08:20:06Z</time>
      </trkpt>
      <trkpt lat="51.938086990267038" lon="-9.655192969366908">
        <ele>261.13999999999999</ele>
        <time>2026-06-28T08:20:15Z</time>
      </trkpt>
      <trkpt lat="51.938120014965534" lon="-9.655010998249054">
        <ele>261.13999999999999</ele>
        <time>2026-06-28T08:20:17Z</time>
      </trkpt>
      <trkpt lat="51.938251024112105" lon="-9.653847003355622">
        <ele>258.25</ele>
        <time>2026-06-28T08:20:26Z</time>
      </trkpt>
      <trkpt lat="51.938243983313441" lon="-9.653714988380671">
        <ele>257.76999999999998</ele>
        <time>2026-06-28T08:20:27Z</time>
      </trkpt>
      <trkpt lat="51.938233003020287" lon="-9.653588002547622">
        <ele>257.29000000000002</ele>
        <time>2026-06-28T08:20:28Z</time>
      </trkpt>
      <trkpt lat="51.938181035220623" lon="-9.653469985350967">
        <ele>257.29000000000002</ele>
        <time>2026-06-28T08:20:29Z</time>
      </trkpt>
      <trkpt lat="51.938125966116786" lon="-9.653360014781356">
        <ele>256.81</ele>
        <time>2026-06-28T08:20:30Z</time>
      </trkpt>
      <trkpt lat="51.938057988882065" lon="-9.653248032554984">
        <ele>256.81</ele>
        <time>2026-06-28T08:20:31Z</time>
      </trkpt>
      <trkpt lat="51.937981965020299" lon="-9.653123980388045">
        <ele>256.32999999999998</ele>
        <time>2026-06-28T08:20:32Z</time>
      </trkpt>
      <trkpt lat="51.937900995835662" lon="-9.652990037575364">
        <ele>256.32999999999998</ele>
        <time>2026-06-28T08:20:33Z</time>
      </trkpt>
      <trkpt lat="51.937796976417303" lon="-9.652901021763682">
        <ele>255.84999999999999</ele>
        <time>2026-06-28T08:20:34Z</time>
      </trkpt>
      <trkpt lat="51.937699997797608" lon="-9.652835978195071">
        <ele>255.37</ele>
        <time>2026-06-28T08:20:35Z</time>
      </trkpt>
      <trkpt lat="51.937598995864391" lon="-9.652802031487227">
        <ele>255.37</ele>
        <time>2026-06-28T08:20:36Z</time>
      </trkpt>
      <trkpt lat="51.93750998005271" lon="-9.652823992073536">
        <ele>254.88999999999999</ele>
        <time>2026-06-28T08:20:37Z</time>
      </trkpt>
      <trkpt lat="51.937414007261395" lon="-9.652856010943651">
        <ele>254.88999999999999</ele>
        <time>2026-06-28T08:20:38Z</time>
      </trkpt>
      <trkpt lat="51.937319040298462" lon="-9.652888029813767">
        <ele>254.41</ele>
        <time>2026-06-28T08:20:39Z</time>
      </trkpt>
      <trkpt lat="51.937212003394961" lon="-9.652892975136638">
        <ele>253.93000000000001</ele>
        <time>2026-06-28T08:20:40Z</time>
      </trkpt>
      <trkpt lat="51.937103038653731" lon="-9.652866991236806">
        <ele>253.44</ele>
        <time>2026-06-28T08:20:41Z</time>
      </trkpt>
      <trkpt lat="51.936965994536877" lon="-9.652834972366691">
        <ele>252.96000000000001</ele>
        <time>2026-06-28T08:20:42Z</time>
      </trkpt>
      <trkpt lat="51.936805984005332" lon="-9.652797002345324">
        <ele>252.47999999999999</ele>
        <time>2026-06-28T08:20:43Z</time>
      </trkpt>
      <trkpt lat="51.936640022322536" lon="-9.652758026495576">
        <ele>252</ele>
        <time>2026-06-28T08:20:44Z</time>
      </trkpt>
      <trkpt lat="51.936336010694504" lon="-9.652687031775713">
        <ele>251.52000000000001</ele>
        <time>2026-06-28T08:20:46Z</time>
      </trkpt>
      <trkpt lat="51.936171976849437" lon="-9.652647972106934">
        <ele>250.56</ele>
        <time>2026-06-28T08:20:47Z</time>
      </trkpt>
      <trkpt lat="51.936038034036756" lon="-9.652693988755345">
        <ele>249.59999999999999</ele>
        <time>2026-06-28T08:20:48Z</time>
      </trkpt>
      <trkpt lat="51.934160990640521" lon="-9.653436960652471">
        <ele>240.94999999999999</ele>
        <time>2026-06-28T08:21:00Z</time>
      </trkpt>
      <trkpt lat="51.934023024514318" lon="-9.65347602032125">
        <ele>239.99000000000001</ele>
        <time>2026-06-28T08:21:01Z</time>
      </trkpt>
      <trkpt lat="51.933882962912321" lon="-9.653448024764657">
        <ele>239.02000000000001</ele>
        <time>2026-06-28T08:21:02Z</time>
      </trkpt>
      <trkpt lat="51.933739967644215" lon="-9.653418017551303">
        <ele>238.53999999999999</ele>
        <time>2026-06-28T08:21:03Z</time>
      </trkpt>
      <trkpt lat="51.933594960719347" lon="-9.653352973982692">
        <ele>238.06</ele>
        <time>2026-06-28T08:21:04Z</time>
      </trkpt>
      <trkpt lat="51.933451965451241" lon="-9.653290025889874">
        <ele>237.58000000000001</ele>
        <time>2026-06-28T08:21:05Z</time>
      </trkpt>
      <trkpt lat="51.93332196213305" lon="-9.653192041441798">
        <ele>236.62</ele>
        <time>2026-06-28T08:21:06Z</time>
      </trkpt>
      <trkpt lat="51.933230012655258" lon="-9.653059020638466">
        <ele>236.13999999999999</ele>
        <time>2026-06-28T08:21:07Z</time>
      </trkpt>
      <trkpt lat="51.93314996547997" lon="-9.652943015098572">
        <ele>235.66</ele>
        <time>2026-06-28T08:21:08Z</time>
      </trkpt>
      <trkpt lat="51.933110989630222" lon="-9.65281100012362">
        <ele>235.18000000000001</ele>
        <time>2026-06-28T08:21:09Z</time>
      </trkpt>
      <trkpt lat="51.933088023215532" lon="-9.652642020955682">
        <ele>234.69999999999999</ele>
        <time>2026-06-28T08:21:10Z</time>
      </trkpt>
      <trkpt lat="51.933059021830559" lon="-9.652439011260867">
        <ele>234.69999999999999</ele>
        <time>2026-06-28T08:21:11Z</time>
      </trkpt>
      <trkpt lat="51.932747969403863" lon="-9.650708986446261">
        <ele>231.33000000000001</ele>
        <time>2026-06-28T08:21:18Z</time>
      </trkpt>
      <trkpt lat="51.932661971077323" lon="-9.650520980358124">
        <ele>231.33000000000001</ele>
        <time>2026-06-28T08:21:19Z</time>
      </trkpt>
      <trkpt lat="51.932573961094022" lon="-9.650344038382173">
        <ele>231.33000000000001</ele>
        <time>2026-06-28T08:21:20Z</time>
      </trkpt>
      <trkpt lat="51.932449992746115" lon="-9.65021101757884">
        <ele>231.33000000000001</ele>
        <time>2026-06-28T08:21:21Z</time>
      </trkpt>
      <trkpt lat="51.932322001084685" lon="-9.650079002603889">
        <ele>231.33000000000001</ele>
        <time>2026-06-28T08:21:22Z</time>
      </trkpt>
      <trkpt lat="51.932187974452972" lon="-9.649941036477685">
        <ele>231.33000000000001</ele>
        <time>2026-06-28T08:21:23Z</time>
      </trkpt>
      <trkpt lat="51.931655975058675" lon="-9.649309040978551">
        <ele>229.88999999999999</ele>
        <time>2026-06-28T08:21:27Z</time>
      </trkpt>
      <trkpt lat="51.931544998660684" lon="-9.649112988263369">
        <ele>229.41</ele>
        <time>2026-06-28T08:21:28Z</time>
      </trkpt>
      <trkpt lat="51.931222965940833" lon="-9.648543018847704">
        <ele>227.49000000000001</ele>
        <time>2026-06-28T08:21:31Z</time>
      </trkpt>
      <trkpt lat="51.931183990091085" lon="-9.648331962525845">
        <ele>227.00999999999999</ele>
        <time>2026-06-28T08:21:32Z</time>
      </trkpt>
      <trkpt lat="51.93115096539259" lon="-9.648120990023017">
        <ele>226.53</ele>
        <time>2026-06-28T08:21:33Z</time>
      </trkpt>
      <trkpt lat="51.931158006191254" lon="-9.647918986156583">
        <ele>226.05000000000001</ele>
        <time>2026-06-28T08:21:34Z</time>
      </trkpt>
      <trkpt lat="51.931166974827647" lon="-9.647681023925543">
        <ele>225.56999999999999</ele>
        <time>2026-06-28T08:21:35Z</time>
      </trkpt>
      <trkpt lat="51.931186001747847" lon="-9.647207027301192">
        <ele>224.61000000000001</ele>
        <time>2026-06-28T08:21:37Z</time>
      </trkpt>
      <trkpt lat="51.931188013404608" lon="-9.646984990686178">
        <ele>224.61000000000001</ele>
        <time>2026-06-28T08:21:38Z</time>
      </trkpt>
      <trkpt lat="51.931135039776564" lon="-9.646809976547957">
        <ele>224.12</ele>
        <time>2026-06-28T08:21:39Z</time>
      </trkpt>
      <trkpt lat="51.931049963459373" lon="-9.646694976836443">
        <ele>224.12</ele>
        <time>2026-06-28T08:21:40Z</time>
      </trkpt>
      <trkpt lat="51.930946027860045" lon="-9.646610990166664">
        <ele>223.63999999999999</ele>
        <time>2026-06-28T08:21:41Z</time>
      </trkpt>
      <trkpt lat="51.930820969864726" lon="-9.646527003496885">
        <ele>223.16</ele>
        <time>2026-06-28T08:21:42Z</time>
      </trkpt>
      <trkpt lat="51.930197020992637" lon="-9.646137999370694">
        <ele>219.80000000000001</ele>
        <time>2026-06-28T08:21:46Z</time>
      </trkpt>
      <trkpt lat="51.930025024339557" lon="-9.646111009642482">
        <ele>219.31999999999999</ele>
        <time>2026-06-28T08:21:47Z</time>
      </trkpt>
      <trkpt lat="51.92984196357429" lon="-9.646082008257508">
        <ele>218.36000000000001</ele>
        <time>2026-06-28T08:21:48Z</time>
      </trkpt>
      <trkpt lat="51.929697040468454" lon="-9.646140011027455">
        <ele>217.88</ele>
        <time>2026-06-28T08:21:49Z</time>
      </trkpt>
      <trkpt lat="51.929525965824723" lon="-9.646207988262177">
        <ele>216.91</ele>
        <time>2026-06-28T08:21:50Z</time>
      </trkpt>
      <trkpt lat="51.92810095846653" lon="-9.646933022886515">
        <ele>208.25999999999999</ele>
        <time>2026-06-28T08:21:59Z</time>
      </trkpt>
      <trkpt lat="51.927960980683565" lon="-9.646979961544275">
        <ele>207.30000000000001</ele>
        <time>2026-06-28T08:22:00Z</time>
      </trkpt>
      <trkpt lat="51.927817985415459" lon="-9.646971998736262">
        <ele>206.81999999999999</ele>
        <time>2026-06-28T08:22:01Z</time>
      </trkpt>
      <trkpt lat="51.927678007632494" lon="-9.646963030099869">
        <ele>206.34</ele>
        <time>2026-06-28T08:22:02Z</time>
      </trkpt>
      <trkpt lat="51.92754004150629" lon="-9.646908966824412">
        <ele>205.38</ele>
        <time>2026-06-28T08:22:03Z</time>
      </trkpt>
      <trkpt lat="51.927406014874578" lon="-9.646846018731594">
        <ele>204.41999999999999</ele>
        <time>2026-06-28T08:22:04Z</time>
      </trkpt>
      <trkpt lat="51.927290009334683" lon="-9.646749962121248">
        <ele>203.94</ele>
        <time>2026-06-28T08:22:05Z</time>
      </trkpt>
      <trkpt lat="51.927201999351382" lon="-9.646618030965328">
        <ele>202.97999999999999</ele>
        <time>2026-06-28T08:22:06Z</time>
      </trkpt>
      <trkpt lat="51.927147014066577" lon="-9.6464519854635">
        <ele>202.49000000000001</ele>
        <time>2026-06-28T08:22:07Z</time>
      </trkpt>
      <trkpt lat="51.927117006853223" lon="-9.646269008517265">
        <ele>201.53</ele>
        <time>2026-06-28T08:22:08Z</time>
      </trkpt>
      <trkpt lat="51.927117006853223" lon="-9.646071027964354">
        <ele>201.05000000000001</ele>
        <time>2026-06-28T08:22:09Z</time>
      </trkpt>
      <trkpt lat="51.927131004631519" lon="-9.645842034369707">
        <ele>201.05000000000001</ele>
        <time>2026-06-28T08:22:10Z</time>
      </trkpt>
      <trkpt lat="51.927191019058228" lon="-9.645645981654525">
        <ele>200.56999999999999</ele>
        <time>2026-06-28T08:22:11Z</time>
      </trkpt>
      <trkpt lat="51.927253967151046" lon="-9.645440960302949">
        <ele>200.09</ele>
        <time>2026-06-28T08:22:12Z</time>
      </trkpt>
      <trkpt lat="51.927464017644525" lon="-9.644759008660913">
        <ele>198.65000000000001</ele>
        <time>2026-06-28T08:22:15Z</time>
      </trkpt>
      <trkpt lat="51.927545992657542" lon="-9.644493972882628">
        <ele>197.69</ele>
        <time>2026-06-28T08:22:16Z</time>
      </trkpt>
      <trkpt lat="51.927572982385755" lon="-9.644234972074628">
        <ele>197.21000000000001</ele>
        <time>2026-06-28T08:22:17Z</time>
      </trkpt>
      <trkpt lat="51.927716983482242" lon="-9.642856987193227">
        <ele>192.40000000000001</ele>
        <time>2026-06-28T08:22:22Z</time>
      </trkpt>
      <trkpt lat="51.927727963775396" lon="-9.642613995820284">
        <ele>190.96000000000001</ele>
        <time>2026-06-28T08:22:23Z</time>
      </trkpt>
      <trkpt lat="51.927669961005449" lon="-9.642416015267372">
        <ele>190</ele>
        <time>2026-06-28T08:22:24Z</time>
      </trkpt>
      <trkpt lat="51.927591003477573" lon="-9.642202025279403">
        <ele>189.03999999999999</ele>
        <time>2026-06-28T08:22:25Z</time>
      </trkpt>
      <trkpt lat="51.927485978230834" lon="-9.641987029463053">
        <ele>188.08000000000001</ele>
        <time>2026-06-28T08:22:26Z</time>
      </trkpt>
      <trkpt lat="51.927378019317985" lon="-9.641764992848039">
        <ele>187.11000000000001</ele>
        <time>2026-06-28T08:22:27Z</time>
      </trkpt>
      <trkpt lat="51.927266959100962" lon="-9.641537005081773">
        <ele>186.63</ele>
        <time>2026-06-28T08:22:28Z</time>
      </trkpt>
      <trkpt lat="51.927161011844873" lon="-9.641296025365591">
        <ele>186.15000000000001</ele>
        <time>2026-06-28T08:22:29Z</time>
      </trkpt>
      <trkpt lat="51.927081970497966" lon="-9.641028977930546">
        <ele>185.19</ele>
        <time>2026-06-28T08:22:30Z</time>
      </trkpt>
      <trkpt lat="51.926441006362438" lon="-9.638652037829161">
        <ele>179.41999999999999</ele>
        <time>2026-06-28T08:22:39Z</time>
      </trkpt>
      <trkpt lat="51.926414016634226" lon="-9.638368980959058">
        <ele>178.94</ele>
        <time>2026-06-28T08:22:40Z</time>
      </trkpt>
      <trkpt lat="51.926388032734394" lon="-9.63809497654438">
        <ele>178.46000000000001</ele>
        <time>2026-06-28T08:22:41Z</time>
      </trkpt>
      <trkpt lat="51.926369005814195" lon="-9.637832958251238">
        <ele>178.46000000000001</ele>
        <time>2026-06-28T08:22:42Z</time>
      </trkpt>
      <trkpt lat="51.926393983885646" lon="-9.637579992413521">
        <ele>177.97999999999999</ele>
        <time>2026-06-28T08:22:43Z</time>
      </trkpt>
      <trkpt lat="51.926424996927381" lon="-9.637343036010861">
        <ele>177.5</ele>
        <time>2026-06-28T08:22:44Z</time>
      </trkpt>
      <trkpt lat="51.926463972777128" lon="-9.637122005224228">
        <ele>177.02000000000001</ele>
        <time>2026-06-28T08:22:45Z</time>
      </trkpt>
      <trkpt lat="51.926500014960766" lon="-9.636915978044272">
        <ele>176.53999999999999</ele>
        <time>2026-06-28T08:22:46Z</time>
      </trkpt>
      <trkpt lat="51.926532033830881" lon="-9.636735012754798">
        <ele>176.06</ele>
        <time>2026-06-28T08:22:47Z</time>
      </trkpt>
      <trkpt lat="51.926499009132385" lon="-9.636538960039616">
        <ele>175.58000000000001</ele>
        <time>2026-06-28T08:22:48Z</time>
      </trkpt>
      <trkpt lat="51.926442012190819" lon="-9.636370986700058">
        <ele>175.09999999999999</ele>
        <time>2026-06-28T08:22:49Z</time>
      </trkpt>
      <trkpt lat="51.926355008035898" lon="-9.636217011138797">
        <ele>175.09999999999999</ele>
        <time>2026-06-28T08:22:50Z</time>
      </trkpt>
      <trkpt lat="51.926262974739075" lon="-9.636054988950491">
        <ele>174.62</ele>
        <time>2026-06-28T08:22:51Z</time>
      </trkpt>
      <trkpt lat="51.926164990290999" lon="-9.63588098064065">
        <ele>174.62</ele>
        <time>2026-06-28T08:22:52Z</time>
      </trkpt>
      <trkpt lat="51.925960974767804" lon="-9.635487031191587">
        <ele>174.62</ele>
        <time>2026-06-28T08:22:54Z</time>
      </trkpt>
      <trkpt lat="51.925083976238966" lon="-9.633199023082852">
        <ele>171.25</ele>
        <time>2026-06-28T08:23:04Z</time>
      </trkpt>
      <trkpt lat="51.924738977104425" lon="-9.632413974031806">
        <ele>170.28999999999999</ele>
        <time>2026-06-28T08:23:08Z</time>
      </trkpt>
      <trkpt lat="51.924637975171208" lon="-9.632230997085571">
        <ele>169.81</ele>
        <time>2026-06-28T08:23:09Z</time>
      </trkpt>
      <trkpt lat="51.924508977681398" lon="-9.632101999595761">
        <ele>169.33000000000001</ele>
        <time>2026-06-28T08:23:10Z</time>
      </trkpt>
      <trkpt lat="51.924377968534827" lon="-9.63197099044919">
        <ele>168.37</ele>
        <time>2026-06-28T08:23:11Z</time>
      </trkpt>
      <trkpt lat="51.924240002408624" lon="-9.631874011829495">
        <ele>167.88999999999999</ele>
        <time>2026-06-28T08:23:12Z</time>
      </trkpt>
      <trkpt lat="51.924089966341853" lon="-9.631795976310968">
        <ele>166.93000000000001</ele>
        <time>2026-06-28T08:23:13Z</time>
      </trkpt>
      <trkpt lat="51.923411032184958" lon="-9.63139096274972">
        <ele>163.08000000000001</ele>
        <time>2026-06-28T08:23:18Z</time>
      </trkpt>
      <trkpt lat="51.9233070127666" lon="-9.631250984966755">
        <ele>162.12</ele>
        <time>2026-06-28T08:23:19Z</time>
      </trkpt>
      <trkpt lat="51.923192013055086" lon="-9.631093991920352">
        <ele>161.16</ele>
        <time>2026-06-28T08:23:20Z</time>
      </trkpt>
      <trkpt lat="51.922808960080147" lon="-9.63061798363924">
        <ele>159.24000000000001</ele>
        <time>2026-06-28T08:23:23Z</time>
      </trkpt>
      <trkpt lat="51.922658002004027" lon="-9.630526034161449">
        <ele>158.27000000000001</ele>
        <time>2026-06-28T08:23:24Z</time>
      </trkpt>
      <trkpt lat="51.922515006735921" lon="-9.630438024178147">
        <ele>157.31</ele>
        <time>2026-06-28T08:23:25Z</time>
      </trkpt>
      <trkpt lat="51.922252988442779" lon="-9.630278013646603">
        <ele>155.38999999999999</ele>
        <time>2026-06-28T08:23:27Z</time>
      </trkpt>
      <trkpt lat="51.922131031751633" lon="-9.630202995613217">
        <ele>154.91</ele>
        <time>2026-06-28T08:23:28Z</time>
      </trkpt>
      <trkpt lat="51.922023994848132" lon="-9.630073998123407">
        <ele>153.47</ele>
        <time>2026-06-28T08:23:29Z</time>
      </trkpt>
      <trkpt lat="51.921917963773012" lon="-9.629915999248624">
        <ele>152.50999999999999</ele>
        <time>2026-06-28T08:23:30Z</time>
      </trkpt>
      <trkpt lat="51.921819979324937" lon="-9.629728998988867">
        <ele>151.53999999999999</ele>
        <time>2026-06-28T08:23:31Z</time>
      </trkpt>
      <trkpt lat="51.921726018190384" lon="-9.629528000950813">
        <ele>151.06</ele>
        <time>2026-06-28T08:23:32Z</time>
      </trkpt>
      <trkpt lat="51.920534027740359" lon="-9.626696007326245">
        <ele>147.69999999999999</ele>
        <time>2026-06-28T08:23:45Z</time>
      </trkpt>
      <trkpt lat="51.919973026961088" lon="-9.625145019963384">
        <ele>144.34</ele>
        <time>2026-06-28T08:23:52Z</time>
      </trkpt>
      <trkpt lat="51.919852998107672" lon="-9.624967994168401">
        <ele>143.84999999999999</ele>
        <time>2026-06-28T08:23:53Z</time>
      </trkpt>
      <trkpt lat="51.919731963425875" lon="-9.624792980030179">
        <ele>143.37</ele>
        <time>2026-06-28T08:23:54Z</time>
      </trkpt>
      <trkpt lat="51.919174985960126" lon="-9.624168025329709">
        <ele>140.97</ele>
        <time>2026-06-28T08:23:58Z</time>
      </trkpt>
      <trkpt lat="51.919026039540768" lon="-9.62404296733439">
        <ele>140.97</ele>
        <time>2026-06-28T08:23:59Z</time>
      </trkpt>
      <trkpt lat="51.918869968503714" lon="-9.623936014249921">
        <ele>140.49000000000001</ele>
        <time>2026-06-28T08:24:00Z</time>
      </trkpt>
      <trkpt lat="51.918438971042633" lon="-9.623639965429902">
        <ele>139.53</ele>
        <time>2026-06-28T08:24:03Z</time>
      </trkpt>
      <trkpt lat="51.918320031836629" lon="-9.623493030667305">
        <ele>138.56999999999999</ele>
        <time>2026-06-28T08:24:04Z</time>
      </trkpt>
      <trkpt lat="51.918207965791225" lon="-9.623330002650619">
        <ele>138.09</ele>
        <time>2026-06-28T08:24:05Z</time>
      </trkpt>
      <trkpt lat="51.918096989393234" lon="-9.623168986290693">
        <ele>137.61000000000001</ele>
        <time>2026-06-28T08:24:06Z</time>
      </trkpt>
      <trkpt lat="51.917984001338482" lon="-9.623003024607897">
        <ele>136.63999999999999</ele>
        <time>2026-06-28T08:24:07Z</time>
      </trkpt>
      <trkpt lat="51.917869001626968" lon="-9.622836979106069">
        <ele>136.16</ele>
        <time>2026-06-28T08:24:08Z</time>
      </trkpt>
      <trkpt lat="51.917629027739167" lon="-9.62251796387136">
        <ele>134.24000000000001</ele>
        <time>2026-06-28T08:24:10Z</time>
      </trkpt>
      <trkpt lat="51.917502963915467" lon="-9.622392989695072">
        <ele>133.75999999999999</ele>
        <time>2026-06-28T08:24:11Z</time>
      </trkpt>
      <trkpt lat="51.917343037202954" lon="-9.622315037995577">
        <ele>132.80000000000001</ele>
        <time>2026-06-28T08:24:12Z</time>
      </trkpt>
      <trkpt lat="51.917189983651042" lon="-9.622242031618953">
        <ele>131.84</ele>
        <time>2026-06-28T08:24:13Z</time>
      </trkpt>
      <trkpt lat="51.917036008089781" lon="-9.622167013585568">
        <ele>131.36000000000001</ele>
        <time>2026-06-28T08:24:14Z</time>
      </trkpt>
      <trkpt lat="51.91688203252852" lon="-9.622093001380563">
        <ele>130.88</ele>
        <time>2026-06-28T08:24:15Z</time>
      </trkpt>
      <trkpt lat="51.916310973465443" lon="-9.621582962572575">
        <ele>127.98999999999999</ele>
        <time>2026-06-28T08:24:19Z</time>
      </trkpt>
      <trkpt lat="51.916194967925549" lon="-9.621426975354552">
        <ele>127.03</ele>
        <time>2026-06-28T08:24:20Z</time>
      </trkpt>
      <trkpt lat="51.916105030104518" lon="-9.621234023943543">
        <ele>126.55</ele>
        <time>2026-06-28T08:24:21Z</time>
      </trkpt>
      <trkpt lat="51.915832031518221" lon="-9.620645027607679">
        <ele>124.15000000000001</ele>
        <time>2026-06-28T08:24:24Z</time>
      </trkpt>
      <trkpt lat="51.91572499461472" lon="-9.620486022904515">
        <ele>123.19</ele>
        <time>2026-06-28T08:24:25Z</time>
      </trkpt>
      <trkpt lat="51.915603959932923" lon="-9.620364988222718">
        <ele>122.22</ele>
        <time>2026-06-28T08:24:26Z</time>
      </trkpt>
      <trkpt lat="51.915484014898539" lon="-9.620244037359953">
        <ele>120.78</ele>
        <time>2026-06-28T08:24:27Z</time>
      </trkpt>
      <trkpt lat="51.91535803489387" lon="-9.620117973536253">
        <ele>119.81999999999999</ele>
        <time>2026-06-28T08:24:28Z</time>
      </trkpt>
      <trkpt lat="51.914941035211086" lon="-9.619872970506549">
        <ele>117.42</ele>
        <time>2026-06-28T08:24:31Z</time>
      </trkpt>
      <trkpt lat="51.914104018360376" lon="-9.619218008592725">
        <ele>113.09</ele>
        <time>2026-06-28T08:24:37Z</time>
      </trkpt>
      <trkpt lat="51.913991030305624" lon="-9.619071995839477">
        <ele>112.13</ele>
        <time>2026-06-28T08:24:38Z</time>
      </trkpt>
      <trkpt lat="51.913888016715646" lon="-9.618921037763357">
        <ele>111.65000000000001</ele>
        <time>2026-06-28T08:24:39Z</time>
      </trkpt>
      <trkpt lat="51.913793971762061" lon="-9.618748035281897">
        <ele>110.69</ele>
        <time>2026-06-28T08:24:40Z</time>
      </trkpt>
      <trkpt lat="51.913730017840862" lon="-9.61852096952498">
        <ele>110.20999999999999</ele>
        <time>2026-06-28T08:24:41Z</time>
      </trkpt>
      <trkpt lat="51.913681989535689" lon="-9.61828401312232">
        <ele>109.73</ele>
        <time>2026-06-28T08:24:42Z</time>
      </trkpt>
      <trkpt lat="51.913663968443871" lon="-9.618044039234519">
        <ele>109.25</ele>
        <time>2026-06-28T08:24:43Z</time>
      </trkpt>
      <trkpt lat="51.913646031171083" lon="-9.617808004841209">
        <ele>108.29000000000001</ele>
        <time>2026-06-28T08:24:44Z</time>
      </trkpt>
      <trkpt lat="51.913461964577436" lon="-9.616646021604538">
        <ele>105.40000000000001</ele>
        <time>2026-06-28T08:24:49Z</time>
      </trkpt>
      <trkpt lat="51.913405973464251" lon="-9.616427002474666">
        <ele>104.92</ele>
        <time>2026-06-28T08:24:50Z</time>
      </trkpt>
      <trkpt lat="51.91331896930933" lon="-9.61622198112309">
        <ele>104.44</ele>
        <time>2026-06-28T08:24:51Z</time>
      </trkpt>
      <trkpt lat="51.913218973204494" lon="-9.616034980863333">
        <ele>103.95999999999999</ele>
        <time>2026-06-28T08:24:52Z</time>
      </trkpt>
      <trkpt lat="51.913118977099657" lon="-9.615847980603576">
        <ele>103.95999999999999</ele>
        <time>2026-06-28T08:24:53Z</time>
      </trkpt>
      <trkpt lat="51.913005989044905" lon="-9.615671960636973">
        <ele>103.48</ele>
        <time>2026-06-28T08:24:54Z</time>
      </trkpt>
      <trkpt lat="51.912883026525378" lon="-9.615521002560854">
        <ele>102.52</ele>
        <time>2026-06-28T08:24:55Z</time>
      </trkpt>
      <trkpt lat="51.912758974358439" lon="-9.615375995635986">
        <ele>102.04000000000001</ele>
        <time>2026-06-28T08:24:56Z</time>
      </trkpt>
      <trkpt lat="51.912628971040249" lon="-9.615260995924473">
        <ele>101.56</ele>
        <time>2026-06-28T08:24:57Z</time>
      </trkpt>
      <trkpt lat="51.912494022399187" lon="-9.615140967071056">
        <ele>101.56</ele>
        <time>2026-06-28T08:24:58Z</time>
      </trkpt>
      <trkpt lat="51.911529013887048" lon="-9.614415010437369">
        <ele>100.11</ele>
        <time>2026-06-28T08:25:05Z</time>
      </trkpt>
      <trkpt lat="51.911375038325787" lon="-9.614348961040378">
        <ele>99.629999999999995</ele>
        <time>2026-06-28T08:25:06Z</time>
      </trkpt>
      <trkpt lat="51.911219973117113" lon="-9.614311996847391">
        <ele>99.150000000000006</ele>
        <time>2026-06-28T08:25:07Z</time>
      </trkpt>
      <trkpt lat="51.911067003384233" lon="-9.614276038482785">
        <ele>98.670000000000002</ele>
        <time>2026-06-28T08:25:08Z</time>
      </trkpt>
      <trkpt lat="51.910913027822971" lon="-9.614275032654405">
        <ele>98.189999999999998</ele>
        <time>2026-06-28T08:25:09Z</time>
      </trkpt>
      <trkpt lat="51.910757962614298" lon="-9.614300010725856">
        <ele>98.189999999999998</ele>
        <time>2026-06-28T08:25:10Z</time>
      </trkpt>
      <trkpt lat="51.910603987053037" lon="-9.614324988797307">
        <ele>97.709999999999994</ele>
        <time>2026-06-28T08:25:11Z</time>
      </trkpt>
      <trkpt lat="51.909565972164273" lon="-9.614587007090449">
        <ele>94.829999999999998</ele>
        <time>2026-06-28T08:25:18Z</time>
      </trkpt>
      <trkpt lat="51.909416019916534" lon="-9.614592958241701">
        <ele>94.349999999999994</ele>
        <time>2026-06-28T08:25:19Z</time>
      </trkpt>
      <trkpt lat="51.909269001334906" lon="-9.614551970735192">
        <ele>93.390000000000001</ele>
        <time>2026-06-28T08:25:20Z</time>
      </trkpt>
      <trkpt lat="51.909146960824728" lon="-9.614450968801975">
        <ele>92.900000000000006</ele>
        <time>2026-06-28T08:25:21Z</time>
      </trkpt>
      <trkpt lat="51.90904101356864" lon="-9.614323982968926">
        <ele>92.900000000000006</ele>
        <time>2026-06-28T08:25:22Z</time>
      </trkpt>
      <trkpt lat="51.908964989706874" lon="-9.614175036549568">
        <ele>92.420000000000002</ele>
        <time>2026-06-28T08:25:23Z</time>
      </trkpt>
      <trkpt lat="51.90889298915863" lon="-9.613990969955921">
        <ele>91.459999999999994</ele>
        <time>2026-06-28T08:25:24Z</time>
      </trkpt>
      <trkpt lat="51.908838003873825" lon="-9.613786032423377">
        <ele>90.980000000000004</ele>
        <time>2026-06-28T08:25:25Z</time>
      </trkpt>
      <trkpt lat="51.908800033852458" lon="-9.613551003858447">
        <ele>90.5</ele>
        <time>2026-06-28T08:25:26Z</time>
      </trkpt>
      <trkpt lat="51.908759968355298" lon="-9.613306000828743">
        <ele>90.019999999999996</ele>
        <time>2026-06-28T08:25:27Z</time>
      </trkpt>
      <trkpt lat="51.908726021647453" lon="-9.613057980313897">
        <ele>90.019999999999996</ele>
        <time>2026-06-28T08:25:28Z</time>
      </trkpt>
      <trkpt lat="51.908718980848789" lon="-9.612797973677516">
        <ele>90.019999999999996</ele>
        <time>2026-06-28T08:25:29Z</time>
      </trkpt>
      <trkpt lat="51.908708000555634" lon="-9.612265974283218">
        <ele>89.540000000000006</ele>
        <time>2026-06-28T08:25:31Z</time>
      </trkpt>
      <trkpt lat="51.908706994727254" lon="-9.610232021659613">
        <ele>85.209999999999994</ele>
        <time>2026-06-28T08:25:39Z</time>
      </trkpt>
      <trkpt lat="51.908643040806055" lon="-9.610022976994515">
        <ele>84.730000000000004</ele>
        <time>2026-06-28T08:25:40Z</time>
      </trkpt>
      <trkpt lat="51.908576991409063" lon="-9.609808987006545">
        <ele>84.25</ele>
        <time>2026-06-28T08:25:41Z</time>
      </trkpt>
      <trkpt lat="51.907691024243832" lon="-9.607757013291121">
        <ele>80.409999999999997</ele>
        <time>2026-06-28T08:25:50Z</time>
      </trkpt>
      <trkpt lat="51.906625013798475" lon="-9.604850001633167">
        <ele>77.519999999999996</ele>
        <time>2026-06-28T08:26:01Z</time>
      </trkpt>
      <trkpt lat="51.905795037746429" lon="-9.602533997967839">
        <ele>77.519999999999996</ele>
        <time>2026-06-28T08:26:10Z</time>
      </trkpt>
      <trkpt lat="51.904688039794564" lon="-9.600335005670786">
        <ele>75.599999999999994</ele>
        <time>2026-06-28T08:26:19Z</time>
      </trkpt>
      <trkpt lat="51.90452802926302" lon="-9.600156974047422">
        <ele>75.120000000000005</ele>
        <time>2026-06-28T08:26:20Z</time>
      </trkpt>
      <trkpt lat="51.9032649602741" lon="-9.599188026040793">
        <ele>70.310000000000002</ele>
        <time>2026-06-28T08:26:27Z</time>
      </trkpt>
      <trkpt lat="51.90205997787416" lon="-9.598633982241154">
        <ele>64.549999999999997</ele>
        <time>2026-06-28T08:26:33Z</time>
      </trkpt>
      <trkpt lat="51.901847999542952" lon="-9.598592994734645">
        <ele>64.069999999999993</ele>
        <time>2026-06-28T08:26:34Z</time>
      </trkpt>
      <trkpt lat="51.901628980413079" lon="-9.598580002784729">
        <ele>63.579999999999998</ele>
        <time>2026-06-28T08:26:35Z</time>
      </trkpt>
      <trkpt lat="51.90025401301682" lon="-9.598747976124287">
        <ele>58.780000000000001</ele>
        <time>2026-06-28T08:26:42Z</time>
      </trkpt>
      <trkpt lat="51.899250028654933" lon="-9.599265977740288">
        <ele>54.450000000000003</ele>
        <time>2026-06-28T08:26:48Z</time>
      </trkpt>
      <trkpt lat="51.898422986268997" lon="-9.599875006824732">
        <ele>52.049999999999997</ele>
        <time>2026-06-28T08:26:53Z</time>
      </trkpt>
      <trkpt lat="51.897080037742853" lon="-9.600873962044716">
        <ele>50.130000000000003</ele>
        <time>2026-06-28T08:27:01Z</time>
      </trkpt>
      <trkpt lat="51.896314015612006" lon="-9.601687006652355">
        <ele>48.200000000000003</ele>
        <time>2026-06-28T08:27:06Z</time>
      </trkpt>
      <trkpt lat="51.896156016737223" lon="-9.601780967786908">
        <ele>47.719999999999999</ele>
        <time>2026-06-28T08:27:07Z</time>
      </trkpt>
      <trkpt lat="51.895987037569284" lon="-9.601865038275719">
        <ele>47.240000000000002</ele>
        <time>2026-06-28T08:27:08Z</time>
      </trkpt>
      <trkpt lat="51.895815040916204" lon="-9.601951036602259">
        <ele>47.240000000000002</ele>
        <time>2026-06-28T08:27:09Z</time>
      </trkpt>
      <trkpt lat="51.895632985979319" lon="-9.601983977481723">
        <ele>46.759999999999998</ele>
        <time>2026-06-28T08:27:10Z</time>
      </trkpt>
      <trkpt lat="51.895446991547942" lon="-9.602008033543825">
        <ele>46.759999999999998</ele>
        <time>2026-06-28T08:27:11Z</time>
      </trkpt>
      <trkpt lat="51.895266026258469" lon="-9.601983977481723">
        <ele>46.280000000000001</ele>
        <time>2026-06-28T08:27:12Z</time>
      </trkpt>
      <trkpt lat="51.895081959664822" lon="-9.601958999410272">
        <ele>45.799999999999997</ele>
        <time>2026-06-28T08:27:13Z</time>
      </trkpt>
      <trkpt lat="51.894895965233445" lon="-9.601907031610608">
        <ele>45.32</ele>
        <time>2026-06-28T08:27:14Z</time>
      </trkpt>
      <trkpt lat="51.894713994115591" lon="-9.601821033284068">
        <ele>44.840000000000003</ele>
        <time>2026-06-28T08:27:15Z</time>
      </trkpt>
      <trkpt lat="51.894536968320608" lon="-9.601726988330483">
        <ele>44.359999999999999</ele>
        <time>2026-06-28T08:27:16Z</time>
      </trkpt>
      <trkpt lat="51.89436798915267" lon="-9.601584998890758">
        <ele>43.399999999999999</ele>
        <time>2026-06-28T08:27:17Z</time>
      </trkpt>
      <trkpt lat="51.894198004156351" lon="-9.601443009451032">
        <ele>41.950000000000003</ele>
        <time>2026-06-28T08:27:18Z</time>
      </trkpt>
      <trkpt lat="51.894035981968045" lon="-9.601305965334177">
        <ele>40.509999999999998</ele>
        <time>2026-06-28T08:27:19Z</time>
      </trkpt>
      <trkpt lat="51.893182033672929" lon="-9.600358977913857">
        <ele>38.109999999999999</ele>
        <time>2026-06-28T08:27:25Z</time>
      </trkpt>
      <trkpt lat="51.893030991777778" lon="-9.600221011787653">
        <ele>38.109999999999999</ele>
        <time>2026-06-28T08:27:26Z</time>
      </trkpt>
      <trkpt lat="51.891557034105062" lon="-9.599425988271833">
        <ele>34.740000000000002</ele>
        <time>2026-06-28T08:27:34Z</time>
      </trkpt>
      <trkpt lat="51.889650989323854" lon="-9.598309015855193">
        <ele>30.899999999999999</ele>
        <time>2026-06-28T08:27:45Z</time>
      </trkpt>
      <trkpt lat="51.888474002480507" lon="-9.597586998715997">
        <ele>26.09</ele>
        <time>2026-06-28T08:27:52Z</time>
      </trkpt>
      <trkpt lat="51.887258961796761" lon="-9.596827011555433">
        <ele>22.25</ele>
        <time>2026-06-28T08:28:01Z</time>
      </trkpt>
      <trkpt lat="51.886350028216839" lon="-9.59589896723628">
        <ele>21.289999999999999</ele>
        <time>2026-06-28T08:28:10Z</time>
      </trkpt>
      <trkpt lat="51.885503958910704" lon="-9.594367006793618">
        <ele>17.440000000000001</ele>
        <time>2026-06-28T08:28:19Z</time>
      </trkpt>
      <trkpt lat="51.884943963959813" lon="-9.592664977535605">
        <ele>16</ele>
        <time>2026-06-28T08:28:27Z</time>
      </trkpt>
      <trkpt lat="51.884200992062688" lon="-9.591181967407465">
        <ele>16</ele>
        <time>2026-06-28T08:28:37Z</time>
      </trkpt>
      <trkpt lat="51.883749039843678" lon="-9.589448003098369">
        <ele>14.08</ele>
        <time>2026-06-28T08:28:47Z</time>
      </trkpt>
      <trkpt lat="51.883744010701776" lon="-9.589255973696709">
        <ele>14.08</ele>
        <time>2026-06-28T08:28:48Z</time>
      </trkpt>
      <trkpt lat="51.883737975731492" lon="-9.5890630222857">
        <ele>14.08</ele>
        <time>2026-06-28T08:28:49Z</time>
      </trkpt>
      <trkpt lat="51.883804025128484" lon="-9.587523015215993">
        <ele>14.08</ele>
        <time>2026-06-28T08:28:57Z</time>
      </trkpt>
      <trkpt lat="51.8837979901582" lon="-9.587331991642714">
        <ele>14.08</ele>
        <time>2026-06-28T08:28:58Z</time>
      </trkpt>
      <trkpt lat="51.883783992379904" lon="-9.587138034403324">
        <ele>13.6</ele>
        <time>2026-06-28T08:28:59Z</time>
      </trkpt>
      <trkpt lat="51.883744010701776" lon="-9.586949022486806">
        <ele>13.119999999999999</ele>
        <time>2026-06-28T08:29:00Z</time>
      </trkpt>
      <trkpt lat="51.883705034852028" lon="-9.586762022227049">
        <ele>13.119999999999999</ele>
        <time>2026-06-28T08:29:01Z</time>
      </trkpt>
      <trkpt lat="51.88347302377224" lon="-9.586105970665813">
        <ele>12.15</ele>
        <time>2026-06-28T08:29:05Z</time>
      </trkpt>
      <trkpt lat="51.883406974375248" lon="-9.585962975397706">
        <ele>11.67</ele>
        <time>2026-06-28T08:29:06Z</time>
      </trkpt>
      <trkpt lat="51.88332499936223" lon="-9.585835989564657">
        <ele>11.19</ele>
        <time>2026-06-28T08:29:07Z</time>
      </trkpt>
      <trkpt lat="51.883146967738867" lon="-9.585677990689874">
        <ele>11.19</ele>
        <time>2026-06-28T08:29:09Z</time>
      </trkpt>
      <trkpt lat="51.882236022502184" lon="-9.585054963827133">
        <ele>12.630000000000001</ele>
        <time>2026-06-28T08:29:19Z</time>
      </trkpt>
      <trkpt lat="51.88141199760139" lon="-9.584777019917965">
        <ele>11.19</ele>
        <time>2026-06-28T08:29:29Z</time>
      </trkpt>
      <trkpt lat="51.881216028705239" lon="-9.584706025198102">
        <ele>11.19</ele>
        <time>2026-06-28T08:29:31Z</time>
      </trkpt>
      <trkpt lat="51.881132964044809" lon="-9.584661014378071">
        <ele>11.19</ele>
        <time>2026-06-28T08:29:32Z</time>
      </trkpt>
      <trkpt lat="51.881059035658836" lon="-9.584607034921646">
        <ele>10.710000000000001</ele>
        <time>2026-06-28T08:29:33Z</time>
      </trkpt>
      <trkpt lat="51.880848985165358" lon="-9.584453981369734">
        <ele>11.19</ele>
        <time>2026-06-28T08:29:36Z</time>
      </trkpt>
      <trkpt lat="51.880783019587398" lon="-9.584406036883593">
        <ele>11.19</ele>
        <time>2026-06-28T08:29:37Z</time>
      </trkpt>
      <trkpt lat="51.88070397824049" lon="-9.584348034113646">
        <ele>11.67</ele>
        <time>2026-06-28T08:29:38Z</time>
      </trkpt>
      <trkpt lat="51.880489988252521" lon="-9.584109988063574">
        <ele>11.67</ele>
        <time>2026-06-28T08:29:42Z</time>
      </trkpt>
      <trkpt lat="51.880329977720976" lon="-9.583860039710999">
        <ele>11.67</ele>
        <time>2026-06-28T08:29:45Z</time>
      </trkpt>
      <trkpt lat="51.880039041861892" lon="-9.583373973146081">
        <ele>11.67</ele>
        <time>2026-06-28T08:29:51Z</time>
      </trkpt>
      <trkpt lat="51.879901997745037" lon="-9.58306803368032">
        <ele>12.15</ele>
        <time>2026-06-28T08:29:54Z</time>
      </trkpt>
      <trkpt lat="51.879852963611484" lon="-9.582957979291678">
        <ele>12.15</ele>
        <time>2026-06-28T08:29:55Z</time>
      </trkpt>
      <trkpt lat="51.879258016124368" lon="-9.581670016050339">
        <ele>18.399999999999999</ele>
        <time>2026-06-28T08:30:06Z</time>
      </trkpt>
      <trkpt lat="51.879083001986146" lon="-9.581294003874064">
        <ele>20.809999999999999</ele>
        <time>2026-06-28T08:30:10Z</time>
      </trkpt>
      <trkpt lat="51.879059029743075" lon="-9.581234995275736">
        <ele>21.289999999999999</ele>
        <time>2026-06-28T08:30:11Z</time>
      </trkpt>
      <trkpt lat="51.879050983116031" lon="-9.581214962527156">
        <ele>21.77</ele>
        <time>2026-06-28T08:30:12Z</time>
      </trkpt>
      <trkpt lat="51.87902600504458" lon="-9.581326022744179">
        <ele>22.73</ele>
        <time>2026-06-28T08:30:13Z</time>
      </trkpt>
      <trkpt lat="51.878994992002845" lon="-9.581352006644011">
        <ele>23.210000000000001</ele>
        <time>2026-06-28T08:30:14Z</time>
      </trkpt>
      <trkpt lat="51.878947969526052" lon="-9.581390982493758">
        <ele>23.690000000000001</ele>
        <time>2026-06-28T08:30:15Z</time>
      </trkpt>
      <trkpt lat="51.878901030868292" lon="-9.581429958343506">
        <ele>24.170000000000002</ele>
        <time>2026-06-28T08:30:16Z</time>
      </trkpt>
      <trkpt lat="51.878850990906358" lon="-9.581540012732148">
        <ele>24.170000000000002</ele>
        <time>2026-06-28T08:30:17Z</time>
      </trkpt>
      <trkpt lat="51.878727022558451" lon="-9.581808988004923">
        <ele>24.170000000000002</ele>
        <time>2026-06-28T08:30:19Z</time>
      </trkpt>
      <trkpt lat="51.87866197898984" lon="-9.581953994929791">
        <ele>23.690000000000001</ele>
        <time>2026-06-28T08:30:20Z</time>
      </trkpt>
      <trkpt lat="51.878137020394206" lon="-9.58311497233808">
        <ele>25.129999999999999</ele>
        <time>2026-06-28T08:30:29Z</time>
      </trkpt>
      <trkpt lat="51.877956977114081" lon="-9.583469023928046">
        <ele>26.09</ele>
        <time>2026-06-28T08:30:33Z</time>
      </trkpt>
      <trkpt lat="51.877893023192883" lon="-9.583560973405838">
        <ele>26.57</ele>
        <time>2026-06-28T08:30:34Z</time>
      </trkpt>
      <trkpt lat="51.877809036523104" lon="-9.583571031689644">
        <ele>26.57</ele>
        <time>2026-06-28T08:30:35Z</time>
      </trkpt>
      <trkpt lat="51.877706022933125" lon="-9.583580000326037">
        <ele>26.57</ele>
        <time>2026-06-28T08:30:36Z</time>
      </trkpt>
      <trkpt lat="51.877593034878373" lon="-9.58358796313405">
        <ele>27.530000000000001</ele>
        <time>2026-06-28T08:30:37Z</time>
      </trkpt>
      <trkpt lat="51.876411018893123" lon="-9.583674967288971">
        <ele>27.530000000000001</ele>
        <time>2026-06-28T08:30:47Z</time>
      </trkpt>
      <trkpt lat="51.874812003225088" lon="-9.583782004192472">
        <ele>18.399999999999999</ele>
        <time>2026-06-28T08:31:01Z</time>
      </trkpt>
      <trkpt lat="51.873166970908642" lon="-9.5835439581424">
        <ele>14.08</ele>
        <time>2026-06-28T08:31:14Z</time>
      </trkpt>
      <trkpt lat="51.873051971197128" lon="-9.583467012271285">
        <ele>14.08</ele>
        <time>2026-06-28T08:31:15Z</time>
      </trkpt>
      <trkpt lat="51.87178404070437" lon="-9.582482976838946">
        <ele>14.08</ele>
        <time>2026-06-28T08:31:26Z</time>
      </trkpt>
      <trkpt lat="51.870683999732137" lon="-9.581602038815618">
        <ele>16</ele>
        <time>2026-06-28T08:31:36Z</time>
      </trkpt>
      <trkpt lat="51.870365990325809" lon="-9.581305989995599">
        <ele>15.039999999999999</ele>
        <time>2026-06-28T08:31:40Z</time>
      </trkpt>
      <trkpt lat="51.870297007262707" lon="-9.581315964460373">
        <ele>15.52</ele>
        <time>2026-06-28T08:31:41Z</time>
      </trkpt>
      <trkpt lat="51.870233975350857" lon="-9.581368016079068">
        <ele>15.52</ele>
        <time>2026-06-28T08:31:42Z</time>
      </trkpt>
      <trkpt lat="51.870159963145852" lon="-9.581430964171886">
        <ele>15.039999999999999</ele>
        <time>2026-06-28T08:31:43Z</time>
      </trkpt>
      <trkpt lat="51.870081005617976" lon="-9.581498019397259">
        <ele>15.039999999999999</ele>
        <time>2026-06-28T08:31:44Z</time>
      </trkpt>
      <trkpt lat="51.869840025901794" lon="-9.581760037690401">
        <ele>15.52</ele>
        <time>2026-06-28T08:31:47Z</time>
      </trkpt>
      <trkpt lat="51.869771964848042" lon="-9.581862967461348">
        <ele>15.039999999999999</ele>
        <time>2026-06-28T08:31:48Z</time>
      </trkpt>
      <trkpt lat="51.869714967906475" lon="-9.581979978829622">
        <ele>15.039999999999999</ele>
        <time>2026-06-28T08:31:49Z</time>
      </trkpt>
      <trkpt lat="51.869658976793289" lon="-9.582103025168181">
        <ele>15.039999999999999</ele>
        <time>2026-06-28T08:31:50Z</time>
      </trkpt>
      <trkpt lat="51.869640033692122" lon="-9.58227401599288">
        <ele>15.039999999999999</ele>
        <time>2026-06-28T08:31:51Z</time>
      </trkpt>
      <trkpt lat="51.869627041742206" lon="-9.582445006817579">
        <ele>15.039999999999999</ele>
        <time>2026-06-28T08:31:52Z</time>
      </trkpt>
      <trkpt lat="51.869612038135529" lon="-9.582622032612562">
        <ele>15.039999999999999</ele>
        <time>2026-06-28T08:31:53Z</time>
      </trkpt>
      <trkpt lat="51.869621006771922" lon="-9.582801992073655">
        <ele>15.52</ele>
        <time>2026-06-28T08:31:54Z</time>
      </trkpt>
      <trkpt lat="51.869647996500134" lon="-9.58298496901989">
        <ele>16</ele>
        <time>2026-06-28T08:31:55Z</time>
      </trkpt>
      <trkpt lat="51.869701975956559" lon="-9.58315797150135">
        <ele>16</ele>
        <time>2026-06-28T08:31:56Z</time>
      </trkpt>
      <trkpt lat="51.869757967069745" lon="-9.583333991467953">
        <ele>16.48</ele>
        <time>2026-06-28T08:31:57Z</time>
      </trkpt>
      <trkpt lat="51.869813958182931" lon="-9.583513028919697">
        <ele>16.48</ele>
        <time>2026-06-28T08:31:58Z</time>
      </trkpt>
      <trkpt lat="51.869871038943529" lon="-9.583696005865932">
        <ele>16.960000000000001</ele>
        <time>2026-06-28T08:31:59Z</time>
      </trkpt>
      <trkpt lat="51.869929041713476" lon="-9.583879988640547">
        <ele>16.960000000000001</ele>
        <time>2026-06-28T08:32:00Z</time>
      </trkpt>
      <trkpt lat="51.869974974542856" lon="-9.584026001393795">
        <ele>16.960000000000001</ele>
        <time>2026-06-28T08:32:01Z</time>
      </trkpt>
      <trkpt lat="51.870001964271069" lon="-9.584267986938357">
        <ele>16.960000000000001</ele>
        <time>2026-06-28T08:32:02Z</time>
      </trkpt>
      <trkpt lat="51.87002501450479" lon="-9.584479965269566">
        <ele>17.440000000000001</ele>
        <time>2026-06-28T08:32:03Z</time>
      </trkpt>
      <trkpt lat="51.870027026161551" lon="-9.584689009934664">
        <ele>17.920000000000002</ele>
        <time>2026-06-28T08:32:04Z</time>
      </trkpt>
      <trkpt lat="51.869995007291436" lon="-9.584906017407775">
        <ele>18.879999999999999</ele>
        <time>2026-06-28T08:32:05Z</time>
      </trkpt>
      <trkpt lat="51.86996097676456" lon="-9.58513199351728">
        <ele>19.359999999999999</ele>
        <time>2026-06-28T08:32:06Z</time>
      </trkpt>
      <trkpt lat="51.869910014793277" lon="-9.585349000990391">
        <ele>20.32</ele>
        <time>2026-06-28T08:32:07Z</time>
      </trkpt>
      <trkpt lat="51.86985201202333" lon="-9.585571959614754">
        <ele>20.809999999999999</ele>
        <time>2026-06-28T08:32:08Z</time>
      </trkpt>
      <trkpt lat="51.869791997596622" lon="-9.58579701371491">
        <ele>21.289999999999999</ele>
        <time>2026-06-28T08:32:09Z</time>
      </trkpt>
      <trkpt lat="51.868910975754261" lon="-9.588261041790247">
        <ele>28.02</ele>
        <time>2026-06-28T08:32:20Z</time>
      </trkpt>
      <trkpt lat="51.868611993268132" lon="-9.588855989277363">
        <ele>28.5</ele>
        <time>2026-06-28T08:32:23Z</time>
      </trkpt>
      <trkpt lat="51.868493976071477" lon="-9.589026980102062">
        <ele>28.5</ele>
        <time>2026-06-28T08:32:24Z</time>
      </trkpt>
      <trkpt lat="51.868369001895189" lon="-9.589182967320085">
        <ele>28.5</ele>
        <time>2026-06-28T08:32:25Z</time>
      </trkpt>
      <trkpt lat="51.867713034152985" lon="-9.589921999722719">
        <ele>29.940000000000001</ele>
        <time>2026-06-28T08:32:30Z</time>
      </trkpt>
      <trkpt lat="51.867611026391387" lon="-9.59011897444725">
        <ele>30.420000000000002</ele>
        <time>2026-06-28T08:32:31Z</time>
      </trkpt>
      <trkpt lat="51.866576028987765" lon="-9.592239009216428">
        <ele>29.460000000000001</ele>
        <time>2026-06-28T08:32:41Z</time>
      </trkpt>
      <trkpt lat="51.865944033488631" lon="-9.594109011813998">
        <ele>25.609999999999999</ele>
        <time>2026-06-28T08:32:49Z</time>
      </trkpt>
      <trkpt lat="51.865513036027551" lon="-9.595181979238987">
        <ele>26.09</ele>
        <time>2026-06-28T08:32:54Z</time>
      </trkpt>
      <trkpt lat="51.864655986428261" lon="-9.596908986568451">
        <ele>25.129999999999999</ele>
        <time>2026-06-28T08:33:03Z</time>
      </trkpt>
      <trkpt lat="51.864431016147137" lon="-9.597545005381107">
        <ele>23.690000000000001</ele>
        <time>2026-06-28T08:33:06Z</time>
      </trkpt>
      <trkpt lat="51.864406960085034" lon="-9.597769975662231">
        <ele>23.690000000000001</ele>
        <time>2026-06-28T08:33:07Z</time>
      </trkpt>
      <trkpt lat="51.864404026418924" lon="-9.597997963428497">
        <ele>23.690000000000001</ele>
        <time>2026-06-28T08:33:08Z</time>
      </trkpt>
      <trkpt lat="51.864435039460659" lon="-9.59847497753799">
        <ele>24.649999999999999</ele>
        <time>2026-06-28T08:33:10Z</time>
      </trkpt>
      <trkpt lat="51.864536041393876" lon="-9.600306004285812">
        <ele>24.649999999999999</ele>
        <time>2026-06-28T08:33:18Z</time>
      </trkpt>
      <trkpt lat="51.86450301669538" lon="-9.600529968738556">
        <ele>25.129999999999999</ele>
        <time>2026-06-28T08:33:19Z</time>
      </trkpt>
      <trkpt lat="51.864445013925433" lon="-9.600764997303486">
        <ele>25.129999999999999</ele>
        <time>2026-06-28T08:33:20Z</time>
      </trkpt>
      <trkpt lat="51.86418098397553" lon="-9.601721037179232">
        <ele>27.050000000000001</ele>
        <time>2026-06-28T08:33:24Z</time>
      </trkpt>
      <trkpt lat="51.864090962335467" lon="-9.601918011903763">
        <ele>27.050000000000001</ele>
        <time>2026-06-28T08:33:25Z</time>
      </trkpt>
      <trkpt lat="51.863991972059011" lon="-9.602097971364856">
        <ele>27.530000000000001</ele>
        <time>2026-06-28T08:33:26Z</time>
      </trkpt>
      <trkpt lat="51.86364596709609" lon="-9.602571967989206">
        <ele>28.98</ele>
        <time>2026-06-28T08:33:29Z</time>
      </trkpt>
      <trkpt lat="51.863544965162873" lon="-9.602759974077344">
        <ele>29.940000000000001</ele>
        <time>2026-06-28T08:33:30Z</time>
      </trkpt>
      <trkpt lat="51.86342996545136" lon="-9.602973964065313">
        <ele>30.420000000000002</ele>
        <time>2026-06-28T08:33:31Z</time>
      </trkpt>
      <trkpt lat="51.862812973558903" lon="-9.604649003595114">
        <ele>33.299999999999997</ele>
        <time>2026-06-28T08:33:39Z</time>
      </trkpt>
      <trkpt lat="51.862641982734203" lon="-9.605047982186079">
        <ele>33.780000000000001</ele>
        <time>2026-06-28T08:33:41Z</time>
      </trkpt>
      <trkpt lat="51.861651996150613" lon="-9.606725033372641">
        <ele>31.859999999999999</ele>
        <time>2026-06-28T08:33:50Z</time>
      </trkpt>
      <trkpt lat="51.860834006220102" lon="-9.607931021600962">
        <ele>30.899999999999999</ele>
        <time>2026-06-28T08:33:57Z</time>
      </trkpt>
      <trkpt lat="51.860589003190398" lon="-9.608121961355209">
        <ele>30.899999999999999</ele>
        <time>2026-06-28T08:33:59Z</time>
      </trkpt>
      <trkpt lat="51.860077958554029" lon="-9.608444999903441">
        <ele>32.340000000000003</ele>
        <time>2026-06-28T08:34:03Z</time>
      </trkpt>
      <trkpt lat="51.859965976327658" lon="-9.608527980744839">
        <ele>32.82</ele>
        <time>2026-06-28T08:34:04Z</time>
      </trkpt>
      <trkpt lat="51.859882995486259" lon="-9.608682040125132">
        <ele>33.780000000000001</ele>
        <time>2026-06-28T08:34:05Z</time>
      </trkpt>
      <trkpt lat="51.859804037958384" lon="-9.60883199237287">
        <ele>34.740000000000002</ele>
        <time>2026-06-28T08:34:06Z</time>
      </trkpt>
      <trkpt lat="51.859737988561392" lon="-9.609041959047318">
        <ele>35.229999999999997</ele>
        <time>2026-06-28T08:34:07Z</time>
      </trkpt>
      <trkpt lat="51.859672022983432" lon="-9.609254021197557">
        <ele>36.189999999999998</ele>
        <time>2026-06-28T08:34:08Z</time>
      </trkpt>
      <trkpt lat="51.859022006392479" lon="-9.611445972695947">
        <ele>38.109999999999999</ele>
        <time>2026-06-28T08:34:18Z</time>
      </trkpt>
      <trkpt lat="51.85878898948431" lon="-9.612618014216423">
        <ele>35.710000000000001</ele>
        <time>2026-06-28T08:34:23Z</time>
      </trkpt>
      <trkpt lat="51.858782032504678" lon="-9.612864023074508">
        <ele>35.229999999999997</ele>
        <time>2026-06-28T08:34:24Z</time>
      </trkpt>
      <trkpt lat="51.858774991706014" lon="-9.613109026104212">
        <ele>34.740000000000002</ele>
        <time>2026-06-28T08:34:25Z</time>
      </trkpt>
      <trkpt lat="51.858715983107686" lon="-9.614773001521826">
        <ele>32.82</ele>
        <time>2026-06-28T08:34:32Z</time>
      </trkpt>
      <trkpt lat="51.858693016692996" lon="-9.615013981238008">
        <ele>33.299999999999997</ele>
        <time>2026-06-28T08:34:33Z</time>
      </trkpt>
      <trkpt lat="51.85844399034977" lon="-9.617069978266954">
        <ele>34.259999999999998</ele>
        <time>2026-06-28T08:34:41Z</time>
      </trkpt>
      <trkpt lat="51.858235029503703" lon="-9.618255011737347">
        <ele>32.82</ele>
        <time>2026-06-28T08:34:46Z</time>
      </trkpt>
      <trkpt lat="51.858115000650287" lon="-9.618694977834821">
        <ele>31.379999999999999</ele>
        <time>2026-06-28T08:34:48Z</time>
      </trkpt>
      <trkpt lat="51.858031013980508" lon="-9.618894970044494">
        <ele>30.899999999999999</ele>
        <time>2026-06-28T08:34:49Z</time>
      </trkpt>
      <trkpt lat="51.857831021770835" lon="-9.619251033291221">
        <ele>30.420000000000002</ele>
        <time>2026-06-28T08:34:51Z</time>
      </trkpt>
      <trkpt lat="51.857615020126104" lon="-9.619559990242124">
        <ele>28.98</ele>
        <time>2026-06-28T08:34:53Z</time>
      </trkpt>
      <trkpt lat="51.857545031234622" lon="-9.619794012978673">
        <ele>28.5</ele>
        <time>2026-06-28T08:34:54Z</time>
      </trkpt>
      <trkpt lat="51.857486022636294" lon="-9.619989981874824">
        <ele>28.02</ele>
        <time>2026-06-28T08:34:55Z</time>
      </trkpt>
      <trkpt lat="51.857439000159502" lon="-9.620236996561289">
        <ele>28.02</ele>
        <time>2026-06-28T08:34:56Z</time>
      </trkpt>
      <trkpt lat="51.857393989339471" lon="-9.620473030954599">
        <ele>27.530000000000001</ele>
        <time>2026-06-28T08:34:57Z</time>
      </trkpt>
      <trkpt lat="51.857229033485055" lon="-9.621340977028012">
        <ele>26.09</ele>
        <time>2026-06-28T08:35:01Z</time>
      </trkpt>
      <trkpt lat="51.85711202211678" lon="-9.621530994772911">
        <ele>25.609999999999999</ele>
        <time>2026-06-28T08:35:02Z</time>
      </trkpt>
      <trkpt lat="51.857013031840324" lon="-9.621689999476075">
        <ele>25.609999999999999</ele>
        <time>2026-06-28T08:35:03Z</time>
      </trkpt>
      <trkpt lat="51.856702985242009" lon="-9.62219400331378">
        <ele>25.129999999999999</ele>
        <time>2026-06-28T08:35:06Z</time>
      </trkpt>
      <trkpt lat="51.85659795999527" lon="-9.622371029108763">
        <ele>25.129999999999999</ele>
        <time>2026-06-28T08:35:07Z</time>
      </trkpt>
      <trkpt lat="51.856510033831" lon="-9.622576972469688">
        <ele>24.649999999999999</ele>
        <time>2026-06-28T08:35:08Z</time>
      </trkpt>
      <trkpt lat="51.856422023847699" lon="-9.622786017134786">
        <ele>24.649999999999999</ele>
        <time>2026-06-28T08:35:09Z</time>
      </trkpt>
      <trkpt lat="51.856332002207637" lon="-9.622999001294375">
        <ele>24.170000000000002</ele>
        <time>2026-06-28T08:35:10Z</time>
      </trkpt>
      <trkpt lat="51.856149025261402" lon="-9.623429998755455">
        <ele>23.210000000000001</ele>
        <time>2026-06-28T08:35:12Z</time>
      </trkpt>
      <trkpt lat="51.856056991964579" lon="-9.623646000400186">
        <ele>23.210000000000001</ele>
        <time>2026-06-28T08:35:13Z</time>
      </trkpt>
      <trkpt lat="51.855508983135223" lon="-9.624937986955047">
        <ele>22.25</ele>
        <time>2026-06-28T08:35:20Z</time>
      </trkpt>
      <trkpt lat="51.854744972661138" lon="-9.626486962661147">
        <ele>17.920000000000002</ele>
        <time>2026-06-28T08:35:28Z</time>
      </trkpt>
      <trkpt lat="51.854538023471832" lon="-9.626831039786339">
        <ele>17.440000000000001</ele>
        <time>2026-06-28T08:35:30Z</time>
      </trkpt>
      <trkpt lat="51.854434004053473" lon="-9.626947967335582">
        <ele>16.960000000000001</ele>
        <time>2026-06-28T08:35:31Z</time>
      </trkpt>
      <trkpt lat="51.854331996291876" lon="-9.627062967047095">
        <ele>16.48</ele>
        <time>2026-06-28T08:35:32Z</time>
      </trkpt>
      <trkpt lat="51.854219008237123" lon="-9.627146031707525">
        <ele>16.48</ele>
        <time>2026-06-28T08:35:33Z</time>
      </trkpt>
      <trkpt lat="51.854079030454159" lon="-9.627178972586989">
        <ele>16</ele>
        <time>2026-06-28T08:35:34Z</time>
      </trkpt>
      <trkpt lat="51.853933017700911" lon="-9.627214008942246">
        <ele>15.52</ele>
        <time>2026-06-28T08:35:35Z</time>
      </trkpt>
      <trkpt lat="51.853788010776043" lon="-9.627186013385654">
        <ele>14.56</ele>
        <time>2026-06-28T08:35:36Z</time>
      </trkpt>
      <trkpt lat="51.853636968880892" lon="-9.627139996737242">
        <ele>13.6</ele>
        <time>2026-06-28T08:35:37Z</time>
      </trkpt>
      <trkpt lat="51.853480981662869" lon="-9.627091968432069">
        <ele>13.119999999999999</ele>
        <time>2026-06-28T08:35:38Z</time>
      </trkpt>
      <trkpt lat="51.853186022490263" lon="-9.627002030611038">
        <ele>12.15</ele>
        <time>2026-06-28T08:35:40Z</time>
      </trkpt>
      <trkpt lat="51.853050990030169" lon="-9.6269850153476">
        <ele>12.15</ele>
        <time>2026-06-28T08:35:41Z</time>
      </trkpt>
      <trkpt lat="51.852930039167404" lon="-9.627019967883825">
        <ele>12.15</ele>
        <time>2026-06-28T08:35:42Z</time>
      </trkpt>
      <trkpt lat="51.85281403362751" lon="-9.627078976482153">
        <ele>11.67</ele>
        <time>2026-06-28T08:35:43Z</time>
      </trkpt>
      <trkpt lat="51.852710014209151" lon="-9.627159023657441">
        <ele>11.19</ele>
        <time>2026-06-28T08:35:44Z</time>
      </trkpt>
      <trkpt lat="51.852628961205482" lon="-9.627299001440406">
        <ele>11.19</ele>
        <time>2026-06-28T08:35:45Z</time>
      </trkpt>
      <trkpt lat="51.852543968707323" lon="-9.627463035285473">
        <ele>11.19</ele>
        <time>2026-06-28T08:35:46Z</time>
      </trkpt>
      <trkpt lat="51.852455036714673" lon="-9.627636037766933">
        <ele>11.19</ele>
        <time>2026-06-28T08:35:47Z</time>
      </trkpt>
      <trkpt lat="51.852360991761088" lon="-9.627819014713168">
        <ele>11.19</ele>
        <time>2026-06-28T08:35:48Z</time>
      </trkpt>
      <trkpt lat="51.852275999262929" lon="-9.628022024407983">
        <ele>11.67</ele>
        <time>2026-06-28T08:35:49Z</time>
      </trkpt>
      <trkpt lat="51.852198969572783" lon="-9.628246994689107">
        <ele>11.67</ele>
        <time>2026-06-28T08:35:50Z</time>
      </trkpt>
      <trkpt lat="51.852120012044907" lon="-9.628479005768895">
        <ele>11.67</ele>
        <time>2026-06-28T08:35:51Z</time>
      </trkpt>
      <trkpt lat="51.851408975198865" lon="-9.630569033324719">
        <ele>13.119999999999999</ele>
        <time>2026-06-28T08:36:00Z</time>
      </trkpt>
      <trkpt lat="51.851328006014228" lon="-9.630804983898997">
        <ele>13.6</ele>
        <time>2026-06-28T08:36:01Z</time>
      </trkpt>
      <trkpt lat="51.85124502517283" lon="-9.63104403577745">
        <ele>14.56</ele>
        <time>2026-06-28T08:36:02Z</time>
      </trkpt>
      <trkpt lat="51.850757030770183" lon="-9.632384972646833">
        <ele>18.879999999999999</ele>
        <time>2026-06-28T08:36:08Z</time>
      </trkpt>
      <trkpt lat="51.850662985816598" lon="-9.632584964856505">
        <ele>19.359999999999999</ele>
        <time>2026-06-28T08:36:09Z</time>
      </trkpt>
      <trkpt lat="51.85055703856051" lon="-9.63274396955967">
        <ele>19.359999999999999</ele>
        <time>2026-06-28T08:36:10Z</time>
      </trkpt>
      <trkpt lat="51.850312035530806" lon="-9.633029038086534">
        <ele>19.359999999999999</ele>
        <time>2026-06-28T08:36:12Z</time>
      </trkpt>
      <trkpt lat="51.849813982844353" lon="-9.633547961711884">
        <ele>20.32</ele>
        <time>2026-06-28T08:36:16Z</time>
      </trkpt>
      <trkpt lat="51.849685991182923" lon="-9.633681988343597">
        <ele>20.809999999999999</ele>
        <time>2026-06-28T08:36:17Z</time>
      </trkpt>
      <trkpt lat="51.848441027104855" lon="-9.635100960731506">
        <ele>26.09</ele>
        <time>2026-06-28T08:36:27Z</time>
      </trkpt>
      <trkpt lat="51.847911039367318" lon="-9.635842004790902">
        <ele>27.530000000000001</ele>
        <time>2026-06-28T08:36:32Z</time>
      </trkpt>
      <trkpt lat="51.847816994413733" lon="-9.636004026979208">
        <ele>27.050000000000001</ele>
        <time>2026-06-28T08:36:33Z</time>
      </trkpt>
      <trkpt lat="51.847762009128928" lon="-9.636198990046978">
        <ele>26.57</ele>
        <time>2026-06-28T08:36:34Z</time>
      </trkpt>
      <trkpt lat="51.847708029672503" lon="-9.636406023055315">
        <ele>26.09</ele>
        <time>2026-06-28T08:36:35Z</time>
      </trkpt>
      <trkpt lat="51.84765899553895" lon="-9.636626970022917">
        <ele>25.609999999999999</ele>
        <time>2026-06-28T08:36:36Z</time>
      </trkpt>
      <trkpt lat="51.847181981429458" lon="-9.63916702196002">
        <ele>20.32</ele>
        <time>2026-06-28T08:36:46Z</time>
      </trkpt>
      <trkpt lat="51.847131019458175" lon="-9.639443038031459">
        <ele>19.84</ele>
        <time>2026-06-28T08:36:47Z</time>
      </trkpt>
      <trkpt lat="51.847078967839479" lon="-9.639719976112247">
        <ele>19.359999999999999</ele>
        <time>2026-06-28T08:36:48Z</time>
      </trkpt>
      <trkpt lat="51.84656398370862" lon="-9.64179097674787">
        <ele>16</ele>
        <time>2026-06-28T08:36:56Z</time>
      </trkpt>
      <trkpt lat="51.846444960683584" lon="-9.641973031684756">
        <ele>16</ele>
        <time>2026-06-28T08:36:57Z</time>
      </trkpt>
      <trkpt lat="51.846332978457212" lon="-9.642145028337836">
        <ele>15.039999999999999</ele>
        <time>2026-06-28T08:36:58Z</time>
      </trkpt>
      <trkpt lat="51.845989990979433" lon="-9.64267099276185">
        <ele>14.08</ele>
        <time>2026-06-28T08:37:01Z</time>
      </trkpt>
      <trkpt lat="51.845023976638913" lon="-9.644214017316699">
        <ele>13.6</ele>
        <time>2026-06-28T08:37:10Z</time>
      </trkpt>
      <trkpt lat="51.844919035211205" lon="-9.644338991492987">
        <ele>13.119999999999999</ele>
        <time>2026-06-28T08:37:11Z</time>
      </trkpt>
      <trkpt lat="51.844702027738094" lon="-9.644600003957748">
        <ele>12.630000000000001</ele>
        <time>2026-06-28T08:37:13Z</time>
      </trkpt>
      <trkpt lat="51.844598008319736" lon="-9.644745010882616">
        <ele>12.15</ele>
        <time>2026-06-28T08:37:14Z</time>
      </trkpt>
      <trkpt lat="51.844530031085014" lon="-9.644931005313993">
        <ele>12.630000000000001</ele>
        <time>2026-06-28T08:37:15Z</time>
      </trkpt>
      <trkpt lat="51.844463981688023" lon="-9.645109036937356">
        <ele>12.630000000000001</ele>
        <time>2026-06-28T08:37:16Z</time>
      </trkpt>
      <trkpt lat="51.844449983909726" lon="-9.645301988348365">
        <ele>12.630000000000001</ele>
        <time>2026-06-28T08:37:17Z</time>
      </trkpt>
      <trkpt lat="51.84443598613143" lon="-9.645514972507954">
        <ele>12.630000000000001</ele>
        <time>2026-06-28T08:37:18Z</time>
      </trkpt>
      <trkpt lat="51.844422994181514" lon="-9.645732985809445">
        <ele>12.15</ele>
        <time>2026-06-28T08:37:19Z</time>
      </trkpt>
      <trkpt lat="51.844391981139779" lon="-9.646805031225085">
        <ele>11.67</ele>
        <time>2026-06-28T08:37:24Z</time>
      </trkpt>
      <trkpt lat="51.844440009444952" lon="-9.648829009383917">
        <ele>10.23</ele>
        <time>2026-06-28T08:37:33Z</time>
      </trkpt>
      <trkpt lat="51.844468005001545" lon="-9.64905196800828">
        <ele>10.23</ele>
        <time>2026-06-28T08:37:34Z</time>
      </trkpt>
      <trkpt lat="51.844496000558138" lon="-9.649279033765197">
        <ele>10.23</ele>
        <time>2026-06-28T08:37:35Z</time>
      </trkpt>
      <trkpt lat="51.844548974186182" lon="-9.649498974904418">
        <ele>10.710000000000001</ele>
        <time>2026-06-28T08:37:36Z</time>
      </trkpt>
      <trkpt lat="51.844612006098032" lon="-9.64971698820591">
        <ele>11.19</ele>
        <time>2026-06-28T08:37:37Z</time>
      </trkpt>
      <trkpt lat="51.844920041039586" lon="-9.651670977473259">
        <ele>11.67</ele>
        <time>2026-06-28T08:37:45Z</time>
      </trkpt>
      <trkpt lat="51.844934038817883" lon="-9.652712009847164">
        <ele>12.630000000000001</ele>
        <time>2026-06-28T08:37:49Z</time>
      </trkpt>
      <trkpt lat="51.844885004684329" lon="-9.652965981513262">
        <ele>13.119999999999999</ele>
        <time>2026-06-28T08:37:50Z</time>
      </trkpt>
      <trkpt lat="51.844458030536771" lon="-9.654887029901147">
        <ele>15.52</ele>
        <time>2026-06-28T08:37:58Z</time>
      </trkpt>
      <trkpt lat="51.844362979754806" lon="-9.655077969655395">
        <ele>16</ele>
        <time>2026-06-28T08:37:59Z</time>
      </trkpt>
      <trkpt lat="51.844164999201894" lon="-9.655473008751869">
        <ele>16.48</ele>
        <time>2026-06-28T08:38:01Z</time>
      </trkpt>
      <trkpt lat="51.844089981168509" lon="-9.655708037316799">
        <ele>16.48</ele>
        <time>2026-06-28T08:38:02Z</time>
      </trkpt>
      <trkpt lat="51.84402703307569" lon="-9.655956979840994">
        <ele>16.48</ele>
        <time>2026-06-28T08:38:03Z</time>
      </trkpt>
      <trkpt lat="51.843611039221287" lon="-9.658037032932043">
        <ele>16.48</ele>
        <time>2026-06-28T08:38:12Z</time>
      </trkpt>
      <trkpt lat="51.843549013137817" lon="-9.658242976292968">
        <ele>16.48</ele>
        <time>2026-06-28T08:38:13Z</time>
      </trkpt>
      <trkpt lat="51.843452034518123" lon="-9.658414972946048">
        <ele>16</ele>
        <time>2026-06-28T08:38:14Z</time>
      </trkpt>
      <trkpt lat="51.843348015099764" lon="-9.658599961549044">
        <ele>16</ele>
        <time>2026-06-28T08:38:15Z</time>
      </trkpt>
      <trkpt lat="51.843237960711122" lon="-9.658795008435845">
        <ele>15.52</ele>
        <time>2026-06-28T08:38:16Z</time>
      </trkpt>
      <trkpt lat="51.843139976263046" lon="-9.659010004252195">
        <ele>15.039999999999999</ele>
        <time>2026-06-28T08:38:17Z</time>
      </trkpt>
      <trkpt lat="51.843050960451365" lon="-9.659232962876558">
        <ele>15.039999999999999</ele>
        <time>2026-06-28T08:38:18Z</time>
      </trkpt>
      <trkpt lat="51.842973008751869" lon="-9.659460028633475">
        <ele>15.039999999999999</ele>
        <time>2026-06-28T08:38:19Z</time>
      </trkpt>
      <trkpt lat="51.842935960739851" lon="-9.659692039713264">
        <ele>15.039999999999999</ele>
        <time>2026-06-28T08:38:20Z</time>
      </trkpt>
      <trkpt lat="51.842906037345529" lon="-9.659924972802401">
        <ele>15.039999999999999</ele>
        <time>2026-06-28T08:38:21Z</time>
      </trkpt>
      <trkpt lat="51.842883992940187" lon="-9.660167964175344">
        <ele>15.039999999999999</ele>
        <time>2026-06-28T08:38:22Z</time>
      </trkpt>
      <trkpt lat="51.842687018215656" lon="-9.662979003041983">
        <ele>13.6</ele>
        <time>2026-06-28T08:38:33Z</time>
      </trkpt>
      <trkpt lat="51.84237596578896" lon="-9.664970962330699">
        <ele>12.630000000000001</ele>
        <time>2026-06-28T08:38:41Z</time>
      </trkpt>
      <trkpt lat="51.842230036854744" lon="-9.665973018854857">
        <ele>14.08</ele>
        <time>2026-06-28T08:38:45Z</time>
      </trkpt>
      <trkpt lat="51.842133980244398" lon="-9.666194971650839">
        <ele>14.08</ele>
        <time>2026-06-28T08:38:46Z</time>
      </trkpt>
      <trkpt lat="51.842040019109845" lon="-9.666410973295569">
        <ele>14.08</ele>
        <time>2026-06-28T08:38:47Z</time>
      </trkpt>
      <trkpt lat="51.841495027765632" lon="-9.667922984808683">
        <ele>15.039999999999999</ele>
        <time>2026-06-28T08:38:54Z</time>
      </trkpt>
      <trkpt lat="51.841462003067136" lon="-9.668180979788303">
        <ele>15.039999999999999</ele>
        <time>2026-06-28T08:38:55Z</time>
      </trkpt>
      <trkpt lat="51.841434007510543" lon="-9.66843101195991">
        <ele>14.56</ele>
        <time>2026-06-28T08:38:56Z</time>
      </trkpt>
      <trkpt lat="51.841425960883498" lon="-9.66868800111115">
        <ele>14.56</ele>
        <time>2026-06-28T08:38:57Z</time>
      </trkpt>
      <trkpt lat="51.841417998075485" lon="-9.668930992484093">
        <ele>13.6</ele>
        <time>2026-06-28T08:38:58Z</time>
      </trkpt>
      <trkpt lat="51.841434007510543" lon="-9.669142970815301">
        <ele>12.630000000000001</ele>
        <time>2026-06-28T08:38:59Z</time>
      </trkpt>
      <trkpt lat="51.841456973925233" lon="-9.669299041852355">
        <ele>11.67</ele>
        <time>2026-06-28T08:39:00Z</time>
      </trkpt>
      <trkpt lat="51.841540038585663" lon="-9.669541027396917">
        <ele>10.710000000000001</ele>
        <time>2026-06-28T08:39:01Z</time>
      </trkpt>
      <trkpt lat="51.841610027477145" lon="-9.669744959101081">
        <ele>9.75</ele>
        <time>2026-06-28T08:39:02Z</time>
      </trkpt>
      <trkpt lat="51.841682028025389" lon="-9.669954003766179">
        <ele>9.27</ele>
        <time>2026-06-28T08:39:03Z</time>
      </trkpt>
      <trkpt lat="51.841759979724884" lon="-9.670167993754149">
        <ele>8.789999999999999</ele>
        <time>2026-06-28T08:39:04Z</time>
      </trkpt>
      <trkpt lat="51.84185603633523" lon="-9.670391036197543">
        <ele>8.310000000000001</ele>
        <time>2026-06-28T08:39:05Z</time>
      </trkpt>
      <trkpt lat="51.841953014954925" lon="-9.670615000650287">
        <ele>7.83</ele>
        <time>2026-06-28T08:39:06Z</time>
      </trkpt>
      <trkpt lat="51.842102967202663" lon="-9.671058990061283">
        <ele>6.39</ele>
        <time>2026-06-28T08:39:08Z</time>
      </trkpt>
      <trkpt lat="51.84213800355792" lon="-9.671293012797833">
        <ele>5.91</ele>
        <time>2026-06-28T08:39:09Z</time>
      </trkpt>
      <trkpt lat="51.842174967750907" lon="-9.671534998342395">
        <ele>4.94</ele>
        <time>2026-06-28T08:39:10Z</time>
      </trkpt>
      <trkpt lat="51.842173961922526" lon="-9.671798022463918">
        <ele>3.98</ele>
        <time>2026-06-28T08:39:11Z</time>
      </trkpt>
      <trkpt lat="51.842155018821359" lon="-9.672066997736692">
        <ele>3.02</ele>
        <time>2026-06-28T08:39:12Z</time>
      </trkpt>
      <trkpt lat="51.84209500439465" lon="-9.672885993495584">
        <ele>2.54</ele>
        <time>2026-06-28T08:39:15Z</time>
      </trkpt>
      <trkpt lat="51.842075977474451" lon="-9.673151029273868">
        <ele>2.54</ele>
        <time>2026-06-28T08:39:16Z</time>
      </trkpt>
      <trkpt lat="51.842087963595986" lon="-9.67528598383069">
        <ele>-0.34</ele>
        <time>2026-06-28T08:39:24Z</time>
      </trkpt>
      <trkpt lat="51.842080000787973" lon="-9.676244035363197">
        <ele>-2.75</ele>
        <time>2026-06-28T08:39:28Z</time>
      </trkpt>
      <trkpt lat="51.841773977503181" lon="-9.678302966058254">
        <ele>-0.34</ele>
        <time>2026-06-28T08:39:36Z</time>
      </trkpt>
      <trkpt lat="51.841738019138575" lon="-9.678546963259578">
        <ele>0.14</ele>
        <time>2026-06-28T08:39:37Z</time>
      </trkpt>
      <trkpt lat="51.841701976954937" lon="-9.678792972117662">
        <ele>0.62</ele>
        <time>2026-06-28T08:39:38Z</time>
      </trkpt>
      <trkpt lat="51.841666018590331" lon="-9.679035963490605">
        <ele>1.1</ele>
        <time>2026-06-28T08:39:39Z</time>
      </trkpt>
      <trkpt lat="51.841631988063455" lon="-9.679273003712297">
        <ele>1.58</ele>
        <time>2026-06-28T08:39:40Z</time>
      </trkpt>
      <trkpt lat="51.841596029698849" lon="-9.67951700091362">
        <ele>2.06</ele>
        <time>2026-06-28T08:39:41Z</time>
      </trkpt>
      <trkpt lat="51.841526040807366" lon="-9.679998038336635">
        <ele>1.58</ele>
        <time>2026-06-28T08:39:43Z</time>
      </trkpt>
      <trkpt lat="51.841396959498525" lon="-9.681008979678154">
        <ele>-0.34</ele>
        <time>2026-06-28T08:39:47Z</time>
      </trkpt>
      <trkpt lat="51.841379022225738" lon="-9.681267980486155">
        <ele>0.14</ele>
        <time>2026-06-28T08:39:48Z</time>
      </trkpt>
      <trkpt lat="51.841371981427073" lon="-9.681532010436058">
        <ele>0.62</ele>
        <time>2026-06-28T08:39:49Z</time>
      </trkpt>
      <trkpt lat="51.841371981427073" lon="-9.682831037789583">
        <ele>2.54</ele>
        <time>2026-06-28T08:39:54Z</time>
      </trkpt>
      <trkpt lat="51.841186992824078" lon="-9.684347994625568">
        <ele>1.1</ele>
        <time>2026-06-28T08:40:00Z</time>
      </trkpt>
      <trkpt lat="51.840904019773006" lon="-9.686382031068206">
        <ele>-0.34</ele>
        <time>2026-06-28T08:40:08Z</time>
      </trkpt>
      <trkpt lat="51.840810980647802" lon="-9.687158027663827">
        <ele>1.58</ele>
        <time>2026-06-28T08:40:11Z</time>
      </trkpt>
      <trkpt lat="51.840778039768338" lon="-9.687428008764982">
        <ele>2.54</ele>
        <time>2026-06-28T08:40:12Z</time>
      </trkpt>
      <trkpt lat="51.840712996199727" lon="-9.687970988452435">
        <ele>3.98</ele>
        <time>2026-06-28T08:40:14Z</time>
      </trkpt>
      <trkpt lat="51.840682988986373" lon="-9.688232000917196">
        <ele>4.94</ele>
        <time>2026-06-28T08:40:15Z</time>
      </trkpt>
      <trkpt lat="51.840575030073524" lon="-9.690798036754131">
        <ele>11.19</ele>
        <time>2026-06-28T08:40:25Z</time>
      </trkpt>
      <trkpt lat="51.840599002316594" lon="-9.691764973104">
        <ele>13.6</ele>
        <time>2026-06-28T08:40:29Z</time>
      </trkpt>
      <trkpt lat="51.840572012588382" lon="-9.691974017769098">
        <ele>14.08</ele>
        <time>2026-06-28T08:40:30Z</time>
      </trkpt>
      <trkpt lat="51.840539993718266" lon="-9.692216003313661">
        <ele>14.08</ele>
        <time>2026-06-28T08:40:31Z</time>
      </trkpt>
      <trkpt lat="51.840256014838815" lon="-9.694796036928892">
        <ele>16</ele>
        <time>2026-06-28T08:40:41Z</time>
      </trkpt>
      <trkpt lat="51.839999025687575" lon="-9.697120003402233">
        <ele>19.84</ele>
        <time>2026-06-28T08:40:50Z</time>
      </trkpt>
      <trkpt lat="51.83994697406888" lon="-9.697361988946796">
        <ele>20.32</ele>
        <time>2026-06-28T08:40:51Z</time>
      </trkpt>
      <trkpt lat="51.839405000209808" lon="-9.699703976511955">
        <ele>19.359999999999999</ele>
        <time>2026-06-28T08:41:01Z</time>
      </trkpt>
      <trkpt lat="51.838443009182811" lon="-9.702131962403655">
        <ele>21.77</ele>
        <time>2026-06-28T08:41:12Z</time>
      </trkpt>
      <trkpt lat="51.837455034255981" lon="-9.704426005482674">
        <ele>20.809999999999999</ele>
        <time>2026-06-28T08:41:22Z</time>
      </trkpt>
      <trkpt lat="51.836860002949834" lon="-9.706488037481904">
        <ele>20.32</ele>
        <time>2026-06-28T08:41:30Z</time>
      </trkpt>
      <trkpt lat="51.836339989677072" lon="-9.709134036675096">
        <ele>21.289999999999999</ele>
        <time>2026-06-28T08:41:40Z</time>
      </trkpt>
      <trkpt lat="51.836107978597283" lon="-9.710080018267036">
        <ele>21.77</ele>
        <time>2026-06-28T08:41:44Z</time>
      </trkpt>
      <trkpt lat="51.836004965007305" lon="-9.710273975506425">
        <ele>21.77</ele>
        <time>2026-06-28T08:41:45Z</time>
      </trkpt>
      <trkpt lat="51.835901029407978" lon="-9.710469022393227">
        <ele>22.25</ele>
        <time>2026-06-28T08:41:46Z</time>
      </trkpt>
      <trkpt lat="51.835231985896826" lon="-9.711931999772787">
        <ele>23.210000000000001</ele>
        <time>2026-06-28T08:41:54Z</time>
      </trkpt>
      <trkpt lat="51.834823032841086" lon="-9.712568018585444">
        <ele>23.690000000000001</ele>
        <time>2026-06-28T08:41:58Z</time>
      </trkpt>
      <trkpt lat="51.834734017029405" lon="-9.712799023836851">
        <ele>24.170000000000002</ele>
        <time>2026-06-28T08:41:59Z</time>
      </trkpt>
      <trkpt lat="51.834378959611058" lon="-9.713716004043818">
        <ele>26.57</ele>
        <time>2026-06-28T08:42:03Z</time>
      </trkpt>
      <trkpt lat="51.833517970517278" lon="-9.715518029406667">
        <ele>31.379999999999999</ele>
        <time>2026-06-28T08:42:13Z</time>
      </trkpt>
      <trkpt lat="51.83345602825284" lon="-9.715755991637707">
        <ele>31.859999999999999</ele>
        <time>2026-06-28T08:42:14Z</time>
      </trkpt>
      <trkpt lat="51.833400037139654" lon="-9.716022033244371">
        <ele>31.859999999999999</ele>
        <time>2026-06-28T08:42:15Z</time>
      </trkpt>
      <trkpt lat="51.832997035235167" lon="-9.717934029176831">
        <ele>33.299999999999997</ele>
        <time>2026-06-28T08:42:22Z</time>
      </trkpt>
      <trkpt lat="51.832184996455908" lon="-9.720267970114946">
        <ele>34.740000000000002</ele>
        <time>2026-06-28T08:42:32Z</time>
      </trkpt>
      <trkpt lat="51.831712005659938" lon="-9.72248699516058">
        <ele>33.780000000000001</ele>
        <time>2026-06-28T08:42:41Z</time>
      </trkpt>
      <trkpt lat="51.831657020375133" lon="-9.7227449901402">
        <ele>34.259999999999998</ele>
        <time>2026-06-28T08:42:42Z</time>
      </trkpt>
      <trkpt lat="51.831563981249928" lon="-9.722974989563227">
        <ele>34.259999999999998</ele>
        <time>2026-06-28T08:42:43Z</time>
      </trkpt>
      <trkpt lat="51.830655969679356" lon="-9.725035009905696">
        <ele>36.670000000000002</ele>
        <time>2026-06-28T08:42:52Z</time>
      </trkpt>
      <trkpt lat="51.829978041350842" lon="-9.726261030882597">
        <ele>35.229999999999997</ele>
        <time>2026-06-28T08:42:58Z</time>
      </trkpt>
      <trkpt lat="51.829848960042" lon="-9.72644099034369">
        <ele>35.229999999999997</ele>
        <time>2026-06-28T08:42:59Z</time>
      </trkpt>
      <trkpt lat="51.828487990424037" lon="-9.727783016860485">
        <ele>35.229999999999997</ele>
        <time>2026-06-28T08:43:08Z</time>
      </trkpt>
      <trkpt lat="51.827432960271835" lon="-9.728907030075789">
        <ele>35.710000000000001</ele>
        <time>2026-06-28T08:43:15Z</time>
      </trkpt>
      <trkpt lat="51.826424030587077" lon="-9.730404959991574">
        <ele>31.859999999999999</ele>
        <time>2026-06-28T08:43:22Z</time>
      </trkpt>
      <trkpt lat="51.826152037829161" lon="-9.730789018794894">
        <ele>31.379999999999999</ele>
        <time>2026-06-28T08:43:24Z</time>
      </trkpt>
      <trkpt lat="51.825995966792107" lon="-9.730896977707744">
        <ele>31.379999999999999</ele>
        <time>2026-06-28T08:43:25Z</time>
      </trkpt>
      <trkpt lat="51.825839979574084" lon="-9.730971995741129">
        <ele>30.899999999999999</ele>
        <time>2026-06-28T08:43:26Z</time>
      </trkpt>
      <trkpt lat="51.825678963214159" lon="-9.731048019602895">
        <ele>30.899999999999999</ele>
        <time>2026-06-28T08:43:27Z</time>
      </trkpt>
      <trkpt lat="51.82550797238946" lon="-9.731126977130771">
        <ele>30.420000000000002</ele>
        <time>2026-06-28T08:43:28Z</time>
      </trkpt>
      <trkpt lat="51.823885990306735" lon="-9.731929963454604">
        <ele>28.02</ele>
        <time>2026-06-28T08:43:37Z</time>
      </trkpt>
      <trkpt lat="51.823400007560849" lon="-9.732301030308008">
        <ele>27.530000000000001</ele>
        <time>2026-06-28T08:43:40Z</time>
      </trkpt>
      <trkpt lat="51.823260029777884" lon="-9.732473026961088">
        <ele>27.530000000000001</ele>
        <time>2026-06-28T08:43:41Z</time>
      </trkpt>
      <trkpt lat="51.823118040338159" lon="-9.732647035270929">
        <ele>27.050000000000001</ele>
        <time>2026-06-28T08:43:42Z</time>
      </trkpt>
      <trkpt lat="51.82247799821198" lon="-9.733468964695931">
        <ele>28.02</ele>
        <time>2026-06-28T08:43:47Z</time>
      </trkpt>
      <trkpt lat="51.822341037914157" lon="-9.733576001599431">
        <ele>28.5</ele>
        <time>2026-06-28T08:43:48Z</time>
      </trkpt>
      <trkpt lat="51.821608962491155" lon="-9.734106995165348">
        <ele>29.460000000000001</ele>
        <time>2026-06-28T08:43:53Z</time>
      </trkpt>
      <trkpt lat="51.82146898470819" lon="-9.734260970726609">
        <ele>29.460000000000001</ele>
        <time>2026-06-28T08:43:54Z</time>
      </trkpt>
      <trkpt lat="51.821350967511535" lon="-9.734449982643127">
        <ele>29.940000000000001</ele>
        <time>2026-06-28T08:43:55Z</time>
      </trkpt>
      <trkpt lat="51.821234961971641" lon="-9.734638994559646">
        <ele>29.940000000000001</ele>
        <time>2026-06-28T08:43:56Z</time>
      </trkpt>
      <trkpt lat="51.821133038029075" lon="-9.734849967062473">
        <ele>29.940000000000001</ele>
        <time>2026-06-28T08:43:57Z</time>
      </trkpt>
      <trkpt lat="51.820190995931625" lon="-9.736651992425323">
        <ele>32.340000000000003</ele>
        <time>2026-06-28T08:44:06Z</time>
      </trkpt>
      <trkpt lat="51.819372000172734" lon="-9.738050010055304">
        <ele>34.259999999999998</ele>
        <time>2026-06-28T08:44:13Z</time>
      </trkpt>
      <trkpt lat="51.818426018580794" lon="-9.739637961611152">
        <ele>40.030000000000001</ele>
        <time>2026-06-28T08:44:22Z</time>
      </trkpt>
      <trkpt lat="51.817824030295014" lon="-9.740844033658505">
        <ele>39.549999999999997</ele>
        <time>2026-06-28T08:44:28Z</time>
      </trkpt>
      <trkpt lat="51.817697966471314" lon="-9.741036985069513">
        <ele>39.549999999999997</ele>
        <time>2026-06-28T08:44:29Z</time>
      </trkpt>
      <trkpt lat="51.817549020051956" lon="-9.741175035014749">
        <ele>39.07</ele>
        <time>2026-06-28T08:44:30Z</time>
      </trkpt>
      <trkpt lat="51.817398983985186" lon="-9.741314006969333">
        <ele>39.07</ele>
        <time>2026-06-28T08:44:31Z</time>
      </trkpt>
      <trkpt lat="51.817249031737447" lon="-9.741453984752297">
        <ele>39.07</ele>
        <time>2026-06-28T08:44:32Z</time>
      </trkpt>
      <trkpt lat="51.81693596765399" lon="-9.74167400971055">
        <ele>38.590000000000003</ele>
        <time>2026-06-28T08:44:34Z</time>
      </trkpt>
      <trkpt lat="51.815597964450717" lon="-9.741995958611369">
        <ele>39.549999999999997</ele>
        <time>2026-06-28T08:44:42Z</time>
      </trkpt>
      <trkpt lat="51.814811993390322" lon="-9.74212302826345">
        <ele>38.590000000000003</ele>
        <time>2026-06-28T08:44:47Z</time>
      </trkpt>
      <trkpt lat="51.814675033092499" lon="-9.742214977741242">
        <ele>38.109999999999999</ele>
        <time>2026-06-28T08:44:48Z</time>
      </trkpt>
      <trkpt lat="51.814542012289166" lon="-9.742336012423039">
        <ele>38.109999999999999</ele>
        <time>2026-06-28T08:44:49Z</time>
      </trkpt>
      <trkpt lat="51.814111014828086" lon="-9.742761980742216">
        <ele>37.149999999999999</ele>
        <time>2026-06-28T08:44:52Z</time>
      </trkpt>
      <trkpt lat="51.813963996246457" lon="-9.742867005988956">
        <ele>36.670000000000002</ele>
        <time>2026-06-28T08:44:53Z</time>
      </trkpt>
      <trkpt lat="51.813801974058151" lon="-9.742903970181942">
        <ele>36.670000000000002</ele>
        <time>2026-06-28T08:44:54Z</time>
      </trkpt>
      <trkpt lat="51.813645986840129" lon="-9.742905981838703">
        <ele>36.670000000000002</ele>
        <time>2026-06-28T08:44:55Z</time>
      </trkpt>
      <trkpt lat="51.813481030985713" lon="-9.742869017645717">
        <ele>36.670000000000002</ele>
        <time>2026-06-28T08:44:56Z</time>
      </trkpt>
      <trkpt lat="51.813316997140646" lon="-9.742832975462079">
        <ele>37.149999999999999</ele>
        <time>2026-06-28T08:44:57Z</time>
      </trkpt>
      <trkpt lat="51.813168972730637" lon="-9.742800034582615">
        <ele>37.630000000000003</ele>
        <time>2026-06-28T08:44:58Z</time>
      </trkpt>
      <trkpt lat="51.813023965805769" lon="-9.742820989340544">
        <ele>38.109999999999999</ele>
        <time>2026-06-28T08:44:59Z</time>
      </trkpt>
      <trkpt lat="51.81289697997272" lon="-9.742856025695801">
        <ele>38.590000000000003</ele>
        <time>2026-06-28T08:45:00Z</time>
      </trkpt>
      <trkpt lat="51.812735963612795" lon="-9.742959039285779">
        <ele>39.07</ele>
        <time>2026-06-28T08:45:01Z</time>
      </trkpt>
      <trkpt lat="51.812603026628494" lon="-9.743076972663403">
        <ele>39.07</ele>
        <time>2026-06-28T08:45:02Z</time>
      </trkpt>
      <trkpt lat="51.812470005825162" lon="-9.743238994851708">
        <ele>39.07</ele>
        <time>2026-06-28T08:45:03Z</time>
      </trkpt>
      <trkpt lat="51.812332039698958" lon="-9.743406968191266">
        <ele>39.07</ele>
        <time>2026-06-28T08:45:04Z</time>
      </trkpt>
      <trkpt lat="51.812039008364081" lon="-9.743701005354524">
        <ele>39.07</ele>
        <time>2026-06-28T08:45:06Z</time>
      </trkpt>
      <trkpt lat="51.811559982597828" lon="-9.743959000334144">
        <ele>40.030000000000001</ele>
        <time>2026-06-28T08:45:09Z</time>
      </trkpt>
      <trkpt lat="51.810228014364839" lon="-9.744701972231269">
        <ele>45.799999999999997</ele>
        <time>2026-06-28T08:45:17Z</time>
      </trkpt>
      <trkpt lat="51.809191005304456" lon="-9.745372021570802">
        <ele>48.68</ele>
        <time>2026-06-28T08:45:24Z</time>
      </trkpt>
      <trkpt lat="51.809065025299788" lon="-9.745504036545754">
        <ele>49.159999999999997</ele>
        <time>2026-06-28T08:45:25Z</time>
      </trkpt>
      <trkpt lat="51.808008989319205" lon="-9.746749000623822">
        <ele>55.890000000000001</ele>
        <time>2026-06-28T08:45:33Z</time>
      </trkpt>
      <trkpt lat="51.807499034330249" lon="-9.747363980859518">
        <ele>58.299999999999997</ele>
        <time>2026-06-28T08:45:37Z</time>
      </trkpt>
      <trkpt lat="51.807380011305213" lon="-9.747433969751">
        <ele>59.259999999999998</ele>
        <time>2026-06-28T08:45:38Z</time>
      </trkpt>
      <trkpt lat="51.8072459846735" lon="-9.747447967529297">
        <ele>59.740000000000002</ele>
        <time>2026-06-28T08:45:39Z</time>
      </trkpt>
      <trkpt lat="51.807112963870168" lon="-9.747461965307593">
        <ele>60.700000000000003</ele>
        <time>2026-06-28T08:45:40Z</time>
      </trkpt>
      <trkpt lat="51.806991007179022" lon="-9.747457019984722">
        <ele>62.140000000000001</ele>
        <time>2026-06-28T08:45:41Z</time>
      </trkpt>
      <trkpt lat="51.806863015517592" lon="-9.747422989457846">
        <ele>63.100000000000001</ele>
        <time>2026-06-28T08:45:42Z</time>
      </trkpt>
      <trkpt lat="51.806733012199402" lon="-9.74738803692162">
        <ele>63.579999999999998</ele>
        <time>2026-06-28T08:45:43Z</time>
      </trkpt>
      <trkpt lat="51.806483985856175" lon="-9.747348977252841">
        <ele>64.549999999999997</ele>
        <time>2026-06-28T08:45:45Z</time>
      </trkpt>
      <trkpt lat="51.806359011679888" lon="-9.747330034151673">
        <ele>65.030000000000001</ele>
        <time>2026-06-28T08:45:46Z</time>
      </trkpt>
      <trkpt lat="51.806228002533317" lon="-9.747363980859518">
        <ele>65.510000000000005</ele>
        <time>2026-06-28T08:45:47Z</time>
      </trkpt>
      <trkpt lat="51.80610504001379" lon="-9.747455008327961">
        <ele>66.469999999999999</ele>
        <time>2026-06-28T08:45:48Z</time>
      </trkpt>
      <trkpt lat="51.805975958704948" lon="-9.747549975290895">
        <ele>67.909999999999997</ele>
        <time>2026-06-28T08:45:49Z</time>
      </trkpt>
      <trkpt lat="51.805554013699293" lon="-9.74779799580574">
        <ele>71.269999999999996</ele>
        <time>2026-06-28T08:45:52Z</time>
      </trkpt>
      <trkpt lat="51.805399032309651" lon="-9.747871002182365">
        <ele>72.719999999999999</ele>
        <time>2026-06-28T08:45:53Z</time>
      </trkpt>
      <trkpt lat="51.805242961272597" lon="-9.747867984697223">
        <ele>74.159999999999997</ele>
        <time>2026-06-28T08:45:54Z</time>
      </trkpt>
      <trkpt lat="51.805080017074943" lon="-9.747857004404068">
        <ele>75.120000000000005</ele>
        <time>2026-06-28T08:45:55Z</time>
      </trkpt>
      <trkpt lat="51.804915983229876" lon="-9.747846024110913">
        <ele>77.040000000000006</ele>
        <time>2026-06-28T08:45:56Z</time>
      </trkpt>
      <trkpt lat="51.803646963089705" lon="-9.748044004663825">
        <ele>85.209999999999994</ele>
        <time>2026-06-28T08:46:04Z</time>
      </trkpt>
      <trkpt lat="51.803219988942146" lon="-9.748274004086852">
        <ele>87.140000000000001</ele>
        <time>2026-06-28T08:46:07Z</time>
      </trkpt>
      <trkpt lat="51.803085040301085" lon="-9.748386992141604">
        <ele>87.620000000000005</ele>
        <time>2026-06-28T08:46:08Z</time>
      </trkpt>
      <trkpt lat="51.80296903476119" lon="-9.748540967702866">
        <ele>88.579999999999998</ele>
        <time>2026-06-28T08:46:09Z</time>
      </trkpt>
      <trkpt lat="51.802868032827973" lon="-9.748724028468132">
        <ele>89.060000000000002</ele>
        <time>2026-06-28T08:46:10Z</time>
      </trkpt>
      <trkpt lat="51.802765019237995" lon="-9.74891203455627">
        <ele>90.019999999999996</ele>
        <time>2026-06-28T08:46:11Z</time>
      </trkpt>
      <trkpt lat="51.80230401456356" lon="-9.749546963721514">
        <ele>92.900000000000006</ele>
        <time>2026-06-28T08:46:15Z</time>
      </trkpt>
      <trkpt lat="51.802167976275086" lon="-9.749615024775267">
        <ele>93.870000000000005</ele>
        <time>2026-06-28T08:46:16Z</time>
      </trkpt>
      <trkpt lat="51.802033027634025" lon="-9.749636985361576">
        <ele>94.349999999999994</ele>
        <time>2026-06-28T08:46:17Z</time>
      </trkpt>
      <trkpt lat="51.801890032365918" lon="-9.749636985361576">
        <ele>94.829999999999998</ele>
        <time>2026-06-28T08:46:18Z</time>
      </trkpt>
      <trkpt lat="51.801753994077444" lon="-9.749562973156571">
        <ele>94.829999999999998</ele>
        <time>2026-06-28T08:46:19Z</time>
      </trkpt>
      <trkpt lat="51.801617033779621" lon="-9.749457025900483">
        <ele>95.310000000000002</ele>
        <time>2026-06-28T08:46:20Z</time>
      </trkpt>
      <trkpt lat="51.801498010754585" lon="-9.749290980398655">
        <ele>95.310000000000002</ele>
        <time>2026-06-28T08:46:21Z</time>
      </trkpt>
      <trkpt lat="51.801373036578298" lon="-9.749114960432053">
        <ele>95.310000000000002</ele>
        <time>2026-06-28T08:46:22Z</time>
      </trkpt>
      <trkpt lat="51.801243033260107" lon="-9.748932989314199">
        <ele>95.310000000000002</ele>
        <time>2026-06-28T08:46:23Z</time>
      </trkpt>
      <trkpt lat="51.800136035308242" lon="-9.746954021975398">
        <ele>94.829999999999998</ele>
        <time>2026-06-28T08:46:32Z</time>
      </trkpt>
      <trkpt lat="51.799676036462188" lon="-9.746304005384445">
        <ele>96.75</ele>
        <time>2026-06-28T08:46:36Z</time>
      </trkpt>
      <trkpt lat="51.799543015658855" lon="-9.74620602093637">
        <ele>97.230000000000004</ele>
        <time>2026-06-28T08:46:37Z</time>
      </trkpt>
      <trkpt lat="51.799407983198762" lon="-9.746113987639546">
        <ele>97.230000000000004</ele>
        <time>2026-06-28T08:46:38Z</time>
      </trkpt>
      <trkpt lat="51.799259958788753" lon="-9.74607702344656">
        <ele>97.709999999999994</ele>
        <time>2026-06-28T08:46:39Z</time>
      </trkpt>
      <trkpt lat="51.799111012369394" lon="-9.746039975434542">
        <ele>98.189999999999998</ele>
        <time>2026-06-28T08:46:40Z</time>
      </trkpt>
      <trkpt lat="51.798692001029849" lon="-9.745935034006834">
        <ele>99.629999999999995</ele>
        <time>2026-06-28T08:46:43Z</time>
      </trkpt>
      <trkpt lat="51.798568032681942" lon="-9.745850963518024">
        <ele>100.11</ele>
        <time>2026-06-28T08:46:44Z</time>
      </trkpt>
      <trkpt lat="51.798444986343384" lon="-9.745737975463271">
        <ele>100.59999999999999</ele>
        <time>2026-06-28T08:46:45Z</time>
      </trkpt>
      <trkpt lat="51.798341972753406" lon="-9.745586011558771">
        <ele>101.08</ele>
        <time>2026-06-28T08:46:46Z</time>
      </trkpt>
      <trkpt lat="51.79824398830533" lon="-9.745416026562452">
        <ele>101.56</ele>
        <time>2026-06-28T08:46:47Z</time>
      </trkpt>
      <trkpt lat="51.798141980543733" lon="-9.745239000767469">
        <ele>102.04000000000001</ele>
        <time>2026-06-28T08:46:48Z</time>
      </trkpt>
      <trkpt lat="51.798050031065941" lon="-9.745046971365809">
        <ele>103</ele>
        <time>2026-06-28T08:46:49Z</time>
      </trkpt>
      <trkpt lat="51.797606041654944" lon="-9.743926981464028">
        <ele>105.88</ele>
        <time>2026-06-28T08:46:54Z</time>
      </trkpt>
      <trkpt lat="51.797493975609541" lon="-9.743712991476059">
        <ele>105.88</ele>
        <time>2026-06-28T08:46:55Z</time>
      </trkpt>
      <trkpt lat="51.79706197232008" lon="-9.742858037352562">
        <ele>106.84</ele>
        <time>2026-06-28T08:46:59Z</time>
      </trkpt>
      <trkpt lat="51.796992989256978" lon="-9.742633989080787">
        <ele>106.84</ele>
        <time>2026-06-28T08:47:00Z</time>
      </trkpt>
      <trkpt lat="51.796957030892372" lon="-9.742393009364605">
        <ele>107.31999999999999</ele>
        <time>2026-06-28T08:47:01Z</time>
      </trkpt>
      <trkpt lat="51.796918977051973" lon="-9.742141971364617">
        <ele>107.31999999999999</ele>
        <time>2026-06-28T08:47:02Z</time>
      </trkpt>
      <trkpt lat="51.796880001202226" lon="-9.741880958899856">
        <ele>107.31999999999999</ele>
        <time>2026-06-28T08:47:03Z</time>
      </trkpt>
      <trkpt lat="51.796783022582531" lon="-9.739608960226178">
        <ele>111.17</ele>
        <time>2026-06-28T08:47:11Z</time>
      </trkpt>
      <trkpt lat="51.796757038682699" lon="-9.73885802552104">
        <ele>112.13</ele>
        <time>2026-06-28T08:47:14Z</time>
      </trkpt>
      <trkpt lat="51.796709010377526" lon="-9.738647975027561">
        <ele>112.61</ele>
        <time>2026-06-28T08:47:15Z</time>
      </trkpt>
      <trkpt lat="51.796647990122437" lon="-9.738445971161127">
        <ele>113.09</ele>
        <time>2026-06-28T08:47:16Z</time>
      </trkpt>
      <trkpt lat="51.796556040644646" lon="-9.738261988386512">
        <ele>114.05</ele>
        <time>2026-06-28T08:47:17Z</time>
      </trkpt>
      <trkpt lat="51.796453027054667" lon="-9.738071970641613">
        <ele>114.53</ele>
        <time>2026-06-28T08:47:18Z</time>
      </trkpt>
      <trkpt lat="51.796334004029632" lon="-9.737902991473675">
        <ele>115.5</ele>
        <time>2026-06-28T08:47:19Z</time>
      </trkpt>
      <trkpt lat="51.795949023216963" lon="-9.737417008727789">
        <ele>117.90000000000001</ele>
        <time>2026-06-28T08:47:22Z</time>
      </trkpt>
      <trkpt lat="51.79579496383667" lon="-9.737316006794572">
        <ele>118.86</ele>
        <time>2026-06-28T08:47:23Z</time>
      </trkpt>
      <trkpt lat="51.795640988275409" lon="-9.737217016518116">
        <ele>119.34</ele>
        <time>2026-06-28T08:47:24Z</time>
      </trkpt>
      <trkpt lat="51.795489024370909" lon="-9.737178962677717">
        <ele>119.81999999999999</ele>
        <time>2026-06-28T08:47:25Z</time>
      </trkpt>
      <trkpt lat="51.795340999960899" lon="-9.737191032618284">
        <ele>120.3</ele>
        <time>2026-06-28T08:47:26Z</time>
      </trkpt>
      <trkpt lat="51.795189036056399" lon="-9.737237971276045">
        <ele>121.26000000000001</ele>
        <time>2026-06-28T08:47:27Z</time>
      </trkpt>
      <trkpt lat="51.795029025524855" lon="-9.737287005409598">
        <ele>122.22</ele>
        <time>2026-06-28T08:47:28Z</time>
      </trkpt>
      <trkpt lat="51.794867003336549" lon="-9.737336961552501">
        <ele>123.19</ele>
        <time>2026-06-28T08:47:29Z</time>
      </trkpt>
      <trkpt lat="51.793683981522918" lon="-9.73737602122128">
        <ele>128.47</ele>
        <time>2026-06-28T08:47:36Z</time>
      </trkpt>
      <trkpt lat="51.793520031496882" lon="-9.737301003187895">
        <ele>129.43000000000001</ele>
        <time>2026-06-28T08:47:37Z</time>
      </trkpt>
      <trkpt lat="51.793357003480196" lon="-9.73722598515451">
        <ele>130.40000000000001</ele>
        <time>2026-06-28T08:47:38Z</time>
      </trkpt>
      <trkpt lat="51.793209984898567" lon="-9.737106962129474">
        <ele>131.36000000000001</ele>
        <time>2026-06-28T08:47:39Z</time>
      </trkpt>
      <trkpt lat="51.793059026822448" lon="-9.736973019316793">
        <ele>132.31999999999999</ele>
        <time>2026-06-28T08:47:40Z</time>
      </trkpt>
      <trkpt lat="51.792904967442155" lon="-9.736835975199938">
        <ele>133.28</ele>
        <time>2026-06-28T08:47:41Z</time>
      </trkpt>
      <trkpt lat="51.791800986975431" lon="-9.73602200858295">
        <ele>139.05000000000001</ele>
        <time>2026-06-28T08:47:48Z</time>
      </trkpt>
      <trkpt lat="51.791636031121016" lon="-9.735961994156241">
        <ele>140.00999999999999</ele>
        <time>2026-06-28T08:47:49Z</time>
      </trkpt>
      <trkpt lat="51.791470991447568" lon="-9.735942967236042">
        <ele>141.44999999999999</ele>
        <time>2026-06-28T08:47:50Z</time>
      </trkpt>
      <trkpt lat="51.791003029793501" lon="-9.735849006101489">
        <ele>144.81999999999999</ele>
        <time>2026-06-28T08:47:53Z</time>
      </trkpt>
      <trkpt lat="51.790848970413208" lon="-9.735775999724865">
        <ele>145.78</ele>
        <time>2026-06-28T08:47:54Z</time>
      </trkpt>
      <trkpt lat="51.790699018165469" lon="-9.735703999176621">
        <ele>146.74000000000001</ele>
        <time>2026-06-28T08:47:55Z</time>
      </trkpt>
      <trkpt lat="51.790568009018898" lon="-9.73557299003005">
        <ele>147.69999999999999</ele>
        <time>2026-06-28T08:47:56Z</time>
      </trkpt>
      <trkpt lat="51.790439011529088" lon="-9.735422031953931">
        <ele>148.66</ele>
        <time>2026-06-28T08:47:57Z</time>
      </trkpt>
      <trkpt lat="51.78982000797987" lon="-9.734549978747964">
        <ele>152.99000000000001</ele>
        <time>2026-06-28T08:48:02Z</time>
      </trkpt>
      <trkpt lat="51.789737027138472" lon="-9.73434797488153">
        <ele>153.47</ele>
        <time>2026-06-28T08:48:03Z</time>
      </trkpt>
      <trkpt lat="51.789651028811932" lon="-9.734130967408419">
        <ele>154.43000000000001</ele>
        <time>2026-06-28T08:48:04Z</time>
      </trkpt>
      <trkpt lat="51.789564024657011" lon="-9.733910020440817">
        <ele>154.91</ele>
        <time>2026-06-28T08:48:05Z</time>
      </trkpt>
      <trkpt lat="51.789475008845329" lon="-9.733693012967706">
        <ele>155.87</ele>
        <time>2026-06-28T08:48:06Z</time>
      </trkpt>
      <trkpt lat="51.789371995255351" lon="-9.733497966080904">
        <ele>156.83000000000001</ele>
        <time>2026-06-28T08:48:07Z</time>
      </trkpt>
      <trkpt lat="51.789183989167213" lon="-9.733145004138351">
        <ele>158.27000000000001</ele>
        <time>2026-06-28T08:48:09Z</time>
      </trkpt>
      <trkpt lat="51.789097990840673" lon="-9.733016006648541">
        <ele>159.24000000000001</ele>
        <time>2026-06-28T08:48:10Z</time>
      </trkpt>
      <trkpt lat="51.78900402970612" lon="-9.732969990000129">
        <ele>159.72</ele>
        <time>2026-06-28T08:48:11Z</time>
      </trkpt>
      <trkpt lat="51.788921970874071" lon="-9.732976024970412">
        <ele>160.19999999999999</ele>
        <time>2026-06-28T08:48:12Z</time>
      </trkpt>
      <trkpt lat="51.788815017789602" lon="-9.733013994991779">
        <ele>161.16</ele>
        <time>2026-06-28T08:48:13Z</time>
      </trkpt>
      <trkpt lat="51.788689959794283" lon="-9.733087001368403">
        <ele>161.63999999999999</ele>
        <time>2026-06-28T08:48:14Z</time>
      </trkpt>
      <trkpt lat="51.787662003189325" lon="-9.733859980478883">
        <ele>167.41</ele>
        <time>2026-06-28T08:48:21Z</time>
      </trkpt>
      <trkpt lat="51.787539962679148" lon="-9.733971962705255">
        <ele>168.37</ele>
        <time>2026-06-28T08:48:22Z</time>
      </trkpt>
      <trkpt lat="51.787415994331241" lon="-9.734039017930627">
        <ele>168.84999999999999</ele>
        <time>2026-06-28T08:48:23Z</time>
      </trkpt>
      <trkpt lat="51.78728599101305" lon="-9.734081011265516">
        <ele>169.81</ele>
        <time>2026-06-28T08:48:24Z</time>
      </trkpt>
      <trkpt lat="51.787150958552957" lon="-9.734123004600406">
        <ele>170.28999999999999</ele>
        <time>2026-06-28T08:48:25Z</time>
      </trkpt>
      <trkpt lat="51.78700796328485" lon="-9.734149994328618">
        <ele>170.77000000000001</ele>
        <time>2026-06-28T08:48:26Z</time>
      </trkpt>
      <trkpt lat="51.78685499355197" lon="-9.734159968793392">
        <ele>171.25</ele>
        <time>2026-06-28T08:48:27Z</time>
      </trkpt>
      <trkpt lat="51.785839023068547" lon="-9.734211014583707">
        <ele>177.5</ele>
        <time>2026-06-28T08:48:34Z</time>
      </trkpt>
      <trkpt lat="51.785741038620472" lon="-9.734126022085547">
        <ele>177.97999999999999</ele>
        <time>2026-06-28T08:48:35Z</time>
      </trkpt>
      <trkpt lat="51.785627966746688" lon="-9.734027031809092">
        <ele>178.94</ele>
        <time>2026-06-28T08:48:36Z</time>
      </trkpt>
      <trkpt lat="51.78537298925221" lon="-9.733804995194078">
        <ele>180.87</ele>
        <time>2026-06-28T08:48:38Z</time>
      </trkpt>
      <trkpt lat="51.785258995369077" lon="-9.733706004917622">
        <ele>181.34999999999999</ele>
        <time>2026-06-28T08:48:39Z</time>
      </trkpt>
      <trkpt lat="51.785163022577763" lon="-9.733669962733984">
        <ele>181.83000000000001</ele>
        <time>2026-06-28T08:48:40Z</time>
      </trkpt>
      <trkpt lat="51.785088004544377" lon="-9.733714973554015">
        <ele>182.31</ele>
        <time>2026-06-28T08:48:41Z</time>
      </trkpt>
      <trkpt lat="51.785003012046218" lon="-9.733838019892573">
        <ele>182.78999999999999</ele>
        <time>2026-06-28T08:48:42Z</time>
      </trkpt>
      <trkpt lat="51.784913996234536" lon="-9.733967017382383">
        <ele>183.27000000000001</ele>
        <time>2026-06-28T08:48:43Z</time>
      </trkpt>
      <trkpt lat="51.784722972661257" lon="-9.734243033453822">
        <ele>184.71000000000001</ele>
        <time>2026-06-28T08:48:45Z</time>
      </trkpt>
      <trkpt lat="51.784630017355084" lon="-9.734314028173685">
        <ele>185.19</ele>
        <time>2026-06-28T08:48:46Z</time>
      </trkpt>
      <trkpt lat="51.784552987664938" lon="-9.734358033165336">
        <ele>185.19</ele>
        <time>2026-06-28T08:48:47Z</time>
      </trkpt>
      <trkpt lat="51.78449297323823" lon="-9.734300030395389">
        <ele>185.66999999999999</ele>
        <time>2026-06-28T08:48:48Z</time>
      </trkpt>
      <trkpt lat="51.784460032358766" lon="-9.734221994876862">
        <ele>186.15000000000001</ele>
        <time>2026-06-28T08:48:49Z</time>
      </trkpt>
      <trkpt lat="51.784444022923708" lon="-9.734100960195065">
        <ele>186.63</ele>
        <time>2026-06-28T08:48:50Z</time>
      </trkpt>
      <trkpt lat="51.784479981288314" lon="-9.733985038474202">
        <ele>187.11000000000001</ele>
        <time>2026-06-28T08:48:51Z</time>
      </trkpt>
      <trkpt lat="51.784527003765106" lon="-9.73383198492229">
        <ele>187.59</ele>
        <time>2026-06-28T08:48:52Z</time>
      </trkpt>
      <trkpt lat="51.784769995138049" lon="-9.733016006648541">
        <ele>189.52000000000001</ele>
        <time>2026-06-28T08:48:56Z</time>
      </trkpt>
      <trkpt lat="51.78479203954339" lon="-9.732814002782106">
        <ele>190</ele>
        <time>2026-06-28T08:48:57Z</time>
      </trkpt>
      <trkpt lat="51.784797990694642" lon="-9.732610993087292">
        <ele>190</ele>
        <time>2026-06-28T08:48:58Z</time>
      </trkpt>
      <trkpt lat="51.784759014844894" lon="-9.732429021969438">
        <ele>190.47999999999999</ele>
        <time>2026-06-28T08:48:59Z</time>
      </trkpt>
      <trkpt lat="51.784691037610173" lon="-9.732251996174455">
        <ele>190.96000000000001</ele>
        <time>2026-06-28T08:49:00Z</time>
      </trkpt>
      <trkpt lat="51.784609984606504" lon="-9.732083017006517">
        <ele>190.96000000000001</ele>
        <time>2026-06-28T08:49:01Z</time>
      </trkpt>
      <trkpt lat="51.784527003765106" lon="-9.731909008696675">
        <ele>191.44</ele>
        <time>2026-06-28T08:49:02Z</time>
      </trkpt>
      <trkpt lat="51.784429019317031" lon="-9.731753021478653">
        <ele>191.44</ele>
        <time>2026-06-28T08:49:03Z</time>
      </trkpt>
      <trkpt lat="51.784319970756769" lon="-9.73161798901856">
        <ele>190.96000000000001</ele>
        <time>2026-06-28T08:49:04Z</time>
      </trkpt>
      <trkpt lat="51.784187033772469" lon="-9.731539031490684">
        <ele>190.47999999999999</ele>
        <time>2026-06-28T08:49:05Z</time>
      </trkpt>
      <trkpt lat="51.784047977998853" lon="-9.731458984315395">
        <ele>190</ele>
        <time>2026-06-28T08:49:06Z</time>
      </trkpt>
      <trkpt lat="51.783631984144449" lon="-9.731218004599214">
        <ele>188.08000000000001</ele>
        <time>2026-06-28T08:49:09Z</time>
      </trkpt>
      <trkpt lat="51.783483037725091" lon="-9.731200989335775">
        <ele>187.11000000000001</ele>
        <time>2026-06-28T08:49:10Z</time>
      </trkpt>
      <trkpt lat="51.783329984173179" lon="-9.731195960193873">
        <ele>186.63</ele>
        <time>2026-06-28T08:49:11Z</time>
      </trkpt>
      <trkpt lat="51.782861016690731" lon="-9.731152961030603">
        <ele>184.22999999999999</ele>
        <time>2026-06-28T08:49:14Z</time>
      </trkpt>
      <trkpt lat="51.782721960917115" lon="-9.731083977967501">
        <ele>183.27000000000001</ele>
        <time>2026-06-28T08:49:15Z</time>
      </trkpt>
      <trkpt lat="51.782600004225969" lon="-9.730981970205903">
        <ele>182.31</ele>
        <time>2026-06-28T08:49:16Z</time>
      </trkpt>
      <trkpt lat="51.782481987029314" lon="-9.730847021564841">
        <ele>181.83000000000001</ele>
        <time>2026-06-28T08:49:17Z</time>
      </trkpt>
      <trkpt lat="51.782358018681407" lon="-9.730706037953496">
        <ele>181.34999999999999</ele>
        <time>2026-06-28T08:49:18Z</time>
      </trkpt>
      <trkpt lat="51.781014986336231" lon="-9.729426959529519">
        <ele>173.66</ele>
        <time>2026-06-28T08:49:27Z</time>
      </trkpt>
      <trkpt lat="51.780856987461448" lon="-9.729321012273431">
        <ele>172.69</ele>
        <time>2026-06-28T08:49:28Z</time>
      </trkpt>
      <trkpt lat="51.780680967494845" lon="-9.7292569745332">
        <ele>171.72999999999999</ele>
        <time>2026-06-28T08:49:29Z</time>
      </trkpt>
      <trkpt lat="51.779053034260869" lon="-9.728920022025704">
        <ele>163.56</ele>
        <time>2026-06-28T08:49:38Z</time>
      </trkpt>
      <trkpt lat="51.777255032211542" lon="-9.729224033653736">
        <ele>154.43000000000001</ele>
        <time>2026-06-28T08:49:48Z</time>
      </trkpt>
      <trkpt lat="51.776591017842293" lon="-9.729487979784608">
        <ele>150.58000000000001</ele>
        <time>2026-06-28T08:49:52Z</time>
      </trkpt>
      <trkpt lat="51.776443999260664" lon="-9.729625023901463">
        <ele>149.13999999999999</ele>
        <time>2026-06-28T08:49:53Z</time>
      </trkpt>
      <trkpt lat="51.776302009820938" lon="-9.729757960885763">
        <ele>148.18000000000001</ele>
        <time>2026-06-28T08:49:54Z</time>
      </trkpt>
      <trkpt lat="51.77617896348238" lon="-9.729931969195604">
        <ele>147.22</ele>
        <time>2026-06-28T08:49:55Z</time>
      </trkpt>
      <trkpt lat="51.776062035933137" lon="-9.730118969455361">
        <ele>145.78</ele>
        <time>2026-06-28T08:49:56Z</time>
      </trkpt>
      <trkpt lat="51.775943012908101" lon="-9.730309993028641">
        <ele>144.81999999999999</ele>
        <time>2026-06-28T08:49:57Z</time>
      </trkpt>
      <trkpt lat="51.775075988844037" lon="-9.731898028403521">
        <ele>137.61000000000001</ele>
        <time>2026-06-28T08:50:05Z</time>
      </trkpt>
      <trkpt lat="51.774153979495168" lon="-9.734301036223769">
        <ele>127.98999999999999</ele>
        <time>2026-06-28T08:50:14Z</time>
      </trkpt>
      <trkpt lat="51.773532964289188" lon="-9.73576401360333">
        <ele>120.3</ele>
        <time>2026-06-28T08:50:21Z</time>
      </trkpt>
      <trkpt lat="51.773445960134268" lon="-9.736007004976273">
        <ele>116.94</ele>
        <time>2026-06-28T08:50:27Z</time>
      </trkpt>
      <trkpt lat="51.773429028689861" lon="-9.736057966947556">
        <ele>114.53</ele>
        <time>2026-06-28T08:50:40Z</time>
      </trkpt>
      <trkpt lat="51.773429028689861" lon="-9.736057966947556">
        <ele>114.53</ele>
        <time>2026-06-28T08:51:27Z</time>
      </trkpt>
      <trkpt lat="51.773429028689861" lon="-9.736057966947556">
        <ele>114.53</ele>
        <time>2026-06-28T08:52:14Z</time>
      </trkpt>
      <trkpt lat="51.773429028689861" lon="-9.736057966947556">
        <ele>114.53</ele>
        <time>2026-06-28T08:52:50Z</time>
      </trkpt>
      <trkpt lat="51.773429028689861" lon="-9.736057966947556">
        <ele>114.53</ele>
        <time>2026-06-28T08:53:42Z</time>
      </trkpt>
      <trkpt lat="51.773429028689861" lon="-9.736057966947556">
        <ele>115.01000000000001</ele>
        <time>2026-06-28T08:54:31Z</time>
      </trkpt>
      <trkpt lat="51.773422993719578" lon="-9.736077999696136">
        <ele>115.01000000000001</ele>
        <time>2026-06-28T08:54:36Z</time>
      </trkpt>
      <trkpt lat="51.773250997066498" lon="-9.73660396412015">
        <ele>116.94</ele>
        <time>2026-06-28T08:54:41Z</time>
      </trkpt>
      <trkpt lat="51.773132979869843" lon="-9.736964972689748">
        <ele>116.45999999999999</ele>
        <time>2026-06-28T08:54:43Z</time>
      </trkpt>
      <trkpt lat="51.773077994585037" lon="-9.737175023183227">
        <ele>115.98</ele>
        <time>2026-06-28T08:54:44Z</time>
      </trkpt>
      <trkpt lat="51.773025020956993" lon="-9.737402005121112">
        <ele>115.98</ele>
        <time>2026-06-28T08:54:45Z</time>
      </trkpt>
      <trkpt lat="51.772908009588718" lon="-9.737899973988533">
        <ele>115.01000000000001</ele>
        <time>2026-06-28T08:54:47Z</time>
      </trkpt>
      <trkpt lat="51.772842966020107" lon="-9.738156963139772">
        <ele>114.53</ele>
        <time>2026-06-28T08:54:48Z</time>
      </trkpt>
      <trkpt lat="51.772211976349354" lon="-9.740494005382061">
        <ele>106.36</ele>
        <time>2026-06-28T08:54:57Z</time>
      </trkpt>
      <trkpt lat="51.771846022456884" lon="-9.743464970961213">
        <ele>99.629999999999995</ele>
        <time>2026-06-28T08:55:07Z</time>
      </trkpt>
      <trkpt lat="51.771927997469902" lon="-9.744639024138451">
        <ele>96.75</ele>
        <time>2026-06-28T08:55:11Z</time>
      </trkpt>
      <trkpt lat="51.771975019946694" lon="-9.744862988591194">
        <ele>96.269999999999996</ele>
        <time>2026-06-28T08:55:12Z</time>
      </trkpt>
      <trkpt lat="51.772063029929996" lon="-9.745039008557797">
        <ele>95.790000000000006</ele>
        <time>2026-06-28T08:55:13Z</time>
      </trkpt>
      <trkpt lat="51.77215900272131" lon="-9.745226008817554">
        <ele>94.829999999999998</ele>
        <time>2026-06-28T08:55:14Z</time>
      </trkpt>
      <trkpt lat="51.772261010482907" lon="-9.745424995198846">
        <ele>94.349999999999994</ele>
        <time>2026-06-28T08:55:15Z</time>
      </trkpt>
      <trkpt lat="51.772367041558027" lon="-9.745632028207183">
        <ele>93.390000000000001</ele>
        <time>2026-06-28T08:55:16Z</time>
      </trkpt>
      <trkpt lat="51.772449016571045" lon="-9.745875019580126">
        <ele>92.900000000000006</ele>
        <time>2026-06-28T08:55:17Z</time>
      </trkpt>
      <trkpt lat="51.77252403460443" lon="-9.746121028438211">
        <ele>92.420000000000002</ele>
        <time>2026-06-28T08:55:18Z</time>
      </trkpt>
      <trkpt lat="51.772598968818784" lon="-9.746367037296295">
        <ele>91.459999999999994</ele>
        <time>2026-06-28T08:55:19Z</time>
      </trkpt>
      <trkpt lat="51.772621013224125" lon="-9.746623020619154">
        <ele>90.980000000000004</ele>
        <time>2026-06-28T08:55:20Z</time>
      </trkpt>
      <trkpt lat="51.772621013224125" lon="-9.746842039749026">
        <ele>90.5</ele>
        <time>2026-06-28T08:55:21Z</time>
      </trkpt>
      <trkpt lat="51.772598968818784" lon="-9.74704597145319">
        <ele>89.540000000000006</ele>
        <time>2026-06-28T08:55:22Z</time>
      </trkpt>
      <trkpt lat="51.772536020725965" lon="-9.747242024168372">
        <ele>89.540000000000006</ele>
        <time>2026-06-28T08:55:23Z</time>
      </trkpt>
      <trkpt lat="51.772466031834483" lon="-9.747460959479213">
        <ele>89.060000000000002</ele>
        <time>2026-06-28T08:55:24Z</time>
      </trkpt>
      <trkpt lat="51.772037968039513" lon="-9.749165000393987">
        <ele>86.659999999999997</ele>
        <time>2026-06-28T08:55:30Z</time>
      </trkpt>
      <trkpt lat="51.77196797914803" lon="-9.749792972579598">
        <ele>86.180000000000007</ele>
        <time>2026-06-28T08:55:32Z</time>
      </trkpt>
      <trkpt lat="51.771964961662889" lon="-9.750082986429334">
        <ele>85.689999999999998</ele>
        <time>2026-06-28T08:55:33Z</time>
      </trkpt>
      <trkpt lat="51.771978959441185" lon="-9.75035497918725">
        <ele>85.209999999999994</ele>
        <time>2026-06-28T08:55:34Z</time>
      </trkpt>
      <trkpt lat="51.771986000239849" lon="-9.750834004953504">
        <ele>84.25</ele>
        <time>2026-06-28T08:55:36Z</time>
      </trkpt>
      <trkpt lat="51.771956998854876" lon="-9.751027040183544">
        <ele>83.769999999999996</ele>
        <time>2026-06-28T08:55:37Z</time>
      </trkpt>
      <trkpt lat="51.771886004135013" lon="-9.751144973561168">
        <ele>83.769999999999996</ele>
        <time>2026-06-28T08:55:38Z</time>
      </trkpt>
      <trkpt lat="51.771814003586769" lon="-9.751262990757823">
        <ele>83.290000000000006</ele>
        <time>2026-06-28T08:55:39Z</time>
      </trkpt>
      <trkpt lat="51.771719036623836" lon="-9.751351000741124">
        <ele>83.290000000000006</ele>
        <time>2026-06-28T08:55:40Z</time>
      </trkpt>
      <trkpt lat="51.771591966971755" lon="-9.751430964097381">
        <ele>82.810000000000002</ele>
        <time>2026-06-28T08:55:41Z</time>
      </trkpt>
      <trkpt lat="51.77145198918879" lon="-9.751517968252301">
        <ele>82.329999999999998</ele>
        <time>2026-06-28T08:55:42Z</time>
      </trkpt>
      <trkpt lat="51.771314023062587" lon="-9.751604972407222">
        <ele>81.849999999999994</ele>
        <time>2026-06-28T08:55:43Z</time>
      </trkpt>
      <trkpt lat="51.771200029179454" lon="-9.751736987382174">
        <ele>80.890000000000001</ele>
        <time>2026-06-28T08:55:44Z</time>
      </trkpt>
      <trkpt lat="51.771117970347404" lon="-9.751903032884002">
        <ele>80.409999999999997</ele>
        <time>2026-06-28T08:55:45Z</time>
      </trkpt>
      <trkpt lat="51.771055022254586" lon="-9.752125991508365">
        <ele>79.930000000000007</ele>
        <time>2026-06-28T08:55:46Z</time>
      </trkpt>
      <trkpt lat="51.771009005606174" lon="-9.752321960404515">
        <ele>79.450000000000003</ele>
        <time>2026-06-28T08:55:47Z</time>
      </trkpt>
      <trkpt lat="51.770954020321369" lon="-9.752555983141065">
        <ele>78.480000000000004</ele>
        <time>2026-06-28T08:55:48Z</time>
      </trkpt>
      <trkpt lat="51.770896017551422" lon="-9.752800986170769">
        <ele>78</ele>
        <time>2026-06-28T08:55:49Z</time>
      </trkpt>
      <trkpt lat="51.770836003124714" lon="-9.753055041655898">
        <ele>77.519999999999996</ele>
        <time>2026-06-28T08:55:50Z</time>
      </trkpt>
      <trkpt lat="51.770596029236913" lon="-9.754075035452843">
        <ele>74.640000000000001</ele>
        <time>2026-06-28T08:55:54Z</time>
      </trkpt>
      <trkpt lat="51.770543977618217" lon="-9.754298999905586">
        <ele>73.680000000000007</ele>
        <time>2026-06-28T08:55:55Z</time>
      </trkpt>
      <trkpt lat="51.77044196985662" lon="-9.754461022093892">
        <ele>73.200000000000003</ele>
        <time>2026-06-28T08:55:56Z</time>
      </trkpt>
      <trkpt lat="51.770328981801867" lon="-9.754590019583702">
        <ele>72.719999999999999</ele>
        <time>2026-06-28T08:55:57Z</time>
      </trkpt>
      <trkpt lat="51.770203001797199" lon="-9.75471599958837">
        <ele>72.239999999999995</ele>
        <time>2026-06-28T08:55:58Z</time>
      </trkpt>
      <trkpt lat="51.770066963508725" lon="-9.754851032048464">
        <ele>71.269999999999996</ele>
        <time>2026-06-28T08:55:59Z</time>
      </trkpt>
      <trkpt lat="51.769715007394552" lon="-9.755413038656116">
        <ele>69.829999999999998</ele>
        <time>2026-06-28T08:56:02Z</time>
      </trkpt>
      <trkpt lat="51.769628003239632" lon="-9.755637003108859">
        <ele>69.349999999999994</ele>
        <time>2026-06-28T08:56:03Z</time>
      </trkpt>
      <trkpt lat="51.769547034054995" lon="-9.755877982825041">
        <ele>68.870000000000005</ele>
        <time>2026-06-28T08:56:04Z</time>
      </trkpt>
      <trkpt lat="51.769476961344481" lon="-9.756141006946564">
        <ele>68.390000000000001</ele>
        <time>2026-06-28T08:56:05Z</time>
      </trkpt>
      <trkpt lat="51.769407978281379" lon="-9.756403025239706">
        <ele>68.390000000000001</ele>
        <time>2026-06-28T08:56:06Z</time>
      </trkpt>
      <trkpt lat="51.769342012703419" lon="-9.756652973592281">
        <ele>67.909999999999997</ele>
        <time>2026-06-28T08:56:07Z</time>
      </trkpt>
      <trkpt lat="51.769274035468698" lon="-9.756910968571901">
        <ele>67.909999999999997</ele>
        <time>2026-06-28T08:56:08Z</time>
      </trkpt>
      <trkpt lat="51.769192982465029" lon="-9.757123030722141">
        <ele>67.430000000000007</ele>
        <time>2026-06-28T08:56:09Z</time>
      </trkpt>
      <trkpt lat="51.769101032987237" lon="-9.757353030145168">
        <ele>66.950000000000003</ele>
        <time>2026-06-28T08:56:10Z</time>
      </trkpt>
      <trkpt lat="51.768909003585577" lon="-9.757833983749151">
        <ele>65.510000000000005</ele>
        <time>2026-06-28T08:56:12Z</time>
      </trkpt>
      <trkpt lat="51.768841026350856" lon="-9.75808996707201">
        <ele>64.549999999999997</ele>
        <time>2026-06-28T08:56:13Z</time>
      </trkpt>
      <trkpt lat="51.768411034718156" lon="-9.759819991886616">
        <ele>58.780000000000001</ele>
        <time>2026-06-28T08:56:20Z</time>
      </trkpt>
      <trkpt lat="51.76840097643435" lon="-9.760059965774417">
        <ele>57.82</ele>
        <time>2026-06-28T08:56:21Z</time>
      </trkpt>
      <trkpt lat="51.768389996141195" lon="-9.760316032916307">
        <ele>57.340000000000003</ele>
        <time>2026-06-28T08:56:22Z</time>
      </trkpt>
      <trkpt lat="51.768334005028009" lon="-9.761329991742969">
        <ele>53.490000000000002</ele>
        <time>2026-06-28T08:56:26Z</time>
      </trkpt>
      <trkpt lat="51.768221016973257" lon="-9.761752020567656">
        <ele>50.130000000000003</ele>
        <time>2026-06-28T08:56:28Z</time>
      </trkpt>
      <trkpt lat="51.768171982839704" lon="-9.76193499751389">
        <ele>48.68</ele>
        <time>2026-06-28T08:56:29Z</time>
      </trkpt>
      <trkpt lat="51.768124960362911" lon="-9.762109005823731">
        <ele>47.719999999999999</ele>
        <time>2026-06-28T08:56:30Z</time>
      </trkpt>
      <trkpt lat="51.768129989504814" lon="-9.762287959456444">
        <ele>46.280000000000001</ele>
        <time>2026-06-28T08:56:31Z</time>
      </trkpt>
      <trkpt lat="51.768150022253394" lon="-9.762473031878471">
        <ele>44.840000000000003</ele>
        <time>2026-06-28T08:56:32Z</time>
      </trkpt>
      <trkpt lat="51.768170977011323" lon="-9.762672018259764">
        <ele>43.880000000000003</ele>
        <time>2026-06-28T08:56:33Z</time>
      </trkpt>
      <trkpt lat="51.768223028630018" lon="-9.762850971892476">
        <ele>42.920000000000002</ele>
        <time>2026-06-28T08:56:34Z</time>
      </trkpt>
      <trkpt lat="51.768297962844372" lon="-9.76303000934422">
        <ele>41.950000000000003</ele>
        <time>2026-06-28T08:56:35Z</time>
      </trkpt>
      <trkpt lat="51.768371975049376" lon="-9.763207035139203">
        <ele>40.990000000000002</ele>
        <time>2026-06-28T08:56:36Z</time>
      </trkpt>
      <trkpt lat="51.768441963940859" lon="-9.763371990993619">
        <ele>40.509999999999998</ele>
        <time>2026-06-28T08:56:37Z</time>
      </trkpt>
      <trkpt lat="51.76848404109478" lon="-9.763541975989938">
        <ele>39.549999999999997</ele>
        <time>2026-06-28T08:56:38Z</time>
      </trkpt>
      <trkpt lat="51.768485968932509" lon="-9.76369402371347">
        <ele>39.07</ele>
        <time>2026-06-28T08:56:39Z</time>
      </trkpt>
      <trkpt lat="51.768455961719155" lon="-9.76382302120328">
        <ele>38.590000000000003</ele>
        <time>2026-06-28T08:56:40Z</time>
      </trkpt>
      <trkpt lat="51.768412962555885" lon="-9.763941960409284">
        <ele>37.149999999999999</ele>
        <time>2026-06-28T08:56:41Z</time>
      </trkpt>
      <trkpt lat="51.768342973664403" lon="-9.764046985656023">
        <ele>35.710000000000001</ele>
        <time>2026-06-28T08:56:42Z</time>
      </trkpt>
      <trkpt lat="51.768266027793288" lon="-9.764161985367537">
        <ele>34.259999999999998</ele>
        <time>2026-06-28T08:56:43Z</time>
      </trkpt>
      <trkpt lat="51.768196038901806" lon="-9.764299029484391">
        <ele>33.299999999999997</ele>
        <time>2026-06-28T08:56:44Z</time>
      </trkpt>
      <trkpt lat="51.768141975626349" lon="-9.76444797590375">
        <ele>32.340000000000003</ele>
        <time>2026-06-28T08:56:45Z</time>
      </trkpt>
      <trkpt lat="51.768082967028022" lon="-9.764605974778533">
        <ele>30.899999999999999</ele>
        <time>2026-06-28T08:56:46Z</time>
      </trkpt>
      <trkpt lat="51.768061006441712" lon="-9.764777971431613">
        <ele>29.460000000000001</ele>
        <time>2026-06-28T08:56:47Z</time>
      </trkpt>
      <trkpt lat="51.768051031976938" lon="-9.764915015548468">
        <ele>28.5</ele>
        <time>2026-06-28T08:56:48Z</time>
      </trkpt>
      <trkpt lat="51.768095958977938" lon="-9.765020962804556">
        <ele>27.530000000000001</ele>
        <time>2026-06-28T08:56:49Z</time>
      </trkpt>
      <trkpt lat="51.768157985061407" lon="-9.765168987214565">
        <ele>26.09</ele>
        <time>2026-06-28T08:56:50Z</time>
      </trkpt>
      <trkpt lat="51.768234008923173" lon="-9.76534903049469">
        <ele>25.129999999999999</ele>
        <time>2026-06-28T08:56:51Z</time>
      </trkpt>
      <trkpt lat="51.768317995592952" lon="-9.765548016875982">
        <ele>24.170000000000002</ele>
        <time>2026-06-28T08:56:52Z</time>
      </trkpt>
      <trkpt lat="51.768968012183905" lon="-9.767442997545004">
        <ele>16.960000000000001</ele>
        <time>2026-06-28T08:57:00Z</time>
      </trkpt>
      <trkpt lat="51.769031966105103" lon="-9.767662016674876">
        <ele>15.52</ele>
        <time>2026-06-28T08:57:01Z</time>
      </trkpt>
      <trkpt lat="51.769047975540161" lon="-9.767900984734297">
        <ele>14.08</ele>
        <time>2026-06-28T08:57:02Z</time>
      </trkpt>
      <trkpt lat="51.769057027995586" lon="-9.768089996650815">
        <ele>13.119999999999999</ele>
        <time>2026-06-28T08:57:03Z</time>
      </trkpt>
      <trkpt lat="51.769007993862033" lon="-9.768269034102559">
        <ele>12.630000000000001</ele>
        <time>2026-06-28T08:57:04Z</time>
      </trkpt>
      <trkpt lat="51.76895703189075" lon="-9.768407000228763">
        <ele>13.119999999999999</ele>
        <time>2026-06-28T08:57:05Z</time>
      </trkpt>
      <trkpt lat="51.768885031342506" lon="-9.768546978011727">
        <ele>13.119999999999999</ele>
        <time>2026-06-28T08:57:06Z</time>
      </trkpt>
      <trkpt lat="51.768801966682076" lon="-9.768675975501537">
        <ele>13.119999999999999</ele>
        <time>2026-06-28T08:57:07Z</time>
      </trkpt>
      <trkpt lat="51.768653020262718" lon="-9.76889499463141">
        <ele>12.630000000000001</ele>
        <time>2026-06-28T08:57:09Z</time>
      </trkpt>
      <trkpt lat="51.768576996400952" lon="-9.768993984907866">
        <ele>12.15</ele>
        <time>2026-06-28T08:57:10Z</time>
      </trkpt>
      <trkpt lat="51.767870988696814" lon="-9.769908031448722">
        <ele>6.87</ele>
        <time>2026-06-28T08:57:19Z</time>
      </trkpt>
      <trkpt lat="51.767635038122535" lon="-9.770213970914483">
        <ele>4.46</ele>
        <time>2026-06-28T08:57:24Z</time>
      </trkpt>
      <trkpt lat="51.767601007595658" lon="-9.770256970077753">
        <ele>3.98</ele>
        <time>2026-06-28T08:57:25Z</time>
      </trkpt>
      <trkpt lat="51.767578041180968" lon="-9.770286977291107">
        <ele>3.5</ele>
        <time>2026-06-28T08:57:26Z</time>
      </trkpt>
      <trkpt lat="51.767563037574291" lon="-9.770307010039687">
        <ele>3.02</ele>
        <time>2026-06-28T08:57:27Z</time>
      </trkpt>
      <trkpt lat="51.767550967633724" lon="-9.770322013646364">
        <ele>3.02</ele>
        <time>2026-06-28T08:57:28Z</time>
      </trkpt>
      <trkpt lat="51.767550967633724" lon="-9.770322013646364">
        <ele>2.54</ele>
        <time>2026-06-28T08:57:43Z</time>
      </trkpt>
      <trkpt lat="51.767550967633724" lon="-9.770322013646364">
        <ele>3.5</ele>
        <time>2026-06-28T08:58:32Z</time>
      </trkpt>
      <trkpt lat="51.767550967633724" lon="-9.770322013646364">
        <ele>3.02</ele>
        <time>2026-06-28T08:59:10Z</time>
      </trkpt>
      <trkpt lat="51.767550967633724" lon="-9.770322013646364">
        <ele>3.5</ele>
        <time>2026-06-28T09:00:01Z</time>
      </trkpt>
      <trkpt lat="51.767550967633724" lon="-9.770322013646364">
        <ele>3.98</ele>
        <time>2026-06-28T09:00:52Z</time>
      </trkpt>
      <trkpt lat="51.767550967633724" lon="-9.770322013646364">
        <ele>3.98</ele>
        <time>2026-06-28T09:01:05Z</time>
      </trkpt>
      <trkpt lat="51.767519032582641" lon="-9.770364006981254">
        <ele>7.35</ele>
        <time>2026-06-28T09:01:06Z</time>
      </trkpt>
      <trkpt lat="51.767491037026048" lon="-9.77039996534586">
        <ele>12.15</ele>
        <time>2026-06-28T09:01:11Z</time>
      </trkpt>
      <trkpt lat="51.767357010394335" lon="-9.770537009462714">
        <ele>15.039999999999999</ele>
        <time>2026-06-28T09:01:14Z</time>
      </trkpt>
      <trkpt lat="51.767279980704188" lon="-9.770537009462714">
        <ele>15.039999999999999</ele>
        <time>2026-06-28T09:01:15Z</time>
      </trkpt>
      <trkpt lat="51.767000025138259" lon="-9.770490992814302">
        <ele>15.039999999999999</ele>
        <time>2026-06-28T09:01:18Z</time>
      </trkpt>
      <trkpt lat="51.766900029033422" lon="-9.770456040278077">
        <ele>14.56</ele>
        <time>2026-06-28T09:01:19Z</time>
      </trkpt>
      <trkpt lat="51.766802966594696" lon="-9.770422009751201">
        <ele>14.56</ele>
        <time>2026-06-28T09:01:20Z</time>
      </trkpt>
      <trkpt lat="51.766715040430427" lon="-9.770390996709466">
        <ele>14.56</ele>
        <time>2026-06-28T09:01:21Z</time>
      </trkpt>
      <trkpt lat="51.766628036275506" lon="-9.770359983667731">
        <ele>14.08</ele>
        <time>2026-06-28T09:01:22Z</time>
      </trkpt>
      <trkpt lat="51.766543965786695" lon="-9.770330982282758">
        <ele>14.08</ele>
        <time>2026-06-28T09:01:23Z</time>
      </trkpt>
      <trkpt lat="51.766470037400723" lon="-9.770303992554545">
        <ele>13.6</ele>
        <time>2026-06-28T09:01:24Z</time>
      </trkpt>
      <trkpt lat="51.766384961083531" lon="-9.77029100060463">
        <ele>13.6</ele>
        <time>2026-06-28T09:01:25Z</time>
      </trkpt>
      <trkpt lat="51.766323018819094" lon="-9.770347997546196">
        <ele>13.6</ele>
        <time>2026-06-28T09:01:26Z</time>
      </trkpt>
      <trkpt lat="51.766258981078863" lon="-9.770407006144524">
        <ele>13.119999999999999</ele>
        <time>2026-06-28T09:01:27Z</time>
      </trkpt>
      <trkpt lat="51.766188992187381" lon="-9.770470960065723">
        <ele>13.119999999999999</ele>
        <time>2026-06-28T09:01:28Z</time>
      </trkpt>
      <trkpt lat="51.766117997467518" lon="-9.770536003634334">
        <ele>13.119999999999999</ele>
        <time>2026-06-28T09:01:29Z</time>
      </trkpt>
      <trkpt lat="51.766051026061177" lon="-9.770596018061042">
        <ele>13.119999999999999</ele>
        <time>2026-06-28T09:01:30Z</time>
      </trkpt>
      <trkpt lat="51.765990005806088" lon="-9.770652009174228">
        <ele>12.630000000000001</ele>
        <time>2026-06-28T09:01:31Z</time>
      </trkpt>
      <trkpt lat="51.765880035236478" lon="-9.770729960873723">
        <ele>12.15</ele>
        <time>2026-06-28T09:01:33Z</time>
      </trkpt>
      <trkpt lat="51.765823038294911" lon="-9.770729960873723">
        <ele>11.67</ele>
        <time>2026-06-28T09:01:34Z</time>
      </trkpt>
      <trkpt lat="51.765749026089907" lon="-9.770676987245679">
        <ele>11.67</ele>
        <time>2026-06-28T09:01:35Z</time>
      </trkpt>
      <trkpt lat="51.765688005834818" lon="-9.770610015839338">
        <ele>11.67</ele>
        <time>2026-06-28T09:01:36Z</time>
      </trkpt>
      <trkpt lat="51.765620028600097" lon="-9.770536003634334">
        <ele>11.19</ele>
        <time>2026-06-28T09:01:37Z</time>
      </trkpt>
      <trkpt lat="51.765549033880234" lon="-9.770448999479413">
        <ele>11.67</ele>
        <time>2026-06-28T09:01:38Z</time>
      </trkpt>
      <trkpt lat="51.765483990311623" lon="-9.77033500559628">
        <ele>11.67</ele>
        <time>2026-06-28T09:01:39Z</time>
      </trkpt>
      <trkpt lat="51.765416013076901" lon="-9.770213970914483">
        <ele>11.67</ele>
        <time>2026-06-28T09:01:40Z</time>
      </trkpt>
      <trkpt lat="51.765342000871897" lon="-9.770092014223337">
        <ele>11.67</ele>
        <time>2026-06-28T09:01:41Z</time>
      </trkpt>
      <trkpt lat="51.765256002545357" lon="-9.769973997026682">
        <ele>11.67</ele>
        <time>2026-06-28T09:01:42Z</time>
      </trkpt>
      <trkpt lat="51.765186013653874" lon="-9.769875006750226">
        <ele>12.15</ele>
        <time>2026-06-28T09:01:43Z</time>
      </trkpt>
      <trkpt lat="51.765130022540689" lon="-9.76979898288846">
        <ele>12.15</ele>
        <time>2026-06-28T09:01:44Z</time>
      </trkpt>
      <trkpt lat="51.765075037255883" lon="-9.769729999825358">
        <ele>12.15</ele>
        <time>2026-06-28T09:01:45Z</time>
      </trkpt>
      <trkpt lat="51.764989038929343" lon="-9.769654981791973">
        <ele>12.15</ele>
        <time>2026-06-28T09:01:46Z</time>
      </trkpt>
      <trkpt lat="51.764889964833856" lon="-9.769567977637053">
        <ele>12.15</ele>
        <time>2026-06-28T09:01:47Z</time>
      </trkpt>
      <trkpt lat="51.764745963737369" lon="-9.769441997632384">
        <ele>12.630000000000001</ele>
        <time>2026-06-28T09:01:48Z</time>
      </trkpt>
      <trkpt lat="51.764677986502647" lon="-9.769430011510849">
        <ele>12.630000000000001</ele>
        <time>2026-06-28T09:01:49Z</time>
      </trkpt>
      <trkpt lat="51.764562986791134" lon="-9.769408972933888">
        <ele>13.119999999999999</ele>
        <time>2026-06-28T09:01:50Z</time>
      </trkpt>
      <trkpt lat="51.763937026262283" lon="-9.769296990707517">
        <ele>14.08</ele>
        <time>2026-06-28T09:01:55Z</time>
      </trkpt>
      <trkpt lat="51.763812974095345" lon="-9.769240999594331">
        <ele>14.08</ele>
        <time>2026-06-28T09:01:56Z</time>
      </trkpt>
      <trkpt lat="51.763581968843937" lon="-9.769118959084153">
        <ele>15.039999999999999</ele>
        <time>2026-06-28T09:01:58Z</time>
      </trkpt>
      <trkpt lat="51.763509968295693" lon="-9.769043019041419">
        <ele>15.039999999999999</ele>
        <time>2026-06-28T09:01:59Z</time>
      </trkpt>
      <trkpt lat="51.76343897357583" lon="-9.768926007673144">
        <ele>15.52</ele>
        <time>2026-06-28T09:02:00Z</time>
      </trkpt>
      <trkpt lat="51.762701030820608" lon="-9.767694035544992">
        <ele>19.359999999999999</ele>
        <time>2026-06-28T09:02:09Z</time>
      </trkpt>
      <trkpt lat="51.762522999197245" lon="-9.76739102974534">
        <ele>20.809999999999999</ele>
        <time>2026-06-28T09:02:11Z</time>
      </trkpt>
      <trkpt lat="51.762441024184227" lon="-9.767288016155362">
        <ele>21.77</ele>
        <time>2026-06-28T09:02:12Z</time>
      </trkpt>
      <trkpt lat="51.7623629886657" lon="-9.767208974808455">
        <ele>22.73</ele>
        <time>2026-06-28T09:02:13Z</time>
      </trkpt>
      <trkpt lat="51.762281013652682" lon="-9.76717603392899">
        <ele>23.690000000000001</ele>
        <time>2026-06-28T09:02:14Z</time>
      </trkpt>
      <trkpt lat="51.762178000062704" lon="-9.767152983695269">
        <ele>24.649999999999999</ele>
        <time>2026-06-28T09:02:15Z</time>
      </trkpt>
      <trkpt lat="51.762066017836332" lon="-9.767129011452198">
        <ele>26.09</ele>
        <time>2026-06-28T09:02:16Z</time>
      </trkpt>
      <trkpt lat="51.761291027069092" lon="-9.767021974548698">
        <ele>33.780000000000001</ele>
        <time>2026-06-28T09:02:22Z</time>
      </trkpt>
      <trkpt lat="51.761176027357578" lon="-9.766990961506963">
        <ele>34.740000000000002</ele>
        <time>2026-06-28T09:02:23Z</time>
      </trkpt>
      <trkpt lat="51.761081982403994" lon="-9.766907980665565">
        <ele>35.710000000000001</ele>
        <time>2026-06-28T09:02:24Z</time>
      </trkpt>
      <trkpt lat="51.760976035147905" lon="-9.766783006489277">
        <ele>36.189999999999998</ele>
        <time>2026-06-28T09:02:25Z</time>
      </trkpt>
      <trkpt lat="51.760888025164604" lon="-9.766632970422506">
        <ele>36.670000000000002</ele>
        <time>2026-06-28T09:02:26Z</time>
      </trkpt>
      <trkpt lat="51.760803032666445" lon="-9.766538003459573">
        <ele>37.149999999999999</ele>
        <time>2026-06-28T09:02:27Z</time>
      </trkpt>
      <trkpt lat="51.760712005198002" lon="-9.766459967941046">
        <ele>37.149999999999999</ele>
        <time>2026-06-28T09:02:28Z</time>
      </trkpt>
      <trkpt lat="51.760609997436404" lon="-9.766459967941046">
        <ele>37.149999999999999</ele>
        <time>2026-06-28T09:02:29Z</time>
      </trkpt>
      <trkpt lat="51.760504972189665" lon="-9.766534985974431">
        <ele>36.670000000000002</ele>
        <time>2026-06-28T09:02:30Z</time>
      </trkpt>
      <trkpt lat="51.760408999398351" lon="-9.766660965979099">
        <ele>36.670000000000002</ele>
        <time>2026-06-28T09:02:31Z</time>
      </trkpt>
      <trkpt lat="51.760312020778656" lon="-9.766789963468909">
        <ele>36.670000000000002</ele>
        <time>2026-06-28T09:02:32Z</time>
      </trkpt>
      <trkpt lat="51.759965009987354" lon="-9.767207968980074">
        <ele>37.630000000000003</ele>
        <time>2026-06-28T09:02:35Z</time>
      </trkpt>
      <trkpt lat="51.759840035811067" lon="-9.767291033640504">
        <ele>37.630000000000003</ele>
        <time>2026-06-28T09:02:36Z</time>
      </trkpt>
      <trkpt lat="51.759725036099553" lon="-9.767338978126645">
        <ele>37.630000000000003</ele>
        <time>2026-06-28T09:02:37Z</time>
      </trkpt>
      <trkpt lat="51.75961297005415" lon="-9.767338978126645">
        <ele>38.109999999999999</ele>
        <time>2026-06-28T09:02:38Z</time>
      </trkpt>
      <trkpt lat="51.759538035839796" lon="-9.767275024205446">
        <ele>38.590000000000003</ele>
        <time>2026-06-28T09:02:39Z</time>
      </trkpt>
      <trkpt lat="51.759455977007747" lon="-9.767185002565384">
        <ele>39.07</ele>
        <time>2026-06-28T09:02:40Z</time>
      </trkpt>
      <trkpt lat="51.75937500782311" lon="-9.767087018117309">
        <ele>39.07</ele>
        <time>2026-06-28T09:02:41Z</time>
      </trkpt>
      <trkpt lat="51.759309964254498" lon="-9.766922984272242">
        <ele>38.590000000000003</ele>
        <time>2026-06-28T09:02:42Z</time>
      </trkpt>
      <trkpt lat="51.759017016738653" lon="-9.766204990446568">
        <ele>39.07</ele>
        <time>2026-06-28T09:02:46Z</time>
      </trkpt>
      <trkpt lat="51.75873395986855" lon="-9.765850016847253">
        <ele>39.07</ele>
        <time>2026-06-28T09:02:49Z</time>
      </trkpt>
      <trkpt lat="51.758614014834166" lon="-9.765759995207191">
        <ele>38.590000000000003</ele>
        <time>2026-06-28T09:02:50Z</time>
      </trkpt>
      <trkpt lat="51.758498009294271" lon="-9.76567299105227">
        <ele>38.590000000000003</ele>
        <time>2026-06-28T09:02:51Z</time>
      </trkpt>
      <trkpt lat="51.758384015411139" lon="-9.765587998554111">
        <ele>38.590000000000003</ele>
        <time>2026-06-28T09:02:52Z</time>
      </trkpt>
      <trkpt lat="51.758282007649541" lon="-9.765511974692345">
        <ele>38.590000000000003</ele>
        <time>2026-06-28T09:02:53Z</time>
      </trkpt>
      <trkpt lat="51.758184023201466" lon="-9.765387000516057">
        <ele>39.07</ele>
        <time>2026-06-28T09:02:54Z</time>
      </trkpt>
      <trkpt lat="51.758137000724673" lon="-9.765215003862977">
        <ele>39.549999999999997</ele>
        <time>2026-06-28T09:02:55Z</time>
      </trkpt>
      <trkpt lat="51.75813096575439" lon="-9.765104027464986">
        <ele>39.549999999999997</ele>
        <time>2026-06-28T09:02:56Z</time>
      </trkpt>
      <trkpt lat="51.758121997117996" lon="-9.764938987791538">
        <ele>40.509999999999998</ele>
        <time>2026-06-28T09:02:57Z</time>
      </trkpt>
      <trkpt lat="51.758101964369416" lon="-9.764764979481697">
        <ele>40.990000000000002</ele>
        <time>2026-06-28T09:02:58Z</time>
      </trkpt>
      <trkpt lat="51.758062988519669" lon="-9.764573033899069">
        <ele>41.469999999999999</ele>
        <time>2026-06-28T09:02:59Z</time>
      </trkpt>
      <trkpt lat="51.758017977699637" lon="-9.764359965920448">
        <ele>41.950000000000003</ele>
        <time>2026-06-28T09:03:00Z</time>
      </trkpt>
      <trkpt lat="51.757946982979774" lon="-9.764156034216285">
        <ele>42.439999999999998</ele>
        <time>2026-06-28T09:03:01Z</time>
      </trkpt>
      <trkpt lat="51.757733998820186" lon="-9.763614982366562">
        <ele>44.359999999999999</ele>
        <time>2026-06-28T09:03:04Z</time>
      </trkpt>
      <trkpt lat="51.757649006322026" lon="-9.763518003746867">
        <ele>44.840000000000003</ele>
        <time>2026-06-28T09:03:05Z</time>
      </trkpt>
      <trkpt lat="51.757559990510345" lon="-9.763420019298792">
        <ele>45.32</ele>
        <time>2026-06-28T09:03:06Z</time>
      </trkpt>
      <trkpt lat="51.757458988577127" lon="-9.763336032629013">
        <ele>45.799999999999997</ele>
        <time>2026-06-28T09:03:07Z</time>
      </trkpt>
      <trkpt lat="51.757340971380472" lon="-9.763293033465743">
        <ele>46.280000000000001</ele>
        <time>2026-06-28T09:03:08Z</time>
      </trkpt>
      <trkpt lat="51.757218008860946" lon="-9.763248022645712">
        <ele>47.240000000000002</ele>
        <time>2026-06-28T09:03:09Z</time>
      </trkpt>
      <trkpt lat="51.756958002224565" lon="-9.763153977692127">
        <ele>48.68</ele>
        <time>2026-06-28T09:03:11Z</time>
      </trkpt>
      <trkpt lat="51.756262974813581" lon="-9.762887014076114">
        <ele>52.530000000000001</ele>
        <time>2026-06-28T09:03:16Z</time>
      </trkpt>
      <trkpt lat="51.755052041262388" lon="-9.76200096309185">
        <ele>58.780000000000001</ele>
        <time>2026-06-28T09:03:25Z</time>
      </trkpt>
      <trkpt lat="51.754415016621351" lon="-9.76173902861774">
        <ele>62.619999999999997</ele>
        <time>2026-06-28T09:03:30Z</time>
      </trkpt>
      <trkpt lat="51.75430404022336" lon="-9.76173902861774">
        <ele>62.619999999999997</ele>
        <time>2026-06-28T09:03:31Z</time>
      </trkpt>
      <trkpt lat="51.754189040511847" lon="-9.761749003082514">
        <ele>62.619999999999997</ele>
        <time>2026-06-28T09:03:32Z</time>
      </trkpt>
      <trkpt lat="51.754073034971952" lon="-9.7618049941957">
        <ele>63.100000000000001</ele>
        <time>2026-06-28T09:03:33Z</time>
      </trkpt>
      <trkpt lat="51.753952000290155" lon="-9.761862996965647">
        <ele>63.100000000000001</ele>
        <time>2026-06-28T09:03:34Z</time>
      </trkpt>
      <trkpt lat="51.753829037770629" lon="-9.761923011392355">
        <ele>63.579999999999998</ele>
        <time>2026-06-28T09:03:35Z</time>
      </trkpt>
      <trkpt lat="51.75370397977531" lon="-9.761983025819063">
        <ele>63.579999999999998</ele>
        <time>2026-06-28T09:03:36Z</time>
      </trkpt>
      <trkpt lat="51.753585040569305" lon="-9.762017978355289">
        <ele>64.069999999999993</ele>
        <time>2026-06-28T09:03:37Z</time>
      </trkpt>
      <trkpt lat="51.753455037251115" lon="-9.762017978355289">
        <ele>64.069999999999993</ele>
        <time>2026-06-28T09:03:38Z</time>
      </trkpt>
      <trkpt lat="51.753324028104544" lon="-9.762017978355289">
        <ele>64.549999999999997</ele>
        <time>2026-06-28T09:03:39Z</time>
      </trkpt>
      <trkpt lat="51.752995038405061" lon="-9.761962993070483">
        <ele>66.469999999999999</ele>
        <time>2026-06-28T09:03:42Z</time>
      </trkpt>
      <trkpt lat="51.752924965694547" lon="-9.761909013614059">
        <ele>67.430000000000007</ele>
        <time>2026-06-28T09:03:43Z</time>
      </trkpt>
      <trkpt lat="51.752840979024768" lon="-9.761816980317235">
        <ele>67.909999999999997</ele>
        <time>2026-06-28T09:03:44Z</time>
      </trkpt>
      <trkpt lat="51.752755986526608" lon="-9.761724025011063">
        <ele>68.390000000000001</ele>
        <time>2026-06-28T09:03:45Z</time>
      </trkpt>
      <trkpt lat="51.75269203260541" lon="-9.761617993935943">
        <ele>68.870000000000005</ele>
        <time>2026-06-28T09:03:46Z</time>
      </trkpt>
      <trkpt lat="51.752627994865179" lon="-9.76148497313261">
        <ele>69.349999999999994</ele>
        <time>2026-06-28T09:03:47Z</time>
      </trkpt>
      <trkpt lat="51.752560017630458" lon="-9.761346001178026">
        <ele>70.310000000000002</ele>
        <time>2026-06-28T09:03:48Z</time>
      </trkpt>
      <trkpt lat="51.752491034567356" lon="-9.76120300590992">
        <ele>70.790000000000006</ele>
        <time>2026-06-28T09:03:49Z</time>
      </trkpt>
      <trkpt lat="51.752366982400417" lon="-9.760949034243822">
        <ele>71.760000000000005</ele>
        <time>2026-06-28T09:03:51Z</time>
      </trkpt>
      <trkpt lat="51.752290036529303" lon="-9.76088197901845">
        <ele>72.239999999999995</ele>
        <time>2026-06-28T09:03:52Z</time>
      </trkpt>
      <trkpt lat="51.752235973253846" lon="-9.760837974026799">
        <ele>72.719999999999999</ele>
        <time>2026-06-28T09:03:53Z</time>
      </trkpt>
      <trkpt lat="51.75215600989759" lon="-9.760876027867198">
        <ele>73.200000000000003</ele>
        <time>2026-06-28T09:03:54Z</time>
      </trkpt>
      <trkpt lat="51.752075962722301" lon="-9.760912992060185">
        <ele>73.200000000000003</ele>
        <time>2026-06-28T09:03:55Z</time>
      </trkpt>
      <trkpt lat="51.751980995759368" lon="-9.760958002880216">
        <ele>73.680000000000007</ele>
        <time>2026-06-28T09:03:56Z</time>
      </trkpt>
      <trkpt lat="51.751869013532996" lon="-9.76101097650826">
        <ele>73.200000000000003</ele>
        <time>2026-06-28T09:03:57Z</time>
      </trkpt>
      <trkpt lat="51.751638008281589" lon="-9.761119019240141">
        <ele>73.200000000000003</ele>
        <time>2026-06-28T09:03:59Z</time>
      </trkpt>
      <trkpt lat="51.751524014398456" lon="-9.761172998696566">
        <ele>73.200000000000003</ele>
        <time>2026-06-28T09:04:00Z</time>
      </trkpt>
      <trkpt lat="51.751400968059897" lon="-9.761180961504579">
        <ele>73.680000000000007</ele>
        <time>2026-06-28T09:04:01Z</time>
      </trkpt>
      <trkpt lat="51.751285968348384" lon="-9.761180961504579">
        <ele>74.159999999999997</ele>
        <time>2026-06-28T09:04:02Z</time>
      </trkpt>
      <trkpt lat="51.75116702914238" lon="-9.761180961504579">
        <ele>74.159999999999997</ele>
        <time>2026-06-28T09:04:03Z</time>
      </trkpt>
      <trkpt lat="51.751039959490299" lon="-9.761180961504579">
        <ele>74.640000000000001</ele>
        <time>2026-06-28T09:04:04Z</time>
      </trkpt>
      <trkpt lat="51.749846963211894" lon="-9.761181967332959">
        <ele>79.450000000000003</ele>
        <time>2026-06-28T09:04:13Z</time>
      </trkpt>
      <trkpt lat="51.749720983207226" lon="-9.761152965947986">
        <ele>79.930000000000007</ele>
        <time>2026-06-28T09:04:14Z</time>
      </trkpt>
      <trkpt lat="51.749595003202558" lon="-9.761122958734632">
        <ele>80.890000000000001</ele>
        <time>2026-06-28T09:04:15Z</time>
      </trkpt>
      <trkpt lat="51.749467011541128" lon="-9.76109404116869">
        <ele>81.370000000000005</ele>
        <time>2026-06-28T09:04:16Z</time>
      </trkpt>
      <trkpt lat="51.749347988516092" lon="-9.761084988713265">
        <ele>82.329999999999998</ele>
        <time>2026-06-28T09:04:17Z</time>
      </trkpt>
      <trkpt lat="51.749233994632959" lon="-9.761122958734632">
        <ele>83.290000000000006</ele>
        <time>2026-06-28T09:04:18Z</time>
      </trkpt>
      <trkpt lat="51.749103991314769" lon="-9.761166041716933">
        <ele>83.769999999999996</ele>
        <time>2026-06-28T09:04:19Z</time>
      </trkpt>
      <trkpt lat="51.748970970511436" lon="-9.761210968717933">
        <ele>84.730000000000004</ele>
        <time>2026-06-28T09:04:20Z</time>
      </trkpt>
      <trkpt lat="51.748710041865706" lon="-9.761284980922937">
        <ele>86.180000000000007</ele>
        <time>2026-06-28T09:04:22Z</time>
      </trkpt>
      <trkpt lat="51.748576015233994" lon="-9.76126997731626">
        <ele>86.659999999999997</ele>
        <time>2026-06-28T09:04:23Z</time>
      </trkpt>
      <trkpt lat="51.748437965288758" lon="-9.761254973709583">
        <ele>86.659999999999997</ele>
        <time>2026-06-28T09:04:24Z</time>
      </trkpt>
      <trkpt lat="51.747288974002004" lon="-9.761108038946986">
        <ele>90.5</ele>
        <time>2026-06-28T09:04:32Z</time>
      </trkpt>
      <trkpt lat="51.747148996219039" lon="-9.76111801341176">
        <ele>90.980000000000004</ele>
        <time>2026-06-28T09:04:33Z</time>
      </trkpt>
      <trkpt lat="51.746752029284835" lon="-9.761143997311592">
        <ele>91.459999999999994</ele>
        <time>2026-06-28T09:04:36Z</time>
      </trkpt>
      <trkpt lat="51.74648598767817" lon="-9.761150032281876">
        <ele>91.459999999999994</ele>
        <time>2026-06-28T09:04:38Z</time>
      </trkpt>
      <trkpt lat="51.746361013501883" lon="-9.761093035340309">
        <ele>91.939999999999998</ele>
        <time>2026-06-28T09:04:39Z</time>
      </trkpt>
      <trkpt lat="51.746231010183692" lon="-9.761018017306924">
        <ele>92.900000000000006</ele>
        <time>2026-06-28T09:04:40Z</time>
      </trkpt>
      <trkpt lat="51.746112992987037" lon="-9.760917015373707">
        <ele>93.870000000000005</ele>
        <time>2026-06-28T09:04:41Z</time>
      </trkpt>
      <trkpt lat="51.74599003046751" lon="-9.760812995955348">
        <ele>94.349999999999994</ele>
        <time>2026-06-28T09:04:42Z</time>
      </trkpt>
      <trkpt lat="51.744582960382104" lon="-9.759535007178783">
        <ele>104.92</ele>
        <time>2026-06-28T09:04:53Z</time>
      </trkpt>
      <trkpt lat="51.743887010961771" lon="-9.758763033896685">
        <ele>110.20999999999999</ele>
        <time>2026-06-28T09:04:59Z</time>
      </trkpt>
      <trkpt lat="51.74352197907865" lon="-9.75849699229002">
        <ele>113.56999999999999</ele>
        <time>2026-06-28T09:05:02Z</time>
      </trkpt>
      <trkpt lat="51.743404967710376" lon="-9.758468996733427">
        <ele>114.53</ele>
        <time>2026-06-28T09:05:03Z</time>
      </trkpt>
      <trkpt lat="51.743300026282668" lon="-9.758492968976498">
        <ele>115.01000000000001</ele>
        <time>2026-06-28T09:05:04Z</time>
      </trkpt>
      <trkpt lat="51.743201036006212" lon="-9.758516019210219">
        <ele>115.98</ele>
        <time>2026-06-28T09:05:05Z</time>
      </trkpt>
      <trkpt lat="51.743106991052628" lon="-9.758608974516392">
        <ele>116.45999999999999</ele>
        <time>2026-06-28T09:05:06Z</time>
      </trkpt>
      <trkpt lat="51.743014035746455" lon="-9.758721040561795">
        <ele>116.94</ele>
        <time>2026-06-28T09:05:07Z</time>
      </trkpt>
      <trkpt lat="51.742917979136109" lon="-9.758836962282658">
        <ele>117.42</ele>
        <time>2026-06-28T09:05:08Z</time>
      </trkpt>
      <trkpt lat="51.742824018001556" lon="-9.758949028328061">
        <ele>117.90000000000001</ele>
        <time>2026-06-28T09:05:09Z</time>
      </trkpt>
      <trkpt lat="51.742735002189875" lon="-9.759050030261278">
        <ele>118.38</ele>
        <time>2026-06-28T09:05:10Z</time>
      </trkpt>
      <trkpt lat="51.742643974721432" lon="-9.759130999445915">
        <ele>118.86</ele>
        <time>2026-06-28T09:05:11Z</time>
      </trkpt>
      <trkpt lat="51.742558982223272" lon="-9.759207023307681">
        <ele>119.81999999999999</ele>
        <time>2026-06-28T09:05:12Z</time>
      </trkpt>
      <trkpt lat="51.742434008046985" lon="-9.759233007207513">
        <ele>120.3</ele>
        <time>2026-06-28T09:05:13Z</time>
      </trkpt>
      <trkpt lat="51.742315990850329" lon="-9.759257985278964">
        <ele>121.26000000000001</ele>
        <time>2026-06-28T09:05:14Z</time>
      </trkpt>
      <trkpt lat="51.742191016674042" lon="-9.759282963350415">
        <ele>121.73999999999999</ele>
        <time>2026-06-28T09:05:15Z</time>
      </trkpt>
      <trkpt lat="51.742066964507103" lon="-9.759309031069279">
        <ele>122.70999999999999</ele>
        <time>2026-06-28T09:05:16Z</time>
      </trkpt>
      <trkpt lat="51.741951964795589" lon="-9.759299978613854">
        <ele>123.67</ele>
        <time>2026-06-28T09:05:17Z</time>
      </trkpt>
      <trkpt lat="51.741850040853024" lon="-9.759283969178796">
        <ele>124.15000000000001</ele>
        <time>2026-06-28T09:05:18Z</time>
      </trkpt>
      <trkpt lat="51.741402028128505" lon="-9.759221021085978">
        <ele>128.94999999999999</ele>
        <time>2026-06-28T09:05:24Z</time>
      </trkpt>
      <trkpt lat="51.741231037303805" lon="-9.759158995002508">
        <ele>130.88</ele>
        <time>2026-06-28T09:05:26Z</time>
      </trkpt>
      <trkpt lat="51.741150990128517" lon="-9.759096968919039">
        <ele>131.84</ele>
        <time>2026-06-28T09:05:27Z</time>
      </trkpt>
      <trkpt lat="51.741063985973597" lon="-9.759029997512698">
        <ele>132.31999999999999</ele>
        <time>2026-06-28T09:05:28Z</time>
      </trkpt>
      <trkpt lat="51.74098301678896" lon="-9.758937964215875">
        <ele>132.80000000000001</ele>
        <time>2026-06-28T09:05:29Z</time>
      </trkpt>
      <trkpt lat="51.740906992927194" lon="-9.758805027231574">
        <ele>133.75999999999999</ele>
        <time>2026-06-28T09:05:30Z</time>
      </trkpt>
      <trkpt lat="51.740827029570937" lon="-9.758665971457958">
        <ele>134.24000000000001</ele>
        <time>2026-06-28T09:05:31Z</time>
      </trkpt>
      <trkpt lat="51.7403609957546" lon="-9.757854016497731">
        <ele>139.05000000000001</ele>
        <time>2026-06-28T09:05:37Z</time>
      </trkpt>
      <trkpt lat="51.740262005478144" lon="-9.757737005129457">
        <ele>139.53</ele>
        <time>2026-06-28T09:05:38Z</time>
      </trkpt>
      <trkpt lat="51.739483997225761" lon="-9.756508972495794">
        <ele>145.78</ele>
        <time>2026-06-28T09:05:46Z</time>
      </trkpt>
      <trkpt lat="51.739207981154323" lon="-9.756106976419687">
        <ele>147.69999999999999</ele>
        <time>2026-06-28T09:05:49Z</time>
      </trkpt>
      <trkpt lat="51.738797016441822" lon="-9.755707997828722">
        <ele>151.06</ele>
        <time>2026-06-28T09:05:54Z</time>
      </trkpt>
      <trkpt lat="51.738703977316618" lon="-9.755651000887156">
        <ele>152.03</ele>
        <time>2026-06-28T09:05:56Z</time>
      </trkpt>
      <trkpt lat="51.738588977605104" lon="-9.755581011995673">
        <ele>152.99000000000001</ele>
        <time>2026-06-28T09:05:58Z</time>
      </trkpt>
      <trkpt lat="51.738518988713622" lon="-9.755584029480815">
        <ele>153.94999999999999</ele>
        <time>2026-06-28T09:05:59Z</time>
      </trkpt>
      <trkpt lat="51.738432990387082" lon="-9.755586963146925">
        <ele>154.43000000000001</ele>
        <time>2026-06-28T09:06:00Z</time>
      </trkpt>
      <trkpt lat="51.737671997398138" lon="-9.75555301643908">
        <ele>159.24000000000001</ele>
        <time>2026-06-28T09:06:09Z</time>
      </trkpt>
      <trkpt lat="51.737575018778443" lon="-9.755542036145926">
        <ele>159.72</ele>
        <time>2026-06-28T09:06:10Z</time>
      </trkpt>
      <trkpt lat="51.737468987703323" lon="-9.755529966205359">
        <ele>160.19999999999999</ele>
        <time>2026-06-28T09:06:11Z</time>
      </trkpt>
      <trkpt lat="51.737345019355416" lon="-9.755515968427062">
        <ele>161.16</ele>
        <time>2026-06-28T09:06:12Z</time>
      </trkpt>
      <trkpt lat="51.736552007496357" lon="-9.755842024460435">
        <ele>164.52000000000001</ele>
        <time>2026-06-28T09:06:19Z</time>
      </trkpt>
      <trkpt lat="51.736065018922091" lon="-9.75604897364974">
        <ele>166.44999999999999</ele>
        <time>2026-06-28T09:06:25Z</time>
      </trkpt>
      <trkpt lat="51.735958987846971" lon="-9.756072023883462">
        <ele>166.93000000000001</ele>
        <time>2026-06-28T09:06:26Z</time>
      </trkpt>
      <trkpt lat="51.734875040128827" lon="-9.7564119938761">
        <ele>172.69</ele>
        <time>2026-06-28T09:06:34Z</time>
      </trkpt>
      <trkpt lat="51.733426982536912" lon="-9.75722897797823">
        <ele>180.38</ele>
        <time>2026-06-28T09:06:45Z</time>
      </trkpt>
      <trkpt lat="51.733347019180655" lon="-9.757312964648008">
        <ele>182.31</ele>
        <time>2026-06-28T09:06:50Z</time>
      </trkpt>
      <trkpt lat="51.733347019180655" lon="-9.757312964648008">
        <ele>182.78999999999999</ele>
        <time>2026-06-28T09:07:07Z</time>
      </trkpt>
      <trkpt lat="51.733347019180655" lon="-9.757312964648008">
        <ele>182.31</ele>
        <time>2026-06-28T09:07:52Z</time>
      </trkpt>
      <trkpt lat="51.733245011419058" lon="-9.757380019873381">
        <ele>182.78999999999999</ele>
        <time>2026-06-28T09:08:21Z</time>
      </trkpt>
      <trkpt lat="51.732903029769659" lon="-9.757876982912421">
        <ele>184.22999999999999</ele>
        <time>2026-06-28T09:08:25Z</time>
      </trkpt>
      <trkpt lat="51.732830023393035" lon="-9.75791797041893">
        <ele>185.19</ele>
        <time>2026-06-28T09:08:27Z</time>
      </trkpt>
      <trkpt lat="51.732774032279849" lon="-9.757949989289045">
        <ele>185.19</ele>
        <time>2026-06-28T09:08:28Z</time>
      </trkpt>
      <trkpt lat="51.73273497261107" lon="-9.757948983460665">
        <ele>185.66999999999999</ele>
        <time>2026-06-28T09:08:29Z</time>
      </trkpt>
      <trkpt lat="51.732686022296548" lon="-9.757911013439298">
        <ele>186.15000000000001</ele>
        <time>2026-06-28T09:08:30Z</time>
      </trkpt>
      <trkpt lat="51.732623996213078" lon="-9.757862985134125">
        <ele>186.63</ele>
        <time>2026-06-28T09:08:31Z</time>
      </trkpt>
      <trkpt lat="51.732456022873521" lon="-9.757732981815934">
        <ele>187.11000000000001</ele>
        <time>2026-06-28T09:08:33Z</time>
      </trkpt>
      <trkpt lat="51.732157962396741" lon="-9.757501976564527">
        <ele>188.56</ele>
        <time>2026-06-28T09:08:36Z</time>
      </trkpt>
      <trkpt lat="51.732062995433807" lon="-9.757412038743496">
        <ele>189.52000000000001</ele>
        <time>2026-06-28T09:08:37Z</time>
      </trkpt>
      <trkpt lat="51.731881024315953" lon="-9.757148008793593">
        <ele>190.96000000000001</ele>
        <time>2026-06-28T09:08:39Z</time>
      </trkpt>
      <trkpt lat="51.731311976909637" lon="-9.75600496865809">
        <ele>196.25</ele>
        <time>2026-06-28T09:08:46Z</time>
      </trkpt>
      <trkpt lat="51.731265038251877" lon="-9.755835989490151">
        <ele>196.72999999999999</ele>
        <time>2026-06-28T09:08:47Z</time>
      </trkpt>
      <trkpt lat="51.731235031038523" lon="-9.755655024200678">
        <ele>197.69</ele>
        <time>2026-06-28T09:08:48Z</time>
      </trkpt>
      <trkpt lat="51.731203012168407" lon="-9.75546701811254">
        <ele>198.16999999999999</ele>
        <time>2026-06-28T09:08:49Z</time>
      </trkpt>
      <trkpt lat="51.731179961934686" lon="-9.755265014246106">
        <ele>199.13</ele>
        <time>2026-06-28T09:08:50Z</time>
      </trkpt>
      <trkpt lat="51.731164958328009" lon="-9.755053035914898">
        <ele>200.09</ele>
        <time>2026-06-28T09:08:51Z</time>
      </trkpt>
      <trkpt lat="51.730958009138703" lon="-9.752666037529707">
        <ele>207.30000000000001</ele>
        <time>2026-06-28T09:09:02Z</time>
      </trkpt>
      <trkpt lat="51.730889026075602" lon="-9.752109982073307">
        <ele>209.69999999999999</ele>
        <time>2026-06-28T09:09:06Z</time>
      </trkpt>
      <trkpt lat="51.730849966406822" lon="-9.752032030373812">
        <ele>210.19</ele>
        <time>2026-06-28T09:09:07Z</time>
      </trkpt>
      <trkpt lat="51.730799004435539" lon="-9.751958018168807">
        <ele>210.66999999999999</ele>
        <time>2026-06-28T09:09:08Z</time>
      </trkpt>
      <trkpt lat="51.730747036635876" lon="-9.751885011792183">
        <ele>211.15000000000001</ele>
        <time>2026-06-28T09:09:09Z</time>
      </trkpt>
      <trkpt lat="51.730681993067265" lon="-9.751898003742099">
        <ele>211.63</ele>
        <time>2026-06-28T09:09:10Z</time>
      </trkpt>
      <trkpt lat="51.730612004175782" lon="-9.751936979591847">
        <ele>212.11000000000001</ele>
        <time>2026-06-28T09:09:11Z</time>
      </trkpt>
      <trkpt lat="51.73054302111268" lon="-9.751976039260626">
        <ele>212.59</ele>
        <time>2026-06-28T09:09:12Z</time>
      </trkpt>
      <trkpt lat="51.73050002194941" lon="-9.752077963203192">
        <ele>213.06999999999999</ele>
        <time>2026-06-28T09:09:13Z</time>
      </trkpt>
      <trkpt lat="51.730447970330715" lon="-9.752203021198511">
        <ele>213.55000000000001</ele>
        <time>2026-06-28T09:09:14Z</time>
      </trkpt>
      <trkpt lat="51.730389967560768" lon="-9.752345010638237">
        <ele>213.55000000000001</ele>
        <time>2026-06-28T09:09:15Z</time>
      </trkpt>
      <trkpt lat="51.730053015053272" lon="-9.753138022497296">
        <ele>214.99000000000001</ele>
        <time>2026-06-28T09:09:20Z</time>
      </trkpt>
      <trkpt lat="51.729960981756449" lon="-9.753270037472248">
        <ele>215.47</ele>
        <time>2026-06-28T09:09:21Z</time>
      </trkpt>
      <trkpt lat="51.728907963261008" lon="-9.754688004031777">
        <ele>224.61000000000001</ele>
        <time>2026-06-28T09:09:31Z</time>
      </trkpt>
      <trkpt lat="51.72753500752151" lon="-9.756808960810304">
        <ele>233.25999999999999</ele>
        <time>2026-06-28T09:09:45Z</time>
      </trkpt>
      <trkpt lat="51.727010970935225" lon="-9.757587974891067">
        <ele>238.06</ele>
        <time>2026-06-28T09:09:52Z</time>
      </trkpt>
      <trkpt lat="51.726456005126238" lon="-9.758189963176847">
        <ele>242.38999999999999</ele>
        <time>2026-06-28T09:09:59Z</time>
      </trkpt>
      <trkpt lat="51.725830966606736" lon="-9.758528005331755">
        <ele>245.75</ele>
        <time>2026-06-28T09:10:04Z</time>
      </trkpt>
      <trkpt lat="51.725696017965674" lon="-9.758549965918064">
        <ele>246.72</ele>
        <time>2026-06-28T09:10:05Z</time>
      </trkpt>
      <trkpt lat="51.724453987553716" lon="-9.758394984528422">
        <ele>257.29000000000002</ele>
        <time>2026-06-28T09:10:14Z</time>
      </trkpt>
      <trkpt lat="51.724073030054569" lon="-9.758306974545121">
        <ele>260.17000000000002</ele>
        <time>2026-06-28T09:10:17Z</time>
      </trkpt>
      <trkpt lat="51.723950989544392" lon="-9.758323989808559">
        <ele>261.13999999999999</ele>
        <time>2026-06-28T09:10:18Z</time>
      </trkpt>
      <trkpt lat="51.723829032853246" lon="-9.758339999243617">
        <ele>261.62</ele>
        <time>2026-06-28T09:10:19Z</time>
      </trkpt>
      <trkpt lat="51.723613031208515" lon="-9.758370006456971">
        <ele>263.06</ele>
        <time>2026-06-28T09:10:21Z</time>
      </trkpt>
      <trkpt lat="51.723514962941408" lon="-9.758342010900378">
        <ele>263.54000000000002</ele>
        <time>2026-06-28T09:10:22Z</time>
      </trkpt>
      <trkpt lat="51.723425025120378" lon="-9.758285013958812">
        <ele>264.5</ele>
        <time>2026-06-28T09:10:23Z</time>
      </trkpt>
      <trkpt lat="51.723341960459948" lon="-9.758188035339117">
        <ele>265.45999999999998</ele>
        <time>2026-06-28T09:10:24Z</time>
      </trkpt>
      <trkpt lat="51.723279012367129" lon="-9.75804403424263">
        <ele>266.89999999999998</ele>
        <time>2026-06-28T09:10:25Z</time>
      </trkpt>
      <trkpt lat="51.723217992112041" lon="-9.75789500400424">
        <ele>268.35000000000002</ele>
        <time>2026-06-28T09:10:26Z</time>
      </trkpt>
      <trkpt lat="51.723160995170474" lon="-9.757754020392895">
        <ele>269.79000000000002</ele>
        <time>2026-06-28T09:10:27Z</time>
      </trkpt>
      <trkpt lat="51.723097041249275" lon="-9.757598033174872">
        <ele>271.23000000000002</ele>
        <time>2026-06-28T09:10:28Z</time>
      </trkpt>
      <trkpt lat="51.723013976588845" lon="-9.75755101069808">
        <ele>272.67000000000002</ele>
        <time>2026-06-28T09:10:29Z</time>
      </trkpt>
      <trkpt lat="51.722912974655628" lon="-9.757494013756514">
        <ele>274.11000000000001</ele>
        <time>2026-06-28T09:10:30Z</time>
      </trkpt>
      <trkpt lat="51.721893986687064" lon="-9.756871992722154">
        <ele>288.52999999999997</ele>
        <time>2026-06-28T09:10:42Z</time>
      </trkpt>
      <trkpt lat="51.721875965595245" lon="-9.756855983287096">
        <ele>289.00999999999999</ele>
        <time>2026-06-28T09:10:43Z</time>
      </trkpt>
      <trkpt lat="51.721875965595245" lon="-9.756855983287096">
        <ele>290.45999999999998</ele>
        <time>2026-06-28T09:10:54Z</time>
      </trkpt>
      <trkpt lat="51.721875965595245" lon="-9.756855983287096">
        <ele>290.45999999999998</ele>
        <time>2026-06-28T09:11:13Z</time>
      </trkpt>
      <trkpt lat="51.721858028322458" lon="-9.7568419855088">
        <ele>290.94</ele>
        <time>2026-06-28T09:11:36Z</time>
      </trkpt>
      <trkpt lat="51.721844030544162" lon="-9.756828993558884">
        <ele>289.97000000000003</ele>
        <time>2026-06-28T09:11:37Z</time>
      </trkpt>
      <trkpt lat="51.721822991967201" lon="-9.756811978295445">
        <ele>289.00999999999999</ele>
        <time>2026-06-28T09:11:38Z</time>
      </trkpt>
      <trkpt lat="51.721822991967201" lon="-9.756811978295445">
        <ele>288.05000000000001</ele>
        <time>2026-06-28T09:11:39Z</time>
      </trkpt>
      <trkpt lat="51.721822991967201" lon="-9.756811978295445">
        <ele>287.56999999999999</ele>
        <time>2026-06-28T09:11:53Z</time>
      </trkpt>
      <trkpt lat="51.721822991967201" lon="-9.756811978295445">
        <ele>287.08999999999997</ele>
        <time>2026-06-28T09:12:51Z</time>
      </trkpt>
      <trkpt lat="51.721822991967201" lon="-9.756811978295445">
        <ele>286.61000000000001</ele>
        <time>2026-06-28T09:13:53Z</time>
      </trkpt>
      <trkpt lat="51.721788039430976" lon="-9.756781971082091">
        <ele>286.13</ele>
        <time>2026-06-28T09:14:18Z</time>
      </trkpt>
      <trkpt lat="51.721761971712112" lon="-9.756898982450366">
        <ele>286.13</ele>
        <time>2026-06-28T09:22:15Z</time>
      </trkpt>
      <trkpt lat="51.721819974482059" lon="-9.756876016035676">
        <ele>287.08999999999997</ele>
        <time>2026-06-28T09:22:38Z</time>
      </trkpt>
      <trkpt lat="51.721805976703763" lon="-9.756865035742521">
        <ele>286.13</ele>
        <time>2026-06-28T09:23:22Z</time>
      </trkpt>
      <trkpt lat="51.72179801389575" lon="-9.756860006600618">
        <ele>286.13</ele>
        <time>2026-06-28T09:23:23Z</time>
      </trkpt>
      <trkpt lat="51.721769012510777" lon="-9.756770990788937">
        <ele>286.61000000000001</ele>
        <time>2026-06-28T09:23:25Z</time>
      </trkpt>
      <trkpt lat="51.721717966720462" lon="-9.756739977747202">
        <ele>286.61000000000001</ele>
        <time>2026-06-28T09:23:26Z</time>
      </trkpt>
      <trkpt lat="51.721649989485741" lon="-9.756697984412313">
        <ele>286.61000000000001</ele>
        <time>2026-06-28T09:23:27Z</time>
      </trkpt>
      <trkpt lat="51.721572037786245" lon="-9.75665096193552">
        <ele>287.08999999999997</ele>
        <time>2026-06-28T09:23:28Z</time>
      </trkpt>
      <trkpt lat="51.721308007836342" lon="-9.756490029394627">
        <ele>289.97000000000003</ele>
        <time>2026-06-28T09:23:32Z</time>
      </trkpt>
      <trkpt lat="51.721236007288098" lon="-9.756506960839033">
        <ele>290.45999999999998</ele>
        <time>2026-06-28T09:23:33Z</time>
      </trkpt>
      <trkpt lat="51.72115596011281" lon="-9.75654099136591">
        <ele>290.45999999999998</ele>
        <time>2026-06-28T09:23:34Z</time>
      </trkpt>
      <trkpt lat="51.721065016463399" lon="-9.756578961387277">
        <ele>289.97000000000003</ele>
        <time>2026-06-28T09:23:35Z</time>
      </trkpt>
      <trkpt lat="51.720964014530182" lon="-9.756621960550547">
        <ele>289.49000000000001</ele>
        <time>2026-06-28T09:23:36Z</time>
      </trkpt>
      <trkpt lat="51.72042497433722" lon="-9.756851959973574">
        <ele>282.27999999999997</ele>
        <time>2026-06-28T09:23:43Z</time>
      </trkpt>
      <trkpt lat="51.72042497433722" lon="-9.756851959973574">
        <ele>278.92000000000002</ele>
        <time>2026-06-28T09:23:49Z</time>
      </trkpt>
      <trkpt lat="51.72042497433722" lon="-9.756851959973574">
        <ele>278.92000000000002</ele>
        <time>2026-06-28T09:24:30Z</time>
      </trkpt>
      <trkpt lat="51.720362026244402" lon="-9.756879033520818">
        <ele>278.44</ele>
        <time>2026-06-28T09:24:35Z</time>
      </trkpt>
      <trkpt lat="51.720125991851091" lon="-9.756934018805623">
        <ele>278.44</ele>
        <time>2026-06-28T09:24:38Z</time>
      </trkpt>
      <trkpt lat="51.720020966604352" lon="-9.7569490224123">
        <ele>277.95999999999998</ele>
        <time>2026-06-28T09:24:39Z</time>
      </trkpt>
      <trkpt lat="51.719550993293524" lon="-9.756946004927158">
        <ele>275.06999999999999</ele>
        <time>2026-06-28T09:24:43Z</time>
      </trkpt>
      <trkpt lat="51.719442028552294" lon="-9.756866041570902">
        <ele>274.58999999999997</ele>
        <time>2026-06-28T09:24:44Z</time>
      </trkpt>
      <trkpt lat="51.719330968335271" lon="-9.756763027980924">
        <ele>274.11000000000001</ele>
        <time>2026-06-28T09:24:45Z</time>
      </trkpt>
      <trkpt lat="51.719213034957647" lon="-9.756652973592281">
        <ele>273.63</ele>
        <time>2026-06-28T09:24:46Z</time>
      </trkpt>
      <trkpt lat="51.719084037467837" lon="-9.756575021892786">
        <ele>272.67000000000002</ele>
        <time>2026-06-28T09:24:47Z</time>
      </trkpt>
      <trkpt lat="51.718953028321266" lon="-9.756494974717498">
        <ele>272.19</ele>
        <time>2026-06-28T09:24:48Z</time>
      </trkpt>
      <trkpt lat="51.718733003363013" lon="-9.756323983892798">
        <ele>270.75</ele>
        <time>2026-06-28T09:24:50Z</time>
      </trkpt>
      <trkpt lat="51.718659996986389" lon="-9.756202027201653">
        <ele>269.79000000000002</ele>
        <time>2026-06-28T09:24:51Z</time>
      </trkpt>
      <trkpt lat="51.718611968681216" lon="-9.756095996126533">
        <ele>268.82999999999998</ele>
        <time>2026-06-28T09:24:52Z</time>
      </trkpt>
      <trkpt lat="51.718611968681216" lon="-9.755908995866776">
        <ele>268.35000000000002</ele>
        <time>2026-06-28T09:24:53Z</time>
      </trkpt>
      <trkpt lat="51.718611968681216" lon="-9.755730964243412">
        <ele>267.38</ele>
        <time>2026-06-28T09:24:54Z</time>
      </trkpt>
      <trkpt lat="51.718611968681216" lon="-9.755558967590332">
        <ele>266.42000000000002</ele>
        <time>2026-06-28T09:24:55Z</time>
      </trkpt>
      <trkpt lat="51.718611968681216" lon="-9.755414966493845">
        <ele>265.45999999999998</ele>
        <time>2026-06-28T09:24:56Z</time>
      </trkpt>
      <trkpt lat="51.718570981174707" lon="-9.755284963175654">
        <ele>264.5</ele>
        <time>2026-06-28T09:24:57Z</time>
      </trkpt>
      <trkpt lat="51.718500992283225" lon="-9.755185972899199">
        <ele>263.54000000000002</ele>
        <time>2026-06-28T09:24:58Z</time>
      </trkpt>
      <trkpt lat="51.718415999785066" lon="-9.755064016208053">
        <ele>263.06</ele>
        <time>2026-06-28T09:24:59Z</time>
      </trkpt>
      <trkpt lat="51.718320026993752" lon="-9.754925966262817">
        <ele>262.57999999999998</ele>
        <time>2026-06-28T09:25:00Z</time>
      </trkpt>
      <trkpt lat="51.718221036717296" lon="-9.754784982651472">
        <ele>262.10000000000002</ele>
        <time>2026-06-28T09:25:01Z</time>
      </trkpt>
      <trkpt lat="51.718150964006782" lon="-9.754632012918592">
        <ele>261.13999999999999</ele>
        <time>2026-06-28T09:25:02Z</time>
      </trkpt>
      <trkpt lat="51.718123974278569" lon="-9.754449035972357">
        <ele>260.17000000000002</ele>
        <time>2026-06-28T09:25:03Z</time>
      </trkpt>
      <trkpt lat="51.718096984550357" lon="-9.754271004348993">
        <ele>259.69</ele>
        <time>2026-06-28T09:25:04Z</time>
      </trkpt>
      <trkpt lat="51.718072006478906" lon="-9.754109987989068">
        <ele>259.20999999999998</ele>
        <time>2026-06-28T09:25:05Z</time>
      </trkpt>
      <trkpt lat="51.718053985387087" lon="-9.753992976620793">
        <ele>258.25</ele>
        <time>2026-06-28T09:25:06Z</time>
      </trkpt>
      <trkpt lat="51.717992965131998" lon="-9.753932040184736">
        <ele>257.76999999999998</ele>
        <time>2026-06-28T09:25:07Z</time>
      </trkpt>
      <trkpt lat="51.717933034524322" lon="-9.75389901548624">
        <ele>257.29000000000002</ele>
        <time>2026-06-28T09:25:08Z</time>
      </trkpt>
      <trkpt lat="51.71776195988059" lon="-9.753846041858196">
        <ele>255.84999999999999</ele>
        <time>2026-06-28T09:25:10Z</time>
      </trkpt>
      <trkpt lat="51.717710997909307" lon="-9.753777980804443">
        <ele>254.88999999999999</ele>
        <time>2026-06-28T09:25:11Z</time>
      </trkpt>
      <trkpt lat="51.717693982645869" lon="-9.753615036606789">
        <ele>254.41</ele>
        <time>2026-06-28T09:25:12Z</time>
      </trkpt>
      <trkpt lat="51.717676967382431" lon="-9.753454020246863">
        <ele>253.93000000000001</ele>
        <time>2026-06-28T09:25:13Z</time>
      </trkpt>
      <trkpt lat="51.717657018452883" lon="-9.753266014158726">
        <ele>253.44</ele>
        <time>2026-06-28T09:25:14Z</time>
      </trkpt>
      <trkpt lat="51.717598009854555" lon="-9.752843985334039">
        <ele>252</ele>
        <time>2026-06-28T09:25:16Z</time>
      </trkpt>
      <trkpt lat="51.717548975721002" lon="-9.752634018659592">
        <ele>251.03999999999999</ele>
        <time>2026-06-28T09:25:17Z</time>
      </trkpt>
      <trkpt lat="51.717467000707984" lon="-9.752278039231896">
        <ele>250.08000000000001</ele>
        <time>2026-06-28T09:25:19Z</time>
      </trkpt>
      <trkpt lat="51.717435987666249" lon="-9.752144012600184">
        <ele>249.59999999999999</ele>
        <time>2026-06-28T09:25:20Z</time>
      </trkpt>
      <trkpt lat="51.717459037899971" lon="-9.752037981525064">
        <ele>249.12</ele>
        <time>2026-06-28T09:25:21Z</time>
      </trkpt>
      <trkpt lat="51.717477981001139" lon="-9.751972015947104">
        <ele>248.63999999999999</ele>
        <time>2026-06-28T09:25:22Z</time>
      </trkpt>
      <trkpt lat="51.71750396490097" lon="-9.751919964328408">
        <ele>248.16</ele>
        <time>2026-06-28T09:25:23Z</time>
      </trkpt>
      <trkpt lat="51.717528020963073" lon="-9.751948965713382">
        <ele>247.68000000000001</ele>
        <time>2026-06-28T09:25:24Z</time>
      </trkpt>
      <trkpt lat="51.717561967670918" lon="-9.751989031210542">
        <ele>247.19999999999999</ele>
        <time>2026-06-28T09:25:25Z</time>
      </trkpt>
      <trkpt lat="51.717606978490949" lon="-9.752049967646599">
        <ele>247.19999999999999</ele>
        <time>2026-06-28T09:25:26Z</time>
      </trkpt>
      <trkpt lat="51.717634974047542" lon="-9.752150969579816">
        <ele>246.22999999999999</ele>
        <time>2026-06-28T09:25:27Z</time>
      </trkpt>
      <trkpt lat="51.717793978750706" lon="-9.752713982015848">
        <ele>244.78999999999999</ele>
        <time>2026-06-28T09:25:31Z</time>
      </trkpt>
      <trkpt lat="51.717839995399117" lon="-9.752877010032535">
        <ele>244.31</ele>
        <time>2026-06-28T09:25:32Z</time>
      </trkpt>
      <trkpt lat="51.717928005382419" lon="-9.752906011417508">
        <ele>243.34999999999999</ele>
        <time>2026-06-28T09:25:33Z</time>
      </trkpt>
      <trkpt lat="51.718028001487255" lon="-9.752939958125353">
        <ele>242.38999999999999</ele>
        <time>2026-06-28T09:25:34Z</time>
      </trkpt>
      <trkpt lat="51.718136966228485" lon="-9.752976000308991">
        <ele>241.91</ele>
        <time>2026-06-28T09:25:35Z</time>
      </trkpt>
      <trkpt lat="51.718250038102269" lon="-9.753024028614163">
        <ele>241.43000000000001</ele>
        <time>2026-06-28T09:25:36Z</time>
      </trkpt>
      <trkpt lat="51.71836101450026" lon="-9.753112038597465">
        <ele>240.47</ele>
        <time>2026-06-28T09:25:37Z</time>
      </trkpt>
      <trkpt lat="51.718476014211774" lon="-9.753202982246876">
        <ele>239.99000000000001</ele>
        <time>2026-06-28T09:25:38Z</time>
      </trkpt>
      <trkpt lat="51.718584978953004" lon="-9.753288980573416">
        <ele>239.02000000000001</ele>
        <time>2026-06-28T09:25:39Z</time>
      </trkpt>
      <trkpt lat="51.718699978664517" lon="-9.753330973908305">
        <ele>238.06</ele>
        <time>2026-06-28T09:25:40Z</time>
      </trkpt>
      <trkpt lat="51.718819001689553" lon="-9.753337008878589">
        <ele>237.09999999999999</ele>
        <time>2026-06-28T09:25:41Z</time>
      </trkpt>
      <trkpt lat="51.71893903054297" lon="-9.753342960029841">
        <ele>236.62</ele>
        <time>2026-06-28T09:25:42Z</time>
      </trkpt>
      <trkpt lat="51.719041038304567" lon="-9.753348995000124">
        <ele>235.66</ele>
        <time>2026-06-28T09:25:43Z</time>
      </trkpt>
      <trkpt lat="51.719171963632107" lon="-9.75342501886189">
        <ele>234.69999999999999</ele>
        <time>2026-06-28T09:25:44Z</time>
      </trkpt>
      <trkpt lat="51.719279000535607" lon="-9.753486961126328">
        <ele>234.22</ele>
        <time>2026-06-28T09:25:45Z</time>
      </trkpt>
      <trkpt lat="51.719358041882515" lon="-9.753631968051195">
        <ele>233.25999999999999</ele>
        <time>2026-06-28T09:25:46Z</time>
      </trkpt>
      <trkpt lat="51.719420989975333" lon="-9.753775969147682">
        <ele>232.78</ele>
        <time>2026-06-28T09:25:47Z</time>
      </trkpt>
      <trkpt lat="51.719486033543944" lon="-9.753922987729311">
        <ele>231.81</ele>
        <time>2026-06-28T09:25:48Z</time>
      </trkpt>
      <trkpt lat="51.719550993293524" lon="-9.75407101213932">
        <ele>231.33000000000001</ele>
        <time>2026-06-28T09:25:49Z</time>
      </trkpt>
      <trkpt lat="51.719613019376993" lon="-9.754210989922285">
        <ele>230.37</ele>
        <time>2026-06-28T09:25:50Z</time>
      </trkpt>
      <trkpt lat="51.719694994390011" lon="-9.754295982420445">
        <ele>229.88999999999999</ele>
        <time>2026-06-28T09:25:51Z</time>
      </trkpt>
      <trkpt lat="51.719776969403028" lon="-9.75437100045383">
        <ele>229.41</ele>
        <time>2026-06-28T09:25:52Z</time>
      </trkpt>
      <trkpt lat="51.719858022406697" lon="-9.754446018487215">
        <ele>228.44999999999999</ele>
        <time>2026-06-28T09:25:53Z</time>
      </trkpt>
      <trkpt lat="51.719943014904857" lon="-9.754474014043808">
        <ele>227.49000000000001</ele>
        <time>2026-06-28T09:25:54Z</time>
      </trkpt>
      <trkpt lat="51.72003697603941" lon="-9.754488011822105">
        <ele>226.53</ele>
        <time>2026-06-28T09:25:55Z</time>
      </trkpt>
      <trkpt lat="51.720134960487485" lon="-9.754503015428782">
        <ele>226.05000000000001</ele>
        <time>2026-06-28T09:25:56Z</time>
      </trkpt>
      <trkpt lat="51.720232022926211" lon="-9.754517013207078">
        <ele>225.56999999999999</ele>
        <time>2026-06-28T09:25:57Z</time>
      </trkpt>
      <trkpt lat="51.720457999035716" lon="-9.754550959914923">
        <ele>224.61000000000001</ele>
        <time>2026-06-28T09:25:59Z</time>
      </trkpt>
      <trkpt lat="51.720506027340889" lon="-9.754526987671852">
        <ele>224.12</ele>
        <time>2026-06-28T09:26:00Z</time>
      </trkpt>
      <trkpt lat="51.720556989312172" lon="-9.7543949726969">
        <ele>223.16</ele>
        <time>2026-06-28T09:26:01Z</time>
      </trkpt>
      <trkpt lat="51.72057400457561" lon="-9.754254994913936">
        <ele>222.68000000000001</ele>
        <time>2026-06-28T09:26:02Z</time>
      </trkpt>
      <trkpt lat="51.720594959333539" lon="-9.754086015745997">
        <ele>222.19999999999999</ele>
        <time>2026-06-28T09:26:03Z</time>
      </trkpt>
      <trkpt lat="51.720619015395641" lon="-9.753887029364705">
        <ele>222.19999999999999</ele>
        <time>2026-06-28T09:26:04Z</time>
      </trkpt>
      <trkpt lat="51.72065899707377" lon="-9.753681002184749">
        <ele>221.24000000000001</ele>
        <time>2026-06-28T09:26:05Z</time>
      </trkpt>
      <trkpt lat="51.720712976530194" lon="-9.753465000540018">
        <ele>220.28</ele>
        <time>2026-06-28T09:26:06Z</time>
      </trkpt>
      <trkpt lat="51.72076603397727" lon="-9.753251010552049">
        <ele>219.80000000000001</ele>
        <time>2026-06-28T09:26:07Z</time>
      </trkpt>
      <trkpt lat="51.720819007605314" lon="-9.753041965886951">
        <ele>219.31999999999999</ele>
        <time>2026-06-28T09:26:08Z</time>
      </trkpt>
      <trkpt lat="51.720868963748217" lon="-9.752839962020516">
        <ele>218.36000000000001</ele>
        <time>2026-06-28T09:26:09Z</time>
      </trkpt>
      <trkpt lat="51.720877010375261" lon="-9.752618009224534">
        <ele>217.88</ele>
        <time>2026-06-28T09:26:10Z</time>
      </trkpt>
      <trkpt lat="51.72085396014154" lon="-9.752394966781139">
        <ele>216.91</ele>
        <time>2026-06-28T09:26:11Z</time>
      </trkpt>
      <trkpt lat="51.720805009827018" lon="-9.752177037298679">
        <ele>216.43000000000001</ele>
        <time>2026-06-28T09:26:12Z</time>
      </trkpt>
      <trkpt lat="51.720755975693464" lon="-9.751953994855285">
        <ele>215.94999999999999</ele>
        <time>2026-06-28T09:26:13Z</time>
      </trkpt>
      <trkpt lat="51.720669977366924" lon="-9.751567002385855">
        <ele>214.99000000000001</ele>
        <time>2026-06-28T09:26:15Z</time>
      </trkpt>
      <trkpt lat="51.720652040094137" lon="-9.75138695910573">
        <ele>214.50999999999999</ele>
        <time>2026-06-28T09:26:16Z</time>
      </trkpt>
      <trkpt lat="51.720654973760247" lon="-9.75121202878654">
        <ele>214.03</ele>
        <time>2026-06-28T09:26:17Z</time>
      </trkpt>
      <trkpt lat="51.72065899707377" lon="-9.751028968021274">
        <ele>213.55000000000001</ele>
        <time>2026-06-28T09:26:18Z</time>
      </trkpt>
      <trkpt lat="51.720662014558911" lon="-9.750841967761517">
        <ele>213.55000000000001</ele>
        <time>2026-06-28T09:26:19Z</time>
      </trkpt>
      <trkpt lat="51.720669977366924" lon="-9.750365959480405">
        <ele>212.11000000000001</ele>
        <time>2026-06-28T09:26:22Z</time>
      </trkpt>
      <trkpt lat="51.720671989023685" lon="-9.75026898086071">
        <ele>212.11000000000001</ele>
        <time>2026-06-28T09:26:23Z</time>
      </trkpt>
      <trkpt lat="51.720653967931867" lon="-9.750231010839343">
        <ele>211.63</ele>
        <time>2026-06-28T09:26:24Z</time>
      </trkpt>
      <trkpt lat="51.720618009567261" lon="-9.750178037211299">
        <ele>211.15000000000001</ele>
        <time>2026-06-28T09:26:25Z</time>
      </trkpt>
      <trkpt lat="51.720585990697145" lon="-9.750130008906126">
        <ele>211.15000000000001</ele>
        <time>2026-06-28T09:26:26Z</time>
      </trkpt>
      <trkpt lat="51.720548020675778" lon="-9.750168984755874">
        <ele>210.66999999999999</ele>
        <time>2026-06-28T09:26:27Z</time>
      </trkpt>
      <trkpt lat="51.720499992370605" lon="-9.750219024717808">
        <ele>210.66999999999999</ele>
        <time>2026-06-28T09:26:28Z</time>
      </trkpt>
      <trkpt lat="51.720493035390973" lon="-9.750320026651025">
        <ele>210.19</ele>
        <time>2026-06-28T09:26:29Z</time>
      </trkpt>
      <trkpt lat="51.720483982935548" lon="-9.750427985563874">
        <ele>210.19</ele>
        <time>2026-06-28T09:26:30Z</time>
      </trkpt>
      <trkpt lat="51.720476020127535" lon="-9.750538961961865">
        <ele>210.19</ele>
        <time>2026-06-28T09:26:31Z</time>
      </trkpt>
      <trkpt lat="51.72046696767211" lon="-9.750647004693747">
        <ele>210.19</ele>
        <time>2026-06-28T09:26:32Z</time>
      </trkpt>
      <trkpt lat="51.720453975722194" lon="-9.750780025497079">
        <ele>210.19</ele>
        <time>2026-06-28T09:26:33Z</time>
      </trkpt>
      <trkpt lat="51.720413994044065" lon="-9.750851020216942">
        <ele>210.19</ele>
        <time>2026-06-28T09:26:34Z</time>
      </trkpt>
      <trkpt lat="51.72037803567946" lon="-9.75091296248138">
        <ele>210.19</ele>
        <time>2026-06-28T09:26:35Z</time>
      </trkpt>
      <trkpt lat="51.72029597684741" lon="-9.750909022986889">
        <ele>210.19</ele>
        <time>2026-06-28T09:26:36Z</time>
      </trkpt>
      <trkpt lat="51.720241997390985" lon="-9.750854037702084">
        <ele>209.69999999999999</ele>
        <time>2026-06-28T09:26:37Z</time>
      </trkpt>
      <trkpt lat="51.720207966864109" lon="-9.750779019668698">
        <ele>209.69999999999999</ele>
        <time>2026-06-28T09:26:38Z</time>
      </trkpt>
      <trkpt lat="51.720175025984645" lon="-9.750706013292074">
        <ele>209.22</ele>
        <time>2026-06-28T09:26:39Z</time>
      </trkpt>
      <trkpt lat="51.720157004892826" lon="-9.750667037442327">
        <ele>209.22</ele>
        <time>2026-06-28T09:26:40Z</time>
      </trkpt>
      <trkpt lat="51.720091961324215" lon="-9.750640969723463">
        <ele>208.74000000000001</ele>
        <time>2026-06-28T09:26:41Z</time>
      </trkpt>
      <trkpt lat="51.720049967989326" lon="-9.750624038279057">
        <ele>208.74000000000001</ele>
        <time>2026-06-28T09:26:42Z</time>
      </trkpt>
      <trkpt lat="51.720001017674804" lon="-9.750672988593578">
        <ele>208.25999999999999</ele>
        <time>2026-06-28T09:26:43Z</time>
      </trkpt>
      <trkpt lat="51.719942009076476" lon="-9.750730991363525">
        <ele>207.78</ele>
        <time>2026-06-28T09:26:44Z</time>
      </trkpt>
      <trkpt lat="51.719875959679484" lon="-9.750797962769866">
        <ele>207.78</ele>
        <time>2026-06-28T09:26:45Z</time>
      </trkpt>
      <trkpt lat="51.719809994101524" lon="-9.750864012166858">
        <ele>207.30000000000001</ele>
        <time>2026-06-28T09:26:46Z</time>
      </trkpt>
      <trkpt lat="51.719749979674816" lon="-9.750924026593566">
        <ele>206.81999999999999</ele>
        <time>2026-06-28T09:26:47Z</time>
      </trkpt>
      <trkpt lat="51.719673033803701" lon="-9.750950010493398">
        <ele>206.34</ele>
        <time>2026-06-28T09:26:48Z</time>
      </trkpt>
      <trkpt lat="51.719608996063471" lon="-9.750955039635301">
        <ele>205.86000000000001</ele>
        <time>2026-06-28T09:26:49Z</time>
      </trkpt>
      <trkpt lat="51.719557028263807" lon="-9.750903993844986">
        <ele>205.86000000000001</ele>
        <time>2026-06-28T09:26:50Z</time>
      </trkpt>
      <trkpt lat="51.719528026878834" lon="-9.750808021053672">
        <ele>204.90000000000001</ele>
        <time>2026-06-28T09:26:51Z</time>
      </trkpt>
      <trkpt lat="51.719516962766647" lon="-9.750690003857017">
        <ele>204.90000000000001</ele>
        <time>2026-06-28T09:26:52Z</time>
      </trkpt>
      <trkpt lat="51.719503970816731" lon="-9.750552959740162">
        <ele>204.41999999999999</ele>
        <time>2026-06-28T09:26:53Z</time>
      </trkpt>
      <trkpt lat="51.719489973038435" lon="-9.750402001664043">
        <ele>203.94</ele>
        <time>2026-06-28T09:26:54Z</time>
      </trkpt>
      <trkpt lat="51.719474969431758" lon="-9.750241991132498">
        <ele>203.94</ele>
        <time>2026-06-28T09:26:55Z</time>
      </trkpt>
      <trkpt lat="51.719450997188687" lon="-9.750083992257714">
        <ele>202.97999999999999</ele>
        <time>2026-06-28T09:26:56Z</time>
      </trkpt>
      <trkpt lat="51.719423001632094" lon="-9.749934040009975">
        <ele>202.49000000000001</ele>
        <time>2026-06-28T09:26:57Z</time>
      </trkpt>
      <trkpt lat="51.719400035217404" lon="-9.749804036691785">
        <ele>202.00999999999999</ele>
        <time>2026-06-28T09:26:58Z</time>
      </trkpt>
      <trkpt lat="51.719385031610727" lon="-9.749722983688116">
        <ele>201.05000000000001</ele>
        <time>2026-06-28T09:26:59Z</time>
      </trkpt>
      <trkpt lat="51.719409003853798" lon="-9.749591974541545">
        <ele>200.09</ele>
        <time>2026-06-28T09:27:00Z</time>
      </trkpt>
      <trkpt lat="51.719427024945617" lon="-9.749492984265089">
        <ele>199.13</ele>
        <time>2026-06-28T09:27:01Z</time>
      </trkpt>
      <trkpt lat="51.719487039372325" lon="-9.749448979273439">
        <ele>198.16999999999999</ele>
        <time>2026-06-28T09:27:02Z</time>
      </trkpt>
      <trkpt lat="51.719548981636763" lon="-9.74940899759531">
        <ele>197.69</ele>
        <time>2026-06-28T09:27:03Z</time>
      </trkpt>
      <trkpt lat="51.719613019376993" lon="-9.749369015917182">
        <ele>196.72999999999999</ele>
        <time>2026-06-28T09:27:04Z</time>
      </trkpt>
      <trkpt lat="51.719672027975321" lon="-9.749268013983965">
        <ele>195.77000000000001</ele>
        <time>2026-06-28T09:27:05Z</time>
      </trkpt>
      <trkpt lat="51.719685019925237" lon="-9.749165000393987">
        <ele>195.28</ele>
        <time>2026-06-28T09:27:06Z</time>
      </trkpt>
      <trkpt lat="51.719659036025405" lon="-9.749047989025712">
        <ele>194.31999999999999</ele>
        <time>2026-06-28T09:27:07Z</time>
      </trkpt>
      <trkpt lat="51.71962802298367" lon="-9.748928966000676">
        <ele>193.84</ele>
        <time>2026-06-28T09:27:08Z</time>
      </trkpt>
      <trkpt lat="51.719582006335258" lon="-9.748798040673137">
        <ele>192.88</ele>
        <time>2026-06-28T09:27:09Z</time>
      </trkpt>
      <trkpt lat="51.719491984695196" lon="-9.748535016551614">
        <ele>191.91999999999999</ele>
        <time>2026-06-28T09:27:11Z</time>
      </trkpt>
      <trkpt lat="51.719449991360307" lon="-9.748414987698197">
        <ele>191.44</ele>
        <time>2026-06-28T09:27:12Z</time>
      </trkpt>
      <trkpt lat="51.719388971105218" lon="-9.748325971886516">
        <ele>190.47999999999999</ele>
        <time>2026-06-28T09:27:13Z</time>
      </trkpt>
      <trkpt lat="51.719304984435439" lon="-9.748275009915233">
        <ele>190</ele>
        <time>2026-06-28T09:27:14Z</time>
      </trkpt>
      <trkpt lat="51.719214962795377" lon="-9.748220024630427">
        <ele>189.52000000000001</ele>
        <time>2026-06-28T09:27:15Z</time>
      </trkpt>
      <trkpt lat="51.719127958640456" lon="-9.748166967183352">
        <ele>189.03999999999999</ele>
        <time>2026-06-28T09:27:16Z</time>
      </trkpt>
      <trkpt lat="51.719046989455819" lon="-9.74811801686883">
        <ele>188.08000000000001</ele>
        <time>2026-06-28T09:27:17Z</time>
      </trkpt>
      <trkpt lat="51.718980018049479" lon="-9.748077029362321">
        <ele>187.59</ele>
        <time>2026-06-28T09:27:18Z</time>
      </trkpt>
      <trkpt lat="51.718927966430783" lon="-9.747973009943962">
        <ele>187.11000000000001</ele>
        <time>2026-06-28T09:27:19Z</time>
      </trkpt>
      <trkpt lat="51.718917991966009" lon="-9.747864967212081">
        <ele>186.63</ele>
        <time>2026-06-28T09:27:20Z</time>
      </trkpt>
      <trkpt lat="51.718907011672854" lon="-9.747739993035793">
        <ele>186.15000000000001</ele>
        <time>2026-06-28T09:27:21Z</time>
      </trkpt>
      <trkpt lat="51.7188960313797" lon="-9.74760596640408">
        <ele>185.66999999999999</ele>
        <time>2026-06-28T09:27:22Z</time>
      </trkpt>
      <trkpt lat="51.718852026388049" lon="-9.747485015541315">
        <ele>185.66999999999999</ele>
        <time>2026-06-28T09:27:23Z</time>
      </trkpt>
      <trkpt lat="51.718794023618102" lon="-9.747379990294576">
        <ele>185.19</ele>
        <time>2026-06-28T09:27:24Z</time>
      </trkpt>
      <trkpt lat="51.718736020848155" lon="-9.747275970876217">
        <ele>184.71000000000001</ele>
        <time>2026-06-28T09:27:25Z</time>
      </trkpt>
      <trkpt lat="51.718679023906589" lon="-9.747173963114619">
        <ele>184.22999999999999</ele>
        <time>2026-06-28T09:27:26Z</time>
      </trkpt>
      <trkpt lat="51.718650022521615" lon="-9.747047983109951">
        <ele>183.75</ele>
        <time>2026-06-28T09:27:27Z</time>
      </trkpt>
      <trkpt lat="51.718644993379712" lon="-9.746922003105283">
        <ele>183.27000000000001</ele>
        <time>2026-06-28T09:27:28Z</time>
      </trkpt>
      <trkpt lat="51.718676006421447" lon="-9.746776996180415">
        <ele>183.27000000000001</ele>
        <time>2026-06-28T09:27:29Z</time>
      </trkpt>
      <trkpt lat="51.718710036948323" lon="-9.74661597982049">
        <ele>183.27000000000001</ele>
        <time>2026-06-28T09:27:30Z</time>
      </trkpt>
      <trkpt lat="51.71874700114131" lon="-9.746440965682268">
        <ele>182.78999999999999</ele>
        <time>2026-06-28T09:27:31Z</time>
      </trkpt>
      <trkpt lat="51.719065010547638" lon="-9.745185021311045">
        <ele>179.41999999999999</ele>
        <time>2026-06-28T09:27:38Z</time>
      </trkpt>
      <trkpt lat="51.719098035246134" lon="-9.745001038536429">
        <ele>178.46000000000001</ele>
        <time>2026-06-28T09:27:39Z</time>
      </trkpt>
      <trkpt lat="51.719162994995713" lon="-9.74463801831007">
        <ele>177.5</ele>
        <time>2026-06-28T09:27:41Z</time>
      </trkpt>
      <trkpt lat="51.719292998313904" lon="-9.743919018656015">
        <ele>174.62</ele>
        <time>2026-06-28T09:27:45Z</time>
      </trkpt>
      <trkpt lat="51.719299033284187" lon="-9.743741992861033">
        <ele>174.13999999999999</ele>
        <time>2026-06-28T09:27:46Z</time>
      </trkpt>
      <trkpt lat="51.719299033284187" lon="-9.743571002036333">
        <ele>173.16999999999999</ele>
        <time>2026-06-28T09:27:47Z</time>
      </trkpt>
      <trkpt lat="51.719299033284187" lon="-9.743420965969563">
        <ele>172.69</ele>
        <time>2026-06-28T09:27:48Z</time>
      </trkpt>
      <trkpt lat="51.719299033284187" lon="-9.74330697208643">
        <ele>171.72999999999999</ele>
        <time>2026-06-28T09:27:49Z</time>
      </trkpt>
      <trkpt lat="51.719247987493873" lon="-9.743192978203297">
        <ele>171.72999999999999</ele>
        <time>2026-06-28T09:27:50Z</time>
      </trkpt>
      <trkpt lat="51.71920096501708" lon="-9.743111003190279">
        <ele>171.25</ele>
        <time>2026-06-28T09:27:51Z</time>
      </trkpt>
      <trkpt lat="51.719142040237784" lon="-9.743099017068744">
        <ele>170.77000000000001</ele>
        <time>2026-06-28T09:27:52Z</time>
      </trkpt>
      <trkpt lat="51.719088982790709" lon="-9.743119971826673">
        <ele>170.28999999999999</ele>
        <time>2026-06-28T09:27:53Z</time>
      </trkpt>
      <trkpt lat="51.719044977799058" lon="-9.743192978203297">
        <ele>169.81</ele>
        <time>2026-06-28T09:27:54Z</time>
      </trkpt>
      <trkpt lat="51.719028968364" lon="-9.743301020935178">
        <ele>169.33000000000001</ele>
        <time>2026-06-28T09:27:55Z</time>
      </trkpt>
      <trkpt lat="51.719031985849142" lon="-9.743419960141182">
        <ele>168.84999999999999</ele>
        <time>2026-06-28T09:27:56Z</time>
      </trkpt>
      <trkpt lat="51.719062998890877" lon="-9.743544012308121">
        <ele>167.88999999999999</ele>
        <time>2026-06-28T09:27:57Z</time>
      </trkpt>
      <trkpt lat="51.719094011932611" lon="-9.743666974827647">
        <ele>167.41</ele>
        <time>2026-06-28T09:27:58Z</time>
      </trkpt>
      <trkpt lat="51.719123013317585" lon="-9.743782980367541">
        <ele>167.41</ele>
        <time>2026-06-28T09:27:59Z</time>
      </trkpt>
      <trkpt lat="51.719127036631107" lon="-9.743921030312777">
        <ele>166.93000000000001</ele>
        <time>2026-06-28T09:28:00Z</time>
      </trkpt>
      <trkpt lat="51.719093006104231" lon="-9.744037035852671">
        <ele>166.93000000000001</ele>
        <time>2026-06-28T09:28:01Z</time>
      </trkpt>
      <trkpt lat="51.71904900111258" lon="-9.744092021137476">
        <ele>166.44999999999999</ele>
        <time>2026-06-28T09:28:02Z</time>
      </trkpt>
      <trkpt lat="51.719003990292549" lon="-9.744074000045657">
        <ele>166.44999999999999</ele>
        <time>2026-06-28T09:28:03Z</time>
      </trkpt>
      <trkpt lat="51.718944981694221" lon="-9.744032006710768">
        <ele>166.44999999999999</ele>
        <time>2026-06-28T09:28:04Z</time>
      </trkpt>
      <trkpt lat="51.718884967267513" lon="-9.743975009769201">
        <ele>165.96000000000001</ele>
        <time>2026-06-28T09:28:05Z</time>
      </trkpt>
      <trkpt lat="51.718849008902907" lon="-9.743854980915785">
        <ele>165.47999999999999</ele>
        <time>2026-06-28T09:28:06Z</time>
      </trkpt>
      <trkpt lat="51.718806009739637" lon="-9.743718020617962">
        <ele>165</ele>
        <time>2026-06-28T09:28:07Z</time>
      </trkpt>
      <trkpt lat="51.718701990321279" lon="-9.743237989023328">
        <ele>162.59999999999999</ele>
        <time>2026-06-28T09:28:10Z</time>
      </trkpt>
      <trkpt lat="51.718685980886221" lon="-9.74304998293519">
        <ele>161.16</ele>
        <time>2026-06-28T09:28:11Z</time>
      </trkpt>
      <trkpt lat="51.718668965622783" lon="-9.742857031524181">
        <ele>160.19999999999999</ele>
        <time>2026-06-28T09:28:12Z</time>
      </trkpt>
      <trkpt lat="51.718886978924274" lon="-9.740848978981376">
        <ele>153.47</ele>
        <time>2026-06-28T09:28:22Z</time>
      </trkpt>
      <trkpt lat="51.71891899779439" lon="-9.740654015913606">
        <ele>152.99000000000001</ele>
        <time>2026-06-28T09:28:23Z</time>
      </trkpt>
      <trkpt lat="51.718923021107912" lon="-9.740459974855185">
        <ele>152.03</ele>
        <time>2026-06-28T09:28:24Z</time>
      </trkpt>
      <trkpt lat="51.718873986974359" lon="-9.740282027050853">
        <ele>151.06</ele>
        <time>2026-06-28T09:28:25Z</time>
      </trkpt>
      <trkpt lat="51.718809027224779" lon="-9.740140037611127">
        <ele>150.09999999999999</ele>
        <time>2026-06-28T09:28:26Z</time>
      </trkpt>
      <trkpt lat="51.718805003911257" lon="-9.739982038736343">
        <ele>149.13999999999999</ele>
        <time>2026-06-28T09:28:27Z</time>
      </trkpt>
      <trkpt lat="51.718822019174695" lon="-9.739850023761392">
        <ele>148.66</ele>
        <time>2026-06-28T09:28:28Z</time>
      </trkpt>
      <trkpt lat="51.718869041651487" lon="-9.739719014614821">
        <ele>148.18000000000001</ele>
        <time>2026-06-28T09:28:29Z</time>
      </trkpt>
      <trkpt lat="51.718936013057828" lon="-9.739582976326346">
        <ele>148.18000000000001</ele>
        <time>2026-06-28T09:28:30Z</time>
      </trkpt>
      <trkpt lat="51.719018993899226" lon="-9.739445010200143">
        <ele>147.69999999999999</ele>
        <time>2026-06-28T09:28:31Z</time>
      </trkpt>
      <trkpt lat="51.719107003882527" lon="-9.739295979961753">
        <ele>147.69999999999999</ele>
        <time>2026-06-28T09:28:32Z</time>
      </trkpt>
      <trkpt lat="51.719199037179351" lon="-9.739140998572111">
        <ele>147.22</ele>
        <time>2026-06-28T09:28:33Z</time>
      </trkpt>
      <trkpt lat="51.719291992485523" lon="-9.738984005525708">
        <ele>146.74000000000001</ele>
        <time>2026-06-28T09:28:34Z</time>
      </trkpt>
      <trkpt lat="51.719367010518909" lon="-9.738808991387487">
        <ele>146.25999999999999</ele>
        <time>2026-06-28T09:28:35Z</time>
      </trkpt>
      <trkpt lat="51.719420989975333" lon="-9.738607993349433">
        <ele>145.78</ele>
        <time>2026-06-28T09:28:36Z</time>
      </trkpt>
      <trkpt lat="51.719448985531926" lon="-9.738388974219561">
        <ele>145.30000000000001</ele>
        <time>2026-06-28T09:28:37Z</time>
      </trkpt>
      <trkpt lat="51.719448985531926" lon="-9.738165009766817">
        <ele>144.81999999999999</ele>
        <time>2026-06-28T09:28:38Z</time>
      </trkpt>
      <trkpt lat="51.719448985531926" lon="-9.737936016172171">
        <ele>143.84999999999999</ele>
        <time>2026-06-28T09:28:39Z</time>
      </trkpt>
      <trkpt lat="51.719448985531926" lon="-9.737709034234285">
        <ele>143.84999999999999</ele>
        <time>2026-06-28T09:28:40Z</time>
      </trkpt>
      <trkpt lat="51.719448985531926" lon="-9.737052982673049">
        <ele>141.44999999999999</ele>
        <time>2026-06-28T09:28:43Z</time>
      </trkpt>
      <trkpt lat="51.719448985531926" lon="-9.73683899268508">
        <ele>140.49000000000001</ele>
        <time>2026-06-28T09:28:44Z</time>
      </trkpt>
      <trkpt lat="51.719396011903882" lon="-9.73664696328342">
        <ele>139.53</ele>
        <time>2026-06-28T09:28:45Z</time>
      </trkpt>
      <trkpt lat="51.719340020790696" lon="-9.736478989943862">
        <ele>138.56999999999999</ele>
        <time>2026-06-28T09:28:46Z</time>
      </trkpt>
      <trkpt lat="51.719268020242453" lon="-9.73632400855422">
        <ele>137.61000000000001</ele>
        <time>2026-06-28T09:28:47Z</time>
      </trkpt>
      <trkpt lat="51.719187973067164" lon="-9.736179001629353">
        <ele>137.13</ele>
        <time>2026-06-28T09:28:48Z</time>
      </trkpt>
      <trkpt lat="51.719084037467837" lon="-9.736074982210994">
        <ele>136.16</ele>
        <time>2026-06-28T09:28:49Z</time>
      </trkpt>
      <trkpt lat="51.718979012221098" lon="-9.735970040783286">
        <ele>135.19999999999999</ele>
        <time>2026-06-28T09:28:50Z</time>
      </trkpt>
      <trkpt lat="51.718891002237797" lon="-9.735882030799985">
        <ele>134.24000000000001</ele>
        <time>2026-06-28T09:28:51Z</time>
      </trkpt>
      <trkpt lat="51.718816990032792" lon="-9.735749009996653">
        <ele>133.75999999999999</ele>
        <time>2026-06-28T09:28:52Z</time>
      </trkpt>
      <trkpt lat="51.718776002526283" lon="-9.735598973929882">
        <ele>133.28</ele>
        <time>2026-06-28T09:28:53Z</time>
      </trkpt>
      <trkpt lat="51.718762004747987" lon="-9.735427983105183">
        <ele>132.31999999999999</ele>
        <time>2026-06-28T09:28:54Z</time>
      </trkpt>
      <trkpt lat="51.718745995312929" lon="-9.735238971188664">
        <ele>132.31999999999999</ele>
        <time>2026-06-28T09:28:55Z</time>
      </trkpt>
      <trkpt lat="51.718728980049491" lon="-9.735047025606036">
        <ele>131.84</ele>
        <time>2026-06-28T09:28:56Z</time>
      </trkpt>
      <trkpt lat="51.718698972836137" lon="-9.734687022864819">
        <ele>131.36000000000001</ele>
        <time>2026-06-28T09:28:58Z</time>
      </trkpt>
      <trkpt lat="51.718653962016106" lon="-9.734575040638447">
        <ele>130.88</ele>
        <time>2026-06-28T09:28:59Z</time>
      </trkpt>
      <trkpt lat="51.718610040843487" lon="-9.734469009563327">
        <ele>130.40000000000001</ele>
        <time>2026-06-28T09:29:00Z</time>
      </trkpt>
      <trkpt lat="51.718544997274876" lon="-9.734422992914915">
        <ele>129.91999999999999</ele>
        <time>2026-06-28T09:29:01Z</time>
      </trkpt>
      <trkpt lat="51.718465033918619" lon="-9.734422992914915">
        <ele>129.91999999999999</ele>
        <time>2026-06-28T09:29:02Z</time>
      </trkpt>
      <trkpt lat="51.718395967036486" lon="-9.734468003734946">
        <ele>129.43000000000001</ele>
        <time>2026-06-28T09:29:03Z</time>
      </trkpt>
      <trkpt lat="51.718330001458526" lon="-9.734546039253473">
        <ele>128.94999999999999</ele>
        <time>2026-06-28T09:29:04Z</time>
      </trkpt>
      <trkpt lat="51.71829798258841" lon="-9.734680987894535">
        <ele>128.94999999999999</ele>
        <time>2026-06-28T09:29:05Z</time>
      </trkpt>
      <trkpt lat="51.718263030052185" lon="-9.734828006476164">
        <ele>128.47</ele>
        <time>2026-06-28T09:29:06Z</time>
      </trkpt>
      <trkpt lat="51.718227993696928" lon="-9.734977958723903">
        <ele>127.98999999999999</ele>
        <time>2026-06-28T09:29:07Z</time>
      </trkpt>
      <trkpt lat="51.718193041160703" lon="-9.735129000619054">
        <ele>127.51000000000001</ele>
        <time>2026-06-28T09:29:08Z</time>
      </trkpt>
      <trkpt lat="51.718162028118968" lon="-9.735260009765625">
        <ele>127.03</ele>
        <time>2026-06-28T09:29:09Z</time>
      </trkpt>
      <trkpt lat="51.718066977337003" lon="-9.735383978113532">
        <ele>126.55</ele>
        <time>2026-06-28T09:29:10Z</time>
      </trkpt>
      <trkpt lat="51.717992965131998" lon="-9.735479028895497">
        <ele>126.06999999999999</ele>
        <time>2026-06-28T09:29:11Z</time>
      </trkpt>
      <trkpt lat="51.71791099011898" lon="-9.735543988645077">
        <ele>125.59</ele>
        <time>2026-06-28T09:29:12Z</time>
      </trkpt>
      <trkpt lat="51.717814011499286" lon="-9.735555974766612">
        <ele>125.11</ele>
        <time>2026-06-28T09:29:13Z</time>
      </trkpt>
      <trkpt lat="51.71771896071732" lon="-9.735535020008683">
        <ele>124.63</ele>
        <time>2026-06-28T09:29:14Z</time>
      </trkpt>
      <trkpt lat="51.717624999582767" lon="-9.735494032502174">
        <ele>124.15000000000001</ele>
        <time>2026-06-28T09:29:15Z</time>
      </trkpt>
      <trkpt lat="51.717541012912989" lon="-9.735427983105183">
        <ele>124.15000000000001</ele>
        <time>2026-06-28T09:29:16Z</time>
      </trkpt>
      <trkpt lat="51.71745995990932" lon="-9.735337039455771">
        <ele>123.67</ele>
        <time>2026-06-28T09:29:17Z</time>
      </trkpt>
      <trkpt lat="51.717397011816502" lon="-9.735245006158948">
        <ele>123.19</ele>
        <time>2026-06-28T09:29:18Z</time>
      </trkpt>
      <trkpt lat="51.717347977682948" lon="-9.735118020325899">
        <ele>122.70999999999999</ele>
        <time>2026-06-28T09:29:19Z</time>
      </trkpt>
      <trkpt lat="51.717299027368426" lon="-9.734967984259129">
        <ele>122.22</ele>
        <time>2026-06-28T09:29:20Z</time>
      </trkpt>
      <trkpt lat="51.717276982963085" lon="-9.734779978170991">
        <ele>121.73999999999999</ele>
        <time>2026-06-28T09:29:21Z</time>
      </trkpt>
      <trkpt lat="51.717036003246903" lon="-9.732733033597469">
        <ele>114.05</ele>
        <time>2026-06-28T09:29:30Z</time>
      </trkpt>
      <trkpt lat="51.716578016057611" lon="-9.729978991672397">
        <ele>104.92</ele>
        <time>2026-06-28T09:29:41Z</time>
      </trkpt>
      <trkpt lat="51.716530993580818" lon="-9.729702975600958">
        <ele>103.95999999999999</ele>
        <time>2026-06-28T09:29:42Z</time>
      </trkpt>
      <trkpt lat="51.716457987204194" lon="-9.729521004483104">
        <ele>103</ele>
        <time>2026-06-28T09:29:43Z</time>
      </trkpt>
      <trkpt lat="51.715595992282033" lon="-9.727931041270495">
        <ele>95.310000000000002</ele>
        <time>2026-06-28T09:29:51Z</time>
      </trkpt>
      <trkpt lat="51.714795017614961" lon="-9.726407965645194">
        <ele>88.579999999999998</ele>
        <time>2026-06-28T09:29:59Z</time>
      </trkpt>
      <trkpt lat="51.714702984318137" lon="-9.726247033104301">
        <ele>87.620000000000005</ele>
        <time>2026-06-28T09:30:00Z</time>
      </trkpt>
      <trkpt lat="51.714599970728159" lon="-9.726108983159065">
        <ele>86.659999999999997</ele>
        <time>2026-06-28T09:30:01Z</time>
      </trkpt>
      <trkpt lat="51.714491005986929" lon="-9.726056009531021">
        <ele>86.180000000000007</ele>
        <time>2026-06-28T09:30:02Z</time>
      </trkpt>
      <trkpt lat="51.714401990175247" lon="-9.726014016196132">
        <ele>85.209999999999994</ele>
        <time>2026-06-28T09:30:03Z</time>
      </trkpt>
      <trkpt lat="51.714338036254048" lon="-9.725983003154397">
        <ele>84.730000000000004</ele>
        <time>2026-06-28T09:30:04Z</time>
      </trkpt>
      <trkpt lat="51.714282967150211" lon="-9.725956013426185">
        <ele>84.25</ele>
        <time>2026-06-28T09:30:05Z</time>
      </trkpt>
      <trkpt lat="51.714229993522167" lon="-9.725930029526353">
        <ele>83.290000000000006</ele>
        <time>2026-06-28T09:30:06Z</time>
      </trkpt>
      <trkpt lat="51.714172996580601" lon="-9.725903039798141">
        <ele>82.810000000000002</ele>
        <time>2026-06-28T09:30:07Z</time>
      </trkpt>
      <trkpt lat="51.714112982153893" lon="-9.725874038413167">
        <ele>82.329999999999998</ele>
        <time>2026-06-28T09:30:08Z</time>
      </trkpt>
      <trkpt lat="51.714049028232694" lon="-9.725843025371432">
        <ele>81.849999999999994</ele>
        <time>2026-06-28T09:30:09Z</time>
      </trkpt>
      <trkpt lat="51.713975016027689" lon="-9.725790973752737">
        <ele>81.370000000000005</ele>
        <time>2026-06-28T09:30:10Z</time>
      </trkpt>
      <trkpt lat="51.713895974680781" lon="-9.725701035931706">
        <ele>80.890000000000001</ele>
        <time>2026-06-28T09:30:11Z</time>
      </trkpt>
      <trkpt lat="51.71380796469748" lon="-9.725601961836219">
        <ele>80.409999999999997</ele>
        <time>2026-06-28T09:30:12Z</time>
      </trkpt>
      <trkpt lat="51.712934989482164" lon="-9.72472001798451">
        <ele>76.079999999999998</ele>
        <time>2026-06-28T09:30:19Z</time>
      </trkpt>
      <trkpt lat="51.711691031232476" lon="-9.723503971472383">
        <ele>68.870000000000005</ele>
        <time>2026-06-28T09:30:28Z</time>
      </trkpt>
      <trkpt lat="51.711154002696276" lon="-9.722720012068749">
        <ele>65.510000000000005</ele>
        <time>2026-06-28T09:30:33Z</time>
      </trkpt>
      <trkpt lat="51.711092982441187" lon="-9.722566036507487">
        <ele>65.030000000000001</ele>
        <time>2026-06-28T09:30:34Z</time>
      </trkpt>
      <trkpt lat="51.711075967177749" lon="-9.722416000440717">
        <ele>65.030000000000001</ele>
        <time>2026-06-28T09:30:35Z</time>
      </trkpt>
      <trkpt lat="51.711069010198116" lon="-9.722231011837721">
        <ele>64.549999999999997</ele>
        <time>2026-06-28T09:30:36Z</time>
      </trkpt>
      <trkpt lat="51.711060963571072" lon="-9.722044011577964">
        <ele>64.069999999999993</ele>
        <time>2026-06-28T09:30:37Z</time>
      </trkpt>
      <trkpt lat="51.711029028519988" lon="-9.721879977732897">
        <ele>64.069999999999993</ele>
        <time>2026-06-28T09:30:38Z</time>
      </trkpt>
      <trkpt lat="51.710988963022828" lon="-9.721718039363623">
        <ele>63.579999999999998</ele>
        <time>2026-06-28T09:30:39Z</time>
      </trkpt>
      <trkpt lat="51.710940012708306" lon="-9.721549982205033">
        <ele>63.579999999999998</ele>
        <time>2026-06-28T09:30:40Z</time>
      </trkpt>
      <trkpt lat="51.710853008553386" lon="-9.721399024128914">
        <ele>63.100000000000001</ele>
        <time>2026-06-28T09:30:41Z</time>
      </trkpt>
      <trkpt lat="51.710758963599801" lon="-9.721234990283847">
        <ele>63.100000000000001</ele>
        <time>2026-06-28T09:30:42Z</time>
      </trkpt>
      <trkpt lat="51.709934016689658" lon="-9.719824986532331">
        <ele>58.780000000000001</ele>
        <time>2026-06-28T09:30:50Z</time>
      </trkpt>
      <trkpt lat="51.709834020584822" lon="-9.719733959063888">
        <ele>58.299999999999997</ele>
        <time>2026-06-28T09:30:51Z</time>
      </trkpt>
      <trkpt lat="51.709524979814887" lon="-9.719448974356055">
        <ele>55.890000000000001</ele>
        <time>2026-06-28T09:30:54Z</time>
      </trkpt>
      <trkpt lat="51.709417020902038" lon="-9.719343027099967">
        <ele>55.409999999999997</ele>
        <time>2026-06-28T09:30:55Z</time>
      </trkpt>
      <trkpt lat="51.709320964291692" lon="-9.719200031831861">
        <ele>54.450000000000003</ele>
        <time>2026-06-28T09:30:56Z</time>
      </trkpt>
      <trkpt lat="51.709136981517076" lon="-9.718924015760422">
        <ele>53.490000000000002</ele>
        <time>2026-06-28T09:30:58Z</time>
      </trkpt>
      <trkpt lat="51.709052994847298" lon="-9.718797029927373">
        <ele>53.490000000000002</ele>
        <time>2026-06-28T09:30:59Z</time>
      </trkpt>
      <trkpt lat="51.708960961550474" lon="-9.718710025772452">
        <ele>53.009999999999998</ele>
        <time>2026-06-28T09:31:00Z</time>
      </trkpt>
      <trkpt lat="51.708856020122766" lon="-9.718692004680634">
        <ele>52.530000000000001</ele>
        <time>2026-06-28T09:31:01Z</time>
      </trkpt>
      <trkpt lat="51.708747977390885" lon="-9.718672977760434">
        <ele>52.049999999999997</ele>
        <time>2026-06-28T09:31:02Z</time>
      </trkpt>
      <trkpt lat="51.708640018478036" lon="-9.718654034659267">
        <ele>51.090000000000003</ele>
        <time>2026-06-28T09:31:03Z</time>
      </trkpt>
      <trkpt lat="51.708531975746155" lon="-9.718636013567448">
        <ele>50.609999999999999</ele>
        <time>2026-06-28T09:31:04Z</time>
      </trkpt>
      <trkpt lat="51.708430973812938" lon="-9.718617992475629">
        <ele>50.130000000000003</ele>
        <time>2026-06-28T09:31:05Z</time>
      </trkpt>
      <trkpt lat="51.708343969658017" lon="-9.718580022454262">
        <ele>49.649999999999999</ele>
        <time>2026-06-28T09:31:06Z</time>
      </trkpt>
      <trkpt lat="51.708265012130141" lon="-9.718509027734399">
        <ele>49.159999999999997</ele>
        <time>2026-06-28T09:31:07Z</time>
      </trkpt>
      <trkpt lat="51.708183959126472" lon="-9.718437027186155">
        <ele>49.159999999999997</ele>
        <time>2026-06-28T09:31:08Z</time>
      </trkpt>
      <trkpt lat="51.708102989941835" lon="-9.718366032466292">
        <ele>49.159999999999997</ele>
        <time>2026-06-28T09:31:09Z</time>
      </trkpt>
      <trkpt lat="51.70802503824234" lon="-9.718296965584159">
        <ele>49.159999999999997</ele>
        <time>2026-06-28T09:31:10Z</time>
      </trkpt>
      <trkpt lat="51.70794096775353" lon="-9.718266036361456">
        <ele>48.68</ele>
        <time>2026-06-28T09:31:11Z</time>
      </trkpt>
      <trkpt lat="51.707838959991932" lon="-9.718266036361456">
        <ele>48.200000000000003</ele>
        <time>2026-06-28T09:31:12Z</time>
      </trkpt>
      <trkpt lat="51.707733012735844" lon="-9.718266036361456">
        <ele>47.719999999999999</ele>
        <time>2026-06-28T09:31:13Z</time>
      </trkpt>
      <trkpt lat="51.707620024681091" lon="-9.718266036361456">
        <ele>47.240000000000002</ele>
        <time>2026-06-28T09:31:14Z</time>
      </trkpt>
      <trkpt lat="51.707498989999294" lon="-9.718266036361456">
        <ele>46.280000000000001</ele>
        <time>2026-06-28T09:31:15Z</time>
      </trkpt>
      <trkpt lat="51.707383990287781" lon="-9.71823301166296">
        <ele>46.280000000000001</ele>
        <time>2026-06-28T09:31:16Z</time>
      </trkpt>
      <trkpt lat="51.707280976697803" lon="-9.718196969479322">
        <ele>45.799999999999997</ele>
        <time>2026-06-28T09:31:17Z</time>
      </trkpt>
      <trkpt lat="51.707189027220011" lon="-9.718164028599858">
        <ele>45.32</ele>
        <time>2026-06-28T09:31:18Z</time>
      </trkpt>
      <trkpt lat="51.707097999751568" lon="-9.718124968931079">
        <ele>44.840000000000003</ele>
        <time>2026-06-28T09:31:19Z</time>
      </trkpt>
      <trkpt lat="51.707010995596647" lon="-9.7180409822613">
        <ele>45.32</ele>
        <time>2026-06-28T09:31:20Z</time>
      </trkpt>
      <trkpt lat="51.706156963482499" lon="-9.717225003987551">
        <ele>43.880000000000003</ele>
        <time>2026-06-28T09:31:28Z</time>
      </trkpt>
      <trkpt lat="51.705360012128949" lon="-9.71668797545135">
        <ele>40.990000000000002</ele>
        <time>2026-06-28T09:31:37Z</time>
      </trkpt>
      <trkpt lat="51.704800017178059" lon="-9.716405002400279">
        <ele>37.149999999999999</ele>
        <time>2026-06-28T09:31:42Z</time>
      </trkpt>
      <trkpt lat="51.704678982496262" lon="-9.716419000178576">
        <ele>36.189999999999998</ele>
        <time>2026-06-28T09:31:43Z</time>
      </trkpt>
      <trkpt lat="51.704551996663213" lon="-9.716434003785253">
        <ele>35.229999999999997</ele>
        <time>2026-06-28T09:31:44Z</time>
      </trkpt>
      <trkpt lat="51.704158969223499" lon="-9.716425035148859">
        <ele>33.299999999999997</ele>
        <time>2026-06-28T09:31:47Z</time>
      </trkpt>
      <trkpt lat="51.704025026410818" lon="-9.716387987136841">
        <ele>33.299999999999997</ele>
        <time>2026-06-28T09:31:48Z</time>
      </trkpt>
      <trkpt lat="51.703624036163092" lon="-9.716279022395611">
        <ele>31.859999999999999</ele>
        <time>2026-06-28T09:31:51Z</time>
      </trkpt>
      <trkpt lat="51.70349202118814" lon="-9.716269969940186">
        <ele>31.379999999999999</ele>
        <time>2026-06-28T09:31:52Z</time>
      </trkpt>
      <trkpt lat="51.703362017869949" lon="-9.716269969940186">
        <ele>30.899999999999999</ele>
        <time>2026-06-28T09:31:53Z</time>
      </trkpt>
      <trkpt lat="51.702156029641628" lon="-9.716101996600628">
        <ele>28.02</ele>
        <time>2026-06-28T09:32:02Z</time>
      </trkpt>
      <trkpt lat="51.701092030853033" lon="-9.716222025454044">
        <ele>24.649999999999999</ele>
        <time>2026-06-28T09:32:10Z</time>
      </trkpt>
      <trkpt lat="51.699810018762946" lon="-9.716546991840005">
        <ele>21.289999999999999</ele>
        <time>2026-06-28T09:32:19Z</time>
      </trkpt>
      <trkpt lat="51.698453994467854" lon="-9.71700799651444">
        <ele>16.48</ele>
        <time>2026-06-28T09:32:29Z</time>
      </trkpt>
      <trkpt lat="51.698317034170032" lon="-9.717055018991232">
        <ele>15.52</ele>
        <time>2026-06-28T09:32:30Z</time>
      </trkpt>
      <trkpt lat="51.697832979261875" lon="-9.717348972335458">
        <ele>14.08</ele>
        <time>2026-06-28T09:32:34Z</time>
      </trkpt>
      <trkpt lat="51.697743041440845" lon="-9.717473024502397">
        <ele>14.08</ele>
        <time>2026-06-28T09:32:35Z</time>
      </trkpt>
      <trkpt lat="51.697674980387092" lon="-9.717607973143458">
        <ele>14.08</ele>
        <time>2026-06-28T09:32:36Z</time>
      </trkpt>
      <trkpt lat="51.697612032294273" lon="-9.717764966189861">
        <ele>14.08</ele>
        <time>2026-06-28T09:32:37Z</time>
      </trkpt>
      <trkpt lat="51.697565009817481" lon="-9.717933023348451">
        <ele>14.08</ele>
        <time>2026-06-28T09:32:38Z</time>
      </trkpt>
      <trkpt lat="51.697527961805463" lon="-9.718121029436588">
        <ele>13.6</ele>
        <time>2026-06-28T09:32:39Z</time>
      </trkpt>
      <trkpt lat="51.697490997612476" lon="-9.718312975019217">
        <ele>13.6</ele>
        <time>2026-06-28T09:32:40Z</time>
      </trkpt>
      <trkpt lat="51.6973050031811" lon="-9.719253005459905">
        <ele>11.67</ele>
        <time>2026-06-28T09:32:45Z</time>
      </trkpt>
      <trkpt lat="51.697233002632856" lon="-9.719432964920998">
        <ele>11.19</ele>
        <time>2026-06-28T09:32:46Z</time>
      </trkpt>
      <trkpt lat="51.697165025398135" lon="-9.719590041786432">
        <ele>10.710000000000001</ele>
        <time>2026-06-28T09:32:47Z</time>
      </trkpt>
      <trkpt lat="51.69700400903821" lon="-9.719810988754034">
        <ele>9.27</ele>
        <time>2026-06-28T09:32:49Z</time>
      </trkpt>
      <trkpt lat="51.696908036246896" lon="-9.719875026494265">
        <ele>8.310000000000001</ele>
        <time>2026-06-28T09:32:50Z</time>
      </trkpt>
      <trkpt lat="51.696810973808169" lon="-9.719938980415463">
        <ele>8.310000000000001</ele>
        <time>2026-06-28T09:32:51Z</time>
      </trkpt>
      <trkpt lat="51.696716006845236" lon="-9.719948032870889">
        <ele>7.83</ele>
        <time>2026-06-28T09:32:52Z</time>
      </trkpt>
      <trkpt lat="51.696615004912019" lon="-9.719957001507282">
        <ele>7.83</ele>
        <time>2026-06-28T09:32:53Z</time>
      </trkpt>
      <trkpt lat="51.696515008807182" lon="-9.719965970143676">
        <ele>7.83</ele>
        <time>2026-06-28T09:32:54Z</time>
      </trkpt>
      <trkpt lat="51.696411995217204" lon="-9.719976028427482">
        <ele>7.35</ele>
        <time>2026-06-28T09:32:55Z</time>
      </trkpt>
      <trkpt lat="51.696306969970465" lon="-9.719984997063875">
        <ele>7.35</ele>
        <time>2026-06-28T09:32:56Z</time>
      </trkpt>
      <trkpt lat="51.695277001708746" lon="-9.720254978165031">
        <ele>3.5</ele>
        <time>2026-06-28T09:33:06Z</time>
      </trkpt>
      <trkpt lat="51.695214975625277" lon="-9.720322033390403">
        <ele>2.54</ele>
        <time>2026-06-28T09:33:07Z</time>
      </trkpt>
      <trkpt lat="51.694967960938811" lon="-9.720611041411758">
        <ele>0.62</ele>
        <time>2026-06-28T09:33:14Z</time>
      </trkpt>
      <trkpt lat="51.694918004795909" lon="-9.720668960362673">
        <ele>0.14</ele>
        <time>2026-06-28T09:33:17Z</time>
      </trkpt>
      <trkpt lat="51.694882968440652" lon="-9.720741966739297">
        <ele>0.14</ele>
        <time>2026-06-28T09:33:18Z</time>
      </trkpt>
      <trkpt lat="51.694901995360851" lon="-9.720904994755983">
        <ele>0.14</ele>
        <time>2026-06-28T09:33:19Z</time>
      </trkpt>
      <trkpt lat="51.694635031744838" lon="-9.721781993284822">
        <ele>0.14</ele>
        <time>2026-06-28T09:33:25Z</time>
      </trkpt>
      <trkpt lat="51.694217026233673" lon="-9.722796035930514">
        <ele>-1.3</ele>
        <time>2026-06-28T09:33:32Z</time>
      </trkpt>
      <trkpt lat="51.693630963563919" lon="-9.72411903552711">
        <ele>0.14</ele>
        <time>2026-06-28T09:33:42Z</time>
      </trkpt>
      <trkpt lat="51.692968960851431" lon="-9.725797008723021">
        <ele>1.1</ele>
        <time>2026-06-28T09:33:52Z</time>
      </trkpt>
      <trkpt lat="51.692211991176009" lon="-9.72710601054132">
        <ele>2.54</ele>
        <time>2026-06-28T09:34:01Z</time>
      </trkpt>
      <trkpt lat="51.692019961774349" lon="-9.72740700468421">
        <ele>3.02</ele>
        <time>2026-06-28T09:34:03Z</time>
      </trkpt>
      <trkpt lat="51.690977001562715" lon="-9.728802004829049">
        <ele>4.94</ele>
        <time>2026-06-28T09:34:13Z</time>
      </trkpt>
      <trkpt lat="51.690207961946726" lon="-9.730504034087062">
        <ele>5.42</ele>
        <time>2026-06-28T09:34:21Z</time>
      </trkpt>
      <trkpt lat="51.689186962321401" lon="-9.733485979959369">
        <ele>5.42</ele>
        <time>2026-06-28T09:34:33Z</time>
      </trkpt>
      <trkpt lat="51.688392022624612" lon="-9.734853990375996">
        <ele>10.23</ele>
        <time>2026-06-28T09:34:40Z</time>
      </trkpt>
      <trkpt lat="51.687349984422326" lon="-9.73559201695025">
        <ele>11.19</ele>
        <time>2026-06-28T09:34:47Z</time>
      </trkpt>
      <trkpt lat="51.685363976284862" lon="-9.736132984980941">
        <ele>7.83</ele>
        <time>2026-06-28T09:34:58Z</time>
      </trkpt>
      <trkpt lat="51.684829965233803" lon="-9.736057966947556">
        <ele>6.87</ele>
        <time>2026-06-28T09:35:01Z</time>
      </trkpt>
      <trkpt lat="51.683050990104675" lon="-9.735567038878799">
        <ele>12.630000000000001</ele>
        <time>2026-06-28T09:35:11Z</time>
      </trkpt>
      <trkpt lat="51.681522969156504" lon="-9.7360850404948">
        <ele>12.630000000000001</ele>
        <time>2026-06-28T09:35:19Z</time>
      </trkpt>
      <trkpt lat="51.680163005366921" lon="-9.737030016258359">
        <ele>11.67</ele>
        <time>2026-06-28T09:35:27Z</time>
      </trkpt>
      <trkpt lat="51.678688041865826" lon="-9.738384028896689">
        <ele>13.6</ele>
        <time>2026-06-28T09:35:36Z</time>
      </trkpt>
      <trkpt lat="51.677584983408451" lon="-9.739545006304979">
        <ele>17.440000000000001</ele>
        <time>2026-06-28T09:35:44Z</time>
      </trkpt>
      <trkpt lat="51.676459964364767" lon="-9.74008203484118">
        <ele>17.920000000000002</ele>
        <time>2026-06-28T09:35:51Z</time>
      </trkpt>
      <trkpt lat="51.674934038892388" lon="-9.740703972056508">
        <ele>13.119999999999999</ele>
        <time>2026-06-28T09:36:00Z</time>
      </trkpt>
      <trkpt lat="51.674793977290392" lon="-9.740828024223447">
        <ele>13.119999999999999</ele>
        <time>2026-06-28T09:36:01Z</time>
      </trkpt>
      <trkpt lat="51.674653999507427" lon="-9.740979988127947">
        <ele>12.15</ele>
        <time>2026-06-28T09:36:02Z</time>
      </trkpt>
      <trkpt lat="51.674526007845998" lon="-9.741178974509239">
        <ele>11.67</ele>
        <time>2026-06-28T09:36:03Z</time>
      </trkpt>
      <trkpt lat="51.674396004527807" lon="-9.741386007517576">
        <ele>11.67</ele>
        <time>2026-06-28T09:36:04Z</time>
      </trkpt>
      <trkpt lat="51.673400988802314" lon="-9.74324201233685">
        <ele>7.83</ele>
        <time>2026-06-28T09:36:12Z</time>
      </trkpt>
      <trkpt lat="51.673335023224354" lon="-9.743538983166218">
        <ele>7.35</ele>
        <time>2026-06-28T09:36:13Z</time>
      </trkpt>
      <trkpt lat="51.673277020454407" lon="-9.743798989802599">
        <ele>7.35</ele>
        <time>2026-06-28T09:36:14Z</time>
      </trkpt>
      <trkpt lat="51.67321901768446" lon="-9.7440579906106">
        <ele>7.83</ele>
        <time>2026-06-28T09:36:15Z</time>
      </trkpt>
      <trkpt lat="51.672877036035061" lon="-9.745967974886298">
        <ele>14.56</ele>
        <time>2026-06-28T09:36:23Z</time>
      </trkpt>
      <trkpt lat="51.672441009432077" lon="-9.748973976820707">
        <ele>19.359999999999999</ele>
        <time>2026-06-28T09:36:34Z</time>
      </trkpt>
      <trkpt lat="51.672206986695528" lon="-9.750407030805945">
        <ele>21.289999999999999</ele>
        <time>2026-06-28T09:36:40Z</time>
      </trkpt>
      <trkpt lat="51.672142026945949" lon="-9.75065303966403">
        <ele>21.77</ele>
        <time>2026-06-28T09:36:41Z</time>
      </trkpt>
      <trkpt lat="51.672073965892196" lon="-9.750904999673367">
        <ele>22.25</ele>
        <time>2026-06-28T09:36:42Z</time>
      </trkpt>
      <trkpt lat="51.671667024493217" lon="-9.75211501121521">
        <ele>28.98</ele>
        <time>2026-06-28T09:36:47Z</time>
      </trkpt>
      <trkpt lat="51.67113896459341" lon="-9.753955006599426">
        <ele>39.549999999999997</ele>
        <time>2026-06-28T09:36:55Z</time>
      </trkpt>
      <trkpt lat="51.670458018779755" lon="-9.75604603998363">
        <ele>46.280000000000001</ele>
        <time>2026-06-28T09:37:04Z</time>
      </trkpt>
      <trkpt lat="51.670375959947705" lon="-9.75652095861733">
        <ele>46.759999999999998</ele>
        <time>2026-06-28T09:37:06Z</time>
      </trkpt>
      <trkpt lat="51.670390041545033" lon="-9.75677702575922">
        <ele>46.280000000000001</ele>
        <time>2026-06-28T09:37:07Z</time>
      </trkpt>
      <trkpt lat="51.670405967161059" lon="-9.757038960233331">
        <ele>46.759999999999998</ele>
        <time>2026-06-28T09:37:08Z</time>
      </trkpt>
      <trkpt lat="51.670421976596117" lon="-9.757305001839995">
        <ele>46.759999999999998</ele>
        <time>2026-06-28T09:37:09Z</time>
      </trkpt>
      <trkpt lat="51.670436980202794" lon="-9.757567020133138">
        <ele>47.240000000000002</ele>
        <time>2026-06-28T09:37:10Z</time>
      </trkpt>
      <trkpt lat="51.670465981587768" lon="-9.758051997050643">
        <ele>48.200000000000003</ele>
        <time>2026-06-28T09:37:12Z</time>
      </trkpt>
      <trkpt lat="51.670364979654551" lon="-9.760024007409811">
        <ele>48.68</ele>
        <time>2026-06-28T09:37:20Z</time>
      </trkpt>
      <trkpt lat="51.670257020741701" lon="-9.762722980231047">
        <ele>51.090000000000003</ele>
        <time>2026-06-28T09:37:30Z</time>
      </trkpt>
      <trkpt lat="51.669845972210169" lon="-9.765235036611557">
        <ele>51.090000000000003</ele>
        <time>2026-06-28T09:37:40Z</time>
      </trkpt>
      <trkpt lat="51.669728960841894" lon="-9.765726970508695">
        <ele>52.049999999999997</ele>
        <time>2026-06-28T09:37:42Z</time>
      </trkpt>
      <trkpt lat="51.669047009199858" lon="-9.768584026023746">
        <ele>53.009999999999998</ele>
        <time>2026-06-28T09:37:53Z</time>
      </trkpt>
      <trkpt lat="51.668229019269347" lon="-9.772506002336741">
        <ele>54.93</ele>
        <time>2026-06-28T09:38:08Z</time>
      </trkpt>
      <trkpt lat="51.668076971545815" lon="-9.774665012955666">
        <ele>53.969999999999999</ele>
        <time>2026-06-28T09:38:16Z</time>
      </trkpt>
      <trkpt lat="51.667918972671032" lon="-9.778029005974531">
        <ele>49.159999999999997</ele>
        <time>2026-06-28T09:38:28Z</time>
      </trkpt>
      <trkpt lat="51.667936993762851" lon="-9.780406029894948">
        <ele>45.32</ele>
        <time>2026-06-28T09:38:37Z</time>
      </trkpt>
      <trkpt lat="51.667902963235974" lon="-9.780672993510962">
        <ele>44.840000000000003</ele>
        <time>2026-06-28T09:38:38Z</time>
      </trkpt>
      <trkpt lat="51.667596017941833" lon="-9.783286973834038">
        <ele>43.880000000000003</ele>
        <time>2026-06-28T09:38:48Z</time>
      </trkpt>
      <trkpt lat="51.66724699549377" lon="-9.785661986097693">
        <ele>39.07</ele>
        <time>2026-06-28T09:38:57Z</time>
      </trkpt>
      <trkpt lat="51.667166026309133" lon="-9.786420967429876">
        <ele>37.630000000000003</ele>
        <time>2026-06-28T09:39:00Z</time>
      </trkpt>
      <trkpt lat="51.666998974978924" lon="-9.789014998823404">
        <ele>33.780000000000001</ele>
        <time>2026-06-28T09:39:10Z</time>
      </trkpt>
      <trkpt lat="51.666900990530849" lon="-9.791485983878374">
        <ele>31.379999999999999</ele>
        <time>2026-06-28T09:39:19Z</time>
      </trkpt>
      <trkpt lat="51.666766963899136" lon="-9.793981024995446">
        <ele>31.379999999999999</ele>
        <time>2026-06-28T09:39:28Z</time>
      </trkpt>
      <trkpt lat="51.666665961965919" lon="-9.795298995450139">
        <ele>30.420000000000002</ele>
        <time>2026-06-28T09:39:33Z</time>
      </trkpt>
      <trkpt lat="51.666331021115184" lon="-9.796705981716514">
        <ele>33.780000000000001</ele>
        <time>2026-06-28T09:39:40Z</time>
      </trkpt>
      <trkpt lat="51.666179979220033" lon="-9.797250973060727">
        <ele>34.259999999999998</ele>
        <time>2026-06-28T09:39:43Z</time>
      </trkpt>
      <trkpt lat="51.666127005591989" lon="-9.7974509652704">
        <ele>34.740000000000002</ele>
        <time>2026-06-28T09:39:44Z</time>
      </trkpt>
      <trkpt lat="51.666117031127214" lon="-9.797669984400272">
        <ele>34.259999999999998</ele>
        <time>2026-06-28T09:39:45Z</time>
      </trkpt>
      <trkpt lat="51.666106972843409" lon="-9.797893026843667">
        <ele>34.259999999999998</ele>
        <time>2026-06-28T09:39:46Z</time>
      </trkpt>
      <trkpt lat="51.666120970621705" lon="-9.798124032095075">
        <ele>34.740000000000002</ele>
        <time>2026-06-28T09:39:47Z</time>
      </trkpt>
      <trkpt lat="51.666141003370285" lon="-9.798363000154495">
        <ele>34.740000000000002</ele>
        <time>2026-06-28T09:39:48Z</time>
      </trkpt>
      <trkpt lat="51.666350970044732" lon="-9.801172027364373">
        <ele>37.149999999999999</ele>
        <time>2026-06-28T09:39:59Z</time>
      </trkpt>
      <trkpt lat="51.666296990588307" lon="-9.803746026009321">
        <ele>39.07</ele>
        <time>2026-06-28T09:40:09Z</time>
      </trkpt>
      <trkpt lat="51.665800027549267" lon="-9.807367008179426">
        <ele>41.950000000000003</ele>
        <time>2026-06-28T09:40:22Z</time>
      </trkpt>
      <trkpt lat="51.665375987067819" lon="-9.810276031494141">
        <ele>39.07</ele>
        <time>2026-06-28T09:40:33Z</time>
      </trkpt>
      <trkpt lat="51.665238020941615" lon="-9.813000988215208">
        <ele>34.259999999999998</ele>
        <time>2026-06-28T09:40:42Z</time>
      </trkpt>
      <trkpt lat="51.664937026798725" lon="-9.815508015453816">
        <ele>31.379999999999999</ele>
        <time>2026-06-28T09:40:51Z</time>
      </trkpt>
      <trkpt lat="51.66430402547121" lon="-9.817125974223018">
        <ele>34.259999999999998</ele>
        <time>2026-06-28T09:40:58Z</time>
      </trkpt>
      <trkpt lat="51.663890965282917" lon="-9.817961985245347">
        <ele>36.189999999999998</ele>
        <time>2026-06-28T09:41:04Z</time>
      </trkpt>
      <trkpt lat="51.663520988076925" lon="-9.81880403123796">
        <ele>37.149999999999999</ele>
        <time>2026-06-28T09:41:13Z</time>
      </trkpt>
      <trkpt lat="51.663435995578766" lon="-9.819026989862323">
        <ele>37.630000000000003</ele>
        <time>2026-06-28T09:41:16Z</time>
      </trkpt>
      <trkpt lat="51.663401965051889" lon="-9.819116005674005">
        <ele>37.630000000000003</ele>
        <time>2026-06-28T09:41:17Z</time>
      </trkpt>
      <trkpt lat="51.663014972582459" lon="-9.820233983919025">
        <ele>37.149999999999999</ele>
        <time>2026-06-28T09:41:25Z</time>
      </trkpt>
      <trkpt lat="51.662519015371799" lon="-9.821868035942316">
        <ele>40.030000000000001</ele>
        <time>2026-06-28T09:41:36Z</time>
      </trkpt>
      <trkpt lat="51.662494037300348" lon="-9.822080014273524">
        <ele>40.990000000000002</ele>
        <time>2026-06-28T09:41:38Z</time>
      </trkpt>
      <trkpt lat="51.662486996501684" lon="-9.822143968194723">
        <ele>41.469999999999999</ele>
        <time>2026-06-28T09:41:39Z</time>
      </trkpt>
      <trkpt lat="51.662480961531401" lon="-9.822197025641799">
        <ele>41.469999999999999</ele>
        <time>2026-06-28T09:41:40Z</time>
      </trkpt>
      <trkpt lat="51.662480961531401" lon="-9.822197025641799">
        <ele>42.439999999999998</ele>
        <time>2026-06-28T09:41:48Z</time>
      </trkpt>
      <trkpt lat="51.662480961531401" lon="-9.822197025641799">
        <ele>42.439999999999998</ele>
        <time>2026-06-28T09:42:37Z</time>
      </trkpt>
      <trkpt lat="51.662480961531401" lon="-9.822197025641799">
        <ele>42.920000000000002</ele>
        <time>2026-06-28T09:43:22Z</time>
      </trkpt>
      <trkpt lat="51.662480961531401" lon="-9.822197025641799">
        <ele>42.920000000000002</ele>
        <time>2026-06-28T09:44:03Z</time>
      </trkpt>
      <trkpt lat="51.662447014823556" lon="-9.822492990642786">
        <ele>44.359999999999999</ele>
        <time>2026-06-28T09:44:11Z</time>
      </trkpt>
      <trkpt lat="51.66252002120018" lon="-9.823691016063094">
        <ele>46.280000000000001</ele>
        <time>2026-06-28T09:44:17Z</time>
      </trkpt>
      <trkpt lat="51.662922017276287" lon="-9.826501971110702">
        <ele>47.240000000000002</ele>
        <time>2026-06-28T09:44:28Z</time>
      </trkpt>
      <trkpt lat="51.662936015054584" lon="-9.827584996819496">
        <ele>46.280000000000001</ele>
        <time>2026-06-28T09:44:32Z</time>
      </trkpt>
      <trkpt lat="51.662906007841229" lon="-9.827834023162723">
        <ele>45.799999999999997</ele>
        <time>2026-06-28T09:44:33Z</time>
      </trkpt>
      <trkpt lat="51.662876000627875" lon="-9.828082965686917">
        <ele>46.280000000000001</ele>
        <time>2026-06-28T09:44:34Z</time>
      </trkpt>
      <trkpt lat="51.662822021171451" lon="-9.828317994251847">
        <ele>45.799999999999997</ele>
        <time>2026-06-28T09:44:35Z</time>
      </trkpt>
      <trkpt lat="51.662753038108349" lon="-9.828551011160016">
        <ele>45.32</ele>
        <time>2026-06-28T09:44:36Z</time>
      </trkpt>
      <trkpt lat="51.662694029510021" lon="-9.828751003369689">
        <ele>44.840000000000003</ele>
        <time>2026-06-28T09:44:37Z</time>
      </trkpt>
      <trkpt lat="51.662576012313366" lon="-9.828975973650813">
        <ele>43.880000000000003</ele>
        <time>2026-06-28T09:44:38Z</time>
      </trkpt>
      <trkpt lat="51.662467969581485" lon="-9.82918200083077">
        <ele>42.920000000000002</ele>
        <time>2026-06-28T09:44:39Z</time>
      </trkpt>
      <trkpt lat="51.662356993183494" lon="-9.829394984990358">
        <ele>41.950000000000003</ele>
        <time>2026-06-28T09:44:40Z</time>
      </trkpt>
      <trkpt lat="51.661094008013606" lon="-9.831734960898757">
        <ele>29.460000000000001</ele>
        <time>2026-06-28T09:44:50Z</time>
      </trkpt>
      <trkpt lat="51.660099998116493" lon="-9.834008971229196">
        <ele>22.73</ele>
        <time>2026-06-28T09:44:59Z</time>
      </trkpt>
      <trkpt lat="51.659656008705497" lon="-9.83633796684444">
        <ele>21.77</ele>
        <time>2026-06-28T09:45:07Z</time>
      </trkpt>
      <trkpt lat="51.659616027027369" lon="-9.838940966874361">
        <ele>21.77</ele>
        <time>2026-06-28T09:45:16Z</time>
      </trkpt>
      <trkpt lat="51.659595994278789" lon="-9.839799022302032">
        <ele>22.25</ele>
        <time>2026-06-28T09:45:19Z</time>
      </trkpt>
      <trkpt lat="51.659527011215687" lon="-9.840336972847581">
        <ele>22.25</ele>
        <time>2026-06-28T09:45:21Z</time>
      </trkpt>
      <trkpt lat="51.659460039809346" lon="-9.840583987534046">
        <ele>21.77</ele>
        <time>2026-06-28T09:45:22Z</time>
      </trkpt>
      <trkpt lat="51.659379992634058" lon="-9.840835025534034">
        <ele>21.289999999999999</ele>
        <time>2026-06-28T09:45:23Z</time>
      </trkpt>
      <trkpt lat="51.659274967387319" lon="-9.841062007471919">
        <ele>21.289999999999999</ele>
        <time>2026-06-28T09:45:24Z</time>
      </trkpt>
      <trkpt lat="51.65916902013123" lon="-9.841292006894946">
        <ele>20.809999999999999</ele>
        <time>2026-06-28T09:45:25Z</time>
      </trkpt>
      <trkpt lat="51.659067012369633" lon="-9.841512031853199">
        <ele>20.809999999999999</ele>
        <time>2026-06-28T09:45:26Z</time>
      </trkpt>
      <trkpt lat="51.658985037356615" lon="-9.841734990477562">
        <ele>20.809999999999999</ele>
        <time>2026-06-28T09:45:27Z</time>
      </trkpt>
      <trkpt lat="51.65891001932323" lon="-9.841978987678886">
        <ele>20.32</ele>
        <time>2026-06-28T09:45:28Z</time>
      </trkpt>
      <trkpt lat="51.65884698741138" lon="-9.842237988486886">
        <ele>20.32</ele>
        <time>2026-06-28T09:45:29Z</time>
      </trkpt>
      <trkpt lat="51.658793007954955" lon="-9.842511992901564">
        <ele>19.84</ele>
        <time>2026-06-28T09:45:30Z</time>
      </trkpt>
      <trkpt lat="51.65835496969521" lon="-9.844922963529825">
        <ele>18.399999999999999</ele>
        <time>2026-06-28T09:45:38Z</time>
      </trkpt>
      <trkpt lat="51.65809404104948" lon="-9.846455007791519">
        <ele>19.359999999999999</ele>
        <time>2026-06-28T09:45:43Z</time>
      </trkpt>
      <trkpt lat="51.657529016956687" lon="-9.848661962896586">
        <ele>21.289999999999999</ele>
        <time>2026-06-28T09:45:51Z</time>
      </trkpt>
      <trkpt lat="51.657301029190421" lon="-9.850728018209338">
        <ele>24.170000000000002</ele>
        <time>2026-06-28T09:45:58Z</time>
      </trkpt>
      <trkpt lat="51.657146969810128" lon="-9.852415965870023">
        <ele>22.73</ele>
        <time>2026-06-28T09:46:04Z</time>
      </trkpt>
      <trkpt lat="51.657154010608792" lon="-9.852660968899727">
        <ele>21.77</ele>
        <time>2026-06-28T09:46:05Z</time>
      </trkpt>
      <trkpt lat="51.657185023650527" lon="-9.852893985807896">
        <ele>20.809999999999999</ele>
        <time>2026-06-28T09:46:06Z</time>
      </trkpt>
      <trkpt lat="51.657518036663532" lon="-9.855066994205117">
        <ele>17.440000000000001</ele>
        <time>2026-06-28T09:46:14Z</time>
      </trkpt>
      <trkpt lat="51.657653991132975" lon="-9.857260035350919">
        <ele>15.039999999999999</ele>
        <time>2026-06-28T09:46:23Z</time>
      </trkpt>
      <trkpt lat="51.657716017216444" lon="-9.857752975076437">
        <ele>14.08</ele>
        <time>2026-06-28T09:46:25Z</time>
      </trkpt>
      <trkpt lat="51.657782988622785" lon="-9.857988003641367">
        <ele>13.6</ele>
        <time>2026-06-28T09:46:26Z</time>
      </trkpt>
      <trkpt lat="51.657847026363015" lon="-9.858210040256381">
        <ele>13.119999999999999</ele>
        <time>2026-06-28T09:46:27Z</time>
      </trkpt>
      <trkpt lat="51.65826796554029" lon="-9.859401024878025">
        <ele>14.08</ele>
        <time>2026-06-28T09:46:34Z</time>
      </trkpt>
      <trkpt lat="51.659004986286163" lon="-9.860942037776113">
        <ele>17.920000000000002</ele>
        <time>2026-06-28T09:46:43Z</time>
      </trkpt>
      <trkpt lat="51.659144964069128" lon="-9.861372029408813">
        <ele>18.399999999999999</ele>
        <time>2026-06-28T09:46:45Z</time>
      </trkpt>
      <trkpt lat="51.659172037616372" lon="-9.861595993861556">
        <ele>18.399999999999999</ele>
        <time>2026-06-28T09:46:46Z</time>
      </trkpt>
      <trkpt lat="51.659196009859443" lon="-9.861795986071229">
        <ele>18.879999999999999</ele>
        <time>2026-06-28T09:46:47Z</time>
      </trkpt>
      <trkpt lat="51.659177988767624" lon="-9.862005030736327">
        <ele>18.879999999999999</ele>
        <time>2026-06-28T09:46:48Z</time>
      </trkpt>
      <trkpt lat="51.659161979332566" lon="-9.862197982147336">
        <ele>19.359999999999999</ele>
        <time>2026-06-28T09:46:49Z</time>
      </trkpt>
      <trkpt lat="51.659145969897509" lon="-9.862381964921951">
        <ele>19.359999999999999</ele>
        <time>2026-06-28T09:46:50Z</time>
      </trkpt>
      <trkpt lat="51.659129960462451" lon="-9.862555973231792">
        <ele>19.359999999999999</ele>
        <time>2026-06-28T09:46:51Z</time>
      </trkpt>
      <trkpt lat="51.659094002097845" lon="-9.862726964056492">
        <ele>19.359999999999999</ele>
        <time>2026-06-28T09:46:52Z</time>
      </trkpt>
      <trkpt lat="51.658736011013389" lon="-9.864484984427691">
        <ele>18.399999999999999</ele>
        <time>2026-06-28T09:47:03Z</time>
      </trkpt>
      <trkpt lat="51.658702986314893" lon="-9.864650024101138">
        <ele>18.399999999999999</ele>
        <time>2026-06-28T09:47:04Z</time>
      </trkpt>
      <trkpt lat="51.658636014908552" lon="-9.864993011578918">
        <ele>18.879999999999999</ele>
        <time>2026-06-28T09:47:06Z</time>
      </trkpt>
      <trkpt lat="51.658142991364002" lon="-9.866895033046603">
        <ele>17.920000000000002</ele>
        <time>2026-06-28T09:47:16Z</time>
      </trkpt>
      <trkpt lat="51.657562041655183" lon="-9.86856403760612">
        <ele>15.039999999999999</ele>
        <time>2026-06-28T09:47:25Z</time>
      </trkpt>
      <trkpt lat="51.656785039231181" lon="-9.870697986334562">
        <ele>14.08</ele>
        <time>2026-06-28T09:47:35Z</time>
      </trkpt>
      <trkpt lat="51.655881972983479" lon="-9.872780973091722">
        <ele>15.52</ele>
        <time>2026-06-28T09:47:45Z</time>
      </trkpt>
      <trkpt lat="51.655117962509394" lon="-9.874470010399818">
        <ele>17.920000000000002</ele>
        <time>2026-06-28T09:47:55Z</time>
      </trkpt>
      <trkpt lat="51.65424800477922" lon="-9.876082018017769">
        <ele>15.52</ele>
        <time>2026-06-28T09:48:06Z</time>
      </trkpt>
      <trkpt lat="51.654176004230976" lon="-9.876242028549314">
        <ele>15.52</ele>
        <time>2026-06-28T09:48:07Z</time>
      </trkpt>
      <trkpt lat="51.65409998036921" lon="-9.87642802298069">
        <ele>15.52</ele>
        <time>2026-06-28T09:48:08Z</time>
      </trkpt>
      <trkpt lat="51.653661020100117" lon="-9.878400033339858">
        <ele>17.440000000000001</ele>
        <time>2026-06-28T09:48:17Z</time>
      </trkpt>
      <trkpt lat="51.653251983225346" lon="-9.880529036745429">
        <ele>17.920000000000002</ele>
        <time>2026-06-28T09:48:28Z</time>
      </trkpt>
      <trkpt lat="51.652877982705832" lon="-9.882482020184398">
        <ele>16.960000000000001</ele>
        <time>2026-06-28T09:48:41Z</time>
      </trkpt>
      <trkpt lat="51.652599032968283" lon="-9.884092016145587">
        <ele>18.399999999999999</ele>
        <time>2026-06-28T09:48:52Z</time>
      </trkpt>
      <trkpt lat="51.652362998574972" lon="-9.886104008182883">
        <ele>21.289999999999999</ele>
        <time>2026-06-28T09:49:02Z</time>
      </trkpt>
      <trkpt lat="51.652154959738255" lon="-9.888697033748031">
        <ele>19.84</ele>
        <time>2026-06-28T09:49:15Z</time>
      </trkpt>
      <trkpt lat="51.65190702304244" lon="-9.891796996816993">
        <ele>15.039999999999999</ele>
        <time>2026-06-28T09:49:29Z</time>
      </trkpt>
      <trkpt lat="51.651771990582347" lon="-9.893791973590851">
        <ele>10.23</ele>
        <time>2026-06-28T09:49:39Z</time>
      </trkpt>
      <trkpt lat="51.651784982532263" lon="-9.893990037962794">
        <ele>9.75</ele>
        <time>2026-06-28T09:49:40Z</time>
      </trkpt>
      <trkpt lat="51.652150014415383" lon="-9.895741017535329">
        <ele>7.83</ele>
        <time>2026-06-28T09:49:49Z</time>
      </trkpt>
      <trkpt lat="51.652411026880145" lon="-9.896893026307225">
        <ele>7.35</ele>
        <time>2026-06-28T09:49:55Z</time>
      </trkpt>
      <trkpt lat="51.652421001344919" lon="-9.897103998810053">
        <ele>6.87</ele>
        <time>2026-06-28T09:49:56Z</time>
      </trkpt>
      <trkpt lat="51.652424018830061" lon="-9.898822037503123">
        <ele>9.27</ele>
        <time>2026-06-28T09:50:05Z</time>
      </trkpt>
      <trkpt lat="51.652720989659429" lon="-9.900519037619233">
        <ele>11.19</ele>
        <time>2026-06-28T09:50:16Z</time>
      </trkpt>
      <trkpt lat="51.653030030429363" lon="-9.901765007525682">
        <ele>8.789999999999999</ele>
        <time>2026-06-28T09:50:24Z</time>
      </trkpt>
      <trkpt lat="51.65308702737093" lon="-9.901922000572085">
        <ele>8.789999999999999</ele>
        <time>2026-06-28T09:50:25Z</time>
      </trkpt>
      <trkpt lat="51.653167996555567" lon="-9.902049992233515">
        <ele>8.789999999999999</ele>
        <time>2026-06-28T09:50:26Z</time>
      </trkpt>
      <trkpt lat="51.653386009857059" lon="-9.902391973882914">
        <ele>9.27</ele>
        <time>2026-06-28T09:50:29Z</time>
      </trkpt>
      <trkpt lat="51.653607962653041" lon="-9.902686011046171">
        <ele>9.75</ele>
        <time>2026-06-28T09:50:32Z</time>
      </trkpt>
      <trkpt lat="51.653703013435006" lon="-9.902779972180724">
        <ele>9.75</ele>
        <time>2026-06-28T09:50:33Z</time>
      </trkpt>
      <trkpt lat="51.653777025640011" lon="-9.902801010757685">
        <ele>9.27</ele>
        <time>2026-06-28T09:50:34Z</time>
      </trkpt>
      <trkpt lat="51.653866963461041" lon="-9.902825988829136">
        <ele>9.27</ele>
        <time>2026-06-28T09:50:35Z</time>
      </trkpt>
      <trkpt lat="51.653957990929484" lon="-9.902849961072207">
        <ele>8.789999999999999</ele>
        <time>2026-06-28T09:50:36Z</time>
      </trkpt>
      <trkpt lat="51.654325034469366" lon="-9.902951968833804">
        <ele>7.35</ele>
        <time>2026-06-28T09:50:40Z</time>
      </trkpt>
      <trkpt lat="51.654406003654003" lon="-9.903006032109261">
        <ele>6.87</ele>
        <time>2026-06-28T09:50:41Z</time>
      </trkpt>
      <trkpt lat="51.65448596701026" lon="-9.903059005737305">
        <ele>6.39</ele>
        <time>2026-06-28T09:50:42Z</time>
      </trkpt>
      <trkpt lat="51.654583029448986" lon="-9.903122959658504">
        <ele>6.39</ele>
        <time>2026-06-28T09:50:43Z</time>
      </trkpt>
      <trkpt lat="51.654650000855327" lon="-9.903190014883876">
        <ele>5.91</ele>
        <time>2026-06-28T09:50:44Z</time>
      </trkpt>
      <trkpt lat="51.654725018888712" lon="-9.903287999331951">
        <ele>5.91</ele>
        <time>2026-06-28T09:50:45Z</time>
      </trkpt>
      <trkpt lat="51.654791990295053" lon="-9.903396964073181">
        <ele>5.91</ele>
        <time>2026-06-28T09:50:46Z</time>
      </trkpt>
      <trkpt lat="51.654858039692044" lon="-9.903505006805062">
        <ele>5.91</ele>
        <time>2026-06-28T09:50:47Z</time>
      </trkpt>
      <trkpt lat="51.654895003885031" lon="-9.903630986809731">
        <ele>6.39</ele>
        <time>2026-06-28T09:50:48Z</time>
      </trkpt>
      <trkpt lat="51.654926016926765" lon="-9.903757972642779">
        <ele>6.39</ele>
        <time>2026-06-28T09:50:49Z</time>
      </trkpt>
      <trkpt lat="51.654926016926765" lon="-9.903910020366311">
        <ele>6.87</ele>
        <time>2026-06-28T09:50:50Z</time>
      </trkpt>
      <trkpt lat="51.654922999441624" lon="-9.90405997261405">
        <ele>6.87</ele>
        <time>2026-06-28T09:50:51Z</time>
      </trkpt>
      <trkpt lat="51.654887963086367" lon="-9.904198022559285">
        <ele>6.87</ele>
        <time>2026-06-28T09:50:52Z</time>
      </trkpt>
      <trkpt lat="51.654846975579858" lon="-9.904327020049095">
        <ele>6.87</ele>
        <time>2026-06-28T09:50:53Z</time>
      </trkpt>
      <trkpt lat="51.654788972809911" lon="-9.90442399866879">
        <ele>6.87</ele>
        <time>2026-06-28T09:50:54Z</time>
      </trkpt>
      <trkpt lat="51.654735999181867" lon="-9.904512008652091">
        <ele>6.87</ele>
        <time>2026-06-28T09:50:55Z</time>
      </trkpt>
      <trkpt lat="51.654439028352499" lon="-9.904952980577946">
        <ele>6.87</ele>
        <time>2026-06-28T09:51:03Z</time>
      </trkpt>
      <trkpt lat="51.654352024197578" lon="-9.905049037188292">
        <ele>6.87</ele>
        <time>2026-06-28T09:51:05Z</time>
      </trkpt>
      <trkpt lat="51.654310030862689" lon="-9.905096981674433">
        <ele>6.39</ele>
        <time>2026-06-28T09:51:06Z</time>
      </trkpt>
      <trkpt lat="51.653977017849684" lon="-9.905511969700456">
        <ele>5.91</ele>
        <time>2026-06-28T09:51:12Z</time>
      </trkpt>
      <trkpt lat="51.653915997594595" lon="-9.905595034360886">
        <ele>5.91</ele>
        <time>2026-06-28T09:51:13Z</time>
      </trkpt>
      <trkpt lat="51.653246032074094" lon="-9.906923985108733">
        <ele>6.87</ele>
        <time>2026-06-28T09:51:26Z</time>
      </trkpt>
      <trkpt lat="51.652778992429376" lon="-9.907811963930726">
        <ele>5.91</ele>
        <time>2026-06-28T09:51:37Z</time>
      </trkpt>
      <trkpt lat="51.652682013809681" lon="-9.908037018030882">
        <ele>5.91</ele>
        <time>2026-06-28T09:51:40Z</time>
      </trkpt>
      <trkpt lat="51.652618981897831" lon="-9.90818495862186">
        <ele>6.39</ele>
        <time>2026-06-28T09:51:42Z</time>
      </trkpt>
      <trkpt lat="51.652517979964614" lon="-9.90841998718679">
        <ele>6.39</ele>
        <time>2026-06-28T09:51:50Z</time>
      </trkpt>
      <trkpt lat="51.652412032708526" lon="-9.908669013530016">
        <ele>6.39</ele>
        <time>2026-06-28T09:51:59Z</time>
      </trkpt>
      <trkpt lat="51.652234001085162" lon="-9.909106967970729">
        <ele>5.91</ele>
        <time>2026-06-28T09:52:09Z</time>
      </trkpt>
      <trkpt lat="51.652198964729905" lon="-9.909168994054198">
        <ele>5.42</ele>
        <time>2026-06-28T09:52:10Z</time>
      </trkpt>
      <trkpt lat="51.652096034958959" lon="-9.909335039556027">
        <ele>4.94</ele>
        <time>2026-06-28T09:52:13Z</time>
      </trkpt>
      <trkpt lat="51.652065021917224" lon="-9.909384995698929">
        <ele>4.94</ele>
        <time>2026-06-28T09:52:14Z</time>
      </trkpt>
      <trkpt lat="51.651712981984019" lon="-9.909953037276864">
        <ele>4.46</ele>
        <time>2026-06-28T09:52:26Z</time>
      </trkpt>
      <trkpt lat="51.651441995054483" lon="-9.910433990880847">
        <ele>4.94</ele>
        <time>2026-06-28T09:52:35Z</time>
      </trkpt>
      <trkpt lat="51.651238985359669" lon="-9.910841016098857">
        <ele>3.02</ele>
        <time>2026-06-28T09:52:44Z</time>
      </trkpt>
      <trkpt lat="51.651214007288218" lon="-9.910890972241759">
        <ele>3.02</ele>
        <time>2026-06-28T09:52:45Z</time>
      </trkpt>
      <trkpt lat="51.651184000074863" lon="-9.910950986668468">
        <ele>3.02</ele>
        <time>2026-06-28T09:52:46Z</time>
      </trkpt>
      <trkpt lat="51.651151981204748" lon="-9.911015024408698">
        <ele>2.54</ele>
        <time>2026-06-28T09:52:47Z</time>
      </trkpt>
      <trkpt lat="51.651055002585053" lon="-9.911207975819707">
        <ele>2.06</ele>
        <time>2026-06-28T09:52:50Z</time>
      </trkpt>
      <trkpt lat="51.650730036199093" lon="-9.912024037912488">
        <ele>1.58</ele>
        <time>2026-06-28T09:53:01Z</time>
      </trkpt>
      <trkpt lat="51.650710003450513" lon="-9.91209402680397">
        <ele>1.58</ele>
        <time>2026-06-28T09:53:02Z</time>
      </trkpt>
      <trkpt lat="51.650494001805782" lon="-9.91282400675118">
        <ele>3.02</ele>
        <time>2026-06-28T09:53:13Z</time>
      </trkpt>
      <trkpt lat="51.650265008211136" lon="-9.913324993103743">
        <ele>3.5</ele>
        <time>2026-06-28T09:53:20Z</time>
      </trkpt>
      <trkpt lat="51.649764021858573" lon="-9.914309028536081">
        <ele>5.42</ele>
        <time>2026-06-28T09:53:33Z</time>
      </trkpt>
      <trkpt lat="51.649482976645231" lon="-9.914932977408171">
        <ele>7.35</ele>
        <time>2026-06-28T09:53:40Z</time>
      </trkpt>
      <trkpt lat="51.649402007460594" lon="-9.915126012638211">
        <ele>8.310000000000001</ele>
        <time>2026-06-28T09:53:42Z</time>
      </trkpt>
      <trkpt lat="51.649367976933718" lon="-9.915203964337707">
        <ele>8.789999999999999</ele>
        <time>2026-06-28T09:53:43Z</time>
      </trkpt>
      <trkpt lat="51.649348028004169" lon="-9.915308989584446">
        <ele>9.75</ele>
        <time>2026-06-28T09:53:44Z</time>
      </trkpt>
      <trkpt lat="51.649327995255589" lon="-9.915410997346044">
        <ele>10.23</ele>
        <time>2026-06-28T09:53:45Z</time>
      </trkpt>
      <trkpt lat="51.649307040497661" lon="-9.915519040077925">
        <ele>10.23</ele>
        <time>2026-06-28T09:53:46Z</time>
      </trkpt>
      <trkpt lat="51.6492860019207" lon="-9.915629010647535">
        <ele>10.710000000000001</ele>
        <time>2026-06-28T09:53:47Z</time>
      </trkpt>
      <trkpt lat="51.649218024685979" lon="-9.915977027267218">
        <ele>10.23</ele>
        <time>2026-06-28T09:53:50Z</time>
      </trkpt>
      <trkpt lat="51.649182988330722" lon="-9.916070988401771">
        <ele>10.23</ele>
        <time>2026-06-28T09:53:51Z</time>
      </trkpt>
      <trkpt lat="51.648972015827894" lon="-9.916766015812755">
        <ele>13.119999999999999</ele>
        <time>2026-06-28T09:53:58Z</time>
      </trkpt>
      <trkpt lat="51.648949971422553" lon="-9.917143033817411">
        <ele>15.039999999999999</ele>
        <time>2026-06-28T09:54:02Z</time>
      </trkpt>
      <trkpt lat="51.648944020271301" lon="-9.917256021872163">
        <ele>15.039999999999999</ele>
        <time>2026-06-28T09:54:03Z</time>
      </trkpt>
      <trkpt lat="51.648946031928062" lon="-9.917355012148619">
        <ele>15.52</ele>
        <time>2026-06-28T09:54:04Z</time>
      </trkpt>
      <trkpt lat="51.649206960573792" lon="-9.918200997635722">
        <ele>17.440000000000001</ele>
        <time>2026-06-28T09:54:12Z</time>
      </trkpt>
      <trkpt lat="51.649261023849249" lon="-9.918315997347236">
        <ele>17.440000000000001</ele>
        <time>2026-06-28T09:54:13Z</time>
      </trkpt>
      <trkpt lat="51.649315003305674" lon="-9.918424040079117">
        <ele>17.440000000000001</ele>
        <time>2026-06-28T09:54:14Z</time>
      </trkpt>
      <trkpt lat="51.649373006075621" lon="-9.91853903979063">
        <ele>16.960000000000001</ele>
        <time>2026-06-28T09:54:15Z</time>
      </trkpt>
      <trkpt lat="51.649464033544064" lon="-9.918587990105152">
        <ele>16.48</ele>
        <time>2026-06-28T09:54:16Z</time>
      </trkpt>
      <trkpt lat="51.649553971365094" lon="-9.918606011196971">
        <ele>16</ele>
        <time>2026-06-28T09:54:17Z</time>
      </trkpt>
      <trkpt lat="51.649652039632201" lon="-9.91862503811717">
        <ele>16</ele>
        <time>2026-06-28T09:54:18Z</time>
      </trkpt>
      <trkpt lat="51.649753041565418" lon="-9.918645992875099">
        <ele>15.52</ele>
        <time>2026-06-28T09:54:19Z</time>
      </trkpt>
      <trkpt lat="51.650484027341008" lon="-9.918524958193302">
        <ele>17.920000000000002</ele>
        <time>2026-06-28T09:54:26Z</time>
      </trkpt>
      <trkpt lat="51.650814022868872" lon="-9.918338041752577">
        <ele>18.879999999999999</ele>
        <time>2026-06-28T09:54:29Z</time>
      </trkpt>
      <trkpt lat="51.650917958468199" lon="-9.918289007619023">
        <ele>18.879999999999999</ele>
        <time>2026-06-28T09:54:30Z</time>
      </trkpt>
      <trkpt lat="51.651035975664854" lon="-9.918266963213682">
        <ele>18.879999999999999</ele>
        <time>2026-06-28T09:54:31Z</time>
      </trkpt>
      <trkpt lat="51.651157010346651" lon="-9.918243996798992">
        <ele>18.879999999999999</ele>
        <time>2026-06-28T09:54:32Z</time>
      </trkpt>
      <trkpt lat="51.651278967037797" lon="-9.918220024555922">
        <ele>18.879999999999999</ele>
        <time>2026-06-28T09:54:33Z</time>
      </trkpt>
      <trkpt lat="51.651396984234452" lon="-9.918234022334218">
        <ele>18.399999999999999</ele>
        <time>2026-06-28T09:54:34Z</time>
      </trkpt>
      <trkpt lat="51.651517013087869" lon="-9.918291019275785">
        <ele>18.879999999999999</ele>
        <time>2026-06-28T09:54:35Z</time>
      </trkpt>
      <trkpt lat="51.651637963950634" lon="-9.918349022045732">
        <ele>18.879999999999999</ele>
        <time>2026-06-28T09:54:36Z</time>
      </trkpt>
      <trkpt lat="51.651866035535932" lon="-9.91843300871551">
        <ele>19.359999999999999</ele>
        <time>2026-06-28T09:54:38Z</time>
      </trkpt>
      <trkpt lat="51.651969971135259" lon="-9.918448012322187">
        <ele>19.84</ele>
        <time>2026-06-28T09:54:39Z</time>
      </trkpt>
      <trkpt lat="51.652687964960933" lon="-9.918363019824028">
        <ele>20.32</ele>
        <time>2026-06-28T09:54:46Z</time>
      </trkpt>
      <trkpt lat="51.65278603322804" lon="-9.918386992067099">
        <ele>20.32</ele>
        <time>2026-06-28T09:54:47Z</time>
      </trkpt>
      <trkpt lat="51.653190962970257" lon="-9.918552031740546">
        <ele>20.32</ele>
        <time>2026-06-28T09:54:51Z</time>
      </trkpt>
      <trkpt lat="51.653301017358899" lon="-9.918594025075436">
        <ele>19.84</ele>
        <time>2026-06-28T09:54:52Z</time>
      </trkpt>
      <trkpt lat="51.653414005413651" lon="-9.918579021468759">
        <ele>19.84</ele>
        <time>2026-06-28T09:54:53Z</time>
      </trkpt>
      <trkpt lat="51.653906023129821" lon="-9.918511966243386">
        <ele>20.809999999999999</ele>
        <time>2026-06-28T09:54:58Z</time>
      </trkpt>
      <trkpt lat="51.653964025899768" lon="-9.918504003435373">
        <ele>21.289999999999999</ele>
        <time>2026-06-28T09:54:59Z</time>
      </trkpt>
      <trkpt lat="51.65401297621429" lon="-9.918496962636709">
        <ele>22.25</ele>
        <time>2026-06-28T09:55:00Z</time>
      </trkpt>
      <trkpt lat="51.654095035046339" lon="-9.918508026748896">
        <ele>22.73</ele>
        <time>2026-06-28T09:55:01Z</time>
      </trkpt>
      <trkpt lat="51.654121018946171" lon="-9.918596036732197">
        <ele>22.73</ele>
        <time>2026-06-28T09:55:02Z</time>
      </trkpt>
      <trkpt lat="51.654148008674383" lon="-9.91868999786675">
        <ele>23.210000000000001</ele>
        <time>2026-06-28T09:55:03Z</time>
      </trkpt>
      <trkpt lat="51.654373984783888" lon="-9.919468006119132">
        <ele>24.649999999999999</ele>
        <time>2026-06-28T09:55:09Z</time>
      </trkpt>
      <trkpt lat="51.6545719653368" lon="-9.920074017718434">
        <ele>26.09</ele>
        <time>2026-06-28T09:55:13Z</time>
      </trkpt>
      <trkpt lat="51.65461203083396" lon="-9.920260012149811">
        <ele>26.09</ele>
        <time>2026-06-28T09:55:14Z</time>
      </trkpt>
      <trkpt lat="51.654887963086367" lon="-9.922260018065572">
        <ele>29.460000000000001</ele>
        <time>2026-06-28T09:55:25Z</time>
      </trkpt>
      <trkpt lat="51.655212007462978" lon="-9.9230080191046">
        <ele>32.340000000000003</ele>
        <time>2026-06-28T09:55:30Z</time>
      </trkpt>
      <trkpt lat="51.655250983312726" lon="-9.923084964975715">
        <ele>32.340000000000003</ele>
        <time>2026-06-28T09:55:31Z</time>
      </trkpt>
      <trkpt lat="51.655208989977837" lon="-9.923242041841149">
        <ele>32.82</ele>
        <time>2026-06-28T09:55:32Z</time>
      </trkpt>
      <trkpt lat="51.655164984986186" lon="-9.923330973833799">
        <ele>33.299999999999997</ele>
        <time>2026-06-28T09:55:33Z</time>
      </trkpt>
      <trkpt lat="51.655098013579845" lon="-9.923396017402411">
        <ele>33.780000000000001</ele>
        <time>2026-06-28T09:55:34Z</time>
      </trkpt>
      <trkpt lat="51.655018972232938" lon="-9.923470029607415">
        <ele>34.259999999999998</ele>
        <time>2026-06-28T09:55:35Z</time>
      </trkpt>
      <trkpt lat="51.65493599139154" lon="-9.923547981306911">
        <ele>34.740000000000002</ele>
        <time>2026-06-28T09:55:36Z</time>
      </trkpt>
      <trkpt lat="51.654847981408238" lon="-9.92363004013896">
        <ele>35.710000000000001</ele>
        <time>2026-06-28T09:55:37Z</time>
      </trkpt>
      <trkpt lat="51.654759971424937" lon="-9.923712015151978">
        <ele>36.189999999999998</ele>
        <time>2026-06-28T09:55:38Z</time>
      </trkpt>
      <trkpt lat="51.654676990583539" lon="-9.923788961023092">
        <ele>37.149999999999999</ele>
        <time>2026-06-28T09:55:39Z</time>
      </trkpt>
      <trkpt lat="51.654598033055663" lon="-9.923862973228097">
        <ele>37.149999999999999</ele>
        <time>2026-06-28T09:55:40Z</time>
      </trkpt>
      <trkpt lat="51.654502982273698" lon="-9.923994988203049">
        <ele>37.630000000000003</ele>
        <time>2026-06-28T09:55:41Z</time>
      </trkpt>
      <trkpt lat="51.65446300059557" lon="-9.924137983471155">
        <ele>38.109999999999999</ele>
        <time>2026-06-28T09:55:42Z</time>
      </trkpt>
      <trkpt lat="51.654389994218946" lon="-9.924409976229072">
        <ele>39.07</ele>
        <time>2026-06-28T09:55:44Z</time>
      </trkpt>
      <trkpt lat="51.654361998662353" lon="-9.924608040601015">
        <ele>39.549999999999997</ele>
        <time>2026-06-28T09:55:45Z</time>
      </trkpt>
      <trkpt lat="51.654340960085392" lon="-9.924767967313528">
        <ele>40.030000000000001</ele>
        <time>2026-06-28T09:55:46Z</time>
      </trkpt>
      <trkpt lat="51.654276000335813" lon="-9.925035014748573">
        <ele>41.469999999999999</ele>
        <time>2026-06-28T09:55:48Z</time>
      </trkpt>
      <trkpt lat="51.654235012829304" lon="-9.925164012238383">
        <ele>42.439999999999998</ele>
        <time>2026-06-28T09:55:49Z</time>
      </trkpt>
      <trkpt lat="51.654192013666034" lon="-9.925297033041716">
        <ele>43.399999999999999</ele>
        <time>2026-06-28T09:55:50Z</time>
      </trkpt>
      <trkpt lat="51.653592959046364" lon="-9.926423979923129">
        <ele>50.130000000000003</ele>
        <time>2026-06-28T09:55:58Z</time>
      </trkpt>
      <trkpt lat="51.653400007635355" lon="-9.926774008199573">
        <ele>52.049999999999997</ele>
        <time>2026-06-28T09:56:01Z</time>
      </trkpt>
      <trkpt lat="51.653361031785607" lon="-9.92691800929606">
        <ele>52.530000000000001</ele>
        <time>2026-06-28T09:56:02Z</time>
      </trkpt>
      <trkpt lat="51.653363965451717" lon="-9.927061004564166">
        <ele>53.009999999999998</ele>
        <time>2026-06-28T09:56:03Z</time>
      </trkpt>
      <trkpt lat="51.65334896184504" lon="-9.928548038005829">
        <ele>58.299999999999997</ele>
        <time>2026-06-28T09:56:13Z</time>
      </trkpt>
      <trkpt lat="51.653330018743873" lon="-9.92896000854671">
        <ele>60.700000000000003</ele>
        <time>2026-06-28T09:56:19Z</time>
      </trkpt>
      <trkpt lat="51.653330018743873" lon="-9.92896000854671">
        <ele>60.700000000000003</ele>
        <time>2026-06-28T09:56:38Z</time>
      </trkpt>
      <trkpt lat="51.653310991823673" lon="-9.929363010451198">
        <ele>62.140000000000001</ele>
        <time>2026-06-28T09:56:45Z</time>
      </trkpt>
      <trkpt lat="51.653294982388616" lon="-9.930988010019064">
        <ele>66.469999999999999</ele>
        <time>2026-06-28T09:56:54Z</time>
      </trkpt>
      <trkpt lat="51.653294982388616" lon="-9.932027030736208">
        <ele>70.790000000000006</ele>
        <time>2026-06-28T09:56:59Z</time>
      </trkpt>
      <trkpt lat="51.653323983773589" lon="-9.932168014347553">
        <ele>72.239999999999995</ele>
        <time>2026-06-28T09:57:00Z</time>
      </trkpt>
      <trkpt lat="51.653360025957227" lon="-9.932345962151885">
        <ele>73.200000000000003</ele>
        <time>2026-06-28T09:57:01Z</time>
      </trkpt>
      <trkpt lat="51.653458010405302" lon="-9.932825993746519">
        <ele>76.560000000000002</ele>
        <time>2026-06-28T09:57:04Z</time>
      </trkpt>
      <trkpt lat="51.653483994305134" lon="-9.932950967922807">
        <ele>78</ele>
        <time>2026-06-28T09:57:05Z</time>
      </trkpt>
      <trkpt lat="51.653500003740191" lon="-9.933102009817958">
        <ele>79.450000000000003</ele>
        <time>2026-06-28T09:57:06Z</time>
      </trkpt>
      <trkpt lat="51.65345398709178" lon="-9.933212986215949">
        <ele>80.409999999999997</ele>
        <time>2026-06-28T09:57:07Z</time>
      </trkpt>
      <trkpt lat="51.653403025120497" lon="-9.933337960392237">
        <ele>81.370000000000005</ele>
        <time>2026-06-28T09:57:08Z</time>
      </trkpt>
      <trkpt lat="51.65334896184504" lon="-9.933467041701078">
        <ele>82.329999999999998</ele>
        <time>2026-06-28T09:57:09Z</time>
      </trkpt>
      <trkpt lat="51.653292970731854" lon="-9.933602996170521">
        <ele>82.810000000000002</ele>
        <time>2026-06-28T09:57:10Z</time>
      </trkpt>
      <trkpt lat="51.653237985447049" lon="-9.933738028630614">
        <ele>83.290000000000006</ele>
        <time>2026-06-28T09:57:11Z</time>
      </trkpt>
      <trkpt lat="51.653184005990624" lon="-9.933869037777185">
        <ele>84.25</ele>
        <time>2026-06-28T09:57:12Z</time>
      </trkpt>
      <trkpt lat="51.653075963258743" lon="-9.934129966422916">
        <ele>85.689999999999998</ele>
        <time>2026-06-28T09:57:14Z</time>
      </trkpt>
      <trkpt lat="51.653020977973938" lon="-9.934260975569487">
        <ele>86.659999999999997</ele>
        <time>2026-06-28T09:57:15Z</time>
      </trkpt>
      <trkpt lat="51.652549998834729" lon="-9.935843981802464">
        <ele>93.870000000000005</ele>
        <time>2026-06-28T09:57:26Z</time>
      </trkpt>
      <trkpt lat="51.652261996641755" lon="-9.937182990834117">
        <ele>98.670000000000002</ele>
        <time>2026-06-28T09:57:34Z</time>
      </trkpt>
      <trkpt lat="51.652256967499852" lon="-9.937337972223759">
        <ele>98.670000000000002</ele>
        <time>2026-06-28T09:57:35Z</time>
      </trkpt>
      <trkpt lat="51.652225032448769" lon="-9.937824038788676">
        <ele>99.150000000000006</ele>
        <time>2026-06-28T09:57:38Z</time>
      </trkpt>
      <trkpt lat="51.652192007750273" lon="-9.937944989651442">
        <ele>99.150000000000006</ele>
        <time>2026-06-28T09:57:39Z</time>
      </trkpt>
      <trkpt lat="51.652150014415383" lon="-9.937998969107866">
        <ele>99.150000000000006</ele>
        <time>2026-06-28T09:57:40Z</time>
      </trkpt>
      <trkpt lat="51.652087988331914" lon="-9.938011961057782">
        <ele>99.150000000000006</ele>
        <time>2026-06-28T09:57:41Z</time>
      </trkpt>
      <trkpt lat="51.652017999440432" lon="-9.93802797049284">
        <ele>99.150000000000006</ele>
        <time>2026-06-28T09:57:42Z</time>
      </trkpt>
      <trkpt lat="51.651936024427414" lon="-9.938045991584659">
        <ele>99.150000000000006</ele>
        <time>2026-06-28T09:57:43Z</time>
      </trkpt>
      <trkpt lat="51.651852037757635" lon="-9.938065018504858">
        <ele>99.629999999999995</ele>
        <time>2026-06-28T09:57:44Z</time>
      </trkpt>
      <trkpt lat="51.651768973097205" lon="-9.938100976869464">
        <ele>99.629999999999995</ele>
        <time>2026-06-28T09:57:45Z</time>
      </trkpt>
      <trkpt lat="51.651697978377342" lon="-9.938169037923217">
        <ele>100.11</ele>
        <time>2026-06-28T09:57:46Z</time>
      </trkpt>
      <trkpt lat="51.650707991793752" lon="-9.939098004251719">
        <ele>103</ele>
        <time>2026-06-28T09:57:59Z</time>
      </trkpt>
      <trkpt lat="51.65040398016572" lon="-9.939371002838016">
        <ele>104.44</ele>
        <time>2026-06-28T09:58:03Z</time>
      </trkpt>
      <trkpt lat="51.650339020416141" lon="-9.939430011436343">
        <ele>104.44</ele>
        <time>2026-06-28T09:58:04Z</time>
      </trkpt>
      <trkpt lat="51.650275988504291" lon="-9.93953101336956">
        <ele>104.44</ele>
        <time>2026-06-28T09:58:05Z</time>
      </trkpt>
      <trkpt lat="51.650243969634175" lon="-9.939652970060706">
        <ele>104.92</ele>
        <time>2026-06-28T09:58:06Z</time>
      </trkpt>
      <trkpt lat="51.650211028754711" lon="-9.939779033884406">
        <ele>105.40000000000001</ele>
        <time>2026-06-28T09:58:07Z</time>
      </trkpt>
      <trkpt lat="51.650176998227835" lon="-9.939910965040326">
        <ele>105.40000000000001</ele>
        <time>2026-06-28T09:58:08Z</time>
      </trkpt>
      <trkpt lat="51.6497159935534" lon="-9.941682983189821">
        <ele>110.69</ele>
        <time>2026-06-28T09:58:21Z</time>
      </trkpt>
      <trkpt lat="51.649462021887302" lon="-9.942656038329005">
        <ele>110.20999999999999</ele>
        <time>2026-06-28T09:58:31Z</time>
      </trkpt>
      <trkpt lat="51.649335036054254" lon="-9.943145960569382">
        <ele>110.20999999999999</ele>
        <time>2026-06-28T09:58:38Z</time>
      </trkpt>
      <trkpt lat="51.648947037756443" lon="-9.944635005667806">
        <ele>110.20999999999999</ele>
        <time>2026-06-28T09:58:49Z</time>
      </trkpt>
      <trkpt lat="51.64836198091507" lon="-9.947117976844311">
        <ele>107.31999999999999</ele>
        <time>2026-06-28T09:59:05Z</time>
      </trkpt>
      <trkpt lat="51.647843979299068" lon="-9.949488965794444">
        <ele>103.95999999999999</ele>
        <time>2026-06-28T09:59:19Z</time>
      </trkpt>
      <trkpt lat="51.647810032591224" lon="-9.949645036831498">
        <ele>103.95999999999999</ele>
        <time>2026-06-28T09:59:20Z</time>
      </trkpt>
      <trkpt lat="51.647778013721108" lon="-9.949792977422476">
        <ele>103.48</ele>
        <time>2026-06-28T09:59:21Z</time>
      </trkpt>
      <trkpt lat="51.647767033427954" lon="-9.949947958812118">
        <ele>103</ele>
        <time>2026-06-28T09:59:22Z</time>
      </trkpt>
      <trkpt lat="51.64778396487236" lon="-9.950083997100592">
        <ele>103</ele>
        <time>2026-06-28T09:59:23Z</time>
      </trkpt>
      <trkpt lat="51.647798968479037" lon="-9.950215006247163">
        <ele>103</ele>
        <time>2026-06-28T09:59:24Z</time>
      </trkpt>
      <trkpt lat="51.647813972085714" lon="-9.950339980423451">
        <ele>103</ele>
        <time>2026-06-28T09:59:25Z</time>
      </trkpt>
      <trkpt lat="51.647863006219268" lon="-9.950475012883544">
        <ele>102.52</ele>
        <time>2026-06-28T09:59:26Z</time>
      </trkpt>
      <trkpt lat="51.647926038131118" lon="-9.950568974018097">
        <ele>102.52</ele>
        <time>2026-06-28T09:59:27Z</time>
      </trkpt>
      <trkpt lat="51.647988986223936" lon="-9.950663018971682">
        <ele>102.52</ele>
        <time>2026-06-28T09:59:28Z</time>
      </trkpt>
      <trkpt lat="51.648837989196181" lon="-9.951881999149919">
        <ele>99.150000000000006</ele>
        <time>2026-06-28T09:59:40Z</time>
      </trkpt>
      <trkpt lat="51.648923987522721" lon="-9.9519900418818">
        <ele>98.670000000000002</ele>
        <time>2026-06-28T09:59:41Z</time>
      </trkpt>
      <trkpt lat="51.649004034698009" lon="-9.952090037986636">
        <ele>98.670000000000002</ele>
        <time>2026-06-28T09:59:42Z</time>
      </trkpt>
      <trkpt lat="51.649307040497661" lon="-9.95216203853488">
        <ele>97.709999999999994</ele>
        <time>2026-06-28T09:59:45Z</time>
      </trkpt>
      <trkpt lat="51.649453975260258" lon="-9.952196991071105">
        <ele>96.75</ele>
        <time>2026-06-28T09:59:47Z</time>
      </trkpt>
      <trkpt lat="51.649556988850236" lon="-9.952328000217676">
        <ele>96.75</ele>
        <time>2026-06-28T09:59:48Z</time>
      </trkpt>
      <trkpt lat="51.649627983570099" lon="-9.952418021857739">
        <ele>96.75</ele>
        <time>2026-06-28T09:59:49Z</time>
      </trkpt>
      <trkpt lat="51.650313036516309" lon="-9.953628033399582">
        <ele>95.790000000000006</ele>
        <time>2026-06-28T09:59:58Z</time>
      </trkpt>
      <trkpt lat="51.650815028697252" lon="-9.9542919639498">
        <ele>94.829999999999998</ele>
        <time>2026-06-28T10:00:04Z</time>
      </trkpt>
      <trkpt lat="51.650872025638819" lon="-9.954445017501712">
        <ele>93.870000000000005</ele>
        <time>2026-06-28T10:00:05Z</time>
      </trkpt>
      <trkpt lat="51.650926005095243" lon="-9.954592036083341">
        <ele>92.900000000000006</ele>
        <time>2026-06-28T10:00:06Z</time>
      </trkpt>
      <trkpt lat="51.650976967066526" lon="-9.954731008037925">
        <ele>92.420000000000002</ele>
        <time>2026-06-28T10:00:07Z</time>
      </trkpt>
      <trkpt lat="51.651028012856841" lon="-9.954868974164128">
        <ele>92.420000000000002</ele>
        <time>2026-06-28T10:00:08Z</time>
      </trkpt>
      <trkpt lat="51.651077968999743" lon="-9.955007024109364">
        <ele>91.939999999999998</ele>
        <time>2026-06-28T10:00:09Z</time>
      </trkpt>
      <trkpt lat="51.651129014790058" lon="-9.955144990235567">
        <ele>91.939999999999998</ele>
        <time>2026-06-28T10:00:10Z</time>
      </trkpt>
      <trkpt lat="51.651180982589722" lon="-9.955284968018532">
        <ele>91.939999999999998</ele>
        <time>2026-06-28T10:00:11Z</time>
      </trkpt>
      <trkpt lat="51.651591025292873" lon="-9.956559017300606">
        <ele>93.870000000000005</ele>
        <time>2026-06-28T10:00:20Z</time>
      </trkpt>
      <trkpt lat="51.651583984494209" lon="-9.956665970385075">
        <ele>94.349999999999994</ele>
        <time>2026-06-28T10:00:21Z</time>
      </trkpt>
      <trkpt lat="51.651577027514577" lon="-9.956778958439827">
        <ele>94.829999999999998</ele>
        <time>2026-06-28T10:00:22Z</time>
      </trkpt>
      <trkpt lat="51.651550037786365" lon="-9.957187995314598">
        <ele>95.790000000000006</ele>
        <time>2026-06-28T10:00:25Z</time>
      </trkpt>
      <trkpt lat="51.651539979502559" lon="-9.957337025552988">
        <ele>95.790000000000006</ele>
        <time>2026-06-28T10:00:26Z</time>
      </trkpt>
      <trkpt lat="51.651509972289205" lon="-9.95749301277101">
        <ele>95.790000000000006</ele>
        <time>2026-06-28T10:00:27Z</time>
      </trkpt>
      <trkpt lat="51.651468984782696" lon="-9.957626033574343">
        <ele>95.790000000000006</ele>
        <time>2026-06-28T10:00:28Z</time>
      </trkpt>
      <trkpt lat="51.651424979791045" lon="-9.957769028842449">
        <ele>95.790000000000006</ele>
        <time>2026-06-28T10:00:29Z</time>
      </trkpt>
      <trkpt lat="51.650992976501584" lon="-9.959433004260063">
        <ele>103</ele>
        <time>2026-06-28T10:00:39Z</time>
      </trkpt>
      <trkpt lat="51.650759959593415" lon="-9.960484011098743">
        <ele>106.36</ele>
        <time>2026-06-28T10:00:46Z</time>
      </trkpt>
      <trkpt lat="51.650742022320628" lon="-9.96056598611176">
        <ele>106.36</ele>
        <time>2026-06-28T10:00:47Z</time>
      </trkpt>
      <trkpt lat="51.650668010115623" lon="-9.960646033287048">
        <ele>105.88</ele>
        <time>2026-06-28T10:00:48Z</time>
      </trkpt>
      <trkpt lat="51.650597015395761" lon="-9.960723984986544">
        <ele>106.36</ele>
        <time>2026-06-28T10:00:49Z</time>
      </trkpt>
      <trkpt lat="51.650513028725982" lon="-9.960814006626606">
        <ele>105.88</ele>
        <time>2026-06-28T10:00:50Z</time>
      </trkpt>
      <trkpt lat="51.650235000997782" lon="-9.961117012426257">
        <ele>104.44</ele>
        <time>2026-06-28T10:00:53Z</time>
      </trkpt>
      <trkpt lat="51.650155037641525" lon="-9.961204016581178">
        <ele>103.95999999999999</ele>
        <time>2026-06-28T10:00:54Z</time>
      </trkpt>
      <trkpt lat="51.650072978809476" lon="-9.96129403822124">
        <ele>103.48</ele>
        <time>2026-06-28T10:00:55Z</time>
      </trkpt>
      <trkpt lat="51.649986980482936" lon="-9.961461005732417">
        <ele>103.48</ele>
        <time>2026-06-28T10:00:56Z</time>
      </trkpt>
      <trkpt lat="51.649942975491285" lon="-9.961634008213878">
        <ele>103.48</ele>
        <time>2026-06-28T10:00:57Z</time>
      </trkpt>
      <trkpt lat="51.649898970499635" lon="-9.961811034008861">
        <ele>103</ele>
        <time>2026-06-28T10:00:58Z</time>
      </trkpt>
      <trkpt lat="51.649856977164745" lon="-9.961978001520038">
        <ele>103</ele>
        <time>2026-06-28T10:00:59Z</time>
      </trkpt>
      <trkpt lat="51.649747006595135" lon="-9.962431965395808">
        <ele>102.04000000000001</ele>
        <time>2026-06-28T10:01:02Z</time>
      </trkpt>
      <trkpt lat="51.649719011038542" lon="-9.962593987584114">
        <ele>102.04000000000001</ele>
        <time>2026-06-28T10:01:03Z</time>
      </trkpt>
      <trkpt lat="51.649626977741718" lon="-9.96312003582716">
        <ele>100.59999999999999</ele>
        <time>2026-06-28T10:01:06Z</time>
      </trkpt>
      <trkpt lat="51.649316009134054" lon="-9.964902028441429">
        <ele>94.349999999999994</ele>
        <time>2026-06-28T10:01:16Z</time>
      </trkpt>
      <trkpt lat="51.648987019434571" lon="-9.966778988018632">
        <ele>93.870000000000005</ele>
        <time>2026-06-28T10:01:27Z</time>
      </trkpt>
      <trkpt lat="51.648760037496686" lon="-9.967972990125418">
        <ele>90.5</ele>
        <time>2026-06-28T10:01:35Z</time>
      </trkpt>
      <trkpt lat="51.648709997534752" lon="-9.968053959310055">
        <ele>90.019999999999996</ele>
        <time>2026-06-28T10:01:36Z</time>
      </trkpt>
      <trkpt lat="51.648653000593185" lon="-9.96808597818017">
        <ele>90.019999999999996</ele>
        <time>2026-06-28T10:01:37Z</time>
      </trkpt>
      <trkpt lat="51.648455020040274" lon="-9.968302985653281">
        <ele>89.540000000000006</ele>
        <time>2026-06-28T10:01:40Z</time>
      </trkpt>
      <trkpt lat="51.648386958986521" lon="-9.968392001464963">
        <ele>89.540000000000006</ele>
        <time>2026-06-28T10:01:41Z</time>
      </trkpt>
      <trkpt lat="51.648312024772167" lon="-9.968673968687654">
        <ele>89.060000000000002</ele>
        <time>2026-06-28T10:01:43Z</time>
      </trkpt>
      <trkpt lat="51.648309007287025" lon="-9.968809001147747">
        <ele>89.540000000000006</ele>
        <time>2026-06-28T10:01:44Z</time>
      </trkpt>
      <trkpt lat="51.648305989801884" lon="-9.968942021951079">
        <ele>90.019999999999996</ele>
        <time>2026-06-28T10:01:45Z</time>
      </trkpt>
      <trkpt lat="51.648302972316742" lon="-9.969076970592141">
        <ele>90.5</ele>
        <time>2026-06-28T10:01:46Z</time>
      </trkpt>
      <trkpt lat="51.648299032822251" lon="-9.969224995002151">
        <ele>90.980000000000004</ele>
        <time>2026-06-28T10:01:47Z</time>
      </trkpt>
      <trkpt lat="51.64840498007834" lon="-9.970010966062546">
        <ele>91.459999999999994</ele>
        <time>2026-06-28T10:01:52Z</time>
      </trkpt>
      <trkpt lat="51.648487960919738" lon="-9.970497032627463">
        <ele>90.5</ele>
        <time>2026-06-28T10:01:56Z</time>
      </trkpt>
      <trkpt lat="51.648502964526415" lon="-9.970588982105255">
        <ele>90.5</ele>
        <time>2026-06-28T10:01:57Z</time>
      </trkpt>
      <trkpt lat="51.648499025031924" lon="-9.970681015402079">
        <ele>90.5</ele>
        <time>2026-06-28T10:01:58Z</time>
      </trkpt>
      <trkpt lat="51.648481003940105" lon="-9.970759972929955">
        <ele>90.980000000000004</ele>
        <time>2026-06-28T10:01:59Z</time>
      </trkpt>
      <trkpt lat="51.64844797924161" lon="-9.970839014276862">
        <ele>90.5</ele>
        <time>2026-06-28T10:02:00Z</time>
      </trkpt>
      <trkpt lat="51.648401962593198" lon="-9.970876984298229">
        <ele>90.5</ele>
        <time>2026-06-28T10:02:01Z</time>
      </trkpt>
      <trkpt lat="51.648338008671999" lon="-9.970930041745305">
        <ele>90.5</ele>
        <time>2026-06-28T10:02:02Z</time>
      </trkpt>
      <trkpt lat="51.648280005902052" lon="-9.970938004553318">
        <ele>90.5</ele>
        <time>2026-06-28T10:02:03Z</time>
      </trkpt>
      <trkpt lat="51.648205993697047" lon="-9.970948984846473">
        <ele>90.5</ele>
        <time>2026-06-28T10:02:04Z</time>
      </trkpt>
      <trkpt lat="51.648133993148804" lon="-9.970958959311247">
        <ele>90.980000000000004</ele>
        <time>2026-06-28T10:02:05Z</time>
      </trkpt>
      <trkpt lat="51.648066015914083" lon="-9.970969017595053">
        <ele>91.459999999999994</ele>
        <time>2026-06-28T10:02:06Z</time>
      </trkpt>
      <trkpt lat="51.648000972345471" lon="-9.971053004264832">
        <ele>91.939999999999998</ele>
        <time>2026-06-28T10:02:07Z</time>
      </trkpt>
      <trkpt lat="51.647955039516091" lon="-9.971150988712907">
        <ele>92.420000000000002</ele>
        <time>2026-06-28T10:02:08Z</time>
      </trkpt>
      <trkpt lat="51.647907011210918" lon="-9.971254002302885">
        <ele>93.390000000000001</ele>
        <time>2026-06-28T10:02:09Z</time>
      </trkpt>
      <trkpt lat="51.647231010720134" lon="-9.972707005217671">
        <ele>96.269999999999996</ele>
        <time>2026-06-28T10:02:21Z</time>
      </trkpt>
      <trkpt lat="51.647134032100439" lon="-9.972914960235357">
        <ele>96.269999999999996</ele>
        <time>2026-06-28T10:02:23Z</time>
      </trkpt>
      <trkpt lat="51.64703001268208" lon="-9.973140014335513">
        <ele>96.269999999999996</ele>
        <time>2026-06-28T10:02:25Z</time>
      </trkpt>
      <trkpt lat="51.647024983540177" lon="-9.973204974085093">
        <ele>96.75</ele>
        <time>2026-06-28T10:02:26Z</time>
      </trkpt>
      <trkpt lat="51.647016014903784" lon="-9.973323997110128">
        <ele>96.75</ele>
        <time>2026-06-28T10:02:27Z</time>
      </trkpt>
      <trkpt lat="51.646998999640346" lon="-9.97356497682631">
        <ele>97.230000000000004</ele>
        <time>2026-06-28T10:02:29Z</time>
      </trkpt>
      <trkpt lat="51.646991958841681" lon="-9.973666984587908">
        <ele>97.230000000000004</ele>
        <time>2026-06-28T10:02:30Z</time>
      </trkpt>
      <trkpt lat="51.64698600769043" lon="-9.973742002621293">
        <ele>97.230000000000004</ele>
        <time>2026-06-28T10:02:31Z</time>
      </trkpt>
      <trkpt lat="51.646957006305456" lon="-9.973809979856014">
        <ele>97.230000000000004</ele>
        <time>2026-06-28T10:02:32Z</time>
      </trkpt>
      <trkpt lat="51.646893974393606" lon="-9.973896984010935">
        <ele>97.230000000000004</ele>
        <time>2026-06-28T10:02:33Z</time>
      </trkpt>
      <trkpt lat="51.646813005208969" lon="-9.973913999274373">
        <ele>96.75</ele>
        <time>2026-06-28T10:02:34Z</time>
      </trkpt>
      <trkpt lat="51.646717032417655" lon="-9.973934032022953">
        <ele>96.75</ele>
        <time>2026-06-28T10:02:35Z</time>
      </trkpt>
      <trkpt lat="51.646618964150548" lon="-9.973954986780882">
        <ele>96.269999999999996</ele>
        <time>2026-06-28T10:02:36Z</time>
      </trkpt>
      <trkpt lat="51.646531959995627" lon="-9.973973007872701">
        <ele>96.269999999999996</ele>
        <time>2026-06-28T10:02:37Z</time>
      </trkpt>
      <trkpt lat="51.646465994417667" lon="-9.97403402812779">
        <ele>96.269999999999996</ele>
        <time>2026-06-28T10:02:38Z</time>
      </trkpt>
      <trkpt lat="51.646402962505817" lon="-9.974108040332794">
        <ele>96.269999999999996</ele>
        <time>2026-06-28T10:02:39Z</time>
      </trkpt>
      <trkpt lat="51.646330961957574" lon="-9.974192027002573">
        <ele>96.269999999999996</ele>
        <time>2026-06-28T10:02:40Z</time>
      </trkpt>
      <trkpt lat="51.646254016086459" lon="-9.974282970651984">
        <ele>95.790000000000006</ele>
        <time>2026-06-28T10:02:41Z</time>
      </trkpt>
      <trkpt lat="51.646174974739552" lon="-9.974376009777188">
        <ele>96.269999999999996</ele>
        <time>2026-06-28T10:02:42Z</time>
      </trkpt>
      <trkpt lat="51.645919997245073" lon="-9.974595028907061">
        <ele>97.709999999999994</ele>
        <time>2026-06-28T10:02:45Z</time>
      </trkpt>
      <trkpt lat="51.645838022232056" lon="-9.974627969786525">
        <ele>97.709999999999994</ele>
        <time>2026-06-28T10:02:46Z</time>
      </trkpt>
      <trkpt lat="51.645754035562277" lon="-9.97465998865664">
        <ele>98.189999999999998</ele>
        <time>2026-06-28T10:02:47Z</time>
      </trkpt>
      <trkpt lat="51.645674994215369" lon="-9.974692007526755">
        <ele>98.670000000000002</ele>
        <time>2026-06-28T10:02:48Z</time>
      </trkpt>
      <trkpt lat="51.64561003446579" lon="-9.974716985598207">
        <ele>99.150000000000006</ele>
        <time>2026-06-28T10:02:49Z</time>
      </trkpt>
      <trkpt lat="51.645550020039082" lon="-9.974741041660309">
        <ele>99.629999999999995</ele>
        <time>2026-06-28T10:02:50Z</time>
      </trkpt>
      <trkpt lat="51.64552696980536" lon="-9.974749004468322">
        <ele>100.59999999999999</ele>
        <time>2026-06-28T10:02:51Z</time>
      </trkpt>
      <trkpt lat="51.64552696980536" lon="-9.974749004468322">
        <ele>101.08</ele>
        <time>2026-06-28T10:02:52Z</time>
      </trkpt>
      <trkpt lat="51.645468967035413" lon="-9.974799966439605">
        <ele>101.56</ele>
        <time>2026-06-28T10:02:53Z</time>
      </trkpt>
      <trkpt lat="51.645424040034413" lon="-9.974838020280004">
        <ele>101.56</ele>
        <time>2026-06-28T10:02:54Z</time>
      </trkpt>
      <trkpt lat="51.645377017557621" lon="-9.974878001958132">
        <ele>102.04000000000001</ele>
        <time>2026-06-28T10:02:55Z</time>
      </trkpt>
      <trkpt lat="51.645338963717222" lon="-9.974975986406207">
        <ele>102.52</ele>
        <time>2026-06-28T10:02:56Z</time>
      </trkpt>
      <trkpt lat="51.64528900757432" lon="-9.975108001381159">
        <ele>102.52</ele>
        <time>2026-06-28T10:02:57Z</time>
      </trkpt>
      <trkpt lat="51.64522597566247" lon="-9.975271029397845">
        <ele>103</ele>
        <time>2026-06-28T10:02:58Z</time>
      </trkpt>
      <trkpt lat="51.64516001008451" lon="-9.975441014394164">
        <ele>103</ele>
        <time>2026-06-28T10:02:59Z</time>
      </trkpt>
      <trkpt lat="51.645104018971324" lon="-9.975586021319032">
        <ele>103</ele>
        <time>2026-06-28T10:03:00Z</time>
      </trkpt>
      <trkpt lat="51.645045010372996" lon="-9.975739996880293">
        <ele>103</ele>
        <time>2026-06-28T10:03:01Z</time>
      </trkpt>
      <trkpt lat="51.644938979297876" lon="-9.976016012951732">
        <ele>103</ele>
        <time>2026-06-28T10:03:03Z</time>
      </trkpt>
      <trkpt lat="51.64477402344346" lon="-9.976441981270909">
        <ele>103</ele>
        <time>2026-06-28T10:03:06Z</time>
      </trkpt>
      <trkpt lat="51.644686013460159" lon="-9.976659994572401">
        <ele>103</ele>
        <time>2026-06-28T10:03:07Z</time>
      </trkpt>
      <trkpt lat="51.644613007083535" lon="-9.976671980693936">
        <ele>103</ele>
        <time>2026-06-28T10:03:08Z</time>
      </trkpt>
      <trkpt lat="51.644534971565008" lon="-9.976684972643852">
        <ele>103.48</ele>
        <time>2026-06-28T10:03:09Z</time>
      </trkpt>
      <trkpt lat="51.644458025693893" lon="-9.976697964593768">
        <ele>103.48</ele>
        <time>2026-06-28T10:03:10Z</time>
      </trkpt>
      <trkpt lat="51.644380996003747" lon="-9.976710034534335">
        <ele>103.95999999999999</ele>
        <time>2026-06-28T10:03:11Z</time>
      </trkpt>
      <trkpt lat="51.644276976585388" lon="-9.976773988455534">
        <ele>104.44</ele>
        <time>2026-06-28T10:03:12Z</time>
      </trkpt>
      <trkpt lat="51.644213022664189" lon="-9.97689301148057">
        <ele>104.44</ele>
        <time>2026-06-28T10:03:13Z</time>
      </trkpt>
      <trkpt lat="51.644154014065862" lon="-9.9770019762218">
        <ele>104.44</ele>
        <time>2026-06-28T10:03:14Z</time>
      </trkpt>
      <trkpt lat="51.644095005467534" lon="-9.977038018405438">
        <ele>104.92</ele>
        <time>2026-06-28T10:03:15Z</time>
      </trkpt>
      <trkpt lat="51.644015964120626" lon="-9.977085962891579">
        <ele>105.40000000000001</ele>
        <time>2026-06-28T10:03:16Z</time>
      </trkpt>
      <trkpt lat="51.643937006592751" lon="-9.977134997025132">
        <ele>105.88</ele>
        <time>2026-06-28T10:03:17Z</time>
      </trkpt>
      <trkpt lat="51.643723016604781" lon="-9.977265000343323">
        <ele>106.36</ele>
        <time>2026-06-28T10:03:20Z</time>
      </trkpt>
      <trkpt lat="51.643631989136338" lon="-9.977422999218106">
        <ele>106.84</ele>
        <time>2026-06-28T10:03:21Z</time>
      </trkpt>
      <trkpt lat="51.643602987751365" lon="-9.977540010586381">
        <ele>107.31999999999999</ele>
        <time>2026-06-28T10:03:22Z</time>
      </trkpt>
      <trkpt lat="51.643572980538011" lon="-9.977663978934288">
        <ele>107.81</ele>
        <time>2026-06-28T10:03:23Z</time>
      </trkpt>
      <trkpt lat="51.643540961667895" lon="-9.97779699973762">
        <ele>108.77</ele>
        <time>2026-06-28T10:03:24Z</time>
      </trkpt>
      <trkpt lat="51.643443983048201" lon="-9.978195978328586">
        <ele>110.69</ele>
        <time>2026-06-28T10:03:27Z</time>
      </trkpt>
      <trkpt lat="51.643310040235519" lon="-9.978747004643083">
        <ele>110.20999999999999</ele>
        <time>2026-06-28T10:03:32Z</time>
      </trkpt>
      <trkpt lat="51.643295958638191" lon="-9.97880500741303">
        <ele>109.73</ele>
        <time>2026-06-28T10:03:33Z</time>
      </trkpt>
      <trkpt lat="51.643241979181767" lon="-9.978826967999339">
        <ele>109.25</ele>
        <time>2026-06-28T10:03:34Z</time>
      </trkpt>
      <trkpt lat="51.643039975315332" lon="-9.978911960497499">
        <ele>109.25</ele>
        <time>2026-06-28T10:03:37Z</time>
      </trkpt>
      <trkpt lat="51.642976021394134" lon="-9.978939034044743">
        <ele>109.25</ele>
        <time>2026-06-28T10:03:38Z</time>
      </trkpt>
      <trkpt lat="51.642913995310664" lon="-9.978965017944574">
        <ele>109.25</ele>
        <time>2026-06-28T10:03:39Z</time>
      </trkpt>
      <trkpt lat="51.642858004197478" lon="-9.978979015722871">
        <ele>109.73</ele>
        <time>2026-06-28T10:03:40Z</time>
      </trkpt>
      <trkpt lat="51.642796983942389" lon="-9.978983961045742">
        <ele>110.20999999999999</ele>
        <time>2026-06-28T10:03:41Z</time>
      </trkpt>
      <trkpt lat="51.642739987000823" lon="-9.978988990187645">
        <ele>110.20999999999999</ele>
        <time>2026-06-28T10:03:42Z</time>
      </trkpt>
      <trkpt lat="51.642686007544398" lon="-9.978993013501167">
        <ele>110.69</ele>
        <time>2026-06-28T10:03:43Z</time>
      </trkpt>
      <trkpt lat="51.642607972025871" lon="-9.979060990735889">
        <ele>111.65000000000001</ele>
        <time>2026-06-28T10:03:44Z</time>
      </trkpt>
      <trkpt lat="51.642577964812517" lon="-9.979145983234048">
        <ele>112.13</ele>
        <time>2026-06-28T10:03:45Z</time>
      </trkpt>
      <trkpt lat="51.642544018104672" lon="-9.979241034016013">
        <ele>112.61</ele>
        <time>2026-06-28T10:03:46Z</time>
      </trkpt>
      <trkpt lat="51.642518034204841" lon="-9.979374976828694">
        <ele>113.09</ele>
        <time>2026-06-28T10:03:47Z</time>
      </trkpt>
      <trkpt lat="51.642507975921035" lon="-9.979509003460407">
        <ele>114.05</ele>
        <time>2026-06-28T10:03:48Z</time>
      </trkpt>
      <trkpt lat="51.642479980364442" lon="-9.979899013414979">
        <ele>115.98</ele>
        <time>2026-06-28T10:03:51Z</time>
      </trkpt>
      <trkpt lat="51.64243396371603" lon="-9.980001021176577">
        <ele>116.45999999999999</ele>
        <time>2026-06-28T10:03:52Z</time>
      </trkpt>
      <trkpt lat="51.642398005351424" lon="-9.980080984532833">
        <ele>116.94</ele>
        <time>2026-06-28T10:03:53Z</time>
      </trkpt>
      <trkpt lat="51.642360035330057" lon="-9.980152985081077">
        <ele>117.42</ele>
        <time>2026-06-28T10:03:54Z</time>
      </trkpt>
      <trkpt lat="51.642309995368123" lon="-9.980221968144178">
        <ele>117.90000000000001</ele>
        <time>2026-06-28T10:03:55Z</time>
      </trkpt>
      <trkpt lat="51.64225802756846" lon="-9.980294974520803">
        <ele>118.38</ele>
        <time>2026-06-28T10:03:56Z</time>
      </trkpt>
      <trkpt lat="51.642200024798512" lon="-9.980375021696091">
        <ele>118.86</ele>
        <time>2026-06-28T10:03:57Z</time>
      </trkpt>
      <trkpt lat="51.642140010371804" lon="-9.980458002537489">
        <ele>119.81999999999999</ele>
        <time>2026-06-28T10:03:58Z</time>
      </trkpt>
      <trkpt lat="51.642093993723392" lon="-9.980521034449339">
        <ele>120.3</ele>
        <time>2026-06-28T10:03:59Z</time>
      </trkpt>
      <trkpt lat="51.642030039802194" lon="-9.980575013905764">
        <ele>121.26000000000001</ele>
        <time>2026-06-28T10:04:00Z</time>
      </trkpt>
      <trkpt lat="51.64198100566864" lon="-9.980616001412273">
        <ele>121.73999999999999</ele>
        <time>2026-06-28T10:04:01Z</time>
      </trkpt>
      <trkpt lat="51.641932977363467" lon="-9.98061097227037">
        <ele>122.22</ele>
        <time>2026-06-28T10:04:02Z</time>
      </trkpt>
      <trkpt lat="51.641870029270649" lon="-9.980577025562525">
        <ele>122.70999999999999</ele>
        <time>2026-06-28T10:04:03Z</time>
      </trkpt>
      <trkpt lat="51.641798028722405" lon="-9.980536960065365">
        <ele>123.19</ele>
        <time>2026-06-28T10:04:04Z</time>
      </trkpt>
      <trkpt lat="51.641728961840272" lon="-9.980499995872378">
        <ele>123.19</ele>
        <time>2026-06-28T10:04:05Z</time>
      </trkpt>
      <trkpt lat="51.641688980162144" lon="-9.980419026687741">
        <ele>123.19</ele>
        <time>2026-06-28T10:04:06Z</time>
      </trkpt>
      <trkpt lat="51.641645980998874" lon="-9.980334034189582">
        <ele>123.19</ele>
        <time>2026-06-28T10:04:07Z</time>
      </trkpt>
      <trkpt lat="51.641552019864321" lon="-9.980292962864041">
        <ele>122.70999999999999</ele>
        <time>2026-06-28T10:04:08Z</time>
      </trkpt>
      <trkpt lat="51.641496028751135" lon="-9.980300003662705">
        <ele>122.70999999999999</ele>
        <time>2026-06-28T10:04:09Z</time>
      </trkpt>
      <trkpt lat="51.641428973525763" lon="-9.980307966470718">
        <ele>122.70999999999999</ele>
        <time>2026-06-28T10:04:10Z</time>
      </trkpt>
      <trkpt lat="51.641354039311409" lon="-9.980317018926144">
        <ele>122.70999999999999</ele>
        <time>2026-06-28T10:04:11Z</time>
      </trkpt>
      <trkpt lat="51.641276003792882" lon="-9.980325987562537">
        <ele>122.22</ele>
        <time>2026-06-28T10:04:12Z</time>
      </trkpt>
      <trkpt lat="51.641199979931116" lon="-9.980302015319467">
        <ele>122.22</ele>
        <time>2026-06-28T10:04:13Z</time>
      </trkpt>
      <trkpt lat="51.641108030453324" lon="-9.980260021984577">
        <ele>122.22</ele>
        <time>2026-06-28T10:04:14Z</time>
      </trkpt>
      <trkpt lat="51.640058029443026" lon="-9.97990102507174">
        <ele>125.59</ele>
        <time>2026-06-28T10:04:24Z</time>
      </trkpt>
      <trkpt lat="51.639887960627675" lon="-9.979885015636683">
        <ele>126.06999999999999</ele>
        <time>2026-06-28T10:04:26Z</time>
      </trkpt>
      <trkpt lat="51.639802968129516" lon="-9.979894990101457">
        <ele>126.06999999999999</ele>
        <time>2026-06-28T10:04:27Z</time>
      </trkpt>
      <trkpt lat="51.639714036136866" lon="-9.979905970394611">
        <ele>126.06999999999999</ele>
        <time>2026-06-28T10:04:28Z</time>
      </trkpt>
      <trkpt lat="51.639622002840042" lon="-9.979917034506798">
        <ele>125.59</ele>
        <time>2026-06-28T10:04:29Z</time>
      </trkpt>
      <trkpt lat="51.639528041705489" lon="-9.979928014799953">
        <ele>125.59</ele>
        <time>2026-06-28T10:04:30Z</time>
      </trkpt>
      <trkpt lat="51.63944598287344" lon="-9.979937989264727">
        <ele>125.59</ele>
        <time>2026-06-28T10:04:31Z</time>
      </trkpt>
      <trkpt lat="51.639382028952241" lon="-9.979946035891771">
        <ele>125.59</ele>
        <time>2026-06-28T10:04:32Z</time>
      </trkpt>
      <trkpt lat="51.639328971505165" lon="-9.979952992871404">
        <ele>125.11</ele>
        <time>2026-06-28T10:04:33Z</time>
      </trkpt>
      <trkpt lat="51.639284966513515" lon="-9.979958022013307">
        <ele>124.63</ele>
        <time>2026-06-28T10:04:34Z</time>
      </trkpt>
      <trkpt lat="51.639250013977289" lon="-9.979961961507797">
        <ele>124.63</ele>
        <time>2026-06-28T10:04:35Z</time>
      </trkpt>
      <trkpt lat="51.639240039512515" lon="-9.979962967336178">
        <ele>124.15000000000001</ele>
        <time>2026-06-28T10:04:36Z</time>
      </trkpt>
      <trkpt lat="51.639232998713851" lon="-9.979894990101457">
        <ele>124.15000000000001</ele>
        <time>2026-06-28T10:04:37Z</time>
      </trkpt>
      <trkpt lat="51.639223024249077" lon="-9.979811003431678">
        <ele>123.67</ele>
        <time>2026-06-28T10:04:38Z</time>
      </trkpt>
      <trkpt lat="51.63921196013689" lon="-9.979711007326841">
        <ele>123.19</ele>
        <time>2026-06-28T10:04:39Z</time>
      </trkpt>
      <trkpt lat="51.639197962358594" lon="-9.979590978473425">
        <ele>122.70999999999999</ele>
        <time>2026-06-28T10:04:40Z</time>
      </trkpt>
      <trkpt lat="51.639182036742568" lon="-9.979453012347221">
        <ele>122.22</ele>
        <time>2026-06-28T10:04:41Z</time>
      </trkpt>
      <trkpt lat="51.639164015650749" lon="-9.979290990158916">
        <ele>121.26000000000001</ele>
        <time>2026-06-28T10:04:42Z</time>
      </trkpt>
      <trkpt lat="51.639143982902169" lon="-9.979113964363933">
        <ele>120.78</ele>
        <time>2026-06-28T10:04:43Z</time>
      </trkpt>
      <trkpt lat="51.63910299539566" lon="-9.977399026975036">
        <ele>108.29000000000001</ele>
        <time>2026-06-28T10:04:52Z</time>
      </trkpt>
      <trkpt lat="51.639072988182306" lon="-9.97648598626256">
        <ele>105.88</ele>
        <time>2026-06-28T10:04:58Z</time>
      </trkpt>
      <trkpt lat="51.639047004282475" lon="-9.976349025964737">
        <ele>105.40000000000001</ele>
        <time>2026-06-28T10:04:59Z</time>
      </trkpt>
      <trkpt lat="51.638992018997669" lon="-9.976213993504643">
        <ele>104.44</ele>
        <time>2026-06-28T10:05:00Z</time>
      </trkpt>
      <trkpt lat="51.638934016227722" lon="-9.976075021550059">
        <ele>103.95999999999999</ele>
        <time>2026-06-28T10:05:01Z</time>
      </trkpt>
      <trkpt lat="51.638872995972633" lon="-9.975925991311669">
        <ele>103</ele>
        <time>2026-06-28T10:05:02Z</time>
      </trkpt>
      <trkpt lat="51.638809964060783" lon="-9.975772015750408">
        <ele>102.04000000000001</ele>
        <time>2026-06-28T10:05:03Z</time>
      </trkpt>
      <trkpt lat="51.638368992134929" lon="-9.974699970334768">
        <ele>103</ele>
        <time>2026-06-28T10:05:11Z</time>
      </trkpt>
      <trkpt lat="51.638322975486517" lon="-9.974587988108397">
        <ele>103.48</ele>
        <time>2026-06-28T10:05:12Z</time>
      </trkpt>
      <trkpt lat="51.638275031000376" lon="-9.974469970911741">
        <ele>103.48</ele>
        <time>2026-06-28T10:05:13Z</time>
      </trkpt>
      <trkpt lat="51.638282993808389" lon="-9.974381038919091">
        <ele>103.95999999999999</ele>
        <time>2026-06-28T10:05:14Z</time>
      </trkpt>
      <trkpt lat="51.638297997415066" lon="-9.974225973710418">
        <ele>103.95999999999999</ele>
        <time>2026-06-28T10:05:15Z</time>
      </trkpt>
      <trkpt lat="51.638316018506885" lon="-9.974042996764183">
        <ele>103.95999999999999</ele>
        <time>2026-06-28T10:05:16Z</time>
      </trkpt>
      <trkpt lat="51.638335967436433" lon="-9.973834035918117">
        <ele>103.95999999999999</ele>
        <time>2026-06-28T10:05:17Z</time>
      </trkpt>
      <trkpt lat="51.63847703486681" lon="-9.972499972209334">
        <ele>110.20999999999999</ele>
        <time>2026-06-28T10:05:23Z</time>
      </trkpt>
      <trkpt lat="51.63873502984643" lon="-9.970709010958672">
        <ele>118.38</ele>
        <time>2026-06-28T10:05:33Z</time>
      </trkpt>
      <trkpt lat="51.638709967955947" lon="-9.970519999042153">
        <ele>118.86</ele>
        <time>2026-06-28T10:05:34Z</time>
      </trkpt>
      <trkpt lat="51.638683984056115" lon="-9.970328975468874">
        <ele>119.34</ele>
        <time>2026-06-28T10:05:35Z</time>
      </trkpt>
      <trkpt lat="51.638659005984664" lon="-9.970139963552356">
        <ele>119.34</ele>
        <time>2026-06-28T10:05:36Z</time>
      </trkpt>
      <trkpt lat="51.638634027913213" lon="-9.969951035454869">
        <ele>119.34</ele>
        <time>2026-06-28T10:05:37Z</time>
      </trkpt>
      <trkpt lat="51.638510981574655" lon="-9.968246994540095">
        <ele>115.5</ele>
        <time>2026-06-28T10:05:46Z</time>
      </trkpt>
      <trkpt lat="51.638510981574655" lon="-9.96629904024303">
        <ele>104.44</ele>
        <time>2026-06-28T10:05:55Z</time>
      </trkpt>
      <trkpt lat="51.638510981574655" lon="-9.964000973850489">
        <ele>95.790000000000006</ele>
        <time>2026-06-28T10:06:06Z</time>
      </trkpt>
      <trkpt lat="51.638490026816726" lon="-9.962208000943065">
        <ele>87.140000000000001</ele>
        <time>2026-06-28T10:06:16Z</time>
      </trkpt>
      <trkpt lat="51.638467982411385" lon="-9.962126025930047">
        <ele>85.689999999999998</ele>
        <time>2026-06-28T10:06:17Z</time>
      </trkpt>
      <trkpt lat="51.638421965762973" lon="-9.962017983198166">
        <ele>84.730000000000004</ele>
        <time>2026-06-28T10:06:18Z</time>
      </trkpt>
      <trkpt lat="51.638374021276832" lon="-9.961907006800175">
        <ele>83.769999999999996</ele>
        <time>2026-06-28T10:06:19Z</time>
      </trkpt>
      <trkpt lat="51.638330016285181" lon="-9.961802987381816">
        <ele>82.329999999999998</ele>
        <time>2026-06-28T10:06:20Z</time>
      </trkpt>
      <trkpt lat="51.638295985758305" lon="-9.96172402985394">
        <ele>81.370000000000005</ele>
        <time>2026-06-28T10:06:21Z</time>
      </trkpt>
      <trkpt lat="51.638233037665486" lon="-9.961706008762121">
        <ele>80.409999999999997</ele>
        <time>2026-06-28T10:06:22Z</time>
      </trkpt>
      <trkpt lat="51.638171011582017" lon="-9.961688993498683">
        <ele>79.450000000000003</ele>
        <time>2026-06-28T10:06:23Z</time>
      </trkpt>
      <trkpt lat="51.637836992740631" lon="-9.961587991565466">
        <ele>75.599999999999994</ele>
        <time>2026-06-28T10:06:27Z</time>
      </trkpt>
      <trkpt lat="51.637759041041136" lon="-9.961514985188842">
        <ele>74.159999999999997</ele>
        <time>2026-06-28T10:06:28Z</time>
      </trkpt>
      <trkpt lat="51.637674970552325" lon="-9.961436027660966">
        <ele>72.719999999999999</ele>
        <time>2026-06-28T10:06:29Z</time>
      </trkpt>
      <trkpt lat="51.637586038559675" lon="-9.961353968828917">
        <ele>71.760000000000005</ele>
        <time>2026-06-28T10:06:30Z</time>
      </trkpt>
      <trkpt lat="51.637498028576374" lon="-9.961270987987518">
        <ele>70.310000000000002</ele>
        <time>2026-06-28T10:06:31Z</time>
      </trkpt>
      <trkpt lat="51.637411024421453" lon="-9.961190018802881">
        <ele>68.870000000000005</ele>
        <time>2026-06-28T10:06:32Z</time>
      </trkpt>
      <trkpt lat="51.637201979756355" lon="-9.96099497191608">
        <ele>63.579999999999998</ele>
        <time>2026-06-28T10:06:35Z</time>
      </trkpt>
      <trkpt lat="51.637097960337996" lon="-9.960983991622925">
        <ele>62.140000000000001</ele>
        <time>2026-06-28T10:06:36Z</time>
      </trkpt>
      <trkpt lat="51.637013973668218" lon="-9.960976028814912">
        <ele>60.219999999999999</ele>
        <time>2026-06-28T10:06:37Z</time>
      </trkpt>
      <trkpt lat="51.636926969513297" lon="-9.960966976359487">
        <ele>58.780000000000001</ele>
        <time>2026-06-28T10:06:38Z</time>
      </trkpt>
      <trkpt lat="51.636841977015138" lon="-9.960959013551474">
        <ele>57.340000000000003</ele>
        <time>2026-06-28T10:06:39Z</time>
      </trkpt>
      <trkpt lat="51.636766958981752" lon="-9.96095197275281">
        <ele>55.890000000000001</ele>
        <time>2026-06-28T10:06:40Z</time>
      </trkpt>
      <trkpt lat="51.636700993403792" lon="-9.960945015773177">
        <ele>53.969999999999999</ele>
        <time>2026-06-28T10:06:41Z</time>
      </trkpt>
      <trkpt lat="51.636596973985434" lon="-9.960934035480022">
        <ele>51.090000000000003</ele>
        <time>2026-06-28T10:06:43Z</time>
      </trkpt>
      <trkpt lat="51.636557998135686" lon="-9.9609300121665">
        <ele>49.649999999999999</ele>
        <time>2026-06-28T10:06:44Z</time>
      </trkpt>
      <trkpt lat="51.636557998135686" lon="-9.960824986919761">
        <ele>48.200000000000003</ele>
        <time>2026-06-28T10:06:45Z</time>
      </trkpt>
      <trkpt lat="51.636557998135686" lon="-9.960733037441969">
        <ele>47.240000000000002</ele>
        <time>2026-06-28T10:06:46Z</time>
      </trkpt>
      <trkpt lat="51.636557998135686" lon="-9.960618037730455">
        <ele>45.799999999999997</ele>
        <time>2026-06-28T10:06:47Z</time>
      </trkpt>
      <trkpt lat="51.636762013658881" lon="-9.959400985389948">
        <ele>36.189999999999998</ele>
        <time>2026-06-28T10:06:55Z</time>
      </trkpt>
      <trkpt lat="51.636943984776735" lon="-9.958305973559618">
        <ele>28.5</ele>
        <time>2026-06-28T10:07:02Z</time>
      </trkpt>
      <trkpt lat="51.636943984776735" lon="-9.958141017705202">
        <ele>27.050000000000001</ele>
        <time>2026-06-28T10:07:03Z</time>
      </trkpt>
      <trkpt lat="51.636943984776735" lon="-9.958001961931586">
        <ele>26.09</ele>
        <time>2026-06-28T10:07:04Z</time>
      </trkpt>
      <trkpt lat="51.636943984776735" lon="-9.957910012453795">
        <ele>25.129999999999999</ele>
        <time>2026-06-28T10:07:05Z</time>
      </trkpt>
      <trkpt lat="51.636943984776735" lon="-9.95785896666348">
        <ele>24.649999999999999</ele>
        <time>2026-06-28T10:07:06Z</time>
      </trkpt>
      <trkpt lat="51.636943984776735" lon="-9.957826025784016">
        <ele>24.170000000000002</ele>
        <time>2026-06-28T10:07:07Z</time>
      </trkpt>
      <trkpt lat="51.636943984776735" lon="-9.957800041884184">
        <ele>23.690000000000001</ele>
        <time>2026-06-28T10:07:08Z</time>
      </trkpt>
      <trkpt lat="51.636943984776735" lon="-9.957669032737613">
        <ele>22.73</ele>
        <time>2026-06-28T10:07:09Z</time>
      </trkpt>
      <trkpt lat="51.636943984776735" lon="-9.957669032737613">
        <ele>22.25</ele>
        <time>2026-06-28T10:07:10Z</time>
      </trkpt>
      <trkpt lat="51.636837031692266" lon="-9.957818984985352">
        <ele>21.77</ele>
        <time>2026-06-28T10:07:11Z</time>
      </trkpt>
      <trkpt lat="51.636837031692266" lon="-9.957818984985352">
        <ele>21.289999999999999</ele>
        <time>2026-06-28T10:07:12Z</time>
      </trkpt>
      <trkpt lat="51.636810963973403" lon="-9.957887968048453">
        <ele>20.809999999999999</ele>
        <time>2026-06-28T10:07:13Z</time>
      </trkpt>
      <trkpt lat="51.636771988123655" lon="-9.95798896998167">
        <ele>20.32</ele>
        <time>2026-06-28T10:07:14Z</time>
      </trkpt>
      <trkpt lat="51.636647013947368" lon="-9.958211006596685">
        <ele>20.809999999999999</ele>
        <time>2026-06-28T10:07:16Z</time>
      </trkpt>
      <trkpt lat="51.636563027277589" lon="-9.958327012136579">
        <ele>21.289999999999999</ele>
        <time>2026-06-28T10:07:17Z</time>
      </trkpt>
      <trkpt lat="51.636148039251566" lon="-9.958895975723863">
        <ele>23.210000000000001</ele>
        <time>2026-06-28T10:07:21Z</time>
      </trkpt>
      <trkpt lat="51.636027004569769" lon="-9.959062021225691">
        <ele>23.690000000000001</ele>
        <time>2026-06-28T10:07:22Z</time>
      </trkpt>
      <trkpt lat="51.63592197932303" lon="-9.959262013435364">
        <ele>24.649999999999999</ele>
        <time>2026-06-28T10:07:23Z</time>
      </trkpt>
      <trkpt lat="51.635826006531715" lon="-9.959486983716488">
        <ele>25.129999999999999</ele>
        <time>2026-06-28T10:07:24Z</time>
      </trkpt>
      <trkpt lat="51.635730033740401" lon="-9.959711031988263">
        <ele>26.09</ele>
        <time>2026-06-28T10:07:25Z</time>
      </trkpt>
      <trkpt lat="51.635323008522391" lon="-9.960663970559835">
        <ele>28.5</ele>
        <time>2026-06-28T10:07:29Z</time>
      </trkpt>
      <trkpt lat="51.635221000760794" lon="-9.960902016609907">
        <ele>29.460000000000001</ele>
        <time>2026-06-28T10:07:30Z</time>
      </trkpt>
      <trkpt lat="51.635136008262634" lon="-9.961150037124753">
        <ele>30.420000000000002</ele>
        <time>2026-06-28T10:07:31Z</time>
      </trkpt>
      <trkpt lat="51.635069036856294" lon="-9.961421024054289">
        <ele>31.379999999999999</ele>
        <time>2026-06-28T10:07:32Z</time>
      </trkpt>
      <trkpt lat="51.635002987459302" lon="-9.961688993498683">
        <ele>32.340000000000003</ele>
        <time>2026-06-28T10:07:33Z</time>
      </trkpt>
      <trkpt lat="51.634938027709723" lon="-9.961951011791825">
        <ele>33.299999999999997</ele>
        <time>2026-06-28T10:07:34Z</time>
      </trkpt>
      <trkpt lat="51.634349031373858" lon="-9.964329963549972">
        <ele>40.990000000000002</ele>
        <time>2026-06-28T10:07:44Z</time>
      </trkpt>
      <trkpt lat="51.634091958403587" lon="-9.965254990383983">
        <ele>42.920000000000002</ele>
        <time>2026-06-28T10:07:48Z</time>
      </trkpt>
      <trkpt lat="51.633692979812622" lon="-9.966325024142861">
        <ele>46.759999999999998</ele>
        <time>2026-06-28T10:07:53Z</time>
      </trkpt>
      <trkpt lat="51.632989989593625" lon="-9.96864203363657">
        <ele>53.490000000000002</ele>
        <time>2026-06-28T10:08:03Z</time>
      </trkpt>
      <trkpt lat="51.632925029844046" lon="-9.968859041109681">
        <ele>53.969999999999999</ele>
        <time>2026-06-28T10:08:04Z</time>
      </trkpt>
      <trkpt lat="51.632251963019371" lon="-9.971701009199023">
        <ele>60.219999999999999</ele>
        <time>2026-06-28T10:08:16Z</time>
      </trkpt>
      <trkpt lat="51.632191026583314" lon="-9.972148016095161">
        <ele>61.18</ele>
        <time>2026-06-28T10:08:18Z</time>
      </trkpt>
      <trkpt lat="51.632180968299508" lon="-9.972345996648073">
        <ele>61.659999999999997</ele>
        <time>2026-06-28T10:08:19Z</time>
      </trkpt>
      <trkpt lat="51.632224973291159" lon="-9.972551017999649">
        <ele>62.619999999999997</ele>
        <time>2026-06-28T10:08:20Z</time>
      </trkpt>
      <trkpt lat="51.632268978282809" lon="-9.972699964419007">
        <ele>63.100000000000001</ele>
        <time>2026-06-28T10:08:21Z</time>
      </trkpt>
      <trkpt lat="51.632331004366279" lon="-9.972839020192623">
        <ele>63.100000000000001</ele>
        <time>2026-06-28T10:08:22Z</time>
      </trkpt>
      <trkpt lat="51.632423959672451" lon="-9.972943961620331">
        <ele>64.069999999999993</ele>
        <time>2026-06-28T10:08:23Z</time>
      </trkpt>
      <trkpt lat="51.632535019889474" lon="-9.97304798103869">
        <ele>64.069999999999993</ele>
        <time>2026-06-28T10:08:24Z</time>
      </trkpt>
      <trkpt lat="51.632668040692806" lon="-9.973113024607301">
        <ele>65.030000000000001</ele>
        <time>2026-06-28T10:08:25Z</time>
      </trkpt>
      <trkpt lat="51.632805000990629" lon="-9.973179996013641">
        <ele>65.989999999999995</ele>
        <time>2026-06-28T10:08:26Z</time>
      </trkpt>
      <trkpt lat="51.63351503200829" lon="-9.973484007641673">
        <ele>69.829999999999998</ele>
        <time>2026-06-28T10:08:31Z</time>
      </trkpt>
      <trkpt lat="51.633669007569551" lon="-9.973509991541505">
        <ele>69.829999999999998</ele>
        <time>2026-06-28T10:08:32Z</time>
      </trkpt>
      <trkpt lat="51.6338150203228" lon="-9.97352097183466">
        <ele>69.829999999999998</ele>
        <time>2026-06-28T10:08:33Z</time>
      </trkpt>
      <trkpt lat="51.634229002520442" lon="-9.973469004034996">
        <ele>69.829999999999998</ele>
        <time>2026-06-28T10:08:36Z</time>
      </trkpt>
      <trkpt lat="51.634361017495394" lon="-9.973517032340169">
        <ele>69.829999999999998</ele>
        <time>2026-06-28T10:08:37Z</time>
      </trkpt>
      <trkpt lat="51.63448004052043" lon="-9.973602024838328">
        <ele>69.829999999999998</ele>
        <time>2026-06-28T10:08:38Z</time>
      </trkpt>
      <trkpt lat="51.634603003039956" lon="-9.973722975701094">
        <ele>69.349999999999994</ele>
        <time>2026-06-28T10:08:39Z</time>
      </trkpt>
      <trkpt lat="51.634680032730103" lon="-9.973912993445993">
        <ele>69.349999999999994</ele>
        <time>2026-06-28T10:08:40Z</time>
      </trkpt>
      <trkpt lat="51.63476200774312" lon="-9.974112985655665">
        <ele>69.349999999999994</ele>
        <time>2026-06-28T10:08:41Z</time>
      </trkpt>
      <trkpt lat="51.634833002462983" lon="-9.974352959543467">
        <ele>69.349999999999994</ele>
        <time>2026-06-28T10:08:42Z</time>
      </trkpt>
      <trkpt lat="51.63486703298986" lon="-9.974609026685357">
        <ele>69.349999999999994</ele>
        <time>2026-06-28T10:08:43Z</time>
      </trkpt>
      <trkpt lat="51.634900979697704" lon="-9.974871966987848">
        <ele>69.349999999999994</ele>
        <time>2026-06-28T10:08:44Z</time>
      </trkpt>
      <trkpt lat="51.635247990489006" lon="-9.977848967537284">
        <ele>74.159999999999997</ele>
        <time>2026-06-28T10:08:56Z</time>
      </trkpt>
      <trkpt lat="51.635248996317387" lon="-9.978062035515904">
        <ele>74.640000000000001</ele>
        <time>2026-06-28T10:08:57Z</time>
      </trkpt>
      <trkpt lat="51.635248996317387" lon="-9.978262027725577">
        <ele>74.640000000000001</ele>
        <time>2026-06-28T10:08:58Z</time>
      </trkpt>
      <trkpt lat="51.635248996317387" lon="-9.9784180149436">
        <ele>75.120000000000005</ele>
        <time>2026-06-28T10:08:59Z</time>
      </trkpt>
      <trkpt lat="51.635188981890678" lon="-9.978652037680149">
        <ele>75.599999999999994</ele>
        <time>2026-06-28T10:09:00Z</time>
      </trkpt>
      <trkpt lat="51.635139025747776" lon="-9.978844989091158">
        <ele>76.079999999999998</ele>
        <time>2026-06-28T10:09:01Z</time>
      </trkpt>
      <trkpt lat="51.635075993835926" lon="-9.979024026542902">
        <ele>76.560000000000002</ele>
        <time>2026-06-28T10:09:02Z</time>
      </trkpt>
      <trkpt lat="51.63497700355947" lon="-9.979138020426035">
        <ele>77.040000000000006</ele>
        <time>2026-06-28T10:09:03Z</time>
      </trkpt>
      <trkpt lat="51.63487097248435" lon="-9.979222007095814">
        <ele>77.519999999999996</ele>
        <time>2026-06-28T10:09:04Z</time>
      </trkpt>
      <trkpt lat="51.634753961116076" lon="-9.979242039844394">
        <ele>77.519999999999996</ele>
        <time>2026-06-28T10:09:05Z</time>
      </trkpt>
      <trkpt lat="51.634627981111407" lon="-9.979217983782291">
        <ele>77.519999999999996</ele>
        <time>2026-06-28T10:09:06Z</time>
      </trkpt>
      <trkpt lat="51.634492026641965" lon="-9.97919199988246">
        <ele>78</ele>
        <time>2026-06-28T10:09:07Z</time>
      </trkpt>
      <trkpt lat="51.634200001135468" lon="-9.979135002940893">
        <ele>78.480000000000004</ele>
        <time>2026-06-28T10:09:09Z</time>
      </trkpt>
      <trkpt lat="51.634056000038981" lon="-9.9791070073843">
        <ele>78.969999999999999</ele>
        <time>2026-06-28T10:09:10Z</time>
      </trkpt>
      <trkpt lat="51.633920967578888" lon="-9.97917297296226">
        <ele>78.969999999999999</ele>
        <time>2026-06-28T10:09:11Z</time>
      </trkpt>
      <trkpt lat="51.633785013109446" lon="-9.979243967682123">
        <ele>79.930000000000007</ele>
        <time>2026-06-28T10:09:12Z</time>
      </trkpt>
      <trkpt lat="51.633651992306113" lon="-9.979314962401986">
        <ele>80.409999999999997</ele>
        <time>2026-06-28T10:09:13Z</time>
      </trkpt>
      <trkpt lat="51.633519977331161" lon="-9.979386040940881">
        <ele>81.370000000000005</ele>
        <time>2026-06-28T10:09:14Z</time>
      </trkpt>
      <trkpt lat="51.633360972627997" lon="-9.97947002761066">
        <ele>82.329999999999998</ele>
        <time>2026-06-28T10:09:15Z</time>
      </trkpt>
      <trkpt lat="51.633245972916484" lon="-9.979441026225686">
        <ele>83.290000000000006</ele>
        <time>2026-06-28T10:09:16Z</time>
      </trkpt>
      <trkpt lat="51.633117981255054" lon="-9.979370031505823">
        <ele>84.25</ele>
        <time>2026-06-28T10:09:17Z</time>
      </trkpt>
      <trkpt lat="51.632996024563909" lon="-9.979274980723858">
        <ele>85.209999999999994</ele>
        <time>2026-06-28T10:09:18Z</time>
      </trkpt>
      <trkpt lat="51.632875995710492" lon="-9.979180013760924">
        <ele>86.180000000000007</ele>
        <time>2026-06-28T10:09:19Z</time>
      </trkpt>
      <trkpt lat="51.63276401348412" lon="-9.979097032919526">
        <ele>87.140000000000001</ele>
        <time>2026-06-28T10:09:20Z</time>
      </trkpt>
      <trkpt lat="51.632639039307833" lon="-9.97904397547245">
        <ele>88.099999999999994</ele>
        <time>2026-06-28T10:09:21Z</time>
      </trkpt>
      <trkpt lat="51.632503001019359" lon="-9.979056967422366">
        <ele>88.579999999999998</ele>
        <time>2026-06-28T10:09:22Z</time>
      </trkpt>
      <trkpt lat="51.63235698826611" lon="-9.979074988514185">
        <ele>89.060000000000002</ele>
        <time>2026-06-28T10:09:23Z</time>
      </trkpt>
      <trkpt lat="51.63220401853323" lon="-9.979094015434384">
        <ele>90.019999999999996</ele>
        <time>2026-06-28T10:09:24Z</time>
      </trkpt>
      <trkpt lat="51.631547966971993" lon="-9.979161992669106">
        <ele>92.900000000000006</ele>
        <time>2026-06-28T10:09:28Z</time>
      </trkpt>
      <trkpt lat="51.631382005289197" lon="-9.979138020426035">
        <ele>93.870000000000005</ele>
        <time>2026-06-28T10:09:29Z</time>
      </trkpt>
      <trkpt lat="51.631214031949639" lon="-9.979090997949243">
        <ele>94.829999999999998</ele>
        <time>2026-06-28T10:09:30Z</time>
      </trkpt>
      <trkpt lat="51.631043963134289" lon="-9.979018997400999">
        <ele>95.790000000000006</ele>
        <time>2026-06-28T10:09:31Z</time>
      </trkpt>
      <trkpt lat="51.630895016714931" lon="-9.978901986032724">
        <ele>96.75</ele>
        <time>2026-06-28T10:09:32Z</time>
      </trkpt>
      <trkpt lat="51.630743974819779" lon="-9.978783968836069">
        <ele>97.230000000000004</ele>
        <time>2026-06-28T10:09:33Z</time>
      </trkpt>
      <trkpt lat="51.629531029611826" lon="-9.978066980838776">
        <ele>102.52</ele>
        <time>2026-06-28T10:09:41Z</time>
      </trkpt>
      <trkpt lat="51.629389962181449" lon="-9.978037979453802">
        <ele>103</ele>
        <time>2026-06-28T10:09:42Z</time>
      </trkpt>
      <trkpt lat="51.629253001883626" lon="-9.978014007210732">
        <ele>103.48</ele>
        <time>2026-06-28T10:09:43Z</time>
      </trkpt>
      <trkpt lat="51.629119981080294" lon="-9.978056000545621">
        <ele>104.44</ele>
        <time>2026-06-28T10:09:44Z</time>
      </trkpt>
      <trkpt lat="51.628986960276961" lon="-9.978098999708891">
        <ele>104.92</ele>
        <time>2026-06-28T10:09:45Z</time>
      </trkpt>
      <trkpt lat="51.628267038613558" lon="-9.978330004960299">
        <ele>108.29000000000001</ele>
        <time>2026-06-28T10:09:51Z</time>
      </trkpt>
      <trkpt lat="51.62814499810338" lon="-9.978368980810046">
        <ele>109.25</ele>
        <time>2026-06-28T10:09:52Z</time>
      </trkpt>
      <trkpt lat="51.628024969249964" lon="-9.978451039642096">
        <ele>109.73</ele>
        <time>2026-06-28T10:09:53Z</time>
      </trkpt>
      <trkpt lat="51.627674018964171" lon="-9.978713979944587">
        <ele>110.69</ele>
        <time>2026-06-28T10:09:56Z</time>
      </trkpt>
      <trkpt lat="51.627551978453994" lon="-9.978795032948256">
        <ele>110.69</ele>
        <time>2026-06-28T10:09:57Z</time>
      </trkpt>
      <trkpt lat="51.626182962208986" lon="-9.97975098900497">
        <ele>116.45999999999999</ele>
        <time>2026-06-28T10:10:08Z</time>
      </trkpt>
      <trkpt lat="51.625514002516866" lon="-9.980308972299099">
        <ele>120.3</ele>
        <time>2026-06-28T10:10:13Z</time>
      </trkpt>
      <trkpt lat="51.625374024733901" lon="-9.980332022532821">
        <ele>121.26000000000001</ele>
        <time>2026-06-28T10:10:14Z</time>
      </trkpt>
      <trkpt lat="51.625226000323892" lon="-9.980346020311117">
        <ele>122.22</ele>
        <time>2026-06-28T10:10:15Z</time>
      </trkpt>
      <trkpt lat="51.624010037630796" lon="-9.980290029197931">
        <ele>128.47</ele>
        <time>2026-06-28T10:10:23Z</time>
      </trkpt>
      <trkpt lat="51.623876010999084" lon="-9.980341996997595">
        <ele>129.43000000000001</ele>
        <time>2026-06-28T10:10:24Z</time>
      </trkpt>
      <trkpt lat="51.623765034601092" lon="-9.980465965345502">
        <ele>129.91999999999999</ele>
        <time>2026-06-28T10:10:25Z</time>
      </trkpt>
      <trkpt lat="51.623668977990746" lon="-9.980616001412273">
        <ele>130.88</ele>
        <time>2026-06-28T10:10:26Z</time>
      </trkpt>
      <trkpt lat="51.623582979664207" lon="-9.980787998065352">
        <ele>131.84</ele>
        <time>2026-06-28T10:10:27Z</time>
      </trkpt>
      <trkpt lat="51.623494969680905" lon="-9.980959994718432">
        <ele>132.31999999999999</ele>
        <time>2026-06-28T10:10:28Z</time>
      </trkpt>
      <trkpt lat="51.623088028281927" lon="-9.981602970510721">
        <ele>133.28</ele>
        <time>2026-06-28T10:10:32Z</time>
      </trkpt>
      <trkpt lat="51.622949978336692" lon="-9.981732973828912">
        <ele>132.80000000000001</ele>
        <time>2026-06-28T10:10:33Z</time>
      </trkpt>
      <trkpt lat="51.622802037745714" lon="-9.98185602016747">
        <ele>131.84</ele>
        <time>2026-06-28T10:10:34Z</time>
      </trkpt>
      <trkpt lat="51.621283991262317" lon="-9.982546018436551">
        <ele>127.51000000000001</ele>
        <time>2026-06-28T10:10:43Z</time>
      </trkpt>
      <trkpt lat="51.61985001526773" lon="-9.98331799171865">
        <ele>121.73999999999999</ele>
        <time>2026-06-28T10:10:52Z</time>
      </trkpt>
      <trkpt lat="51.619695033878088" lon="-9.983349004760385">
        <ele>121.26000000000001</ele>
        <time>2026-06-28T10:10:53Z</time>
      </trkpt>
      <trkpt lat="51.619217013940215" lon="-9.983456963673234">
        <ele>120.3</ele>
        <time>2026-06-28T10:10:56Z</time>
      </trkpt>
      <trkpt lat="51.61907703615725" lon="-9.983555031940341">
        <ele>120.3</ele>
        <time>2026-06-28T10:10:57Z</time>
      </trkpt>
      <trkpt lat="51.618952983990312" lon="-9.983700960874558">
        <ele>119.81999999999999</ele>
        <time>2026-06-28T10:10:58Z</time>
      </trkpt>
      <trkpt lat="51.618838990107179" lon="-9.983885027468205">
        <ele>119.34</ele>
        <time>2026-06-28T10:10:59Z</time>
      </trkpt>
      <trkpt lat="51.618745028972626" lon="-9.984103962779045">
        <ele>118.86</ele>
        <time>2026-06-28T10:11:00Z</time>
      </trkpt>
      <trkpt lat="51.618650984019041" lon="-9.984319964423776">
        <ele>118.86</ele>
        <time>2026-06-28T10:11:01Z</time>
      </trkpt>
      <trkpt lat="51.618558028712869" lon="-9.984535966068506">
        <ele>118.38</ele>
        <time>2026-06-28T10:11:02Z</time>
      </trkpt>
      <trkpt lat="51.618443029001355" lon="-9.984730007126927">
        <ele>117.42</ele>
        <time>2026-06-28T10:11:03Z</time>
      </trkpt>
      <trkpt lat="51.618303973227739" lon="-9.98490896075964">
        <ele>116.45999999999999</ele>
        <time>2026-06-28T10:11:04Z</time>
      </trkpt>
      <trkpt lat="51.617366960272193" lon="-9.986404040828347">
        <ele>113.09</ele>
        <time>2026-06-28T10:11:11Z</time>
      </trkpt>
      <trkpt lat="51.61658501252532" lon="-9.988090982660651">
        <ele>111.65000000000001</ele>
        <time>2026-06-28T10:11:19Z</time>
      </trkpt>
      <trkpt lat="51.616190979257226" lon="-9.989881021901965">
        <ele>106.84</ele>
        <time>2026-06-28T10:11:26Z</time>
      </trkpt>
      <trkpt lat="51.615989981219172" lon="-9.991144007071853">
        <ele>102.04000000000001</ele>
        <time>2026-06-28T10:11:31Z</time>
      </trkpt>
      <trkpt lat="51.61591898649931" lon="-9.99137400649488">
        <ele>100.59999999999999</ele>
        <time>2026-06-28T10:11:32Z</time>
      </trkpt>
      <trkpt lat="51.615845980122685" lon="-9.991605011746287">
        <ele>99.150000000000006</ele>
        <time>2026-06-28T10:11:33Z</time>
      </trkpt>
      <trkpt lat="51.615751013159752" lon="-9.991794023662806">
        <ele>98.189999999999998</ele>
        <time>2026-06-28T10:11:34Z</time>
      </trkpt>
      <trkpt lat="51.615653028711677" lon="-9.991930983960629">
        <ele>96.75</ele>
        <time>2026-06-28T10:11:35Z</time>
      </trkpt>
      <trkpt lat="51.615546997636557" lon="-9.992038020864129">
        <ele>95.790000000000006</ele>
        <time>2026-06-28T10:11:36Z</time>
      </trkpt>
      <trkpt lat="51.615415988489985" lon="-9.992116978392005">
        <ele>94.829999999999998</ele>
        <time>2026-06-28T10:11:37Z</time>
      </trkpt>
      <trkpt lat="51.615277016535401" lon="-9.992201970890164">
        <ele>93.870000000000005</ele>
        <time>2026-06-28T10:11:38Z</time>
      </trkpt>
      <trkpt lat="51.614860016852617" lon="-9.992458038032055">
        <ele>90.019999999999996</ele>
        <time>2026-06-28T10:11:41Z</time>
      </trkpt>
      <trkpt lat="51.614749040454626" lon="-9.992605978623033">
        <ele>88.579999999999998</ele>
        <time>2026-06-28T10:11:42Z</time>
      </trkpt>
      <trkpt lat="51.614639991894364" lon="-9.992763977497816">
        <ele>87.620000000000005</ele>
        <time>2026-06-28T10:11:43Z</time>
      </trkpt>
      <trkpt lat="51.614535972476006" lon="-9.992947960272431">
        <ele>86.659999999999997</ele>
        <time>2026-06-28T10:11:44Z</time>
      </trkpt>
      <trkpt lat="51.614424996078014" lon="-9.993145018815994">
        <ele>85.209999999999994</ele>
        <time>2026-06-28T10:11:45Z</time>
      </trkpt>
      <trkpt lat="51.614338997751474" lon="-9.99337300658226">
        <ele>84.730000000000004</ele>
        <time>2026-06-28T10:11:46Z</time>
      </trkpt>
      <trkpt lat="51.61426599137485" lon="-9.99360803514719">
        <ele>83.769999999999996</ele>
        <time>2026-06-28T10:11:47Z</time>
      </trkpt>
      <trkpt lat="51.614042026922107" lon="-9.994438011199236">
        <ele>81.370000000000005</ele>
        <time>2026-06-28T10:11:51Z</time>
      </trkpt>
      <trkpt lat="51.61389802582562" lon="-9.995219958946109">
        <ele>78.969999999999999</ele>
        <time>2026-06-28T10:11:56Z</time>
      </trkpt>
      <trkpt lat="51.613888973370194" lon="-9.995445013046265">
        <ele>78.480000000000004</ele>
        <time>2026-06-28T10:11:57Z</time>
      </trkpt>
      <trkpt lat="51.613838011398911" lon="-9.996711015701294">
        <ele>74.159999999999997</ele>
        <time>2026-06-28T10:12:02Z</time>
      </trkpt>
      <trkpt lat="51.613799035549164" lon="-9.996935985982418">
        <ele>73.680000000000007</ele>
        <time>2026-06-28T10:12:03Z</time>
      </trkpt>
      <trkpt lat="51.613295031711459" lon="-9.99912902712822">
        <ele>67.430000000000007</ele>
        <time>2026-06-28T10:12:13Z</time>
      </trkpt>
      <trkpt lat="51.61282598040998" lon="-10.001422986388206">
        <ele>60.219999999999999</ele>
        <time>2026-06-28T10:12:23Z</time>
      </trkpt>
      <trkpt lat="51.612113015726209" lon="-10.003061983734369">
        <ele>58.780000000000001</ele>
        <time>2026-06-28T10:12:32Z</time>
      </trkpt>
      <trkpt lat="51.611445983871818" lon="-10.003885002806783">
        <ele>56.859999999999999</ele>
        <time>2026-06-28T10:12:38Z</time>
      </trkpt>
      <trkpt lat="51.611352022737265" lon="-10.004038978368044">
        <ele>56.369999999999997</ele>
        <time>2026-06-28T10:12:39Z</time>
      </trkpt>
      <trkpt lat="51.611269963905215" lon="-10.004232013598084">
        <ele>55.890000000000001</ele>
        <time>2026-06-28T10:12:40Z</time>
      </trkpt>
      <trkpt lat="51.610531015321612" lon="-10.006036972627044">
        <ele>52.530000000000001</ele>
        <time>2026-06-28T10:12:48Z</time>
      </trkpt>
      <trkpt lat="51.609911005944014" lon="-10.008479040116072">
        <ele>44.359999999999999</ele>
        <time>2026-06-28T10:12:58Z</time>
      </trkpt>
      <trkpt lat="51.609407002106309" lon="-10.010344013571739">
        <ele>41.469999999999999</ele>
        <time>2026-06-28T10:13:06Z</time>
      </trkpt>
      <trkpt lat="51.608781963586807" lon="-10.013152034953237">
        <ele>40.030000000000001</ele>
        <time>2026-06-28T10:13:17Z</time>
      </trkpt>
      <trkpt lat="51.608160026371479" lon="-10.015914961695671">
        <ele>32.340000000000003</ele>
        <time>2026-06-28T10:13:27Z</time>
      </trkpt>
      <trkpt lat="51.6075199842453" lon="-10.018656011670828">
        <ele>29.460000000000001</ele>
        <time>2026-06-28T10:13:38Z</time>
      </trkpt>
      <trkpt lat="51.607262995094061" lon="-10.019525969401002">
        <ele>30.420000000000002</ele>
        <time>2026-06-28T10:13:43Z</time>
      </trkpt>
      <trkpt lat="51.606585988774896" lon="-10.020964974537492">
        <ele>27.050000000000001</ele>
        <time>2026-06-28T10:13:51Z</time>
      </trkpt>
      <trkpt lat="51.606523962691426" lon="-10.021175025030971">
        <ele>26.57</ele>
        <time>2026-06-28T10:13:52Z</time>
      </trkpt>
      <trkpt lat="51.60646403208375" lon="-10.021380968391895">
        <ele>26.57</ele>
        <time>2026-06-28T10:13:53Z</time>
      </trkpt>
      <trkpt lat="51.60644500516355" lon="-10.021593030542135">
        <ele>26.09</ele>
        <time>2026-06-28T10:13:54Z</time>
      </trkpt>
      <trkpt lat="51.606434024870396" lon="-10.021820012480021">
        <ele>26.09</ele>
        <time>2026-06-28T10:13:55Z</time>
      </trkpt>
      <trkpt lat="51.606446010991931" lon="-10.022043976932764">
        <ele>25.609999999999999</ele>
        <time>2026-06-28T10:13:56Z</time>
      </trkpt>
      <trkpt lat="51.606465959921479" lon="-10.022289985790849">
        <ele>25.609999999999999</ele>
        <time>2026-06-28T10:13:57Z</time>
      </trkpt>
      <trkpt lat="51.606485992670059" lon="-10.022537000477314">
        <ele>26.09</ele>
        <time>2026-06-28T10:13:58Z</time>
      </trkpt>
      <trkpt lat="51.606538966298103" lon="-10.023178970441222">
        <ele>25.129999999999999</ele>
        <time>2026-06-28T10:14:01Z</time>
      </trkpt>
      <trkpt lat="51.606498984619975" lon="-10.023448029533029">
        <ele>24.649999999999999</ele>
        <time>2026-06-28T10:14:02Z</time>
      </trkpt>
      <trkpt lat="51.606465959921479" lon="-10.023674005642533">
        <ele>24.170000000000002</ele>
        <time>2026-06-28T10:14:03Z</time>
      </trkpt>
      <trkpt lat="51.606366969645023" lon="-10.024338020011783">
        <ele>23.210000000000001</ele>
        <time>2026-06-28T10:14:06Z</time>
      </trkpt>
      <trkpt lat="51.606366969645023" lon="-10.024586962535977">
        <ele>23.210000000000001</ele>
        <time>2026-06-28T10:14:07Z</time>
      </trkpt>
      <trkpt lat="51.606366969645023" lon="-10.024820985272527">
        <ele>22.73</ele>
        <time>2026-06-28T10:14:08Z</time>
      </trkpt>
      <trkpt lat="51.606366969645023" lon="-10.027139000594616">
        <ele>21.77</ele>
        <time>2026-06-28T10:14:17Z</time>
      </trkpt>
      <trkpt lat="51.606356995180249" lon="-10.031763967126608">
        <ele>22.73</ele>
        <time>2026-06-28T10:14:33Z</time>
      </trkpt>
      <trkpt lat="51.606326987966895" lon="-10.036634020507336">
        <ele>25.609999999999999</ele>
        <time>2026-06-28T10:14:49Z</time>
      </trkpt>
      <trkpt lat="51.60607703961432" lon="-10.038597984239459">
        <ele>29.460000000000001</ele>
        <time>2026-06-28T10:14:56Z</time>
      </trkpt>
      <trkpt lat="51.605551997199655" lon="-10.040217032656074">
        <ele>27.050000000000001</ele>
        <time>2026-06-28T10:15:03Z</time>
      </trkpt>
      <trkpt lat="51.605439009144902" lon="-10.040404032915831">
        <ele>26.09</ele>
        <time>2026-06-28T10:15:04Z</time>
      </trkpt>
      <trkpt lat="51.604366963729262" lon="-10.042116036638618">
        <ele>16.48</ele>
        <time>2026-06-28T10:15:14Z</time>
      </trkpt>
      <trkpt lat="51.604208964854479" lon="-10.042410995811224">
        <ele>15.52</ele>
        <time>2026-06-28T10:15:16Z</time>
      </trkpt>
      <trkpt lat="51.604142999276519" lon="-10.042571006342769">
        <ele>14.56</ele>
        <time>2026-06-28T10:15:17Z</time>
      </trkpt>
      <trkpt lat="51.604090025648475" lon="-10.042744008824229">
        <ele>14.56</ele>
        <time>2026-06-28T10:15:18Z</time>
      </trkpt>
      <trkpt lat="51.604046020656824" lon="-10.042930003255606">
        <ele>14.08</ele>
        <time>2026-06-28T10:15:19Z</time>
      </trkpt>
      <trkpt lat="51.604023976251483" lon="-10.043129995465279">
        <ele>13.6</ele>
        <time>2026-06-28T10:15:20Z</time>
      </trkpt>
      <trkpt lat="51.604018025100231" lon="-10.043336022645235">
        <ele>13.119999999999999</ele>
        <time>2026-06-28T10:15:21Z</time>
      </trkpt>
      <trkpt lat="51.604011990129948" lon="-10.043543977662921">
        <ele>13.119999999999999</ele>
        <time>2026-06-28T10:15:22Z</time>
      </trkpt>
      <trkpt lat="51.60401601344347" lon="-10.043758973479271">
        <ele>13.119999999999999</ele>
        <time>2026-06-28T10:15:23Z</time>
      </trkpt>
      <trkpt lat="51.604287000373006" lon="-10.045797033235431">
        <ele>13.119999999999999</ele>
        <time>2026-06-28T10:15:32Z</time>
      </trkpt>
      <trkpt lat="51.604302003979683" lon="-10.046445960178971">
        <ele>13.119999999999999</ele>
        <time>2026-06-28T10:15:35Z</time>
      </trkpt>
      <trkpt lat="51.604278031736612" lon="-10.046659028157592">
        <ele>14.08</ele>
        <time>2026-06-28T10:15:36Z</time>
      </trkpt>
      <trkpt lat="51.604254981502891" lon="-10.0468710064888">
        <ele>14.56</ele>
        <time>2026-06-28T10:15:37Z</time>
      </trkpt>
      <trkpt lat="51.603916017338634" lon="-10.049283988773823">
        <ele>22.73</ele>
        <time>2026-06-28T10:15:48Z</time>
      </trkpt>
      <trkpt lat="51.603914005681872" lon="-10.050750989466906">
        <ele>28.98</ele>
        <time>2026-06-28T10:15:55Z</time>
      </trkpt>
      <trkpt lat="51.603915011510253" lon="-10.050860960036516">
        <ele>29.460000000000001</ele>
        <time>2026-06-28T10:15:56Z</time>
      </trkpt>
      <trkpt lat="51.603916017338634" lon="-10.050937989726663">
        <ele>29.940000000000001</ele>
        <time>2026-06-28T10:15:57Z</time>
      </trkpt>
      <trkpt lat="51.603917023167014" lon="-10.050993980839849">
        <ele>30.420000000000002</ele>
        <time>2026-06-28T10:15:58Z</time>
      </trkpt>
      <trkpt lat="51.603917023167014" lon="-10.051044020801783">
        <ele>31.379999999999999</ele>
        <time>2026-06-28T10:15:59Z</time>
      </trkpt>
      <trkpt lat="51.603918028995395" lon="-10.051088025793433">
        <ele>31.859999999999999</ele>
        <time>2026-06-28T10:16:00Z</time>
      </trkpt>
      <trkpt lat="51.603918028995395" lon="-10.051127001643181">
        <ele>32.340000000000003</ele>
        <time>2026-06-28T10:16:01Z</time>
      </trkpt>
      <trkpt lat="51.603918028995395" lon="-10.051162037998438">
        <ele>32.82</ele>
        <time>2026-06-28T10:16:10Z</time>
      </trkpt>
      <trkpt lat="51.603919034823775" lon="-10.05121199414134">
        <ele>32.82</ele>
        <time>2026-06-28T10:16:12Z</time>
      </trkpt>
      <trkpt lat="51.603919034823775" lon="-10.05121199414134">
        <ele>33.299999999999997</ele>
        <time>2026-06-28T10:16:13Z</time>
      </trkpt>
      <trkpt lat="51.603919034823775" lon="-10.05121199414134">
        <ele>32.82</ele>
        <time>2026-06-28T10:16:25Z</time>
      </trkpt>
      <trkpt lat="51.603918028995395" lon="-10.051156003028154">
        <ele>32.340000000000003</ele>
        <time>2026-06-28T10:16:28Z</time>
      </trkpt>
      <trkpt lat="51.603918028995395" lon="-10.051091965287924">
        <ele>32.340000000000003</ele>
        <time>2026-06-28T10:16:29Z</time>
      </trkpt>
      <trkpt lat="51.603917023167014" lon="-10.050993980839849">
        <ele>32.340000000000003</ele>
        <time>2026-06-28T10:16:30Z</time>
      </trkpt>
      <trkpt lat="51.603915011510253" lon="-10.050860960036516">
        <ele>32.340000000000003</ele>
        <time>2026-06-28T10:16:31Z</time>
      </trkpt>
      <trkpt lat="51.603902019560337" lon="-10.049591017886996">
        <ele>29.940000000000001</ele>
        <time>2026-06-28T10:16:37Z</time>
      </trkpt>
      <trkpt lat="51.604097988456488" lon="-10.048024021089077">
        <ele>26.09</ele>
        <time>2026-06-28T10:16:44Z</time>
      </trkpt>
      <trkpt lat="51.604195972904563" lon="-10.04734399728477">
        <ele>21.77</ele>
        <time>2026-06-28T10:16:49Z</time>
      </trkpt>
      <trkpt lat="51.604195972904563" lon="-10.04734399728477">
        <ele>20.809999999999999</ele>
        <time>2026-06-28T10:17:01Z</time>
      </trkpt>
      <trkpt lat="51.604195972904563" lon="-10.04734399728477">
        <ele>19.359999999999999</ele>
        <time>2026-06-28T10:17:19Z</time>
      </trkpt>
      <trkpt lat="51.604202007874846" lon="-10.0473009981215">
        <ele>19.359999999999999</ele>
        <time>2026-06-28T10:17:30Z</time>
      </trkpt>
      <trkpt lat="51.604206031188369" lon="-10.047277025878429">
        <ele>19.359999999999999</ele>
        <time>2026-06-28T10:17:31Z</time>
      </trkpt>
      <trkpt lat="51.604250958189368" lon="-10.047245007008314">
        <ele>19.359999999999999</ele>
        <time>2026-06-28T10:17:32Z</time>
      </trkpt>
      <trkpt lat="51.604257998988032" lon="-10.047263028100133">
        <ele>19.359999999999999</ele>
        <time>2026-06-28T10:17:33Z</time>
      </trkpt>
      <trkpt lat="51.604273002594709" lon="-10.047303009778261">
        <ele>19.84</ele>
        <time>2026-06-28T10:17:34Z</time>
      </trkpt>
      <trkpt lat="51.60429697483778" lon="-10.047366041690111">
        <ele>19.84</ele>
        <time>2026-06-28T10:17:35Z</time>
      </trkpt>
      <trkpt lat="51.604326982051134" lon="-10.047440975904465">
        <ele>20.32</ele>
        <time>2026-06-28T10:17:36Z</time>
      </trkpt>
      <trkpt lat="51.60436000674963" lon="-10.047527980059385">
        <ele>20.809999999999999</ele>
        <time>2026-06-28T10:17:37Z</time>
      </trkpt>
      <trkpt lat="51.604399988427758" lon="-10.047629987820983">
        <ele>21.289999999999999</ele>
        <time>2026-06-28T10:17:38Z</time>
      </trkpt>
      <trkpt lat="51.60457500256598" lon="-10.048084035515785">
        <ele>26.09</ele>
        <time>2026-06-28T10:17:42Z</time>
      </trkpt>
      <trkpt lat="51.604620013386011" lon="-10.048200963065028">
        <ele>27.530000000000001</ele>
        <time>2026-06-28T10:17:43Z</time>
      </trkpt>
      <trkpt lat="51.604665024206042" lon="-10.048318980261683">
        <ele>28.5</ele>
        <time>2026-06-28T10:17:44Z</time>
      </trkpt>
      <trkpt lat="51.604734007269144" lon="-10.048541016876698">
        <ele>30.420000000000002</ele>
        <time>2026-06-28T10:17:46Z</time>
      </trkpt>
      <trkpt lat="51.604764014482498" lon="-10.048649981617928">
        <ele>31.379999999999999</ele>
        <time>2026-06-28T10:17:47Z</time>
      </trkpt>
      <trkpt lat="51.604796033352613" lon="-10.048765987157822">
        <ele>32.340000000000003</ele>
        <time>2026-06-28T10:17:48Z</time>
      </trkpt>
      <trkpt lat="51.604828974232078" lon="-10.048888027667999">
        <ele>33.299999999999997</ele>
        <time>2026-06-28T10:17:49Z</time>
      </trkpt>
      <trkpt lat="51.604865016415715" lon="-10.0490209646523">
        <ele>34.259999999999998</ele>
        <time>2026-06-28T10:17:50Z</time>
      </trkpt>
      <trkpt lat="51.605072971433401" lon="-10.049945991486311">
        <ele>40.509999999999998</ele>
        <time>2026-06-28T10:17:56Z</time>
      </trkpt>
      <trkpt lat="51.605095015838742" lon="-10.050092004239559">
        <ele>41.469999999999999</ele>
        <time>2026-06-28T10:17:57Z</time>
      </trkpt>
      <trkpt lat="51.605098033323884" lon="-10.050225025042892">
        <ele>42.439999999999998</ele>
        <time>2026-06-28T10:17:58Z</time>
      </trkpt>
      <trkpt lat="51.605086969211698" lon="-10.05052300170064">
        <ele>45.799999999999997</ele>
        <time>2026-06-28T10:18:01Z</time>
      </trkpt>
      <trkpt lat="51.605085041373968" lon="-10.050593996420503">
        <ele>46.759999999999998</ele>
        <time>2026-06-28T10:18:02Z</time>
      </trkpt>
      <trkpt lat="51.605083029717207" lon="-10.050645964220166">
        <ele>47.719999999999999</ele>
        <time>2026-06-28T10:18:03Z</time>
      </trkpt>
      <trkpt lat="51.605082023888826" lon="-10.050677983090281">
        <ele>48.200000000000003</ele>
        <time>2026-06-28T10:18:04Z</time>
      </trkpt>
      <trkpt lat="51.60511395893991" lon="-10.050688041374087">
        <ele>48.68</ele>
        <time>2026-06-28T10:18:05Z</time>
      </trkpt>
      <trkpt lat="51.60513499751687" lon="-10.050659961998463">
        <ele>49.159999999999997</ele>
        <time>2026-06-28T10:18:06Z</time>
      </trkpt>
      <trkpt lat="51.605163998901844" lon="-10.050624003633857">
        <ele>49.649999999999999</ele>
        <time>2026-06-28T10:18:07Z</time>
      </trkpt>
      <trkpt lat="51.605203980579972" lon="-10.050572035834193">
        <ele>50.130000000000003</ele>
        <time>2026-06-28T10:18:08Z</time>
      </trkpt>
      <trkpt lat="51.605382012203336" lon="-10.050370031967759">
        <ele>50.609999999999999</ele>
        <time>2026-06-28T10:18:11Z</time>
      </trkpt>
      <trkpt lat="51.605443032458425" lon="-10.050314040854573">
        <ele>50.609999999999999</ele>
        <time>2026-06-28T10:18:12Z</time>
      </trkpt>
      <trkpt lat="51.605495000258088" lon="-10.0502660125494">
        <ele>51.090000000000003</ele>
        <time>2026-06-28T10:18:13Z</time>
      </trkpt>
      <trkpt lat="51.605573035776615" lon="-10.050194012001157">
        <ele>51.090000000000003</ele>
        <time>2026-06-28T10:18:15Z</time>
      </trkpt>
      <trkpt lat="51.605631038546562" lon="-10.050187977030873">
        <ele>51.090000000000003</ele>
        <time>2026-06-28T10:18:16Z</time>
      </trkpt>
      <trkpt lat="51.605683006346226" lon="-10.050182025879622">
        <ele>51.57</ele>
        <time>2026-06-28T10:18:17Z</time>
      </trkpt>
      <trkpt lat="51.605844022706151" lon="-10.050190994516015">
        <ele>53.009999999999998</ele>
        <time>2026-06-28T10:18:20Z</time>
      </trkpt>
      <trkpt lat="51.605900013819337" lon="-10.050203986465931">
        <ele>53.490000000000002</ele>
        <time>2026-06-28T10:18:21Z</time>
      </trkpt>
      <trkpt lat="51.606019036844373" lon="-10.050231982022524">
        <ele>54.450000000000003</ele>
        <time>2026-06-28T10:18:23Z</time>
      </trkpt>
      <trkpt lat="51.606074022129178" lon="-10.05024497397244">
        <ele>55.409999999999997</ele>
        <time>2026-06-28T10:18:24Z</time>
      </trkpt>
      <trkpt lat="51.606131019070745" lon="-10.050258971750736">
        <ele>55.890000000000001</ele>
        <time>2026-06-28T10:18:25Z</time>
      </trkpt>
      <trkpt lat="51.60616697743535" lon="-10.050198035314679">
        <ele>56.859999999999999</ele>
        <time>2026-06-28T10:18:26Z</time>
      </trkpt>
      <trkpt lat="51.606217017397285" lon="-10.050114970654249">
        <ele>57.82</ele>
        <time>2026-06-28T10:18:27Z</time>
      </trkpt>
      <trkpt lat="51.606276025995612" lon="-10.050014974549413">
        <ele>58.780000000000001</ele>
        <time>2026-06-28T10:18:28Z</time>
      </trkpt>
      <trkpt lat="51.606342997401953" lon="-10.04990098066628">
        <ele>59.259999999999998</ele>
        <time>2026-06-28T10:18:29Z</time>
      </trkpt>
      <trkpt lat="51.606597974896431" lon="-10.049289017915726">
        <ele>65.989999999999995</ele>
        <time>2026-06-28T10:18:35Z</time>
      </trkpt>
      <trkpt lat="51.606597974896431" lon="-10.049289017915726">
        <ele>66.950000000000003</ele>
        <time>2026-06-28T10:18:45Z</time>
      </trkpt>
      <trkpt lat="51.606597974896431" lon="-10.049289017915726">
        <ele>67.909999999999997</ele>
        <time>2026-06-28T10:19:31Z</time>
      </trkpt>
      <trkpt lat="51.606633011251688" lon="-10.049200002104044">
        <ele>67.430000000000007</ele>
        <time>2026-06-28T10:20:00Z</time>
      </trkpt>
      <trkpt lat="51.606911960989237" lon="-10.048517966642976">
        <ele>66.950000000000003</ele>
        <time>2026-06-28T10:20:07Z</time>
      </trkpt>
      <trkpt lat="51.606946997344494" lon="-10.048434985801578">
        <ele>67.430000000000007</ele>
        <time>2026-06-28T10:20:08Z</time>
      </trkpt>
      <trkpt lat="51.606946997344494" lon="-10.048434985801578">
        <ele>67.430000000000007</ele>
        <time>2026-06-28T10:20:09Z</time>
      </trkpt>
      <trkpt lat="51.606998965144157" lon="-10.048444038257003">
        <ele>67.430000000000007</ele>
        <time>2026-06-28T10:20:10Z</time>
      </trkpt>
      <trkpt lat="51.607037018984556" lon="-10.048450995236635">
        <ele>67.909999999999997</ele>
        <time>2026-06-28T10:20:11Z</time>
      </trkpt>
      <trkpt lat="51.607082029804587" lon="-10.04845904186368">
        <ele>67.909999999999997</ele>
        <time>2026-06-28T10:20:12Z</time>
      </trkpt>
      <trkpt lat="51.607127962633967" lon="-10.048467004671693">
        <ele>68.390000000000001</ele>
        <time>2026-06-28T10:20:13Z</time>
      </trkpt>
      <trkpt lat="51.607170039787889" lon="-10.048473961651325">
        <ele>68.870000000000005</ele>
        <time>2026-06-28T10:20:14Z</time>
      </trkpt>
      <trkpt lat="51.607255032286048" lon="-10.048488965258002">
        <ele>69.829999999999998</ele>
        <time>2026-06-28T10:20:16Z</time>
      </trkpt>
      <trkpt lat="51.607295013964176" lon="-10.048496006056666">
        <ele>70.310000000000002</ele>
        <time>2026-06-28T10:20:17Z</time>
      </trkpt>
      <trkpt lat="51.607328960672021" lon="-10.048474967479706">
        <ele>70.790000000000006</ele>
        <time>2026-06-28T10:20:18Z</time>
      </trkpt>
      <trkpt lat="51.607365002855659" lon="-10.048426017165184">
        <ele>71.269999999999996</ele>
        <time>2026-06-28T10:20:19Z</time>
      </trkpt>
      <trkpt lat="51.607402972877026" lon="-10.048374971374869">
        <ele>72.239999999999995</ele>
        <time>2026-06-28T10:20:20Z</time>
      </trkpt>
      <trkpt lat="51.607442032545805" lon="-10.048321997746825">
        <ele>72.719999999999999</ele>
        <time>2026-06-28T10:20:21Z</time>
      </trkpt>
      <trkpt lat="51.607478996738791" lon="-10.048271035775542">
        <ele>73.680000000000007</ele>
        <time>2026-06-28T10:20:22Z</time>
      </trkpt>
      <trkpt lat="51.607515038922429" lon="-10.048220995813608">
        <ele>74.640000000000001</ele>
        <time>2026-06-28T10:20:23Z</time>
      </trkpt>
      <trkpt lat="51.607564995065331" lon="-10.048179002478719">
        <ele>75.599999999999994</ele>
        <time>2026-06-28T10:20:24Z</time>
      </trkpt>
      <trkpt lat="51.607616040855646" lon="-10.048182019963861">
        <ele>77.040000000000006</ele>
        <time>2026-06-28T10:20:25Z</time>
      </trkpt>
      <trkpt lat="51.607670020312071" lon="-10.048186965286732">
        <ele>78</ele>
        <time>2026-06-28T10:20:26Z</time>
      </trkpt>
      <trkpt lat="51.607849979773164" lon="-10.048188976943493">
        <ele>81.370000000000005</ele>
        <time>2026-06-28T10:20:29Z</time>
      </trkpt>
      <trkpt lat="51.607912005856633" lon="-10.048162993043661">
        <ele>82.329999999999998</ele>
        <time>2026-06-28T10:20:30Z</time>
      </trkpt>
      <trkpt lat="51.608091965317726" lon="-10.048086969181895">
        <ele>85.689999999999998</ele>
        <time>2026-06-28T10:20:33Z</time>
      </trkpt>
      <trkpt lat="51.608149968087673" lon="-10.048062996938825">
        <ele>87.140000000000001</ele>
        <time>2026-06-28T10:20:34Z</time>
      </trkpt>
      <trkpt lat="51.608210988342762" lon="-10.048037013038993">
        <ele>87.620000000000005</ele>
        <time>2026-06-28T10:20:35Z</time>
      </trkpt>
      <trkpt lat="51.608263961970806" lon="-10.048032989725471">
        <ele>88.579999999999998</ele>
        <time>2026-06-28T10:20:36Z</time>
      </trkpt>
      <trkpt lat="51.608324982225895" lon="-10.048044975847006">
        <ele>89.540000000000006</ele>
        <time>2026-06-28T10:20:37Z</time>
      </trkpt>
      <trkpt lat="51.6083799675107" lon="-10.048056039959192">
        <ele>90.980000000000004</ele>
        <time>2026-06-28T10:20:38Z</time>
      </trkpt>
      <trkpt lat="51.608459008857608" lon="-10.048093004152179">
        <ele>92.420000000000002</ele>
        <time>2026-06-28T10:20:39Z</time>
      </trkpt>
      <trkpt lat="51.608501002192497" lon="-10.048186965286732">
        <ele>93.390000000000001</ele>
        <time>2026-06-28T10:20:40Z</time>
      </trkpt>
      <trkpt lat="51.608540983870625" lon="-10.048278998583555">
        <ele>94.349999999999994</ele>
        <time>2026-06-28T10:20:41Z</time>
      </trkpt>
      <trkpt lat="51.608575014397502" lon="-10.04835401661694">
        <ele>95.310000000000002</ele>
        <time>2026-06-28T10:20:42Z</time>
      </trkpt>
      <trkpt lat="51.608607033267617" lon="-10.048426017165184">
        <ele>95.790000000000006</ele>
        <time>2026-06-28T10:20:43Z</time>
      </trkpt>
      <trkpt lat="51.608653971925378" lon="-10.048450995236635">
        <ele>96.269999999999996</ele>
        <time>2026-06-28T10:20:44Z</time>
      </trkpt>
      <trkpt lat="51.608697976917028" lon="-10.048444038257003">
        <ele>97.709999999999994</ele>
        <time>2026-06-28T10:20:45Z</time>
      </trkpt>
      <trkpt lat="51.608752040192485" lon="-10.048434985801578">
        <ele>98.670000000000002</ele>
        <time>2026-06-28T10:20:46Z</time>
      </trkpt>
      <trkpt lat="51.608812976628542" lon="-10.048424005508423">
        <ele>99.629999999999995</ele>
        <time>2026-06-28T10:20:47Z</time>
      </trkpt>
      <trkpt lat="51.608877014368773" lon="-10.048414031043649">
        <ele>101.08</ele>
        <time>2026-06-28T10:20:48Z</time>
      </trkpt>
      <trkpt lat="51.609202986583114" lon="-10.048358961939812">
        <ele>106.36</ele>
        <time>2026-06-28T10:20:53Z</time>
      </trkpt>
      <trkpt lat="51.609264006838202" lon="-10.048348987475038">
        <ele>107.31999999999999</ele>
        <time>2026-06-28T10:20:54Z</time>
      </trkpt>
      <trkpt lat="51.609321003779769" lon="-10.048378994688392">
        <ele>108.29000000000001</ele>
        <time>2026-06-28T10:20:55Z</time>
      </trkpt>
      <trkpt lat="51.609375989064574" lon="-10.048407996073365">
        <ele>109.25</ele>
        <time>2026-06-28T10:20:56Z</time>
      </trkpt>
      <trkpt lat="51.609428962692618" lon="-10.048435991629958">
        <ele>110.20999999999999</ele>
        <time>2026-06-28T10:20:57Z</time>
      </trkpt>
      <trkpt lat="51.609482020139694" lon="-10.048464993014932">
        <ele>111.17</ele>
        <time>2026-06-28T10:20:58Z</time>
      </trkpt>
      <trkpt lat="51.609533987939358" lon="-10.048491982743144">
        <ele>112.13</ele>
        <time>2026-06-28T10:20:59Z</time>
      </trkpt>
      <trkpt lat="51.609629038721323" lon="-10.048542022705078">
        <ele>113.09</ele>
        <time>2026-06-28T10:21:00Z</time>
      </trkpt>
      <trkpt lat="51.609632978215814" lon="-10.048542022705078">
        <ele>114.05</ele>
        <time>2026-06-28T10:21:01Z</time>
      </trkpt>
      <trkpt lat="51.609693998470902" lon="-10.048542022705078">
        <ele>115.01000000000001</ele>
        <time>2026-06-28T10:21:02Z</time>
      </trkpt>
      <trkpt lat="51.610388020053506" lon="-10.048315962776542">
        <ele>121.73999999999999</ele>
        <time>2026-06-28T10:21:11Z</time>
      </trkpt>
      <trkpt lat="51.611293014138937" lon="-10.048306994140148">
        <ele>128.94999999999999</ele>
        <time>2026-06-28T10:21:23Z</time>
      </trkpt>
      <trkpt lat="51.612232960760593" lon="-10.048600025475025">
        <ele>135.19999999999999</ele>
        <time>2026-06-28T10:21:35Z</time>
      </trkpt>
      <trkpt lat="51.612413004040718" lon="-10.048656016588211">
        <ele>136.63999999999999</ele>
        <time>2026-06-28T10:21:38Z</time>
      </trkpt>
      <trkpt lat="51.612476035952568" lon="-10.048639001324773">
        <ele>137.13</ele>
        <time>2026-06-28T10:21:39Z</time>
      </trkpt>
      <trkpt lat="51.61250595934689" lon="-10.048573035746813">
        <ele>137.61000000000001</ele>
        <time>2026-06-28T10:21:40Z</time>
      </trkpt>
      <trkpt lat="51.612538984045386" lon="-10.048500029370189">
        <ele>137.61000000000001</ele>
        <time>2026-06-28T10:21:41Z</time>
      </trkpt>
      <trkpt lat="51.612574020400643" lon="-10.048414031043649">
        <ele>138.09</ele>
        <time>2026-06-28T10:21:42Z</time>
      </trkpt>
      <trkpt lat="51.612597992643714" lon="-10.048315962776542">
        <ele>138.09</ele>
        <time>2026-06-28T10:21:43Z</time>
      </trkpt>
      <trkpt lat="51.612669993191957" lon="-10.047809025272727">
        <ele>137.61000000000001</ele>
        <time>2026-06-28T10:21:47Z</time>
      </trkpt>
      <trkpt lat="51.612666975706816" lon="-10.047684973105788">
        <ele>137.13</ele>
        <time>2026-06-28T10:21:48Z</time>
      </trkpt>
      <trkpt lat="51.612663036212325" lon="-10.04755899310112">
        <ele>136.63999999999999</ele>
        <time>2026-06-28T10:21:49Z</time>
      </trkpt>
      <trkpt lat="51.612651972100139" lon="-10.047173006460071">
        <ele>135.19999999999999</ele>
        <time>2026-06-28T10:21:52Z</time>
      </trkpt>
      <trkpt lat="51.612640991806984" lon="-10.045883031561971">
        <ele>131.84</ele>
        <time>2026-06-28T10:22:01Z</time>
      </trkpt>
      <trkpt lat="51.612643003463745" lon="-10.045730983838439">
        <ele>131.36000000000001</ele>
        <time>2026-06-28T10:22:02Z</time>
      </trkpt>
      <trkpt lat="51.612645015120506" lon="-10.045582037419081">
        <ele>131.36000000000001</ele>
        <time>2026-06-28T10:22:03Z</time>
      </trkpt>
      <trkpt lat="51.612649038434029" lon="-10.045309038832784">
        <ele>131.36000000000001</ele>
        <time>2026-06-28T10:22:05Z</time>
      </trkpt>
      <trkpt lat="51.612650966271758" lon="-10.045178029686213">
        <ele>131.36000000000001</ele>
        <time>2026-06-28T10:22:06Z</time>
      </trkpt>
      <trkpt lat="51.61267401650548" lon="-10.043491004034877">
        <ele>131.84</ele>
        <time>2026-06-28T10:22:17Z</time>
      </trkpt>
      <trkpt lat="51.612566979601979" lon="-10.041791992262006">
        <ele>136.63999999999999</ele>
        <time>2026-06-28T10:22:28Z</time>
      </trkpt>
      <trkpt lat="51.612625988200307" lon="-10.040098009631038">
        <ele>136.63999999999999</ele>
        <time>2026-06-28T10:22:38Z</time>
      </trkpt>
      <trkpt lat="51.612822040915489" lon="-10.038412995636463">
        <ele>141.93000000000001</ele>
        <time>2026-06-28T10:22:49Z</time>
      </trkpt>
      <trkpt lat="51.612951038405299" lon="-10.037872027605772">
        <ele>144.34</ele>
        <time>2026-06-28T10:22:53Z</time>
      </trkpt>
      <trkpt lat="51.612981967628002" lon="-10.03774001263082">
        <ele>144.81999999999999</ele>
        <time>2026-06-28T10:22:54Z</time>
      </trkpt>
      <trkpt lat="51.613015998154879" lon="-10.037599029019475">
        <ele>145.30000000000001</ele>
        <time>2026-06-28T10:22:55Z</time>
      </trkpt>
      <trkpt lat="51.613225964829326" lon="-10.035819970071316">
        <ele>151.06</ele>
        <time>2026-06-28T10:23:05Z</time>
      </trkpt>
      <trkpt lat="51.613463005051017" lon="-10.033925995230675">
        <ele>154.43000000000001</ele>
        <time>2026-06-28T10:23:17Z</time>
      </trkpt>
      <trkpt lat="51.613728040829301" lon="-10.031876033172011">
        <ele>151.53999999999999</ele>
        <time>2026-06-28T10:23:30Z</time>
      </trkpt>
      <trkpt lat="51.613843962550163" lon="-10.031460961326957">
        <ele>150.09999999999999</ele>
        <time>2026-06-28T10:23:33Z</time>
      </trkpt>
      <trkpt lat="51.613876987248659" lon="-10.031369011849165">
        <ele>150.09999999999999</ele>
        <time>2026-06-28T10:23:34Z</time>
      </trkpt>
      <trkpt lat="51.613911017775536" lon="-10.031277984380722">
        <ele>149.62</ele>
        <time>2026-06-28T10:23:35Z</time>
      </trkpt>
      <trkpt lat="51.61398502998054" lon="-10.031075980514288">
        <ele>149.13999999999999</ele>
        <time>2026-06-28T10:23:36Z</time>
      </trkpt>
      <trkpt lat="51.614009002223611" lon="-10.031061982735991">
        <ele>149.13999999999999</ele>
        <time>2026-06-28T10:23:37Z</time>
      </trkpt>
      <trkpt lat="51.614087037742138" lon="-10.03101596608758">
        <ele>149.13999999999999</ele>
        <time>2026-06-28T10:23:38Z</time>
      </trkpt>
      <trkpt lat="51.615041987970471" lon="-10.030151037499309">
        <ele>153.47</ele>
        <time>2026-06-28T10:23:50Z</time>
      </trkpt>
      <trkpt lat="51.615984030067921" lon="-10.029670000076294">
        <ele>160.19999999999999</ele>
        <time>2026-06-28T10:24:01Z</time>
      </trkpt>
      <trkpt lat="51.617099996656179" lon="-10.028921999037266">
        <ele>162.59999999999999</ele>
        <time>2026-06-28T10:24:13Z</time>
      </trkpt>
      <trkpt lat="51.617192029953003" lon="-10.028859972953796">
        <ele>162.59999999999999</ele>
        <time>2026-06-28T10:24:14Z</time>
      </trkpt>
      <trkpt lat="51.617283979430795" lon="-10.028798030689359">
        <ele>162.59999999999999</ele>
        <time>2026-06-28T10:24:15Z</time>
      </trkpt>
      <trkpt lat="51.617369977757335" lon="-10.028659980744123">
        <ele>162.12</ele>
        <time>2026-06-28T10:24:16Z</time>
      </trkpt>
      <trkpt lat="51.617435021325946" lon="-10.028529977425933">
        <ele>161.63999999999999</ele>
        <time>2026-06-28T10:24:17Z</time>
      </trkpt>
      <trkpt lat="51.617499981075525" lon="-10.028400979936123">
        <ele>161.16</ele>
        <time>2026-06-28T10:24:18Z</time>
      </trkpt>
      <trkpt lat="51.618140023201704" lon="-10.027236985042691">
        <ele>155.38999999999999</ele>
        <time>2026-06-28T10:24:27Z</time>
      </trkpt>
      <trkpt lat="51.618212023749948" lon="-10.027122991159558">
        <ele>154.91</ele>
        <time>2026-06-28T10:24:28Z</time>
      </trkpt>
      <trkpt lat="51.618233984336257" lon="-10.026970021426678">
        <ele>154.43000000000001</ele>
        <time>2026-06-28T10:24:29Z</time>
      </trkpt>
      <trkpt lat="51.618401035666466" lon="-10.025765961036086">
        <ele>150.09999999999999</ele>
        <time>2026-06-28T10:24:37Z</time>
      </trkpt>
      <trkpt lat="51.61841101013124" lon="-10.025693960487843">
        <ele>150.09999999999999</ele>
        <time>2026-06-28T10:24:38Z</time>
      </trkpt>
      <trkpt lat="51.618425007909536" lon="-10.02559999935329">
        <ele>149.13999999999999</ele>
        <time>2026-06-28T10:24:41Z</time>
      </trkpt>
      <trkpt lat="51.618478987365961" lon="-10.02549497410655">
        <ele>148.66</ele>
        <time>2026-06-28T10:24:42Z</time>
      </trkpt>
      <trkpt lat="51.618496002629399" lon="-10.025531016290188">
        <ele>149.13999999999999</ele>
        <time>2026-06-28T10:24:43Z</time>
      </trkpt>
      <trkpt lat="51.618531038984656" lon="-10.025602011010051">
        <ele>149.13999999999999</ele>
        <time>2026-06-28T10:24:44Z</time>
      </trkpt>
      <trkpt lat="51.618577977642417" lon="-10.025699995458126">
        <ele>149.62</ele>
        <time>2026-06-28T10:24:45Z</time>
      </trkpt>
      <trkpt lat="51.618833960965276" lon="-10.02622595988214">
        <ele>152.50999999999999</ele>
        <time>2026-06-28T10:24:49Z</time>
      </trkpt>
      <trkpt lat="51.61888500675559" lon="-10.026340037584305">
        <ele>152.99000000000001</ele>
        <time>2026-06-28T10:24:50Z</time>
      </trkpt>
      <trkpt lat="51.618919959291816" lon="-10.026530977338552">
        <ele>153.47</ele>
        <time>2026-06-28T10:24:51Z</time>
      </trkpt>
      <trkpt lat="51.618919959291816" lon="-10.026700040325522">
        <ele>153.94999999999999</ele>
        <time>2026-06-28T10:24:52Z</time>
      </trkpt>
      <trkpt lat="51.618919959291816" lon="-10.026878993958235">
        <ele>154.91</ele>
        <time>2026-06-28T10:24:53Z</time>
      </trkpt>
      <trkpt lat="51.618914008140564" lon="-10.027064988389611">
        <ele>155.38999999999999</ele>
        <time>2026-06-28T10:24:54Z</time>
      </trkpt>
      <trkpt lat="51.618888024240732" lon="-10.027249976992607">
        <ele>156.34999999999999</ele>
        <time>2026-06-28T10:24:55Z</time>
      </trkpt>
      <trkpt lat="51.61886103451252" lon="-10.027441000565886">
        <ele>156.83000000000001</ele>
        <time>2026-06-28T10:24:56Z</time>
      </trkpt>
      <trkpt lat="51.618790961802006" lon="-10.02794299274683">
        <ele>158.75</ele>
        <time>2026-06-28T10:24:59Z</time>
      </trkpt>
      <trkpt lat="51.618819963186979" lon="-10.028137033805251">
        <ele>159.24000000000001</ele>
        <time>2026-06-28T10:25:00Z</time>
      </trkpt>
      <trkpt lat="51.618846030905843" lon="-10.02830701880157">
        <ele>159.72</ele>
        <time>2026-06-28T10:25:01Z</time>
      </trkpt>
      <trkpt lat="51.618878971785307" lon="-10.028484966605902">
        <ele>160.68000000000001</ele>
        <time>2026-06-28T10:25:02Z</time>
      </trkpt>
      <trkpt lat="51.618919959291816" lon="-10.028680013492703">
        <ele>161.16</ele>
        <time>2026-06-28T10:25:03Z</time>
      </trkpt>
      <trkpt lat="51.618961030617356" lon="-10.028876988217235">
        <ele>161.63999999999999</ele>
        <time>2026-06-28T10:25:04Z</time>
      </trkpt>
      <trkpt lat="51.619069995358586" lon="-10.028993999585509">
        <ele>162.59999999999999</ele>
        <time>2026-06-28T10:25:05Z</time>
      </trkpt>
      <trkpt lat="51.619187006726861" lon="-10.029111010953784">
        <ele>163.56</ele>
        <time>2026-06-28T10:25:06Z</time>
      </trkpt>
      <trkpt lat="51.619304018095136" lon="-10.029228022322059">
        <ele>164.52000000000001</ele>
        <time>2026-06-28T10:25:07Z</time>
      </trkpt>
      <trkpt lat="51.619411977007985" lon="-10.029303040355444">
        <ele>165.47999999999999</ele>
        <time>2026-06-28T10:25:08Z</time>
      </trkpt>
      <trkpt lat="51.619538040831685" lon="-10.029360959306359">
        <ele>165.96000000000001</ele>
        <time>2026-06-28T10:25:09Z</time>
      </trkpt>
      <trkpt lat="51.619662009179592" lon="-10.029418962076306">
        <ele>166.44999999999999</ele>
        <time>2026-06-28T10:25:10Z</time>
      </trkpt>
      <trkpt lat="51.620743023231626" lon="-10.029937969520688">
        <ele>165.96000000000001</ele>
        <time>2026-06-28T10:25:20Z</time>
      </trkpt>
      <trkpt lat="51.620977967977524" lon="-10.029825987294316">
        <ele>164.03999999999999</ele>
        <time>2026-06-28T10:25:29Z</time>
      </trkpt>
      <trkpt lat="51.620977967977524" lon="-10.029825987294316">
        <ele>164.03999999999999</ele>
        <time>2026-06-28T10:26:04Z</time>
      </trkpt>
      <trkpt lat="51.621138984337449" lon="-10.029749041423202">
        <ele>164.03999999999999</ele>
        <time>2026-06-28T10:26:38Z</time>
      </trkpt>
      <trkpt lat="51.62180501036346" lon="-10.029246965423226">
        <ele>159.72</ele>
        <time>2026-06-28T10:26:46Z</time>
      </trkpt>
      <trkpt lat="51.621902994811535" lon="-10.029165996238589">
        <ele>159.24000000000001</ele>
        <time>2026-06-28T10:26:47Z</time>
      </trkpt>
      <trkpt lat="51.621980024501681" lon="-10.029149986803532">
        <ele>158.27000000000001</ele>
        <time>2026-06-28T10:26:48Z</time>
      </trkpt>
      <trkpt lat="51.622404986992478" lon="-10.02906097099185">
        <ele>153.94999999999999</ele>
        <time>2026-06-28T10:26:56Z</time>
      </trkpt>
      <trkpt lat="51.62247397005558" lon="-10.029046973213553">
        <ele>153.47</ele>
        <time>2026-06-28T10:27:12Z</time>
      </trkpt>
      <trkpt lat="51.622529961168766" lon="-10.029034987092018">
        <ele>152.99000000000001</ele>
        <time>2026-06-28T10:27:13Z</time>
      </trkpt>
      <trkpt lat="51.623162040486932" lon="-10.028636008501053">
        <ele>150.09999999999999</ele>
        <time>2026-06-28T10:27:20Z</time>
      </trkpt>
      <trkpt lat="51.62335398606956" lon="-10.028497036546469">
        <ele>149.13999999999999</ele>
        <time>2026-06-28T10:27:22Z</time>
      </trkpt>
      <trkpt lat="51.623451970517635" lon="-10.028435010462999">
        <ele>148.66</ele>
        <time>2026-06-28T10:27:23Z</time>
      </trkpt>
      <trkpt lat="51.623550960794091" lon="-10.028371978551149">
        <ele>147.69999999999999</ele>
        <time>2026-06-28T10:27:24Z</time>
      </trkpt>
      <trkpt lat="51.624439023435116" lon="-10.028172992169857">
        <ele>143.37</ele>
        <time>2026-06-28T10:27:32Z</time>
      </trkpt>
      <trkpt lat="51.62455796264112" lon="-10.028127981349826">
        <ele>142.88999999999999</ele>
        <time>2026-06-28T10:27:33Z</time>
      </trkpt>
      <trkpt lat="51.624666005373001" lon="-10.028040977194905">
        <ele>142.41</ele>
        <time>2026-06-28T10:27:34Z</time>
      </trkpt>
      <trkpt lat="51.626020018011332" lon="-10.027059959247708">
        <ele>137.13</ele>
        <time>2026-06-28T10:27:45Z</time>
      </trkpt>
      <trkpt lat="51.627666978165507" lon="-10.026442967355251">
        <ele>131.36000000000001</ele>
        <time>2026-06-28T10:27:58Z</time>
      </trkpt>
      <trkpt lat="51.628183973953128" lon="-10.026447996497154">
        <ele>128.47</ele>
        <time>2026-06-28T10:28:02Z</time>
      </trkpt>
      <trkpt lat="51.628298973664641" lon="-10.026514967903495">
        <ele>127.51000000000001</ele>
        <time>2026-06-28T10:28:03Z</time>
      </trkpt>
      <trkpt lat="51.628413973376155" lon="-10.026581017300487">
        <ele>127.03</ele>
        <time>2026-06-28T10:28:04Z</time>
      </trkpt>
      <trkpt lat="51.628622012212873" lon="-10.026701968163252">
        <ele>126.06999999999999</ele>
        <time>2026-06-28T10:28:06Z</time>
      </trkpt>
      <trkpt lat="51.628715973347425" lon="-10.026757037267089">
        <ele>125.59</ele>
        <time>2026-06-28T10:28:07Z</time>
      </trkpt>
      <trkpt lat="51.628803983330727" lon="-10.026729963719845">
        <ele>125.11</ele>
        <time>2026-06-28T10:28:08Z</time>
      </trkpt>
      <trkpt lat="51.628887970000505" lon="-10.026695011183619">
        <ele>124.63</ele>
        <time>2026-06-28T10:28:09Z</time>
      </trkpt>
      <trkpt lat="51.628971034660935" lon="-10.026660980656743">
        <ele>124.15000000000001</ele>
        <time>2026-06-28T10:28:10Z</time>
      </trkpt>
      <trkpt lat="51.629054015502334" lon="-10.026626028120518">
        <ele>124.15000000000001</ele>
        <time>2026-06-28T10:28:11Z</time>
      </trkpt>
      <trkpt lat="51.629140013828874" lon="-10.02658998593688">
        <ele>123.67</ele>
        <time>2026-06-28T10:28:12Z</time>
      </trkpt>
      <trkpt lat="51.629220983013511" lon="-10.026556039229035">
        <ele>123.67</ele>
        <time>2026-06-28T10:28:13Z</time>
      </trkpt>
      <trkpt lat="51.629294995218515" lon="-10.026598032563925">
        <ele>123.19</ele>
        <time>2026-06-28T10:28:14Z</time>
      </trkpt>
      <trkpt lat="51.629379987716675" lon="-10.026676990091801">
        <ele>122.22</ele>
        <time>2026-06-28T10:28:15Z</time>
      </trkpt>
      <trkpt lat="51.629474032670259" lon="-10.026763994246721">
        <ele>121.73999999999999</ele>
        <time>2026-06-28T10:28:16Z</time>
      </trkpt>
      <trkpt lat="51.629752982407808" lon="-10.02719197422266">
        <ele>119.81999999999999</ele>
        <time>2026-06-28T10:28:19Z</time>
      </trkpt>
      <trkpt lat="51.629822971299291" lon="-10.027359025552869">
        <ele>118.86</ele>
        <time>2026-06-28T10:28:20Z</time>
      </trkpt>
      <trkpt lat="51.629882985725999" lon="-10.027519958093762">
        <ele>117.90000000000001</ele>
        <time>2026-06-28T10:28:21Z</time>
      </trkpt>
      <trkpt lat="51.630035033449531" lon="-10.028328979387879">
        <ele>115.01000000000001</ele>
        <time>2026-06-28T10:28:26Z</time>
      </trkpt>
      <trkpt lat="51.630022963508964" lon="-10.028556967154145">
        <ele>114.53</ele>
        <time>2026-06-28T10:28:27Z</time>
      </trkpt>
      <trkpt lat="51.63001399487257" lon="-10.028728041797876">
        <ele>114.05</ele>
        <time>2026-06-28T10:28:28Z</time>
      </trkpt>
      <trkpt lat="51.630002008751035" lon="-10.029472019523382">
        <ele>111.17</ele>
        <time>2026-06-28T10:28:32Z</time>
      </trkpt>
      <trkpt lat="51.630007959902287" lon="-10.029643010348082">
        <ele>110.20999999999999</ele>
        <time>2026-06-28T10:28:33Z</time>
      </trkpt>
      <trkpt lat="51.63001399487257" lon="-10.029831016436219">
        <ele>109.73</ele>
        <time>2026-06-28T10:28:34Z</time>
      </trkpt>
      <trkpt lat="51.630137963220477" lon="-10.030189007520676">
        <ele>107.31999999999999</ele>
        <time>2026-06-28T10:28:39Z</time>
      </trkpt>
      <trkpt lat="51.630184985697269" lon="-10.030324961990118">
        <ele>106.84</ele>
        <time>2026-06-28T10:28:40Z</time>
      </trkpt>
      <trkpt lat="51.630459995940328" lon="-10.030881017446518">
        <ele>104.44</ele>
        <time>2026-06-28T10:28:44Z</time>
      </trkpt>
      <trkpt lat="51.63061598315835" lon="-10.031199026852846">
        <ele>103</ele>
        <time>2026-06-28T10:28:46Z</time>
      </trkpt>
      <trkpt lat="51.630694018676877" lon="-10.031356019899249">
        <ele>102.52</ele>
        <time>2026-06-28T10:28:47Z</time>
      </trkpt>
      <trkpt lat="51.630755038931966" lon="-10.031480994075537">
        <ele>102.04000000000001</ele>
        <time>2026-06-28T10:28:48Z</time>
      </trkpt>
      <trkpt lat="51.630794014781713" lon="-10.031559029594064">
        <ele>101.56</ele>
        <time>2026-06-28T10:28:49Z</time>
      </trkpt>
      <trkpt lat="51.630813963711262" lon="-10.031601022928953">
        <ele>101.56</ele>
        <time>2026-06-28T10:28:50Z</time>
      </trkpt>
      <trkpt lat="51.630824021995068" lon="-10.031620971858501">
        <ele>101.56</ele>
        <time>2026-06-28T10:28:51Z</time>
      </trkpt>
      <trkpt lat="51.630831984803081" lon="-10.031636981293559">
        <ele>101.08</ele>
        <time>2026-06-28T10:28:52Z</time>
      </trkpt>
      <trkpt lat="51.630841037258506" lon="-10.031656008213758">
        <ele>101.08</ele>
        <time>2026-06-28T10:28:53Z</time>
      </trkpt>
      <trkpt lat="51.630849000066519" lon="-10.031672017648816">
        <ele>100.59999999999999</ele>
        <time>2026-06-28T10:28:54Z</time>
      </trkpt>
      <trkpt lat="51.630849000066519" lon="-10.031672017648816">
        <ele>100.11</ele>
        <time>2026-06-28T10:28:55Z</time>
      </trkpt>
      <trkpt lat="51.630849000066519" lon="-10.031672017648816">
        <ele>98.670000000000002</ele>
        <time>2026-06-28T10:29:10Z</time>
      </trkpt>
      <trkpt lat="51.630849000066519" lon="-10.031672017648816">
        <ele>98.670000000000002</ele>
        <time>2026-06-28T10:30:02Z</time>
      </trkpt>
      <trkpt lat="51.630849000066519" lon="-10.031672017648816">
        <ele>98.189999999999998</ele>
        <time>2026-06-28T10:30:56Z</time>
      </trkpt>
      <trkpt lat="51.630889987573028" lon="-10.031753992661834">
        <ele>98.670000000000002</ele>
        <time>2026-06-28T10:31:26Z</time>
      </trkpt>
      <trkpt lat="51.630914965644479" lon="-10.031805038452148">
        <ele>99.150000000000006</ele>
        <time>2026-06-28T10:31:27Z</time>
      </trkpt>
      <trkpt lat="51.63091697730124" lon="-10.031820964068174">
        <ele>99.150000000000006</ele>
        <time>2026-06-28T10:31:28Z</time>
      </trkpt>
      <trkpt lat="51.630927035585046" lon="-10.03191702067852">
        <ele>98.670000000000002</ele>
        <time>2026-06-28T10:31:29Z</time>
      </trkpt>
      <trkpt lat="51.630903985351324" lon="-10.032043000683188">
        <ele>98.189999999999998</ele>
        <time>2026-06-28T10:31:30Z</time>
      </trkpt>
      <trkpt lat="51.630844976752996" lon="-10.032123969867826">
        <ele>98.189999999999998</ele>
        <time>2026-06-28T10:31:31Z</time>
      </trkpt>
      <trkpt lat="51.630783034488559" lon="-10.032210974022746">
        <ele>97.709999999999994</ele>
        <time>2026-06-28T10:31:32Z</time>
      </trkpt>
      <trkpt lat="51.630718996748328" lon="-10.032298984006047">
        <ele>97.230000000000004</ele>
        <time>2026-06-28T10:31:33Z</time>
      </trkpt>
      <trkpt lat="51.630656970664859" lon="-10.032384982332587">
        <ele>96.75</ele>
        <time>2026-06-28T10:31:34Z</time>
      </trkpt>
      <trkpt lat="51.630596034228802" lon="-10.032513979822397">
        <ele>96.269999999999996</ele>
        <time>2026-06-28T10:31:35Z</time>
      </trkpt>
      <trkpt lat="51.630533002316952" lon="-10.03264800645411">
        <ele>95.310000000000002</ele>
        <time>2026-06-28T10:31:36Z</time>
      </trkpt>
      <trkpt lat="51.630445998162031" lon="-10.032949000597">
        <ele>93.870000000000005</ele>
        <time>2026-06-28T10:31:38Z</time>
      </trkpt>
      <trkpt lat="51.630428982898593" lon="-10.033099036663771">
        <ele>93.390000000000001</ele>
        <time>2026-06-28T10:31:39Z</time>
      </trkpt>
      <trkpt lat="51.630412973463535" lon="-10.033231973648071">
        <ele>92.900000000000006</ele>
        <time>2026-06-28T10:31:40Z</time>
      </trkpt>
      <trkpt lat="51.630413979291916" lon="-10.033379998058081">
        <ele>92.420000000000002</ele>
        <time>2026-06-28T10:31:41Z</time>
      </trkpt>
      <trkpt lat="51.630472987890244" lon="-10.033502038568258">
        <ele>91.459999999999994</ele>
        <time>2026-06-28T10:31:42Z</time>
      </trkpt>
      <trkpt lat="51.630539037287235" lon="-10.033637993037701">
        <ele>90.5</ele>
        <time>2026-06-28T10:31:43Z</time>
      </trkpt>
      <trkpt lat="51.630606008693576" lon="-10.033777970820665">
        <ele>89.540000000000006</ele>
        <time>2026-06-28T10:31:44Z</time>
      </trkpt>
      <trkpt lat="51.630671974271536" lon="-10.033914009109139">
        <ele>88.579999999999998</ele>
        <time>2026-06-28T10:31:45Z</time>
      </trkpt>
      <trkpt lat="51.630716985091567" lon="-10.034071002155542">
        <ele>87.620000000000005</ele>
        <time>2026-06-28T10:31:46Z</time>
      </trkpt>
      <trkpt lat="51.630836008116603" lon="-10.034771980717778">
        <ele>83.290000000000006</ele>
        <time>2026-06-28T10:31:50Z</time>
      </trkpt>
      <trkpt lat="51.630862997844815" lon="-10.034928973764181">
        <ele>82.329999999999998</ele>
        <time>2026-06-28T10:31:51Z</time>
      </trkpt>
      <trkpt lat="51.630884036421776" lon="-10.03505595959723">
        <ele>81.370000000000005</ele>
        <time>2026-06-28T10:31:52Z</time>
      </trkpt>
      <trkpt lat="51.63098000921309" lon="-10.035116979852319">
        <ele>80.409999999999997</ele>
        <time>2026-06-28T10:31:53Z</time>
      </trkpt>
      <trkpt lat="51.63106600753963" lon="-10.035125026479363">
        <ele>79.450000000000003</ele>
        <time>2026-06-28T10:31:54Z</time>
      </trkpt>
      <trkpt lat="51.63112903945148" lon="-10.035130977630615">
        <ele>78.969999999999999</ele>
        <time>2026-06-28T10:31:55Z</time>
      </trkpt>
      <trkpt lat="51.631227023899555" lon="-10.035282019525766">
        <ele>78.480000000000004</ele>
        <time>2026-06-28T10:31:56Z</time>
      </trkpt>
      <trkpt lat="51.631291983649135" lon="-10.035382015630603">
        <ele>78</ele>
        <time>2026-06-28T10:31:57Z</time>
      </trkpt>
      <trkpt lat="51.631364990025759" lon="-10.035496009513736">
        <ele>78</ele>
        <time>2026-06-28T10:31:58Z</time>
      </trkpt>
      <trkpt lat="51.631374964490533" lon="-10.035606985911727">
        <ele>78.480000000000004</ele>
        <time>2026-06-28T10:31:59Z</time>
      </trkpt>
      <trkpt lat="51.6313870344311" lon="-10.035752998664975">
        <ele>78.480000000000004</ele>
        <time>2026-06-28T10:32:00Z</time>
      </trkpt>
      <trkpt lat="51.631364990025759" lon="-10.035878978669643">
        <ele>78</ele>
        <time>2026-06-28T10:32:01Z</time>
      </trkpt>
      <trkpt lat="51.631342023611069" lon="-10.036007976159453">
        <ele>77.519999999999996</ele>
        <time>2026-06-28T10:32:02Z</time>
      </trkpt>
      <trkpt lat="51.631322996690869" lon="-10.036118030548096">
        <ele>77.040000000000006</ele>
        <time>2026-06-28T10:32:03Z</time>
      </trkpt>
      <trkpt lat="51.631363984197378" lon="-10.036187013611197">
        <ele>76.560000000000002</ele>
        <time>2026-06-28T10:32:04Z</time>
      </trkpt>
      <trkpt lat="51.63141100667417" lon="-10.036264965310693">
        <ele>75.599999999999994</ele>
        <time>2026-06-28T10:32:05Z</time>
      </trkpt>
      <trkpt lat="51.631451994180679" lon="-10.036333026364446">
        <ele>75.120000000000005</ele>
        <time>2026-06-28T10:32:06Z</time>
      </trkpt>
      <trkpt lat="51.631535980850458" lon="-10.036327997222543">
        <ele>74.640000000000001</ele>
        <time>2026-06-28T10:32:07Z</time>
      </trkpt>
      <trkpt lat="51.631632959470153" lon="-10.036321962252259">
        <ele>74.159999999999997</ele>
        <time>2026-06-28T10:32:08Z</time>
      </trkpt>
      <trkpt lat="51.63173496723175" lon="-10.036316011101007">
        <ele>73.680000000000007</ele>
        <time>2026-06-28T10:32:09Z</time>
      </trkpt>
      <trkpt lat="51.632129000499845" lon="-10.036292038857937">
        <ele>74.159999999999997</ele>
        <time>2026-06-28T10:32:13Z</time>
      </trkpt>
      <trkpt lat="51.632188009098172" lon="-10.036319028586149">
        <ele>74.159999999999997</ele>
        <time>2026-06-28T10:32:14Z</time>
      </trkpt>
      <trkpt lat="51.632245006039739" lon="-10.036376025527716">
        <ele>73.680000000000007</ele>
        <time>2026-06-28T10:32:15Z</time>
      </trkpt>
      <trkpt lat="51.632286999374628" lon="-10.03644903190434">
        <ele>73.200000000000003</ele>
        <time>2026-06-28T10:32:16Z</time>
      </trkpt>
      <trkpt lat="51.632280964404345" lon="-10.036565959453583">
        <ele>72.719999999999999</ele>
        <time>2026-06-28T10:32:17Z</time>
      </trkpt>
      <trkpt lat="51.632275013253093" lon="-10.036690011620522">
        <ele>72.239999999999995</ele>
        <time>2026-06-28T10:32:18Z</time>
      </trkpt>
      <trkpt lat="51.63226998411119" lon="-10.036798976361752">
        <ele>71.760000000000005</ele>
        <time>2026-06-28T10:32:19Z</time>
      </trkpt>
      <trkpt lat="51.632266966626048" lon="-10.036868965253234">
        <ele>71.269999999999996</ele>
        <time>2026-06-28T10:32:20Z</time>
      </trkpt>
      <trkpt lat="51.632309965789318" lon="-10.036906013265252">
        <ele>70.790000000000006</ele>
        <time>2026-06-28T10:32:21Z</time>
      </trkpt>
      <trkpt lat="51.632372997701168" lon="-10.036959992721677">
        <ele>70.310000000000002</ele>
        <time>2026-06-28T10:32:22Z</time>
      </trkpt>
      <trkpt lat="51.632440974935889" lon="-10.036985976621509">
        <ele>70.310000000000002</ele>
        <time>2026-06-28T10:32:23Z</time>
      </trkpt>
      <trkpt lat="51.632526973262429" lon="-10.036942977458239">
        <ele>70.310000000000002</ele>
        <time>2026-06-28T10:32:24Z</time>
      </trkpt>
      <trkpt lat="51.632625041529536" lon="-10.036894027143717">
        <ele>70.310000000000002</ele>
        <time>2026-06-28T10:32:25Z</time>
      </trkpt>
      <trkpt lat="51.633663978427649" lon="-10.036540981382132">
        <ele>70.310000000000002</ele>
        <time>2026-06-28T10:32:34Z</time>
      </trkpt>
      <trkpt lat="51.634554974734783" lon="-10.036415001377463">
        <ele>69.829999999999998</ele>
        <time>2026-06-28T10:32:42Z</time>
      </trkpt>
      <trkpt lat="51.634666034951806" lon="-10.036353981122375">
        <ele>69.829999999999998</ele>
        <time>2026-06-28T10:32:43Z</time>
      </trkpt>
      <trkpt lat="51.63478103466332" lon="-10.036292038857937">
        <ele>69.349999999999994</ele>
        <time>2026-06-28T10:32:44Z</time>
      </trkpt>
      <trkpt lat="51.634897040203214" lon="-10.036229006946087">
        <ele>69.349999999999994</ele>
        <time>2026-06-28T10:32:45Z</time>
      </trkpt>
      <trkpt lat="51.635012039914727" lon="-10.036165975034237">
        <ele>68.870000000000005</ele>
        <time>2026-06-28T10:32:46Z</time>
      </trkpt>
      <trkpt lat="51.635275986045599" lon="-10.03602197393775">
        <ele>68.870000000000005</ele>
        <time>2026-06-28T10:32:51Z</time>
      </trkpt>
      <trkpt lat="51.635301969945431" lon="-10.036006970331073">
        <ele>68.390000000000001</ele>
        <time>2026-06-28T10:32:57Z</time>
      </trkpt>
      <trkpt lat="51.635311022400856" lon="-10.036003030836582">
        <ele>68.390000000000001</ele>
        <time>2026-06-28T10:32:58Z</time>
      </trkpt>
      <trkpt lat="51.635328959673643" lon="-10.036013005301356">
        <ele>68.390000000000001</ele>
        <time>2026-06-28T10:32:59Z</time>
      </trkpt>
      <trkpt lat="51.635322002694011" lon="-10.036038989201188">
        <ele>68.390000000000001</ele>
        <time>2026-06-28T10:33:00Z</time>
      </trkpt>
      <trkpt lat="51.635312028229237" lon="-10.036074025556445">
        <ele>68.390000000000001</ele>
        <time>2026-06-28T10:33:01Z</time>
      </trkpt>
      <trkpt lat="51.635299036279321" lon="-10.036122975870967">
        <ele>67.909999999999997</ele>
        <time>2026-06-28T10:33:02Z</time>
      </trkpt>
      <trkpt lat="51.635279003530741" lon="-10.03619397059083">
        <ele>67.909999999999997</ele>
        <time>2026-06-28T10:33:03Z</time>
      </trkpt>
      <trkpt lat="51.634885976091027" lon="-10.03707398660481">
        <ele>65.510000000000005</ele>
        <time>2026-06-28T10:33:10Z</time>
      </trkpt>
      <trkpt lat="51.633647968992591" lon="-10.039074998348951">
        <ele>59.740000000000002</ele>
        <time>2026-06-28T10:33:24Z</time>
      </trkpt>
      <trkpt lat="51.633381005376577" lon="-10.03956500440836">
        <ele>58.299999999999997</ele>
        <time>2026-06-28T10:33:28Z</time>
      </trkpt>
      <trkpt lat="51.63325703702867" lon="-10.039782011881471">
        <ele>56.859999999999999</ele>
        <time>2026-06-28T10:33:30Z</time>
      </trkpt>
      <trkpt lat="51.633197022601962" lon="-10.039877984672785">
        <ele>56.369999999999997</ele>
        <time>2026-06-28T10:33:31Z</time>
      </trkpt>
      <trkpt lat="51.633138014003634" lon="-10.039963982999325">
        <ele>55.890000000000001</ele>
        <time>2026-06-28T10:33:32Z</time>
      </trkpt>
      <trkpt lat="51.633051009848714" lon="-10.04001796245575">
        <ele>54.93</ele>
        <time>2026-06-28T10:33:33Z</time>
      </trkpt>
      <trkpt lat="51.632953025400639" lon="-10.040079988539219">
        <ele>54.450000000000003</ele>
        <time>2026-06-28T10:33:34Z</time>
      </trkpt>
      <trkpt lat="51.632411973550916" lon="-10.040418030694127">
        <ele>53.490000000000002</ele>
        <time>2026-06-28T10:33:39Z</time>
      </trkpt>
      <trkpt lat="51.632331004366279" lon="-10.04046899266541">
        <ele>53.009999999999998</ele>
        <time>2026-06-28T10:33:40Z</time>
      </trkpt>
      <trkpt lat="51.632263027131557" lon="-10.040564965456724">
        <ele>53.009999999999998</ele>
        <time>2026-06-28T10:33:41Z</time>
      </trkpt>
      <trkpt lat="51.632221033796668" lon="-10.040679965168238">
        <ele>52.530000000000001</ele>
        <time>2026-06-28T10:33:42Z</time>
      </trkpt>
      <trkpt lat="51.632179040461779" lon="-10.040796976536512">
        <ele>52.530000000000001</ele>
        <time>2026-06-28T10:33:43Z</time>
      </trkpt>
      <trkpt lat="51.632139980792999" lon="-10.040903007611632">
        <ele>52.049999999999997</ele>
        <time>2026-06-28T10:33:44Z</time>
      </trkpt>
      <trkpt lat="51.63212195970118" lon="-10.041032005101442">
        <ele>51.57</ele>
        <time>2026-06-28T10:33:45Z</time>
      </trkpt>
      <trkpt lat="51.632130006328225" lon="-10.041129989549518">
        <ele>51.090000000000003</ele>
        <time>2026-06-28T10:33:46Z</time>
      </trkpt>
      <trkpt lat="51.632137969136238" lon="-10.041223028674722">
        <ele>50.609999999999999</ele>
        <time>2026-06-28T10:33:47Z</time>
      </trkpt>
      <trkpt lat="51.632137969136238" lon="-10.041225040331483">
        <ele>50.609999999999999</ele>
        <time>2026-06-28T10:33:48Z</time>
      </trkpt>
      <trkpt lat="51.632102010771632" lon="-10.041334005072713">
        <ele>50.130000000000003</ele>
        <time>2026-06-28T10:33:49Z</time>
      </trkpt>
      <trkpt lat="51.632079966366291" lon="-10.04145797342062">
        <ele>50.130000000000003</ele>
        <time>2026-06-28T10:33:50Z</time>
      </trkpt>
      <trkpt lat="51.632092036306858" lon="-10.041536008939147">
        <ele>49.649999999999999</ele>
        <time>2026-06-28T10:33:51Z</time>
      </trkpt>
      <trkpt lat="51.632105028256774" lon="-10.041622007265687">
        <ele>49.649999999999999</ele>
        <time>2026-06-28T10:33:52Z</time>
      </trkpt>
      <trkpt lat="51.632116008549929" lon="-10.041697025299072">
        <ele>49.649999999999999</ele>
        <time>2026-06-28T10:33:53Z</time>
      </trkpt>
      <trkpt lat="51.632155990228057" lon="-10.041824011132121">
        <ele>49.159999999999997</ele>
        <time>2026-06-28T10:33:54Z</time>
      </trkpt>
      <trkpt lat="51.632185997441411" lon="-10.041924007236958">
        <ele>48.68</ele>
        <time>2026-06-28T10:33:55Z</time>
      </trkpt>
      <trkpt lat="51.63227098993957" lon="-10.042039006948471">
        <ele>48.200000000000003</ele>
        <time>2026-06-28T10:33:57Z</time>
      </trkpt>
      <trkpt lat="51.632338967174292" lon="-10.04210103303194">
        <ele>48.200000000000003</ele>
        <time>2026-06-28T10:33:58Z</time>
      </trkpt>
      <trkpt lat="51.632414991036057" lon="-10.042171021923423">
        <ele>48.200000000000003</ele>
        <time>2026-06-28T10:33:59Z</time>
      </trkpt>
      <trkpt lat="51.632497971877456" lon="-10.042247967794538">
        <ele>48.68</ele>
        <time>2026-06-28T10:34:00Z</time>
      </trkpt>
      <trkpt lat="51.632585981860757" lon="-10.042328014969826">
        <ele>49.159999999999997</ele>
        <time>2026-06-28T10:34:01Z</time>
      </trkpt>
      <trkpt lat="51.633196016773582" lon="-10.042887004092336">
        <ele>48.200000000000003</ele>
        <time>2026-06-28T10:34:09Z</time>
      </trkpt>
      <trkpt lat="51.633234992623329" lon="-10.042927991598845">
        <ele>47.719999999999999</ele>
        <time>2026-06-28T10:34:10Z</time>
      </trkpt>
      <trkpt lat="51.6332589648664" lon="-10.042987000197172">
        <ele>47.240000000000002</ele>
        <time>2026-06-28T10:34:11Z</time>
      </trkpt>
      <trkpt lat="51.633255025371909" lon="-10.043070986866951">
        <ele>46.759999999999998</ele>
        <time>2026-06-28T10:34:12Z</time>
      </trkpt>
      <trkpt lat="51.633227029815316" lon="-10.04313301295042">
        <ele>46.280000000000001</ele>
        <time>2026-06-28T10:34:13Z</time>
      </trkpt>
      <trkpt lat="51.633188975974917" lon="-10.043214987963438">
        <ele>45.799999999999997</ele>
        <time>2026-06-28T10:34:14Z</time>
      </trkpt>
      <trkpt lat="51.632946990430355" lon="-10.043745981529355">
        <ele>43.399999999999999</ele>
        <time>2026-06-28T10:34:19Z</time>
      </trkpt>
      <trkpt lat="51.632907008752227" lon="-10.043869027867913">
        <ele>42.439999999999998</ele>
        <time>2026-06-28T10:34:20Z</time>
      </trkpt>
      <trkpt lat="51.632870966568589" lon="-10.044004982337356">
        <ele>41.950000000000003</ele>
        <time>2026-06-28T10:34:21Z</time>
      </trkpt>
      <trkpt lat="51.632427982985973" lon="-10.045427978038788">
        <ele>35.229999999999997</ele>
        <time>2026-06-28T10:34:31Z</time>
      </trkpt>
      <trkpt lat="51.632175017148256" lon="-10.046157035976648">
        <ele>33.299999999999997</ele>
        <time>2026-06-28T10:34:37Z</time>
      </trkpt>
      <trkpt lat="51.632095975801349" lon="-10.046408995985985">
        <ele>32.82</ele>
        <time>2026-06-28T10:34:39Z</time>
      </trkpt>
      <trkpt lat="51.631591971963644" lon="-10.048013962805271">
        <ele>30.420000000000002</ele>
        <time>2026-06-28T10:34:50Z</time>
      </trkpt>
      <trkpt lat="51.631100038066506" lon="-10.04958095960319">
        <ele>25.129999999999999</ele>
        <time>2026-06-28T10:35:01Z</time>
      </trkpt>
      <trkpt lat="51.631057038903236" lon="-10.049719009548426">
        <ele>23.690000000000001</ele>
        <time>2026-06-28T10:35:06Z</time>
      </trkpt>
      <trkpt lat="51.631024014204741" lon="-10.049824034795165">
        <ele>22.25</ele>
        <time>2026-06-28T10:35:12Z</time>
      </trkpt>
      <trkpt lat="51.630965005606413" lon="-10.049837026745081">
        <ele>22.25</ele>
        <time>2026-06-28T10:35:13Z</time>
      </trkpt>
      <trkpt lat="51.630901973694563" lon="-10.049844989553094">
        <ele>22.25</ele>
        <time>2026-06-28T10:35:14Z</time>
      </trkpt>
      <trkpt lat="51.630214992910624" lon="-10.049969963729382">
        <ele>23.690000000000001</ele>
        <time>2026-06-28T10:35:22Z</time>
      </trkpt>
      <trkpt lat="51.630147015675902" lon="-10.050000976771116">
        <ele>24.170000000000002</ele>
        <time>2026-06-28T10:35:23Z</time>
      </trkpt>
      <trkpt lat="51.630081972107291" lon="-10.050052022561431">
        <ele>24.170000000000002</ele>
        <time>2026-06-28T10:35:24Z</time>
      </trkpt>
      <trkpt lat="51.630017012357712" lon="-10.05015998147428">
        <ele>24.170000000000002</ele>
        <time>2026-06-28T10:35:25Z</time>
      </trkpt>
      <trkpt lat="51.629944005981088" lon="-10.050282021984458">
        <ele>24.170000000000002</ele>
        <time>2026-06-28T10:35:26Z</time>
      </trkpt>
      <trkpt lat="51.629875022917986" lon="-10.050429962575436">
        <ele>24.170000000000002</ele>
        <time>2026-06-28T10:35:27Z</time>
      </trkpt>
      <trkpt lat="51.629810985177755" lon="-10.050605982542038">
        <ele>24.170000000000002</ele>
        <time>2026-06-28T10:35:28Z</time>
      </trkpt>
      <trkpt lat="51.629748037084937" lon="-10.050775967538357">
        <ele>24.170000000000002</ele>
        <time>2026-06-28T10:35:29Z</time>
      </trkpt>
      <trkpt lat="51.629689028486609" lon="-10.050937989726663">
        <ele>24.170000000000002</ele>
        <time>2026-06-28T10:35:30Z</time>
      </trkpt>
      <trkpt lat="51.629595989361405" lon="-10.051068998873234">
        <ele>23.690000000000001</ele>
        <time>2026-06-28T10:35:31Z</time>
      </trkpt>
      <trkpt lat="51.629491969943047" lon="-10.051181986927986">
        <ele>23.690000000000001</ele>
        <time>2026-06-28T10:35:32Z</time>
      </trkpt>
      <trkpt lat="51.629383005201817" lon="-10.051300004124641">
        <ele>23.210000000000001</ele>
        <time>2026-06-28T10:35:33Z</time>
      </trkpt>
      <trkpt lat="51.629270017147064" lon="-10.051421960815787">
        <ele>23.210000000000001</ele>
        <time>2026-06-28T10:35:34Z</time>
      </trkpt>
      <trkpt lat="51.629155017435551" lon="-10.051546012982726">
        <ele>23.210000000000001</ele>
        <time>2026-06-28T10:35:35Z</time>
      </trkpt>
      <trkpt lat="51.629093997180462" lon="-10.051710968837142">
        <ele>23.210000000000001</ele>
        <time>2026-06-28T10:35:36Z</time>
      </trkpt>
      <trkpt lat="51.628373991698027" lon="-10.053292969241738">
        <ele>23.690000000000001</ele>
        <time>2026-06-28T10:35:46Z</time>
      </trkpt>
      <trkpt lat="51.627640994265676" lon="-10.054617980495095">
        <ele>23.210000000000001</ele>
        <time>2026-06-28T10:35:55Z</time>
      </trkpt>
      <trkpt lat="51.626838007941842" lon="-10.055832015350461">
        <ele>23.690000000000001</ele>
        <time>2026-06-28T10:36:04Z</time>
      </trkpt>
      <trkpt lat="51.626416984945536" lon="-10.05632403306663">
        <ele>24.649999999999999</ele>
        <time>2026-06-28T10:36:08Z</time>
      </trkpt>
      <trkpt lat="51.62631799466908" lon="-10.056451018899679">
        <ele>24.649999999999999</ele>
        <time>2026-06-28T10:36:09Z</time>
      </trkpt>
      <trkpt lat="51.626249011605978" lon="-10.056613963097334">
        <ele>24.649999999999999</ele>
        <time>2026-06-28T10:36:10Z</time>
      </trkpt>
      <trkpt lat="51.625478966161609" lon="-10.058406013995409">
        <ele>25.129999999999999</ele>
        <time>2026-06-28T10:36:20Z</time>
      </trkpt>
      <trkpt lat="51.624413961544633" lon="-10.060498975217342">
        <ele>22.73</ele>
        <time>2026-06-28T10:36:32Z</time>
      </trkpt>
      <trkpt lat="51.624314971268177" lon="-10.060629984363914">
        <ele>22.25</ele>
        <time>2026-06-28T10:36:33Z</time>
      </trkpt>
      <trkpt lat="51.624052030965686" lon="-10.060976995155215">
        <ele>21.289999999999999</ele>
        <time>2026-06-28T10:36:36Z</time>
      </trkpt>
      <trkpt lat="51.623999979346991" lon="-10.061104986816645">
        <ele>21.289999999999999</ele>
        <time>2026-06-28T10:36:37Z</time>
      </trkpt>
      <trkpt lat="51.62395597435534" lon="-10.061258962377906">
        <ele>21.289999999999999</ele>
        <time>2026-06-28T10:36:38Z</time>
      </trkpt>
      <trkpt lat="51.623910963535309" lon="-10.06141796708107">
        <ele>21.77</ele>
        <time>2026-06-28T10:36:39Z</time>
      </trkpt>
      <trkpt lat="51.623864024877548" lon="-10.061583006754518">
        <ele>21.77</ele>
        <time>2026-06-28T10:36:40Z</time>
      </trkpt>
      <trkpt lat="51.623711977154016" lon="-10.062121963128448">
        <ele>22.73</ele>
        <time>2026-06-28T10:36:43Z</time>
      </trkpt>
      <trkpt lat="51.623627990484238" lon="-10.062282979488373">
        <ele>22.73</ele>
        <time>2026-06-28T10:36:44Z</time>
      </trkpt>
      <trkpt lat="51.623541992157698" lon="-10.062436033040285">
        <ele>22.73</ele>
        <time>2026-06-28T10:36:45Z</time>
      </trkpt>
      <trkpt lat="51.622576983645558" lon="-10.064243003726006">
        <ele>24.170000000000002</ele>
        <time>2026-06-28T10:36:57Z</time>
      </trkpt>
      <trkpt lat="51.62225897423923" lon="-10.064872987568378">
        <ele>23.210000000000001</ele>
        <time>2026-06-28T10:37:01Z</time>
      </trkpt>
      <trkpt lat="51.622164007276297" lon="-10.065015982836485">
        <ele>23.690000000000001</ele>
        <time>2026-06-28T10:37:02Z</time>
      </trkpt>
      <trkpt lat="51.622053030878305" lon="-10.065138023346663">
        <ele>24.170000000000002</ele>
        <time>2026-06-28T10:37:03Z</time>
      </trkpt>
      <trkpt lat="51.621931996196508" lon="-10.065233996137977">
        <ele>24.649999999999999</ele>
        <time>2026-06-28T10:37:04Z</time>
      </trkpt>
      <trkpt lat="51.621808027848601" lon="-10.065332986414433">
        <ele>25.129999999999999</ele>
        <time>2026-06-28T10:37:05Z</time>
      </trkpt>
      <trkpt lat="51.621679030358791" lon="-10.065436000004411">
        <ele>25.609999999999999</ele>
        <time>2026-06-28T10:37:06Z</time>
      </trkpt>
      <trkpt lat="51.620617965236306" lon="-10.065976968035102">
        <ele>35.710000000000001</ele>
        <time>2026-06-28T10:37:14Z</time>
      </trkpt>
      <trkpt lat="51.620397018268704" lon="-10.066062966361642">
        <ele>38.109999999999999</ele>
        <time>2026-06-28T10:37:16Z</time>
      </trkpt>
      <trkpt lat="51.620294004678726" lon="-10.066120969131589">
        <ele>39.07</ele>
        <time>2026-06-28T10:37:17Z</time>
      </trkpt>
      <trkpt lat="51.620201971381903" lon="-10.066234963014722">
        <ele>40.030000000000001</ele>
        <time>2026-06-28T10:37:18Z</time>
      </trkpt>
      <trkpt lat="51.620112033560872" lon="-10.066366977989674">
        <ele>41.469999999999999</ele>
        <time>2026-06-28T10:37:19Z</time>
      </trkpt>
      <trkpt lat="51.62002301774919" lon="-10.066535035148263">
        <ele>42.439999999999998</ele>
        <time>2026-06-28T10:37:20Z</time>
      </trkpt>
      <trkpt lat="51.61993601359427" lon="-10.06672203540802">
        <ele>43.399999999999999</ele>
        <time>2026-06-28T10:37:21Z</time>
      </trkpt>
      <trkpt lat="51.619858983904123" lon="-10.06691699847579">
        <ele>44.359999999999999</ele>
        <time>2026-06-28T10:37:22Z</time>
      </trkpt>
      <trkpt lat="51.61925196647644" lon="-10.068059032782912">
        <ele>52.530000000000001</ele>
        <time>2026-06-28T10:37:29Z</time>
      </trkpt>
      <trkpt lat="51.619150964543223" lon="-10.068213008344173">
        <ele>53.969999999999999</ele>
        <time>2026-06-28T10:37:30Z</time>
      </trkpt>
      <trkpt lat="51.619041999801993" lon="-10.068351980298758">
        <ele>55.409999999999997</ele>
        <time>2026-06-28T10:37:31Z</time>
      </trkpt>
      <trkpt lat="51.618922976776958" lon="-10.068463962525129">
        <ele>57.340000000000003</ele>
        <time>2026-06-28T10:37:32Z</time>
      </trkpt>
      <trkpt lat="51.618810994550586" lon="-10.06857099942863">
        <ele>58.780000000000001</ele>
        <time>2026-06-28T10:37:33Z</time>
      </trkpt>
      <trkpt lat="51.618710998445749" lon="-10.068665966391563">
        <ele>60.219999999999999</ele>
        <time>2026-06-28T10:37:34Z</time>
      </trkpt>
      <trkpt lat="51.618643021211028" lon="-10.068790018558502">
        <ele>61.659999999999997</ele>
        <time>2026-06-28T10:37:35Z</time>
      </trkpt>
      <trkpt lat="51.618585018441081" lon="-10.068931002169847">
        <ele>62.619999999999997</ele>
        <time>2026-06-28T10:37:36Z</time>
      </trkpt>
      <trkpt lat="51.618522992357612" lon="-10.069081960245967">
        <ele>64.069999999999993</ele>
        <time>2026-06-28T10:37:37Z</time>
      </trkpt>
      <trkpt lat="51.61845400929451" lon="-10.069250017404556">
        <ele>64.549999999999997</ele>
        <time>2026-06-28T10:37:38Z</time>
      </trkpt>
      <trkpt lat="51.618384020403028" lon="-10.069420002400875">
        <ele>65.510000000000005</ele>
        <time>2026-06-28T10:37:39Z</time>
      </trkpt>
      <trkpt lat="51.61828301846981" lon="-10.069536007940769">
        <ele>66.469999999999999</ele>
        <time>2026-06-28T10:37:40Z</time>
      </trkpt>
      <trkpt lat="51.618190985172987" lon="-10.069610020145774">
        <ele>67.909999999999997</ele>
        <time>2026-06-28T10:37:41Z</time>
      </trkpt>
      <trkpt lat="51.618100041523576" lon="-10.069648995995522">
        <ele>69.349999999999994</ele>
        <time>2026-06-28T10:37:42Z</time>
      </trkpt>
      <trkpt lat="51.618014965206385" lon="-10.069685960188508">
        <ele>70.790000000000006</ele>
        <time>2026-06-28T10:37:43Z</time>
      </trkpt>
      <trkpt lat="51.617933996021748" lon="-10.069719990715384">
        <ele>71.760000000000005</ele>
        <time>2026-06-28T10:37:44Z</time>
      </trkpt>
      <trkpt lat="51.617855038493872" lon="-10.069708004593849">
        <ele>73.200000000000003</ele>
        <time>2026-06-28T10:37:45Z</time>
      </trkpt>
      <trkpt lat="51.617772979661822" lon="-10.069694006815553">
        <ele>74.159999999999997</ele>
        <time>2026-06-28T10:37:46Z</time>
      </trkpt>
      <trkpt lat="51.617695027962327" lon="-10.069681014865637">
        <ele>75.599999999999994</ele>
        <time>2026-06-28T10:37:47Z</time>
      </trkpt>
      <trkpt lat="51.617636019363999" lon="-10.069599039852619">
        <ele>76.560000000000002</ele>
        <time>2026-06-28T10:37:48Z</time>
      </trkpt>
      <trkpt lat="51.617586985230446" lon="-10.069490997120738">
        <ele>77.519999999999996</ele>
        <time>2026-06-28T10:37:49Z</time>
      </trkpt>
      <trkpt lat="51.617565024644136" lon="-10.069351019337773">
        <ele>78.969999999999999</ele>
        <time>2026-06-28T10:37:50Z</time>
      </trkpt>
      <trkpt lat="51.617541974410415" lon="-10.069198971614242">
        <ele>80.409999999999997</ele>
        <time>2026-06-28T10:37:51Z</time>
      </trkpt>
      <trkpt lat="51.617350028827786" lon="-10.068104965612292">
        <ele>86.180000000000007</ele>
        <time>2026-06-28T10:37:58Z</time>
      </trkpt>
      <trkpt lat="51.617289008572698" lon="-10.067973034456372">
        <ele>87.140000000000001</ele>
        <time>2026-06-28T10:37:59Z</time>
      </trkpt>
      <trkpt lat="51.617228994145989" lon="-10.067841019481421">
        <ele>87.620000000000005</ele>
        <time>2026-06-28T10:38:00Z</time>
      </trkpt>
      <trkpt lat="51.617140984162688" lon="-10.067767007276416">
        <ele>88.099999999999994</ele>
        <time>2026-06-28T10:38:01Z</time>
      </trkpt>
      <trkpt lat="51.617045011371374" lon="-10.067691989243031">
        <ele>88.099999999999994</ele>
        <time>2026-06-28T10:38:02Z</time>
      </trkpt>
      <trkpt lat="51.616923976689577" lon="-10.067597022280097">
        <ele>89.060000000000002</ele>
        <time>2026-06-28T10:38:03Z</time>
      </trkpt>
      <trkpt lat="51.616833033040166" lon="-10.067560980096459">
        <ele>89.540000000000006</ele>
        <time>2026-06-28T10:38:04Z</time>
      </trkpt>
      <trkpt lat="51.616715015843511" lon="-10.067514041438699">
        <ele>90.5</ele>
        <time>2026-06-28T10:38:05Z</time>
      </trkpt>
      <trkpt lat="51.616120990365744" lon="-10.067312037572265">
        <ele>95.310000000000002</ele>
        <time>2026-06-28T10:38:10Z</time>
      </trkpt>
      <trkpt lat="51.615995010361075" lon="-10.067302985116839">
        <ele>95.790000000000006</ele>
        <time>2026-06-28T10:38:11Z</time>
      </trkpt>
      <trkpt lat="51.615867018699646" lon="-10.067295022308826">
        <ele>96.269999999999996</ele>
        <time>2026-06-28T10:38:12Z</time>
      </trkpt>
      <trkpt lat="51.615502992644906" lon="-10.067259985953569">
        <ele>96.75</ele>
        <time>2026-06-28T10:38:15Z</time>
      </trkpt>
      <trkpt lat="51.615384975448251" lon="-10.067224027588964">
        <ele>96.75</ele>
        <time>2026-06-28T10:38:16Z</time>
      </trkpt>
      <trkpt lat="51.615268969908357" lon="-10.067185973748565">
        <ele>97.230000000000004</ele>
        <time>2026-06-28T10:38:17Z</time>
      </trkpt>
      <trkpt lat="51.615179032087326" lon="-10.067085977643728">
        <ele>97.230000000000004</ele>
        <time>2026-06-28T10:38:18Z</time>
      </trkpt>
      <trkpt lat="51.615096973255277" lon="-10.066996039822698">
        <ele>97.230000000000004</ele>
        <time>2026-06-28T10:38:19Z</time>
      </trkpt>
      <trkpt lat="51.615022961050272" lon="-10.066904006525874">
        <ele>96.75</ele>
        <time>2026-06-28T10:38:20Z</time>
      </trkpt>
      <trkpt lat="51.614313013851643" lon="-10.065961964428425">
        <ele>91.459999999999994</ele>
        <time>2026-06-28T10:38:30Z</time>
      </trkpt>
      <trkpt lat="51.613676995038986" lon="-10.065514035522938">
        <ele>83.290000000000006</ele>
        <time>2026-06-28T10:38:38Z</time>
      </trkpt>
      <trkpt lat="51.613056985661387" lon="-10.065127965062857">
        <ele>78</ele>
        <time>2026-06-28T10:38:44Z</time>
      </trkpt>
      <trkpt lat="51.61295497789979" lon="-10.065065016970038">
        <ele>77.040000000000006</ele>
        <time>2026-06-28T10:38:45Z</time>
      </trkpt>
      <trkpt lat="51.612850036472082" lon="-10.065086977556348">
        <ele>76.560000000000002</ele>
        <time>2026-06-28T10:38:46Z</time>
      </trkpt>
      <trkpt lat="51.61274098791182" lon="-10.06511103361845">
        <ele>76.079999999999998</ele>
        <time>2026-06-28T10:38:47Z</time>
      </trkpt>
      <trkpt lat="51.612635040655732" lon="-10.065135005861521">
        <ele>75.120000000000005</ele>
        <time>2026-06-28T10:38:48Z</time>
      </trkpt>
      <trkpt lat="51.611727029085159" lon="-10.065278001129627">
        <ele>71.760000000000005</ele>
        <time>2026-06-28T10:38:58Z</time>
      </trkpt>
      <trkpt lat="51.611453024670482" lon="-10.065236007794738">
        <ele>70.790000000000006</ele>
        <time>2026-06-28T10:39:01Z</time>
      </trkpt>
      <trkpt lat="51.611356968060136" lon="-10.065169958397746">
        <ele>70.310000000000002</ele>
        <time>2026-06-28T10:39:02Z</time>
      </trkpt>
      <trkpt lat="51.611264012753963" lon="-10.065107010304928">
        <ele>70.310000000000002</ele>
        <time>2026-06-28T10:39:03Z</time>
      </trkpt>
      <trkpt lat="51.610382990911603" lon="-10.064327996224165">
        <ele>70.310000000000002</ele>
        <time>2026-06-28T10:39:14Z</time>
      </trkpt>
      <trkpt lat="51.610218035057187" lon="-10.064171003177762">
        <ele>70.790000000000006</ele>
        <time>2026-06-28T10:39:20Z</time>
      </trkpt>
      <trkpt lat="51.610206970945001" lon="-10.064160022884607">
        <ele>70.790000000000006</ele>
        <time>2026-06-28T10:39:23Z</time>
      </trkpt>
      <trkpt lat="51.610189033672214" lon="-10.064143007621169">
        <ele>70.310000000000002</ele>
        <time>2026-06-28T10:39:24Z</time>
      </trkpt>
      <trkpt lat="51.610152991488576" lon="-10.064148958772421">
        <ele>70.310000000000002</ele>
        <time>2026-06-28T10:39:25Z</time>
      </trkpt>
      <trkpt lat="51.610134970396757" lon="-10.064193969592452">
        <ele>70.310000000000002</ele>
        <time>2026-06-28T10:39:26Z</time>
      </trkpt>
      <trkpt lat="51.610109992325306" lon="-10.064251972362399">
        <ele>69.829999999999998</ele>
        <time>2026-06-28T10:39:27Z</time>
      </trkpt>
      <trkpt lat="51.610077973455191" lon="-10.064330007880926">
        <ele>69.829999999999998</ele>
        <time>2026-06-28T10:39:28Z</time>
      </trkpt>
      <trkpt lat="51.610037991777062" lon="-10.064426986500621">
        <ele>69.349999999999994</ele>
        <time>2026-06-28T10:39:29Z</time>
      </trkpt>
      <trkpt lat="51.60998803563416" lon="-10.064546009525657">
        <ele>68.390000000000001</ele>
        <time>2026-06-28T10:39:30Z</time>
      </trkpt>
      <trkpt lat="51.609927015379071" lon="-10.064674001187086">
        <ele>66.950000000000003</ele>
        <time>2026-06-28T10:39:31Z</time>
      </trkpt>
      <trkpt lat="51.609456036239862" lon="-10.065683014690876">
        <ele>60.700000000000003</ele>
        <time>2026-06-28T10:39:37Z</time>
      </trkpt>
      <trkpt lat="51.609401972964406" lon="-10.06584201939404">
        <ele>61.18</ele>
        <time>2026-06-28T10:39:38Z</time>
      </trkpt>
      <trkpt lat="51.609356040135026" lon="-10.065976968035102">
        <ele>62.140000000000001</ele>
        <time>2026-06-28T10:39:39Z</time>
      </trkpt>
      <trkpt lat="51.60927901044488" lon="-10.066204033792019">
        <ele>64.069999999999993</ele>
        <time>2026-06-28T10:39:41Z</time>
      </trkpt>
      <trkpt lat="51.609240034595132" lon="-10.066318027675152">
        <ele>65.030000000000001</ele>
        <time>2026-06-28T10:39:42Z</time>
      </trkpt>
      <trkpt lat="51.609199969097972" lon="-10.066437972709537">
        <ele>65.989999999999995</ele>
        <time>2026-06-28T10:39:43Z</time>
      </trkpt>
      <trkpt lat="51.608909033238888" lon="-10.067039960995317">
        <ele>73.680000000000007</ele>
        <time>2026-06-28T10:39:50Z</time>
      </trkpt>
      <trkpt lat="51.608894029632211" lon="-10.067140962928534">
        <ele>74.640000000000001</ele>
        <time>2026-06-28T10:39:51Z</time>
      </trkpt>
      <trkpt lat="51.608886988833547" lon="-10.067252023145556">
        <ele>75.599999999999994</ele>
        <time>2026-06-28T10:39:52Z</time>
      </trkpt>
      <trkpt lat="51.608879026025534" lon="-10.067369034513831">
        <ele>76.560000000000002</ele>
        <time>2026-06-28T10:39:53Z</time>
      </trkpt>
      <trkpt lat="51.60887198522687" lon="-10.067485040053725">
        <ele>77.519999999999996</ele>
        <time>2026-06-28T10:39:54Z</time>
      </trkpt>
      <trkpt lat="51.608864022418857" lon="-10.067606996744871">
        <ele>78.969999999999999</ele>
        <time>2026-06-28T10:39:55Z</time>
      </trkpt>
      <trkpt lat="51.60885295830667" lon="-10.067735994234681">
        <ele>79.930000000000007</ele>
        <time>2026-06-28T10:39:56Z</time>
      </trkpt>
      <trkpt lat="51.608816999942064" lon="-10.067850993946195">
        <ele>80.890000000000001</ele>
        <time>2026-06-28T10:39:57Z</time>
      </trkpt>
      <trkpt lat="51.60869998857379" lon="-10.068232035264373">
        <ele>85.209999999999994</ele>
        <time>2026-06-28T10:40:01Z</time>
      </trkpt>
      <trkpt lat="51.608668975532055" lon="-10.068332031369209">
        <ele>86.180000000000007</ele>
        <time>2026-06-28T10:40:02Z</time>
      </trkpt>
      <trkpt lat="51.608332023024559" lon="-10.06966701708734">
        <ele>92.900000000000006</ele>
        <time>2026-06-28T10:40:13Z</time>
      </trkpt>
      <trkpt lat="51.608181986957788" lon="-10.071183973923326">
        <ele>106.36</ele>
        <time>2026-06-28T10:40:25Z</time>
      </trkpt>
      <trkpt lat="51.608116021379828" lon="-10.071857962757349">
        <ele>111.17</ele>
        <time>2026-06-28T10:40:31Z</time>
      </trkpt>
      <trkpt lat="51.608113003894687" lon="-10.071937004104257">
        <ele>112.13</ele>
        <time>2026-06-28T10:40:32Z</time>
      </trkpt>
      <trkpt lat="51.608110992237926" lon="-10.071998024359345">
        <ele>112.61</ele>
        <time>2026-06-28T10:40:33Z</time>
      </trkpt>
      <trkpt lat="51.608108980581164" lon="-10.072053009644151">
        <ele>113.56999999999999</ele>
        <time>2026-06-28T10:40:34Z</time>
      </trkpt>
      <trkpt lat="51.608105041086674" lon="-10.072167003527284">
        <ele>114.05</ele>
        <time>2026-06-28T10:40:35Z</time>
      </trkpt>
      <trkpt lat="51.608092971146107" lon="-10.07220296189189">
        <ele>114.53</ele>
        <time>2026-06-28T10:40:36Z</time>
      </trkpt>
      <trkpt lat="51.608066987246275" lon="-10.072277979925275">
        <ele>115.01000000000001</ele>
        <time>2026-06-28T10:40:37Z</time>
      </trkpt>
      <trkpt lat="51.607784014195204" lon="-10.073324041441083">
        <ele>116.94</ele>
        <time>2026-06-28T10:40:45Z</time>
      </trkpt>
      <trkpt lat="51.607577987015247" lon="-10.075104022398591">
        <ele>115.5</ele>
        <time>2026-06-28T10:40:54Z</time>
      </trkpt>
      <trkpt lat="51.607546973973513" lon="-10.076302969828248">
        <ele>113.56999999999999</ele>
        <time>2026-06-28T10:41:01Z</time>
      </trkpt>
      <trkpt lat="51.607546973973513" lon="-10.076479995623231">
        <ele>113.09</ele>
        <time>2026-06-28T10:41:02Z</time>
      </trkpt>
      <trkpt lat="51.60758201032877" lon="-10.076678982004523">
        <ele>112.61</ele>
        <time>2026-06-28T10:41:03Z</time>
      </trkpt>
      <trkpt lat="51.607700027525425" lon="-10.077393958345056">
        <ele>110.69</ele>
        <time>2026-06-28T10:41:06Z</time>
      </trkpt>
      <trkpt lat="51.607761969789863" lon="-10.07778899744153">
        <ele>109.73</ele>
        <time>2026-06-28T10:41:08Z</time>
      </trkpt>
      <trkpt lat="51.607806980609894" lon="-10.07798002101481">
        <ele>109.25</ele>
        <time>2026-06-28T10:41:09Z</time>
      </trkpt>
      <trkpt lat="51.607846962288022" lon="-10.078146988525987">
        <ele>108.29000000000001</ele>
        <time>2026-06-28T10:41:10Z</time>
      </trkpt>
      <trkpt lat="51.607912005856633" lon="-10.078296018764377">
        <ele>107.81</ele>
        <time>2026-06-28T10:41:11Z</time>
      </trkpt>
      <trkpt lat="51.608006972819567" lon="-10.078424010425806">
        <ele>106.84</ele>
        <time>2026-06-28T10:41:12Z</time>
      </trkpt>
      <trkpt lat="51.608127001672983" lon="-10.07858301512897">
        <ele>105.88</ele>
        <time>2026-06-28T10:41:13Z</time>
      </trkpt>
      <trkpt lat="51.608237978070974" lon="-10.078676976263523">
        <ele>105.40000000000001</ele>
        <time>2026-06-28T10:41:14Z</time>
      </trkpt>
      <trkpt lat="51.608372004702687" lon="-10.078790970146656">
        <ele>104.92</ele>
        <time>2026-06-28T10:41:15Z</time>
      </trkpt>
      <trkpt lat="51.608620025217533" lon="-10.079000014811754">
        <ele>103.48</ele>
        <time>2026-06-28T10:41:17Z</time>
      </trkpt>
      <trkpt lat="51.608704011887312" lon="-10.07911903783679">
        <ele>103</ele>
        <time>2026-06-28T10:41:18Z</time>
      </trkpt>
      <trkpt lat="51.608746005222201" lon="-10.079260021448135">
        <ele>102.52</ele>
        <time>2026-06-28T10:41:19Z</time>
      </trkpt>
      <trkpt lat="51.608760003000498" lon="-10.079430006444454">
        <ele>102.04000000000001</ele>
        <time>2026-06-28T10:41:20Z</time>
      </trkpt>
      <trkpt lat="51.608770983293653" lon="-10.079606026411057">
        <ele>101.08</ele>
        <time>2026-06-28T10:41:21Z</time>
      </trkpt>
      <trkpt lat="51.608783975243568" lon="-10.079792020842433">
        <ele>100.59999999999999</ele>
        <time>2026-06-28T10:41:22Z</time>
      </trkpt>
      <trkpt lat="51.608811970800161" lon="-10.079978015273809">
        <ele>100.11</ele>
        <time>2026-06-28T10:41:23Z</time>
      </trkpt>
      <trkpt lat="51.608868967741728" lon="-10.080163003876805">
        <ele>99.150000000000006</ele>
        <time>2026-06-28T10:41:24Z</time>
      </trkpt>
      <trkpt lat="51.608949014917016" lon="-10.080340029671788">
        <ele>98.189999999999998</ele>
        <time>2026-06-28T10:41:25Z</time>
      </trkpt>
      <trkpt lat="51.609031995758414" lon="-10.080514037981629">
        <ele>97.709999999999994</ele>
        <time>2026-06-28T10:41:26Z</time>
      </trkpt>
      <trkpt lat="51.609907988458872" lon="-10.082338023930788">
        <ele>93.870000000000005</ele>
        <time>2026-06-28T10:41:37Z</time>
      </trkpt>
      <trkpt lat="51.609931960701942" lon="-10.082460986450315">
        <ele>93.870000000000005</ele>
        <time>2026-06-28T10:41:38Z</time>
      </trkpt>
      <trkpt lat="51.610095994547009" lon="-10.083842994645238">
        <ele>91.939999999999998</ele>
        <time>2026-06-28T10:41:47Z</time>
      </trkpt>
      <trkpt lat="51.610029023140669" lon="-10.084830969572067">
        <ele>91.939999999999998</ele>
        <time>2026-06-28T10:41:52Z</time>
      </trkpt>
      <trkpt lat="51.610016031190753" lon="-10.085020987316966">
        <ele>91.939999999999998</ele>
        <time>2026-06-28T10:41:53Z</time>
      </trkpt>
      <trkpt lat="51.610056012868881" lon="-10.085202036425471">
        <ele>92.420000000000002</ele>
        <time>2026-06-28T10:41:54Z</time>
      </trkpt>
      <trkpt lat="51.610103035345674" lon="-10.085380990058184">
        <ele>92.420000000000002</ele>
        <time>2026-06-28T10:41:55Z</time>
      </trkpt>
      <trkpt lat="51.610148968175054" lon="-10.085562039166689">
        <ele>92.420000000000002</ele>
        <time>2026-06-28T10:41:56Z</time>
      </trkpt>
      <trkpt lat="51.61033202894032" lon="-10.086384974420071">
        <ele>93.390000000000001</ele>
        <time>2026-06-28T10:42:01Z</time>
      </trkpt>
      <trkpt lat="51.610316019505262" lon="-10.086506009101868">
        <ele>93.390000000000001</ele>
        <time>2026-06-28T10:42:02Z</time>
      </trkpt>
      <trkpt lat="51.610284000635147" lon="-10.086612962186337">
        <ele>93.390000000000001</ele>
        <time>2026-06-28T10:42:03Z</time>
      </trkpt>
      <trkpt lat="51.610230021178722" lon="-10.086706001311541">
        <ele>93.390000000000001</ele>
        <time>2026-06-28T10:42:04Z</time>
      </trkpt>
      <trkpt lat="51.610173024237156" lon="-10.086780013516545">
        <ele>93.870000000000005</ele>
        <time>2026-06-28T10:42:05Z</time>
      </trkpt>
      <trkpt lat="51.610127007588744" lon="-10.086840027943254">
        <ele>94.349999999999994</ele>
        <time>2026-06-28T10:42:06Z</time>
      </trkpt>
      <trkpt lat="51.610028017312288" lon="-10.086955027654767">
        <ele>95.310000000000002</ele>
        <time>2026-06-28T10:42:09Z</time>
      </trkpt>
      <trkpt lat="51.609557960182428" lon="-10.087374961003661">
        <ele>96.75</ele>
        <time>2026-06-28T10:42:15Z</time>
      </trkpt>
      <trkpt lat="51.609156969934702" lon="-10.087852980941534">
        <ele>96.75</ele>
        <time>2026-06-28T10:42:20Z</time>
      </trkpt>
      <trkpt lat="51.6090879868716" lon="-10.087877037003636">
        <ele>97.230000000000004</ele>
        <time>2026-06-28T10:42:21Z</time>
      </trkpt>
      <trkpt lat="51.609011963009834" lon="-10.087905032560229">
        <ele>97.230000000000004</ele>
        <time>2026-06-28T10:42:22Z</time>
      </trkpt>
      <trkpt lat="51.608931999653578" lon="-10.087934033945203">
        <ele>97.709999999999994</ele>
        <time>2026-06-28T10:42:23Z</time>
      </trkpt>
      <trkpt lat="51.608839966356754" lon="-10.087915007025003">
        <ele>98.189999999999998</ele>
        <time>2026-06-28T10:42:24Z</time>
      </trkpt>
      <trkpt lat="51.60872002132237" lon="-10.087880976498127">
        <ele>98.189999999999998</ele>
        <time>2026-06-28T10:42:25Z</time>
      </trkpt>
      <trkpt lat="51.60857099108398" lon="-10.087838983163238">
        <ele>98.670000000000002</ele>
        <time>2026-06-28T10:42:26Z</time>
      </trkpt>
      <trkpt lat="51.608076961711049" lon="-10.087731024250388">
        <ele>100.11</ele>
        <time>2026-06-28T10:42:29Z</time>
      </trkpt>
      <trkpt lat="51.607912005856633" lon="-10.087744016200304">
        <ele>100.59999999999999</ele>
        <time>2026-06-28T10:42:30Z</time>
      </trkpt>
      <trkpt lat="51.607744032517076" lon="-10.087756002321839">
        <ele>100.59999999999999</ele>
        <time>2026-06-28T10:42:31Z</time>
      </trkpt>
      <trkpt lat="51.607575975358486" lon="-10.087780980393291">
        <ele>101.08</ele>
        <time>2026-06-28T10:42:32Z</time>
      </trkpt>
      <trkpt lat="51.60741001367569" lon="-10.087849041447043">
        <ele>101.56</ele>
        <time>2026-06-28T10:42:33Z</time>
      </trkpt>
      <trkpt lat="51.607241034507751" lon="-10.087918024510145">
        <ele>102.04000000000001</ele>
        <time>2026-06-28T10:42:34Z</time>
      </trkpt>
      <trkpt lat="51.607072977349162" lon="-10.088006034493446">
        <ele>102.52</ele>
        <time>2026-06-28T10:42:35Z</time>
      </trkpt>
      <trkpt lat="51.606344003230333" lon="-10.088568963110447">
        <ele>104.44</ele>
        <time>2026-06-28T10:42:40Z</time>
      </trkpt>
      <trkpt lat="51.606232021003962" lon="-10.088715981692076">
        <ele>103.95999999999999</ele>
        <time>2026-06-28T10:42:41Z</time>
      </trkpt>
      <trkpt lat="51.60612397827208" lon="-10.088856965303421">
        <ele>103.95999999999999</ele>
        <time>2026-06-28T10:42:42Z</time>
      </trkpt>
      <trkpt lat="51.60603697411716" lon="-10.089040026068687">
        <ele>103.48</ele>
        <time>2026-06-28T10:42:43Z</time>
      </trkpt>
      <trkpt lat="51.605962961912155" lon="-10.089237000793219">
        <ele>103</ele>
        <time>2026-06-28T10:42:44Z</time>
      </trkpt>
      <trkpt lat="51.60547798499465" lon="-10.090524964034557">
        <ele>102.04000000000001</ele>
        <time>2026-06-28T10:42:50Z</time>
      </trkpt>
      <trkpt lat="51.604829980060458" lon="-10.092498986050487">
        <ele>102.52</ele>
        <time>2026-06-28T10:42:59Z</time>
      </trkpt>
      <trkpt lat="51.60472403280437" lon="-10.092668971046805">
        <ele>102.52</ele>
        <time>2026-06-28T10:43:00Z</time>
      </trkpt>
      <trkpt lat="51.604616995900869" lon="-10.092840967699885">
        <ele>102.52</ele>
        <time>2026-06-28T10:43:01Z</time>
      </trkpt>
      <trkpt lat="51.604513982310891" lon="-10.093009024858475">
        <ele>102.04000000000001</ele>
        <time>2026-06-28T10:43:02Z</time>
      </trkpt>
      <trkpt lat="51.604417003691196" lon="-10.093166017904878">
        <ele>102.04000000000001</ele>
        <time>2026-06-28T10:43:03Z</time>
      </trkpt>
      <trkpt lat="51.604333017021418" lon="-10.093339020386338">
        <ele>102.04000000000001</ele>
        <time>2026-06-28T10:43:04Z</time>
      </trkpt>
      <trkpt lat="51.604257998988032" lon="-10.093533983454108">
        <ele>102.52</ele>
        <time>2026-06-28T10:43:05Z</time>
      </trkpt>
      <trkpt lat="51.604179963469505" lon="-10.093736993148923">
        <ele>102.04000000000001</ele>
        <time>2026-06-28T10:43:06Z</time>
      </trkpt>
      <trkpt lat="51.603905959054828" lon="-10.094318026676774">
        <ele>102.04000000000001</ele>
        <time>2026-06-28T10:43:09Z</time>
      </trkpt>
      <trkpt lat="51.603805040940642" lon="-10.094489017501473">
        <ele>102.04000000000001</ele>
        <time>2026-06-28T10:43:10Z</time>
      </trkpt>
      <trkpt lat="51.603705966845155" lon="-10.09465598501265">
        <ele>102.04000000000001</ele>
        <time>2026-06-28T10:43:11Z</time>
      </trkpt>
      <trkpt lat="51.603637989610434" lon="-10.094860000535846">
        <ele>102.04000000000001</ele>
        <time>2026-06-28T10:43:12Z</time>
      </trkpt>
      <trkpt lat="51.603569006547332" lon="-10.095068039372563">
        <ele>102.52</ele>
        <time>2026-06-28T10:43:13Z</time>
      </trkpt>
      <trkpt lat="51.603506980463862" lon="-10.095288986340165">
        <ele>102.52</ele>
        <time>2026-06-28T10:43:14Z</time>
      </trkpt>
      <trkpt lat="51.603478984907269" lon="-10.095522003248334">
        <ele>103</ele>
        <time>2026-06-28T10:43:15Z</time>
      </trkpt>
      <trkpt lat="51.603449983522296" lon="-10.095758959650993">
        <ele>103.48</ele>
        <time>2026-06-28T10:43:16Z</time>
      </trkpt>
      <trkpt lat="51.603428022935987" lon="-10.0960089918226">
        <ele>103.95999999999999</ele>
        <time>2026-06-28T10:43:17Z</time>
      </trkpt>
      <trkpt lat="51.603204980492592" lon="-10.097921993583441">
        <ele>106.36</ele>
        <time>2026-06-28T10:43:25Z</time>
      </trkpt>
      <trkpt lat="51.603172039613128" lon="-10.098141012713313">
        <ele>106.36</ele>
        <time>2026-06-28T10:43:26Z</time>
      </trkpt>
      <trkpt lat="51.603170027956367" lon="-10.098353996872902">
        <ele>106.84</ele>
        <time>2026-06-28T10:43:27Z</time>
      </trkpt>
      <trkpt lat="51.603170027956367" lon="-10.09856496937573">
        <ele>107.31999999999999</ele>
        <time>2026-06-28T10:43:28Z</time>
      </trkpt>
      <trkpt lat="51.603100039064884" lon="-10.100450981408358">
        <ele>103.95999999999999</ele>
        <time>2026-06-28T10:43:36Z</time>
      </trkpt>
      <trkpt lat="51.603008005768061" lon="-10.101128993555903">
        <ele>102.52</ele>
        <time>2026-06-28T10:43:39Z</time>
      </trkpt>
      <trkpt lat="51.602996019646525" lon="-10.101359998807311">
        <ele>102.04000000000001</ele>
        <time>2026-06-28T10:43:40Z</time>
      </trkpt>
      <trkpt lat="51.602971963584423" lon="-10.102677969262004">
        <ele>100.59999999999999</ele>
        <time>2026-06-28T10:43:46Z</time>
      </trkpt>
      <trkpt lat="51.602945979684591" lon="-10.102902017533779">
        <ele>100.59999999999999</ele>
        <time>2026-06-28T10:43:47Z</time>
      </trkpt>
      <trkpt lat="51.60283399745822" lon="-10.103510040789843">
        <ele>100.11</ele>
        <time>2026-06-28T10:43:50Z</time>
      </trkpt>
      <trkpt lat="51.602786974981427" lon="-10.103696035221219">
        <ele>100.11</ele>
        <time>2026-06-28T10:43:51Z</time>
      </trkpt>
      <trkpt lat="51.602387996390462" lon="-10.104862041771412">
        <ele>98.189999999999998</ele>
        <time>2026-06-28T10:43:58Z</time>
      </trkpt>
      <trkpt lat="51.602322030812502" lon="-10.105034038424492">
        <ele>97.709999999999994</ele>
        <time>2026-06-28T10:43:59Z</time>
      </trkpt>
      <trkpt lat="51.602278025820851" lon="-10.105235036462545">
        <ele>97.230000000000004</ele>
        <time>2026-06-28T10:44:00Z</time>
      </trkpt>
      <trkpt lat="51.602236032485962" lon="-10.105450032278895">
        <ele>96.75</ele>
        <time>2026-06-28T10:44:01Z</time>
      </trkpt>
      <trkpt lat="51.602193033322692" lon="-10.105673996731639">
        <ele>96.269999999999996</ele>
        <time>2026-06-28T10:44:02Z</time>
      </trkpt>
      <trkpt lat="51.602161014452577" lon="-10.10591103695333">
        <ele>95.790000000000006</ele>
        <time>2026-06-28T10:44:03Z</time>
      </trkpt>
      <trkpt lat="51.602159002795815" lon="-10.106158973649144">
        <ele>95.310000000000002</ele>
        <time>2026-06-28T10:44:04Z</time>
      </trkpt>
      <trkpt lat="51.602156991139054" lon="-10.106412023305893">
        <ele>95.310000000000002</ele>
        <time>2026-06-28T10:44:05Z</time>
      </trkpt>
      <trkpt lat="51.602143999189138" lon="-10.108524011448026">
        <ele>90.019999999999996</ele>
        <time>2026-06-28T10:44:14Z</time>
      </trkpt>
      <trkpt lat="51.602159002795815" lon="-10.108735989779234">
        <ele>89.060000000000002</ele>
        <time>2026-06-28T10:44:15Z</time>
      </trkpt>
      <trkpt lat="51.602204013615847" lon="-10.108936987817287">
        <ele>88.099999999999994</ele>
        <time>2026-06-28T10:44:16Z</time>
      </trkpt>
      <trkpt lat="51.602257993072271" lon="-10.109142009168863">
        <ele>87.140000000000001</ele>
        <time>2026-06-28T10:44:17Z</time>
      </trkpt>
      <trkpt lat="51.602366035804152" lon="-10.109550962224603">
        <ele>85.209999999999994</ele>
        <time>2026-06-28T10:44:19Z</time>
      </trkpt>
      <trkpt lat="51.60238497890532" lon="-10.109766041859984">
        <ele>84.25</ele>
        <time>2026-06-28T10:44:20Z</time>
      </trkpt>
      <trkpt lat="51.602396965026855" lon="-10.109980031847954">
        <ele>83.769999999999996</ele>
        <time>2026-06-28T10:44:21Z</time>
      </trkpt>
      <trkpt lat="51.602363018319011" lon="-10.110194021835923">
        <ele>82.810000000000002</ele>
        <time>2026-06-28T10:44:22Z</time>
      </trkpt>
      <trkpt lat="51.602325970306993" lon="-10.110407005995512">
        <ele>81.849999999999994</ele>
        <time>2026-06-28T10:44:23Z</time>
      </trkpt>
      <trkpt lat="51.602289006114006" lon="-10.110615966841578">
        <ele>80.409999999999997</ele>
        <time>2026-06-28T10:44:24Z</time>
      </trkpt>
      <trkpt lat="51.60225497558713" lon="-10.110809002071619">
        <ele>79.450000000000003</ele>
        <time>2026-06-28T10:44:25Z</time>
      </trkpt>
      <trkpt lat="51.602223040536046" lon="-10.110992984846234">
        <ele>78.480000000000004</ele>
        <time>2026-06-28T10:44:26Z</time>
      </trkpt>
      <trkpt lat="51.602192027494311" lon="-10.111167998984456">
        <ele>78</ele>
        <time>2026-06-28T10:44:27Z</time>
      </trkpt>
      <trkpt lat="51.602198984473944" lon="-10.111339995637536">
        <ele>77.040000000000006</ele>
        <time>2026-06-28T10:44:28Z</time>
      </trkpt>
      <trkpt lat="51.602221028879285" lon="-10.111502017825842">
        <ele>76.560000000000002</ele>
        <time>2026-06-28T10:44:29Z</time>
      </trkpt>
      <trkpt lat="51.602268973365426" lon="-10.111629003658891">
        <ele>76.079999999999998</ele>
        <time>2026-06-28T10:44:30Z</time>
      </trkpt>
      <trkpt lat="51.602338962256908" lon="-10.111707961186767">
        <ele>75.599999999999994</ele>
        <time>2026-06-28T10:44:31Z</time>
      </trkpt>
      <trkpt lat="51.60242697224021" lon="-10.1117770280689">
        <ele>74.640000000000001</ele>
        <time>2026-06-28T10:44:32Z</time>
      </trkpt>
      <trkpt lat="51.602520011365414" lon="-10.111850034445524">
        <ele>73.680000000000007</ele>
        <time>2026-06-28T10:44:33Z</time>
      </trkpt>
      <trkpt lat="51.60337395966053" lon="-10.112516982480884">
        <ele>68.390000000000001</ele>
        <time>2026-06-28T10:44:40Z</time>
      </trkpt>
      <trkpt lat="51.604469977319241" lon="-10.113417031243443">
        <ele>62.140000000000001</ele>
        <time>2026-06-28T10:44:49Z</time>
      </trkpt>
      <trkpt lat="51.604570979252458" lon="-10.113532030954957">
        <ele>61.659999999999997</ele>
        <time>2026-06-28T10:44:50Z</time>
      </trkpt>
      <trkpt lat="51.604664018377662" lon="-10.113657005131245">
        <ele>60.700000000000003</ele>
        <time>2026-06-28T10:44:51Z</time>
      </trkpt>
      <trkpt lat="51.604725960642099" lon="-10.113820033147931">
        <ele>60.219999999999999</ele>
        <time>2026-06-28T10:44:52Z</time>
      </trkpt>
      <trkpt lat="51.604936011135578" lon="-10.114365024492145">
        <ele>59.259999999999998</ele>
        <time>2026-06-28T10:44:55Z</time>
      </trkpt>
      <trkpt lat="51.604979010298848" lon="-10.114538026973605">
        <ele>58.780000000000001</ele>
        <time>2026-06-28T10:44:56Z</time>
      </trkpt>
      <trkpt lat="51.604994013905525" lon="-10.114717986434698">
        <ele>58.780000000000001</ele>
        <time>2026-06-28T10:44:57Z</time>
      </trkpt>
      <trkpt lat="51.605010023340583" lon="-10.114902975037694">
        <ele>58.299999999999997</ele>
        <time>2026-06-28T10:44:58Z</time>
      </trkpt>
      <trkpt lat="51.605027038604021" lon="-10.115098021924496">
        <ele>57.82</ele>
        <time>2026-06-28T10:44:59Z</time>
      </trkpt>
      <trkpt lat="51.605217978358269" lon="-10.116442982107401">
        <ele>55.409999999999997</ele>
        <time>2026-06-28T10:45:06Z</time>
      </trkpt>
      <trkpt lat="51.605292996391654" lon="-10.1166329998523">
        <ele>54.93</ele>
        <time>2026-06-28T10:45:07Z</time>
      </trkpt>
      <trkpt lat="51.605390980839729" lon="-10.116798961535096">
        <ele>54.93</ele>
        <time>2026-06-28T10:45:08Z</time>
      </trkpt>
      <trkpt lat="51.605933038517833" lon="-10.117594990879297">
        <ele>52.530000000000001</ele>
        <time>2026-06-28T10:45:14Z</time>
      </trkpt>
      <trkpt lat="51.606009984388947" lon="-10.117699010297656">
        <ele>52.049999999999997</ele>
        <time>2026-06-28T10:45:15Z</time>
      </trkpt>
      <trkpt lat="51.606067987158895" lon="-10.117847034707665">
        <ele>52.049999999999997</ele>
        <time>2026-06-28T10:45:16Z</time>
      </trkpt>
      <trkpt lat="51.606131019070745" lon="-10.118007967248559">
        <ele>51.57</ele>
        <time>2026-06-28T10:45:17Z</time>
      </trkpt>
      <trkpt lat="51.606172006577253" lon="-10.118194967508316">
        <ele>51.090000000000003</ele>
        <time>2026-06-28T10:45:18Z</time>
      </trkpt>
      <trkpt lat="51.606203019618988" lon="-10.118397977203131">
        <ele>50.609999999999999</ele>
        <time>2026-06-28T10:45:19Z</time>
      </trkpt>
      <trkpt lat="51.606232021003962" lon="-10.11858900077641">
        <ele>50.609999999999999</ele>
        <time>2026-06-28T10:45:20Z</time>
      </trkpt>
      <trkpt lat="51.606256999075413" lon="-10.118753034621477">
        <ele>50.130000000000003</ele>
        <time>2026-06-28T10:45:21Z</time>
      </trkpt>
      <trkpt lat="51.60625297576189" lon="-10.118883959949017">
        <ele>49.649999999999999</ele>
        <time>2026-06-28T10:45:22Z</time>
      </trkpt>
      <trkpt lat="51.606245012953877" lon="-10.119002982974052">
        <ele>49.159999999999997</ele>
        <time>2026-06-28T10:45:23Z</time>
      </trkpt>
      <trkpt lat="51.606211988255382" lon="-10.119939995929599">
        <ele>47.719999999999999</ele>
        <time>2026-06-28T10:45:30Z</time>
      </trkpt>
      <trkpt lat="51.606223974376917" lon="-10.120054995641112">
        <ele>47.719999999999999</ele>
        <time>2026-06-28T10:45:31Z</time>
      </trkpt>
      <trkpt lat="51.606237972155213" lon="-10.120189022272825">
        <ele>47.719999999999999</ele>
        <time>2026-06-28T10:45:32Z</time>
      </trkpt>
      <trkpt lat="51.606280971318483" lon="-10.12026596814394">
        <ele>47.719999999999999</ele>
        <time>2026-06-28T10:45:33Z</time>
      </trkpt>
      <trkpt lat="51.606346014887094" lon="-10.120381973683834">
        <ele>47.719999999999999</ele>
        <time>2026-06-28T10:45:34Z</time>
      </trkpt>
      <trkpt lat="51.606417009606957" lon="-10.120453974232078">
        <ele>47.240000000000002</ele>
        <time>2026-06-28T10:45:35Z</time>
      </trkpt>
      <trkpt lat="51.607119999825954" lon="-10.121211027726531">
        <ele>46.759999999999998</ele>
        <time>2026-06-28T10:45:42Z</time>
      </trkpt>
      <trkpt lat="51.607859032228589" lon="-10.122153991833329">
        <ele>47.240000000000002</ele>
        <time>2026-06-28T10:45:50Z</time>
      </trkpt>
      <trkpt lat="51.609135009348392" lon="-10.123279010877013">
        <ele>46.759999999999998</ele>
        <time>2026-06-28T10:46:01Z</time>
      </trkpt>
      <trkpt lat="51.609906982630491" lon="-10.123935984447598">
        <ele>44.840000000000003</ele>
        <time>2026-06-28T10:46:08Z</time>
      </trkpt>
      <trkpt lat="51.609949981793761" lon="-10.124057019129395">
        <ele>45.32</ele>
        <time>2026-06-28T10:46:09Z</time>
      </trkpt>
      <trkpt lat="51.609934978187084" lon="-10.124135976657271">
        <ele>45.32</ele>
        <time>2026-06-28T10:46:10Z</time>
      </trkpt>
      <trkpt lat="51.609917040914297" lon="-10.124237984418869">
        <ele>45.799999999999997</ele>
        <time>2026-06-28T10:46:11Z</time>
      </trkpt>
      <trkpt lat="51.60985903814435" lon="-10.124377962201834">
        <ele>46.280000000000001</ele>
        <time>2026-06-28T10:46:12Z</time>
      </trkpt>
      <trkpt lat="51.6097960062325" lon="-10.124494973570108">
        <ele>46.280000000000001</ele>
        <time>2026-06-28T10:46:13Z</time>
      </trkpt>
      <trkpt lat="51.609688969329" lon="-10.124794961884618">
        <ele>46.759999999999998</ele>
        <time>2026-06-28T10:46:15Z</time>
      </trkpt>
      <trkpt lat="51.609629038721323" lon="-10.124995959922671">
        <ele>46.759999999999998</ele>
        <time>2026-06-28T10:46:16Z</time>
      </trkpt>
      <trkpt lat="51.609615040943027" lon="-10.125109031796455">
        <ele>47.240000000000002</ele>
        <time>2026-06-28T10:46:17Z</time>
      </trkpt>
      <trkpt lat="51.609595008194447" lon="-10.125264013186097">
        <ele>47.240000000000002</ele>
        <time>2026-06-28T10:46:18Z</time>
      </trkpt>
      <trkpt lat="51.609586039558053" lon="-10.125427041202784">
        <ele>47.240000000000002</ele>
        <time>2026-06-28T10:46:19Z</time>
      </trkpt>
      <trkpt lat="51.609586039558053" lon="-10.125603983178735">
        <ele>47.240000000000002</ele>
        <time>2026-06-28T10:46:20Z</time>
      </trkpt>
      <trkpt lat="51.609586039558053" lon="-10.125784026458859">
        <ele>47.719999999999999</ele>
        <time>2026-06-28T10:46:21Z</time>
      </trkpt>
      <trkpt lat="51.609614035114646" lon="-10.125958034768701">
        <ele>47.719999999999999</ele>
        <time>2026-06-28T10:46:22Z</time>
      </trkpt>
      <trkpt lat="51.609642030671239" lon="-10.126123996451497">
        <ele>47.719999999999999</ele>
        <time>2026-06-28T10:46:23Z</time>
      </trkpt>
      <trkpt lat="51.609669020399451" lon="-10.126286018639803">
        <ele>47.719999999999999</ele>
        <time>2026-06-28T10:46:24Z</time>
      </trkpt>
      <trkpt lat="51.609709002077579" lon="-10.126433037221432">
        <ele>47.719999999999999</ele>
        <time>2026-06-28T10:46:25Z</time>
      </trkpt>
      <trkpt lat="51.60975300706923" lon="-10.126587012782693">
        <ele>47.719999999999999</ele>
        <time>2026-06-28T10:46:26Z</time>
      </trkpt>
      <trkpt lat="51.609848979860544" lon="-10.126918014138937">
        <ele>48.200000000000003</ele>
        <time>2026-06-28T10:46:28Z</time>
      </trkpt>
      <trkpt lat="51.609907988458872" lon="-10.127120018005371">
        <ele>48.68</ele>
        <time>2026-06-28T10:46:29Z</time>
      </trkpt>
      <trkpt lat="51.609963979572058" lon="-10.127218002453446">
        <ele>48.68</ele>
        <time>2026-06-28T10:46:30Z</time>
      </trkpt>
      <trkpt lat="51.610028017312288" lon="-10.127330990508199">
        <ele>48.68</ele>
        <time>2026-06-28T10:46:31Z</time>
      </trkpt>
      <trkpt lat="51.610084008425474" lon="-10.127427969127893">
        <ele>48.68</ele>
        <time>2026-06-28T10:46:32Z</time>
      </trkpt>
      <trkpt lat="51.610767971724272" lon="-10.128624988719821">
        <ele>50.130000000000003</ele>
        <time>2026-06-28T10:46:43Z</time>
      </trkpt>
      <trkpt lat="51.611126968637109" lon="-10.129305012524128">
        <ele>50.130000000000003</ele>
        <time>2026-06-28T10:46:48Z</time>
      </trkpt>
      <trkpt lat="51.611197963356972" lon="-10.129468040540814">
        <ele>50.130000000000003</ele>
        <time>2026-06-28T10:46:49Z</time>
      </trkpt>
      <trkpt lat="51.611486971378326" lon="-10.130821969360113">
        <ele>52.530000000000001</ele>
        <time>2026-06-28T10:46:56Z</time>
      </trkpt>
      <trkpt lat="51.611753012984991" lon="-10.132162990048528">
        <ele>53.490000000000002</ele>
        <time>2026-06-28T10:47:03Z</time>
      </trkpt>
      <trkpt lat="51.611962979659438" lon="-10.133474003523588">
        <ele>55.409999999999997</ele>
        <time>2026-06-28T10:47:10Z</time>
      </trkpt>
      <trkpt lat="51.61194303072989" lon="-10.13364901766181">
        <ele>55.890000000000001</ele>
        <time>2026-06-28T10:47:11Z</time>
      </trkpt>
      <trkpt lat="51.611925009638071" lon="-10.133811961859465">
        <ele>56.369999999999997</ele>
        <time>2026-06-28T10:47:12Z</time>
      </trkpt>
      <trkpt lat="51.611884022131562" lon="-10.133955040946603">
        <ele>56.859999999999999</ele>
        <time>2026-06-28T10:47:13Z</time>
      </trkpt>
      <trkpt lat="51.611839011311531" lon="-10.134105999022722">
        <ele>57.340000000000003</ele>
        <time>2026-06-28T10:47:14Z</time>
      </trkpt>
      <trkpt lat="51.611783020198345" lon="-10.134261986240745">
        <ele>57.340000000000003</ele>
        <time>2026-06-28T10:47:15Z</time>
      </trkpt>
      <trkpt lat="51.611291002482176" lon="-10.135546009987593">
        <ele>59.259999999999998</ele>
        <time>2026-06-28T10:47:23Z</time>
      </trkpt>
      <trkpt lat="51.611266024410725" lon="-10.135693028569221">
        <ele>59.740000000000002</ele>
        <time>2026-06-28T10:47:24Z</time>
      </trkpt>
      <trkpt lat="51.611240040510893" lon="-10.13584197498858">
        <ele>60.219999999999999</ele>
        <time>2026-06-28T10:47:25Z</time>
      </trkpt>
      <trkpt lat="51.611213972792029" lon="-10.135989999398589">
        <ele>60.700000000000003</ele>
        <time>2026-06-28T10:47:26Z</time>
      </trkpt>
      <trkpt lat="51.611188994720578" lon="-10.136134000495076">
        <ele>61.18</ele>
        <time>2026-06-28T10:47:27Z</time>
      </trkpt>
      <trkpt lat="51.610834021121264" lon="-10.137355998158455">
        <ele>64.069999999999993</ele>
        <time>2026-06-28T10:47:35Z</time>
      </trkpt>
      <trkpt lat="51.610765960067511" lon="-10.137483989819884">
        <ele>64.549999999999997</ele>
        <time>2026-06-28T10:47:36Z</time>
      </trkpt>
      <trkpt lat="51.610668981447816" lon="-10.13756001368165">
        <ele>65.510000000000005</ele>
        <time>2026-06-28T10:47:37Z</time>
      </trkpt>
      <trkpt lat="51.610573008656502" lon="-10.137634025886655">
        <ele>65.989999999999995</ele>
        <time>2026-06-28T10:47:38Z</time>
      </trkpt>
      <trkpt lat="51.610468989238143" lon="-10.137670990079641">
        <ele>66.469999999999999</ele>
        <time>2026-06-28T10:47:39Z</time>
      </trkpt>
      <trkpt lat="51.60968704149127" lon="-10.137949017807841">
        <ele>68.870000000000005</ele>
        <time>2026-06-28T10:47:46Z</time>
      </trkpt>
      <trkpt lat="51.609573969617486" lon="-10.13801297172904">
        <ele>68.870000000000005</ele>
        <time>2026-06-28T10:47:47Z</time>
      </trkpt>
      <trkpt lat="51.609475985169411" lon="-10.138116991147399">
        <ele>69.349999999999994</ele>
        <time>2026-06-28T10:47:48Z</time>
      </trkpt>
      <trkpt lat="51.609381018206477" lon="-10.138217993080616">
        <ele>69.349999999999994</ele>
        <time>2026-06-28T10:47:49Z</time>
      </trkpt>
      <trkpt lat="51.609284039586782" lon="-10.138322012498975">
        <ele>69.349999999999994</ele>
        <time>2026-06-28T10:47:50Z</time>
      </trkpt>
      <trkpt lat="51.609206004068255" lon="-10.138489985838532">
        <ele>69.349999999999994</ele>
        <time>2026-06-28T10:47:51Z</time>
      </trkpt>
      <trkpt lat="51.609139032661915" lon="-10.138659970834851">
        <ele>69.349999999999994</ele>
        <time>2026-06-28T10:47:52Z</time>
      </trkpt>
      <trkpt lat="51.609076000750065" lon="-10.138818975538015">
        <ele>69.349999999999994</ele>
        <time>2026-06-28T10:47:53Z</time>
      </trkpt>
      <trkpt lat="51.609013974666595" lon="-10.138976974412799">
        <ele>69.349999999999994</ele>
        <time>2026-06-28T10:47:54Z</time>
      </trkpt>
      <trkpt lat="51.608646009117365" lon="-10.140741029754281">
        <ele>65.989999999999995</ele>
        <time>2026-06-28T10:48:03Z</time>
      </trkpt>
      <trkpt lat="51.608637040480971" lon="-10.140947978943586">
        <ele>65.510000000000005</ele>
        <time>2026-06-28T10:48:04Z</time>
      </trkpt>
      <trkpt lat="51.608626982197165" lon="-10.142143992707133">
        <ele>61.659999999999997</ele>
        <time>2026-06-28T10:48:10Z</time>
      </trkpt>
      <trkpt lat="51.608639974147081" lon="-10.142301991581917">
        <ele>60.700000000000003</ele>
        <time>2026-06-28T10:48:11Z</time>
      </trkpt>
      <trkpt lat="51.608686996623874" lon="-10.14284597709775">
        <ele>59.259999999999998</ele>
        <time>2026-06-28T10:48:15Z</time>
      </trkpt>
      <trkpt lat="51.608641985803843" lon="-10.14445697888732">
        <ele>57.340000000000003</ele>
        <time>2026-06-28T10:48:26Z</time>
      </trkpt>
      <trkpt lat="51.608762014657259" lon="-10.145728010684252">
        <ele>57.82</ele>
        <time>2026-06-28T10:48:33Z</time>
      </trkpt>
      <trkpt lat="51.608858993276954" lon="-10.146325975656509">
        <ele>58.780000000000001</ele>
        <time>2026-06-28T10:48:39Z</time>
      </trkpt>
      <trkpt lat="51.608878020197153" lon="-10.146389007568359">
        <ele>58.780000000000001</ele>
        <time>2026-06-28T10:48:40Z</time>
      </trkpt>
      <trkpt lat="51.608931999653578" lon="-10.146474000066519">
        <ele>59.259999999999998</ele>
        <time>2026-06-28T10:48:41Z</time>
      </trkpt>
      <trkpt lat="51.60897902213037" lon="-10.146547006443143">
        <ele>59.259999999999998</ele>
        <time>2026-06-28T10:48:42Z</time>
      </trkpt>
      <trkpt lat="51.609023027122021" lon="-10.146614983677864">
        <ele>59.259999999999998</ele>
        <time>2026-06-28T10:48:43Z</time>
      </trkpt>
      <trkpt lat="51.609066026285291" lon="-10.146682038903236">
        <ele>59.259999999999998</ele>
        <time>2026-06-28T10:48:44Z</time>
      </trkpt>
      <trkpt lat="51.609077006578445" lon="-10.146746998652816">
        <ele>58.780000000000001</ele>
        <time>2026-06-28T10:48:45Z</time>
      </trkpt>
      <trkpt lat="51.609085975214839" lon="-10.146829979494214">
        <ele>58.299999999999997</ele>
        <time>2026-06-28T10:48:46Z</time>
      </trkpt>
      <trkpt lat="51.609095027670264" lon="-10.146909020841122">
        <ele>58.299999999999997</ele>
        <time>2026-06-28T10:48:47Z</time>
      </trkpt>
      <trkpt lat="51.609103996306658" lon="-10.146988984197378">
        <ele>57.340000000000003</ele>
        <time>2026-06-28T10:48:48Z</time>
      </trkpt>
      <trkpt lat="51.609113970771432" lon="-10.147081017494202">
        <ele>56.859999999999999</ele>
        <time>2026-06-28T10:48:49Z</time>
      </trkpt>
      <trkpt lat="51.609126040711999" lon="-10.147188976407051">
        <ele>56.369999999999997</ele>
        <time>2026-06-28T10:48:50Z</time>
      </trkpt>
      <trkpt lat="51.609149007126689" lon="-10.147302970290184">
        <ele>55.890000000000001</ele>
        <time>2026-06-28T10:48:51Z</time>
      </trkpt>
      <trkpt lat="51.609186977148056" lon="-10.147397015243769">
        <ele>54.93</ele>
        <time>2026-06-28T10:48:52Z</time>
      </trkpt>
      <trkpt lat="51.609226958826184" lon="-10.147494999691844">
        <ele>54.93</ele>
        <time>2026-06-28T10:48:53Z</time>
      </trkpt>
      <trkpt lat="51.60943097434938" lon="-10.147997997701168">
        <ele>54.450000000000003</ele>
        <time>2026-06-28T10:49:00Z</time>
      </trkpt>
      <trkpt lat="51.609456958249211" lon="-10.148063041269779">
        <ele>54.450000000000003</ele>
        <time>2026-06-28T10:49:01Z</time>
      </trkpt>
      <trkpt lat="51.609448995441198" lon="-10.148135963827372">
        <ele>54.450000000000003</ele>
        <time>2026-06-28T10:49:02Z</time>
      </trkpt>
      <trkpt lat="51.609439020976424" lon="-10.148221962153912">
        <ele>53.969999999999999</ele>
        <time>2026-06-28T10:49:03Z</time>
      </trkpt>
      <trkpt lat="51.609428962692618" lon="-10.148315001279116">
        <ele>53.969999999999999</ele>
        <time>2026-06-28T10:49:04Z</time>
      </trkpt>
      <trkpt lat="51.609417982399464" lon="-10.14840804040432">
        <ele>53.969999999999999</ele>
        <time>2026-06-28T10:49:05Z</time>
      </trkpt>
      <trkpt lat="51.609407002106309" lon="-10.148503007367253">
        <ele>53.969999999999999</ele>
        <time>2026-06-28T10:49:06Z</time>
      </trkpt>
      <trkpt lat="51.60932200960815" lon="-10.149452006444335">
        <ele>49.649999999999999</ele>
        <time>2026-06-28T10:49:15Z</time>
      </trkpt>
      <trkpt lat="51.609340030699968" lon="-10.150638967752457">
        <ele>41.950000000000003</ele>
        <time>2026-06-28T10:49:25Z</time>
      </trkpt>
      <trkpt lat="51.609350005164742" lon="-10.150830997154117">
        <ele>40.509999999999998</ele>
        <time>2026-06-28T10:49:27Z</time>
      </trkpt>
      <trkpt lat="51.609370037913322" lon="-10.150929987430573">
        <ele>40.030000000000001</ele>
        <time>2026-06-28T10:49:28Z</time>
      </trkpt>
      <trkpt lat="51.609578998759389" lon="-10.151875969022512">
        <ele>31.379999999999999</ele>
        <time>2026-06-28T10:49:38Z</time>
      </trkpt>
      <trkpt lat="51.609617974609137" lon="-10.152015024796128">
        <ele>29.460000000000001</ele>
        <time>2026-06-28T10:49:40Z</time>
      </trkpt>
      <trkpt lat="51.609626021236181" lon="-10.152088031172752">
        <ele>28.5</ele>
        <time>2026-06-28T10:49:41Z</time>
      </trkpt>
      <trkpt lat="51.609620992094278" lon="-10.152161037549376">
        <ele>27.530000000000001</ele>
        <time>2026-06-28T10:49:42Z</time>
      </trkpt>
      <trkpt lat="51.609615040943027" lon="-10.152239995077252">
        <ele>27.050000000000001</ele>
        <time>2026-06-28T10:49:43Z</time>
      </trkpt>
      <trkpt lat="51.609609005972743" lon="-10.152329010888934">
        <ele>26.09</ele>
        <time>2026-06-28T10:49:44Z</time>
      </trkpt>
      <trkpt lat="51.609586039558053" lon="-10.152634028345346">
        <ele>23.210000000000001</ele>
        <time>2026-06-28T10:49:48Z</time>
      </trkpt>
      <trkpt lat="51.609600959345698" lon="-10.152694964781404">
        <ele>22.25</ele>
        <time>2026-06-28T10:49:49Z</time>
      </trkpt>
      <trkpt lat="51.609616968780756" lon="-10.152756990864873">
        <ele>21.77</ele>
        <time>2026-06-28T10:49:50Z</time>
      </trkpt>
      <trkpt lat="51.609649993479252" lon="-10.152891017496586">
        <ele>20.809999999999999</ele>
        <time>2026-06-28T10:49:52Z</time>
      </trkpt>
      <trkpt lat="51.609905976802111" lon="-10.153726022690535">
        <ele>17.920000000000002</ele>
        <time>2026-06-28T10:50:03Z</time>
      </trkpt>
      <trkpt lat="51.609901031479239" lon="-10.153881004080176">
        <ele>17.920000000000002</ele>
        <time>2026-06-28T10:50:05Z</time>
      </trkpt>
      <trkpt lat="51.609899019822478" lon="-10.153957027941942">
        <ele>18.399999999999999</ele>
        <time>2026-06-28T10:50:06Z</time>
      </trkpt>
      <trkpt lat="51.609897008165717" lon="-10.154030034318566">
        <ele>18.399999999999999</ele>
        <time>2026-06-28T10:50:07Z</time>
      </trkpt>
      <trkpt lat="51.609898013994098" lon="-10.154424989596009">
        <ele>18.399999999999999</ele>
        <time>2026-06-28T10:50:12Z</time>
      </trkpt>
      <trkpt lat="51.609948975965381" lon="-10.154707040637732">
        <ele>17.920000000000002</ele>
        <time>2026-06-28T10:50:16Z</time>
      </trkpt>
      <trkpt lat="51.609963979572058" lon="-10.154768982902169">
        <ele>17.440000000000001</ele>
        <time>2026-06-28T10:50:17Z</time>
      </trkpt>
      <trkpt lat="51.60998803563416" lon="-10.154865039512515">
        <ele>18.399999999999999</ele>
        <time>2026-06-28T10:50:24Z</time>
      </trkpt>
      <trkpt lat="51.609993986785412" lon="-10.154885994270444">
        <ele>18.399999999999999</ele>
        <time>2026-06-28T10:50:38Z</time>
      </trkpt>
      <trkpt lat="51.609993986785412" lon="-10.154885994270444">
        <ele>19.359999999999999</ele>
        <time>2026-06-28T10:50:39Z</time>
      </trkpt>
      <trkpt lat="51.609993986785412" lon="-10.154885994270444">
        <ele>20.32</ele>
        <time>2026-06-28T10:50:50Z</time>
      </trkpt>
      <trkpt lat="51.609974037855864" lon="-10.154807036742568">
        <ele>18.879999999999999</ele>
        <time>2026-06-28T10:51:03Z</time>
      </trkpt>
      <trkpt lat="51.609974037855864" lon="-10.154807036742568">
        <ele>18.879999999999999</ele>
        <time>2026-06-28T10:51:18Z</time>
      </trkpt>
      <trkpt lat="51.609974037855864" lon="-10.154807036742568">
        <ele>18.879999999999999</ele>
        <time>2026-06-28T10:51:37Z</time>
      </trkpt>
      <trkpt lat="51.609974037855864" lon="-10.154807036742568">
        <ele>18.399999999999999</ele>
        <time>2026-06-28T10:52:23Z</time>
      </trkpt>
      <trkpt lat="51.609974037855864" lon="-10.154807036742568">
        <ele>18.399999999999999</ele>
        <time>2026-06-28T10:52:46Z</time>
      </trkpt>
      <trkpt lat="51.609974037855864" lon="-10.154807036742568">
        <ele>18.399999999999999</ele>
        <time>2026-06-28T10:53:35Z</time>
      </trkpt>
      <trkpt lat="51.609974037855864" lon="-10.154807036742568">
        <ele>17.920000000000002</ele>
        <time>2026-06-28T10:54:24Z</time>
      </trkpt>
      <trkpt lat="51.609974037855864" lon="-10.154807036742568">
        <ele>17.920000000000002</ele>
        <time>2026-06-28T10:55:19Z</time>
      </trkpt>
      <trkpt lat="51.609929027035832" lon="-10.154629005119205">
        <ele>89.060000000000002</ele>
        <time>2026-06-28T10:58:18Z</time>
      </trkpt>
      <trkpt lat="51.609929027035832" lon="-10.154629005119205">
        <ele>48.68</ele>
        <time>2026-06-28T10:58:19Z</time>
      </trkpt>
      <trkpt lat="51.609929027035832" lon="-10.154629005119205">
        <ele>20.809999999999999</ele>
        <time>2026-06-28T10:58:39Z</time>
      </trkpt>
      <trkpt lat="51.609929027035832" lon="-10.154629005119205">
        <ele>19.359999999999999</ele>
        <time>2026-06-28T10:58:54Z</time>
      </trkpt>
      <trkpt lat="51.609929027035832" lon="-10.154629005119205">
        <ele>19.84</ele>
        <time>2026-06-28T10:58:56Z</time>
      </trkpt>
      <trkpt lat="51.609922992065549" lon="-10.154590029269457">
        <ele>19.84</ele>
        <time>2026-06-28T10:58:57Z</time>
      </trkpt>
      <trkpt lat="51.609917040914297" lon="-10.154547030106187">
        <ele>20.32</ele>
        <time>2026-06-28T10:58:58Z</time>
      </trkpt>
      <trkpt lat="51.609910000115633" lon="-10.154505958780646">
        <ele>20.32</ele>
        <time>2026-06-28T10:58:59Z</time>
      </trkpt>
      <trkpt lat="51.609891979023814" lon="-10.154175041243434">
        <ele>20.809999999999999</ele>
        <time>2026-06-28T10:59:04Z</time>
      </trkpt>
      <trkpt lat="51.609894996508956" lon="-10.154075967147946">
        <ele>20.809999999999999</ele>
        <time>2026-06-28T10:59:05Z</time>
      </trkpt>
      <trkpt lat="51.609901031479239" lon="-10.153878992423415">
        <ele>21.289999999999999</ele>
        <time>2026-06-28T10:59:07Z</time>
      </trkpt>
      <trkpt lat="51.60990497097373" lon="-10.153777990490198">
        <ele>21.289999999999999</ele>
        <time>2026-06-28T10:59:08Z</time>
      </trkpt>
      <trkpt lat="51.609907988458872" lon="-10.153685035184026">
        <ele>21.289999999999999</ele>
        <time>2026-06-28T10:59:09Z</time>
      </trkpt>
      <trkpt lat="51.609883010387421" lon="-10.15360901132226">
        <ele>21.289999999999999</ele>
        <time>2026-06-28T10:59:10Z</time>
      </trkpt>
      <trkpt lat="51.609853003174067" lon="-10.153515972197056">
        <ele>20.809999999999999</ele>
        <time>2026-06-28T10:59:11Z</time>
      </trkpt>
      <trkpt lat="51.609821990132332" lon="-10.153421005234122">
        <ele>20.809999999999999</ele>
        <time>2026-06-28T10:59:12Z</time>
      </trkpt>
      <trkpt lat="51.609609005972743" lon="-10.152726983651519">
        <ele>21.289999999999999</ele>
        <time>2026-06-28T10:59:19Z</time>
      </trkpt>
      <trkpt lat="51.609588973224163" lon="-10.152647020295262">
        <ele>21.289999999999999</ele>
        <time>2026-06-28T10:59:20Z</time>
      </trkpt>
      <trkpt lat="51.609591990709305" lon="-10.152545012533665">
        <ele>21.289999999999999</ele>
        <time>2026-06-28T10:59:21Z</time>
      </trkpt>
      <trkpt lat="51.609600037336349" lon="-10.152446022257209">
        <ele>21.289999999999999</ele>
        <time>2026-06-28T10:59:22Z</time>
      </trkpt>
      <trkpt lat="51.609608000144362" lon="-10.152338985353708">
        <ele>21.77</ele>
        <time>2026-06-28T10:59:23Z</time>
      </trkpt>
      <trkpt lat="51.609629038721323" lon="-10.152054000645876">
        <ele>23.690000000000001</ele>
        <time>2026-06-28T10:59:26Z</time>
      </trkpt>
      <trkpt lat="51.609597019851208" lon="-10.151937995105982">
        <ele>24.649999999999999</ele>
        <time>2026-06-28T10:59:27Z</time>
      </trkpt>
      <trkpt lat="51.609568018466234" lon="-10.151835987344384">
        <ele>25.609999999999999</ele>
        <time>2026-06-28T10:59:28Z</time>
      </trkpt>
      <trkpt lat="51.609539017081261" lon="-10.151730962097645">
        <ele>26.57</ele>
        <time>2026-06-28T10:59:29Z</time>
      </trkpt>
      <trkpt lat="51.609510015696287" lon="-10.151614034548402">
        <ele>27.050000000000001</ele>
        <time>2026-06-28T10:59:30Z</time>
      </trkpt>
      <trkpt lat="51.609342964366078" lon="-10.150706022977829">
        <ele>33.780000000000001</ele>
        <time>2026-06-28T10:59:37Z</time>
      </trkpt>
      <trkpt lat="51.609336007386446" lon="-10.150569984689355">
        <ele>34.740000000000002</ele>
        <time>2026-06-28T10:59:38Z</time>
      </trkpt>
      <trkpt lat="51.609315974637866" lon="-10.149650992825627">
        <ele>40.990000000000002</ele>
        <time>2026-06-28T10:59:47Z</time>
      </trkpt>
      <trkpt lat="51.609317986294627" lon="-10.149584021419287">
        <ele>41.950000000000003</ele>
        <time>2026-06-28T10:59:48Z</time>
      </trkpt>
      <trkpt lat="51.60932200960815" lon="-10.149443037807941">
        <ele>43.399999999999999</ele>
        <time>2026-06-28T10:59:50Z</time>
      </trkpt>
      <trkpt lat="51.609327960759401" lon="-10.149199962615967">
        <ele>44.840000000000003</ele>
        <time>2026-06-28T10:59:53Z</time>
      </trkpt>
      <trkpt lat="51.609327960759401" lon="-10.149199962615967">
        <ele>44.840000000000003</ele>
        <time>2026-06-28T10:59:54Z</time>
      </trkpt>
      <trkpt lat="51.609328966587782" lon="-10.149196023121476">
        <ele>44.840000000000003</ele>
        <time>2026-06-28T10:59:55Z</time>
      </trkpt>
      <trkpt lat="51.609327960759401" lon="-10.149199962615967">
        <ele>45.32</ele>
        <time>2026-06-28T10:59:56Z</time>
      </trkpt>
      <trkpt lat="51.609335001558065" lon="-10.149138020351529">
        <ele>45.32</ele>
        <time>2026-06-28T10:59:57Z</time>
      </trkpt>
      <trkpt lat="51.609341036528349" lon="-10.149087980389595">
        <ele>45.32</ele>
        <time>2026-06-28T10:59:58Z</time>
      </trkpt>
      <trkpt lat="51.609350005164742" lon="-10.14901296235621">
        <ele>45.799999999999997</ele>
        <time>2026-06-28T10:59:59Z</time>
      </trkpt>
      <trkpt lat="51.609359979629517" lon="-10.148917995393276">
        <ele>45.799999999999997</ele>
        <time>2026-06-28T11:00:00Z</time>
      </trkpt>
      <trkpt lat="51.609437009319663" lon="-10.148245012387633">
        <ele>50.609999999999999</ele>
        <time>2026-06-28T11:00:06Z</time>
      </trkpt>
      <trkpt lat="51.609450001269579" lon="-10.148126995190978">
        <ele>51.090000000000003</ele>
        <time>2026-06-28T11:00:07Z</time>
      </trkpt>
      <trkpt lat="51.609434997662902" lon="-10.148007972165942">
        <ele>51.57</ele>
        <time>2026-06-28T11:00:08Z</time>
      </trkpt>
      <trkpt lat="51.609391998499632" lon="-10.147901019081473">
        <ele>51.57</ele>
        <time>2026-06-28T11:00:09Z</time>
      </trkpt>
      <trkpt lat="51.609347993507981" lon="-10.147793982177973">
        <ele>52.049999999999997</ele>
        <time>2026-06-28T11:00:10Z</time>
      </trkpt>
      <trkpt lat="51.609122017398477" lon="-10.147144971415401">
        <ele>53.009999999999998</ele>
        <time>2026-06-28T11:00:16Z</time>
      </trkpt>
      <trkpt lat="51.609109025448561" lon="-10.147029971703887">
        <ele>53.009999999999998</ele>
        <time>2026-06-28T11:00:17Z</time>
      </trkpt>
      <trkpt lat="51.609084969386458" lon="-10.146821010857821">
        <ele>53.969999999999999</ele>
        <time>2026-06-28T11:00:19Z</time>
      </trkpt>
      <trkpt lat="51.609073989093304" lon="-10.146717997267842">
        <ele>53.969999999999999</ele>
        <time>2026-06-28T11:00:20Z</time>
      </trkpt>
      <trkpt lat="51.609039036557078" lon="-10.146639961749315">
        <ele>54.450000000000003</ele>
        <time>2026-06-28T11:00:21Z</time>
      </trkpt>
      <trkpt lat="51.608997965231538" lon="-10.146576007828116">
        <ele>54.93</ele>
        <time>2026-06-28T11:00:22Z</time>
      </trkpt>
      <trkpt lat="51.608955971896648" lon="-10.146511970087886">
        <ele>55.409999999999997</ele>
        <time>2026-06-28T11:00:23Z</time>
      </trkpt>
      <trkpt lat="51.608911966904998" lon="-10.146442987024784">
        <ele>55.890000000000001</ele>
        <time>2026-06-28T11:00:24Z</time>
      </trkpt>
      <trkpt lat="51.608869973570108" lon="-10.146365035325289">
        <ele>55.890000000000001</ele>
        <time>2026-06-28T11:00:25Z</time>
      </trkpt>
      <trkpt lat="51.608838960528374" lon="-10.146259004250169">
        <ele>55.890000000000001</ele>
        <time>2026-06-28T11:00:26Z</time>
      </trkpt>
      <trkpt lat="51.6088099591434" lon="-10.146147022023797">
        <ele>56.369999999999997</ele>
        <time>2026-06-28T11:00:27Z</time>
      </trkpt>
      <trkpt lat="51.608795961365104" lon="-10.146020958200097">
        <ele>55.890000000000001</ele>
        <time>2026-06-28T11:00:28Z</time>
      </trkpt>
      <trkpt lat="51.608781041577458" lon="-10.145895984023809">
        <ele>55.409999999999997</ele>
        <time>2026-06-28T11:00:29Z</time>
      </trkpt>
      <trkpt lat="51.608710968866944" lon="-10.145292989909649">
        <ele>53.490000000000002</ele>
        <time>2026-06-28T11:00:37Z</time>
      </trkpt>
      <trkpt lat="51.608650032430887" lon="-10.144764008000493">
        <ele>53.490000000000002</ele>
        <time>2026-06-28T11:00:44Z</time>
      </trkpt>
      <trkpt lat="51.608668975532055" lon="-10.143516026437283">
        <ele>52.049999999999997</ele>
        <time>2026-06-28T11:00:52Z</time>
      </trkpt>
      <trkpt lat="51.608696971088648" lon="-10.142960976809263">
        <ele>52.530000000000001</ele>
        <time>2026-06-28T11:00:56Z</time>
      </trkpt>
      <trkpt lat="51.608684984967113" lon="-10.142817981541157">
        <ele>52.049999999999997</ele>
        <time>2026-06-28T11:00:57Z</time>
      </trkpt>
      <trkpt lat="51.608672998845577" lon="-10.14267398044467">
        <ele>52.049999999999997</ele>
        <time>2026-06-28T11:00:58Z</time>
      </trkpt>
      <trkpt lat="51.608660006895661" lon="-10.142529979348183">
        <ele>52.530000000000001</ele>
        <time>2026-06-28T11:00:59Z</time>
      </trkpt>
      <trkpt lat="51.608648020774126" lon="-10.142388995736837">
        <ele>52.530000000000001</ele>
        <time>2026-06-28T11:01:00Z</time>
      </trkpt>
      <trkpt lat="51.608622958883643" lon="-10.142097976058722">
        <ele>53.009999999999998</ele>
        <time>2026-06-28T11:01:02Z</time>
      </trkpt>
      <trkpt lat="51.608610972762108" lon="-10.141957998275757">
        <ele>53.009999999999998</ele>
        <time>2026-06-28T11:01:03Z</time>
      </trkpt>
      <trkpt lat="51.608598986640573" lon="-10.141817014664412">
        <ele>53.009999999999998</ele>
        <time>2026-06-28T11:01:04Z</time>
      </trkpt>
      <trkpt lat="51.608664030209184" lon="-10.140332998707891">
        <ele>58.299999999999997</ele>
        <time>2026-06-28T11:01:14Z</time>
      </trkpt>
      <trkpt lat="51.60921698436141" lon="-10.138460984453559">
        <ele>62.619999999999997</ele>
        <time>2026-06-28T11:01:26Z</time>
      </trkpt>
      <trkpt lat="51.609278004616499" lon="-10.138327963650227">
        <ele>63.100000000000001</ele>
        <time>2026-06-28T11:01:27Z</time>
      </trkpt>
      <trkpt lat="51.609356962144375" lon="-10.138243976980448">
        <ele>63.100000000000001</ele>
        <time>2026-06-28T11:01:28Z</time>
      </trkpt>
      <trkpt lat="51.609439020976424" lon="-10.138155966997147">
        <ele>63.100000000000001</ele>
        <time>2026-06-28T11:01:29Z</time>
      </trkpt>
      <trkpt lat="51.609522001817822" lon="-10.138068962842226">
        <ele>62.619999999999997</ele>
        <time>2026-06-28T11:01:30Z</time>
      </trkpt>
      <trkpt lat="51.60960397683084" lon="-10.137981036677957">
        <ele>63.100000000000001</ele>
        <time>2026-06-28T11:01:31Z</time>
      </trkpt>
      <trkpt lat="51.609698021784425" lon="-10.1379460003227">
        <ele>63.100000000000001</ele>
        <time>2026-06-28T11:01:32Z</time>
      </trkpt>
      <trkpt lat="51.6097960062325" lon="-10.137910963967443">
        <ele>63.100000000000001</ele>
        <time>2026-06-28T11:01:33Z</time>
      </trkpt>
      <trkpt lat="51.609894996508956" lon="-10.137875005602837">
        <ele>63.579999999999998</ele>
        <time>2026-06-28T11:01:34Z</time>
      </trkpt>
      <trkpt lat="51.610000021755695" lon="-10.13783804140985">
        <ele>63.579999999999998</ele>
        <time>2026-06-28T11:01:35Z</time>
      </trkpt>
      <trkpt lat="51.610661018639803" lon="-10.137565964832902">
        <ele>62.619999999999997</ele>
        <time>2026-06-28T11:01:42Z</time>
      </trkpt>
      <trkpt lat="51.61074198782444" lon="-10.137503016740084">
        <ele>62.619999999999997</ele>
        <time>2026-06-28T11:01:43Z</time>
      </trkpt>
      <trkpt lat="51.610808959230781" lon="-10.137402014806867">
        <ele>62.619999999999997</ele>
        <time>2026-06-28T11:01:44Z</time>
      </trkpt>
      <trkpt lat="51.610871991142631" lon="-10.13728198595345">
        <ele>62.619999999999997</ele>
        <time>2026-06-28T11:01:45Z</time>
      </trkpt>
      <trkpt lat="51.610937034711242" lon="-10.137160029262304">
        <ele>62.140000000000001</ele>
        <time>2026-06-28T11:01:46Z</time>
      </trkpt>
      <trkpt lat="51.610994031652808" lon="-10.137015022337437">
        <ele>62.140000000000001</ele>
        <time>2026-06-28T11:01:47Z</time>
      </trkpt>
      <trkpt lat="51.611029990017414" lon="-10.136859035119414">
        <ele>61.659999999999997</ele>
        <time>2026-06-28T11:01:48Z</time>
      </trkpt>
      <trkpt lat="51.611067038029432" lon="-10.136693995445967">
        <ele>61.18</ele>
        <time>2026-06-28T11:01:49Z</time>
      </trkpt>
      <trkpt lat="51.611176002770662" lon="-10.1362070068717">
        <ele>61.18</ele>
        <time>2026-06-28T11:01:52Z</time>
      </trkpt>
      <trkpt lat="51.611288990825415" lon="-10.13556201942265">
        <ele>61.659999999999997</ele>
        <time>2026-06-28T11:01:56Z</time>
      </trkpt>
      <trkpt lat="51.611314974725246" lon="-10.135409971699119">
        <ele>61.659999999999997</ele>
        <time>2026-06-28T11:01:57Z</time>
      </trkpt>
      <trkpt lat="51.611360991373658" lon="-10.135270999744534">
        <ele>61.659999999999997</ele>
        <time>2026-06-28T11:01:58Z</time>
      </trkpt>
      <trkpt lat="51.611877987161279" lon="-10.133974989876151">
        <ele>60.219999999999999</ele>
        <time>2026-06-28T11:02:08Z</time>
      </trkpt>
      <trkpt lat="51.61190003156662" lon="-10.133897960186005">
        <ele>59.740000000000002</ele>
        <time>2026-06-28T11:02:09Z</time>
      </trkpt>
      <trkpt lat="51.611918974667788" lon="-10.133836017921567">
        <ele>59.740000000000002</ele>
        <time>2026-06-28T11:02:10Z</time>
      </trkpt>
      <trkpt lat="51.611925009638071" lon="-10.133814979344606">
        <ele>59.740000000000002</ele>
        <time>2026-06-28T11:02:11Z</time>
      </trkpt>
      <trkpt lat="51.611925009638071" lon="-10.133814979344606">
        <ele>60.219999999999999</ele>
        <time>2026-06-28T11:02:24Z</time>
      </trkpt>
      <trkpt lat="51.611927021294832" lon="-10.133791007101536">
        <ele>60.219999999999999</ele>
        <time>2026-06-28T11:02:59Z</time>
      </trkpt>
      <trkpt lat="51.611956022679806" lon="-10.133534017950296">
        <ele>60.219999999999999</ele>
        <time>2026-06-28T11:03:02Z</time>
      </trkpt>
      <trkpt lat="51.611964991316199" lon="-10.133407032117248">
        <ele>59.740000000000002</ele>
        <time>2026-06-28T11:03:03Z</time>
      </trkpt>
      <trkpt lat="51.61194403655827" lon="-10.133268982172012">
        <ele>59.740000000000002</ele>
        <time>2026-06-28T11:03:04Z</time>
      </trkpt>
      <trkpt lat="51.611629966646433" lon="-10.131697962060571">
        <ele>58.780000000000001</ele>
        <time>2026-06-28T11:03:13Z</time>
      </trkpt>
      <trkpt lat="51.611585039645433" lon="-10.131525965407491">
        <ele>58.299999999999997</ele>
        <time>2026-06-28T11:03:14Z</time>
      </trkpt>
      <trkpt lat="51.611531982198358" lon="-10.131202004849911">
        <ele>57.82</ele>
        <time>2026-06-28T11:03:16Z</time>
      </trkpt>
      <trkpt lat="51.61151303909719" lon="-10.131040988489985">
        <ele>57.82</ele>
        <time>2026-06-28T11:03:17Z</time>
      </trkpt>
      <trkpt lat="51.611431986093521" lon="-10.130365993827581">
        <ele>55.890000000000001</ele>
        <time>2026-06-28T11:03:21Z</time>
      </trkpt>
      <trkpt lat="51.611069971695542" lon="-10.129178026691079">
        <ele>53.490000000000002</ele>
        <time>2026-06-28T11:03:28Z</time>
      </trkpt>
      <trkpt lat="51.610995959490538" lon="-10.129023967310786">
        <ele>53.490000000000002</ele>
        <time>2026-06-28T11:03:29Z</time>
      </trkpt>
      <trkpt lat="51.610067998990417" lon="-10.127399973571301">
        <ele>51.57</ele>
        <time>2026-06-28T11:03:41Z</time>
      </trkpt>
      <trkpt lat="51.60983900539577" lon="-10.126883983612061">
        <ele>50.609999999999999</ele>
        <time>2026-06-28T11:03:46Z</time>
      </trkpt>
      <trkpt lat="51.609805980697274" lon="-10.126767978072166">
        <ele>50.609999999999999</ele>
        <time>2026-06-28T11:03:47Z</time>
      </trkpt>
      <trkpt lat="51.609771028161049" lon="-10.126648033037782">
        <ele>50.609999999999999</ele>
        <time>2026-06-28T11:03:48Z</time>
      </trkpt>
      <trkpt lat="51.609733980149031" lon="-10.126521969214082">
        <ele>50.609999999999999</ele>
        <time>2026-06-28T11:03:49Z</time>
      </trkpt>
      <trkpt lat="51.609693998470902" lon="-10.126380985602736">
        <ele>50.130000000000003</ele>
        <time>2026-06-28T11:03:50Z</time>
      </trkpt>
      <trkpt lat="51.609658962115645" lon="-10.126224998384714">
        <ele>50.130000000000003</ele>
        <time>2026-06-28T11:03:51Z</time>
      </trkpt>
      <trkpt lat="51.609600959345698" lon="-10.125877987593412">
        <ele>50.130000000000003</ele>
        <time>2026-06-28T11:03:53Z</time>
      </trkpt>
      <trkpt lat="51.609586039558053" lon="-10.125680007040501">
        <ele>50.130000000000003</ele>
        <time>2026-06-28T11:03:54Z</time>
      </trkpt>
      <trkpt lat="51.609586039558053" lon="-10.125472974032164">
        <ele>50.609999999999999</ele>
        <time>2026-06-28T11:03:55Z</time>
      </trkpt>
      <trkpt lat="51.60962400957942" lon="-10.125037031248212">
        <ele>51.090000000000003</ele>
        <time>2026-06-28T11:03:57Z</time>
      </trkpt>
      <trkpt lat="51.609674971550703" lon="-10.124842990189791">
        <ele>51.57</ele>
        <time>2026-06-28T11:03:58Z</time>
      </trkpt>
      <trkpt lat="51.609728028997779" lon="-10.124665964394808">
        <ele>52.049999999999997</ele>
        <time>2026-06-28T11:03:59Z</time>
      </trkpt>
      <trkpt lat="51.609786031767726" lon="-10.124514000490308">
        <ele>51.57</ele>
        <time>2026-06-28T11:04:00Z</time>
      </trkpt>
      <trkpt lat="51.609851997345686" lon="-10.124391037970781">
        <ele>51.57</ele>
        <time>2026-06-28T11:04:01Z</time>
      </trkpt>
      <trkpt lat="51.609907988458872" lon="-10.124288024380803">
        <ele>51.57</ele>
        <time>2026-06-28T11:04:02Z</time>
      </trkpt>
      <trkpt lat="51.609929027035832" lon="-10.124171013012528">
        <ele>51.57</ele>
        <time>2026-06-28T11:04:03Z</time>
      </trkpt>
      <trkpt lat="51.609946964308619" lon="-10.124072022736073">
        <ele>51.090000000000003</ele>
        <time>2026-06-28T11:04:04Z</time>
      </trkpt>
      <trkpt lat="51.609926009550691" lon="-10.123985018581152">
        <ele>51.090000000000003</ele>
        <time>2026-06-28T11:04:05Z</time>
      </trkpt>
      <trkpt lat="51.60988200455904" lon="-10.123876975849271">
        <ele>51.090000000000003</ele>
        <time>2026-06-28T11:04:06Z</time>
      </trkpt>
      <trkpt lat="51.609800029546022" lon="-10.123813021928072">
        <ele>51.57</ele>
        <time>2026-06-28T11:04:07Z</time>
      </trkpt>
      <trkpt lat="51.609700033441186" lon="-10.123734986409545">
        <ele>51.57</ele>
        <time>2026-06-28T11:04:08Z</time>
      </trkpt>
      <trkpt lat="51.609591990709305" lon="-10.123647982254624">
        <ele>51.57</ele>
        <time>2026-06-28T11:04:09Z</time>
      </trkpt>
      <trkpt lat="51.608367981389165" lon="-10.122603010386229">
        <ele>52.530000000000001</ele>
        <time>2026-06-28T11:04:19Z</time>
      </trkpt>
      <trkpt lat="51.607552003115416" lon="-10.121821984648705">
        <ele>51.57</ele>
        <time>2026-06-28T11:04:26Z</time>
      </trkpt>
      <trkpt lat="51.607445972040296" lon="-10.121671026572585">
        <ele>51.57</ele>
        <time>2026-06-28T11:04:27Z</time>
      </trkpt>
      <trkpt lat="51.606640974059701" lon="-10.120678022503853">
        <ele>51.57</ele>
        <time>2026-06-28T11:04:35Z</time>
      </trkpt>
      <trkpt lat="51.6064010001719" lon="-10.120436958968639">
        <ele>51.090000000000003</ele>
        <time>2026-06-28T11:04:38Z</time>
      </trkpt>
      <trkpt lat="51.606321036815643" lon="-10.120337968692183">
        <ele>51.090000000000003</ele>
        <time>2026-06-28T11:04:39Z</time>
      </trkpt>
      <trkpt lat="51.606253981590271" lon="-10.120218023657799">
        <ele>51.090000000000003</ele>
        <time>2026-06-28T11:04:40Z</time>
      </trkpt>
      <trkpt lat="51.606225986033678" lon="-10.12007100507617">
        <ele>51.090000000000003</ele>
        <time>2026-06-28T11:04:41Z</time>
      </trkpt>
      <trkpt lat="51.606210982427001" lon="-10.119928009808064">
        <ele>51.090000000000003</ele>
        <time>2026-06-28T11:04:42Z</time>
      </trkpt>
      <trkpt lat="51.606195978820324" lon="-10.119779985398054">
        <ele>51.57</ele>
        <time>2026-06-28T11:04:43Z</time>
      </trkpt>
      <trkpt lat="51.60620603710413" lon="-10.119615029543638">
        <ele>51.57</ele>
        <time>2026-06-28T11:04:44Z</time>
      </trkpt>
      <trkpt lat="51.606217017397285" lon="-10.119439009577036">
        <ele>52.049999999999997</ele>
        <time>2026-06-28T11:04:45Z</time>
      </trkpt>
      <trkpt lat="51.60625297576189" lon="-10.118885971605778">
        <ele>53.009999999999998</ele>
        <time>2026-06-28T11:04:48Z</time>
      </trkpt>
      <trkpt lat="51.6062490362674" lon="-10.118698971346021">
        <ele>53.490000000000002</ele>
        <time>2026-06-28T11:04:49Z</time>
      </trkpt>
      <trkpt lat="51.606220034882426" lon="-10.118508031591773">
        <ele>53.969999999999999</ele>
        <time>2026-06-28T11:04:50Z</time>
      </trkpt>
      <trkpt lat="51.606190027669072" lon="-10.1183080393821">
        <ele>53.969999999999999</ele>
        <time>2026-06-28T11:04:51Z</time>
      </trkpt>
      <trkpt lat="51.606159014627337" lon="-10.118108969181776">
        <ele>54.450000000000003</ele>
        <time>2026-06-28T11:04:52Z</time>
      </trkpt>
      <trkpt lat="51.60610101185739" lon="-10.117931021377444">
        <ele>54.450000000000003</ele>
        <time>2026-06-28T11:04:53Z</time>
      </trkpt>
      <trkpt lat="51.606035968288779" lon="-10.117765981703997">
        <ele>54.93</ele>
        <time>2026-06-28T11:04:54Z</time>
      </trkpt>
      <trkpt lat="51.605964973568916" lon="-10.117632960900664">
        <ele>55.409999999999997</ele>
        <time>2026-06-28T11:04:55Z</time>
      </trkpt>
      <trkpt lat="51.605879981070757" lon="-10.117531958967447">
        <ele>55.409999999999997</ele>
        <time>2026-06-28T11:04:56Z</time>
      </trkpt>
      <trkpt lat="51.605798006057739" lon="-10.117433974519372">
        <ele>55.409999999999997</ele>
        <time>2026-06-28T11:04:57Z</time>
      </trkpt>
      <trkpt lat="51.605711001902819" lon="-10.117329033091664">
        <ele>55.409999999999997</ele>
        <time>2026-06-28T11:04:58Z</time>
      </trkpt>
      <trkpt lat="51.60562701523304" lon="-10.117201041430235">
        <ele>55.890000000000001</ele>
        <time>2026-06-28T11:04:59Z</time>
      </trkpt>
      <trkpt lat="51.6055410169065" lon="-10.117055028676987">
        <ele>56.369999999999997</ele>
        <time>2026-06-28T11:05:00Z</time>
      </trkpt>
      <trkpt lat="51.605215966701508" lon="-10.116437030956149">
        <ele>57.82</ele>
        <time>2026-06-28T11:05:04Z</time>
      </trkpt>
      <trkpt lat="51.605169028043747" lon="-10.116265034303069">
        <ele>58.299999999999997</ele>
        <time>2026-06-28T11:05:05Z</time>
      </trkpt>
      <trkpt lat="51.605129968374968" lon="-10.116080967709422">
        <ele>58.299999999999997</ele>
        <time>2026-06-28T11:05:06Z</time>
      </trkpt>
      <trkpt lat="51.605101972818375" lon="-10.11588198132813">
        <ele>58.780000000000001</ele>
        <time>2026-06-28T11:05:07Z</time>
      </trkpt>
      <trkpt lat="51.605075988918543" lon="-10.115676037967205">
        <ele>59.259999999999998</ele>
        <time>2026-06-28T11:05:08Z</time>
      </trkpt>
      <trkpt lat="51.605056961998343" lon="-10.115459030494094">
        <ele>59.740000000000002</ele>
        <time>2026-06-28T11:05:09Z</time>
      </trkpt>
      <trkpt lat="51.605040030553937" lon="-10.115250991657376">
        <ele>60.219999999999999</ele>
        <time>2026-06-28T11:05:10Z</time>
      </trkpt>
      <trkpt lat="51.605023015290499" lon="-10.115055022761226">
        <ele>60.700000000000003</ele>
        <time>2026-06-28T11:05:11Z</time>
      </trkpt>
      <trkpt lat="51.604993008077145" lon="-10.11469803750515">
        <ele>61.18</ele>
        <time>2026-06-28T11:05:13Z</time>
      </trkpt>
      <trkpt lat="51.604978004470468" lon="-10.114520005881786">
        <ele>61.659999999999997</ele>
        <time>2026-06-28T11:05:14Z</time>
      </trkpt>
      <trkpt lat="51.604930981993675" lon="-10.114352032542229">
        <ele>62.140000000000001</ele>
        <time>2026-06-28T11:05:15Z</time>
      </trkpt>
      <trkpt lat="51.604864010587335" lon="-10.114179030060768">
        <ele>62.619999999999997</ele>
        <time>2026-06-28T11:05:16Z</time>
      </trkpt>
      <trkpt lat="51.604795027524233" lon="-10.113998986780643">
        <ele>63.100000000000001</ele>
        <time>2026-06-28T11:05:17Z</time>
      </trkpt>
      <trkpt lat="51.604656977578998" lon="-10.113640995696187">
        <ele>63.100000000000001</ele>
        <time>2026-06-28T11:05:19Z</time>
      </trkpt>
      <trkpt lat="51.604556981474161" lon="-10.113516021519899">
        <ele>63.579999999999998</ele>
        <time>2026-06-28T11:05:20Z</time>
      </trkpt>
      <trkpt lat="51.604457991197705" lon="-10.113403033465147">
        <ele>64.069999999999993</ele>
        <time>2026-06-28T11:05:21Z</time>
      </trkpt>
      <trkpt lat="51.603017980232835" lon="-10.112239960581064">
        <ele>71.269999999999996</ele>
        <time>2026-06-28T11:05:34Z</time>
      </trkpt>
      <trkpt lat="51.602367963641882" lon="-10.111732017248869">
        <ele>74.159999999999997</ele>
        <time>2026-06-28T11:05:40Z</time>
      </trkpt>
      <trkpt lat="51.602285988628864" lon="-10.111662028357387">
        <ele>75.120000000000005</ele>
        <time>2026-06-28T11:05:41Z</time>
      </trkpt>
      <trkpt lat="51.602234020829201" lon="-10.111559014767408">
        <ele>75.599999999999994</ele>
        <time>2026-06-28T11:05:42Z</time>
      </trkpt>
      <trkpt lat="51.602210970595479" lon="-10.111425993964076">
        <ele>75.599999999999994</ele>
        <time>2026-06-28T11:05:43Z</time>
      </trkpt>
      <trkpt lat="51.602191021665931" lon="-10.111278975382447">
        <ele>76.079999999999998</ele>
        <time>2026-06-28T11:05:44Z</time>
      </trkpt>
      <trkpt lat="51.602197978645563" lon="-10.11113396845758">
        <ele>77.040000000000006</ele>
        <time>2026-06-28T11:05:45Z</time>
      </trkpt>
      <trkpt lat="51.602224968373775" lon="-10.110979992896318">
        <ele>77.519999999999996</ele>
        <time>2026-06-28T11:05:46Z</time>
      </trkpt>
      <trkpt lat="51.602252963930368" lon="-10.110821994021535">
        <ele>78</ele>
        <time>2026-06-28T11:05:47Z</time>
      </trkpt>
      <trkpt lat="51.602281965315342" lon="-10.110656032338738">
        <ele>78.969999999999999</ele>
        <time>2026-06-28T11:05:48Z</time>
      </trkpt>
      <trkpt lat="51.602394031360745" lon="-10.109922029078007">
        <ele>82.329999999999998</ele>
        <time>2026-06-28T11:05:52Z</time>
      </trkpt>
      <trkpt lat="51.602382967248559" lon="-10.109721031039953">
        <ele>82.810000000000002</ele>
        <time>2026-06-28T11:05:53Z</time>
      </trkpt>
      <trkpt lat="51.602358995005488" lon="-10.109524978324771">
        <ele>83.769999999999996</ele>
        <time>2026-06-28T11:05:54Z</time>
      </trkpt>
      <trkpt lat="51.602308033034205" lon="-10.109330015257001">
        <ele>84.25</ele>
        <time>2026-06-28T11:05:55Z</time>
      </trkpt>
      <trkpt lat="51.60225598141551" lon="-10.109131028875709">
        <ele>85.209999999999994</ele>
        <time>2026-06-28T11:05:56Z</time>
      </trkpt>
      <trkpt lat="51.602204013615847" lon="-10.108933970332146">
        <ele>85.689999999999998</ele>
        <time>2026-06-28T11:05:57Z</time>
      </trkpt>
      <trkpt lat="51.602159002795815" lon="-10.108735989779234">
        <ele>86.180000000000007</ele>
        <time>2026-06-28T11:05:58Z</time>
      </trkpt>
      <trkpt lat="51.602143999189138" lon="-10.108532980084419">
        <ele>87.140000000000001</ele>
        <time>2026-06-28T11:05:59Z</time>
      </trkpt>
      <trkpt lat="51.602140981703997" lon="-10.108331982046366">
        <ele>87.620000000000005</ele>
        <time>2026-06-28T11:06:00Z</time>
      </trkpt>
      <trkpt lat="51.602151961997151" lon="-10.106963971629739">
        <ele>91.939999999999998</ele>
        <time>2026-06-28T11:06:08Z</time>
      </trkpt>
      <trkpt lat="51.602170988917351" lon="-10.105785978958011">
        <ele>92.900000000000006</ele>
        <time>2026-06-28T11:06:14Z</time>
      </trkpt>
      <trkpt lat="51.602209964767098" lon="-10.105582969263196">
        <ele>93.390000000000001</ele>
        <time>2026-06-28T11:06:15Z</time>
      </trkpt>
      <trkpt lat="51.602456979453564" lon="-10.104681998491287">
        <ele>96.269999999999996</ele>
        <time>2026-06-28T11:06:20Z</time>
      </trkpt>
      <trkpt lat="51.602515988051891" lon="-10.104527017101645">
        <ele>96.75</ele>
        <time>2026-06-28T11:06:21Z</time>
      </trkpt>
      <trkpt lat="51.602703994140029" lon="-10.104029970243573">
        <ele>98.670000000000002</ele>
        <time>2026-06-28T11:06:24Z</time>
      </trkpt>
      <trkpt lat="51.602752022445202" lon="-10.103835007175803">
        <ele>99.150000000000006</ele>
        <time>2026-06-28T11:06:25Z</time>
      </trkpt>
      <trkpt lat="51.602956959977746" lon="-10.102808978408575">
        <ele>100.59999999999999</ele>
        <time>2026-06-28T11:06:30Z</time>
      </trkpt>
      <trkpt lat="51.602976992726326" lon="-10.102636981755495">
        <ele>100.59999999999999</ele>
        <time>2026-06-28T11:06:31Z</time>
      </trkpt>
      <trkpt lat="51.602980010211468" lon="-10.10243397206068">
        <ele>100.59999999999999</ele>
        <time>2026-06-28T11:06:32Z</time>
      </trkpt>
      <trkpt lat="51.603076988831162" lon="-10.100621972233057">
        <ele>102.04000000000001</ele>
        <time>2026-06-28T11:06:40Z</time>
      </trkpt>
      <trkpt lat="51.603170027956367" lon="-10.099500976502895">
        <ele>104.44</ele>
        <time>2026-06-28T11:06:45Z</time>
      </trkpt>
      <trkpt lat="51.603170027956367" lon="-10.098294988274574">
        <ele>107.31999999999999</ele>
        <time>2026-06-28T11:06:50Z</time>
      </trkpt>
      <trkpt lat="51.603181008249521" lon="-10.098080998286605">
        <ele>107.81</ele>
        <time>2026-06-28T11:06:51Z</time>
      </trkpt>
      <trkpt lat="51.603212021291256" lon="-10.097874971106648">
        <ele>107.81</ele>
        <time>2026-06-28T11:06:52Z</time>
      </trkpt>
      <trkpt lat="51.603431040421128" lon="-10.095982002094388">
        <ele>105.88</ele>
        <time>2026-06-28T11:07:01Z</time>
      </trkpt>
      <trkpt lat="51.603475967422128" lon="-10.095547987148166">
        <ele>104.92</ele>
        <time>2026-06-28T11:07:03Z</time>
      </trkpt>
      <trkpt lat="51.603502035140991" lon="-10.095326034352183">
        <ele>104.44</ele>
        <time>2026-06-28T11:07:04Z</time>
      </trkpt>
      <trkpt lat="51.603554002940655" lon="-10.095111960545182">
        <ele>103.48</ele>
        <time>2026-06-28T11:07:05Z</time>
      </trkpt>
      <trkpt lat="51.603624997660518" lon="-10.094900988042355">
        <ele>103.48</ele>
        <time>2026-06-28T11:07:06Z</time>
      </trkpt>
      <trkpt lat="51.603696998208761" lon="-10.094681968912482">
        <ele>103</ele>
        <time>2026-06-28T11:07:07Z</time>
      </trkpt>
      <trkpt lat="51.60380101762712" lon="-10.094494968652725">
        <ele>103</ele>
        <time>2026-06-28T11:07:08Z</time>
      </trkpt>
      <trkpt lat="51.603908976539969" lon="-10.094312997534871">
        <ele>103</ele>
        <time>2026-06-28T11:07:09Z</time>
      </trkpt>
      <trkpt lat="51.604018025100231" lon="-10.094130020588636">
        <ele>102.52</ele>
        <time>2026-06-28T11:07:10Z</time>
      </trkpt>
      <trkpt lat="51.604107962921262" lon="-10.09392399340868">
        <ele>102.52</ele>
        <time>2026-06-28T11:07:11Z</time>
      </trkpt>
      <trkpt lat="51.604185998439789" lon="-10.093720983713865">
        <ele>103</ele>
        <time>2026-06-28T11:07:12Z</time>
      </trkpt>
      <trkpt lat="51.604257998988032" lon="-10.093534989282489">
        <ele>103.48</ele>
        <time>2026-06-28T11:07:13Z</time>
      </trkpt>
      <trkpt lat="51.604394037276506" lon="-10.093201976269484">
        <ele>103.48</ele>
        <time>2026-06-28T11:07:15Z</time>
      </trkpt>
      <trkpt lat="51.604481041431427" lon="-10.093061998486519">
        <ele>103.95999999999999</ele>
        <time>2026-06-28T11:07:16Z</time>
      </trkpt>
      <trkpt lat="51.604570979252458" lon="-10.092915985733271">
        <ele>103.95999999999999</ele>
        <time>2026-06-28T11:07:17Z</time>
      </trkpt>
      <trkpt lat="51.604874990880489" lon="-10.092424973845482">
        <ele>105.40000000000001</ele>
        <time>2026-06-28T11:07:20Z</time>
      </trkpt>
      <trkpt lat="51.604967024177313" lon="-10.092231016606092">
        <ele>105.40000000000001</ele>
        <time>2026-06-28T11:07:21Z</time>
      </trkpt>
      <trkpt lat="51.605042964220047" lon="-10.09201199747622">
        <ele>105.88</ele>
        <time>2026-06-28T11:07:22Z</time>
      </trkpt>
      <trkpt lat="51.605533976107836" lon="-10.09037702344358">
        <ele>105.40000000000001</ele>
        <time>2026-06-28T11:07:29Z</time>
      </trkpt>
      <trkpt lat="51.606121966615319" lon="-10.088859982788563">
        <ele>104.92</ele>
        <time>2026-06-28T11:07:37Z</time>
      </trkpt>
      <trkpt lat="51.60622900351882" lon="-10.088720005005598">
        <ele>105.40000000000001</ele>
        <time>2026-06-28T11:07:38Z</time>
      </trkpt>
      <trkpt lat="51.606340985745192" lon="-10.08857399225235">
        <ele>105.40000000000001</ele>
        <time>2026-06-28T11:07:39Z</time>
      </trkpt>
      <trkpt lat="51.60646696574986" lon="-10.088457986712456">
        <ele>105.40000000000001</ele>
        <time>2026-06-28T11:07:40Z</time>
      </trkpt>
      <trkpt lat="51.607731962576509" lon="-10.087758013978601">
        <ele>103</ele>
        <time>2026-06-28T11:07:49Z</time>
      </trkpt>
      <trkpt lat="51.60818500444293" lon="-10.087728006765246">
        <ele>102.04000000000001</ele>
        <time>2026-06-28T11:07:52Z</time>
      </trkpt>
      <trkpt lat="51.608337974175811" lon="-10.087772011756897">
        <ele>101.56</ele>
        <time>2026-06-28T11:07:53Z</time>
      </trkpt>
      <trkpt lat="51.608890006318688" lon="-10.08793001063168">
        <ele>100.59999999999999</ele>
        <time>2026-06-28T11:07:57Z</time>
      </trkpt>
      <trkpt lat="51.609010035172105" lon="-10.08790603838861">
        <ele>100.11</ele>
        <time>2026-06-28T11:07:58Z</time>
      </trkpt>
      <trkpt lat="51.609123023226857" lon="-10.087864967063069">
        <ele>100.11</ele>
        <time>2026-06-28T11:07:59Z</time>
      </trkpt>
      <trkpt lat="51.609218996018171" lon="-10.087777962908149">
        <ele>99.629999999999995</ele>
        <time>2026-06-28T11:08:00Z</time>
      </trkpt>
      <trkpt lat="51.609316980466247" lon="-10.087662041187286">
        <ele>99.629999999999995</ele>
        <time>2026-06-28T11:08:01Z</time>
      </trkpt>
      <trkpt lat="51.609420999884605" lon="-10.087538994848728">
        <ele>99.150000000000006</ele>
        <time>2026-06-28T11:08:02Z</time>
      </trkpt>
      <trkpt lat="51.609529964625835" lon="-10.087407985702157">
        <ele>98.670000000000002</ele>
        <time>2026-06-28T11:08:03Z</time>
      </trkpt>
      <trkpt lat="51.609644964337349" lon="-10.08728401735425">
        <ele>97.709999999999994</ele>
        <time>2026-06-28T11:08:04Z</time>
      </trkpt>
      <trkpt lat="51.609762981534004" lon="-10.087183015421033">
        <ele>97.230000000000004</ele>
        <time>2026-06-28T11:08:05Z</time>
      </trkpt>
      <trkpt lat="51.61016003228724" lon="-10.086797028779984">
        <ele>95.310000000000002</ele>
        <time>2026-06-28T11:08:09Z</time>
      </trkpt>
      <trkpt lat="51.610233960673213" lon="-10.086700972169638">
        <ele>94.829999999999998</ele>
        <time>2026-06-28T11:08:10Z</time>
      </trkpt>
      <trkpt lat="51.61028902977705" lon="-10.086597958579659">
        <ele>94.349999999999994</ele>
        <time>2026-06-28T11:08:11Z</time>
      </trkpt>
      <trkpt lat="51.610324988141656" lon="-10.086474996060133">
        <ele>94.349999999999994</ele>
        <time>2026-06-28T11:08:12Z</time>
      </trkpt>
      <trkpt lat="51.610326999798417" lon="-10.086332000792027">
        <ele>94.349999999999994</ele>
        <time>2026-06-28T11:08:13Z</time>
      </trkpt>
      <trkpt lat="51.610309984534979" lon="-10.086179031059146">
        <ele>94.829999999999998</ele>
        <time>2026-06-28T11:08:14Z</time>
      </trkpt>
      <trkpt lat="51.61026899702847" lon="-10.086023965850472">
        <ele>94.829999999999998</ele>
        <time>2026-06-28T11:08:15Z</time>
      </trkpt>
      <trkpt lat="51.610224992036819" lon="-10.085853980854154">
        <ele>94.829999999999998</ele>
        <time>2026-06-28T11:08:16Z</time>
      </trkpt>
      <trkpt lat="51.610023993998766" lon="-10.085076978430152">
        <ele>95.310000000000002</ele>
        <time>2026-06-28T11:08:20Z</time>
      </trkpt>
      <trkpt lat="51.610027011483908" lon="-10.084863994270563">
        <ele>95.310000000000002</ele>
        <time>2026-06-28T11:08:21Z</time>
      </trkpt>
      <trkpt lat="51.610042015090585" lon="-10.084646986797452">
        <ele>94.829999999999998</ele>
        <time>2026-06-28T11:08:22Z</time>
      </trkpt>
      <trkpt lat="51.610095994547009" lon="-10.08371802046895">
        <ele>93.390000000000001</ele>
        <time>2026-06-28T11:08:26Z</time>
      </trkpt>
      <trkpt lat="51.61007696762681" lon="-10.083485003560781">
        <ele>92.900000000000006</ele>
        <time>2026-06-28T11:08:27Z</time>
      </trkpt>
      <trkpt lat="51.609952999278903" lon="-10.082561988383532">
        <ele>92.420000000000002</ele>
        <time>2026-06-28T11:08:31Z</time>
      </trkpt>
      <trkpt lat="51.609907988458872" lon="-10.082338023930788">
        <ele>92.420000000000002</ele>
        <time>2026-06-28T11:08:32Z</time>
      </trkpt>
      <trkpt lat="51.609827019274235" lon="-10.082169966772199">
        <ele>92.420000000000002</ele>
        <time>2026-06-28T11:08:33Z</time>
      </trkpt>
      <trkpt lat="51.609745966270566" lon="-10.08200098760426">
        <ele>92.900000000000006</ele>
        <time>2026-06-28T11:08:34Z</time>
      </trkpt>
      <trkpt lat="51.609662985429168" lon="-10.0818279851228">
        <ele>92.900000000000006</ele>
        <time>2026-06-28T11:08:35Z</time>
      </trkpt>
      <trkpt lat="51.609577992931008" lon="-10.081650037318468">
        <ele>93.870000000000005</ele>
        <time>2026-06-28T11:08:36Z</time>
      </trkpt>
      <trkpt lat="51.608796967193484" lon="-10.079928981140256">
        <ele>99.150000000000006</ele>
        <time>2026-06-28T11:08:45Z</time>
      </trkpt>
      <trkpt lat="51.608780035749078" lon="-10.079734018072486">
        <ele>99.629999999999995</ele>
        <time>2026-06-28T11:08:46Z</time>
      </trkpt>
      <trkpt lat="51.60876695998013" lon="-10.079537965357304">
        <ele>100.11</ele>
        <time>2026-06-28T11:08:47Z</time>
      </trkpt>
      <trkpt lat="51.608753968030214" lon="-10.079344008117914">
        <ele>100.59999999999999</ele>
        <time>2026-06-28T11:08:48Z</time>
      </trkpt>
      <trkpt lat="51.60872102715075" lon="-10.079175028949976">
        <ele>100.59999999999999</ele>
        <time>2026-06-28T11:08:49Z</time>
      </trkpt>
      <trkpt lat="51.608666041865945" lon="-10.079038990661502">
        <ele>101.08</ele>
        <time>2026-06-28T11:08:50Z</time>
      </trkpt>
      <trkpt lat="51.608568979427218" lon="-10.078958021476865">
        <ele>101.56</ele>
        <time>2026-06-28T11:08:51Z</time>
      </trkpt>
      <trkpt lat="51.60846202634275" lon="-10.078865988180041">
        <ele>102.52</ele>
        <time>2026-06-28T11:08:52Z</time>
      </trkpt>
      <trkpt lat="51.608349038287997" lon="-10.078771021217108">
        <ele>103</ele>
        <time>2026-06-28T11:08:53Z</time>
      </trkpt>
      <trkpt lat="51.608127001672983" lon="-10.07858301512897">
        <ele>103.95999999999999</ele>
        <time>2026-06-28T11:08:55Z</time>
      </trkpt>
      <trkpt lat="51.608019964769483" lon="-10.078441025689244">
        <ele>104.92</ele>
        <time>2026-06-28T11:08:56Z</time>
      </trkpt>
      <trkpt lat="51.607932038605213" lon="-10.07832401432097">
        <ele>105.40000000000001</ele>
        <time>2026-06-28T11:08:57Z</time>
      </trkpt>
      <trkpt lat="51.607859032228589" lon="-10.078198034316301">
        <ele>106.36</ele>
        <time>2026-06-28T11:08:58Z</time>
      </trkpt>
      <trkpt lat="51.607822990044951" lon="-10.078044980764389">
        <ele>106.84</ele>
        <time>2026-06-28T11:08:59Z</time>
      </trkpt>
      <trkpt lat="51.607785020023584" lon="-10.077883964404464">
        <ele>107.31999999999999</ele>
        <time>2026-06-28T11:09:00Z</time>
      </trkpt>
      <trkpt lat="51.607749983668327" lon="-10.077709034085274">
        <ele>107.81</ele>
        <time>2026-06-28T11:09:01Z</time>
      </trkpt>
      <trkpt lat="51.607718970626593" lon="-10.077515998855233">
        <ele>107.81</ele>
        <time>2026-06-28T11:09:02Z</time>
      </trkpt>
      <trkpt lat="51.607546973973513" lon="-10.076213032007217">
        <ele>110.69</ele>
        <time>2026-06-28T11:09:08Z</time>
      </trkpt>
      <trkpt lat="51.607548985630274" lon="-10.075989989563823">
        <ele>111.17</ele>
        <time>2026-06-28T11:09:09Z</time>
      </trkpt>
      <trkpt lat="51.607758030295372" lon="-10.073465025052428">
        <ele>113.56999999999999</ele>
        <time>2026-06-28T11:09:20Z</time>
      </trkpt>
      <trkpt lat="51.608018036931753" lon="-10.072419969365001">
        <ele>113.09</ele>
        <time>2026-06-28T11:09:25Z</time>
      </trkpt>
      <trkpt lat="51.608087019994855" lon="-10.072219977155328">
        <ele>112.61</ele>
        <time>2026-06-28T11:09:26Z</time>
      </trkpt>
      <trkpt lat="51.608835021033883" lon="-10.070429015904665">
        <ele>107.31999999999999</ele>
        <time>2026-06-28T11:09:35Z</time>
      </trkpt>
      <trkpt lat="51.608953960239887" lon="-10.070315022021532">
        <ele>106.84</ele>
        <time>2026-06-28T11:09:36Z</time>
      </trkpt>
      <trkpt lat="51.609072983264923" lon="-10.070201028138399">
        <ele>106.36</ele>
        <time>2026-06-28T11:09:37Z</time>
      </trkpt>
      <trkpt lat="51.609191000461578" lon="-10.070088040083647">
        <ele>105.88</ele>
        <time>2026-06-28T11:09:38Z</time>
      </trkpt>
      <trkpt lat="51.609304994344711" lon="-10.069977985695004">
        <ele>105.40000000000001</ele>
        <time>2026-06-28T11:09:39Z</time>
      </trkpt>
      <trkpt lat="51.60942804068327" lon="-10.069886958226562">
        <ele>104.44</ele>
        <time>2026-06-28T11:09:40Z</time>
      </trkpt>
      <trkpt lat="51.609915029257536" lon="-10.069599961861968">
        <ele>102.52</ele>
        <time>2026-06-28T11:09:44Z</time>
      </trkpt>
      <trkpt lat="51.610036985948682" lon="-10.069567020982504">
        <ele>102.04000000000001</ele>
        <time>2026-06-28T11:09:45Z</time>
      </trkpt>
      <trkpt lat="51.610163971781731" lon="-10.069565009325743">
        <ele>101.56</ele>
        <time>2026-06-28T11:09:46Z</time>
      </trkpt>
      <trkpt lat="51.610279977321625" lon="-10.069594010710716">
        <ele>101.08</ele>
        <time>2026-06-28T11:09:47Z</time>
      </trkpt>
      <trkpt lat="51.610392965376377" lon="-10.069642961025238">
        <ele>100.59999999999999</ele>
        <time>2026-06-28T11:09:48Z</time>
      </trkpt>
      <trkpt lat="51.610489021986723" lon="-10.069725019857287">
        <ele>99.629999999999995</ele>
        <time>2026-06-28T11:09:49Z</time>
      </trkpt>
      <trkpt lat="51.610578037798405" lon="-10.069848988205194">
        <ele>99.150000000000006</ele>
        <time>2026-06-28T11:09:50Z</time>
      </trkpt>
      <trkpt lat="51.610661018639803" lon="-10.069977985695004">
        <ele>98.670000000000002</ele>
        <time>2026-06-28T11:09:51Z</time>
      </trkpt>
      <trkpt lat="51.610740981996059" lon="-10.070100026205182">
        <ele>98.189999999999998</ele>
        <time>2026-06-28T11:09:52Z</time>
      </trkpt>
      <trkpt lat="51.610807031393051" lon="-10.07018300704658">
        <ele>97.709999999999994</ele>
        <time>2026-06-28T11:09:53Z</time>
      </trkpt>
      <trkpt lat="51.610889006406069" lon="-10.070232041180134">
        <ele>97.230000000000004</ele>
        <time>2026-06-28T11:09:54Z</time>
      </trkpt>
      <trkpt lat="51.610971987247467" lon="-10.070207985118032">
        <ele>96.75</ele>
        <time>2026-06-28T11:09:55Z</time>
      </trkpt>
      <trkpt lat="51.611068965867162" lon="-10.070173032581806">
        <ele>96.269999999999996</ele>
        <time>2026-06-28T11:09:56Z</time>
      </trkpt>
      <trkpt lat="51.611177008599043" lon="-10.070133972913027">
        <ele>95.790000000000006</ele>
        <time>2026-06-28T11:09:57Z</time>
      </trkpt>
      <trkpt lat="51.611293014138937" lon="-10.070091979578137">
        <ele>94.829999999999998</ele>
        <time>2026-06-28T11:09:58Z</time>
      </trkpt>
      <trkpt lat="51.611532988026738" lon="-10.070005981251597">
        <ele>93.870000000000005</ele>
        <time>2026-06-28T11:10:00Z</time>
      </trkpt>
      <trkpt lat="51.611654022708535" lon="-10.069961976259947">
        <ele>93.870000000000005</ele>
        <time>2026-06-28T11:10:01Z</time>
      </trkpt>
      <trkpt lat="51.61177396774292" lon="-10.069998018443584">
        <ele>93.390000000000001</ele>
        <time>2026-06-28T11:10:02Z</time>
      </trkpt>
      <trkpt lat="51.611889973282814" lon="-10.070043029263616">
        <ele>92.900000000000006</ele>
        <time>2026-06-28T11:10:03Z</time>
      </trkpt>
      <trkpt lat="51.612006984651089" lon="-10.070088040083647">
        <ele>92.420000000000002</ele>
        <time>2026-06-28T11:10:04Z</time>
      </trkpt>
      <trkpt lat="51.612126007676125" lon="-10.070132967084646">
        <ele>91.939999999999998</ele>
        <time>2026-06-28T11:10:05Z</time>
      </trkpt>
      <trkpt lat="51.612243019044399" lon="-10.070170015096664">
        <ele>91.459999999999994</ele>
        <time>2026-06-28T11:10:06Z</time>
      </trkpt>
      <trkpt lat="51.612372016534209" lon="-10.070158028975129">
        <ele>90.980000000000004</ele>
        <time>2026-06-28T11:10:07Z</time>
      </trkpt>
      <trkpt lat="51.612495984882116" lon="-10.070129027590156">
        <ele>90.5</ele>
        <time>2026-06-28T11:10:08Z</time>
      </trkpt>
      <trkpt lat="51.612620959058404" lon="-10.07005400955677">
        <ele>90.5</ele>
        <time>2026-06-28T11:10:09Z</time>
      </trkpt>
      <trkpt lat="51.612747022882104" lon="-10.069978991523385">
        <ele>90.019999999999996</ele>
        <time>2026-06-28T11:10:10Z</time>
      </trkpt>
      <trkpt lat="51.613168967887759" lon="-10.069725019857287">
        <ele>87.620000000000005</ele>
        <time>2026-06-28T11:10:14Z</time>
      </trkpt>
      <trkpt lat="51.613244991749525" lon="-10.06964698433876">
        <ele>87.620000000000005</ele>
        <time>2026-06-28T11:10:15Z</time>
      </trkpt>
      <trkpt lat="51.61332000978291" lon="-10.069527961313725">
        <ele>87.140000000000001</ele>
        <time>2026-06-28T11:10:16Z</time>
      </trkpt>
      <trkpt lat="51.613352028653026" lon="-10.069416984915733">
        <ele>86.659999999999997</ele>
        <time>2026-06-28T11:10:17Z</time>
      </trkpt>
      <trkpt lat="51.613391004502773" lon="-10.069281030446291">
        <ele>86.659999999999997</ele>
        <time>2026-06-28T11:10:18Z</time>
      </trkpt>
      <trkpt lat="51.613467028364539" lon="-10.069020017981529">
        <ele>85.689999999999998</ele>
        <time>2026-06-28T11:10:20Z</time>
      </trkpt>
      <trkpt lat="51.613501980900764" lon="-10.068898983299732">
        <ele>85.209999999999994</ele>
        <time>2026-06-28T11:10:21Z</time>
      </trkpt>
      <trkpt lat="51.613568030297756" lon="-10.068817008286715">
        <ele>85.209999999999994</ele>
        <time>2026-06-28T11:10:22Z</time>
      </trkpt>
      <trkpt lat="51.61364397034049" lon="-10.068753976374865">
        <ele>84.730000000000004</ele>
        <time>2026-06-28T11:10:23Z</time>
      </trkpt>
      <trkpt lat="51.613721000030637" lon="-10.068689016625285">
        <ele>84.730000000000004</ele>
        <time>2026-06-28T11:10:24Z</time>
      </trkpt>
      <trkpt lat="51.613784031942487" lon="-10.068605029955506">
        <ele>84.730000000000004</ele>
        <time>2026-06-28T11:10:25Z</time>
      </trkpt>
      <trkpt lat="51.613826025277376" lon="-10.068480977788568">
        <ele>84.25</ele>
        <time>2026-06-28T11:10:26Z</time>
      </trkpt>
      <trkpt lat="51.61385502666235" lon="-10.068337982520461">
        <ele>83.769999999999996</ele>
        <time>2026-06-28T11:10:27Z</time>
      </trkpt>
      <trkpt lat="51.613852009177208" lon="-10.068162968382239">
        <ele>83.290000000000006</ele>
        <time>2026-06-28T11:10:28Z</time>
      </trkpt>
      <trkpt lat="51.613847985863686" lon="-10.067974040284753">
        <ele>82.810000000000002</ele>
        <time>2026-06-28T11:10:29Z</time>
      </trkpt>
      <trkpt lat="51.613817978650331" lon="-10.066338982433081">
        <ele>79.930000000000007</ele>
        <time>2026-06-28T11:10:38Z</time>
      </trkpt>
      <trkpt lat="51.613828958943486" lon="-10.065967999398708">
        <ele>79.930000000000007</ele>
        <time>2026-06-28T11:10:41Z</time>
      </trkpt>
      <trkpt lat="51.613843962550163" lon="-10.06586397998035">
        <ele>80.890000000000001</ele>
        <time>2026-06-28T11:10:42Z</time>
      </trkpt>
      <trkpt lat="51.61385603249073" lon="-10.065785022452474">
        <ele>81.370000000000005</ele>
        <time>2026-06-28T11:10:43Z</time>
      </trkpt>
      <trkpt lat="51.61396399140358" lon="-10.065699024125934">
        <ele>81.849999999999994</ele>
        <time>2026-06-28T11:10:44Z</time>
      </trkpt>
      <trkpt lat="51.614017970860004" lon="-10.065733976662159">
        <ele>82.329999999999998</ele>
        <time>2026-06-28T11:10:45Z</time>
      </trkpt>
      <trkpt lat="51.614084020256996" lon="-10.065776975825429">
        <ele>82.810000000000002</ele>
        <time>2026-06-28T11:10:46Z</time>
      </trkpt>
      <trkpt lat="51.614162977784872" lon="-10.065827015787363">
        <ele>84.25</ele>
        <time>2026-06-28T11:10:47Z</time>
      </trkpt>
      <trkpt lat="51.614245036616921" lon="-10.065899016335607">
        <ele>85.209999999999994</ele>
        <time>2026-06-28T11:10:48Z</time>
      </trkpt>
      <trkpt lat="51.614331034943461" lon="-10.065978979691863">
        <ele>86.180000000000007</ele>
        <time>2026-06-28T11:10:49Z</time>
      </trkpt>
      <trkpt lat="51.614420972764492" lon="-10.066062966361642">
        <ele>88.099999999999994</ele>
        <time>2026-06-28T11:10:50Z</time>
      </trkpt>
      <trkpt lat="51.614510994404554" lon="-10.066162962466478">
        <ele>89.540000000000006</ele>
        <time>2026-06-28T11:10:51Z</time>
      </trkpt>
      <trkpt lat="51.614594981074333" lon="-10.066285002976656">
        <ele>90.5</ele>
        <time>2026-06-28T11:10:52Z</time>
      </trkpt>
      <trkpt lat="51.615085992962122" lon="-10.066983969882131">
        <ele>95.310000000000002</ele>
        <time>2026-06-28T11:10:57Z</time>
      </trkpt>
      <trkpt lat="51.615204010158777" lon="-10.067113973200321">
        <ele>95.790000000000006</ele>
        <time>2026-06-28T11:10:58Z</time>
      </trkpt>
      <trkpt lat="51.615336025133729" lon="-10.067209023982286">
        <ele>96.75</ele>
        <time>2026-06-28T11:10:59Z</time>
      </trkpt>
      <trkpt lat="51.615482037886977" lon="-10.067253028973937">
        <ele>97.230000000000004</ele>
        <time>2026-06-28T11:11:00Z</time>
      </trkpt>
      <trkpt lat="51.615636013448238" lon="-10.067280018702149">
        <ele>97.709999999999994</ele>
        <time>2026-06-28T11:11:01Z</time>
      </trkpt>
      <trkpt lat="51.615792000666261" lon="-10.067289993166924">
        <ele>98.189999999999998</ele>
        <time>2026-06-28T11:11:02Z</time>
      </trkpt>
      <trkpt lat="51.61594295874238" lon="-10.067299967631698">
        <ele>98.189999999999998</ele>
        <time>2026-06-28T11:11:03Z</time>
      </trkpt>
      <trkpt lat="51.616089977324009" lon="-10.067309020087123">
        <ele>98.670000000000002</ele>
        <time>2026-06-28T11:11:04Z</time>
      </trkpt>
      <trkpt lat="51.616233978420496" lon="-10.067325029522181">
        <ele>98.670000000000002</ele>
        <time>2026-06-28T11:11:05Z</time>
      </trkpt>
      <trkpt lat="51.616371022537351" lon="-10.067379008978605">
        <ele>98.189999999999998</ele>
        <time>2026-06-28T11:11:06Z</time>
      </trkpt>
      <trkpt lat="51.617075018584728" lon="-10.067715039476752">
        <ele>94.349999999999994</ele>
        <time>2026-06-28T11:11:13Z</time>
      </trkpt>
      <trkpt lat="51.617169985547662" lon="-10.067789973691106">
        <ele>91.939999999999998</ele>
        <time>2026-06-28T11:11:17Z</time>
      </trkpt>
      <trkpt lat="51.617190018296242" lon="-10.067805983126163">
        <ele>91.459999999999994</ele>
        <time>2026-06-28T11:11:18Z</time>
      </trkpt>
      <trkpt lat="51.617208961397409" lon="-10.06781998090446">
        <ele>90.980000000000004</ele>
        <time>2026-06-28T11:11:19Z</time>
      </trkpt>
      <trkpt lat="51.617224970832467" lon="-10.067832972854376">
        <ele>90.019999999999996</ele>
        <time>2026-06-28T11:11:20Z</time>
      </trkpt>
      <trkpt lat="51.617224970832467" lon="-10.067832972854376">
        <ele>88.579999999999998</ele>
        <time>2026-06-28T11:11:36Z</time>
      </trkpt>
      <trkpt lat="51.617224970832467" lon="-10.067832972854376">
        <ele>88.579999999999998</ele>
        <time>2026-06-28T11:12:26Z</time>
      </trkpt>
      <trkpt lat="51.617231005802751" lon="-10.067844958975911">
        <ele>88.099999999999994</ele>
        <time>2026-06-28T11:13:00Z</time>
      </trkpt>
      <trkpt lat="51.617396967485547" lon="-10.068349968641996">
        <ele>86.180000000000007</ele>
        <time>2026-06-28T11:13:05Z</time>
      </trkpt>
      <trkpt lat="51.617583967745304" lon="-10.069469958543777">
        <ele>81.849999999999994</ele>
        <time>2026-06-28T11:13:13Z</time>
      </trkpt>
      <trkpt lat="51.617610035464168" lon="-10.069546988233924">
        <ele>81.370000000000005</ele>
        <time>2026-06-28T11:13:14Z</time>
      </trkpt>
      <trkpt lat="51.617655968293548" lon="-10.069639021530747">
        <ele>80.409999999999997</ele>
        <time>2026-06-28T11:13:15Z</time>
      </trkpt>
      <trkpt lat="51.617707014083862" lon="-10.069683026522398">
        <ele>79.930000000000007</ele>
        <time>2026-06-28T11:13:16Z</time>
      </trkpt>
      <trkpt lat="51.617799969390035" lon="-10.069699035957456">
        <ele>78.969999999999999</ele>
        <time>2026-06-28T11:13:17Z</time>
      </trkpt>
      <trkpt lat="51.617895020172" lon="-10.069714039564133">
        <ele>78</ele>
        <time>2026-06-28T11:13:18Z</time>
      </trkpt>
      <trkpt lat="51.617985963821411" lon="-10.069698030129075">
        <ele>76.560000000000002</ele>
        <time>2026-06-28T11:13:19Z</time>
      </trkpt>
      <trkpt lat="51.618083026260138" lon="-10.069656958803535">
        <ele>75.599999999999994</ele>
        <time>2026-06-28T11:13:20Z</time>
      </trkpt>
      <trkpt lat="51.618186039850116" lon="-10.069612031802535">
        <ele>74.159999999999997</ele>
        <time>2026-06-28T11:13:21Z</time>
      </trkpt>
      <trkpt lat="51.618284024298191" lon="-10.069535002112389">
        <ele>72.719999999999999</ele>
        <time>2026-06-28T11:13:22Z</time>
      </trkpt>
      <trkpt lat="51.618379997089505" lon="-10.069425031542778">
        <ele>71.269999999999996</ele>
        <time>2026-06-28T11:13:23Z</time>
      </trkpt>
      <trkpt lat="51.618445962667465" lon="-10.069268960505724">
        <ele>69.829999999999998</ele>
        <time>2026-06-28T11:13:24Z</time>
      </trkpt>
      <trkpt lat="51.618513017892838" lon="-10.069106016308069">
        <ele>68.870000000000005</ele>
        <time>2026-06-28T11:13:25Z</time>
      </trkpt>
      <trkpt lat="51.618582000955939" lon="-10.06893896497786">
        <ele>67.909999999999997</ele>
        <time>2026-06-28T11:13:26Z</time>
      </trkpt>
      <trkpt lat="51.618650984019041" lon="-10.068770991638303">
        <ele>66.469999999999999</ele>
        <time>2026-06-28T11:13:27Z</time>
      </trkpt>
      <trkpt lat="51.618745028972626" lon="-10.068633025512099">
        <ele>65.510000000000005</ele>
        <time>2026-06-28T11:13:28Z</time>
      </trkpt>
      <trkpt lat="51.618851982057095" lon="-10.068532023578882">
        <ele>64.069999999999993</ele>
        <time>2026-06-28T11:13:29Z</time>
      </trkpt>
      <trkpt lat="51.618961030617356" lon="-10.068429009988904">
        <ele>62.619999999999997</ele>
        <time>2026-06-28T11:13:30Z</time>
      </trkpt>
      <trkpt lat="51.619074018672109" lon="-10.068320967257023">
        <ele>61.18</ele>
        <time>2026-06-28T11:13:31Z</time>
      </trkpt>
      <trkpt lat="51.619175020605326" lon="-10.068177971988916">
        <ele>59.740000000000002</ele>
        <time>2026-06-28T11:13:32Z</time>
      </trkpt>
      <trkpt lat="51.619277028366923" lon="-10.068019973114133">
        <ele>58.299999999999997</ele>
        <time>2026-06-28T11:13:33Z</time>
      </trkpt>
      <trkpt lat="51.619826965034008" lon="-10.066999979317188">
        <ele>50.130000000000003</ele>
        <time>2026-06-28T11:13:39Z</time>
      </trkpt>
      <trkpt lat="51.620215969160199" lon="-10.066218031570315">
        <ele>44.359999999999999</ele>
        <time>2026-06-28T11:13:44Z</time>
      </trkpt>
      <trkpt lat="51.620306996628642" lon="-10.066104037687182">
        <ele>43.399999999999999</ele>
        <time>2026-06-28T11:13:45Z</time>
      </trkpt>
      <trkpt lat="51.620417973026633" lon="-10.066055003553629">
        <ele>42.920000000000002</ele>
        <time>2026-06-28T11:13:46Z</time>
      </trkpt>
      <trkpt lat="51.620531966909766" lon="-10.066010998561978">
        <ele>41.950000000000003</ele>
        <time>2026-06-28T11:13:47Z</time>
      </trkpt>
      <trkpt lat="51.62064696662128" lon="-10.065965987741947">
        <ele>40.990000000000002</ele>
        <time>2026-06-28T11:13:48Z</time>
      </trkpt>
      <trkpt lat="51.620761966332793" lon="-10.065920976921916">
        <ele>39.549999999999997</ele>
        <time>2026-06-28T11:13:49Z</time>
      </trkpt>
      <trkpt lat="51.621835017576814" lon="-10.065312031656504">
        <ele>28.02</ele>
        <time>2026-06-28T11:13:58Z</time>
      </trkpt>
      <trkpt lat="51.622161995619535" lon="-10.065019000321627">
        <ele>26.09</ele>
        <time>2026-06-28T11:14:01Z</time>
      </trkpt>
      <trkpt lat="51.622252017259598" lon="-10.064883967861533">
        <ele>25.609999999999999</ele>
        <time>2026-06-28T11:14:02Z</time>
      </trkpt>
      <trkpt lat="51.622331980615854" lon="-10.064764022827148">
        <ele>25.129999999999999</ele>
        <time>2026-06-28T11:14:03Z</time>
      </trkpt>
      <trkpt lat="51.622410016134381" lon="-10.06459697149694">
        <ele>24.649999999999999</ele>
        <time>2026-06-28T11:14:04Z</time>
      </trkpt>
      <trkpt lat="51.622481010854244" lon="-10.06444601342082">
        <ele>24.170000000000002</ele>
        <time>2026-06-28T11:14:05Z</time>
      </trkpt>
      <trkpt lat="51.622555023059249" lon="-10.064291032031178">
        <ele>23.690000000000001</ele>
        <time>2026-06-28T11:14:06Z</time>
      </trkpt>
      <trkpt lat="51.623430009931326" lon="-10.062635019421577">
        <ele>20.32</ele>
        <time>2026-06-28T11:14:17Z</time>
      </trkpt>
      <trkpt lat="51.623694961890578" lon="-10.062164040282369">
        <ele>20.32</ele>
        <time>2026-06-28T11:14:20Z</time>
      </trkpt>
      <trkpt lat="51.623751036822796" lon="-10.061983997002244">
        <ele>20.32</ele>
        <time>2026-06-28T11:14:21Z</time>
      </trkpt>
      <trkpt lat="51.623801998794079" lon="-10.06180202588439">
        <ele>20.32</ele>
        <time>2026-06-28T11:14:22Z</time>
      </trkpt>
      <trkpt lat="51.623852038756013" lon="-10.061628017574549">
        <ele>20.32</ele>
        <time>2026-06-28T11:14:23Z</time>
      </trkpt>
      <trkpt lat="51.623895959928632" lon="-10.061470018699765">
        <ele>20.32</ele>
        <time>2026-06-28T11:14:24Z</time>
      </trkpt>
      <trkpt lat="51.623957986012101" lon="-10.061252005398273">
        <ele>20.32</ele>
        <time>2026-06-28T11:14:28Z</time>
      </trkpt>
      <trkpt lat="51.623996961861849" lon="-10.06111403927207">
        <ele>20.32</ele>
        <time>2026-06-28T11:14:36Z</time>
      </trkpt>
      <trkpt lat="51.624023029580712" lon="-10.061021000146866">
        <ele>19.84</ele>
        <time>2026-06-28T11:14:37Z</time>
      </trkpt>
      <trkpt lat="51.624074997380376" lon="-10.0609449762851">
        <ele>19.84</ele>
        <time>2026-06-28T11:14:38Z</time>
      </trkpt>
      <trkpt lat="51.624137023463845" lon="-10.060864007100463">
        <ele>19.84</ele>
        <time>2026-06-28T11:14:39Z</time>
      </trkpt>
      <trkpt lat="51.624206006526947" lon="-10.06077297963202">
        <ele>20.32</ele>
        <time>2026-06-28T11:14:40Z</time>
      </trkpt>
      <trkpt lat="51.624470036476851" lon="-10.060409959405661">
        <ele>21.289999999999999</ele>
        <time>2026-06-28T11:14:43Z</time>
      </trkpt>
      <trkpt lat="51.624560980126262" lon="-10.060248021036386">
        <ele>21.289999999999999</ele>
        <time>2026-06-28T11:14:44Z</time>
      </trkpt>
      <trkpt lat="51.625446025282145" lon="-10.058470973744988">
        <ele>21.77</ele>
        <time>2026-06-28T11:14:53Z</time>
      </trkpt>
      <trkpt lat="51.626191008836031" lon="-10.05675402469933">
        <ele>23.690000000000001</ele>
        <time>2026-06-28T11:15:02Z</time>
      </trkpt>
      <trkpt lat="51.626410027965903" lon="-10.056333001703024">
        <ele>23.690000000000001</ele>
        <time>2026-06-28T11:15:05Z</time>
      </trkpt>
      <trkpt lat="51.626507006585598" lon="-10.056214984506369">
        <ele>23.690000000000001</ele>
        <time>2026-06-28T11:15:06Z</time>
      </trkpt>
      <trkpt lat="51.626605996862054" lon="-10.056095039471984">
        <ele>23.690000000000001</ele>
        <time>2026-06-28T11:15:07Z</time>
      </trkpt>
      <trkpt lat="51.627372018992901" lon="-10.055157020688057">
        <ele>24.649999999999999</ele>
        <time>2026-06-28T11:15:15Z</time>
      </trkpt>
      <trkpt lat="51.627955986186862" lon="-10.054043987765908">
        <ele>25.609999999999999</ele>
        <time>2026-06-28T11:15:22Z</time>
      </trkpt>
      <trkpt lat="51.628870032727718" lon="-10.05232703872025">
        <ele>27.530000000000001</ele>
        <time>2026-06-28T11:15:33Z</time>
      </trkpt>
      <trkpt lat="51.628933986648917" lon="-10.052143977954984">
        <ele>27.050000000000001</ele>
        <time>2026-06-28T11:15:34Z</time>
      </trkpt>
      <trkpt lat="51.629127021878958" lon="-10.051622958853841">
        <ele>25.129999999999999</ele>
        <time>2026-06-28T11:15:37Z</time>
      </trkpt>
      <trkpt lat="51.629198016598821" lon="-10.051499996334314">
        <ele>25.129999999999999</ele>
        <time>2026-06-28T11:15:38Z</time>
      </trkpt>
      <trkpt lat="51.629287032410502" lon="-10.051404023543">
        <ele>24.649999999999999</ele>
        <time>2026-06-28T11:15:39Z</time>
      </trkpt>
      <trkpt lat="51.629380993545055" lon="-10.051302015781403">
        <ele>24.649999999999999</ele>
        <time>2026-06-28T11:15:40Z</time>
      </trkpt>
      <trkpt lat="51.629473026841879" lon="-10.051202019676566">
        <ele>25.609999999999999</ele>
        <time>2026-06-28T11:15:41Z</time>
      </trkpt>
      <trkpt lat="51.62964896298945" lon="-10.051012001931667">
        <ele>26.09</ele>
        <time>2026-06-28T11:15:43Z</time>
      </trkpt>
      <trkpt lat="51.629705959931016" lon="-10.05089096724987">
        <ele>26.09</ele>
        <time>2026-06-28T11:15:44Z</time>
      </trkpt>
      <trkpt lat="51.629751976579428" lon="-10.050765993073583">
        <ele>26.57</ele>
        <time>2026-06-28T11:15:45Z</time>
      </trkpt>
      <trkpt lat="51.629801010712981" lon="-10.05063196644187">
        <ele>27.050000000000001</ele>
        <time>2026-06-28T11:15:46Z</time>
      </trkpt>
      <trkpt lat="51.629854990169406" lon="-10.050486037507653">
        <ele>27.050000000000001</ele>
        <time>2026-06-28T11:15:47Z</time>
      </trkpt>
      <trkpt lat="51.629906035959721" lon="-10.050344970077276">
        <ele>27.530000000000001</ele>
        <time>2026-06-28T11:15:48Z</time>
      </trkpt>
      <trkpt lat="51.629974013194442" lon="-10.050231982022524">
        <ele>28.02</ele>
        <time>2026-06-28T11:15:49Z</time>
      </trkpt>
      <trkpt lat="51.630035033449531" lon="-10.050130980089307">
        <ele>28.5</ele>
        <time>2026-06-28T11:15:50Z</time>
      </trkpt>
      <trkpt lat="51.630093958228827" lon="-10.050032995641232">
        <ele>28.98</ele>
        <time>2026-06-28T11:15:51Z</time>
      </trkpt>
      <trkpt lat="51.630177022889256" lon="-10.04998697899282">
        <ele>29.460000000000001</ele>
        <time>2026-06-28T11:15:52Z</time>
      </trkpt>
      <trkpt lat="51.630260003730655" lon="-10.049950014799833">
        <ele>29.460000000000001</ele>
        <time>2026-06-28T11:15:53Z</time>
      </trkpt>
      <trkpt lat="51.630350025370717" lon="-10.049913972616196">
        <ele>29.940000000000001</ele>
        <time>2026-06-28T11:15:54Z</time>
      </trkpt>
      <trkpt lat="51.630458990111947" lon="-10.049899974837899">
        <ele>29.940000000000001</ele>
        <time>2026-06-28T11:15:55Z</time>
      </trkpt>
      <trkpt lat="51.631402960047126" lon="-10.049829985946417">
        <ele>28.98</ele>
        <time>2026-06-28T11:16:04Z</time>
      </trkpt>
      <trkpt lat="51.631789030507207" lon="-10.049862004816532">
        <ele>27.530000000000001</ele>
        <time>2026-06-28T11:16:08Z</time>
      </trkpt>
      <trkpt lat="51.631878968328238" lon="-10.049880025908351">
        <ele>27.050000000000001</ele>
        <time>2026-06-28T11:16:09Z</time>
      </trkpt>
      <trkpt lat="51.63291597738862" lon="-10.050084041431546">
        <ele>22.25</ele>
        <time>2026-06-28T11:16:20Z</time>
      </trkpt>
      <trkpt lat="51.633185958489776" lon="-10.050171967595816">
        <ele>21.77</ele>
        <time>2026-06-28T11:16:23Z</time>
      </trkpt>
      <trkpt lat="51.633261982351542" lon="-10.050253020599484">
        <ele>21.289999999999999</ele>
        <time>2026-06-28T11:16:24Z</time>
      </trkpt>
      <trkpt lat="51.633340017870069" lon="-10.050334995612502">
        <ele>21.289999999999999</ele>
        <time>2026-06-28T11:16:25Z</time>
      </trkpt>
      <trkpt lat="51.633427022024989" lon="-10.050428034737706">
        <ele>20.809999999999999</ele>
        <time>2026-06-28T11:16:26Z</time>
      </trkpt>
      <trkpt lat="51.633531041443348" lon="-10.05052400752902">
        <ele>20.809999999999999</ele>
        <time>2026-06-28T11:16:27Z</time>
      </trkpt>
      <trkpt lat="51.633648974820971" lon="-10.05060900002718">
        <ele>20.32</ele>
        <time>2026-06-28T11:16:28Z</time>
      </trkpt>
      <trkpt lat="51.634506024420261" lon="-10.05131802521646">
        <ele>16.48</ele>
        <time>2026-06-28T11:16:36Z</time>
      </trkpt>
      <trkpt lat="51.634560003876686" lon="-10.051453979685903">
        <ele>16</ele>
        <time>2026-06-28T11:16:37Z</time>
      </trkpt>
      <trkpt lat="51.63461197167635" lon="-10.051583983004093">
        <ele>16</ele>
        <time>2026-06-28T11:16:38Z</time>
      </trkpt>
      <trkpt lat="51.63465203717351" lon="-10.0517269782722">
        <ele>15.52</ele>
        <time>2026-06-28T11:16:39Z</time>
      </trkpt>
      <trkpt lat="51.634664023295045" lon="-10.051878020167351">
        <ele>15.52</ele>
        <time>2026-06-28T11:16:40Z</time>
      </trkpt>
      <trkpt lat="51.6346750035882" lon="-10.05202503874898">
        <ele>15.52</ele>
        <time>2026-06-28T11:16:41Z</time>
      </trkpt>
      <trkpt lat="51.634684978052974" lon="-10.052158981561661">
        <ele>15.52</ele>
        <time>2026-06-28T11:16:42Z</time>
      </trkpt>
      <trkpt lat="51.634694030508399" lon="-10.052280016243458">
        <ele>15.52</ele>
        <time>2026-06-28T11:16:43Z</time>
      </trkpt>
      <trkpt lat="51.634701993316412" lon="-10.052385963499546">
        <ele>15.52</ele>
        <time>2026-06-28T11:16:44Z</time>
      </trkpt>
      <trkpt lat="51.634708028286695" lon="-10.052475985139608">
        <ele>15.52</ele>
        <time>2026-06-28T11:16:45Z</time>
      </trkpt>
      <trkpt lat="51.634723031893373" lon="-10.052532982081175">
        <ele>15.52</ele>
        <time>2026-06-28T11:16:46Z</time>
      </trkpt>
      <trkpt lat="51.634766031056643" lon="-10.052532982081175">
        <ele>15.52</ele>
        <time>2026-06-28T11:16:47Z</time>
      </trkpt>
      <trkpt lat="51.634816993027925" lon="-10.052532982081175">
        <ele>15.52</ele>
        <time>2026-06-28T11:16:48Z</time>
      </trkpt>
      <trkpt lat="51.634860998019576" lon="-10.052502974867821">
        <ele>15.039999999999999</ele>
        <time>2026-06-28T11:16:49Z</time>
      </trkpt>
      <trkpt lat="51.634909026324749" lon="-10.052428962662816">
        <ele>15.039999999999999</ele>
        <time>2026-06-28T11:16:50Z</time>
      </trkpt>
      <trkpt lat="51.634965017437935" lon="-10.052341958507895">
        <ele>15.039999999999999</ele>
        <time>2026-06-28T11:16:51Z</time>
      </trkpt>
      <trkpt lat="51.635131984949112" lon="-10.052019003778696">
        <ele>15.52</ele>
        <time>2026-06-28T11:16:54Z</time>
      </trkpt>
      <trkpt lat="51.635182024911046" lon="-10.051883971318603">
        <ele>15.52</ele>
        <time>2026-06-28T11:16:55Z</time>
      </trkpt>
      <trkpt lat="51.635229969397187" lon="-10.051752040162683">
        <ele>15.52</ele>
        <time>2026-06-28T11:16:56Z</time>
      </trkpt>
      <trkpt lat="51.635423004627228" lon="-10.051242001354694">
        <ele>15.52</ele>
        <time>2026-06-28T11:17:00Z</time>
      </trkpt>
      <trkpt lat="51.636111997067928" lon="-10.049834009259939">
        <ele>16.48</ele>
        <time>2026-06-28T11:17:11Z</time>
      </trkpt>
      <trkpt lat="51.636450961232185" lon="-10.049143005162477">
        <ele>19.84</ele>
        <time>2026-06-28T11:17:16Z</time>
      </trkpt>
      <trkpt lat="51.636549029499292" lon="-10.049030017107725">
        <ele>20.809999999999999</ele>
        <time>2026-06-28T11:17:17Z</time>
      </trkpt>
      <trkpt lat="51.636646008118987" lon="-10.048919962719083">
        <ele>21.289999999999999</ele>
        <time>2026-06-28T11:17:18Z</time>
      </trkpt>
      <trkpt lat="51.637757029384375" lon="-10.047633005306125">
        <ele>30.899999999999999</ele>
        <time>2026-06-28T11:17:30Z</time>
      </trkpt>
      <trkpt lat="51.637813020497561" lon="-10.047520017251372">
        <ele>31.859999999999999</ele>
        <time>2026-06-28T11:17:31Z</time>
      </trkpt>
      <trkpt lat="51.637864988297224" lon="-10.047394037246704">
        <ele>32.340000000000003</ele>
        <time>2026-06-28T11:17:32Z</time>
      </trkpt>
      <trkpt lat="51.638182997703552" lon="-10.046794982627034">
        <ele>35.229999999999997</ele>
        <time>2026-06-28T11:17:37Z</time>
      </trkpt>
      <trkpt lat="51.638261033222079" lon="-10.046687023714185">
        <ele>35.710000000000001</ele>
        <time>2026-06-28T11:17:38Z</time>
      </trkpt>
      <trkpt lat="51.638348037377" lon="-10.046593984588981">
        <ele>35.710000000000001</ele>
        <time>2026-06-28T11:17:39Z</time>
      </trkpt>
      <trkpt lat="51.638906020671129" lon="-10.045957965776324">
        <ele>38.109999999999999</ele>
        <time>2026-06-28T11:17:46Z</time>
      </trkpt>
      <trkpt lat="51.639223024249077" lon="-10.045520011335611">
        <ele>41.469999999999999</ele>
        <time>2026-06-28T11:17:51Z</time>
      </trkpt>
      <trkpt lat="51.639392003417015" lon="-10.045286994427443">
        <ele>42.439999999999998</ele>
        <time>2026-06-28T11:17:54Z</time>
      </trkpt>
      <trkpt lat="51.639458974823356" lon="-10.045208036899567">
        <ele>42.920000000000002</ele>
        <time>2026-06-28T11:17:55Z</time>
      </trkpt>
      <trkpt lat="51.639669025316834" lon="-10.04498097114265">
        <ele>46.280000000000001</ele>
        <time>2026-06-28T11:17:58Z</time>
      </trkpt>
      <trkpt lat="51.639726022258401" lon="-10.044878041371703">
        <ele>47.719999999999999</ele>
        <time>2026-06-28T11:17:59Z</time>
      </trkpt>
      <trkpt lat="51.639969013631344" lon="-10.044441008940339">
        <ele>51.57</ele>
        <time>2026-06-28T11:18:03Z</time>
      </trkpt>
      <trkpt lat="51.640029028058052" lon="-10.044374037533998">
        <ele>52.530000000000001</ele>
        <time>2026-06-28T11:18:04Z</time>
      </trkpt>
      <trkpt lat="51.640089964494109" lon="-10.044331038370728">
        <ele>53.490000000000002</ele>
        <time>2026-06-28T11:18:05Z</time>
      </trkpt>
      <trkpt lat="51.640146961435676" lon="-10.044291978701949">
        <ele>53.969999999999999</ele>
        <time>2026-06-28T11:18:06Z</time>
      </trkpt>
      <trkpt lat="51.640206975862384" lon="-10.044276975095272">
        <ele>54.93</ele>
        <time>2026-06-28T11:18:07Z</time>
      </trkpt>
      <trkpt lat="51.640621963888407" lon="-10.044190976768732">
        <ele>58.780000000000001</ele>
        <time>2026-06-28T11:18:16Z</time>
      </trkpt>
      <trkpt lat="51.64071299135685" lon="-10.044201035052538">
        <ele>59.740000000000002</ele>
        <time>2026-06-28T11:18:18Z</time>
      </trkpt>
      <trkpt lat="51.640761019662023" lon="-10.044205980375409">
        <ele>60.219999999999999</ele>
        <time>2026-06-28T11:18:19Z</time>
      </trkpt>
      <trkpt lat="51.641124039888382" lon="-10.044243028387427">
        <ele>62.619999999999997</ele>
        <time>2026-06-28T11:18:25Z</time>
      </trkpt>
      <trkpt lat="51.641570962965488" lon="-10.0441840197891">
        <ele>65.510000000000005</ele>
        <time>2026-06-28T11:18:34Z</time>
      </trkpt>
      <trkpt lat="51.641720999032259" lon="-10.044157030060887">
        <ele>65.510000000000005</ele>
        <time>2026-06-28T11:18:43Z</time>
      </trkpt>
      <trkpt lat="51.641720999032259" lon="-10.044157030060887">
        <ele>65.510000000000005</ele>
        <time>2026-06-28T11:19:21Z</time>
      </trkpt>
      <trkpt lat="51.641728039830923" lon="-10.044156024232507">
        <ele>65.030000000000001</ele>
        <time>2026-06-28T11:19:47Z</time>
      </trkpt>
      <trkpt lat="51.641783025115728" lon="-10.044092992320657">
        <ele>62.619999999999997</ele>
        <time>2026-06-28T11:19:59Z</time>
      </trkpt>
      <trkpt lat="51.641783025115728" lon="-10.044092992320657">
        <ele>62.619999999999997</ele>
        <time>2026-06-28T11:20:21Z</time>
      </trkpt>
      <trkpt lat="51.641803979873657" lon="-10.04414202645421">
        <ele>64.549999999999997</ele>
        <time>2026-06-28T12:14:25Z</time>
      </trkpt>
      <trkpt lat="51.641934989020228" lon="-10.044118976220489">
        <ele>64.069999999999993</ele>
        <time>2026-06-28T12:14:26Z</time>
      </trkpt>
      <trkpt lat="51.642087958753109" lon="-10.044091986492276">
        <ele>66.950000000000003</ele>
        <time>2026-06-28T12:14:30Z</time>
      </trkpt>
      <trkpt lat="51.642155013978481" lon="-10.044080000370741">
        <ele>66.950000000000003</ele>
        <time>2026-06-28T12:14:31Z</time>
      </trkpt>
      <trkpt lat="51.642333967611194" lon="-10.043961983174086">
        <ele>64.069999999999993</ele>
        <time>2026-06-28T12:14:34Z</time>
      </trkpt>
      <trkpt lat="51.642400017008185" lon="-10.043917978182435">
        <ele>64.069999999999993</ele>
        <time>2026-06-28T12:14:35Z</time>
      </trkpt>
      <trkpt lat="51.642470005899668" lon="-10.043871961534023">
        <ele>63.579999999999998</ele>
        <time>2026-06-28T12:14:36Z</time>
      </trkpt>
      <trkpt lat="51.642591040581465" lon="-10.043790992349386">
        <ele>63.579999999999998</ele>
        <time>2026-06-28T12:14:38Z</time>
      </trkpt>
      <trkpt lat="51.642674021422863" lon="-10.043736007064581">
        <ele>63.100000000000001</ele>
        <time>2026-06-28T12:14:40Z</time>
      </trkpt>
      <trkpt lat="51.642747027799487" lon="-10.043722009286284">
        <ele>63.100000000000001</ele>
        <time>2026-06-28T12:14:41Z</time>
      </trkpt>
      <trkpt lat="51.642793966457248" lon="-10.04371396265924">
        <ele>62.619999999999997</ele>
        <time>2026-06-28T12:14:42Z</time>
      </trkpt>
      <trkpt lat="51.642850041389465" lon="-10.043703988194466">
        <ele>62.619999999999997</ele>
        <time>2026-06-28T12:14:43Z</time>
      </trkpt>
      <trkpt lat="51.642921036109328" lon="-10.04369099624455">
        <ele>62.619999999999997</ele>
        <time>2026-06-28T12:14:44Z</time>
      </trkpt>
      <trkpt lat="51.643005022779107" lon="-10.043675992637873">
        <ele>62.619999999999997</ele>
        <time>2026-06-28T12:14:45Z</time>
      </trkpt>
      <trkpt lat="51.643445994704962" lon="-10.043693007901311">
        <ele>62.140000000000001</ele>
        <time>2026-06-28T12:14:51Z</time>
      </trkpt>
      <trkpt lat="51.643494023010135" lon="-10.043608015403152">
        <ele>62.140000000000001</ele>
        <time>2026-06-28T12:14:52Z</time>
      </trkpt>
      <trkpt lat="51.643526963889599" lon="-10.043550012633204">
        <ele>62.140000000000001</ele>
        <time>2026-06-28T12:14:53Z</time>
      </trkpt>
      <trkpt lat="51.64356904104352" lon="-10.0434760004282">
        <ele>62.140000000000001</ele>
        <time>2026-06-28T12:14:54Z</time>
      </trkpt>
      <trkpt lat="51.643620003014803" lon="-10.043385978788137">
        <ele>62.140000000000001</ele>
        <time>2026-06-28T12:14:55Z</time>
      </trkpt>
      <trkpt lat="51.643670964986086" lon="-10.043296040967107">
        <ele>62.619999999999997</ele>
        <time>2026-06-28T12:14:56Z</time>
      </trkpt>
      <trkpt lat="51.643725028261542" lon="-10.04319897852838">
        <ele>63.579999999999998</ele>
        <time>2026-06-28T12:14:57Z</time>
      </trkpt>
      <trkpt lat="51.643740031868219" lon="-10.043067969381809">
        <ele>64.549999999999997</ele>
        <time>2026-06-28T12:14:58Z</time>
      </trkpt>
      <trkpt lat="51.643741959705949" lon="-10.042941989377141">
        <ele>65.989999999999995</ele>
        <time>2026-06-28T12:14:59Z</time>
      </trkpt>
      <trkpt lat="51.643732991069555" lon="-10.042802011594176">
        <ele>66.950000000000003</ele>
        <time>2026-06-28T12:15:00Z</time>
      </trkpt>
      <trkpt lat="51.643725028261542" lon="-10.042683994397521">
        <ele>68.390000000000001</ele>
        <time>2026-06-28T12:15:01Z</time>
      </trkpt>
      <trkpt lat="51.643753023818135" lon="-10.04249095916748">
        <ele>68.870000000000005</ele>
        <time>2026-06-28T12:15:02Z</time>
      </trkpt>
      <trkpt lat="51.643773978576064" lon="-10.042341006919742">
        <ele>69.829999999999998</ele>
        <time>2026-06-28T12:15:03Z</time>
      </trkpt>
      <trkpt lat="51.643799962475896" lon="-10.042185019701719">
        <ele>69.829999999999998</ele>
        <time>2026-06-28T12:15:04Z</time>
      </trkpt>
      <trkpt lat="51.643830975517631" lon="-10.04203800112009">
        <ele>70.310000000000002</ele>
        <time>2026-06-28T12:15:05Z</time>
      </trkpt>
      <trkpt lat="51.643871963024139" lon="-10.041895005851984">
        <ele>70.790000000000006</ele>
        <time>2026-06-28T12:15:06Z</time>
      </trkpt>
      <trkpt lat="51.643929965794086" lon="-10.041774976998568">
        <ele>71.760000000000005</ele>
        <time>2026-06-28T12:15:07Z</time>
      </trkpt>
      <trkpt lat="51.643988974392414" lon="-10.041655031964183">
        <ele>72.239999999999995</ele>
        <time>2026-06-28T12:15:08Z</time>
      </trkpt>
      <trkpt lat="51.64430296048522" lon="-10.040837964043021">
        <ele>74.640000000000001</ele>
        <time>2026-06-28T12:15:14Z</time>
      </trkpt>
      <trkpt lat="51.644336991012096" lon="-10.040696980431676">
        <ele>74.640000000000001</ele>
        <time>2026-06-28T12:15:15Z</time>
      </trkpt>
      <trkpt lat="51.644363980740309" lon="-10.040550967678428">
        <ele>75.120000000000005</ele>
        <time>2026-06-28T12:15:16Z</time>
      </trkpt>
      <trkpt lat="51.644662041217089" lon="-10.038876011967659">
        <ele>78.969999999999999</ele>
        <time>2026-06-28T12:15:27Z</time>
      </trkpt>
      <trkpt lat="51.644711997359991" lon="-10.038478039205074">
        <ele>80.409999999999997</ele>
        <time>2026-06-28T12:15:30Z</time>
      </trkpt>
      <trkpt lat="51.644762037321925" lon="-10.038378965109587">
        <ele>80.890000000000001</ele>
        <time>2026-06-28T12:15:31Z</time>
      </trkpt>
      <trkpt lat="51.644790032878518" lon="-10.03832196816802">
        <ele>80.890000000000001</ele>
        <time>2026-06-28T12:15:32Z</time>
      </trkpt>
      <trkpt lat="51.644810987636447" lon="-10.038280980661511">
        <ele>81.370000000000005</ele>
        <time>2026-06-28T12:15:33Z</time>
      </trkpt>
      <trkpt lat="51.644829008728266" lon="-10.038246028125286">
        <ele>81.849999999999994</ele>
        <time>2026-06-28T12:15:34Z</time>
      </trkpt>
      <trkpt lat="51.644847029820085" lon="-10.038208980113268">
        <ele>81.849999999999994</ele>
        <time>2026-06-28T12:15:35Z</time>
      </trkpt>
      <trkpt lat="51.644920036196709" lon="-10.038163969293237">
        <ele>82.329999999999998</ele>
        <time>2026-06-28T12:15:36Z</time>
      </trkpt>
      <trkpt lat="51.644958006218076" lon="-10.038193976506591">
        <ele>82.810000000000002</ele>
        <time>2026-06-28T12:15:37Z</time>
      </trkpt>
      <trkpt lat="51.644996982067823" lon="-10.038225995376706">
        <ele>82.810000000000002</ele>
        <time>2026-06-28T12:15:38Z</time>
      </trkpt>
      <trkpt lat="51.645036041736603" lon="-10.038257008418441">
        <ele>83.290000000000006</ele>
        <time>2026-06-28T12:15:39Z</time>
      </trkpt>
      <trkpt lat="51.64509798400104" lon="-10.038306964561343">
        <ele>83.290000000000006</ele>
        <time>2026-06-28T12:15:40Z</time>
      </trkpt>
      <trkpt lat="51.645207032561302" lon="-10.038287015631795">
        <ele>83.769999999999996</ele>
        <time>2026-06-28T12:15:42Z</time>
      </trkpt>
      <trkpt lat="51.64526604115963" lon="-10.03827603533864">
        <ele>83.769999999999996</ele>
        <time>2026-06-28T12:15:43Z</time>
      </trkpt>
      <trkpt lat="51.645324965938926" lon="-10.038263965398073">
        <ele>84.25</ele>
        <time>2026-06-28T12:15:44Z</time>
      </trkpt>
      <trkpt lat="51.645391015335917" lon="-10.038251979276538">
        <ele>84.730000000000004</ele>
        <time>2026-06-28T12:15:45Z</time>
      </trkpt>
      <trkpt lat="51.6454419773072" lon="-10.038242004811764">
        <ele>84.730000000000004</ele>
        <time>2026-06-28T12:15:46Z</time>
      </trkpt>
      <trkpt lat="51.645482964813709" lon="-10.038174027577043">
        <ele>85.209999999999994</ele>
        <time>2026-06-28T12:15:47Z</time>
      </trkpt>
      <trkpt lat="51.645516995340586" lon="-10.038117030635476">
        <ele>85.209999999999994</ele>
        <time>2026-06-28T12:15:48Z</time>
      </trkpt>
      <trkpt lat="51.645553037524223" lon="-10.038058022037148">
        <ele>85.689999999999998</ele>
        <time>2026-06-28T12:15:49Z</time>
      </trkpt>
      <trkpt lat="51.64557097479701" lon="-10.038003958761692">
        <ele>86.180000000000007</ele>
        <time>2026-06-28T12:15:50Z</time>
      </trkpt>
      <trkpt lat="51.645574998110533" lon="-10.037929024547338">
        <ele>86.659999999999997</ele>
        <time>2026-06-28T12:15:51Z</time>
      </trkpt>
      <trkpt lat="51.645579021424055" lon="-10.03784897737205">
        <ele>87.140000000000001</ele>
        <time>2026-06-28T12:15:52Z</time>
      </trkpt>
      <trkpt lat="51.645582960918546" lon="-10.037760967388749">
        <ele>88.099999999999994</ele>
        <time>2026-06-28T12:15:53Z</time>
      </trkpt>
      <trkpt lat="51.645587990060449" lon="-10.037664994597435">
        <ele>88.579999999999998</ele>
        <time>2026-06-28T12:15:54Z</time>
      </trkpt>
      <trkpt lat="51.645592013373971" lon="-10.037576984614134">
        <ele>89.060000000000002</ele>
        <time>2026-06-28T12:15:55Z</time>
      </trkpt>
      <trkpt lat="51.645615985617042" lon="-10.037471037358046">
        <ele>90.019999999999996</ele>
        <time>2026-06-28T12:15:56Z</time>
      </trkpt>
      <trkpt lat="51.645639035850763" lon="-10.037371041253209">
        <ele>90.5</ele>
        <time>2026-06-28T12:15:57Z</time>
      </trkpt>
      <trkpt lat="51.645659990608692" lon="-10.037283031269908">
        <ele>90.980000000000004</ele>
        <time>2026-06-28T12:15:58Z</time>
      </trkpt>
      <trkpt lat="51.64567600004375" lon="-10.037213964387774">
        <ele>90.980000000000004</ele>
        <time>2026-06-28T12:15:59Z</time>
      </trkpt>
      <trkpt lat="51.645689997822046" lon="-10.037152022123337">
        <ele>91.459999999999994</ele>
        <time>2026-06-28T12:16:00Z</time>
      </trkpt>
      <trkpt lat="51.645757975056767" lon="-10.03685899078846">
        <ele>93.390000000000001</ele>
        <time>2026-06-28T12:16:07Z</time>
      </trkpt>
      <trkpt lat="51.645769961178303" lon="-10.036804005503654">
        <ele>94.349999999999994</ele>
        <time>2026-06-28T12:16:16Z</time>
      </trkpt>
      <trkpt lat="51.645777001976967" lon="-10.03677299246192">
        <ele>94.349999999999994</ele>
        <time>2026-06-28T12:16:17Z</time>
      </trkpt>
      <trkpt lat="51.645893007516861" lon="-10.03638599999249">
        <ele>94.349999999999994</ele>
        <time>2026-06-28T12:16:29Z</time>
      </trkpt>
      <trkpt lat="51.645953021943569" lon="-10.036282986402512">
        <ele>94.349999999999994</ele>
        <time>2026-06-28T12:16:40Z</time>
      </trkpt>
      <trkpt lat="51.646103980019689" lon="-10.036020968109369">
        <ele>96.269999999999996</ele>
        <time>2026-06-28T12:16:49Z</time>
      </trkpt>
      <trkpt lat="51.646200958639383" lon="-10.035855006426573">
        <ele>97.230000000000004</ele>
        <time>2026-06-28T12:16:52Z</time>
      </trkpt>
      <trkpt lat="51.646477980539203" lon="-10.035530962049961">
        <ele>101.08</ele>
        <time>2026-06-28T12:16:58Z</time>
      </trkpt>
      <trkpt lat="51.646527014672756" lon="-10.035496009513736">
        <ele>102.04000000000001</ele>
        <time>2026-06-28T12:16:59Z</time>
      </trkpt>
      <trkpt lat="51.64657898247242" lon="-10.035458039492369">
        <ele>103</ele>
        <time>2026-06-28T12:17:00Z</time>
      </trkpt>
      <trkpt lat="51.646680990234017" lon="-10.035372963175178">
        <ele>104.92</ele>
        <time>2026-06-28T12:17:02Z</time>
      </trkpt>
      <trkpt lat="51.646724995225668" lon="-10.035328958183527">
        <ele>105.88</ele>
        <time>2026-06-28T12:17:03Z</time>
      </trkpt>
      <trkpt lat="51.646809987723827" lon="-10.035242959856987">
        <ele>110.20999999999999</ele>
        <time>2026-06-28T12:17:10Z</time>
      </trkpt>
      <trkpt lat="51.646907972171903" lon="-10.035172970965505">
        <ele>111.65000000000001</ele>
        <time>2026-06-28T12:17:19Z</time>
      </trkpt>
      <trkpt lat="51.646948037669063" lon="-10.035155033692718">
        <ele>111.65000000000001</ele>
        <time>2026-06-28T12:17:20Z</time>
      </trkpt>
      <trkpt lat="51.646985001862049" lon="-10.035138018429279">
        <ele>111.65000000000001</ele>
        <time>2026-06-28T12:17:21Z</time>
      </trkpt>
      <trkpt lat="51.647019032388926" lon="-10.035122008994222">
        <ele>112.13</ele>
        <time>2026-06-28T12:17:22Z</time>
      </trkpt>
      <trkpt lat="51.647093966603279" lon="-10.035087978467345">
        <ele>112.61</ele>
        <time>2026-06-28T12:17:23Z</time>
      </trkpt>
      <trkpt lat="51.647097989916801" lon="-10.035088984295726">
        <ele>113.09</ele>
        <time>2026-06-28T12:17:24Z</time>
      </trkpt>
      <trkpt lat="51.6474399715662" lon="-10.035138018429279">
        <ele>117.90000000000001</ele>
        <time>2026-06-28T12:17:32Z</time>
      </trkpt>
      <trkpt lat="51.647493029013276" lon="-10.035144975408912">
        <ele>118.38</ele>
        <time>2026-06-28T12:17:33Z</time>
      </trkpt>
      <trkpt lat="51.647539967671037" lon="-10.035152016207576">
        <ele>119.34</ele>
        <time>2026-06-28T12:17:34Z</time>
      </trkpt>
      <trkpt lat="51.647560000419617" lon="-10.035202978178859">
        <ele>120.3</ele>
        <time>2026-06-28T12:17:35Z</time>
      </trkpt>
      <trkpt lat="51.647576009854674" lon="-10.035257963463664">
        <ele>120.78</ele>
        <time>2026-06-28T12:17:36Z</time>
      </trkpt>
      <trkpt lat="51.647591013461351" lon="-10.035309009253979">
        <ele>121.26000000000001</ele>
        <time>2026-06-28T12:17:37Z</time>
      </trkpt>
      <trkpt lat="51.647595036774874" lon="-10.035386960953474">
        <ele>121.73999999999999</ele>
        <time>2026-06-28T12:17:38Z</time>
      </trkpt>
      <trkpt lat="51.647563017904758" lon="-10.035435995087028">
        <ele>122.70999999999999</ele>
        <time>2026-06-28T12:17:39Z</time>
      </trkpt>
      <trkpt lat="51.64752596989274" lon="-10.035490980371833">
        <ele>123.67</ele>
        <time>2026-06-28T12:17:40Z</time>
      </trkpt>
      <trkpt lat="51.647489005699754" lon="-10.035546971485019">
        <ele>124.15000000000001</ele>
        <time>2026-06-28T12:17:41Z</time>
      </trkpt>
      <trkpt lat="51.647452041506767" lon="-10.035602040588856">
        <ele>124.15000000000001</ele>
        <time>2026-06-28T12:17:42Z</time>
      </trkpt>
      <trkpt lat="51.647431002929807" lon="-10.035645961761475">
        <ele>125.11</ele>
        <time>2026-06-28T12:17:43Z</time>
      </trkpt>
      <trkpt lat="51.647420022636652" lon="-10.035683009773493">
        <ele>125.11</ele>
        <time>2026-06-28T12:17:44Z</time>
      </trkpt>
      <trkpt lat="51.647398984059691" lon="-10.035758027806878">
        <ele>127.03</ele>
        <time>2026-06-28T12:17:53Z</time>
      </trkpt>
      <trkpt lat="51.647398984059691" lon="-10.035758027806878">
        <ele>126.55</ele>
        <time>2026-06-28T12:18:13Z</time>
      </trkpt>
      <trkpt lat="51.647398984059691" lon="-10.035758027806878">
        <ele>126.55</ele>
        <time>2026-06-28T12:18:40Z</time>
      </trkpt>
      <trkpt lat="51.647398984059691" lon="-10.035758027806878">
        <ele>126.55</ele>
        <time>2026-06-28T12:19:20Z</time>
      </trkpt>
      <trkpt lat="51.647398984059691" lon="-10.035758027806878">
        <ele>126.55</ele>
        <time>2026-06-28T12:19:35Z</time>
      </trkpt>
      <trkpt lat="51.647398984059691" lon="-10.035758027806878">
        <ele>126.55</ele>
        <time>2026-06-28T12:19:44Z</time>
      </trkpt>
      <trkpt lat="51.647624960169196" lon="-10.035299034789205">
        <ele>125.11</ele>
        <time>2026-06-28T12:19:55Z</time>
      </trkpt>
      <trkpt lat="51.647493029013276" lon="-10.035144975408912">
        <ele>122.22</ele>
        <time>2026-06-28T12:20:00Z</time>
      </trkpt>
      <trkpt lat="51.647450029850006" lon="-10.03513902425766">
        <ele>121.73999999999999</ele>
        <time>2026-06-28T12:20:01Z</time>
      </trkpt>
      <trkpt lat="51.647405019029975" lon="-10.035132989287376">
        <ele>121.26000000000001</ele>
        <time>2026-06-28T12:20:02Z</time>
      </trkpt>
      <trkpt lat="51.647231010720134" lon="-10.035108011215925">
        <ele>118.86</ele>
        <time>2026-06-28T12:20:06Z</time>
      </trkpt>
      <trkpt lat="51.647132020443678" lon="-10.035094013437629">
        <ele>117.42</ele>
        <time>2026-06-28T12:20:08Z</time>
      </trkpt>
      <trkpt lat="51.647093966603279" lon="-10.035087978467345">
        <ele>116.45999999999999</ele>
        <time>2026-06-28T12:20:09Z</time>
      </trkpt>
      <trkpt lat="51.64685701020062" lon="-10.035196021199226">
        <ele>111.65000000000001</ele>
        <time>2026-06-28T12:20:15Z</time>
      </trkpt>
      <trkpt lat="51.646811999380589" lon="-10.035241032019258">
        <ele>111.17</ele>
        <time>2026-06-28T12:20:16Z</time>
      </trkpt>
      <trkpt lat="51.646758019924164" lon="-10.035295011475682">
        <ele>110.69</ele>
        <time>2026-06-28T12:20:17Z</time>
      </trkpt>
      <trkpt lat="51.64664302021265" lon="-10.035410011187196">
        <ele>109.25</ele>
        <time>2026-06-28T12:20:19Z</time>
      </trkpt>
      <trkpt lat="51.646506981924176" lon="-10.035510007292032">
        <ele>106.84</ele>
        <time>2026-06-28T12:20:22Z</time>
      </trkpt>
      <trkpt lat="51.646453002467752" lon="-10.03554998897016">
        <ele>105.88</ele>
        <time>2026-06-28T12:20:23Z</time>
      </trkpt>
      <trkpt lat="51.646394999697804" lon="-10.03559198230505">
        <ele>104.92</ele>
        <time>2026-06-28T12:20:24Z</time>
      </trkpt>
      <trkpt lat="51.646197019144893" lon="-10.035860035568476">
        <ele>100.59999999999999</ele>
        <time>2026-06-28T12:20:28Z</time>
      </trkpt>
      <trkpt lat="51.646160976961255" lon="-10.035923989489675">
        <ele>99.150000000000006</ele>
        <time>2026-06-28T12:20:29Z</time>
      </trkpt>
      <trkpt lat="51.645822012796998" lon="-10.03657903522253">
        <ele>89.540000000000006</ele>
        <time>2026-06-28T12:20:38Z</time>
      </trkpt>
      <trkpt lat="51.64580499753356" lon="-10.036653969436884">
        <ele>88.579999999999998</ele>
        <time>2026-06-28T12:20:39Z</time>
      </trkpt>
      <trkpt lat="51.645616991445422" lon="-10.037466008216143">
        <ele>83.290000000000006</ele>
        <time>2026-06-28T12:20:49Z</time>
      </trkpt>
      <trkpt lat="51.645596036687493" lon="-10.037559969350696">
        <ele>82.329999999999998</ele>
        <time>2026-06-28T12:20:50Z</time>
      </trkpt>
      <trkpt lat="51.645587990060449" lon="-10.037656025961041">
        <ele>81.849999999999994</ele>
        <time>2026-06-28T12:20:51Z</time>
      </trkpt>
      <trkpt lat="51.645583966746926" lon="-10.037751998752356">
        <ele>81.370000000000005</ele>
        <time>2026-06-28T12:20:52Z</time>
      </trkpt>
      <trkpt lat="51.645579021424055" lon="-10.03784503787756">
        <ele>80.890000000000001</ele>
        <time>2026-06-28T12:20:53Z</time>
      </trkpt>
      <trkpt lat="51.645574998110533" lon="-10.037925001233816">
        <ele>80.409999999999997</ele>
        <time>2026-06-28T12:20:54Z</time>
      </trkpt>
      <trkpt lat="51.645571980625391" lon="-10.037993984296918">
        <ele>79.930000000000007</ele>
        <time>2026-06-28T12:20:55Z</time>
      </trkpt>
      <trkpt lat="51.64556996896863" lon="-10.038028014823794">
        <ele>79.930000000000007</ele>
        <time>2026-06-28T12:20:56Z</time>
      </trkpt>
      <trkpt lat="51.645543985068798" lon="-10.038073025643826">
        <ele>79.450000000000003</ele>
        <time>2026-06-28T12:20:57Z</time>
      </trkpt>
      <trkpt lat="51.645511966198683" lon="-10.038124993443489">
        <ele>78.969999999999999</ele>
        <time>2026-06-28T12:20:58Z</time>
      </trkpt>
      <trkpt lat="51.645479025319219" lon="-10.038179978728294">
        <ele>78.480000000000004</ele>
        <time>2026-06-28T12:20:59Z</time>
      </trkpt>
      <trkpt lat="51.6454419773072" lon="-10.038242004811764">
        <ele>78</ele>
        <time>2026-06-28T12:21:00Z</time>
      </trkpt>
      <trkpt lat="51.645385986194015" lon="-10.038252985104918">
        <ele>77.519999999999996</ele>
        <time>2026-06-28T12:21:01Z</time>
      </trkpt>
      <trkpt lat="51.645318008959293" lon="-10.038265977054834">
        <ele>77.519999999999996</ele>
        <time>2026-06-28T12:21:02Z</time>
      </trkpt>
      <trkpt lat="51.644986001774669" lon="-10.038217026740313">
        <ele>76.079999999999998</ele>
        <time>2026-06-28T12:21:11Z</time>
      </trkpt>
      <trkpt lat="51.644986001774669" lon="-10.038217026740313">
        <ele>76.079999999999998</ele>
        <time>2026-06-28T12:21:27Z</time>
      </trkpt>
      <trkpt lat="51.644819034263492" lon="-10.038263965398073">
        <ele>76.079999999999998</ele>
        <time>2026-06-28T12:21:59Z</time>
      </trkpt>
      <trkpt lat="51.644794978201389" lon="-10.038312999531627">
        <ele>76.079999999999998</ele>
        <time>2026-06-28T12:22:00Z</time>
      </trkpt>
      <trkpt lat="51.644765976816416" lon="-10.038369996473193">
        <ele>76.079999999999998</ele>
        <time>2026-06-28T12:22:01Z</time>
      </trkpt>
      <trkpt lat="51.64473102428019" lon="-10.038439985364676">
        <ele>76.079999999999998</ele>
        <time>2026-06-28T12:22:02Z</time>
      </trkpt>
      <trkpt lat="51.644702022895217" lon="-10.038559008389711">
        <ele>76.079999999999998</ele>
        <time>2026-06-28T12:22:03Z</time>
      </trkpt>
      <trkpt lat="51.644690036773682" lon="-10.038657998666167">
        <ele>75.599999999999994</ele>
        <time>2026-06-28T12:22:04Z</time>
      </trkpt>
      <trkpt lat="51.644454002380371" lon="-10.040074959397316">
        <ele>71.760000000000005</ele>
        <time>2026-06-28T12:22:14Z</time>
      </trkpt>
      <trkpt lat="51.644234983250499" lon="-10.041085984557867">
        <ele>68.870000000000005</ele>
        <time>2026-06-28T12:22:20Z</time>
      </trkpt>
      <trkpt lat="51.644184021279216" lon="-10.041252030059695">
        <ele>68.390000000000001</ele>
        <time>2026-06-28T12:22:21Z</time>
      </trkpt>
      <trkpt lat="51.643831981346011" lon="-10.042032971978188">
        <ele>66.469999999999999</ele>
        <time>2026-06-28T12:22:27Z</time>
      </trkpt>
      <trkpt lat="51.643800968304276" lon="-10.042180996388197">
        <ele>65.989999999999995</ele>
        <time>2026-06-28T12:22:28Z</time>
      </trkpt>
      <trkpt lat="51.643776996061206" lon="-10.042321979999542">
        <ele>65.510000000000005</ele>
        <time>2026-06-28T12:22:29Z</time>
      </trkpt>
      <trkpt lat="51.643757969141006" lon="-10.042453994974494">
        <ele>65.030000000000001</ele>
        <time>2026-06-28T12:22:30Z</time>
      </trkpt>
      <trkpt lat="51.643740031868219" lon="-10.042580980807543">
        <ele>64.549999999999997</ele>
        <time>2026-06-28T12:22:31Z</time>
      </trkpt>
      <trkpt lat="51.643727961927652" lon="-10.042730011045933">
        <ele>64.069999999999993</ele>
        <time>2026-06-28T12:22:32Z</time>
      </trkpt>
      <trkpt lat="51.643746988847852" lon="-10.043006027117372">
        <ele>63.579999999999998</ele>
        <time>2026-06-28T12:22:34Z</time>
      </trkpt>
      <trkpt lat="51.643737014383078" lon="-10.04308900795877">
        <ele>63.579999999999998</ele>
        <time>2026-06-28T12:22:35Z</time>
      </trkpt>
      <trkpt lat="51.643715975806117" lon="-10.043213982135057">
        <ele>62.619999999999997</ele>
        <time>2026-06-28T12:22:36Z</time>
      </trkpt>
      <trkpt lat="51.643661996349692" lon="-10.043310038745403">
        <ele>62.140000000000001</ele>
        <time>2026-06-28T12:22:37Z</time>
      </trkpt>
      <trkpt lat="51.643612962216139" lon="-10.043396959081292">
        <ele>61.659999999999997</ele>
        <time>2026-06-28T12:22:38Z</time>
      </trkpt>
      <trkpt lat="51.643574992194772" lon="-10.043464014306664">
        <ele>61.18</ele>
        <time>2026-06-28T12:22:39Z</time>
      </trkpt>
      <trkpt lat="51.643551019951701" lon="-10.043508019298315">
        <ele>60.219999999999999</ele>
        <time>2026-06-28T12:22:40Z</time>
      </trkpt>
      <trkpt lat="51.643536016345024" lon="-10.043534003198147">
        <ele>60.219999999999999</ele>
        <time>2026-06-28T12:22:41Z</time>
      </trkpt>
      <trkpt lat="51.643527969717979" lon="-10.043548000976443">
        <ele>59.740000000000002</ele>
        <time>2026-06-28T12:22:46Z</time>
      </trkpt>
      <trkpt lat="51.643515983596444" lon="-10.043569039553404">
        <ele>59.740000000000002</ele>
        <time>2026-06-28T12:22:47Z</time>
      </trkpt>
      <trkpt lat="51.643493017181754" lon="-10.043730977922678">
        <ele>59.740000000000002</ele>
        <time>2026-06-28T12:22:48Z</time>
      </trkpt>
      <trkpt lat="51.643519001081586" lon="-10.043753022328019">
        <ele>59.259999999999998</ele>
        <time>2026-06-28T12:22:49Z</time>
      </trkpt>
      <trkpt lat="51.643565017729998" lon="-10.043790992349386">
        <ele>59.259999999999998</ele>
        <time>2026-06-28T12:22:50Z</time>
      </trkpt>
      <trkpt lat="51.643626037985086" lon="-10.04384103231132">
        <ele>58.780000000000001</ele>
        <time>2026-06-28T12:22:51Z</time>
      </trkpt>
      <trkpt lat="51.643699966371059" lon="-10.043901968747377">
        <ele>58.780000000000001</ele>
        <time>2026-06-28T12:22:52Z</time>
      </trkpt>
      <trkpt lat="51.644099028781056" lon="-10.044136997312307">
        <ele>57.340000000000003</ele>
        <time>2026-06-28T12:22:56Z</time>
      </trkpt>
      <trkpt lat="51.64511701092124" lon="-10.044393986463547">
        <ele>56.369999999999997</ele>
        <time>2026-06-28T12:23:04Z</time>
      </trkpt>
      <trkpt lat="51.645233016461134" lon="-10.044415025040507">
        <ele>55.890000000000001</ele>
        <time>2026-06-28T12:23:05Z</time>
      </trkpt>
      <trkpt lat="51.645331000909209" lon="-10.044503035023808">
        <ele>54.93</ele>
        <time>2026-06-28T12:23:06Z</time>
      </trkpt>
      <trkpt lat="51.645412975922227" lon="-10.044623985886574">
        <ele>54.450000000000003</ele>
        <time>2026-06-28T12:23:07Z</time>
      </trkpt>
      <trkpt lat="51.64548397064209" lon="-10.044774021953344">
        <ele>53.969999999999999</ele>
        <time>2026-06-28T12:23:08Z</time>
      </trkpt>
      <trkpt lat="51.645558988675475" lon="-10.044934032484889">
        <ele>53.490000000000002</ele>
        <time>2026-06-28T12:23:09Z</time>
      </trkpt>
      <trkpt lat="51.64567600004375" lon="-10.045311972498894">
        <ele>53.009999999999998</ele>
        <time>2026-06-28T12:23:11Z</time>
      </trkpt>
      <trkpt lat="51.645729979500175" lon="-10.045492015779018">
        <ele>53.009999999999998</ele>
        <time>2026-06-28T12:23:12Z</time>
      </trkpt>
      <trkpt lat="51.645770967006683" lon="-10.045691002160311">
        <ele>53.009999999999998</ele>
        <time>2026-06-28T12:23:13Z</time>
      </trkpt>
      <trkpt lat="51.645788988098502" lon="-10.045899040997028">
        <ele>52.530000000000001</ele>
        <time>2026-06-28T12:23:14Z</time>
      </trkpt>
      <trkpt lat="51.645808015018702" lon="-10.046115964651108">
        <ele>52.049999999999997</ele>
        <time>2026-06-28T12:23:15Z</time>
      </trkpt>
      <trkpt lat="51.645900970324874" lon="-10.046938983723521">
        <ele>48.68</ele>
        <time>2026-06-28T12:23:19Z</time>
      </trkpt>
      <trkpt lat="51.64595503360033" lon="-10.047107962891459">
        <ele>48.200000000000003</ele>
        <time>2026-06-28T12:23:20Z</time>
      </trkpt>
      <trkpt lat="51.646067015826702" lon="-10.047452040016651">
        <ele>47.719999999999999</ele>
        <time>2026-06-28T12:23:22Z</time>
      </trkpt>
      <trkpt lat="51.646128036081791" lon="-10.047640968114138">
        <ele>47.719999999999999</ele>
        <time>2026-06-28T12:23:23Z</time>
      </trkpt>
      <trkpt lat="51.646128036081791" lon="-10.047813970595598">
        <ele>47.719999999999999</ele>
        <time>2026-06-28T12:23:24Z</time>
      </trkpt>
      <trkpt lat="51.646128036081791" lon="-10.0480090174824">
        <ele>48.200000000000003</ele>
        <time>2026-06-28T12:23:25Z</time>
      </trkpt>
      <trkpt lat="51.646128036081791" lon="-10.048204986378551">
        <ele>49.159999999999997</ele>
        <time>2026-06-28T12:23:26Z</time>
      </trkpt>
      <trkpt lat="51.64614899083972" lon="-10.048395004123449">
        <ele>49.649999999999999</ele>
        <time>2026-06-28T12:23:27Z</time>
      </trkpt>
      <trkpt lat="51.646180003881454" lon="-10.048593990504742">
        <ele>50.609999999999999</ele>
        <time>2026-06-28T12:23:28Z</time>
      </trkpt>
      <trkpt lat="51.646239012479782" lon="-10.048962039873004">
        <ele>53.009999999999998</ele>
        <time>2026-06-28T12:23:30Z</time>
      </trkpt>
      <trkpt lat="51.646281005814672" lon="-10.049116015434265">
        <ele>54.450000000000003</ele>
        <time>2026-06-28T12:23:31Z</time>
      </trkpt>
      <trkpt lat="51.64634102024138" lon="-10.049254987388849">
        <ele>55.409999999999997</ele>
        <time>2026-06-28T12:23:32Z</time>
      </trkpt>
      <trkpt lat="51.646418971940875" lon="-10.049383984878659">
        <ele>55.890000000000001</ele>
        <time>2026-06-28T12:23:33Z</time>
      </trkpt>
      <trkpt lat="51.64649298414588" lon="-10.049508037045598">
        <ele>56.369999999999997</ele>
        <time>2026-06-28T12:23:34Z</time>
      </trkpt>
      <trkpt lat="51.646558027714491" lon="-10.049644997343421">
        <ele>56.859999999999999</ele>
        <time>2026-06-28T12:23:35Z</time>
      </trkpt>
      <trkpt lat="51.646562973037362" lon="-10.049810037016869">
        <ele>57.340000000000003</ele>
        <time>2026-06-28T12:23:36Z</time>
      </trkpt>
      <trkpt lat="51.646568002179265" lon="-10.049971975386143">
        <ele>58.299999999999997</ele>
        <time>2026-06-28T12:23:37Z</time>
      </trkpt>
      <trkpt lat="51.646572025492787" lon="-10.050129974260926">
        <ele>59.259999999999998</ele>
        <time>2026-06-28T12:23:38Z</time>
      </trkpt>
      <trkpt lat="51.646575964987278" lon="-10.050274981185794">
        <ele>59.740000000000002</ele>
        <time>2026-06-28T12:23:39Z</time>
      </trkpt>
      <trkpt lat="51.646588034927845" lon="-10.050392998382449">
        <ele>60.219999999999999</ele>
        <time>2026-06-28T12:23:40Z</time>
      </trkpt>
      <trkpt lat="51.646630028262734" lon="-10.050515960901976">
        <ele>60.700000000000003</ele>
        <time>2026-06-28T12:23:41Z</time>
      </trkpt>
      <trkpt lat="51.647129002958536" lon="-10.05219804123044">
        <ele>64.069999999999993</ele>
        <time>2026-06-28T12:23:52Z</time>
      </trkpt>
      <trkpt lat="51.647326983511448" lon="-10.05308099091053">
        <ele>62.619999999999997</ele>
        <time>2026-06-28T12:23:57Z</time>
      </trkpt>
      <trkpt lat="51.647357996553183" lon="-10.053216023370624">
        <ele>62.140000000000001</ele>
        <time>2026-06-28T12:23:58Z</time>
      </trkpt>
      <trkpt lat="51.647366965189576" lon="-10.053354995325208">
        <ele>61.18</ele>
        <time>2026-06-28T12:23:59Z</time>
      </trkpt>
      <trkpt lat="51.64735103957355" lon="-10.053541995584965">
        <ele>60.219999999999999</ele>
        <time>2026-06-28T12:24:00Z</time>
      </trkpt>
      <trkpt lat="51.647321032360196" lon="-10.053634028881788">
        <ele>59.740000000000002</ele>
        <time>2026-06-28T12:24:01Z</time>
      </trkpt>
      <trkpt lat="51.647274009883404" lon="-10.053774006664753">
        <ele>59.259999999999998</ele>
        <time>2026-06-28T12:24:02Z</time>
      </trkpt>
      <trkpt lat="51.646860027685761" lon="-10.054993992671371">
        <ele>52.530000000000001</ele>
        <time>2026-06-28T12:24:11Z</time>
      </trkpt>
      <trkpt lat="51.646858016029" lon="-10.055091977119446">
        <ele>51.57</ele>
        <time>2026-06-28T12:24:12Z</time>
      </trkpt>
      <trkpt lat="51.646858016029" lon="-10.055174035951495">
        <ele>51.090000000000003</ele>
        <time>2026-06-28T12:24:13Z</time>
      </trkpt>
      <trkpt lat="51.646905960515141" lon="-10.055233966559172">
        <ele>50.609999999999999</ele>
        <time>2026-06-28T12:24:14Z</time>
      </trkpt>
      <trkpt lat="51.646956000477076" lon="-10.055275959894061">
        <ele>49.649999999999999</ele>
        <time>2026-06-28T12:24:15Z</time>
      </trkpt>
      <trkpt lat="51.647021966055036" lon="-10.055304039269686">
        <ele>49.159999999999997</ele>
        <time>2026-06-28T12:24:16Z</time>
      </trkpt>
      <trkpt lat="51.647102013230324" lon="-10.055309990420938">
        <ele>48.68</ele>
        <time>2026-06-28T12:24:17Z</time>
      </trkpt>
      <trkpt lat="51.64803902618587" lon="-10.055372016504407">
        <ele>44.359999999999999</ele>
        <time>2026-06-28T12:24:25Z</time>
      </trkpt>
      <trkpt lat="51.649051979184151" lon="-10.055448962375522">
        <ele>37.630000000000003</ele>
        <time>2026-06-28T12:24:33Z</time>
      </trkpt>
      <trkpt lat="51.650029979646206" lon="-10.055306972935796">
        <ele>28.5</ele>
        <time>2026-06-28T12:24:40Z</time>
      </trkpt>
      <trkpt lat="51.650966992601752" lon="-10.054981000721455">
        <ele>25.129999999999999</ele>
        <time>2026-06-28T12:24:47Z</time>
      </trkpt>
      <trkpt lat="51.651038993149996" lon="-10.054978989064693">
        <ele>25.129999999999999</ele>
        <time>2026-06-28T12:24:48Z</time>
      </trkpt>
      <trkpt lat="51.651092972606421" lon="-10.055042020976543">
        <ele>25.609999999999999</ele>
        <time>2026-06-28T12:24:49Z</time>
      </trkpt>
      <trkpt lat="51.651148963719606" lon="-10.055107986554503">
        <ele>26.09</ele>
        <time>2026-06-28T12:24:50Z</time>
      </trkpt>
      <trkpt lat="51.651171008124948" lon="-10.055211000144482">
        <ele>26.09</ele>
        <time>2026-06-28T12:24:51Z</time>
      </trkpt>
      <trkpt lat="51.651193974539638" lon="-10.055324994027615">
        <ele>26.09</ele>
        <time>2026-06-28T12:24:52Z</time>
      </trkpt>
      <trkpt lat="51.651217024773359" lon="-10.055432030931115">
        <ele>26.09</ele>
        <time>2026-06-28T12:24:53Z</time>
      </trkpt>
      <trkpt lat="51.651238985359669" lon="-10.055537978187203">
        <ele>26.09</ele>
        <time>2026-06-28T12:24:54Z</time>
      </trkpt>
      <trkpt lat="51.651268992573023" lon="-10.055630011484027">
        <ele>25.129999999999999</ele>
        <time>2026-06-28T12:24:55Z</time>
      </trkpt>
      <trkpt lat="51.651343004778028" lon="-10.055669993162155">
        <ele>24.170000000000002</ele>
        <time>2026-06-28T12:24:56Z</time>
      </trkpt>
      <trkpt lat="51.651425985619426" lon="-10.055716009810567">
        <ele>22.73</ele>
        <time>2026-06-28T12:24:57Z</time>
      </trkpt>
      <trkpt lat="51.651511983945966" lon="-10.05576403811574">
        <ele>21.77</ele>
        <time>2026-06-28T12:24:58Z</time>
      </trkpt>
      <trkpt lat="51.651600999757648" lon="-10.055812988430262">
        <ele>20.809999999999999</ele>
        <time>2026-06-28T12:24:59Z</time>
      </trkpt>
      <trkpt lat="51.651685992255807" lon="-10.055859005078673">
        <ele>20.809999999999999</ele>
        <time>2026-06-28T12:25:00Z</time>
      </trkpt>
      <trkpt lat="51.65175799280405" lon="-10.055954977869987">
        <ele>21.289999999999999</ele>
        <time>2026-06-28T12:25:01Z</time>
      </trkpt>
      <trkpt lat="51.651823036372662" lon="-10.056056985631585">
        <ele>21.289999999999999</ele>
        <time>2026-06-28T12:25:02Z</time>
      </trkpt>
      <trkpt lat="51.651862012222409" lon="-10.056190006434917">
        <ele>21.289999999999999</ele>
        <time>2026-06-28T12:25:03Z</time>
      </trkpt>
      <trkpt lat="51.651896964758635" lon="-10.056307017803192">
        <ele>21.289999999999999</ele>
        <time>2026-06-28T12:25:04Z</time>
      </trkpt>
      <trkpt lat="51.651926971971989" lon="-10.056405002251267">
        <ele>20.809999999999999</ele>
        <time>2026-06-28T12:25:05Z</time>
      </trkpt>
      <trkpt lat="51.651973994448781" lon="-10.056480020284653">
        <ele>20.809999999999999</ele>
        <time>2026-06-28T12:25:06Z</time>
      </trkpt>
      <trkpt lat="51.652050018310547" lon="-10.056529976427555">
        <ele>20.32</ele>
        <time>2026-06-28T12:25:07Z</time>
      </trkpt>
      <trkpt lat="51.652141967788339" lon="-10.056589990854263">
        <ele>19.84</ele>
        <time>2026-06-28T12:25:08Z</time>
      </trkpt>
      <trkpt lat="51.652244981378317" lon="-10.056656962260604">
        <ele>19.84</ele>
        <time>2026-06-28T12:25:09Z</time>
      </trkpt>
      <trkpt lat="51.652355035766959" lon="-10.056728962808847">
        <ele>19.84</ele>
        <time>2026-06-28T12:25:10Z</time>
      </trkpt>
      <trkpt lat="51.652456037700176" lon="-10.056795012205839">
        <ele>20.32</ele>
        <time>2026-06-28T12:25:11Z</time>
      </trkpt>
      <trkpt lat="51.652513034641743" lon="-10.056873969733715">
        <ele>20.809999999999999</ele>
        <time>2026-06-28T12:25:12Z</time>
      </trkpt>
      <trkpt lat="51.652538012713194" lon="-10.056972038000822">
        <ele>21.289999999999999</ele>
        <time>2026-06-28T12:25:13Z</time>
      </trkpt>
      <trkpt lat="51.652565002441406" lon="-10.057081002742052">
        <ele>21.77</ele>
        <time>2026-06-28T12:25:14Z</time>
      </trkpt>
      <trkpt lat="51.652597021311522" lon="-10.05720698274672">
        <ele>22.25</ele>
        <time>2026-06-28T12:25:15Z</time>
      </trkpt>
      <trkpt lat="51.652630968019366" lon="-10.057345032691956">
        <ele>21.77</ele>
        <time>2026-06-28T12:25:16Z</time>
      </trkpt>
      <trkpt lat="51.652686037123203" lon="-10.057476041838527">
        <ele>21.77</ele>
        <time>2026-06-28T12:25:17Z</time>
      </trkpt>
      <trkpt lat="51.652761977165937" lon="-10.057588024064898">
        <ele>21.289999999999999</ele>
        <time>2026-06-28T12:25:18Z</time>
      </trkpt>
      <trkpt lat="51.652973033487797" lon="-10.057897986844182">
        <ele>19.84</ele>
        <time>2026-06-28T12:25:21Z</time>
      </trkpt>
      <trkpt lat="51.653059031814337" lon="-10.057907961308956">
        <ele>19.359999999999999</ele>
        <time>2026-06-28T12:25:22Z</time>
      </trkpt>
      <trkpt lat="51.653103958815336" lon="-10.05791399627924">
        <ele>18.879999999999999</ele>
        <time>2026-06-28T12:25:23Z</time>
      </trkpt>
      <trkpt lat="51.653140000998974" lon="-10.057918019592762">
        <ele>18.399999999999999</ele>
        <time>2026-06-28T12:25:24Z</time>
      </trkpt>
      <trkpt lat="51.653165984898806" lon="-10.057889018207788">
        <ele>17.920000000000002</ele>
        <time>2026-06-28T12:25:25Z</time>
      </trkpt>
      <trkpt lat="51.653204960748553" lon="-10.057835038751364">
        <ele>17.920000000000002</ele>
        <time>2026-06-28T12:25:26Z</time>
      </trkpt>
      <trkpt lat="51.653250977396965" lon="-10.057769995182753">
        <ele>17.920000000000002</ele>
        <time>2026-06-28T12:25:27Z</time>
      </trkpt>
      <trkpt lat="51.653304034844041" lon="-10.057694977149367">
        <ele>17.920000000000002</ele>
        <time>2026-06-28T12:25:28Z</time>
      </trkpt>
      <trkpt lat="51.653545014560223" lon="-10.057373028248549">
        <ele>16.48</ele>
        <time>2026-06-28T12:25:32Z</time>
      </trkpt>
      <trkpt lat="51.653616009280086" lon="-10.057308990508318">
        <ele>16</ele>
        <time>2026-06-28T12:25:33Z</time>
      </trkpt>
      <trkpt lat="51.653866041451693" lon="-10.057124001905322">
        <ele>14.08</ele>
        <time>2026-06-28T12:25:36Z</time>
      </trkpt>
      <trkpt lat="51.653957990929484" lon="-10.057067004963756">
        <ele>14.08</ele>
        <time>2026-06-28T12:25:37Z</time>
      </trkpt>
      <trkpt lat="51.654051030054688" lon="-10.05703398026526">
        <ele>14.08</ele>
        <time>2026-06-28T12:25:38Z</time>
      </trkpt>
      <trkpt lat="51.65413904003799" lon="-10.057024005800486">
        <ele>14.08</ele>
        <time>2026-06-28T12:25:39Z</time>
      </trkpt>
      <trkpt lat="51.654196036979556" lon="-10.057017970830202">
        <ele>15.039999999999999</ele>
        <time>2026-06-28T12:25:40Z</time>
      </trkpt>
      <trkpt lat="51.654267031699419" lon="-10.057079996913671">
        <ele>16</ele>
        <time>2026-06-28T12:25:41Z</time>
      </trkpt>
      <trkpt lat="51.654329979792237" lon="-10.057135988026857">
        <ele>16.48</ele>
        <time>2026-06-28T12:25:42Z</time>
      </trkpt>
      <trkpt lat="51.65439804084599" lon="-10.057196002453566">
        <ele>16.960000000000001</ele>
        <time>2026-06-28T12:25:43Z</time>
      </trkpt>
      <trkpt lat="51.65446400642395" lon="-10.057254005223513">
        <ele>17.920000000000002</ele>
        <time>2026-06-28T12:25:44Z</time>
      </trkpt>
      <trkpt lat="51.654527960345149" lon="-10.057311002165079">
        <ele>18.399999999999999</ele>
        <time>2026-06-28T12:25:45Z</time>
      </trkpt>
      <trkpt lat="51.654598033055663" lon="-10.057354001328349">
        <ele>18.879999999999999</ele>
        <time>2026-06-28T12:25:46Z</time>
      </trkpt>
      <trkpt lat="51.654669027775526" lon="-10.057380991056561">
        <ele>19.84</ele>
        <time>2026-06-28T12:25:47Z</time>
      </trkpt>
      <trkpt lat="51.654740022495389" lon="-10.057408986613154">
        <ele>20.32</ele>
        <time>2026-06-28T12:25:48Z</time>
      </trkpt>
      <trkpt lat="51.654812023043633" lon="-10.057436982169747">
        <ele>20.809999999999999</ele>
        <time>2026-06-28T12:25:49Z</time>
      </trkpt>
      <trkpt lat="51.65487002581358" lon="-10.057489033788443">
        <ele>20.809999999999999</ele>
        <time>2026-06-28T12:25:50Z</time>
      </trkpt>
      <trkpt lat="51.654919981956482" lon="-10.057559022679925">
        <ele>20.809999999999999</ele>
        <time>2026-06-28T12:25:51Z</time>
      </trkpt>
      <trkpt lat="51.654949989169836" lon="-10.057629011571407">
        <ele>20.809999999999999</ele>
        <time>2026-06-28T12:25:52Z</time>
      </trkpt>
      <trkpt lat="51.6549570299685" lon="-10.057734036818147">
        <ele>20.809999999999999</ele>
        <time>2026-06-28T12:25:53Z</time>
      </trkpt>
      <trkpt lat="51.654964992776513" lon="-10.057849958539009">
        <ele>20.809999999999999</ele>
        <time>2026-06-28T12:25:54Z</time>
      </trkpt>
      <trkpt lat="51.654943032190204" lon="-10.057944003492594">
        <ele>20.32</ele>
        <time>2026-06-28T12:25:55Z</time>
      </trkpt>
      <trkpt lat="51.654887041077018" lon="-10.05804299376905">
        <ele>19.84</ele>
        <time>2026-06-28T12:25:56Z</time>
      </trkpt>
      <trkpt lat="51.654826020821929" lon="-10.05815195851028">
        <ele>19.359999999999999</ele>
        <time>2026-06-28T12:25:57Z</time>
      </trkpt>
      <trkpt lat="51.654751002788544" lon="-10.058265030384064">
        <ele>18.879999999999999</ele>
        <time>2026-06-28T12:25:58Z</time>
      </trkpt>
      <trkpt lat="51.65448303334415" lon="-10.058534005656838">
        <ele>17.440000000000001</ele>
        <time>2026-06-28T12:26:01Z</time>
      </trkpt>
      <trkpt lat="51.654323022812605" lon="-10.058694016188383">
        <ele>16.960000000000001</ele>
        <time>2026-06-28T12:26:03Z</time>
      </trkpt>
      <trkpt lat="51.6542680375278" lon="-10.058802980929613">
        <ele>16.960000000000001</ele>
        <time>2026-06-28T12:26:04Z</time>
      </trkpt>
      <trkpt lat="51.654220009222627" lon="-10.05892300978303">
        <ele>17.440000000000001</ele>
        <time>2026-06-28T12:26:05Z</time>
      </trkpt>
      <trkpt lat="51.654190002009273" lon="-10.05905301310122">
        <ele>17.920000000000002</ele>
        <time>2026-06-28T12:26:06Z</time>
      </trkpt>
      <trkpt lat="51.65418597869575" lon="-10.059195002540946">
        <ele>18.399999999999999</ele>
        <time>2026-06-28T12:26:07Z</time>
      </trkpt>
      <trkpt lat="51.654210034757853" lon="-10.059346966445446">
        <ele>18.399999999999999</ele>
        <time>2026-06-28T12:26:08Z</time>
      </trkpt>
      <trkpt lat="51.654235012829304" lon="-10.059513011947274">
        <ele>18.399999999999999</ele>
        <time>2026-06-28T12:26:09Z</time>
      </trkpt>
      <trkpt lat="51.654266025871038" lon="-10.059693977236748">
        <ele>17.920000000000002</ele>
        <time>2026-06-28T12:26:10Z</time>
      </trkpt>
      <trkpt lat="51.654323022812605" lon="-10.059855999425054">
        <ele>17.920000000000002</ele>
        <time>2026-06-28T12:26:11Z</time>
      </trkpt>
      <trkpt lat="51.654373984783888" lon="-10.060003018006682">
        <ele>17.920000000000002</ele>
        <time>2026-06-28T12:26:12Z</time>
      </trkpt>
      <trkpt lat="51.654411032795906" lon="-10.06010795943439">
        <ele>17.920000000000002</ele>
        <time>2026-06-28T12:26:13Z</time>
      </trkpt>
      <trkpt lat="51.65448697283864" lon="-10.060208961367607">
        <ele>17.920000000000002</ele>
        <time>2026-06-28T12:26:14Z</time>
      </trkpt>
      <trkpt lat="51.654540030285716" lon="-10.060279034078121">
        <ele>17.920000000000002</ele>
        <time>2026-06-28T12:26:15Z</time>
      </trkpt>
      <trkpt lat="51.654610019177198" lon="-10.060296971350908">
        <ele>18.399999999999999</ele>
        <time>2026-06-28T12:26:16Z</time>
      </trkpt>
      <trkpt lat="51.6546790022403" lon="-10.060268975794315">
        <ele>18.879999999999999</ele>
        <time>2026-06-28T12:26:17Z</time>
      </trkpt>
      <trkpt lat="51.654751002788544" lon="-10.060204016044736">
        <ele>19.359999999999999</ele>
        <time>2026-06-28T12:26:18Z</time>
      </trkpt>
      <trkpt lat="51.654816968366504" lon="-10.060088010504842">
        <ele>19.84</ele>
        <time>2026-06-28T12:26:19Z</time>
      </trkpt>
      <trkpt lat="51.654884023591876" lon="-10.059968987479806">
        <ele>20.32</ele>
        <time>2026-06-28T12:26:20Z</time>
      </trkpt>
      <trkpt lat="51.654989970847964" lon="-10.059781987220049">
        <ele>21.77</ele>
        <time>2026-06-28T12:26:22Z</time>
      </trkpt>
      <trkpt lat="51.655041016638279" lon="-10.059735970571637">
        <ele>22.25</ele>
        <time>2026-06-28T12:26:23Z</time>
      </trkpt>
      <trkpt lat="51.655090972781181" lon="-10.059723984450102">
        <ele>22.25</ele>
        <time>2026-06-28T12:26:24Z</time>
      </trkpt>
      <trkpt lat="51.655133971944451" lon="-10.059781987220049">
        <ele>22.73</ele>
        <time>2026-06-28T12:26:25Z</time>
      </trkpt>
      <trkpt lat="51.655149981379509" lon="-10.059874020516872">
        <ele>23.210000000000001</ele>
        <time>2026-06-28T12:26:26Z</time>
      </trkpt>
      <trkpt lat="51.655125003308058" lon="-10.059963958337903">
        <ele>23.690000000000001</ele>
        <time>2026-06-28T12:26:27Z</time>
      </trkpt>
      <trkpt lat="51.655094996094704" lon="-10.060068983584642">
        <ele>24.170000000000002</ele>
        <time>2026-06-28T12:26:28Z</time>
      </trkpt>
      <trkpt lat="51.655039004981518" lon="-10.060177026316524">
        <ele>24.170000000000002</ele>
        <time>2026-06-28T12:26:29Z</time>
      </trkpt>
      <trkpt lat="51.654660981148481" lon="-10.060898959636688">
        <ele>26.09</ele>
        <time>2026-06-28T12:26:35Z</time>
      </trkpt>
      <trkpt lat="51.654626028612256" lon="-10.060979006811976">
        <ele>26.09</ele>
        <time>2026-06-28T12:26:36Z</time>
      </trkpt>
      <trkpt lat="51.654626028612256" lon="-10.061079002916813">
        <ele>26.57</ele>
        <time>2026-06-28T12:26:37Z</time>
      </trkpt>
      <trkpt lat="51.654626028612256" lon="-10.061178999021649">
        <ele>26.57</ele>
        <time>2026-06-28T12:26:38Z</time>
      </trkpt>
      <trkpt lat="51.654669027775526" lon="-10.061249993741512">
        <ele>27.050000000000001</ele>
        <time>2026-06-28T12:26:39Z</time>
      </trkpt>
      <trkpt lat="51.65472099557519" lon="-10.061332974582911">
        <ele>27.530000000000001</ele>
        <time>2026-06-28T12:26:40Z</time>
      </trkpt>
      <trkpt lat="51.654776986688375" lon="-10.061422996222973">
        <ele>28.02</ele>
        <time>2026-06-28T12:26:41Z</time>
      </trkpt>
      <trkpt lat="51.65482803247869" lon="-10.06150396540761">
        <ele>28.98</ele>
        <time>2026-06-28T12:26:42Z</time>
      </trkpt>
      <trkpt lat="51.654854016378522" lon="-10.061602033674717">
        <ele>29.940000000000001</ele>
        <time>2026-06-28T12:26:43Z</time>
      </trkpt>
      <trkpt lat="51.654872037470341" lon="-10.061702029779553">
        <ele>30.420000000000002</ele>
        <time>2026-06-28T12:26:44Z</time>
      </trkpt>
      <trkpt lat="51.65487295947969" lon="-10.061810994520783">
        <ele>30.899999999999999</ele>
        <time>2026-06-28T12:26:45Z</time>
      </trkpt>
      <trkpt lat="51.654848987236619" lon="-10.06193202920258">
        <ele>31.379999999999999</ele>
        <time>2026-06-28T12:26:46Z</time>
      </trkpt>
      <trkpt lat="51.654795007780194" lon="-10.062034958973527">
        <ele>31.859999999999999</ele>
        <time>2026-06-28T12:26:47Z</time>
      </trkpt>
      <trkpt lat="51.654727030545473" lon="-10.062129003927112">
        <ele>31.859999999999999</ele>
        <time>2026-06-28T12:26:48Z</time>
      </trkpt>
      <trkpt lat="51.65465896949172" lon="-10.062221037223935">
        <ele>31.859999999999999</ele>
        <time>2026-06-28T12:26:49Z</time>
      </trkpt>
      <trkpt lat="51.654596021398902" lon="-10.062306029722095">
        <ele>31.379999999999999</ele>
        <time>2026-06-28T12:26:50Z</time>
      </trkpt>
      <trkpt lat="51.654540030285716" lon="-10.062381969764829">
        <ele>31.379999999999999</ele>
        <time>2026-06-28T12:26:51Z</time>
      </trkpt>
      <trkpt lat="51.654503988102078" lon="-10.062518008053303">
        <ele>30.420000000000002</ele>
        <time>2026-06-28T12:26:52Z</time>
      </trkpt>
      <trkpt lat="51.654469035565853" lon="-10.062648011371493">
        <ele>29.460000000000001</ele>
        <time>2026-06-28T12:26:53Z</time>
      </trkpt>
      <trkpt lat="51.654465012252331" lon="-10.062807016074657">
        <ele>28.98</ele>
        <time>2026-06-28T12:26:54Z</time>
      </trkpt>
      <trkpt lat="51.654481021687388" lon="-10.06296400912106">
        <ele>28.5</ele>
        <time>2026-06-28T12:26:55Z</time>
      </trkpt>
      <trkpt lat="51.654496025294065" lon="-10.063108010217547">
        <ele>28.02</ele>
        <time>2026-06-28T12:26:56Z</time>
      </trkpt>
      <trkpt lat="51.654509017243981" lon="-10.06324103102088">
        <ele>27.530000000000001</ele>
        <time>2026-06-28T12:26:57Z</time>
      </trkpt>
      <trkpt lat="51.654511028900743" lon="-10.063381008803844">
        <ele>27.050000000000001</ele>
        <time>2026-06-28T12:26:58Z</time>
      </trkpt>
      <trkpt lat="51.654488984495401" lon="-10.063530039042234">
        <ele>26.09</ele>
        <time>2026-06-28T12:26:59Z</time>
      </trkpt>
      <trkpt lat="51.654382031410933" lon="-10.064278040081263">
        <ele>21.289999999999999</ele>
        <time>2026-06-28T12:27:04Z</time>
      </trkpt>
      <trkpt lat="51.654369039461017" lon="-10.064380969852209">
        <ele>20.809999999999999</ele>
        <time>2026-06-28T12:27:05Z</time>
      </trkpt>
      <trkpt lat="51.654392005875707" lon="-10.064479960128665">
        <ele>20.32</ele>
        <time>2026-06-28T12:27:06Z</time>
      </trkpt>
      <trkpt lat="51.654418995603919" lon="-10.064595965668559">
        <ele>19.84</ele>
        <time>2026-06-28T12:27:07Z</time>
      </trkpt>
      <trkpt lat="51.654454031959176" lon="-10.064742984250188">
        <ele>19.84</ele>
        <time>2026-06-28T12:27:08Z</time>
      </trkpt>
      <trkpt lat="51.654517985880375" lon="-10.064870975911617">
        <ele>20.32</ele>
        <time>2026-06-28T12:27:09Z</time>
      </trkpt>
      <trkpt lat="51.654831971973181" lon="-10.065591987222433">
        <ele>22.25</ele>
        <time>2026-06-28T12:27:14Z</time>
      </trkpt>
      <trkpt lat="51.654858961701393" lon="-10.065719978883862">
        <ele>22.73</ele>
        <time>2026-06-28T12:27:15Z</time>
      </trkpt>
      <trkpt lat="51.654842030256987" lon="-10.065844031050801">
        <ele>22.73</ele>
        <time>2026-06-28T12:27:16Z</time>
      </trkpt>
      <trkpt lat="51.654815962538123" lon="-10.065997000783682">
        <ele>22.73</ele>
        <time>2026-06-28T12:27:17Z</time>
      </trkpt>
      <trkpt lat="51.65478796698153" lon="-10.066162962466478">
        <ele>22.25</ele>
        <time>2026-06-28T12:27:18Z</time>
      </trkpt>
      <trkpt lat="51.654758965596557" lon="-10.066328002139926">
        <ele>21.77</ele>
        <time>2026-06-28T12:27:19Z</time>
      </trkpt>
      <trkpt lat="51.654711021110415" lon="-10.066609969362617">
        <ele>20.32</ele>
        <time>2026-06-28T12:27:21Z</time>
      </trkpt>
      <trkpt lat="51.654711021110415" lon="-10.066799987107515">
        <ele>19.359999999999999</ele>
        <time>2026-06-28T12:27:22Z</time>
      </trkpt>
      <trkpt lat="51.654711021110415" lon="-10.066994028165936">
        <ele>17.920000000000002</ele>
        <time>2026-06-28T12:27:23Z</time>
      </trkpt>
      <trkpt lat="51.654752008616924" lon="-10.067212963476777">
        <ele>16.48</ele>
        <time>2026-06-28T12:27:24Z</time>
      </trkpt>
      <trkpt lat="51.654805988073349" lon="-10.067442040890455">
        <ele>15.039999999999999</ele>
        <time>2026-06-28T12:27:25Z</time>
      </trkpt>
      <trkpt lat="51.655178982764482" lon="-10.069423019886017">
        <ele>10.710000000000001</ele>
        <time>2026-06-28T12:27:33Z</time>
      </trkpt>
      <trkpt lat="51.655174037441611" lon="-10.06966601125896">
        <ele>10.23</ele>
        <time>2026-06-28T12:27:34Z</time>
      </trkpt>
      <trkpt lat="51.655154004693031" lon="-10.071136029437184">
        <ele>9.75</ele>
        <time>2026-06-28T12:27:41Z</time>
      </trkpt>
      <trkpt lat="51.655173031613231" lon="-10.071265026926994">
        <ele>9.75</ele>
        <time>2026-06-28T12:27:42Z</time>
      </trkpt>
      <trkpt lat="51.655203038826585" lon="-10.071357982233167">
        <ele>10.23</ele>
        <time>2026-06-28T12:27:43Z</time>
      </trkpt>
      <trkpt lat="51.655264981091022" lon="-10.071444986388087">
        <ele>10.710000000000001</ele>
        <time>2026-06-28T12:27:44Z</time>
      </trkpt>
      <trkpt lat="51.655330024659634" lon="-10.071489997208118">
        <ele>11.19</ele>
        <time>2026-06-28T12:27:45Z</time>
      </trkpt>
      <trkpt lat="51.655420968309045" lon="-10.071512963622808">
        <ele>12.15</ele>
        <time>2026-06-28T12:27:46Z</time>
      </trkpt>
      <trkpt lat="51.655548037961125" lon="-10.071544982492924">
        <ele>13.119999999999999</ele>
        <time>2026-06-28T12:27:47Z</time>
      </trkpt>
      <trkpt lat="51.655622972175479" lon="-10.071526039391756">
        <ele>14.56</ele>
        <time>2026-06-28T12:27:48Z</time>
      </trkpt>
      <trkpt lat="51.655734032392502" lon="-10.071497038006783">
        <ele>15.52</ele>
        <time>2026-06-28T12:27:49Z</time>
      </trkpt>
      <trkpt lat="51.655846014618874" lon="-10.071468036621809">
        <ele>16.960000000000001</ele>
        <time>2026-06-28T12:27:50Z</time>
      </trkpt>
      <trkpt lat="51.655952967703342" lon="-10.071440041065216">
        <ele>17.440000000000001</ele>
        <time>2026-06-28T12:27:51Z</time>
      </trkpt>
      <trkpt lat="51.656051035970449" lon="-10.071414979174733">
        <ele>18.399999999999999</ele>
        <time>2026-06-28T12:27:52Z</time>
      </trkpt>
      <trkpt lat="51.656142985448241" lon="-10.071408022195101">
        <ele>18.399999999999999</ele>
        <time>2026-06-28T12:27:53Z</time>
      </trkpt>
      <trkpt lat="51.656209034845233" lon="-10.071465019136667">
        <ele>18.879999999999999</ele>
        <time>2026-06-28T12:27:54Z</time>
      </trkpt>
      <trkpt lat="51.656276006251574" lon="-10.071523021906614">
        <ele>19.359999999999999</ele>
        <time>2026-06-28T12:27:55Z</time>
      </trkpt>
      <trkpt lat="51.656438028439879" lon="-10.07166400551796">
        <ele>18.879999999999999</ele>
        <time>2026-06-28T12:27:57Z</time>
      </trkpt>
      <trkpt lat="51.656530983746052" lon="-10.071694012731314">
        <ele>17.920000000000002</ele>
        <time>2026-06-28T12:27:58Z</time>
      </trkpt>
      <trkpt lat="51.656621005386114" lon="-10.071715973317623">
        <ele>17.440000000000001</ele>
        <time>2026-06-28T12:27:59Z</time>
      </trkpt>
      <trkpt lat="51.656727958470583" lon="-10.071656964719296">
        <ele>16.48</ele>
        <time>2026-06-28T12:28:00Z</time>
      </trkpt>
      <trkpt lat="51.656836001202464" lon="-10.071597034111619">
        <ele>15.52</ele>
        <time>2026-06-28T12:28:01Z</time>
      </trkpt>
      <trkpt lat="51.656946977600455" lon="-10.07153500802815">
        <ele>15.039999999999999</ele>
        <time>2026-06-28T12:28:02Z</time>
      </trkpt>
      <trkpt lat="51.657440001145005" lon="-10.071309031918645">
        <ele>12.630000000000001</ele>
        <time>2026-06-28T12:28:07Z</time>
      </trkpt>
      <trkpt lat="51.657539997249842" lon="-10.071309031918645">
        <ele>12.630000000000001</ele>
        <time>2026-06-28T12:28:08Z</time>
      </trkpt>
      <trkpt lat="51.657640999183059" lon="-10.071348007768393">
        <ele>12.15</ele>
        <time>2026-06-28T12:28:09Z</time>
      </trkpt>
      <trkpt lat="51.657752981409431" lon="-10.07140701636672">
        <ele>12.15</ele>
        <time>2026-06-28T12:28:10Z</time>
      </trkpt>
      <trkpt lat="51.657870998606086" lon="-10.071468036621809">
        <ele>12.15</ele>
        <time>2026-06-28T12:28:11Z</time>
      </trkpt>
      <trkpt lat="51.658983025699854" lon="-10.072296001017094">
        <ele>15.52</ele>
        <time>2026-06-28T12:28:20Z</time>
      </trkpt>
      <trkpt lat="51.659094002097845" lon="-10.072331037372351">
        <ele>16.48</ele>
        <time>2026-06-28T12:28:21Z</time>
      </trkpt>
      <trkpt lat="51.659200033172965" lon="-10.072301030158997">
        <ele>17.440000000000001</ele>
        <time>2026-06-28T12:28:22Z</time>
      </trkpt>
      <trkpt lat="51.659301035106182" lon="-10.072242021560669">
        <ele>18.399999999999999</ele>
        <time>2026-06-28T12:28:23Z</time>
      </trkpt>
      <trkpt lat="51.659404970705509" lon="-10.072174966335297">
        <ele>19.359999999999999</ele>
        <time>2026-06-28T12:28:24Z</time>
      </trkpt>
      <trkpt lat="51.659616027027369" lon="-10.072059966623783">
        <ele>21.77</ele>
        <time>2026-06-28T12:28:26Z</time>
      </trkpt>
      <trkpt lat="51.659716023132205" lon="-10.072059966623783">
        <ele>22.73</ele>
        <time>2026-06-28T12:28:27Z</time>
      </trkpt>
      <trkpt lat="51.659803027287126" lon="-10.072059966623783">
        <ele>24.170000000000002</ele>
        <time>2026-06-28T12:28:28Z</time>
      </trkpt>
      <trkpt lat="51.659877961501479" lon="-10.072124004364014">
        <ele>25.129999999999999</ele>
        <time>2026-06-28T12:28:29Z</time>
      </trkpt>
      <trkpt lat="51.659936970099807" lon="-10.072221988812089">
        <ele>26.57</ele>
        <time>2026-06-28T12:28:30Z</time>
      </trkpt>
      <trkpt lat="51.659997990354896" lon="-10.072322990745306">
        <ele>27.050000000000001</ele>
        <time>2026-06-28T12:28:31Z</time>
      </trkpt>
      <trkpt lat="51.660060016438365" lon="-10.072452994063497">
        <ele>27.530000000000001</ele>
        <time>2026-06-28T12:28:32Z</time>
      </trkpt>
      <trkpt lat="51.660119025036693" lon="-10.072611998766661">
        <ele>28.02</ele>
        <time>2026-06-28T12:28:33Z</time>
      </trkpt>
      <trkpt lat="51.660382971167564" lon="-10.073320018127561">
        <ele>30.899999999999999</ele>
        <time>2026-06-28T12:28:37Z</time>
      </trkpt>
      <trkpt lat="51.660454971715808" lon="-10.073494026437402">
        <ele>32.340000000000003</ele>
        <time>2026-06-28T12:28:38Z</time>
      </trkpt>
      <trkpt lat="51.661021001636982" lon="-10.074243033304811">
        <ele>40.990000000000002</ele>
        <time>2026-06-28T12:28:44Z</time>
      </trkpt>
      <trkpt lat="51.661105994135141" lon="-10.074290977790952">
        <ele>42.920000000000002</ele>
        <time>2026-06-28T12:28:45Z</time>
      </trkpt>
      <trkpt lat="51.661191992461681" lon="-10.074308998882771">
        <ele>44.359999999999999</ele>
        <time>2026-06-28T12:28:46Z</time>
      </trkpt>
      <trkpt lat="51.661277990788221" lon="-10.074295001104474">
        <ele>45.799999999999997</ele>
        <time>2026-06-28T12:28:47Z</time>
      </trkpt>
      <trkpt lat="51.661345968022943" lon="-10.074234986677766">
        <ele>46.759999999999998</ele>
        <time>2026-06-28T12:28:48Z</time>
      </trkpt>
      <trkpt lat="51.661405982449651" lon="-10.074162986129522">
        <ele>48.200000000000003</ele>
        <time>2026-06-28T12:28:49Z</time>
      </trkpt>
      <trkpt lat="51.661439007148147" lon="-10.074015967547894">
        <ele>49.649999999999999</ele>
        <time>2026-06-28T12:28:50Z</time>
      </trkpt>
      <trkpt lat="51.661473037675023" lon="-10.073861991986632">
        <ele>51.090000000000003</ele>
        <time>2026-06-28T12:28:51Z</time>
      </trkpt>
      <trkpt lat="51.6614880412817" lon="-10.073704998940229">
        <ele>52.530000000000001</ele>
        <time>2026-06-28T12:28:52Z</time>
      </trkpt>
      <trkpt lat="51.661477982997894" lon="-10.073530990630388">
        <ele>53.490000000000002</ele>
        <time>2026-06-28T12:28:53Z</time>
      </trkpt>
      <trkpt lat="51.661469014361501" lon="-10.073352959007025">
        <ele>54.93</ele>
        <time>2026-06-28T12:28:54Z</time>
      </trkpt>
      <trkpt lat="51.661449987441301" lon="-10.073009971529245">
        <ele>56.859999999999999</ele>
        <time>2026-06-28T12:28:56Z</time>
      </trkpt>
      <trkpt lat="51.661474965512753" lon="-10.072848033159971">
        <ele>57.82</ele>
        <time>2026-06-28T12:28:57Z</time>
      </trkpt>
      <trkpt lat="51.661501033231616" lon="-10.072694979608059">
        <ele>58.780000000000001</ele>
        <time>2026-06-28T12:28:58Z</time>
      </trkpt>
      <trkpt lat="51.661556018516421" lon="-10.072189969941974">
        <ele>58.780000000000001</ele>
        <time>2026-06-28T12:29:01Z</time>
      </trkpt>
      <trkpt lat="51.661556018516421" lon="-10.072018979117274">
        <ele>58.299999999999997</ele>
        <time>2026-06-28T12:29:02Z</time>
      </trkpt>
      <trkpt lat="51.661535985767841" lon="-10.071833990514278">
        <ele>57.82</ele>
        <time>2026-06-28T12:29:03Z</time>
      </trkpt>
      <trkpt lat="51.661497009918094" lon="-10.071653025224805">
        <ele>56.859999999999999</ele>
        <time>2026-06-28T12:29:04Z</time>
      </trkpt>
      <trkpt lat="51.661457028239965" lon="-10.071466024965048">
        <ele>55.409999999999997</ele>
        <time>2026-06-28T12:29:05Z</time>
      </trkpt>
      <trkpt lat="51.661416962742805" lon="-10.071281958371401">
        <ele>54.450000000000003</ele>
        <time>2026-06-28T12:29:06Z</time>
      </trkpt>
      <trkpt lat="51.661379998549819" lon="-10.071108033880591">
        <ele>53.009999999999998</ele>
        <time>2026-06-28T12:29:07Z</time>
      </trkpt>
      <trkpt lat="51.661362983286381" lon="-10.070924973115325">
        <ele>51.57</ele>
        <time>2026-06-28T12:29:08Z</time>
      </trkpt>
      <trkpt lat="51.661362983286381" lon="-10.070736967027187">
        <ele>50.130000000000003</ele>
        <time>2026-06-28T12:29:09Z</time>
      </trkpt>
      <trkpt lat="51.661384021863341" lon="-10.07054896093905">
        <ele>48.68</ele>
        <time>2026-06-28T12:29:10Z</time>
      </trkpt>
      <trkpt lat="51.661406988278031" lon="-10.070361960679293">
        <ele>47.240000000000002</ele>
        <time>2026-06-28T12:29:11Z</time>
      </trkpt>
      <trkpt lat="51.661459961906075" lon="-10.070188958197832">
        <ele>46.759999999999998</ele>
        <time>2026-06-28T12:29:12Z</time>
      </trkpt>
      <trkpt lat="51.661525005474687" lon="-10.070030959323049">
        <ele>46.280000000000001</ele>
        <time>2026-06-28T12:29:13Z</time>
      </trkpt>
      <trkpt lat="51.661608992144465" lon="-10.069891987368464">
        <ele>45.799999999999997</ele>
        <time>2026-06-28T12:29:14Z</time>
      </trkpt>
      <trkpt lat="51.661714017391205" lon="-10.069811018183827">
        <ele>45.799999999999997</ele>
        <time>2026-06-28T12:29:15Z</time>
      </trkpt>
      <trkpt lat="51.661830022931099" lon="-10.069736000150442">
        <ele>45.799999999999997</ele>
        <time>2026-06-28T12:29:16Z</time>
      </trkpt>
      <trkpt lat="51.661947034299374" lon="-10.069659976288676">
        <ele>45.799999999999997</ele>
        <time>2026-06-28T12:29:17Z</time>
      </trkpt>
      <trkpt lat="51.662058010697365" lon="-10.069588981568813">
        <ele>45.799999999999997</ele>
        <time>2026-06-28T12:29:18Z</time>
      </trkpt>
      <trkpt lat="51.66226202622056" lon="-10.069455960765481">
        <ele>46.280000000000001</ele>
        <time>2026-06-28T12:29:20Z</time>
      </trkpt>
      <trkpt lat="51.662350036203861" lon="-10.069398963823915">
        <ele>46.759999999999998</ele>
        <time>2026-06-28T12:29:21Z</time>
      </trkpt>
      <trkpt lat="51.662418013438582" lon="-10.069255968555808">
        <ele>46.759999999999998</ele>
        <time>2026-06-28T12:29:22Z</time>
      </trkpt>
      <trkpt lat="51.662492025643587" lon="-10.069098975509405">
        <ele>47.240000000000002</ele>
        <time>2026-06-28T12:29:23Z</time>
      </trkpt>
      <trkpt lat="51.662544999271631" lon="-10.068921027705073">
        <ele>48.200000000000003</ele>
        <time>2026-06-28T12:29:24Z</time>
      </trkpt>
      <trkpt lat="51.662586992606521" lon="-10.068708965554833">
        <ele>49.649999999999999</ele>
        <time>2026-06-28T12:29:25Z</time>
      </trkpt>
      <trkpt lat="51.662629991769791" lon="-10.068495981395245">
        <ele>51.090000000000003</ele>
        <time>2026-06-28T12:29:26Z</time>
      </trkpt>
      <trkpt lat="51.66267198510468" lon="-10.068281991407275">
        <ele>52.530000000000001</ele>
        <time>2026-06-28T12:29:27Z</time>
      </trkpt>
      <trkpt lat="51.662696963176131" lon="-10.068065989762545">
        <ele>54.450000000000003</ele>
        <time>2026-06-28T12:29:28Z</time>
      </trkpt>
      <trkpt lat="51.66273501701653" lon="-10.066967960447073">
        <ele>63.100000000000001</ele>
        <time>2026-06-28T12:29:33Z</time>
      </trkpt>
      <trkpt lat="51.662741973996162" lon="-10.066758999601007">
        <ele>65.030000000000001</ele>
        <time>2026-06-28T12:29:34Z</time>
      </trkpt>
      <trkpt lat="51.662755971774459" lon="-10.066376030445099">
        <ele>68.870000000000005</ele>
        <time>2026-06-28T12:29:36Z</time>
      </trkpt>
      <trkpt lat="51.662774998694658" lon="-10.066202022135258">
        <ele>70.790000000000006</ele>
        <time>2026-06-28T12:29:37Z</time>
      </trkpt>
      <trkpt lat="51.662801988422871" lon="-10.066028013825417">
        <ele>72.239999999999995</ele>
        <time>2026-06-28T12:29:38Z</time>
      </trkpt>
      <trkpt lat="51.66286401450634" lon="-10.065880995243788">
        <ele>73.200000000000003</ele>
        <time>2026-06-28T12:29:39Z</time>
      </trkpt>
      <trkpt lat="51.662930985912681" lon="-10.065721990540624">
        <ele>74.159999999999997</ele>
        <time>2026-06-28T12:29:40Z</time>
      </trkpt>
      <trkpt lat="51.663009021431208" lon="-10.065555023029447">
        <ele>74.159999999999997</ele>
        <time>2026-06-28T12:29:41Z</time>
      </trkpt>
      <trkpt lat="51.663472959771752" lon="-10.064643993973732">
        <ele>74.640000000000001</ele>
        <time>2026-06-28T12:29:46Z</time>
      </trkpt>
      <trkpt lat="51.663543032482266" lon="-10.064444001764059">
        <ele>75.599999999999994</ele>
        <time>2026-06-28T12:29:47Z</time>
      </trkpt>
      <trkpt lat="51.663672029972076" lon="-10.064075030386448">
        <ele>78</ele>
        <time>2026-06-28T12:29:49Z</time>
      </trkpt>
      <trkpt lat="51.663736989721656" lon="-10.063912002369761">
        <ele>79.450000000000003</ele>
        <time>2026-06-28T12:29:50Z</time>
      </trkpt>
      <trkpt lat="51.663833968341351" lon="-10.063794991001487">
        <ele>81.370000000000005</ele>
        <time>2026-06-28T12:29:51Z</time>
      </trkpt>
      <trkpt lat="51.663932036608458" lon="-10.063676973804832">
        <ele>82.329999999999998</ele>
        <time>2026-06-28T12:29:52Z</time>
      </trkpt>
      <trkpt lat="51.664028009399772" lon="-10.063561974093318">
        <ele>83.769999999999996</ele>
        <time>2026-06-28T12:29:53Z</time>
      </trkpt>
      <trkpt lat="51.664145020768046" lon="-10.063513023778796">
        <ele>85.209999999999994</ele>
        <time>2026-06-28T12:29:54Z</time>
      </trkpt>
      <trkpt lat="51.664254991337657" lon="-10.063481004908681">
        <ele>87.140000000000001</ele>
        <time>2026-06-28T12:29:55Z</time>
      </trkpt>
      <trkpt lat="51.664355993270874" lon="-10.063448986038566">
        <ele>88.579999999999998</ele>
        <time>2026-06-28T12:29:56Z</time>
      </trkpt>
      <trkpt lat="51.664442997425795" lon="-10.063389977440238">
        <ele>90.019999999999996</ele>
        <time>2026-06-28T12:29:57Z</time>
      </trkpt>
      <trkpt lat="51.664517009630799" lon="-10.063301967456937">
        <ele>91.459999999999994</ele>
        <time>2026-06-28T12:29:58Z</time>
      </trkpt>
      <trkpt lat="51.66458398103714" lon="-10.063191996887326">
        <ele>91.939999999999998</ele>
        <time>2026-06-28T12:29:59Z</time>
      </trkpt>
      <trkpt lat="51.66462798602879" lon="-10.063051013275981">
        <ele>91.939999999999998</ele>
        <time>2026-06-28T12:30:00Z</time>
      </trkpt>
      <trkpt lat="51.664674002677202" lon="-10.062902988865972">
        <ele>91.459999999999994</ele>
        <time>2026-06-28T12:30:01Z</time>
      </trkpt>
      <trkpt lat="51.664767963811755" lon="-10.062601994723082">
        <ele>89.060000000000002</ele>
        <time>2026-06-28T12:30:03Z</time>
      </trkpt>
      <trkpt lat="51.664824038743973" lon="-10.062495963647962">
        <ele>87.620000000000005</ele>
        <time>2026-06-28T12:30:04Z</time>
      </trkpt>
      <trkpt lat="51.664907019585371" lon="-10.062451958656311">
        <ele>86.180000000000007</ele>
        <time>2026-06-28T12:30:05Z</time>
      </trkpt>
      <trkpt lat="51.664994023740292" lon="-10.06240501999855">
        <ele>84.730000000000004</ele>
        <time>2026-06-28T12:30:06Z</time>
      </trkpt>
      <trkpt lat="51.665083961561322" lon="-10.062351962551475">
        <ele>83.290000000000006</ele>
        <time>2026-06-28T12:30:07Z</time>
      </trkpt>
      <trkpt lat="51.66518303565681" lon="-10.062253978103399">
        <ele>81.370000000000005</ele>
        <time>2026-06-28T12:30:08Z</time>
      </trkpt>
      <trkpt lat="51.665237015113235" lon="-10.062133027240634">
        <ele>79.930000000000007</ele>
        <time>2026-06-28T12:30:09Z</time>
      </trkpt>
      <trkpt lat="51.665302980691195" lon="-10.061985002830625">
        <ele>77.519999999999996</ele>
        <time>2026-06-28T12:30:10Z</time>
      </trkpt>
      <trkpt lat="51.665371041744947" lon="-10.061835972592235">
        <ele>75.599999999999994</ele>
        <time>2026-06-28T12:30:11Z</time>
      </trkpt>
      <trkpt lat="51.665546977892518" lon="-10.061445040628314">
        <ele>70.310000000000002</ele>
        <time>2026-06-28T12:30:14Z</time>
      </trkpt>
      <trkpt lat="51.665607998147607" lon="-10.06139500066638">
        <ele>68.870000000000005</ele>
        <time>2026-06-28T12:30:15Z</time>
      </trkpt>
      <trkpt lat="51.665687039494514" lon="-10.06139500066638">
        <ele>66.950000000000003</ele>
        <time>2026-06-28T12:30:16Z</time>
      </trkpt>
      <trkpt lat="51.665753005072474" lon="-10.061461972072721">
        <ele>65.510000000000005</ele>
        <time>2026-06-28T12:30:17Z</time>
      </trkpt>
      <trkpt lat="51.665821988135576" lon="-10.06154403090477">
        <ele>64.069999999999993</ele>
        <time>2026-06-28T12:30:18Z</time>
      </trkpt>
      <trkpt lat="51.665901029482484" lon="-10.061638997867703">
        <ele>62.619999999999997</ele>
        <time>2026-06-28T12:30:19Z</time>
      </trkpt>
      <trkpt lat="51.665988033637404" lon="-10.061743017286062">
        <ele>61.18</ele>
        <time>2026-06-28T12:30:20Z</time>
      </trkpt>
      <trkpt lat="51.666091969236732" lon="-10.06180303171277">
        <ele>59.740000000000002</ele>
        <time>2026-06-28T12:30:21Z</time>
      </trkpt>
      <trkpt lat="51.666206968948245" lon="-10.061836978420615">
        <ele>58.299999999999997</ele>
        <time>2026-06-28T12:30:22Z</time>
      </trkpt>
      <trkpt lat="51.666320962831378" lon="-10.061870003119111">
        <ele>56.859999999999999</ele>
        <time>2026-06-28T12:30:23Z</time>
      </trkpt>
      <trkpt lat="51.66643101722002" lon="-10.061865979805589">
        <ele>55.409999999999997</ele>
        <time>2026-06-28T12:30:24Z</time>
      </trkpt>
      <trkpt lat="51.666526990011334" lon="-10.061804037541151">
        <ele>53.969999999999999</ele>
        <time>2026-06-28T12:30:25Z</time>
      </trkpt>
      <trkpt lat="51.666593039408326" lon="-10.061704963445663">
        <ele>53.009999999999998</ele>
        <time>2026-06-28T12:30:26Z</time>
      </trkpt>
      <trkpt lat="51.666660010814667" lon="-10.061604967340827">
        <ele>52.049999999999997</ele>
        <time>2026-06-28T12:30:27Z</time>
      </trkpt>
      <trkpt lat="51.66673201136291" lon="-10.061496002599597">
        <ele>51.57</ele>
        <time>2026-06-28T12:30:28Z</time>
      </trkpt>
      <trkpt lat="51.666808035224676" lon="-10.061382008716464">
        <ele>51.57</ele>
        <time>2026-06-28T12:30:29Z</time>
      </trkpt>
      <trkpt lat="51.666894033551216" lon="-10.061274971812963">
        <ele>51.57</ele>
        <time>2026-06-28T12:30:30Z</time>
      </trkpt>
      <trkpt lat="51.667759967967868" lon="-10.060550021007657">
        <ele>45.799999999999997</ele>
        <time>2026-06-28T12:30:40Z</time>
      </trkpt>
      <trkpt lat="51.667821994051337" lon="-10.060498975217342">
        <ele>45.32</ele>
        <time>2026-06-28T12:30:41Z</time>
      </trkpt>
      <trkpt lat="51.66787002235651" lon="-10.060459999367595">
        <ele>45.32</ele>
        <time>2026-06-28T12:30:42Z</time>
      </trkpt>
      <trkpt lat="51.667907992377877" lon="-10.060429992154241">
        <ele>44.840000000000003</ele>
        <time>2026-06-28T12:30:43Z</time>
      </trkpt>
      <trkpt lat="51.667927019298077" lon="-10.060367966070771">
        <ele>44.840000000000003</ele>
        <time>2026-06-28T12:30:44Z</time>
      </trkpt>
      <trkpt lat="51.667954009026289" lon="-10.060280039906502">
        <ele>44.840000000000003</ele>
        <time>2026-06-28T12:30:45Z</time>
      </trkpt>
      <trkpt lat="51.668029027059674" lon="-10.060035036876798">
        <ele>43.880000000000003</ele>
        <time>2026-06-28T12:30:47Z</time>
      </trkpt>
      <trkpt lat="51.668074959889054" lon="-10.059885000810027">
        <ele>43.399999999999999</ele>
        <time>2026-06-28T12:30:48Z</time>
      </trkpt>
      <trkpt lat="51.668103961274028" lon="-10.05971803329885">
        <ele>42.439999999999998</ele>
        <time>2026-06-28T12:30:49Z</time>
      </trkpt>
      <trkpt lat="51.668144026771188" lon="-10.05920497700572">
        <ele>40.990000000000002</ele>
        <time>2026-06-28T12:30:53Z</time>
      </trkpt>
      <trkpt lat="51.668144026771188" lon="-10.059077991172671">
        <ele>39.549999999999997</ele>
        <time>2026-06-28T12:31:00Z</time>
      </trkpt>
      <trkpt lat="51.668144026771188" lon="-10.059077991172671">
        <ele>38.590000000000003</ele>
        <time>2026-06-28T12:31:43Z</time>
      </trkpt>
      <trkpt lat="51.66812801733613" lon="-10.059014037251472">
        <ele>38.590000000000003</ele>
        <time>2026-06-28T12:31:59Z</time>
      </trkpt>
      <trkpt lat="51.668003965169191" lon="-10.058509027585387">
        <ele>39.07</ele>
        <time>2026-06-28T12:32:04Z</time>
      </trkpt>
      <trkpt lat="51.667969012632966" lon="-10.05836796015501">
        <ele>39.07</ele>
        <time>2026-06-28T12:32:05Z</time>
      </trkpt>
      <trkpt lat="51.6678929887712" lon="-10.058055985718966">
        <ele>37.149999999999999</ele>
        <time>2026-06-28T12:32:07Z</time>
      </trkpt>
      <trkpt lat="51.667833980172873" lon="-10.057875020429492">
        <ele>35.710000000000001</ele>
        <time>2026-06-28T12:32:08Z</time>
      </trkpt>
      <trkpt lat="51.667759967967868" lon="-10.057715009897947">
        <ele>34.259999999999998</ele>
        <time>2026-06-28T12:32:09Z</time>
      </trkpt>
      <trkpt lat="51.667627030983567" lon="-10.057429019361734">
        <ele>31.859999999999999</ele>
        <time>2026-06-28T12:32:11Z</time>
      </trkpt>
      <trkpt lat="51.667587971314788" lon="-10.057282000780106">
        <ele>30.420000000000002</ele>
        <time>2026-06-28T12:32:12Z</time>
      </trkpt>
      <trkpt lat="51.667593000456691" lon="-10.05709801800549">
        <ele>29.460000000000001</ele>
        <time>2026-06-28T12:32:13Z</time>
      </trkpt>
      <trkpt lat="51.667599035426974" lon="-10.056897019967437">
        <ele>28.98</ele>
        <time>2026-06-28T12:32:14Z</time>
      </trkpt>
      <trkpt lat="51.667604986578226" lon="-10.056693004444242">
        <ele>28.5</ele>
        <time>2026-06-28T12:32:15Z</time>
      </trkpt>
      <trkpt lat="51.6676339879632" lon="-10.056509021669626">
        <ele>28.02</ele>
        <time>2026-06-28T12:32:16Z</time>
      </trkpt>
      <trkpt lat="51.667680004611611" lon="-10.056338030844927">
        <ele>27.050000000000001</ele>
        <time>2026-06-28T12:32:17Z</time>
      </trkpt>
      <trkpt lat="51.667747981846333" lon="-10.056179026141763">
        <ele>26.09</ele>
        <time>2026-06-28T12:32:18Z</time>
      </trkpt>
      <trkpt lat="51.667829034850001" lon="-10.056017003953457">
        <ele>25.609999999999999</ele>
        <time>2026-06-28T12:32:19Z</time>
      </trkpt>
      <trkpt lat="51.668157018721104" lon="-10.05533798597753">
        <ele>20.809999999999999</ele>
        <time>2026-06-28T12:32:23Z</time>
      </trkpt>
      <trkpt lat="51.668204041197896" lon="-10.05516598932445">
        <ele>19.84</ele>
        <time>2026-06-28T12:32:24Z</time>
      </trkpt>
      <trkpt lat="51.668255003169179" lon="-10.054979994893074">
        <ele>20.32</ele>
        <time>2026-06-28T12:32:25Z</time>
      </trkpt>
      <trkpt lat="51.668308982625604" lon="-10.054781008511782">
        <ele>20.32</ele>
        <time>2026-06-28T12:32:26Z</time>
      </trkpt>
      <trkpt lat="51.66836597956717" lon="-10.054572969675064">
        <ele>20.809999999999999</ele>
        <time>2026-06-28T12:32:27Z</time>
      </trkpt>
      <trkpt lat="51.668421970680356" lon="-10.05436803214252">
        <ele>21.289999999999999</ele>
        <time>2026-06-28T12:32:28Z</time>
      </trkpt>
      <trkpt lat="51.66847201064229" lon="-10.054164016619325">
        <ele>21.77</ele>
        <time>2026-06-28T12:32:29Z</time>
      </trkpt>
      <trkpt lat="51.668502017855644" lon="-10.05394097417593">
        <ele>22.25</ele>
        <time>2026-06-28T12:32:30Z</time>
      </trkpt>
      <trkpt lat="51.668676026165485" lon="-10.052648987621069">
        <ele>27.530000000000001</ele>
        <time>2026-06-28T12:32:36Z</time>
      </trkpt>
      <trkpt lat="51.668780967593193" lon="-10.051355995237827">
        <ele>36.670000000000002</ele>
        <time>2026-06-28T12:32:44Z</time>
      </trkpt>
      <trkpt lat="51.66879303753376" lon="-10.051200008019805">
        <ele>40.990000000000002</ele>
        <time>2026-06-28T12:32:51Z</time>
      </trkpt>
      <trkpt lat="51.66879303753376" lon="-10.051200008019805">
        <ele>41.950000000000003</ele>
        <time>2026-06-28T12:33:33Z</time>
      </trkpt>
      <trkpt lat="51.668825978413224" lon="-10.050791976973414">
        <ele>41.950000000000003</ele>
        <time>2026-06-28T12:33:55Z</time>
      </trkpt>
      <trkpt lat="51.668850034475327" lon="-10.050661973655224">
        <ele>41.950000000000003</ele>
        <time>2026-06-28T12:33:56Z</time>
      </trkpt>
      <trkpt lat="51.668890016153455" lon="-10.050517972558737">
        <ele>41.950000000000003</ele>
        <time>2026-06-28T12:33:57Z</time>
      </trkpt>
      <trkpt lat="51.668933015316725" lon="-10.050360979512334">
        <ele>41.950000000000003</ele>
        <time>2026-06-28T12:33:58Z</time>
      </trkpt>
      <trkpt lat="51.668978026136756" lon="-10.05019904114306">
        <ele>42.439999999999998</ele>
        <time>2026-06-28T12:33:59Z</time>
      </trkpt>
      <trkpt lat="51.669023958966136" lon="-10.050035007297993">
        <ele>42.439999999999998</ele>
        <time>2026-06-28T12:34:00Z</time>
      </trkpt>
      <trkpt lat="51.669533997774124" lon="-10.047958977520466">
        <ele>41.950000000000003</ele>
        <time>2026-06-28T12:34:11Z</time>
      </trkpt>
      <trkpt lat="51.669617984443903" lon="-10.047582965344191">
        <ele>43.399999999999999</ele>
        <time>2026-06-28T12:34:13Z</time>
      </trkpt>
      <trkpt lat="51.66963298805058" lon="-10.047398982569575">
        <ele>44.359999999999999</ele>
        <time>2026-06-28T12:34:14Z</time>
      </trkpt>
      <trkpt lat="51.669642040506005" lon="-10.047211982309818">
        <ele>45.32</ele>
        <time>2026-06-28T12:34:15Z</time>
      </trkpt>
      <trkpt lat="51.669662995263934" lon="-10.046821972355247">
        <ele>47.240000000000002</ele>
        <time>2026-06-28T12:34:17Z</time>
      </trkpt>
      <trkpt lat="51.669688979163766" lon="-10.046628015115857">
        <ele>47.719999999999999</ele>
        <time>2026-06-28T12:34:18Z</time>
      </trkpt>
      <trkpt lat="51.67001998052001" lon="-10.044517032802105">
        <ele>53.490000000000002</ele>
        <time>2026-06-28T12:34:28Z</time>
      </trkpt>
      <trkpt lat="51.670165993273258" lon="-10.043362006545067">
        <ele>53.009999999999998</ele>
        <time>2026-06-28T12:34:33Z</time>
      </trkpt>
      <trkpt lat="51.670174039900303" lon="-10.043141981586814">
        <ele>53.490000000000002</ele>
        <time>2026-06-28T12:34:34Z</time>
      </trkpt>
      <trkpt lat="51.670185020193458" lon="-10.041542965918779">
        <ele>62.619999999999997</ele>
        <time>2026-06-28T12:34:42Z</time>
      </trkpt>
      <trkpt lat="51.670378977432847" lon="-10.039919978007674">
        <ele>70.790000000000006</ele>
        <time>2026-06-28T12:34:51Z</time>
      </trkpt>
      <trkpt lat="51.670423988252878" lon="-10.039729038253427">
        <ele>71.760000000000005</ele>
        <time>2026-06-28T12:34:52Z</time>
      </trkpt>
      <trkpt lat="51.670669997110963" lon="-10.0390500202775">
        <ele>76.560000000000002</ele>
        <time>2026-06-28T12:34:56Z</time>
      </trkpt>
      <trkpt lat="51.670746020972729" lon="-10.03890099003911">
        <ele>78</ele>
        <time>2026-06-28T12:34:57Z</time>
      </trkpt>
      <trkpt lat="51.670846017077565" lon="-10.038796970620751">
        <ele>78.969999999999999</ele>
        <time>2026-06-28T12:34:58Z</time>
      </trkpt>
      <trkpt lat="51.670945007354021" lon="-10.038693035021424">
        <ele>79.930000000000007</ele>
        <time>2026-06-28T12:34:59Z</time>
      </trkpt>
      <trkpt lat="51.671038968488574" lon="-10.038594966754317">
        <ele>80.890000000000001</ele>
        <time>2026-06-28T12:35:00Z</time>
      </trkpt>
      <trkpt lat="51.671204008162022" lon="-10.038422970101237">
        <ele>82.810000000000002</ele>
        <time>2026-06-28T12:35:02Z</time>
      </trkpt>
      <trkpt lat="51.671249018982053" lon="-10.038295984268188">
        <ele>84.25</ele>
        <time>2026-06-28T12:35:03Z</time>
      </trkpt>
      <trkpt lat="51.671294029802084" lon="-10.03814896568656">
        <ele>85.689999999999998</ele>
        <time>2026-06-28T12:35:04Z</time>
      </trkpt>
      <trkpt lat="51.671830974519253" lon="-10.036591021344066">
        <ele>99.150000000000006</ele>
        <time>2026-06-28T12:35:13Z</time>
      </trkpt>
      <trkpt lat="51.671886965632439" lon="-10.03644903190434">
        <ele>100.59999999999999</ele>
        <time>2026-06-28T12:35:14Z</time>
      </trkpt>
      <trkpt lat="51.671942034736276" lon="-10.036310981959105">
        <ele>102.52</ele>
        <time>2026-06-28T12:35:15Z</time>
      </trkpt>
      <trkpt lat="51.671963995322585" lon="-10.036188019439578">
        <ele>103.48</ele>
        <time>2026-06-28T12:35:16Z</time>
      </trkpt>
      <trkpt lat="51.672234982252121" lon="-10.03468899987638">
        <ele>105.40000000000001</ele>
        <time>2026-06-28T12:35:25Z</time>
      </trkpt>
      <trkpt lat="51.672259038314223" lon="-10.034553967416286">
        <ele>104.92</ele>
        <time>2026-06-28T12:35:26Z</time>
      </trkpt>
      <trkpt lat="51.672226013615727" lon="-10.034448020160198">
        <ele>104.44</ele>
        <time>2026-06-28T12:35:27Z</time>
      </trkpt>
      <trkpt lat="51.672179996967316" lon="-10.034347018226981">
        <ele>104.44</ele>
        <time>2026-06-28T12:35:28Z</time>
      </trkpt>
      <trkpt lat="51.672119982540607" lon="-10.034252973273396">
        <ele>103.95999999999999</ele>
        <time>2026-06-28T12:35:29Z</time>
      </trkpt>
      <trkpt lat="51.672042030841112" lon="-10.034165969118476">
        <ele>103.48</ele>
        <time>2026-06-28T12:35:30Z</time>
      </trkpt>
      <trkpt lat="51.671956032514572" lon="-10.034069996327162">
        <ele>102.52</ele>
        <time>2026-06-28T12:35:31Z</time>
      </trkpt>
      <trkpt lat="51.671626958996058" lon="-10.033702030777931">
        <ele>100.11</ele>
        <time>2026-06-28T12:35:35Z</time>
      </trkpt>
      <trkpt lat="51.671610027551651" lon="-10.033594993874431">
        <ele>99.150000000000006</ele>
        <time>2026-06-28T12:35:36Z</time>
      </trkpt>
      <trkpt lat="51.671600975096226" lon="-10.033502038568258">
        <ele>98.189999999999998</ele>
        <time>2026-06-28T12:35:37Z</time>
      </trkpt>
      <trkpt lat="51.67163098230958" lon="-10.033435989171267">
        <ele>97.230000000000004</ele>
        <time>2026-06-28T12:35:38Z</time>
      </trkpt>
      <trkpt lat="51.671689990907907" lon="-10.033358037471771">
        <ele>96.269999999999996</ele>
        <time>2026-06-28T12:35:39Z</time>
      </trkpt>
      <trkpt lat="51.671757968142629" lon="-10.03327002748847">
        <ele>94.829999999999998</ele>
        <time>2026-06-28T12:35:40Z</time>
      </trkpt>
      <trkpt lat="51.671831980347633" lon="-10.033171959221363">
        <ele>94.349999999999994</ele>
        <time>2026-06-28T12:35:41Z</time>
      </trkpt>
      <trkpt lat="51.672071032226086" lon="-10.032858978956938">
        <ele>91.459999999999994</ele>
        <time>2026-06-28T12:35:44Z</time>
      </trkpt>
      <trkpt lat="51.672221990302205" lon="-10.032659992575645">
        <ele>90.019999999999996</ele>
        <time>2026-06-28T12:35:46Z</time>
      </trkpt>
      <trkpt lat="51.672294996678829" lon="-10.032564019784331">
        <ele>88.579999999999998</ele>
        <time>2026-06-28T12:35:47Z</time>
      </trkpt>
      <trkpt lat="51.672352999448776" lon="-10.032463017851114">
        <ele>87.620000000000005</ele>
        <time>2026-06-28T12:35:48Z</time>
      </trkpt>
      <trkpt lat="51.672366997227073" lon="-10.032322034239769">
        <ele>86.180000000000007</ele>
        <time>2026-06-28T12:35:49Z</time>
      </trkpt>
      <trkpt lat="51.672384012490511" lon="-10.032162023708224">
        <ele>84.730000000000004</ele>
        <time>2026-06-28T12:35:50Z</time>
      </trkpt>
      <trkpt lat="51.67240303941071" lon="-10.031987009570003">
        <ele>84.25</ele>
        <time>2026-06-28T12:35:51Z</time>
      </trkpt>
      <trkpt lat="51.672666985541582" lon="-10.030514979735017">
        <ele>75.599999999999994</ele>
        <time>2026-06-28T12:35:59Z</time>
      </trkpt>
      <trkpt lat="51.672823978587985" lon="-10.029886001721025">
        <ele>72.239999999999995</ele>
        <time>2026-06-28T12:36:03Z</time>
      </trkpt>
      <trkpt lat="51.672882987186313" lon="-10.029779970645905">
        <ele>71.269999999999996</ele>
        <time>2026-06-28T12:36:04Z</time>
      </trkpt>
      <trkpt lat="51.672959011048079" lon="-10.029723979532719">
        <ele>70.310000000000002</ele>
        <time>2026-06-28T12:36:05Z</time>
      </trkpt>
      <trkpt lat="51.673042997717857" lon="-10.02966295927763">
        <ele>69.829999999999998</ele>
        <time>2026-06-28T12:36:06Z</time>
      </trkpt>
      <trkpt lat="51.673128996044397" lon="-10.029599005356431">
        <ele>69.349999999999994</ele>
        <time>2026-06-28T12:36:07Z</time>
      </trkpt>
      <trkpt lat="51.673211976885796" lon="-10.029537985101342">
        <ele>68.390000000000001</ele>
        <time>2026-06-28T12:36:08Z</time>
      </trkpt>
      <trkpt lat="51.6732859890908" lon="-10.029528010636568">
        <ele>67.909999999999997</ele>
        <time>2026-06-28T12:36:09Z</time>
      </trkpt>
      <trkpt lat="51.673344997689128" lon="-10.029560029506683">
        <ele>66.950000000000003</ele>
        <time>2026-06-28T12:36:10Z</time>
      </trkpt>
      <trkpt lat="51.673396965488791" lon="-10.029589030891657">
        <ele>65.989999999999995</ele>
        <time>2026-06-28T12:36:11Z</time>
      </trkpt>
      <trkpt lat="51.673441976308823" lon="-10.029613003134727">
        <ele>65.510000000000005</ele>
        <time>2026-06-28T12:36:12Z</time>
      </trkpt>
      <trkpt lat="51.673501990735531" lon="-10.029622977599502">
        <ele>64.549999999999997</ele>
        <time>2026-06-28T12:36:14Z</time>
      </trkpt>
      <trkpt lat="51.673536021262407" lon="-10.029588025063276">
        <ele>64.069999999999993</ele>
        <time>2026-06-28T12:36:15Z</time>
      </trkpt>
      <trkpt lat="51.673572985455394" lon="-10.029551982879639">
        <ele>63.579999999999998</ele>
        <time>2026-06-28T12:36:16Z</time>
      </trkpt>
      <trkpt lat="51.673583965748549" lon="-10.02946900203824">
        <ele>62.619999999999997</ele>
        <time>2026-06-28T12:36:17Z</time>
      </trkpt>
      <trkpt lat="51.673597963526845" lon="-10.029366994276643">
        <ele>61.659999999999997</ele>
        <time>2026-06-28T12:36:18Z</time>
      </trkpt>
      <trkpt lat="51.673611961305141" lon="-10.029260041192174">
        <ele>60.700000000000003</ele>
        <time>2026-06-28T12:36:19Z</time>
      </trkpt>
      <trkpt lat="51.673626964911819" lon="-10.029149986803532">
        <ele>60.219999999999999</ele>
        <time>2026-06-28T12:36:20Z</time>
      </trkpt>
      <trkpt lat="51.67362897656858" lon="-10.029034987092018">
        <ele>59.740000000000002</ele>
        <time>2026-06-28T12:36:21Z</time>
      </trkpt>
      <trkpt lat="51.67360701598227" lon="-10.028906995430589">
        <ele>58.780000000000001</ele>
        <time>2026-06-28T12:36:22Z</time>
      </trkpt>
      <trkpt lat="51.673583965748549" lon="-10.028772968798876">
        <ele>57.82</ele>
        <time>2026-06-28T12:36:23Z</time>
      </trkpt>
      <trkpt lat="51.673560999333858" lon="-10.028637014329433">
        <ele>56.859999999999999</ele>
        <time>2026-06-28T12:36:24Z</time>
      </trkpt>
      <trkpt lat="51.673538032919168" lon="-10.028502987697721">
        <ele>55.890000000000001</ele>
        <time>2026-06-28T12:36:25Z</time>
      </trkpt>
      <trkpt lat="51.673498973250389" lon="-10.028394022956491">
        <ele>54.93</ele>
        <time>2026-06-28T12:36:26Z</time>
      </trkpt>
      <trkpt lat="51.673452034592628" lon="-10.028294026851654">
        <ele>53.969999999999999</ele>
        <time>2026-06-28T12:36:27Z</time>
      </trkpt>
      <trkpt lat="51.673406017944217" lon="-10.028196964412928">
        <ele>53.009999999999998</ele>
        <time>2026-06-28T12:36:28Z</time>
      </trkpt>
      <trkpt lat="51.673357989639044" lon="-10.028095040470362">
        <ele>51.57</ele>
        <time>2026-06-28T12:36:29Z</time>
      </trkpt>
      <trkpt lat="51.673296969383955" lon="-10.028005018830299">
        <ele>50.609999999999999</ele>
        <time>2026-06-28T12:36:30Z</time>
      </trkpt>
      <trkpt lat="51.673151040449739" lon="-10.027838973328471">
        <ele>47.719999999999999</ele>
        <time>2026-06-28T12:36:32Z</time>
      </trkpt>
      <trkpt lat="51.673078034073114" lon="-10.027756998315454">
        <ele>46.280000000000001</ele>
        <time>2026-06-28T12:36:33Z</time>
      </trkpt>
      <trkpt lat="51.673009973019361" lon="-10.027665970847011">
        <ele>44.840000000000003</ele>
        <time>2026-06-28T12:36:34Z</time>
      </trkpt>
      <trkpt lat="51.672978037968278" lon="-10.027546025812626">
        <ele>43.399999999999999</ele>
        <time>2026-06-28T12:36:35Z</time>
      </trkpt>
      <trkpt lat="51.672949958592653" lon="-10.027436977252364">
        <ele>41.950000000000003</ele>
        <time>2026-06-28T12:36:36Z</time>
      </trkpt>
      <trkpt lat="51.672923974692822" lon="-10.027338992804289">
        <ele>40.509999999999998</ele>
        <time>2026-06-28T12:36:37Z</time>
      </trkpt>
      <trkpt lat="51.672903019934893" lon="-10.027256011962891">
        <ele>39.07</ele>
        <time>2026-06-28T12:36:38Z</time>
      </trkpt>
      <trkpt lat="51.672886004671454" lon="-10.02719197422266">
        <ele>38.109999999999999</ele>
        <time>2026-06-28T12:36:39Z</time>
      </trkpt>
      <trkpt lat="51.672850968316197" lon="-10.027198009192944">
        <ele>36.670000000000002</ele>
        <time>2026-06-28T12:36:40Z</time>
      </trkpt>
      <trkpt lat="51.672782991081476" lon="-10.027209995314479">
        <ele>35.710000000000001</ele>
        <time>2026-06-28T12:36:41Z</time>
      </trkpt>
      <trkpt lat="51.672702021896839" lon="-10.027224998921156">
        <ele>34.740000000000002</ele>
        <time>2026-06-28T12:36:42Z</time>
      </trkpt>
      <trkpt lat="51.671960977837443" lon="-10.027357013896108">
        <ele>31.379999999999999</ele>
        <time>2026-06-28T12:36:48Z</time>
      </trkpt>
      <trkpt lat="51.670531025156379" lon="-10.027711987495422">
        <ele>35.229999999999997</ele>
        <time>2026-06-28T12:36:58Z</time>
      </trkpt>
      <trkpt lat="51.669101994484663" lon="-10.028063021600246">
        <ele>38.590000000000003</ele>
        <time>2026-06-28T12:37:08Z</time>
      </trkpt>
      <trkpt lat="51.668975008651614" lon="-10.028048017993569">
        <ele>38.109999999999999</ele>
        <time>2026-06-28T12:37:09Z</time>
      </trkpt>
      <trkpt lat="51.668863026425242" lon="-10.028035026043653">
        <ele>37.149999999999999</ele>
        <time>2026-06-28T12:37:10Z</time>
      </trkpt>
      <trkpt lat="51.668776022270322" lon="-10.027966964989901">
        <ele>36.670000000000002</ele>
        <time>2026-06-28T12:37:11Z</time>
      </trkpt>
      <trkpt lat="51.668725982308388" lon="-10.027873003855348">
        <ele>35.710000000000001</ele>
        <time>2026-06-28T12:37:12Z</time>
      </trkpt>
      <trkpt lat="51.668669991195202" lon="-10.027766972780228">
        <ele>34.740000000000002</ele>
        <time>2026-06-28T12:37:13Z</time>
      </trkpt>
      <trkpt lat="51.668620035052299" lon="-10.027616014704108">
        <ele>33.780000000000001</ele>
        <time>2026-06-28T12:37:14Z</time>
      </trkpt>
      <trkpt lat="51.668587010353804" lon="-10.027435971423984">
        <ele>32.82</ele>
        <time>2026-06-28T12:37:15Z</time>
      </trkpt>
      <trkpt lat="51.668571000918746" lon="-10.027228016406298">
        <ele>31.859999999999999</ele>
        <time>2026-06-28T12:37:16Z</time>
      </trkpt>
      <trkpt lat="51.668566977605224" lon="-10.027007991448045">
        <ele>30.899999999999999</ele>
        <time>2026-06-28T12:37:17Z</time>
      </trkpt>
      <trkpt lat="51.668563038110733" lon="-10.026774974539876">
        <ele>29.460000000000001</ele>
        <time>2026-06-28T12:37:18Z</time>
      </trkpt>
      <trkpt lat="51.668551973998547" lon="-10.026076007634401">
        <ele>26.09</ele>
        <time>2026-06-28T12:37:21Z</time>
      </trkpt>
      <trkpt lat="51.668521966785192" lon="-10.025897976011038">
        <ele>25.129999999999999</ele>
        <time>2026-06-28T12:37:22Z</time>
      </trkpt>
      <trkpt lat="51.668462958186865" lon="-10.025712987408042">
        <ele>23.690000000000001</ele>
        <time>2026-06-28T12:37:23Z</time>
      </trkpt>
      <trkpt lat="51.66838500648737" lon="-10.025530010461807">
        <ele>22.73</ele>
        <time>2026-06-28T12:37:24Z</time>
      </trkpt>
      <trkpt lat="51.668306970968843" lon="-10.025335969403386">
        <ele>22.25</ele>
        <time>2026-06-28T12:37:25Z</time>
      </trkpt>
      <trkpt lat="51.668227007612586" lon="-10.025135977193713">
        <ele>22.25</ele>
        <time>2026-06-28T12:37:26Z</time>
      </trkpt>
      <trkpt lat="51.668146038427949" lon="-10.024933973327279">
        <ele>22.25</ele>
        <time>2026-06-28T12:37:27Z</time>
      </trkpt>
      <trkpt lat="51.66808401234448" lon="-10.024711014702916">
        <ele>22.25</ele>
        <time>2026-06-28T12:37:28Z</time>
      </trkpt>
      <trkpt lat="51.668029027059674" lon="-10.024480009451509">
        <ele>22.25</ele>
        <time>2026-06-28T12:37:29Z</time>
      </trkpt>
      <trkpt lat="51.667903969064355" lon="-10.023766960948706">
        <ele>23.210000000000001</ele>
        <time>2026-06-28T12:37:32Z</time>
      </trkpt>
      <trkpt lat="51.667883014306426" lon="-10.023526987060905">
        <ele>23.690000000000001</ele>
        <time>2026-06-28T12:37:33Z</time>
      </trkpt>
      <trkpt lat="51.667821994051337" lon="-10.022814022377133">
        <ele>25.129999999999999</ele>
        <time>2026-06-28T12:37:36Z</time>
      </trkpt>
      <trkpt lat="51.667780000716448" lon="-10.022589974105358">
        <ele>25.609999999999999</ele>
        <time>2026-06-28T12:37:37Z</time>
      </trkpt>
      <trkpt lat="51.667211037129164" lon="-10.020227031782269">
        <ele>28.98</ele>
        <time>2026-06-28T12:37:48Z</time>
      </trkpt>
      <trkpt lat="51.666683983057737" lon="-10.017904993146658">
        <ele>30.899999999999999</ele>
        <time>2026-06-28T12:37:59Z</time>
      </trkpt>
      <trkpt lat="51.666671996936202" lon="-10.017697038128972">
        <ele>30.899999999999999</ele>
        <time>2026-06-28T12:38:00Z</time>
      </trkpt>
      <trkpt lat="51.666694041341543" lon="-10.017507020384073">
        <ele>30.899999999999999</ele>
        <time>2026-06-28T12:38:01Z</time>
      </trkpt>
      <trkpt lat="51.666716001927853" lon="-10.017318008467555">
        <ele>30.420000000000002</ele>
        <time>2026-06-28T12:38:02Z</time>
      </trkpt>
      <trkpt lat="51.666755983605981" lon="-10.017126984894276">
        <ele>29.940000000000001</ele>
        <time>2026-06-28T12:38:03Z</time>
      </trkpt>
      <trkpt lat="51.66681700386107" lon="-10.016940990462899">
        <ele>29.460000000000001</ele>
        <time>2026-06-28T12:38:04Z</time>
      </trkpt>
      <trkpt lat="51.666881963610649" lon="-10.016742004081607">
        <ele>28.98</ele>
        <time>2026-06-28T12:38:05Z</time>
      </trkpt>
      <trkpt lat="51.667615966871381" lon="-10.014493977651">
        <ele>23.210000000000001</ele>
        <time>2026-06-28T12:38:16Z</time>
      </trkpt>
      <trkpt lat="51.668506963178515" lon="-10.011846972629428">
        <ele>23.690000000000001</ele>
        <time>2026-06-28T12:38:29Z</time>
      </trkpt>
      <trkpt lat="51.669286983087659" lon="-10.009467015042901">
        <ele>27.050000000000001</ele>
        <time>2026-06-28T12:38:40Z</time>
      </trkpt>
      <trkpt lat="51.670122994109988" lon="-10.006932998076081">
        <ele>29.460000000000001</ele>
        <time>2026-06-28T12:38:52Z</time>
      </trkpt>
      <trkpt lat="51.671090014278889" lon="-10.004037972539663">
        <ele>35.229999999999997</ele>
        <time>2026-06-28T12:39:05Z</time>
      </trkpt>
      <trkpt lat="51.671857964247465" lon="-10.001700008288026">
        <ele>34.740000000000002</ele>
        <time>2026-06-28T12:39:16Z</time>
      </trkpt>
      <trkpt lat="51.672604037448764" lon="-9.999416023492813">
        <ele>30.899999999999999</ele>
        <time>2026-06-28T12:39:27Z</time>
      </trkpt>
      <trkpt lat="51.673357989639044" lon="-9.997087027877569">
        <ele>21.289999999999999</ele>
        <time>2026-06-28T12:39:38Z</time>
      </trkpt>
      <trkpt lat="51.673444993793964" lon="-9.996951995417476">
        <ele>20.32</ele>
        <time>2026-06-28T12:39:39Z</time>
      </trkpt>
      <trkpt lat="51.673553036525846" lon="-9.996828027069569">
        <ele>19.84</ele>
        <time>2026-06-28T12:39:40Z</time>
      </trkpt>
      <trkpt lat="51.674065003171563" lon="-9.996357969939709">
        <ele>17.920000000000002</ele>
        <time>2026-06-28T12:39:44Z</time>
      </trkpt>
      <trkpt lat="51.674202969297767" lon="-9.996282029896975">
        <ele>17.920000000000002</ele>
        <time>2026-06-28T12:39:45Z</time>
      </trkpt>
      <trkpt lat="51.674333978444338" lon="-9.996258979663253">
        <ele>17.440000000000001</ele>
        <time>2026-06-28T12:39:46Z</time>
      </trkpt>
      <trkpt lat="51.674459958449006" lon="-9.996274989098311">
        <ele>16.960000000000001</ele>
        <time>2026-06-28T12:39:47Z</time>
      </trkpt>
      <trkpt lat="51.674584010615945" lon="-9.996289992704988">
        <ele>16.48</ele>
        <time>2026-06-28T12:39:48Z</time>
      </trkpt>
      <trkpt lat="51.674712002277374" lon="-9.996306002140045">
        <ele>16</ele>
        <time>2026-06-28T12:39:49Z</time>
      </trkpt>
      <trkpt lat="51.674846028909087" lon="-9.996323017403483">
        <ele>14.56</ele>
        <time>2026-06-28T12:39:50Z</time>
      </trkpt>
      <trkpt lat="51.674977960065007" lon="-9.996322011575103">
        <ele>13.6</ele>
        <time>2026-06-28T12:39:51Z</time>
      </trkpt>
      <trkpt lat="51.675101006403565" lon="-9.996267026290298">
        <ele>12.630000000000001</ele>
        <time>2026-06-28T12:39:52Z</time>
      </trkpt>
      <trkpt lat="51.67521801777184" lon="-9.996164012700319">
        <ele>12.15</ele>
        <time>2026-06-28T12:39:53Z</time>
      </trkpt>
      <trkpt lat="51.67534600943327" lon="-9.996051024645567">
        <ele>11.67</ele>
        <time>2026-06-28T12:39:54Z</time>
      </trkpt>
      <trkpt lat="51.675767032429576" lon="-9.995587002485991">
        <ele>10.23</ele>
        <time>2026-06-28T12:39:57Z</time>
      </trkpt>
      <trkpt lat="51.675916984677315" lon="-9.995408970862627">
        <ele>10.23</ele>
        <time>2026-06-28T12:39:58Z</time>
      </trkpt>
      <trkpt lat="51.677348027005792" lon="-9.993183994665742">
        <ele>15.039999999999999</ele>
        <time>2026-06-28T12:40:09Z</time>
      </trkpt>
      <trkpt lat="51.678366009145975" lon="-9.991565030068159">
        <ele>18.879999999999999</ele>
        <time>2026-06-28T12:40:19Z</time>
      </trkpt>
      <trkpt lat="51.679297992959619" lon="-9.99008403159678">
        <ele>21.289999999999999</ele>
        <time>2026-06-28T12:40:29Z</time>
      </trkpt>
      <trkpt lat="51.679455991834402" lon="-9.98976300470531">
        <ele>21.77</ele>
        <time>2026-06-28T12:40:31Z</time>
      </trkpt>
      <trkpt lat="51.68026702478528" lon="-9.987644981592894">
        <ele>20.809999999999999</ele>
        <time>2026-06-28T12:40:41Z</time>
      </trkpt>
      <trkpt lat="51.681296993046999" lon="-9.984898986294866">
        <ele>16.48</ele>
        <time>2026-06-28T12:40:53Z</time>
      </trkpt>
      <trkpt lat="51.68132096529007" lon="-9.98462900519371">
        <ele>16.48</ele>
        <time>2026-06-28T12:40:54Z</time>
      </trkpt>
      <trkpt lat="51.681343009695411" lon="-9.984381990507245">
        <ele>16.48</ele>
        <time>2026-06-28T12:40:55Z</time>
      </trkpt>
      <trkpt lat="51.681425990536809" lon="-9.981916034594178">
        <ele>17.440000000000001</ele>
        <time>2026-06-28T12:41:05Z</time>
      </trkpt>
      <trkpt lat="51.681410986930132" lon="-9.981686035171151">
        <ele>17.440000000000001</ele>
        <time>2026-06-28T12:41:06Z</time>
      </trkpt>
      <trkpt lat="51.681379973888397" lon="-9.981202986091375">
        <ele>16.48</ele>
        <time>2026-06-28T12:41:08Z</time>
      </trkpt>
      <trkpt lat="51.68136497028172" lon="-9.980982039123774">
        <ele>16</ele>
        <time>2026-06-28T12:41:09Z</time>
      </trkpt>
      <trkpt lat="51.681394977495074" lon="-9.980799984186888">
        <ele>15.52</ele>
        <time>2026-06-28T12:41:10Z</time>
      </trkpt>
      <trkpt lat="51.68144702911377" lon="-9.980600997805595">
        <ele>15.52</ele>
        <time>2026-06-28T12:41:11Z</time>
      </trkpt>
      <trkpt lat="51.681503020226955" lon="-9.980389019474387">
        <ele>15.52</ele>
        <time>2026-06-28T12:41:12Z</time>
      </trkpt>
      <trkpt lat="51.681640986353159" lon="-9.979788037016988">
        <ele>15.52</ele>
        <time>2026-06-28T12:41:15Z</time>
      </trkpt>
      <trkpt lat="51.68166202493012" lon="-9.97964202426374">
        <ele>16</ele>
        <time>2026-06-28T12:41:16Z</time>
      </trkpt>
      <trkpt lat="51.681626988574862" lon="-9.979517972096801">
        <ele>16.48</ele>
        <time>2026-06-28T12:41:17Z</time>
      </trkpt>
      <trkpt lat="51.681592036038637" lon="-9.979397021234036">
        <ele>16.48</ele>
        <time>2026-06-28T12:41:18Z</time>
      </trkpt>
      <trkpt lat="51.681560017168522" lon="-9.979284033179283">
        <ele>17.440000000000001</ele>
        <time>2026-06-28T12:41:19Z</time>
      </trkpt>
      <trkpt lat="51.68149296194315" lon="-9.979049004614353">
        <ele>18.399999999999999</ele>
        <time>2026-06-28T12:41:21Z</time>
      </trkpt>
      <trkpt lat="51.681482987478375" lon="-9.978911960497499">
        <ele>18.879999999999999</ele>
        <time>2026-06-28T12:41:22Z</time>
      </trkpt>
      <trkpt lat="51.681473013013601" lon="-9.978759996592999">
        <ele>18.879999999999999</ele>
        <time>2026-06-28T12:41:23Z</time>
      </trkpt>
      <trkpt lat="51.681451974436641" lon="-9.978421032428742">
        <ele>19.84</ele>
        <time>2026-06-28T12:41:25Z</time>
      </trkpt>
      <trkpt lat="51.68142699636519" lon="-9.97824601829052">
        <ele>19.84</ele>
        <time>2026-06-28T12:41:26Z</time>
      </trkpt>
      <trkpt lat="51.681274026632309" lon="-9.977446971461177">
        <ele>22.25</ele>
        <time>2026-06-28T12:41:31Z</time>
      </trkpt>
      <trkpt lat="51.681248964741826" lon="-9.977287966758013">
        <ele>22.25</ele>
        <time>2026-06-28T12:41:32Z</time>
      </trkpt>
      <trkpt lat="51.6812330391258" lon="-9.977124016731978">
        <ele>22.73</ele>
        <time>2026-06-28T12:41:33Z</time>
      </trkpt>
      <trkpt lat="51.681218035519123" lon="-9.976961994543672">
        <ele>22.73</ele>
        <time>2026-06-28T12:41:34Z</time>
      </trkpt>
      <trkpt lat="51.681229015812278" lon="-9.976792009547353">
        <ele>22.73</ele>
        <time>2026-06-28T12:41:35Z</time>
      </trkpt>
      <trkpt lat="51.68125600554049" lon="-9.976637028157711">
        <ele>23.210000000000001</ele>
        <time>2026-06-28T12:41:36Z</time>
      </trkpt>
      <trkpt lat="51.681285006925464" lon="-9.976472994312644">
        <ele>23.210000000000001</ele>
        <time>2026-06-28T12:41:37Z</time>
      </trkpt>
      <trkpt lat="51.68132197111845" lon="-9.976310972124338">
        <ele>23.690000000000001</ele>
        <time>2026-06-28T12:41:38Z</time>
      </trkpt>
      <trkpt lat="51.681367987766862" lon="-9.976146016269922">
        <ele>23.690000000000001</ele>
        <time>2026-06-28T12:41:39Z</time>
      </trkpt>
      <trkpt lat="51.681553982198238" lon="-9.975466998293996">
        <ele>24.649999999999999</ele>
        <time>2026-06-28T12:41:43Z</time>
      </trkpt>
      <trkpt lat="51.681597987189889" lon="-9.975306987762451">
        <ele>25.609999999999999</ele>
        <time>2026-06-28T12:41:44Z</time>
      </trkpt>
      <trkpt lat="51.681615002453327" lon="-9.975137002766132">
        <ele>26.09</ele>
        <time>2026-06-28T12:41:45Z</time>
      </trkpt>
      <trkpt lat="51.681825974956155" lon="-9.97304898686707">
        <ele>31.379999999999999</ele>
        <time>2026-06-28T12:41:54Z</time>
      </trkpt>
      <trkpt lat="51.682230988517404" lon="-9.970408016815782">
        <ele>37.630000000000003</ele>
        <time>2026-06-28T12:42:05Z</time>
      </trkpt>
      <trkpt lat="51.682954011484981" lon="-9.968237020075321">
        <ele>39.549999999999997</ele>
        <time>2026-06-28T12:42:15Z</time>
      </trkpt>
      <trkpt lat="51.683019977062941" lon="-9.967983970418572">
        <ele>39.549999999999997</ele>
        <time>2026-06-28T12:42:16Z</time>
      </trkpt>
      <trkpt lat="51.683667981997132" lon="-9.964829022064805">
        <ele>38.109999999999999</ele>
        <time>2026-06-28T12:42:28Z</time>
      </trkpt>
      <trkpt lat="51.683922959491611" lon="-9.962640004232526">
        <ele>39.07</ele>
        <time>2026-06-28T12:42:36Z</time>
      </trkpt>
      <trkpt lat="51.684000995010138" lon="-9.96114500798285">
        <ele>40.030000000000001</ele>
        <time>2026-06-28T12:42:42Z</time>
      </trkpt>
      <trkpt lat="51.684000995010138" lon="-9.960888018831611">
        <ele>40.030000000000001</ele>
        <time>2026-06-28T12:42:43Z</time>
      </trkpt>
      <trkpt lat="51.683954978361726" lon="-9.960648966953158">
        <ele>40.030000000000001</ele>
        <time>2026-06-28T12:42:44Z</time>
      </trkpt>
      <trkpt lat="51.683773007243872" lon="-9.959955029189587">
        <ele>40.509999999999998</ele>
        <time>2026-06-28T12:42:47Z</time>
      </trkpt>
      <trkpt lat="51.683701006695628" lon="-9.95972896926105">
        <ele>40.990000000000002</ele>
        <time>2026-06-28T12:42:48Z</time>
      </trkpt>
      <trkpt lat="51.68336296454072" lon="-9.958990020677447">
        <ele>42.439999999999998</ele>
        <time>2026-06-28T12:42:52Z</time>
      </trkpt>
      <trkpt lat="51.683075968176126" lon="-9.958475036546588">
        <ele>41.950000000000003</ele>
        <time>2026-06-28T12:42:55Z</time>
      </trkpt>
      <trkpt lat="51.683024000376463" lon="-9.958300022408366">
        <ele>41.950000000000003</ele>
        <time>2026-06-28T12:42:56Z</time>
      </trkpt>
      <trkpt lat="51.682992987334728" lon="-9.958161972463131">
        <ele>41.950000000000003</ele>
        <time>2026-06-28T12:42:57Z</time>
      </trkpt>
      <trkpt lat="51.683008996769786" lon="-9.957982013002038">
        <ele>41.950000000000003</ele>
        <time>2026-06-28T12:42:58Z</time>
      </trkpt>
      <trkpt lat="51.683041015639901" lon="-9.957847986370325">
        <ele>41.950000000000003</ele>
        <time>2026-06-28T12:42:59Z</time>
      </trkpt>
      <trkpt lat="51.683085020631552" lon="-9.957718988880515">
        <ele>41.950000000000003</ele>
        <time>2026-06-28T12:43:00Z</time>
      </trkpt>
      <trkpt lat="51.683128019794822" lon="-9.957594014704227">
        <ele>41.469999999999999</ele>
        <time>2026-06-28T12:43:01Z</time>
      </trkpt>
      <trkpt lat="51.683213012292981" lon="-9.957345994189382">
        <ele>41.469999999999999</ele>
        <time>2026-06-28T12:43:03Z</time>
      </trkpt>
      <trkpt lat="51.683258023113012" lon="-9.957215990871191">
        <ele>40.990000000000002</ele>
        <time>2026-06-28T12:43:04Z</time>
      </trkpt>
      <trkpt lat="51.683988003060222" lon="-9.955936996266246">
        <ele>37.630000000000003</ele>
        <time>2026-06-28T12:43:13Z</time>
      </trkpt>
      <trkpt lat="51.684374995529652" lon="-9.955312963575125">
        <ele>36.670000000000002</ele>
        <time>2026-06-28T12:43:17Z</time>
      </trkpt>
      <trkpt lat="51.684483038261533" lon="-9.95519301854074">
        <ele>36.670000000000002</ele>
        <time>2026-06-28T12:43:18Z</time>
      </trkpt>
      <trkpt lat="51.685197008773685" lon="-9.954431019723415">
        <ele>46.280000000000001</ele>
        <time>2026-06-28T12:43:26Z</time>
      </trkpt>
      <trkpt lat="51.685246964916587" lon="-9.954388020560145">
        <ele>47.240000000000002</ele>
        <time>2026-06-28T12:43:27Z</time>
      </trkpt>
      <trkpt lat="51.685277977958322" lon="-9.954361030831933">
        <ele>48.200000000000003</ele>
        <time>2026-06-28T12:43:28Z</time>
      </trkpt>
      <trkpt lat="51.68529599905014" lon="-9.954346027225256">
        <ele>48.68</ele>
        <time>2026-06-28T12:43:29Z</time>
      </trkpt>
      <trkpt lat="51.68529599905014" lon="-9.954346027225256">
        <ele>49.649999999999999</ele>
        <time>2026-06-28T12:43:40Z</time>
      </trkpt>
      <trkpt lat="51.685415022075176" lon="-9.954339992254973">
        <ele>51.57</ele>
        <time>2026-06-28T12:44:18Z</time>
      </trkpt>
      <trkpt lat="51.685460032895207" lon="-9.954406963661313">
        <ele>51.57</ele>
        <time>2026-06-28T12:44:19Z</time>
      </trkpt>
      <trkpt lat="51.685581989586353" lon="-9.95459002442658">
        <ele>52.049999999999997</ele>
        <time>2026-06-28T12:44:21Z</time>
      </trkpt>
      <trkpt lat="51.685662036761642" lon="-9.9546770285815">
        <ele>52.049999999999997</ele>
        <time>2026-06-28T12:44:22Z</time>
      </trkpt>
      <trkpt lat="51.685769995674491" lon="-9.954722039401531">
        <ele>52.049999999999997</ele>
        <time>2026-06-28T12:44:23Z</time>
      </trkpt>
      <trkpt lat="51.685889018699527" lon="-9.954769983887672">
        <ele>52.530000000000001</ele>
        <time>2026-06-28T12:44:24Z</time>
      </trkpt>
      <trkpt lat="51.686012987047434" lon="-9.954811977222562">
        <ele>52.530000000000001</ele>
        <time>2026-06-28T12:44:25Z</time>
      </trkpt>
      <trkpt lat="51.686146007850766" lon="-9.954781970009208">
        <ele>53.009999999999998</ele>
        <time>2026-06-28T12:44:26Z</time>
      </trkpt>
      <trkpt lat="51.686281962320209" lon="-9.954751962795854">
        <ele>53.009999999999998</ele>
        <time>2026-06-28T12:44:27Z</time>
      </trkpt>
      <trkpt lat="51.688063032925129" lon="-9.954212000593543">
        <ele>53.969999999999999</ele>
        <time>2026-06-28T12:44:40Z</time>
      </trkpt>
      <trkpt lat="51.689212024211884" lon="-9.95411996729672">
        <ele>54.450000000000003</ele>
        <time>2026-06-28T12:44:48Z</time>
      </trkpt>
      <trkpt lat="51.690139984712005" lon="-9.954046960920095">
        <ele>54.93</ele>
        <time>2026-06-28T12:44:57Z</time>
      </trkpt>
      <trkpt lat="51.690219026058912" lon="-9.954008990898728">
        <ele>54.93</ele>
        <time>2026-06-28T12:44:58Z</time>
      </trkpt>
      <trkpt lat="51.690292032435536" lon="-9.953966997563839">
        <ele>54.93</ele>
        <time>2026-06-28T12:44:59Z</time>
      </trkpt>
      <trkpt lat="51.690417006611824" lon="-9.954106975346804">
        <ele>54.450000000000003</ele>
        <time>2026-06-28T12:45:00Z</time>
      </trkpt>
      <trkpt lat="51.691039027646184" lon="-9.954515006393194">
        <ele>48.68</ele>
        <time>2026-06-28T12:45:06Z</time>
      </trkpt>
      <trkpt lat="51.691145980730653" lon="-9.954624976962805">
        <ele>47.719999999999999</ele>
        <time>2026-06-28T12:45:07Z</time>
      </trkpt>
      <trkpt lat="51.691773030906916" lon="-9.955211961641908">
        <ele>41.950000000000003</ele>
        <time>2026-06-28T12:45:13Z</time>
      </trkpt>
      <trkpt lat="51.691884007304907" lon="-9.955266024917364">
        <ele>41.469999999999999</ele>
        <time>2026-06-28T12:45:14Z</time>
      </trkpt>
      <trkpt lat="51.692289020866156" lon="-9.955455036833882">
        <ele>41.950000000000003</ele>
        <time>2026-06-28T12:45:18Z</time>
      </trkpt>
      <trkpt lat="51.692735021933913" lon="-9.95562301017344">
        <ele>42.920000000000002</ele>
        <time>2026-06-28T12:45:23Z</time>
      </trkpt>
      <trkpt lat="51.692797970026731" lon="-9.955699034035206">
        <ele>42.920000000000002</ele>
        <time>2026-06-28T12:45:24Z</time>
      </trkpt>
      <trkpt lat="51.69285798445344" lon="-9.955792995169759">
        <ele>42.920000000000002</ele>
        <time>2026-06-28T12:45:25Z</time>
      </trkpt>
      <trkpt lat="51.692917998880148" lon="-9.955888967961073">
        <ele>42.920000000000002</ele>
        <time>2026-06-28T12:45:26Z</time>
      </trkpt>
      <trkpt lat="51.692977007478476" lon="-9.955997010692954">
        <ele>42.920000000000002</ele>
        <time>2026-06-28T12:45:27Z</time>
      </trkpt>
      <trkpt lat="51.693310020491481" lon="-9.95719201862812">
        <ele>43.880000000000003</ele>
        <time>2026-06-28T12:45:37Z</time>
      </trkpt>
      <trkpt lat="51.693390989676118" lon="-9.957410031929612">
        <ele>44.359999999999999</ele>
        <time>2026-06-28T12:45:39Z</time>
      </trkpt>
      <trkpt lat="51.693642027676105" lon="-9.957978995516896">
        <ele>46.280000000000001</ele>
        <time>2026-06-28T12:45:45Z</time>
      </trkpt>
      <trkpt lat="51.69369600713253" lon="-9.958012020215392">
        <ele>46.759999999999998</ele>
        <time>2026-06-28T12:45:46Z</time>
      </trkpt>
      <trkpt lat="51.693753004074097" lon="-9.958012020215392">
        <ele>47.240000000000002</ele>
        <time>2026-06-28T12:45:47Z</time>
      </trkpt>
      <trkpt lat="51.693817041814327" lon="-9.958012020215392">
        <ele>47.719999999999999</ele>
        <time>2026-06-28T12:45:48Z</time>
      </trkpt>
      <trkpt lat="51.69388996437192" lon="-9.95798796415329">
        <ele>48.200000000000003</ele>
        <time>2026-06-28T12:45:49Z</time>
      </trkpt>
      <trkpt lat="51.693969005718827" lon="-9.957941025495529">
        <ele>48.200000000000003</ele>
        <time>2026-06-28T12:45:50Z</time>
      </trkpt>
      <trkpt lat="51.694053998216987" lon="-9.957889979705215">
        <ele>47.719999999999999</ele>
        <time>2026-06-28T12:45:51Z</time>
      </trkpt>
      <trkpt lat="51.694144019857049" lon="-9.95783600024879">
        <ele>47.240000000000002</ele>
        <time>2026-06-28T12:45:52Z</time>
      </trkpt>
      <trkpt lat="51.694233035668731" lon="-9.957783026620746">
        <ele>46.759999999999998</ele>
        <time>2026-06-28T12:45:53Z</time>
      </trkpt>
      <trkpt lat="51.694312999024987" lon="-9.957713959738612">
        <ele>46.759999999999998</ele>
        <time>2026-06-28T12:45:54Z</time>
      </trkpt>
      <trkpt lat="51.694379970431328" lon="-9.957632990553975">
        <ele>46.759999999999998</ele>
        <time>2026-06-28T12:45:55Z</time>
      </trkpt>
      <trkpt lat="51.6944470256567" lon="-9.957552021369338">
        <ele>46.759999999999998</ele>
        <time>2026-06-28T12:45:56Z</time>
      </trkpt>
      <trkpt lat="51.694759000092745" lon="-9.957176009193063">
        <ele>47.719999999999999</ele>
        <time>2026-06-28T12:46:01Z</time>
      </trkpt>
      <trkpt lat="51.694814991205931" lon="-9.957129992544651">
        <ele>47.240000000000002</ele>
        <time>2026-06-28T12:46:02Z</time>
      </trkpt>
      <trkpt lat="51.694879028946161" lon="-9.957120018079877">
        <ele>47.240000000000002</ele>
        <time>2026-06-28T12:46:03Z</time>
      </trkpt>
      <trkpt lat="51.694949017837644" lon="-9.957109959796071">
        <ele>46.759999999999998</ele>
        <time>2026-06-28T12:46:04Z</time>
      </trkpt>
      <trkpt lat="51.695025963708758" lon="-9.957097973674536">
        <ele>46.759999999999998</ele>
        <time>2026-06-28T12:46:05Z</time>
      </trkpt>
      <trkpt lat="51.695390995591879" lon="-9.957036031410098">
        <ele>45.799999999999997</ele>
        <time>2026-06-28T12:46:09Z</time>
      </trkpt>
      <trkpt lat="51.695643039420247" lon="-9.956830004230142">
        <ele>46.280000000000001</ele>
        <time>2026-06-28T12:46:12Z</time>
      </trkpt>
      <trkpt lat="51.695700958371162" lon="-9.956712992861867">
        <ele>47.240000000000002</ele>
        <time>2026-06-28T12:46:13Z</time>
      </trkpt>
      <trkpt lat="51.695764996111393" lon="-9.956586007028818">
        <ele>47.719999999999999</ele>
        <time>2026-06-28T12:46:14Z</time>
      </trkpt>
      <trkpt lat="51.696031959727407" lon="-9.956054007634521">
        <ele>50.130000000000003</ele>
        <time>2026-06-28T12:46:18Z</time>
      </trkpt>
      <trkpt lat="51.696265982463956" lon="-9.955599037930369">
        <ele>53.009999999999998</ele>
        <time>2026-06-28T12:46:22Z</time>
      </trkpt>
      <trkpt lat="51.696939971297979" lon="-9.95437502861023">
        <ele>58.780000000000001</ele>
        <time>2026-06-28T12:46:31Z</time>
      </trkpt>
      <trkpt lat="51.697681015357375" lon="-9.953822996467352">
        <ele>65.030000000000001</ele>
        <time>2026-06-28T12:46:38Z</time>
      </trkpt>
      <trkpt lat="51.69777799397707" lon="-9.953757030889392">
        <ele>65.030000000000001</ele>
        <time>2026-06-28T12:46:39Z</time>
      </trkpt>
      <trkpt lat="51.697862986475229" lon="-9.953699028119445">
        <ele>64.549999999999997</ele>
        <time>2026-06-28T12:46:40Z</time>
      </trkpt>
      <trkpt lat="51.697990978136659" lon="-9.95375300757587">
        <ele>64.549999999999997</ele>
        <time>2026-06-28T12:46:41Z</time>
      </trkpt>
      <trkpt lat="51.698094997555017" lon="-9.95379701256752">
        <ele>64.069999999999993</ele>
        <time>2026-06-28T12:46:42Z</time>
      </trkpt>
      <trkpt lat="51.698204968124628" lon="-9.953844035044313">
        <ele>63.579999999999998</ele>
        <time>2026-06-28T12:46:43Z</time>
      </trkpt>
      <trkpt lat="51.698318039998412" lon="-9.953891979530454">
        <ele>63.579999999999998</ele>
        <time>2026-06-28T12:46:44Z</time>
      </trkpt>
      <trkpt lat="51.698434967547655" lon="-9.953941013664007">
        <ele>63.100000000000001</ele>
        <time>2026-06-28T12:46:45Z</time>
      </trkpt>
      <trkpt lat="51.698666978627443" lon="-9.954038998112083">
        <ele>64.069999999999993</ele>
        <time>2026-06-28T12:46:47Z</time>
      </trkpt>
      <trkpt lat="51.698775021359324" lon="-9.954084008932114">
        <ele>64.069999999999993</ele>
        <time>2026-06-28T12:46:48Z</time>
      </trkpt>
      <trkpt lat="51.698876023292542" lon="-9.954089960083365">
        <ele>65.030000000000001</ele>
        <time>2026-06-28T12:46:49Z</time>
      </trkpt>
      <trkpt lat="51.698975013568997" lon="-9.95405500754714">
        <ele>65.510000000000005</ele>
        <time>2026-06-28T12:46:50Z</time>
      </trkpt>
      <trkpt lat="51.699082972481847" lon="-9.954017037525773">
        <ele>65.989999999999995</ele>
        <time>2026-06-28T12:46:51Z</time>
      </trkpt>
      <trkpt lat="51.699198978021741" lon="-9.953974960371852">
        <ele>65.989999999999995</ele>
        <time>2026-06-28T12:46:52Z</time>
      </trkpt>
      <trkpt lat="51.700337994843721" lon="-9.953209022060037">
        <ele>61.18</ele>
        <time>2026-06-28T12:47:01Z</time>
      </trkpt>
      <trkpt lat="51.701718997210264" lon="-9.951783008873463">
        <ele>59.259999999999998</ele>
        <time>2026-06-28T12:47:13Z</time>
      </trkpt>
      <trkpt lat="51.702583003789186" lon="-9.950737031176686">
        <ele>63.100000000000001</ele>
        <time>2026-06-28T12:47:21Z</time>
      </trkpt>
      <trkpt lat="51.702805962413549" lon="-9.950613984838128">
        <ele>65.510000000000005</ele>
        <time>2026-06-28T12:47:23Z</time>
      </trkpt>
      <trkpt lat="51.702906964346766" lon="-9.950580038130283">
        <ele>66.469999999999999</ele>
        <time>2026-06-28T12:47:24Z</time>
      </trkpt>
      <trkpt lat="51.703208964318037" lon="-9.950537960976362">
        <ele>67.430000000000007</ele>
        <time>2026-06-28T12:47:27Z</time>
      </trkpt>
      <trkpt lat="51.703311977908015" lon="-9.950534021481872">
        <ele>66.469999999999999</ele>
        <time>2026-06-28T12:47:28Z</time>
      </trkpt>
      <trkpt lat="51.703414991497993" lon="-9.95053100399673">
        <ele>65.510000000000005</ele>
        <time>2026-06-28T12:47:29Z</time>
      </trkpt>
      <trkpt lat="51.703519010916352" lon="-9.950526980683208">
        <ele>64.549999999999997</ele>
        <time>2026-06-28T12:47:30Z</time>
      </trkpt>
      <trkpt lat="51.703612972050905" lon="-9.950523041188717">
        <ele>63.579999999999998</ele>
        <time>2026-06-28T12:47:31Z</time>
      </trkpt>
      <trkpt lat="51.703722020611167" lon="-9.950456991791725">
        <ele>62.140000000000001</ele>
        <time>2026-06-28T12:47:32Z</time>
      </trkpt>
      <trkpt lat="51.703840037807822" lon="-9.950384991243482">
        <ele>61.18</ele>
        <time>2026-06-28T12:47:33Z</time>
      </trkpt>
      <trkpt lat="51.703970963135362" lon="-9.950305027887225">
        <ele>59.259999999999998</ele>
        <time>2026-06-28T12:47:34Z</time>
      </trkpt>
      <trkpt lat="51.704113958403468" lon="-9.950217017903924">
        <ele>57.82</ele>
        <time>2026-06-28T12:47:35Z</time>
      </trkpt>
      <trkpt lat="51.704266006127" lon="-9.950124984607101">
        <ele>56.369999999999997</ele>
        <time>2026-06-28T12:47:36Z</time>
      </trkpt>
      <trkpt lat="51.704419981688261" lon="-9.950039992108941">
        <ele>55.409999999999997</ele>
        <time>2026-06-28T12:47:37Z</time>
      </trkpt>
      <trkpt lat="51.704585021361709" lon="-9.949982995167375">
        <ele>55.409999999999997</ele>
        <time>2026-06-28T12:47:38Z</time>
      </trkpt>
      <trkpt lat="51.704746037721634" lon="-9.949927004054189">
        <ele>55.409999999999997</ele>
        <time>2026-06-28T12:47:39Z</time>
      </trkpt>
      <trkpt lat="51.705283988267183" lon="-9.949741009622812">
        <ele>56.859999999999999</ele>
        <time>2026-06-28T12:47:43Z</time>
      </trkpt>
      <trkpt lat="51.705389013513923" lon="-9.949704967439175">
        <ele>57.82</ele>
        <time>2026-06-28T12:47:44Z</time>
      </trkpt>
      <trkpt lat="51.70549001544714" lon="-9.949670014902949">
        <ele>58.299999999999997</ele>
        <time>2026-06-28T12:47:45Z</time>
      </trkpt>
      <trkpt lat="51.705591017380357" lon="-9.949637996032834">
        <ele>59.259999999999998</ele>
        <time>2026-06-28T12:47:46Z</time>
      </trkpt>
      <trkpt lat="51.705692019313574" lon="-9.949615029618144">
        <ele>59.259999999999998</ele>
        <time>2026-06-28T12:47:47Z</time>
      </trkpt>
      <trkpt lat="51.705793021246791" lon="-9.949591979384422">
        <ele>59.259999999999998</ele>
        <time>2026-06-28T12:47:48Z</time>
      </trkpt>
      <trkpt lat="51.705982033163309" lon="-9.949547974392772">
        <ele>57.82</ele>
        <time>2026-06-28T12:47:50Z</time>
      </trkpt>
      <trkpt lat="51.706061996519566" lon="-9.949530037119985">
        <ele>57.340000000000003</ele>
        <time>2026-06-28T12:47:51Z</time>
      </trkpt>
      <trkpt lat="51.706142965704203" lon="-9.949474968016148">
        <ele>56.859999999999999</ele>
        <time>2026-06-28T12:47:52Z</time>
      </trkpt>
      <trkpt lat="51.706197028979659" lon="-9.949360974133015">
        <ele>56.369999999999997</ele>
        <time>2026-06-28T12:47:53Z</time>
      </trkpt>
      <trkpt lat="51.706258971244097" lon="-9.949227031320334">
        <ele>55.409999999999997</ele>
        <time>2026-06-28T12:47:54Z</time>
      </trkpt>
      <trkpt lat="51.70632996596396" lon="-9.949076995253563">
        <ele>53.969999999999999</ele>
        <time>2026-06-28T12:47:55Z</time>
      </trkpt>
      <trkpt lat="51.706743026152253" lon="-9.948199996724725">
        <ele>46.759999999999998</ele>
        <time>2026-06-28T12:48:00Z</time>
      </trkpt>
      <trkpt lat="51.70682399533689" lon="-9.948046021163464">
        <ele>45.799999999999997</ele>
        <time>2026-06-28T12:48:01Z</time>
      </trkpt>
      <trkpt lat="51.706936983391643" lon="-9.947959017008543">
        <ele>44.359999999999999</ele>
        <time>2026-06-28T12:48:02Z</time>
      </trkpt>
      <trkpt lat="51.707779029384255" lon="-9.947315035387874">
        <ele>41.950000000000003</ele>
        <time>2026-06-28T12:48:09Z</time>
      </trkpt>
      <trkpt lat="51.708495011553168" lon="-9.946284983307123">
        <ele>32.82</ele>
        <time>2026-06-28T12:48:16Z</time>
      </trkpt>
      <trkpt lat="51.709008989855647" lon="-9.94552600197494">
        <ele>29.460000000000001</ele>
        <time>2026-06-28T12:48:21Z</time>
      </trkpt>
      <trkpt lat="51.710170973092318" lon="-9.94380796328187">
        <ele>31.859999999999999</ele>
        <time>2026-06-28T12:48:32Z</time>
      </trkpt>
      <trkpt lat="51.711131958290935" lon="-9.942386979237199">
        <ele>39.549999999999997</ele>
        <time>2026-06-28T12:48:42Z</time>
      </trkpt>
      <trkpt lat="51.711772000417113" lon="-9.941434040665627">
        <ele>31.859999999999999</ele>
        <time>2026-06-28T12:48:49Z</time>
      </trkpt>
      <trkpt lat="51.712071988731623" lon="-9.940688973292708">
        <ele>28.02</ele>
        <time>2026-06-28T12:48:53Z</time>
      </trkpt>
      <trkpt lat="51.712766010314226" lon="-9.938963977620006">
        <ele>24.649999999999999</ele>
        <time>2026-06-28T12:49:02Z</time>
      </trkpt>
      <trkpt lat="51.713024005293846" lon="-9.938403982669115">
        <ele>25.129999999999999</ele>
        <time>2026-06-28T12:49:06Z</time>
      </trkpt>
      <trkpt lat="51.713086031377316" lon="-9.938300969079137">
        <ele>24.649999999999999</ele>
        <time>2026-06-28T12:49:07Z</time>
      </trkpt>
      <trkpt lat="51.713242018595338" lon="-9.938127966597676">
        <ele>24.649999999999999</ele>
        <time>2026-06-28T12:49:09Z</time>
      </trkpt>
      <trkpt lat="51.713321981951594" lon="-9.938108017668128">
        <ele>24.649999999999999</ele>
        <time>2026-06-28T12:49:10Z</time>
      </trkpt>
      <trkpt lat="51.71344100497663" lon="-9.938078010454774">
        <ele>25.129999999999999</ele>
        <time>2026-06-28T12:49:11Z</time>
      </trkpt>
      <trkpt lat="51.713470006361604" lon="-9.93811204098165">
        <ele>25.609999999999999</ele>
        <time>2026-06-28T12:49:12Z</time>
      </trkpt>
      <trkpt lat="51.713521974161267" lon="-9.938170965760946">
        <ele>25.609999999999999</ele>
        <time>2026-06-28T12:49:13Z</time>
      </trkpt>
      <trkpt lat="51.713576959446073" lon="-9.938233997672796">
        <ele>26.09</ele>
        <time>2026-06-28T12:49:14Z</time>
      </trkpt>
      <trkpt lat="51.71361300162971" lon="-9.93836903013289">
        <ele>26.57</ele>
        <time>2026-06-28T12:49:15Z</time>
      </trkpt>
      <trkpt lat="51.71363496221602" lon="-9.938492998480797">
        <ele>26.57</ele>
        <time>2026-06-28T12:49:16Z</time>
      </trkpt>
      <trkpt lat="51.713688019663095" lon="-9.938784018158913">
        <ele>27.050000000000001</ele>
        <time>2026-06-28T12:49:18Z</time>
      </trkpt>
      <trkpt lat="51.713781980797648" lon="-9.939296990633011">
        <ele>25.609999999999999</ele>
        <time>2026-06-28T12:49:21Z</time>
      </trkpt>
      <trkpt lat="51.713895974680781" lon="-9.939601002261043">
        <ele>24.649999999999999</ele>
        <time>2026-06-28T12:49:23Z</time>
      </trkpt>
      <trkpt lat="51.713952971622348" lon="-9.939708961173892">
        <ele>24.170000000000002</ele>
        <time>2026-06-28T12:49:24Z</time>
      </trkpt>
      <trkpt lat="51.714026983827353" lon="-9.93989797309041">
        <ele>23.690000000000001</ele>
        <time>2026-06-28T12:49:27Z</time>
      </trkpt>
      <trkpt lat="51.714047016575933" lon="-9.939968967810273">
        <ele>23.690000000000001</ele>
        <time>2026-06-28T12:49:28Z</time>
      </trkpt>
      <trkpt lat="51.714285984635353" lon="-9.940845966339111">
        <ele>21.289999999999999</ele>
        <time>2026-06-28T12:49:34Z</time>
      </trkpt>
      <trkpt lat="51.714749000966549" lon="-9.942741030827165">
        <ele>17.920000000000002</ele>
        <time>2026-06-28T12:49:43Z</time>
      </trkpt>
      <trkpt lat="51.714871963486075" lon="-9.94333203881979">
        <ele>16.48</ele>
        <time>2026-06-28T12:49:46Z</time>
      </trkpt>
      <trkpt lat="51.714911023154855" lon="-9.943519039079547">
        <ele>16</ele>
        <time>2026-06-28T12:49:47Z</time>
      </trkpt>
      <trkpt lat="51.714922003448009" lon="-9.943707967177033">
        <ele>15.039999999999999</ele>
        <time>2026-06-28T12:49:48Z</time>
      </trkpt>
      <trkpt lat="51.714922003448009" lon="-9.944131001830101">
        <ele>13.119999999999999</ele>
        <time>2026-06-28T12:49:50Z</time>
      </trkpt>
      <trkpt lat="51.714922003448009" lon="-9.944348009303212">
        <ele>12.15</ele>
        <time>2026-06-28T12:49:51Z</time>
      </trkpt>
      <trkpt lat="51.715029962360859" lon="-9.945105984807015">
        <ele>9.27</ele>
        <time>2026-06-28T12:49:55Z</time>
      </trkpt>
      <trkpt lat="51.715066004544497" lon="-9.94524504058063">
        <ele>9.27</ele>
        <time>2026-06-28T12:49:56Z</time>
      </trkpt>
      <trkpt lat="51.715116966515779" lon="-9.945362973958254">
        <ele>9.27</ele>
        <time>2026-06-28T12:49:57Z</time>
      </trkpt>
      <trkpt lat="51.715173963457346" lon="-9.945484008640051">
        <ele>9.27</ele>
        <time>2026-06-28T12:49:58Z</time>
      </trkpt>
      <trkpt lat="51.715238001197577" lon="-9.945618035271764">
        <ele>9.27</ele>
        <time>2026-06-28T12:49:59Z</time>
      </trkpt>
      <trkpt lat="51.715905033051968" lon="-9.947118982672691">
        <ele>11.67</ele>
        <time>2026-06-28T12:50:08Z</time>
      </trkpt>
      <trkpt lat="51.716031013056636" lon="-9.947491977363825">
        <ele>13.6</ele>
        <time>2026-06-28T12:50:10Z</time>
      </trkpt>
      <trkpt lat="51.716093961149454" lon="-9.947677971795201">
        <ele>14.56</ele>
        <time>2026-06-28T12:50:11Z</time>
      </trkpt>
      <trkpt lat="51.716214995831251" lon="-9.948035962879658">
        <ele>15.52</ele>
        <time>2026-06-28T12:50:13Z</time>
      </trkpt>
      <trkpt lat="51.716314991936088" lon="-9.948332011699677">
        <ele>16.48</ele>
        <time>2026-06-28T12:50:15Z</time>
      </trkpt>
      <trkpt lat="51.716382969170809" lon="-9.948409041389823">
        <ele>16.960000000000001</ele>
        <time>2026-06-28T12:50:16Z</time>
      </trkpt>
      <trkpt lat="51.716451030224562" lon="-9.948423961177468">
        <ele>17.440000000000001</ele>
        <time>2026-06-28T12:50:17Z</time>
      </trkpt>
      <trkpt lat="51.716530993580818" lon="-9.948441982269287">
        <ele>17.440000000000001</ele>
        <time>2026-06-28T12:50:18Z</time>
      </trkpt>
      <trkpt lat="51.716583967208862" lon="-9.948394959792495">
        <ele>17.920000000000002</ele>
        <time>2026-06-28T12:50:19Z</time>
      </trkpt>
      <trkpt lat="51.716660996899009" lon="-9.948325976729393">
        <ele>18.399999999999999</ele>
        <time>2026-06-28T12:50:20Z</time>
      </trkpt>
      <trkpt lat="51.716740960255265" lon="-9.948252970352769">
        <ele>18.879999999999999</ele>
        <time>2026-06-28T12:50:21Z</time>
      </trkpt>
      <trkpt lat="51.716838022693992" lon="-9.948277026414871">
        <ele>19.359999999999999</ele>
        <time>2026-06-28T12:50:22Z</time>
      </trkpt>
      <trkpt lat="51.716918991878629" lon="-9.948300998657942">
        <ele>19.359999999999999</ele>
        <time>2026-06-28T12:50:23Z</time>
      </trkpt>
      <trkpt lat="51.716967020183802" lon="-9.948343997821212">
        <ele>19.359999999999999</ele>
        <time>2026-06-28T12:50:24Z</time>
      </trkpt>
      <trkpt lat="51.716988980770111" lon="-9.948448017239571">
        <ele>18.399999999999999</ele>
        <time>2026-06-28T12:50:25Z</time>
      </trkpt>
      <trkpt lat="51.717013958841562" lon="-9.948563016951084">
        <ele>17.920000000000002</ele>
        <time>2026-06-28T12:50:26Z</time>
      </trkpt>
      <trkpt lat="51.717042960226536" lon="-9.948699977248907">
        <ele>17.440000000000001</ele>
        <time>2026-06-28T12:50:27Z</time>
      </trkpt>
      <trkpt lat="51.717074979096651" lon="-9.948851019144058">
        <ele>16.48</ele>
        <time>2026-06-28T12:50:28Z</time>
      </trkpt>
      <trkpt lat="51.717079002410173" lon="-9.949027961120009">
        <ele>16</ele>
        <time>2026-06-28T12:50:29Z</time>
      </trkpt>
      <trkpt lat="51.717061987146735" lon="-9.949210016056895">
        <ele>15.039999999999999</ele>
        <time>2026-06-28T12:50:30Z</time>
      </trkpt>
      <trkpt lat="51.717045977711678" lon="-9.949393998831511">
        <ele>14.08</ele>
        <time>2026-06-28T12:50:31Z</time>
      </trkpt>
      <trkpt lat="51.716892002150416" lon="-9.951094016432762">
        <ele>8.789999999999999</ele>
        <time>2026-06-28T12:50:41Z</time>
      </trkpt>
      <trkpt lat="51.716873981058598" lon="-9.951296020299196">
        <ele>8.310000000000001</ele>
        <time>2026-06-28T12:50:42Z</time>
      </trkpt>
      <trkpt lat="51.716838022693992" lon="-9.951382018625736">
        <ele>8.310000000000001</ele>
        <time>2026-06-28T12:50:43Z</time>
      </trkpt>
      <trkpt lat="51.716654039919376" lon="-9.951818967238069">
        <ele>8.789999999999999</ele>
        <time>2026-06-28T12:50:46Z</time>
      </trkpt>
      <trkpt lat="51.716565024107695" lon="-9.951938996091485">
        <ele>9.75</ele>
        <time>2026-06-28T12:50:47Z</time>
      </trkpt>
      <trkpt lat="51.716395961120725" lon="-9.952167989686132">
        <ele>12.15</ele>
        <time>2026-06-28T12:50:49Z</time>
      </trkpt>
      <trkpt lat="51.716294959187508" lon="-9.952304027974606">
        <ele>13.6</ele>
        <time>2026-06-28T12:50:50Z</time>
      </trkpt>
      <trkpt lat="51.716275010257959" lon="-9.952407041564584">
        <ele>14.08</ele>
        <time>2026-06-28T12:50:51Z</time>
      </trkpt>
      <trkpt lat="51.716243997216225" lon="-9.952570991590619">
        <ele>14.56</ele>
        <time>2026-06-28T12:50:52Z</time>
      </trkpt>
      <trkpt lat="51.716211978346109" lon="-9.952740976586938">
        <ele>14.56</ele>
        <time>2026-06-28T12:50:53Z</time>
      </trkpt>
      <trkpt lat="51.715957000851631" lon="-9.954330017790198">
        <ele>11.19</ele>
        <time>2026-06-28T12:51:03Z</time>
      </trkpt>
      <trkpt lat="51.715935962274671" lon="-9.954490028321743">
        <ele>10.23</ele>
        <time>2026-06-28T12:51:04Z</time>
      </trkpt>
      <trkpt lat="51.715950965881348" lon="-9.954671999439597">
        <ele>9.75</ele>
        <time>2026-06-28T12:51:05Z</time>
      </trkpt>
      <trkpt lat="51.715978039428592" lon="-9.954847013577819">
        <ele>9.27</ele>
        <time>2026-06-28T12:51:06Z</time>
      </trkpt>
      <trkpt lat="51.716006034985185" lon="-9.955026973038912">
        <ele>9.27</ele>
        <time>2026-06-28T12:51:07Z</time>
      </trkpt>
      <trkpt lat="51.716033024713397" lon="-9.955201987177134">
        <ele>8.789999999999999</ele>
        <time>2026-06-28T12:51:08Z</time>
      </trkpt>
      <trkpt lat="51.716058002784848" lon="-9.955364009365439">
        <ele>8.789999999999999</ele>
        <time>2026-06-28T12:51:09Z</time>
      </trkpt>
      <trkpt lat="51.716119023039937" lon="-9.955471968278289">
        <ele>8.789999999999999</ele>
        <time>2026-06-28T12:51:10Z</time>
      </trkpt>
      <trkpt lat="51.716183982789516" lon="-9.955581016838551">
        <ele>8.789999999999999</ele>
        <time>2026-06-28T12:51:11Z</time>
      </trkpt>
      <trkpt lat="51.716253971680999" lon="-9.955695010721684">
        <ele>8.789999999999999</ele>
        <time>2026-06-28T12:51:12Z</time>
      </trkpt>
      <trkpt lat="51.716358996927738" lon="-9.955724012106657">
        <ele>8.789999999999999</ele>
        <time>2026-06-28T12:51:13Z</time>
      </trkpt>
      <trkpt lat="51.716469973325729" lon="-9.955754019320011">
        <ele>8.789999999999999</ele>
        <time>2026-06-28T12:51:14Z</time>
      </trkpt>
      <trkpt lat="51.716582961380482" lon="-9.955714037641883">
        <ele>9.75</ele>
        <time>2026-06-28T12:51:15Z</time>
      </trkpt>
      <trkpt lat="51.716676000505686" lon="-9.955669026821852">
        <ele>10.710000000000001</ele>
        <time>2026-06-28T12:51:16Z</time>
      </trkpt>
      <trkpt lat="51.716751018539071" lon="-9.955632984638214">
        <ele>11.19</ele>
        <time>2026-06-28T12:51:17Z</time>
      </trkpt>
      <trkpt lat="51.716823019087315" lon="-9.955599037930369">
        <ele>11.67</ele>
        <time>2026-06-28T12:51:18Z</time>
      </trkpt>
      <trkpt lat="51.71690097078681" lon="-9.955561989918351">
        <ele>12.15</ele>
        <time>2026-06-28T12:51:19Z</time>
      </trkpt>
      <trkpt lat="51.716988980770111" lon="-9.955526031553745">
        <ele>12.630000000000001</ele>
        <time>2026-06-28T12:51:20Z</time>
      </trkpt>
      <trkpt lat="51.717086965218186" lon="-9.955566013231874">
        <ele>13.119999999999999</ele>
        <time>2026-06-28T12:51:21Z</time>
      </trkpt>
      <trkpt lat="51.717190984636545" lon="-9.955609012395144">
        <ele>13.119999999999999</ele>
        <time>2026-06-28T12:51:22Z</time>
      </trkpt>
      <trkpt lat="51.717454008758068" lon="-9.955715965479612">
        <ele>14.08</ele>
        <time>2026-06-28T12:51:25Z</time>
      </trkpt>
      <trkpt lat="51.717564985156059" lon="-9.955704985186458">
        <ele>14.08</ele>
        <time>2026-06-28T12:51:26Z</time>
      </trkpt>
      <trkpt lat="51.717667998746037" lon="-9.955695010721684">
        <ele>14.56</ele>
        <time>2026-06-28T12:51:27Z</time>
      </trkpt>
      <trkpt lat="51.717699011787772" lon="-9.955642959102988">
        <ele>15.52</ele>
        <time>2026-06-28T12:51:28Z</time>
      </trkpt>
      <trkpt lat="51.717747962102294" lon="-9.955558972433209">
        <ele>16.48</ele>
        <time>2026-06-28T12:51:29Z</time>
      </trkpt>
      <trkpt lat="51.717791967093945" lon="-9.955483032390475">
        <ele>17.440000000000001</ele>
        <time>2026-06-28T12:51:30Z</time>
      </trkpt>
      <trkpt lat="51.717870002612472" lon="-9.955456964671612">
        <ele>17.920000000000002</ele>
        <time>2026-06-28T12:51:31Z</time>
      </trkpt>
      <trkpt lat="51.717922976240516" lon="-9.955476997420192">
        <ele>18.879999999999999</ele>
        <time>2026-06-28T12:51:32Z</time>
      </trkpt>
      <trkpt lat="51.717977961525321" lon="-9.955609012395144">
        <ele>19.359999999999999</ele>
        <time>2026-06-28T12:51:33Z</time>
      </trkpt>
      <trkpt lat="51.717966981232166" lon="-9.955711020156741">
        <ele>19.84</ele>
        <time>2026-06-28T12:51:34Z</time>
      </trkpt>
      <trkpt lat="51.71795398928225" lon="-9.955840017646551">
        <ele>20.809999999999999</ele>
        <time>2026-06-28T12:51:35Z</time>
      </trkpt>
      <trkpt lat="51.717938985675573" lon="-9.955973960459232">
        <ele>21.289999999999999</ele>
        <time>2026-06-28T12:51:36Z</time>
      </trkpt>
      <trkpt lat="51.717922976240516" lon="-9.956125002354384">
        <ele>21.77</ele>
        <time>2026-06-28T12:51:37Z</time>
      </trkpt>
      <trkpt lat="51.717904033139348" lon="-9.956296999007464">
        <ele>21.77</ele>
        <time>2026-06-28T12:51:38Z</time>
      </trkpt>
      <trkpt lat="51.717830020934343" lon="-9.957672972232103">
        <ele>14.56</ele>
        <time>2026-06-28T12:51:46Z</time>
      </trkpt>
      <trkpt lat="51.717805964872241" lon="-9.957839017733932">
        <ele>13.6</ele>
        <time>2026-06-28T12:51:47Z</time>
      </trkpt>
      <trkpt lat="51.717767994850874" lon="-9.957972038537264">
        <ele>13.119999999999999</ele>
        <time>2026-06-28T12:51:48Z</time>
      </trkpt>
      <trkpt lat="51.717709992080927" lon="-9.958104975521565">
        <ele>13.119999999999999</ele>
        <time>2026-06-28T12:51:49Z</time>
      </trkpt>
      <trkpt lat="51.717648971825838" lon="-9.95824595913291">
        <ele>13.6</ele>
        <time>2026-06-28T12:51:50Z</time>
      </trkpt>
      <trkpt lat="51.717588035389781" lon="-9.958388032391667">
        <ele>13.6</ele>
        <time>2026-06-28T12:51:51Z</time>
      </trkpt>
      <trkpt lat="51.71752399764955" lon="-9.958533961325884">
        <ele>14.08</ele>
        <time>2026-06-28T12:51:52Z</time>
      </trkpt>
      <trkpt lat="51.716946987435222" lon="-9.959546998143196">
        <ele>18.399999999999999</ele>
        <time>2026-06-28T12:51:59Z</time>
      </trkpt>
      <trkpt lat="51.716611962765455" lon="-9.960044967010617">
        <ele>23.210000000000001</ele>
        <time>2026-06-28T12:52:03Z</time>
      </trkpt>
      <trkpt lat="51.716543985530734" lon="-9.960172958672047">
        <ele>25.129999999999999</ele>
        <time>2026-06-28T12:52:04Z</time>
      </trkpt>
      <trkpt lat="51.716472990810871" lon="-9.96030799113214">
        <ele>26.09</ele>
        <time>2026-06-28T12:52:05Z</time>
      </trkpt>
      <trkpt lat="51.716395039111376" lon="-9.96045601554215">
        <ele>27.050000000000001</ele>
        <time>2026-06-28T12:52:06Z</time>
      </trkpt>
      <trkpt lat="51.716329995542765" lon="-9.96062901802361">
        <ele>27.530000000000001</ele>
        <time>2026-06-28T12:52:07Z</time>
      </trkpt>
      <trkpt lat="51.716277021914721" lon="-9.960825992748141">
        <ele>28.5</ele>
        <time>2026-06-28T12:52:08Z</time>
      </trkpt>
      <trkpt lat="51.716225976124406" lon="-9.961010981351137">
        <ele>29.460000000000001</ele>
        <time>2026-06-28T12:52:09Z</time>
      </trkpt>
      <trkpt lat="51.716177025809884" lon="-9.961190018802881">
        <ele>29.940000000000001</ele>
        <time>2026-06-28T12:52:10Z</time>
      </trkpt>
      <trkpt lat="51.715936968103051" lon="-9.961859984323382">
        <ele>33.299999999999997</ele>
        <time>2026-06-28T12:52:14Z</time>
      </trkpt>
      <trkpt lat="51.715904027223587" lon="-9.962042039260268">
        <ele>34.259999999999998</ele>
        <time>2026-06-28T12:52:15Z</time>
      </trkpt>
      <trkpt lat="51.715897992253304" lon="-9.962209006771445">
        <ele>35.229999999999997</ele>
        <time>2026-06-28T12:52:16Z</time>
      </trkpt>
      <trkpt lat="51.715865973383188" lon="-9.962977040559053">
        <ele>36.670000000000002</ele>
        <time>2026-06-28T12:52:21Z</time>
      </trkpt>
      <trkpt lat="51.715903021395206" lon="-9.963093968108296">
        <ele>37.149999999999999</ele>
        <time>2026-06-28T12:52:22Z</time>
      </trkpt>
      <trkpt lat="51.715944008901715" lon="-9.96320896781981">
        <ele>38.109999999999999</ele>
        <time>2026-06-28T12:52:23Z</time>
      </trkpt>
      <trkpt lat="51.716036964207888" lon="-9.963466040790081">
        <ele>38.590000000000003</ele>
        <time>2026-06-28T12:52:25Z</time>
      </trkpt>
      <trkpt lat="51.716070994734764" lon="-9.9636169988662">
        <ele>39.07</ele>
        <time>2026-06-28T12:52:26Z</time>
      </trkpt>
      <trkpt lat="51.716093039140105" lon="-9.963786983862519">
        <ele>39.07</ele>
        <time>2026-06-28T12:52:27Z</time>
      </trkpt>
      <trkpt lat="51.716114999726415" lon="-9.963950011879206">
        <ele>39.07</ele>
        <time>2026-06-28T12:52:28Z</time>
      </trkpt>
      <trkpt lat="51.716135032474995" lon="-9.964097030460835">
        <ele>39.07</ele>
        <time>2026-06-28T12:52:29Z</time>
      </trkpt>
      <trkpt lat="51.716173002496362" lon="-9.964231979101896">
        <ele>38.590000000000003</ele>
        <time>2026-06-28T12:52:30Z</time>
      </trkpt>
      <trkpt lat="51.716237040236592" lon="-9.96436801739037">
        <ele>38.109999999999999</ele>
        <time>2026-06-28T12:52:31Z</time>
      </trkpt>
      <trkpt lat="51.716299988329411" lon="-9.964520987123251">
        <ele>37.630000000000003</ele>
        <time>2026-06-28T12:52:32Z</time>
      </trkpt>
      <trkpt lat="51.716390009969473" lon="-9.964986015111208">
        <ele>37.149999999999999</ele>
        <time>2026-06-28T12:52:35Z</time>
      </trkpt>
      <trkpt lat="51.716383974999189" lon="-9.965128004550934">
        <ele>36.670000000000002</ele>
        <time>2026-06-28T12:52:36Z</time>
      </trkpt>
      <trkpt lat="51.716350028291345" lon="-9.965274017304182">
        <ele>36.670000000000002</ele>
        <time>2026-06-28T12:52:37Z</time>
      </trkpt>
      <trkpt lat="51.716311974450946" lon="-9.965435033664107">
        <ele>36.670000000000002</ele>
        <time>2026-06-28T12:52:38Z</time>
      </trkpt>
      <trkpt lat="51.716271992772818" lon="-9.965606024488807">
        <ele>36.189999999999998</ele>
        <time>2026-06-28T12:52:39Z</time>
      </trkpt>
      <trkpt lat="51.716101001948118" lon="-9.966339021921158">
        <ele>33.780000000000001</ele>
        <time>2026-06-28T12:52:43Z</time>
      </trkpt>
      <trkpt lat="51.716017015278339" lon="-9.966698018833995">
        <ele>32.82</ele>
        <time>2026-06-28T12:52:45Z</time>
      </trkpt>
      <trkpt lat="51.715947026386857" lon="-9.966872027143836">
        <ele>32.82</ele>
        <time>2026-06-28T12:52:46Z</time>
      </trkpt>
      <trkpt lat="51.715509993955493" lon="-9.968416979536414">
        <ele>32.340000000000003</ele>
        <time>2026-06-28T12:52:55Z</time>
      </trkpt>
      <trkpt lat="51.715484010055661" lon="-9.968550000339747">
        <ele>32.340000000000003</ele>
        <time>2026-06-28T12:52:56Z</time>
      </trkpt>
      <trkpt lat="51.715448973700404" lon="-9.968688972294331">
        <ele>31.859999999999999</ele>
        <time>2026-06-28T12:52:57Z</time>
      </trkpt>
      <trkpt lat="51.715386025607586" lon="-9.968769019469619">
        <ele>31.859999999999999</ele>
        <time>2026-06-28T12:52:58Z</time>
      </trkpt>
      <trkpt lat="51.715328022837639" lon="-9.968844037503004">
        <ele>31.379999999999999</ele>
        <time>2026-06-28T12:52:59Z</time>
      </trkpt>
      <trkpt lat="51.715302038937807" lon="-9.968925006687641">
        <ele>30.899999999999999</ele>
        <time>2026-06-28T12:53:00Z</time>
      </trkpt>
      <trkpt lat="51.715290974825621" lon="-9.969033971428871">
        <ele>30.420000000000002</ele>
        <time>2026-06-28T12:53:01Z</time>
      </trkpt>
      <trkpt lat="51.715278988704085" lon="-9.969142014160752">
        <ele>30.420000000000002</ele>
        <time>2026-06-28T12:53:02Z</time>
      </trkpt>
      <trkpt lat="51.71526700258255" lon="-9.969253996387124">
        <ele>29.940000000000001</ele>
        <time>2026-06-28T12:53:03Z</time>
      </trkpt>
      <trkpt lat="51.715315030887723" lon="-9.969368996098638">
        <ele>29.940000000000001</ele>
        <time>2026-06-28T12:53:04Z</time>
      </trkpt>
      <trkpt lat="51.715366998687387" lon="-9.969463963061571">
        <ele>29.940000000000001</ele>
        <time>2026-06-28T12:53:05Z</time>
      </trkpt>
      <trkpt lat="51.715413015335798" lon="-9.969597989693284">
        <ele>29.940000000000001</ele>
        <time>2026-06-28T12:53:06Z</time>
      </trkpt>
      <trkpt lat="51.715444028377533" lon="-9.969732016324997">
        <ele>29.940000000000001</ele>
        <time>2026-06-28T12:53:07Z</time>
      </trkpt>
      <trkpt lat="51.715448973700404" lon="-9.969895966351032">
        <ele>29.460000000000001</ele>
        <time>2026-06-28T12:53:08Z</time>
      </trkpt>
      <trkpt lat="51.715435981750488" lon="-9.970057988539338">
        <ele>29.460000000000001</ele>
        <time>2026-06-28T12:53:09Z</time>
      </trkpt>
      <trkpt lat="51.715421983972192" lon="-9.970230991020799">
        <ele>28.98</ele>
        <time>2026-06-28T12:53:10Z</time>
      </trkpt>
      <trkpt lat="51.715405974537134" lon="-9.970412962138653">
        <ele>28.98</ele>
        <time>2026-06-28T12:53:11Z</time>
      </trkpt>
      <trkpt lat="51.71539600007236" lon="-9.970602979883552">
        <ele>28.98</ele>
        <time>2026-06-28T12:53:12Z</time>
      </trkpt>
      <trkpt lat="51.715407986193895" lon="-9.970778999850154">
        <ele>29.460000000000001</ele>
        <time>2026-06-28T12:53:13Z</time>
      </trkpt>
      <trkpt lat="51.71541896648705" lon="-9.970949990674853">
        <ele>29.940000000000001</ele>
        <time>2026-06-28T12:53:14Z</time>
      </trkpt>
      <trkpt lat="51.715430030599236" lon="-9.97111402451992">
        <ele>29.940000000000001</ele>
        <time>2026-06-28T12:53:15Z</time>
      </trkpt>
      <trkpt lat="51.715440005064011" lon="-9.971261965110898">
        <ele>30.420000000000002</ele>
        <time>2026-06-28T12:53:16Z</time>
      </trkpt>
      <trkpt lat="51.715458026155829" lon="-9.971527000889182">
        <ele>30.420000000000002</ele>
        <time>2026-06-28T12:53:18Z</time>
      </trkpt>
      <trkpt lat="51.715512005612254" lon="-9.971624985337257">
        <ele>30.420000000000002</ele>
        <time>2026-06-28T12:53:19Z</time>
      </trkpt>
      <trkpt lat="51.715570008382201" lon="-9.971698997542262">
        <ele>30.420000000000002</ele>
        <time>2026-06-28T12:53:20Z</time>
      </trkpt>
      <trkpt lat="51.715639997273684" lon="-9.971748031675816">
        <ele>30.899999999999999</ele>
        <time>2026-06-28T12:53:21Z</time>
      </trkpt>
      <trkpt lat="51.715716021135449" lon="-9.97180100530386">
        <ele>30.899999999999999</ele>
        <time>2026-06-28T12:53:22Z</time>
      </trkpt>
      <trkpt lat="51.715802019461989" lon="-9.971827995032072">
        <ele>30.420000000000002</ele>
        <time>2026-06-28T12:53:23Z</time>
      </trkpt>
      <trkpt lat="51.715906038880348" lon="-9.971820032224059">
        <ele>30.420000000000002</ele>
        <time>2026-06-28T12:53:24Z</time>
      </trkpt>
      <trkpt lat="51.716016009449959" lon="-9.971810979768634">
        <ele>29.940000000000001</ele>
        <time>2026-06-28T12:53:25Z</time>
      </trkpt>
      <trkpt lat="51.716133020818233" lon="-9.9718679767102">
        <ele>29.940000000000001</ele>
        <time>2026-06-28T12:53:26Z</time>
      </trkpt>
      <trkpt lat="51.716236034408212" lon="-9.971932014450431">
        <ele>29.940000000000001</ele>
        <time>2026-06-28T12:53:27Z</time>
      </trkpt>
      <trkpt lat="51.716333013027906" lon="-9.972023963928223">
        <ele>30.420000000000002</ele>
        <time>2026-06-28T12:53:28Z</time>
      </trkpt>
      <trkpt lat="51.716380035504699" lon="-9.972139969468117">
        <ele>30.899999999999999</ele>
        <time>2026-06-28T12:53:29Z</time>
      </trkpt>
      <trkpt lat="51.716425968334079" lon="-9.972255975008011">
        <ele>30.899999999999999</ele>
        <time>2026-06-28T12:53:30Z</time>
      </trkpt>
      <trkpt lat="51.716477014124393" lon="-9.972382038831711">
        <ele>30.899999999999999</ele>
        <time>2026-06-28T12:53:31Z</time>
      </trkpt>
      <trkpt lat="51.716937012970448" lon="-9.973533963784576">
        <ele>28.5</ele>
        <time>2026-06-28T12:53:38Z</time>
      </trkpt>
      <trkpt lat="51.717254016548395" lon="-9.974280036985874">
        <ele>27.530000000000001</ele>
        <time>2026-06-28T12:53:43Z</time>
      </trkpt>
      <trkpt lat="51.71728603541851" lon="-9.974387995898724">
        <ele>27.050000000000001</ele>
        <time>2026-06-28T12:53:44Z</time>
      </trkpt>
      <trkpt lat="51.717293998226523" lon="-9.974525040015578">
        <ele>27.050000000000001</ele>
        <time>2026-06-28T12:53:45Z</time>
      </trkpt>
      <trkpt lat="51.717318976297975" lon="-9.974933993071318">
        <ele>28.02</ele>
        <time>2026-06-28T12:53:48Z</time>
      </trkpt>
      <trkpt lat="51.717332974076271" lon="-9.975086040794849">
        <ele>28.5</ele>
        <time>2026-06-28T12:53:49Z</time>
      </trkpt>
      <trkpt lat="51.717411009594798" lon="-9.975942000746727">
        <ele>30.899999999999999</ele>
        <time>2026-06-28T12:53:54Z</time>
      </trkpt>
      <trkpt lat="51.717398017644882" lon="-9.976089019328356">
        <ele>31.379999999999999</ele>
        <time>2026-06-28T12:53:55Z</time>
      </trkpt>
      <trkpt lat="51.717363987118006" lon="-9.976231008768082">
        <ele>31.379999999999999</ele>
        <time>2026-06-28T12:53:56Z</time>
      </trkpt>
      <trkpt lat="51.7173280287534" lon="-9.976382972672582">
        <ele>31.379999999999999</ele>
        <time>2026-06-28T12:53:57Z</time>
      </trkpt>
      <trkpt lat="51.717289974913001" lon="-9.976539965718985">
        <ele>30.899999999999999</ele>
        <time>2026-06-28T12:53:58Z</time>
      </trkpt>
      <trkpt lat="51.717306990176439" lon="-9.976723026484251">
        <ele>29.940000000000001</ele>
        <time>2026-06-28T12:53:59Z</time>
      </trkpt>
      <trkpt lat="51.717332974076271" lon="-9.976880019530654">
        <ele>28.98</ele>
        <time>2026-06-28T12:54:00Z</time>
      </trkpt>
      <trkpt lat="51.717359963804483" lon="-9.97704204171896">
        <ele>28.02</ele>
        <time>2026-06-28T12:54:01Z</time>
      </trkpt>
      <trkpt lat="51.717388965189457" lon="-9.97721403837204">
        <ele>27.050000000000001</ele>
        <time>2026-06-28T12:54:02Z</time>
      </trkpt>
      <trkpt lat="51.71741696074605" lon="-9.97738603502512">
        <ele>26.09</ele>
        <time>2026-06-28T12:54:03Z</time>
      </trkpt>
      <trkpt lat="51.717444034293294" lon="-9.977547973394394">
        <ele>25.129999999999999</ele>
        <time>2026-06-28T12:54:04Z</time>
      </trkpt>
      <trkpt lat="51.717428024858236" lon="-9.977716030552983">
        <ele>24.649999999999999</ele>
        <time>2026-06-28T12:54:05Z</time>
      </trkpt>
      <trkpt lat="51.717314030975103" lon="-9.978221040219069">
        <ele>22.25</ele>
        <time>2026-06-28T12:54:08Z</time>
      </trkpt>
      <trkpt lat="51.717278994619846" lon="-9.978373004123569">
        <ele>21.77</ele>
        <time>2026-06-28T12:54:09Z</time>
      </trkpt>
      <trkpt lat="51.717248987406492" lon="-9.978508958593011">
        <ele>21.77</ele>
        <time>2026-06-28T12:54:10Z</time>
      </trkpt>
      <trkpt lat="51.717196013778448" lon="-9.978739963844419">
        <ele>21.77</ele>
        <time>2026-06-28T12:54:12Z</time>
      </trkpt>
      <trkpt lat="51.717184027656913" lon="-9.978869967162609">
        <ele>21.77</ele>
        <time>2026-06-28T12:54:13Z</time>
      </trkpt>
      <trkpt lat="51.717171035706997" lon="-9.979014974087477">
        <ele>21.289999999999999</ele>
        <time>2026-06-28T12:54:14Z</time>
      </trkpt>
      <trkpt lat="51.717153014615178" lon="-9.97921203263104">
        <ele>20.32</ele>
        <time>2026-06-28T12:54:15Z</time>
      </trkpt>
      <trkpt lat="51.717200959101319" lon="-9.979396015405655">
        <ele>19.359999999999999</ele>
        <time>2026-06-28T12:54:16Z</time>
      </trkpt>
      <trkpt lat="51.717257034033537" lon="-9.979607993736863">
        <ele>18.399999999999999</ele>
        <time>2026-06-28T12:54:17Z</time>
      </trkpt>
      <trkpt lat="51.717402962967753" lon="-9.980383990332484">
        <ele>17.920000000000002</ele>
        <time>2026-06-28T12:54:21Z</time>
      </trkpt>
      <trkpt lat="51.717411009594798" lon="-9.980521034449339">
        <ele>17.920000000000002</ele>
        <time>2026-06-28T12:54:22Z</time>
      </trkpt>
      <trkpt lat="51.717379996553063" lon="-9.980637039989233">
        <ele>18.399999999999999</ele>
        <time>2026-06-28T12:54:23Z</time>
      </trkpt>
      <trkpt lat="51.717312019318342" lon="-9.980896962806583">
        <ele>18.879999999999999</ele>
        <time>2026-06-28T12:54:25Z</time>
      </trkpt>
      <trkpt lat="51.717298021540046" lon="-9.981030989438295">
        <ele>19.359999999999999</ele>
        <time>2026-06-28T12:54:26Z</time>
      </trkpt>
      <trkpt lat="51.717289974913001" lon="-9.981199968606234">
        <ele>19.84</ele>
        <time>2026-06-28T12:54:27Z</time>
      </trkpt>
      <trkpt lat="51.717338003218174" lon="-9.982518022879958">
        <ele>23.210000000000001</ele>
        <time>2026-06-28T12:54:34Z</time>
      </trkpt>
      <trkpt lat="51.717343032360077" lon="-9.982621958479285">
        <ele>23.210000000000001</ele>
        <time>2026-06-28T12:54:35Z</time>
      </trkpt>
      <trkpt lat="51.717400029301643" lon="-9.982682978734374">
        <ele>23.690000000000001</ele>
        <time>2026-06-28T12:54:36Z</time>
      </trkpt>
      <trkpt lat="51.717470018193126" lon="-9.982676021754742">
        <ele>23.690000000000001</ele>
        <time>2026-06-28T12:54:37Z</time>
      </trkpt>
      <trkpt lat="51.717559034004807" lon="-9.982667975127697">
        <ele>24.170000000000002</ele>
        <time>2026-06-28T12:54:38Z</time>
      </trkpt>
      <trkpt lat="51.717661963775754" lon="-9.982656994834542">
        <ele>25.129999999999999</ele>
        <time>2026-06-28T12:54:39Z</time>
      </trkpt>
      <trkpt lat="51.717857010662556" lon="-9.982637967914343">
        <ele>28.02</ele>
        <time>2026-06-28T12:54:41Z</time>
      </trkpt>
      <trkpt lat="51.717929011210799" lon="-9.98263000510633">
        <ele>29.460000000000001</ele>
        <time>2026-06-28T12:54:42Z</time>
      </trkpt>
      <trkpt lat="51.718015009537339" lon="-9.982706028968096">
        <ele>30.899999999999999</ele>
        <time>2026-06-28T12:54:43Z</time>
      </trkpt>
      <trkpt lat="51.718046022579074" lon="-9.982805019244552">
        <ele>32.340000000000003</ele>
        <time>2026-06-28T12:54:44Z</time>
      </trkpt>
      <trkpt lat="51.718079969286919" lon="-9.982917001470923">
        <ele>34.259999999999998</ele>
        <time>2026-06-28T12:54:45Z</time>
      </trkpt>
      <trkpt lat="51.718118023127317" lon="-9.983038958162069">
        <ele>35.229999999999997</ele>
        <time>2026-06-28T12:54:46Z</time>
      </trkpt>
      <trkpt lat="51.718162028118968" lon="-9.983182037249208">
        <ele>36.189999999999998</ele>
        <time>2026-06-28T12:54:47Z</time>
      </trkpt>
      <trkpt lat="51.718221036717296" lon="-9.983240962028503">
        <ele>37.149999999999999</ele>
        <time>2026-06-28T12:54:48Z</time>
      </trkpt>
      <trkpt lat="51.71829798258841" lon="-9.98331799171865">
        <ele>38.590000000000003</ele>
        <time>2026-06-28T12:54:49Z</time>
      </trkpt>
      <trkpt lat="51.718378029763699" lon="-9.983398038893938">
        <ele>39.549999999999997</ele>
        <time>2026-06-28T12:54:50Z</time>
      </trkpt>
      <trkpt lat="51.718455981463194" lon="-9.983451012521982">
        <ele>40.990000000000002</ele>
        <time>2026-06-28T12:54:51Z</time>
      </trkpt>
      <trkpt lat="51.718676006421447" lon="-9.983523013070226">
        <ele>45.32</ele>
        <time>2026-06-28T12:54:55Z</time>
      </trkpt>
      <trkpt lat="51.718999966979027" lon="-9.983628960326314">
        <ele>49.159999999999997</ele>
        <time>2026-06-28T12:55:00Z</time>
      </trkpt>
      <trkpt lat="51.719080014154315" lon="-9.983654022216797">
        <ele>48.68</ele>
        <time>2026-06-28T12:55:01Z</time>
      </trkpt>
      <trkpt lat="51.719226026907563" lon="-9.983701966702938">
        <ele>47.719999999999999</ele>
        <time>2026-06-28T12:55:03Z</time>
      </trkpt>
      <trkpt lat="51.719342032447457" lon="-9.983740020543337">
        <ele>46.759999999999998</ele>
        <time>2026-06-28T12:55:04Z</time>
      </trkpt>
      <trkpt lat="51.719387965276837" lon="-9.983700038865209">
        <ele>46.280000000000001</ele>
        <time>2026-06-28T12:55:05Z</time>
      </trkpt>
      <trkpt lat="51.719457032158971" lon="-9.983642036095262">
        <ele>46.759999999999998</ele>
        <time>2026-06-28T12:55:06Z</time>
      </trkpt>
      <trkpt lat="51.719516962766647" lon="-9.983633989468217">
        <ele>47.240000000000002</ele>
        <time>2026-06-28T12:55:07Z</time>
      </trkpt>
      <trkpt lat="51.719583012163639" lon="-9.983691992238164">
        <ele>47.719999999999999</ele>
        <time>2026-06-28T12:55:08Z</time>
      </trkpt>
      <trkpt lat="51.719654006883502" lon="-9.983756029978395">
        <ele>48.200000000000003</ele>
        <time>2026-06-28T12:55:09Z</time>
      </trkpt>
      <trkpt lat="51.719730030745268" lon="-9.983824007213116">
        <ele>49.159999999999997</ele>
        <time>2026-06-28T12:55:10Z</time>
      </trkpt>
      <trkpt lat="51.719879982993007" lon="-9.983958033844829">
        <ele>50.609999999999999</ele>
        <time>2026-06-28T12:55:12Z</time>
      </trkpt>
      <trkpt lat="51.719960030168295" lon="-9.984004972502589">
        <ele>51.090000000000003</ele>
        <time>2026-06-28T12:55:13Z</time>
      </trkpt>
      <trkpt lat="51.720045022666454" lon="-9.984045960009098">
        <ele>51.090000000000003</ele>
        <time>2026-06-28T12:55:14Z</time>
      </trkpt>
      <trkpt lat="51.720136972144246" lon="-9.98409197665751">
        <ele>51.57</ele>
        <time>2026-06-28T12:55:15Z</time>
      </trkpt>
      <trkpt lat="51.720234034582973" lon="-9.984138999134302">
        <ele>51.57</ele>
        <time>2026-06-28T12:55:16Z</time>
      </trkpt>
      <trkpt lat="51.720331013202667" lon="-9.984186021611095">
        <ele>52.530000000000001</ele>
        <time>2026-06-28T12:55:17Z</time>
      </trkpt>
      <trkpt lat="51.720420029014349" lon="-9.984230026602745">
        <ele>53.490000000000002</ele>
        <time>2026-06-28T12:55:18Z</time>
      </trkpt>
      <trkpt lat="51.720579033717513" lon="-9.98430697247386">
        <ele>55.409999999999997</ele>
        <time>2026-06-28T12:55:20Z</time>
      </trkpt>
      <trkpt lat="51.720653967931867" lon="-9.984344020485878">
        <ele>56.859999999999999</ele>
        <time>2026-06-28T12:55:21Z</time>
      </trkpt>
      <trkpt lat="51.720737032592297" lon="-9.984384002164006">
        <ele>57.82</ele>
        <time>2026-06-28T12:55:22Z</time>
      </trkpt>
      <trkpt lat="51.720822025090456" lon="-9.984341003000736">
        <ele>58.780000000000001</ele>
        <time>2026-06-28T12:55:23Z</time>
      </trkpt>
      <trkpt lat="51.720921015366912" lon="-9.984291968867183">
        <ele>59.259999999999998</ele>
        <time>2026-06-28T12:55:24Z</time>
      </trkpt>
      <trkpt lat="51.721235001459718" lon="-9.98413497582078">
        <ele>63.100000000000001</ele>
        <time>2026-06-28T12:55:27Z</time>
      </trkpt>
      <trkpt lat="51.721331980079412" lon="-9.984086025506258">
        <ele>64.549999999999997</ele>
        <time>2026-06-28T12:55:28Z</time>
      </trkpt>
      <trkpt lat="51.721419990062714" lon="-9.984042020514607">
        <ele>65.989999999999995</ele>
        <time>2026-06-28T12:55:29Z</time>
      </trkpt>
      <trkpt lat="51.721500959247351" lon="-9.984015030786395">
        <ele>66.950000000000003</ele>
        <time>2026-06-28T12:55:30Z</time>
      </trkpt>
      <trkpt lat="51.721592992544174" lon="-9.984002960845828">
        <ele>68.390000000000001</ele>
        <time>2026-06-28T12:55:31Z</time>
      </trkpt>
      <trkpt lat="51.721689971163869" lon="-9.983990974724293">
        <ele>69.829999999999998</ele>
        <time>2026-06-28T12:55:32Z</time>
      </trkpt>
      <trkpt lat="51.721788039430976" lon="-9.983978988602758">
        <ele>71.269999999999996</ele>
        <time>2026-06-28T12:55:33Z</time>
      </trkpt>
      <trkpt lat="51.721883006393909" lon="-9.983965996652842">
        <ele>72.719999999999999</ele>
        <time>2026-06-28T12:55:34Z</time>
      </trkpt>
      <trkpt lat="51.721997000277042" lon="-9.983901958912611">
        <ele>74.159999999999997</ele>
        <time>2026-06-28T12:55:35Z</time>
      </trkpt>
      <trkpt lat="51.722475020214915" lon="-9.983460986986756">
        <ele>81.849999999999994</ele>
        <time>2026-06-28T12:55:41Z</time>
      </trkpt>
      <trkpt lat="51.722521958872676" lon="-9.983516978099942">
        <ele>83.290000000000006</ele>
        <time>2026-06-28T12:55:42Z</time>
      </trkpt>
      <trkpt lat="51.722555989399552" lon="-9.983558971434832">
        <ele>83.769999999999996</ele>
        <time>2026-06-28T12:55:43Z</time>
      </trkpt>
      <trkpt lat="51.722580967471004" lon="-9.98359702527523">
        <ele>84.730000000000004</ele>
        <time>2026-06-28T12:55:44Z</time>
      </trkpt>
      <trkpt lat="51.722570993006229" lon="-9.983701966702938">
        <ele>85.689999999999998</ele>
        <time>2026-06-28T12:55:45Z</time>
      </trkpt>
      <trkpt lat="51.722559006884694" lon="-9.983830964192748">
        <ele>86.180000000000007</ele>
        <time>2026-06-28T12:55:46Z</time>
      </trkpt>
      <trkpt lat="51.722546014934778" lon="-9.983968008309603">
        <ele>86.180000000000007</ele>
        <time>2026-06-28T12:55:47Z</time>
      </trkpt>
      <trkpt lat="51.722510978579521" lon="-9.984331028535962">
        <ele>86.659999999999997</ele>
        <time>2026-06-28T12:55:50Z</time>
      </trkpt>
      <trkpt lat="51.722502009943128" lon="-9.984427001327276">
        <ele>87.140000000000001</ele>
        <time>2026-06-28T12:55:51Z</time>
      </trkpt>
      <trkpt lat="51.722520031034946" lon="-9.984518028795719">
        <ele>87.620000000000005</ele>
        <time>2026-06-28T12:55:52Z</time>
      </trkpt>
      <trkpt lat="51.722576022148132" lon="-9.984581982716918">
        <ele>87.620000000000005</ele>
        <time>2026-06-28T12:55:53Z</time>
      </trkpt>
      <trkpt lat="51.722638970240951" lon="-9.984654989093542">
        <ele>87.620000000000005</ele>
        <time>2026-06-28T12:55:54Z</time>
      </trkpt>
      <trkpt lat="51.722708959132433" lon="-9.984622970223427">
        <ele>87.140000000000001</ele>
        <time>2026-06-28T12:55:55Z</time>
      </trkpt>
      <trkpt lat="51.722788000479341" lon="-9.984573014080524">
        <ele>86.180000000000007</ele>
        <time>2026-06-28T12:55:56Z</time>
      </trkpt>
      <trkpt lat="51.722870981320739" lon="-9.984520962461829">
        <ele>85.689999999999998</ele>
        <time>2026-06-28T12:55:57Z</time>
      </trkpt>
      <trkpt lat="51.722951028496027" lon="-9.984470000490546">
        <ele>85.209999999999994</ele>
        <time>2026-06-28T12:55:58Z</time>
      </trkpt>
      <trkpt lat="51.723024034872651" lon="-9.984423983842135">
        <ele>84.25</ele>
        <time>2026-06-28T12:55:59Z</time>
      </trkpt>
      <trkpt lat="51.723071979358792" lon="-9.984422978013754">
        <ele>83.290000000000006</ele>
        <time>2026-06-28T12:56:00Z</time>
      </trkpt>
      <trkpt lat="51.723121013492346" lon="-9.984472012147307">
        <ele>82.810000000000002</ele>
        <time>2026-06-28T12:56:01Z</time>
      </trkpt>
      <trkpt lat="51.723167030140758" lon="-9.984526997432113">
        <ele>81.849999999999994</ele>
        <time>2026-06-28T12:56:02Z</time>
      </trkpt>
      <trkpt lat="51.723208017647266" lon="-9.984635040163994">
        <ele>80.409999999999997</ele>
        <time>2026-06-28T12:56:03Z</time>
      </trkpt>
      <trkpt lat="51.723255040124059" lon="-9.984759008511901">
        <ele>79.450000000000003</ele>
        <time>2026-06-28T12:56:04Z</time>
      </trkpt>
      <trkpt lat="51.7233029846102" lon="-9.98488599434495">
        <ele>78.480000000000004</ele>
        <time>2026-06-28T12:56:05Z</time>
      </trkpt>
      <trkpt lat="51.723350007086992" lon="-9.985009040683508">
        <ele>77.040000000000006</ele>
        <time>2026-06-28T12:56:06Z</time>
      </trkpt>
      <trkpt lat="51.723397029563785" lon="-9.985135020688176">
        <ele>76.079999999999998</ele>
        <time>2026-06-28T12:56:07Z</time>
      </trkpt>
      <trkpt lat="51.723484033718705" lon="-9.985184976831079">
        <ele>75.120000000000005</ele>
        <time>2026-06-28T12:56:08Z</time>
      </trkpt>
      <trkpt lat="51.723580006510019" lon="-9.985240967944264">
        <ele>74.159999999999997</ele>
        <time>2026-06-28T12:56:09Z</time>
      </trkpt>
      <trkpt lat="51.723672961816192" lon="-9.985295031219721">
        <ele>74.159999999999997</ele>
        <time>2026-06-28T12:56:10Z</time>
      </trkpt>
      <trkpt lat="51.723841018974781" lon="-9.985394021496177">
        <ele>74.159999999999997</ele>
        <time>2026-06-28T12:56:12Z</time>
      </trkpt>
      <trkpt lat="51.724016033113003" lon="-9.985458981245756">
        <ele>71.760000000000005</ele>
        <time>2026-06-28T12:56:14Z</time>
      </trkpt>
      <trkpt lat="51.724106976762414" lon="-9.985480019822717">
        <ele>70.790000000000006</ele>
        <time>2026-06-28T12:56:15Z</time>
      </trkpt>
      <trkpt lat="51.724196998402476" lon="-9.985493011772633">
        <ele>70.310000000000002</ele>
        <time>2026-06-28T12:56:16Z</time>
      </trkpt>
      <trkpt lat="51.724262963980436" lon="-9.985415982082486">
        <ele>70.310000000000002</ele>
        <time>2026-06-28T12:56:17Z</time>
      </trkpt>
      <trkpt lat="51.724331025034189" lon="-9.98533601872623">
        <ele>70.790000000000006</ele>
        <time>2026-06-28T12:56:18Z</time>
      </trkpt>
      <trkpt lat="51.724400008097291" lon="-9.98525395989418">
        <ele>71.269999999999996</ele>
        <time>2026-06-28T12:56:19Z</time>
      </trkpt>
      <trkpt lat="51.724469996988773" lon="-9.985171984881163">
        <ele>71.760000000000005</ele>
        <time>2026-06-28T12:56:20Z</time>
      </trkpt>
      <trkpt lat="51.724539985880256" lon="-9.985090009868145">
        <ele>72.719999999999999</ele>
        <time>2026-06-28T12:56:21Z</time>
      </trkpt>
      <trkpt lat="51.724651968106627" lon="-9.9851009901613">
        <ele>73.680000000000007</ele>
        <time>2026-06-28T12:56:22Z</time>
      </trkpt>
      <trkpt lat="51.724735032767057" lon="-9.985126974061132">
        <ele>74.159999999999997</ele>
        <time>2026-06-28T12:56:23Z</time>
      </trkpt>
      <trkpt lat="51.72480602748692" lon="-9.985149018466473">
        <ele>75.120000000000005</ele>
        <time>2026-06-28T12:56:24Z</time>
      </trkpt>
      <trkpt lat="51.724863024428487" lon="-9.985167039558291">
        <ele>76.079999999999998</ele>
        <time>2026-06-28T12:56:25Z</time>
      </trkpt>
      <trkpt lat="51.725019011646509" lon="-9.985170979052782">
        <ele>78</ele>
        <time>2026-06-28T12:56:28Z</time>
      </trkpt>
      <trkpt lat="51.725070979446173" lon="-9.98514499515295">
        <ele>78.480000000000004</ele>
        <time>2026-06-28T12:56:29Z</time>
      </trkpt>
      <trkpt lat="51.725116996094584" lon="-9.98512202873826">
        <ele>78.969999999999999</ele>
        <time>2026-06-28T12:56:30Z</time>
      </trkpt>
      <trkpt lat="51.725142979994416" lon="-9.985066959634423">
        <ele>79.450000000000003</ele>
        <time>2026-06-28T12:56:31Z</time>
      </trkpt>
      <trkpt lat="51.725157983601093" lon="-9.984979033470154">
        <ele>79.450000000000003</ele>
        <time>2026-06-28T12:56:32Z</time>
      </trkpt>
      <trkpt lat="51.72517298720777" lon="-9.984884988516569">
        <ele>79.930000000000007</ele>
        <time>2026-06-28T12:56:33Z</time>
      </trkpt>
      <trkpt lat="51.725190002471209" lon="-9.984787004068494">
        <ele>79.930000000000007</ele>
        <time>2026-06-28T12:56:34Z</time>
      </trkpt>
      <trkpt lat="51.725216992199421" lon="-9.984683990478516">
        <ele>79.930000000000007</ele>
        <time>2026-06-28T12:56:35Z</time>
      </trkpt>
      <trkpt lat="51.725254962220788" lon="-9.98458600603044">
        <ele>79.930000000000007</ele>
        <time>2026-06-28T12:56:36Z</time>
      </trkpt>
      <trkpt lat="51.725514968857169" lon="-9.983930038288236">
        <ele>74.640000000000001</ele>
        <time>2026-06-28T12:56:42Z</time>
      </trkpt>
      <trkpt lat="51.72577396966517" lon="-9.98349099420011">
        <ele>69.349999999999994</ele>
        <time>2026-06-28T12:56:47Z</time>
      </trkpt>
      <trkpt lat="51.726036993786693" lon="-9.983095033094287">
        <ele>64.549999999999997</ele>
        <time>2026-06-28T12:56:52Z</time>
      </trkpt>
      <trkpt lat="51.726532028988004" lon="-9.982137987390161">
        <ele>53.490000000000002</ele>
        <time>2026-06-28T12:57:02Z</time>
      </trkpt>
      <trkpt lat="51.72658802010119" lon="-9.982047965750098">
        <ele>52.049999999999997</ele>
        <time>2026-06-28T12:57:03Z</time>
      </trkpt>
      <trkpt lat="51.726645017042756" lon="-9.981955010443926">
        <ele>50.130000000000003</ele>
        <time>2026-06-28T12:57:04Z</time>
      </trkpt>
      <trkpt lat="51.726702013984323" lon="-9.981861971318722">
        <ele>48.200000000000003</ele>
        <time>2026-06-28T12:57:05Z</time>
      </trkpt>
      <trkpt lat="51.726758005097508" lon="-9.981771027669311">
        <ele>46.759999999999998</ele>
        <time>2026-06-28T12:57:06Z</time>
      </trkpt>
      <trkpt lat="51.726867975667119" lon="-9.981591990217567">
        <ele>43.399999999999999</ele>
        <time>2026-06-28T12:57:08Z</time>
      </trkpt>
      <trkpt lat="51.726923966780305" lon="-9.981500962749124">
        <ele>41.950000000000003</ele>
        <time>2026-06-28T12:57:09Z</time>
      </trkpt>
      <trkpt lat="51.726969983428717" lon="-9.981414964422584">
        <ele>40.509999999999998</ele>
        <time>2026-06-28T12:57:10Z</time>
      </trkpt>
      <trkpt lat="51.727016000077128" lon="-9.981295019388199">
        <ele>39.07</ele>
        <time>2026-06-28T12:57:11Z</time>
      </trkpt>
      <trkpt lat="51.727064028382301" lon="-9.98116803355515">
        <ele>38.109999999999999</ele>
        <time>2026-06-28T12:57:12Z</time>
      </trkpt>
      <trkpt lat="51.727162012830377" lon="-9.98090903274715">
        <ele>35.710000000000001</ele>
        <time>2026-06-28T12:57:14Z</time>
      </trkpt>
      <trkpt lat="51.72721004113555" lon="-9.98078003525734">
        <ele>34.740000000000002</ele>
        <time>2026-06-28T12:57:15Z</time>
      </trkpt>
      <trkpt lat="51.727827033028007" lon="-9.979247990995646">
        <ele>33.780000000000001</ele>
        <time>2026-06-28T12:57:26Z</time>
      </trkpt>
      <trkpt lat="51.728397002443671" lon="-9.97792499139905">
        <ele>34.259999999999998</ele>
        <time>2026-06-28T12:57:36Z</time>
      </trkpt>
      <trkpt lat="51.728697996586561" lon="-9.977594995871186">
        <ele>31.859999999999999</ele>
        <time>2026-06-28T12:57:39Z</time>
      </trkpt>
      <trkpt lat="51.728787012398243" lon="-9.977498017251492">
        <ele>31.379999999999999</ele>
        <time>2026-06-28T12:57:40Z</time>
      </trkpt>
      <trkpt lat="51.728848032653332" lon="-9.977430962026119">
        <ele>31.379999999999999</ele>
        <time>2026-06-28T12:57:41Z</time>
      </trkpt>
      <trkpt lat="51.728905029594898" lon="-9.977284027263522">
        <ele>31.379999999999999</ele>
        <time>2026-06-28T12:57:42Z</time>
      </trkpt>
      <trkpt lat="51.728954985737801" lon="-9.977155029773712">
        <ele>31.859999999999999</ele>
        <time>2026-06-28T12:57:43Z</time>
      </trkpt>
      <trkpt lat="51.729007037356496" lon="-9.977008011192083">
        <ele>33.299999999999997</ele>
        <time>2026-06-28T12:57:44Z</time>
      </trkpt>
      <trkpt lat="51.729386989027262" lon="-9.97547403909266">
        <ele>43.399999999999999</ele>
        <time>2026-06-28T12:57:52Z</time>
      </trkpt>
      <trkpt lat="51.729759983718395" lon="-9.973918022587895">
        <ele>46.759999999999998</ele>
        <time>2026-06-28T12:58:00Z</time>
      </trkpt>
      <trkpt lat="51.730157034471631" lon="-9.972565015777946">
        <ele>48.200000000000003</ele>
        <time>2026-06-28T12:58:08Z</time>
      </trkpt>
      <trkpt lat="51.730679981410503" lon="-9.970817975699902">
        <ele>50.130000000000003</ele>
        <time>2026-06-28T12:58:18Z</time>
      </trkpt>
      <trkpt lat="51.731337960809469" lon="-9.968806989490986">
        <ele>53.969999999999999</ele>
        <time>2026-06-28T12:58:29Z</time>
      </trkpt>
      <trkpt lat="51.732053020969033" lon="-9.966748980805278">
        <ele>51.57</ele>
        <time>2026-06-28T12:58:41Z</time>
      </trkpt>
      <trkpt lat="51.732429033145308" lon="-9.96548498980701">
        <ele>48.200000000000003</ele>
        <time>2026-06-28T12:58:49Z</time>
      </trkpt>
      <trkpt lat="51.732514025643468" lon="-9.964746041223407">
        <ele>43.880000000000003</ele>
        <time>2026-06-28T12:58:53Z</time>
      </trkpt>
      <trkpt lat="51.732508996501565" lon="-9.964587958529592">
        <ele>43.880000000000003</ele>
        <time>2026-06-28T12:58:54Z</time>
      </trkpt>
      <trkpt lat="51.732502961531281" lon="-9.964444963261485">
        <ele>44.359999999999999</ele>
        <time>2026-06-28T12:58:55Z</time>
      </trkpt>
      <trkpt lat="51.732494998723269" lon="-9.964234996587038">
        <ele>44.359999999999999</ele>
        <time>2026-06-28T12:58:57Z</time>
      </trkpt>
      <trkpt lat="51.732529029250145" lon="-9.964083032682538">
        <ele>44.840000000000003</ele>
        <time>2026-06-28T12:58:58Z</time>
      </trkpt>
      <trkpt lat="51.732553001493216" lon="-9.963971972465515">
        <ele>44.359999999999999</ele>
        <time>2026-06-28T12:58:59Z</time>
      </trkpt>
      <trkpt lat="51.732579991221428" lon="-9.963850015774369">
        <ele>43.880000000000003</ele>
        <time>2026-06-28T12:59:00Z</time>
      </trkpt>
      <trkpt lat="51.732609998434782" lon="-9.963710960000753">
        <ele>42.920000000000002</ele>
        <time>2026-06-28T12:59:01Z</time>
      </trkpt>
      <trkpt lat="51.732817031443119" lon="-9.963045017793775">
        <ele>38.590000000000003</ele>
        <time>2026-06-28T12:59:06Z</time>
      </trkpt>
      <trkpt lat="51.732837986201048" lon="-9.962983997538686">
        <ele>38.109999999999999</ele>
        <time>2026-06-28T12:59:07Z</time>
      </trkpt>
      <trkpt lat="51.732847960665822" lon="-9.962951978668571">
        <ele>37.630000000000003</ele>
        <time>2026-06-28T12:59:08Z</time>
      </trkpt>
      <trkpt lat="51.732847960665822" lon="-9.962951978668571">
        <ele>37.630000000000003</ele>
        <time>2026-06-28T12:59:23Z</time>
      </trkpt>
      <trkpt lat="51.732849972322583" lon="-9.96294803917408">
        <ele>37.630000000000003</ele>
        <time>2026-06-28T12:59:34Z</time>
      </trkpt>
      <trkpt lat="51.732862964272499" lon="-9.962908979505301">
        <ele>36.189999999999998</ele>
        <time>2026-06-28T12:59:35Z</time>
      </trkpt>
      <trkpt lat="51.732888026162982" lon="-9.962834967300296">
        <ele>35.229999999999997</ele>
        <time>2026-06-28T12:59:36Z</time>
      </trkpt>
      <trkpt lat="51.733134035021067" lon="-9.961945982649922">
        <ele>31.859999999999999</ele>
        <time>2026-06-28T12:59:43Z</time>
      </trkpt>
      <trkpt lat="51.73318600282073" lon="-9.961731992661953">
        <ele>32.340000000000003</ele>
        <time>2026-06-28T12:59:45Z</time>
      </trkpt>
      <trkpt lat="51.733234031125903" lon="-9.961412977427244">
        <ele>32.82</ele>
        <time>2026-06-28T12:59:48Z</time>
      </trkpt>
      <trkpt lat="51.733246017247438" lon="-9.961321027949452">
        <ele>32.340000000000003</ele>
        <time>2026-06-28T12:59:49Z</time>
      </trkpt>
      <trkpt lat="51.733255991712213" lon="-9.961237041279674">
        <ele>32.340000000000003</ele>
        <time>2026-06-28T12:59:50Z</time>
      </trkpt>
      <trkpt lat="51.733226990327239" lon="-9.960574032738805">
        <ele>29.460000000000001</ele>
        <time>2026-06-28T12:59:56Z</time>
      </trkpt>
      <trkpt lat="51.73322799615562" lon="-9.960440006107092">
        <ele>28.98</ele>
        <time>2026-06-28T12:59:57Z</time>
      </trkpt>
      <trkpt lat="51.733232019469142" lon="-9.960308996960521">
        <ele>28.02</ele>
        <time>2026-06-28T12:59:58Z</time>
      </trkpt>
      <trkpt lat="51.733240988105536" lon="-9.960024012252688">
        <ele>26.57</ele>
        <time>2026-06-28T13:00:00Z</time>
      </trkpt>
      <trkpt lat="51.733245011419058" lon="-9.959893003106117">
        <ele>25.609999999999999</ele>
        <time>2026-06-28T13:00:01Z</time>
      </trkpt>
      <trkpt lat="51.733264960348606" lon="-9.959780015051365">
        <ele>24.170000000000002</ele>
        <time>2026-06-28T13:00:02Z</time>
      </trkpt>
      <trkpt lat="51.733305025845766" lon="-9.959657974541187">
        <ele>22.73</ele>
        <time>2026-06-28T13:00:03Z</time>
      </trkpt>
      <trkpt lat="51.733342995867133" lon="-9.959539035335183">
        <ele>21.289999999999999</ele>
        <time>2026-06-28T13:00:04Z</time>
      </trkpt>
      <trkpt lat="51.733613982796669" lon="-9.958648961037397">
        <ele>11.67</ele>
        <time>2026-06-28T13:00:11Z</time>
      </trkpt>
      <trkpt lat="51.733638038858771" lon="-9.958514012396336">
        <ele>11.19</ele>
        <time>2026-06-28T13:00:12Z</time>
      </trkpt>
      <trkpt lat="51.733662011101842" lon="-9.958376968279481">
        <ele>10.23</ele>
        <time>2026-06-28T13:00:13Z</time>
      </trkpt>
      <trkpt lat="51.733707021921873" lon="-9.958127019926906">
        <ele>8.789999999999999</ele>
        <time>2026-06-28T13:00:15Z</time>
      </trkpt>
      <trkpt lat="51.733728982508183" lon="-9.958001039922237">
        <ele>8.789999999999999</ele>
        <time>2026-06-28T13:00:16Z</time>
      </trkpt>
      <trkpt lat="51.733753038570285" lon="-9.957865001633763">
        <ele>8.789999999999999</ele>
        <time>2026-06-28T13:00:17Z</time>
      </trkpt>
      <trkpt lat="51.733770975843072" lon="-9.95772804133594">
        <ele>8.789999999999999</ele>
        <time>2026-06-28T13:00:18Z</time>
      </trkpt>
      <trkpt lat="51.733784973621368" lon="-9.957586973905563">
        <ele>8.789999999999999</ele>
        <time>2026-06-28T13:00:19Z</time>
      </trkpt>
      <trkpt lat="51.733799977228045" lon="-9.957444984465838">
        <ele>8.789999999999999</ele>
        <time>2026-06-28T13:00:20Z</time>
      </trkpt>
      <trkpt lat="51.733813975006342" lon="-9.957307018339634">
        <ele>9.27</ele>
        <time>2026-06-28T13:00:21Z</time>
      </trkpt>
      <trkpt lat="51.733826966956258" lon="-9.95717198587954">
        <ele>9.75</ele>
        <time>2026-06-28T13:00:22Z</time>
      </trkpt>
      <trkpt lat="51.733841970562935" lon="-9.957033013924956">
        <ele>10.710000000000001</ele>
        <time>2026-06-28T13:00:23Z</time>
      </trkpt>
      <trkpt lat="51.733994018286467" lon="-9.956299010664225">
        <ele>17.440000000000001</ele>
        <time>2026-06-28T13:00:28Z</time>
      </trkpt>
      <trkpt lat="51.734035005792975" lon="-9.956146962940693">
        <ele>18.879999999999999</ele>
        <time>2026-06-28T13:00:29Z</time>
      </trkpt>
      <trkpt lat="51.734180012717843" lon="-9.95560297742486">
        <ele>23.690000000000001</ele>
        <time>2026-06-28T13:00:33Z</time>
      </trkpt>
      <trkpt lat="51.734404982998967" lon="-9.954773001372814">
        <ele>30.899999999999999</ele>
        <time>2026-06-28T13:00:40Z</time>
      </trkpt>
      <trkpt lat="51.734435996040702" lon="-9.954664036631584">
        <ele>30.899999999999999</ele>
        <time>2026-06-28T13:00:41Z</time>
      </trkpt>
      <trkpt lat="51.734468014910817" lon="-9.9545509647578">
        <ele>30.420000000000002</ele>
        <time>2026-06-28T13:00:42Z</time>
      </trkpt>
      <trkpt lat="51.734497016295791" lon="-9.954449040815234">
        <ele>29.940000000000001</ele>
        <time>2026-06-28T13:00:43Z</time>
      </trkpt>
      <trkpt lat="51.734525011852384" lon="-9.954353990033269">
        <ele>29.460000000000001</ele>
        <time>2026-06-28T13:00:44Z</time>
      </trkpt>
      <trkpt lat="51.734549989923835" lon="-9.954265980049968">
        <ele>28.5</ele>
        <time>2026-06-28T13:00:45Z</time>
      </trkpt>
      <trkpt lat="51.734573040157557" lon="-9.954186016693711">
        <ele>28.02</ele>
        <time>2026-06-28T13:00:46Z</time>
      </trkpt>
      <trkpt lat="51.734611010178924" lon="-9.95416296645999">
        <ele>27.530000000000001</ele>
        <time>2026-06-28T13:00:47Z</time>
      </trkpt>
      <trkpt lat="51.734653003513813" lon="-9.954151986166835">
        <ele>27.050000000000001</ele>
        <time>2026-06-28T13:00:48Z</time>
      </trkpt>
      <trkpt lat="51.734706982970238" lon="-9.954138994216919">
        <ele>26.57</ele>
        <time>2026-06-28T13:00:49Z</time>
      </trkpt>
      <trkpt lat="51.734771020710468" lon="-9.954122984781861">
        <ele>26.09</ele>
        <time>2026-06-28T13:00:50Z</time>
      </trkpt>
      <trkpt lat="51.734830029308796" lon="-9.954107981175184">
        <ele>25.609999999999999</ele>
        <time>2026-06-28T13:00:51Z</time>
      </trkpt>
      <trkpt lat="51.734884008765221" lon="-9.954094989225268">
        <ele>25.609999999999999</ele>
        <time>2026-06-28T13:00:52Z</time>
      </trkpt>
      <trkpt lat="51.734934970736504" lon="-9.954081997275353">
        <ele>25.609999999999999</ele>
        <time>2026-06-28T13:00:53Z</time>
      </trkpt>
      <trkpt lat="51.735005965456367" lon="-9.954063976183534">
        <ele>25.609999999999999</ele>
        <time>2026-06-28T13:00:54Z</time>
      </trkpt>
      <trkpt lat="51.735045025125146" lon="-9.954021982848644">
        <ele>25.609999999999999</ele>
        <time>2026-06-28T13:00:55Z</time>
      </trkpt>
      <trkpt lat="51.735103027895093" lon="-9.953960962593556">
        <ele>25.609999999999999</ele>
        <time>2026-06-28T13:00:56Z</time>
      </trkpt>
      <trkpt lat="51.735166981816292" lon="-9.953893991187215">
        <ele>25.129999999999999</ele>
        <time>2026-06-28T13:00:57Z</time>
      </trkpt>
      <trkpt lat="51.735234037041664" lon="-9.953821990638971">
        <ele>25.129999999999999</ele>
        <time>2026-06-28T13:00:58Z</time>
      </trkpt>
      <trkpt lat="51.735370997339487" lon="-9.953677989542484">
        <ele>24.649999999999999</ele>
        <time>2026-06-28T13:01:00Z</time>
      </trkpt>
      <trkpt lat="51.735422965139151" lon="-9.953571036458015">
        <ele>24.649999999999999</ele>
        <time>2026-06-28T13:01:01Z</time>
      </trkpt>
      <trkpt lat="51.735473005101085" lon="-9.953470034524798">
        <ele>24.170000000000002</ele>
        <time>2026-06-28T13:01:02Z</time>
      </trkpt>
      <trkpt lat="51.735521033406258" lon="-9.953371966257691">
        <ele>23.690000000000001</ele>
        <time>2026-06-28T13:01:03Z</time>
      </trkpt>
      <trkpt lat="51.735567972064018" lon="-9.953275993466377">
        <ele>23.690000000000001</ele>
        <time>2026-06-28T13:01:04Z</time>
      </trkpt>
      <trkpt lat="51.735617006197572" lon="-9.953177003189921">
        <ele>23.690000000000001</ele>
        <time>2026-06-28T13:01:05Z</time>
      </trkpt>
      <trkpt lat="51.735665034502745" lon="-9.953079018741846">
        <ele>24.170000000000002</ele>
        <time>2026-06-28T13:01:06Z</time>
      </trkpt>
      <trkpt lat="51.735713984817266" lon="-9.95297902263701">
        <ele>24.649999999999999</ele>
        <time>2026-06-28T13:01:07Z</time>
      </trkpt>
      <trkpt lat="51.736059989780188" lon="-9.952098000794649">
        <ele>32.82</ele>
        <time>2026-06-28T13:01:14Z</time>
      </trkpt>
      <trkpt lat="51.736110029742122" lon="-9.951932039111853">
        <ele>34.259999999999998</ele>
        <time>2026-06-28T13:01:15Z</time>
      </trkpt>
      <trkpt lat="51.736529041081667" lon="-9.950523041188717">
        <ele>43.880000000000003</ele>
        <time>2026-06-28T13:01:24Z</time>
      </trkpt>
      <trkpt lat="51.736660972237587" lon="-9.949807981029153">
        <ele>47.240000000000002</ele>
        <time>2026-06-28T13:01:28Z</time>
      </trkpt>
      <trkpt lat="51.736691985279322" lon="-9.949636990204454">
        <ele>48.200000000000003</ele>
        <time>2026-06-28T13:01:29Z</time>
      </trkpt>
      <trkpt lat="51.736848978325725" lon="-9.948523035272956">
        <ele>59.740000000000002</ele>
        <time>2026-06-28T13:01:36Z</time>
      </trkpt>
      <trkpt lat="51.736869011074305" lon="-9.948375010862947">
        <ele>61.18</ele>
        <time>2026-06-28T13:01:37Z</time>
      </trkpt>
      <trkpt lat="51.73718299716711" lon="-9.947041030973196">
        <ele>66.469999999999999</ele>
        <time>2026-06-28T13:01:48Z</time>
      </trkpt>
      <trkpt lat="51.737209986895323" lon="-9.946933994069696">
        <ele>65.030000000000001</ele>
        <time>2026-06-28T13:01:56Z</time>
      </trkpt>
      <trkpt lat="51.737209986895323" lon="-9.946933994069696">
        <ele>65.030000000000001</ele>
        <time>2026-06-28T13:02:33Z</time>
      </trkpt>
      <trkpt lat="51.737236976623535" lon="-9.946827962994576">
        <ele>66.469999999999999</ele>
        <time>2026-06-28T13:02:35Z</time>
      </trkpt>
      <trkpt lat="51.737457001581788" lon="-9.94595498777926">
        <ele>64.069999999999993</ele>
        <time>2026-06-28T13:02:43Z</time>
      </trkpt>
      <trkpt lat="51.737474016845226" lon="-9.945800006389618">
        <ele>63.100000000000001</ele>
        <time>2026-06-28T13:02:44Z</time>
      </trkpt>
      <trkpt lat="51.737498994916677" lon="-9.945243028923869">
        <ele>60.219999999999999</ele>
        <time>2026-06-28T13:02:48Z</time>
      </trkpt>
      <trkpt lat="51.737644001841545" lon="-9.944612961262465">
        <ele>56.369999999999997</ele>
        <time>2026-06-28T13:02:54Z</time>
      </trkpt>
      <trkpt lat="51.737666968256235" lon="-9.944514976814389">
        <ele>55.890000000000001</ele>
        <time>2026-06-28T13:02:55Z</time>
      </trkpt>
      <trkpt lat="51.737644001841545" lon="-9.944394025951624">
        <ele>55.409999999999997</ele>
        <time>2026-06-28T13:02:56Z</time>
      </trkpt>
      <trkpt lat="51.737626986578107" lon="-9.944297969341278">
        <ele>54.93</ele>
        <time>2026-06-28T13:02:57Z</time>
      </trkpt>
      <trkpt lat="51.737608965486288" lon="-9.944203002378345">
        <ele>54.450000000000003</ele>
        <time>2026-06-28T13:02:58Z</time>
      </trkpt>
      <trkpt lat="51.73759002238512" lon="-9.944099988788366">
        <ele>53.969999999999999</ele>
        <time>2026-06-28T13:02:59Z</time>
      </trkpt>
      <trkpt lat="51.737492959946394" lon="-9.943575030192733">
        <ele>52.530000000000001</ele>
        <time>2026-06-28T13:03:03Z</time>
      </trkpt>
      <trkpt lat="51.737467981874943" lon="-9.943443015217781">
        <ele>52.049999999999997</ele>
        <time>2026-06-28T13:03:04Z</time>
      </trkpt>
      <trkpt lat="51.737450966611505" lon="-9.943324998021126">
        <ele>51.57</ele>
        <time>2026-06-28T13:03:05Z</time>
      </trkpt>
      <trkpt lat="51.737446021288633" lon="-9.943198012188077">
        <ele>51.090000000000003</ele>
        <time>2026-06-28T13:03:06Z</time>
      </trkpt>
      <trkpt lat="51.73744099214673" lon="-9.943078989163041">
        <ele>50.609999999999999</ele>
        <time>2026-06-28T13:03:07Z</time>
      </trkpt>
      <trkpt lat="51.737435963004827" lon="-9.942958038300276">
        <ele>49.649999999999999</ele>
        <time>2026-06-28T13:03:08Z</time>
      </trkpt>
      <trkpt lat="51.737431017681956" lon="-9.942842032760382">
        <ele>48.68</ele>
        <time>2026-06-28T13:03:09Z</time>
      </trkpt>
      <trkpt lat="51.737431017681956" lon="-9.942693002521992">
        <ele>47.719999999999999</ele>
        <time>2026-06-28T13:03:10Z</time>
      </trkpt>
      <trkpt lat="51.737431017681956" lon="-9.942394020035863">
        <ele>46.280000000000001</ele>
        <time>2026-06-28T13:03:12Z</time>
      </trkpt>
      <trkpt lat="51.737431017681956" lon="-9.942245995625854">
        <ele>45.799999999999997</ele>
        <time>2026-06-28T13:03:13Z</time>
      </trkpt>
      <trkpt lat="51.737431017681956" lon="-9.9417669698596">
        <ele>45.799999999999997</ele>
        <time>2026-06-28T13:03:16Z</time>
      </trkpt>
      <trkpt lat="51.737588010728359" lon="-9.940469032153487">
        <ele>44.840000000000003</ele>
        <time>2026-06-28T13:03:24Z</time>
      </trkpt>
      <trkpt lat="51.737607959657907" lon="-9.940180024132133">
        <ele>44.359999999999999</ele>
        <time>2026-06-28T13:03:26Z</time>
      </trkpt>
      <trkpt lat="51.737613994628191" lon="-9.940082039684057">
        <ele>44.840000000000003</ele>
        <time>2026-06-28T13:03:27Z</time>
      </trkpt>
      <trkpt lat="51.737623969092965" lon="-9.939944995567203">
        <ele>44.840000000000003</ele>
        <time>2026-06-28T13:03:28Z</time>
      </trkpt>
      <trkpt lat="51.737608965486288" lon="-9.939929991960526">
        <ele>45.32</ele>
        <time>2026-06-28T13:03:29Z</time>
      </trkpt>
      <trkpt lat="51.737537970766425" lon="-9.939858997240663">
        <ele>45.799999999999997</ele>
        <time>2026-06-28T13:03:30Z</time>
      </trkpt>
      <trkpt lat="51.737478040158749" lon="-9.939864026382566">
        <ele>45.799999999999997</ele>
        <time>2026-06-28T13:03:31Z</time>
      </trkpt>
      <trkpt lat="51.737340996041894" lon="-9.939877018332481">
        <ele>46.280000000000001</ele>
        <time>2026-06-28T13:03:33Z</time>
      </trkpt>
      <trkpt lat="51.737302020192146" lon="-9.939880035817623">
        <ele>46.280000000000001</ele>
        <time>2026-06-28T13:03:34Z</time>
      </trkpt>
      <trkpt lat="51.737262960523367" lon="-9.939825972542167">
        <ele>46.759999999999998</ele>
        <time>2026-06-28T13:03:35Z</time>
      </trkpt>
      <trkpt lat="51.737194983288646" lon="-9.939729999750853">
        <ele>46.759999999999998</ele>
        <time>2026-06-28T13:03:36Z</time>
      </trkpt>
      <trkpt lat="51.737209986895323" lon="-9.93966001085937">
        <ele>47.240000000000002</ele>
        <time>2026-06-28T13:03:37Z</time>
      </trkpt>
      <trkpt lat="51.737230019643903" lon="-9.939566971734166">
        <ele>47.240000000000002</ele>
        <time>2026-06-28T13:03:38Z</time>
      </trkpt>
      <trkpt lat="51.737253991886973" lon="-9.939453983679414">
        <ele>47.719999999999999</ele>
        <time>2026-06-28T13:03:39Z</time>
      </trkpt>
      <trkpt lat="51.737318029627204" lon="-9.938857024535537">
        <ele>46.280000000000001</ele>
        <time>2026-06-28T13:03:43Z</time>
      </trkpt>
      <trkpt lat="51.737316017970443" lon="-9.938704976812005">
        <ele>46.280000000000001</ele>
        <time>2026-06-28T13:03:44Z</time>
      </trkpt>
      <trkpt lat="51.737309983000159" lon="-9.93839300237596">
        <ele>46.280000000000001</ele>
        <time>2026-06-28T13:03:46Z</time>
      </trkpt>
      <trkpt lat="51.737306965515018" lon="-9.938236009329557">
        <ele>46.280000000000001</ele>
        <time>2026-06-28T13:03:47Z</time>
      </trkpt>
      <trkpt lat="51.737304031848907" lon="-9.938082033768296">
        <ele>46.280000000000001</ele>
        <time>2026-06-28T13:03:48Z</time>
      </trkpt>
      <trkpt lat="51.737307971343398" lon="-9.937921017408371">
        <ele>46.280000000000001</ele>
        <time>2026-06-28T13:03:49Z</time>
      </trkpt>
      <trkpt lat="51.737340996041894" lon="-9.937780033797026">
        <ele>46.759999999999998</ele>
        <time>2026-06-28T13:03:50Z</time>
      </trkpt>
      <trkpt lat="51.737372009083629" lon="-9.937650030478835">
        <ele>47.240000000000002</ele>
        <time>2026-06-28T13:03:51Z</time>
      </trkpt>
      <trkpt lat="51.737401010468602" lon="-9.937523966655135">
        <ele>48.200000000000003</ele>
        <time>2026-06-28T13:03:52Z</time>
      </trkpt>
      <trkpt lat="51.737430011853576" lon="-9.937401004135609">
        <ele>48.68</ele>
        <time>2026-06-28T13:03:53Z</time>
      </trkpt>
      <trkpt lat="51.737453984096646" lon="-9.937276029959321">
        <ele>48.68</ele>
        <time>2026-06-28T13:03:54Z</time>
      </trkpt>
      <trkpt lat="51.73746102489531" lon="-9.937134040519595">
        <ele>48.68</ele>
        <time>2026-06-28T13:03:55Z</time>
      </trkpt>
      <trkpt lat="51.737469993531704" lon="-9.936977969482541">
        <ele>49.159999999999997</ele>
        <time>2026-06-28T13:03:56Z</time>
      </trkpt>
      <trkpt lat="51.737517016008496" lon="-9.935610964894295">
        <ele>51.090000000000003</ele>
        <time>2026-06-28T13:04:04Z</time>
      </trkpt>
      <trkpt lat="51.737517016008496" lon="-9.935474004596472">
        <ele>51.090000000000003</ele>
        <time>2026-06-28T13:04:05Z</time>
      </trkpt>
      <trkpt lat="51.737495977431536" lon="-9.935331009328365">
        <ele>51.090000000000003</ele>
        <time>2026-06-28T13:04:06Z</time>
      </trkpt>
      <trkpt lat="51.737465970218182" lon="-9.935178039595485">
        <ele>51.57</ele>
        <time>2026-06-28T13:04:07Z</time>
      </trkpt>
      <trkpt lat="51.737435040995479" lon="-9.935016017407179">
        <ele>51.57</ele>
        <time>2026-06-28T13:04:08Z</time>
      </trkpt>
      <trkpt lat="51.737404027953744" lon="-9.934859024360776">
        <ele>51.57</ele>
        <time>2026-06-28T13:04:09Z</time>
      </trkpt>
      <trkpt lat="51.737376032397151" lon="-9.934713011607528">
        <ele>52.049999999999997</ele>
        <time>2026-06-28T13:04:10Z</time>
      </trkpt>
      <trkpt lat="51.737349964678288" lon="-9.934578984975815">
        <ele>52.049999999999997</ele>
        <time>2026-06-28T13:04:11Z</time>
      </trkpt>
      <trkpt lat="51.737326998263597" lon="-9.93446096777916">
        <ele>52.530000000000001</ele>
        <time>2026-06-28T13:04:12Z</time>
      </trkpt>
      <trkpt lat="51.737305959686637" lon="-9.934350997209549">
        <ele>53.969999999999999</ele>
        <time>2026-06-28T13:04:13Z</time>
      </trkpt>
      <trkpt lat="51.737286010757089" lon="-9.934249995276332">
        <ele>54.93</ele>
        <time>2026-06-28T13:04:14Z</time>
      </trkpt>
      <trkpt lat="51.737265978008509" lon="-9.934144970029593">
        <ele>55.890000000000001</ele>
        <time>2026-06-28T13:04:15Z</time>
      </trkpt>
      <trkpt lat="51.737235970795155" lon="-9.933802988380194">
        <ele>58.299999999999997</ele>
        <time>2026-06-28T13:04:18Z</time>
      </trkpt>
      <trkpt lat="51.73722599633038" lon="-9.933683965355158">
        <ele>59.259999999999998</ele>
        <time>2026-06-28T13:04:19Z</time>
      </trkpt>
      <trkpt lat="51.737218033522367" lon="-9.933541975915432">
        <ele>59.740000000000002</ele>
        <time>2026-06-28T13:04:20Z</time>
      </trkpt>
      <trkpt lat="51.737338984385133" lon="-9.932694984599948">
        <ele>63.579999999999998</ele>
        <time>2026-06-28T13:04:26Z</time>
      </trkpt>
      <trkpt lat="51.737345019355416" lon="-9.932585014030337">
        <ele>63.579999999999998</ele>
        <time>2026-06-28T13:04:27Z</time>
      </trkpt>
      <trkpt lat="51.7373320274055" lon="-9.932558024302125">
        <ele>63.579999999999998</ele>
        <time>2026-06-28T13:04:28Z</time>
      </trkpt>
      <trkpt lat="51.737276958301663" lon="-9.932495998218656">
        <ele>64.069999999999993</ele>
        <time>2026-06-28T13:04:29Z</time>
      </trkpt>
      <trkpt lat="51.737211998552084" lon="-9.932488035410643">
        <ele>64.069999999999993</ele>
        <time>2026-06-28T13:04:30Z</time>
      </trkpt>
      <trkpt lat="51.737136980518699" lon="-9.932478982955217">
        <ele>64.549999999999997</ele>
        <time>2026-06-28T13:04:31Z</time>
      </trkpt>
      <trkpt lat="51.73707403242588" lon="-9.932434977963567">
        <ele>64.549999999999997</ele>
        <time>2026-06-28T13:04:32Z</time>
      </trkpt>
      <trkpt lat="51.737012006342411" lon="-9.932388961315155">
        <ele>65.030000000000001</ele>
        <time>2026-06-28T13:04:33Z</time>
      </trkpt>
      <trkpt lat="51.736959032714367" lon="-9.932348979637027">
        <ele>65.510000000000005</ele>
        <time>2026-06-28T13:04:34Z</time>
      </trkpt>
      <trkpt lat="51.736942017450929" lon="-9.932293994352222">
        <ele>65.510000000000005</ele>
        <time>2026-06-28T13:04:35Z</time>
      </trkpt>
      <trkpt lat="51.736919973045588" lon="-9.932220987975597">
        <ele>65.510000000000005</ele>
        <time>2026-06-28T13:04:36Z</time>
      </trkpt>
      <trkpt lat="51.7369020357728" lon="-9.932107999920845">
        <ele>65.989999999999995</ele>
        <time>2026-06-28T13:04:37Z</time>
      </trkpt>
      <trkpt lat="51.736933970823884" lon="-9.932009009644389">
        <ele>65.989999999999995</ele>
        <time>2026-06-28T13:04:38Z</time>
      </trkpt>
      <trkpt lat="51.73696800135076" lon="-9.931899039074779">
        <ele>65.989999999999995</ele>
        <time>2026-06-28T13:04:39Z</time>
      </trkpt>
      <trkpt lat="51.737002031877637" lon="-9.93177498690784">
        <ele>65.989999999999995</ele>
        <time>2026-06-28T13:04:40Z</time>
      </trkpt>
      <trkpt lat="51.737008988857269" lon="-9.931632997468114">
        <ele>66.950000000000003</ele>
        <time>2026-06-28T13:04:41Z</time>
      </trkpt>
      <trkpt lat="51.737016029655933" lon="-9.931490002200007">
        <ele>67.909999999999997</ele>
        <time>2026-06-28T13:04:42Z</time>
      </trkpt>
      <trkpt lat="51.737021980807185" lon="-9.931351030245423">
        <ele>68.390000000000001</ele>
        <time>2026-06-28T13:04:43Z</time>
      </trkpt>
      <trkpt lat="51.737044025212526" lon="-9.931243993341923">
        <ele>69.349999999999994</ele>
        <time>2026-06-28T13:04:44Z</time>
      </trkpt>
      <trkpt lat="51.737147038802505" lon="-9.930782988667488">
        <ele>71.760000000000005</ele>
        <time>2026-06-28T13:04:48Z</time>
      </trkpt>
      <trkpt lat="51.737176040187478" lon="-9.930652985349298">
        <ele>72.239999999999995</ele>
        <time>2026-06-28T13:04:49Z</time>
      </trkpt>
      <trkpt lat="51.737240999937057" lon="-9.930364983156323">
        <ele>72.719999999999999</ele>
        <time>2026-06-28T13:04:51Z</time>
      </trkpt>
      <trkpt lat="51.737760007381439" lon="-9.928981969133019">
        <ele>74.640000000000001</ele>
        <time>2026-06-28T13:05:00Z</time>
      </trkpt>
      <trkpt lat="51.737895961850882" lon="-9.928384004160762">
        <ele>75.599999999999994</ele>
        <time>2026-06-28T13:05:04Z</time>
      </trkpt>
      <trkpt lat="51.738183964043856" lon="-9.926754981279373">
        <ele>89.540000000000006</ele>
        <time>2026-06-28T13:05:14Z</time>
      </trkpt>
      <trkpt lat="51.738238027319312" lon="-9.926450969651341">
        <ele>91.939999999999998</ele>
        <time>2026-06-28T13:05:16Z</time>
      </trkpt>
      <trkpt lat="51.738226041197777" lon="-9.926279978826642">
        <ele>92.900000000000006</ele>
        <time>2026-06-28T13:05:17Z</time>
      </trkpt>
      <trkpt lat="51.738202990964055" lon="-9.926140001043677">
        <ele>93.870000000000005</ele>
        <time>2026-06-28T13:05:18Z</time>
      </trkpt>
      <trkpt lat="51.738179018720984" lon="-9.925989964976907">
        <ele>94.829999999999998</ele>
        <time>2026-06-28T13:05:19Z</time>
      </trkpt>
      <trkpt lat="51.738154962658882" lon="-9.925838001072407">
        <ele>95.790000000000006</ele>
        <time>2026-06-28T13:05:20Z</time>
      </trkpt>
      <trkpt lat="51.738122021779418" lon="-9.925698023289442">
        <ele>96.75</ele>
        <time>2026-06-28T13:05:21Z</time>
      </trkpt>
      <trkpt lat="51.738094026222825" lon="-9.92563197389245">
        <ele>97.230000000000004</ele>
        <time>2026-06-28T13:05:22Z</time>
      </trkpt>
      <trkpt lat="51.738094026222825" lon="-9.92563197389245">
        <ele>97.709999999999994</ele>
        <time>2026-06-28T13:05:30Z</time>
      </trkpt>
      <trkpt lat="51.737958993762732" lon="-9.925304995849729">
        <ele>98.670000000000002</ele>
        <time>2026-06-28T13:05:44Z</time>
      </trkpt>
      <trkpt lat="51.737903002649546" lon="-9.925168035551906">
        <ele>99.629999999999995</ele>
        <time>2026-06-28T13:05:46Z</time>
      </trkpt>
      <trkpt lat="51.73784801736474" lon="-9.925037026405335">
        <ele>101.56</ele>
        <time>2026-06-28T13:05:49Z</time>
      </trkpt>
      <trkpt lat="51.737834019586444" lon="-9.925001990050077">
        <ele>102.04000000000001</ele>
        <time>2026-06-28T13:05:50Z</time>
      </trkpt>
      <trkpt lat="51.737868972122669" lon="-9.924752963706851">
        <ele>103</ele>
        <time>2026-06-28T13:05:51Z</time>
      </trkpt>
      <trkpt lat="51.737918006256223" lon="-9.924752963706851">
        <ele>103.95999999999999</ele>
        <time>2026-06-28T13:05:52Z</time>
      </trkpt>
      <trkpt lat="51.737982966005802" lon="-9.924752963706851">
        <ele>104.44</ele>
        <time>2026-06-28T13:05:53Z</time>
      </trkpt>
      <trkpt lat="51.738050021231174" lon="-9.924717005342245">
        <ele>104.44</ele>
        <time>2026-06-28T13:05:54Z</time>
      </trkpt>
      <trkpt lat="51.738104000687599" lon="-9.924614997580648">
        <ele>104.92</ele>
        <time>2026-06-28T13:05:55Z</time>
      </trkpt>
      <trkpt lat="51.738158985972404" lon="-9.924509972333908">
        <ele>104.92</ele>
        <time>2026-06-28T13:05:56Z</time>
      </trkpt>
      <trkpt lat="51.738211959600449" lon="-9.92440796457231">
        <ele>104.44</ele>
        <time>2026-06-28T13:05:57Z</time>
      </trkpt>
      <trkpt lat="51.738269040361047" lon="-9.9242979940027">
        <ele>104.44</ele>
        <time>2026-06-28T13:05:58Z</time>
      </trkpt>
      <trkpt lat="51.738881003111601" lon="-9.923040959984064">
        <ele>101.08</ele>
        <time>2026-06-28T13:06:06Z</time>
      </trkpt>
      <trkpt lat="51.739475028589368" lon="-9.921468012034893">
        <ele>97.709999999999994</ele>
        <time>2026-06-28T13:06:16Z</time>
      </trkpt>
      <trkpt lat="51.739958999678493" lon="-9.920183988288045">
        <ele>89.540000000000006</ele>
        <time>2026-06-28T13:06:24Z</time>
      </trkpt>
      <trkpt lat="51.739983977749944" lon="-9.920118022710085">
        <ele>88.099999999999994</ele>
        <time>2026-06-28T13:06:25Z</time>
      </trkpt>
      <trkpt lat="51.740077016875148" lon="-9.920118022710085">
        <ele>87.140000000000001</ele>
        <time>2026-06-28T13:06:26Z</time>
      </trkpt>
      <trkpt lat="51.740138959139585" lon="-9.920118022710085">
        <ele>86.180000000000007</ele>
        <time>2026-06-28T13:06:27Z</time>
      </trkpt>
      <trkpt lat="51.740196039900184" lon="-9.920118022710085">
        <ele>85.209999999999994</ele>
        <time>2026-06-28T13:06:28Z</time>
      </trkpt>
      <trkpt lat="51.74021297134459" lon="-9.920160016044974">
        <ele>84.25</ele>
        <time>2026-06-28T13:06:29Z</time>
      </trkpt>
      <trkpt lat="51.740240966901183" lon="-9.920246014371514">
        <ele>83.290000000000006</ele>
        <time>2026-06-28T13:06:30Z</time>
      </trkpt>
      <trkpt lat="51.740270974114537" lon="-9.920336036011577">
        <ele>82.329999999999998</ele>
        <time>2026-06-28T13:06:31Z</time>
      </trkpt>
      <trkpt lat="51.740285977721214" lon="-9.920398984104395">
        <ele>81.370000000000005</ele>
        <time>2026-06-28T13:06:32Z</time>
      </trkpt>
      <trkpt lat="51.74029503017664" lon="-9.920509960502386">
        <ele>80.890000000000001</ele>
        <time>2026-06-28T13:06:33Z</time>
      </trkpt>
      <trkpt lat="51.740303998813033" lon="-9.920627977699041">
        <ele>79.930000000000007</ele>
        <time>2026-06-28T13:06:34Z</time>
      </trkpt>
      <trkpt lat="51.740313973277807" lon="-9.920753035694361">
        <ele>78.969999999999999</ele>
        <time>2026-06-28T13:06:35Z</time>
      </trkpt>
      <trkpt lat="51.740326965227723" lon="-9.920932995155454">
        <ele>78.969999999999999</ele>
        <time>2026-06-28T13:06:36Z</time>
      </trkpt>
      <trkpt lat="51.740249013528228" lon="-9.921975033357739">
        <ele>74.640000000000001</ele>
        <time>2026-06-28T13:06:44Z</time>
      </trkpt>
      <trkpt lat="51.740241972729564" lon="-9.922071006149054">
        <ele>73.680000000000007</ele>
        <time>2026-06-28T13:06:45Z</time>
      </trkpt>
      <trkpt lat="51.740256976336241" lon="-9.922117022797465">
        <ele>72.719999999999999</ele>
        <time>2026-06-28T13:06:46Z</time>
      </trkpt>
      <trkpt lat="51.740271979942918" lon="-9.922162033617497">
        <ele>71.760000000000005</ele>
        <time>2026-06-28T13:06:47Z</time>
      </trkpt>
      <trkpt lat="51.74029603600502" lon="-9.922188017517328">
        <ele>70.310000000000002</ele>
        <time>2026-06-28T13:06:48Z</time>
      </trkpt>
      <trkpt lat="51.740325959399343" lon="-9.922158010303974">
        <ele>69.349999999999994</ele>
        <time>2026-06-28T13:06:49Z</time>
      </trkpt>
      <trkpt lat="51.740412963554263" lon="-9.922071006149054">
        <ele>68.390000000000001</ele>
        <time>2026-06-28T13:06:50Z</time>
      </trkpt>
      <trkpt lat="51.74042696133256" lon="-9.922033036127687">
        <ele>67.430000000000007</ele>
        <time>2026-06-28T13:06:51Z</time>
      </trkpt>
      <trkpt lat="51.740508014336228" lon="-9.92180597037077">
        <ele>66.469999999999999</ele>
        <time>2026-06-28T13:06:53Z</time>
      </trkpt>
      <trkpt lat="51.740557970479131" lon="-9.921669010072947">
        <ele>65.989999999999995</ele>
        <time>2026-06-28T13:06:54Z</time>
      </trkpt>
      <trkpt lat="51.740613961592317" lon="-9.921512017026544">
        <ele>65.510000000000005</ele>
        <time>2026-06-28T13:06:55Z</time>
      </trkpt>
      <trkpt lat="51.740674981847405" lon="-9.921342032030225">
        <ele>65.030000000000001</ele>
        <time>2026-06-28T13:06:56Z</time>
      </trkpt>
      <trkpt lat="51.740742959082127" lon="-9.921172969043255">
        <ele>64.549999999999997</ele>
        <time>2026-06-28T13:06:57Z</time>
      </trkpt>
      <trkpt lat="51.741032972931862" lon="-9.920568969100714">
        <ele>60.219999999999999</ele>
        <time>2026-06-28T13:07:01Z</time>
      </trkpt>
      <trkpt lat="51.741086030378938" lon="-9.920458998531103">
        <ele>58.780000000000001</ele>
        <time>2026-06-28T13:07:02Z</time>
      </trkpt>
      <trkpt lat="51.741145038977265" lon="-9.920336036011577">
        <ele>57.340000000000003</ele>
        <time>2026-06-28T13:07:03Z</time>
      </trkpt>
      <trkpt lat="51.741364980116487" lon="-9.919917024672031">
        <ele>53.490000000000002</ele>
        <time>2026-06-28T13:07:06Z</time>
      </trkpt>
      <trkpt lat="51.741421977058053" lon="-9.919818034395576">
        <ele>52.530000000000001</ele>
        <time>2026-06-28T13:07:07Z</time>
      </trkpt>
      <trkpt lat="51.741453995928168" lon="-9.919695993885398">
        <ele>52.049999999999997</ele>
        <time>2026-06-28T13:07:08Z</time>
      </trkpt>
      <trkpt lat="51.74178097397089" lon="-9.918469972908497">
        <ele>55.409999999999997</ele>
        <time>2026-06-28T13:07:15Z</time>
      </trkpt>
      <trkpt lat="51.742355972528458" lon="-9.916554037481546">
        <ele>50.609999999999999</ele>
        <time>2026-06-28T13:07:25Z</time>
      </trkpt>
      <trkpt lat="51.742971958592534" lon="-9.914535004645586">
        <ele>47.719999999999999</ele>
        <time>2026-06-28T13:07:36Z</time>
      </trkpt>
      <trkpt lat="51.743399016559124" lon="-9.913163976743817">
        <ele>48.200000000000003</ele>
        <time>2026-06-28T13:07:44Z</time>
      </trkpt>
      <trkpt lat="51.743707973510027" lon="-9.912273986265063">
        <ele>49.159999999999997</ele>
        <time>2026-06-28T13:07:49Z</time>
      </trkpt>
      <trkpt lat="51.743761030957103" lon="-9.912121016532183">
        <ele>49.649999999999999</ele>
        <time>2026-06-28T13:07:50Z</time>
      </trkpt>
      <trkpt lat="51.743814004585147" lon="-9.911969974637032">
        <ele>50.130000000000003</ele>
        <time>2026-06-28T13:07:51Z</time>
      </trkpt>
      <trkpt lat="51.743866978213191" lon="-9.911813987419009">
        <ele>50.609999999999999</ele>
        <time>2026-06-28T13:07:52Z</time>
      </trkpt>
      <trkpt lat="51.743921963497996" lon="-9.911656994372606">
        <ele>50.609999999999999</ele>
        <time>2026-06-28T13:07:53Z</time>
      </trkpt>
      <trkpt lat="51.744061019271612" lon="-9.911172017455101">
        <ele>51.090000000000003</ele>
        <time>2026-06-28T13:07:56Z</time>
      </trkpt>
      <trkpt lat="51.744061019271612" lon="-9.911018963903189">
        <ele>51.090000000000003</ele>
        <time>2026-06-28T13:07:57Z</time>
      </trkpt>
      <trkpt lat="51.744061019271612" lon="-9.910864988341928">
        <ele>51.090000000000003</ele>
        <time>2026-06-28T13:07:58Z</time>
      </trkpt>
      <trkpt lat="51.744061019271612" lon="-9.910712018609047">
        <ele>51.090000000000003</ele>
        <time>2026-06-28T13:07:59Z</time>
      </trkpt>
      <trkpt lat="51.744061019271612" lon="-9.910558965057135">
        <ele>51.57</ele>
        <time>2026-06-28T13:08:00Z</time>
      </trkpt>
      <trkpt lat="51.744066970422864" lon="-9.910358972847462">
        <ele>51.57</ele>
        <time>2026-06-28T13:08:01Z</time>
      </trkpt>
      <trkpt lat="51.744110975414515" lon="-9.910212960094214">
        <ele>51.57</ele>
        <time>2026-06-28T13:08:02Z</time>
      </trkpt>
      <trkpt lat="51.744640041142702" lon="-9.9085489846766">
        <ele>51.090000000000003</ele>
        <time>2026-06-28T13:08:13Z</time>
      </trkpt>
      <trkpt lat="51.744697960093617" lon="-9.908385034650564">
        <ele>50.609999999999999</ele>
        <time>2026-06-28T13:08:14Z</time>
      </trkpt>
      <trkpt lat="51.744755040854216" lon="-9.908219994977117">
        <ele>50.130000000000003</ele>
        <time>2026-06-28T13:08:15Z</time>
      </trkpt>
      <trkpt lat="51.744843972846866" lon="-9.907964011654258">
        <ele>48.68</ele>
        <time>2026-06-28T13:08:17Z</time>
      </trkpt>
      <trkpt lat="51.7448749858886" lon="-9.907878013327718">
        <ele>48.200000000000003</ele>
        <time>2026-06-28T13:08:18Z</time>
      </trkpt>
      <trkpt lat="51.744984034448862" lon="-9.907565033063293">
        <ele>45.32</ele>
        <time>2026-06-28T13:08:24Z</time>
      </trkpt>
      <trkpt lat="51.745069026947021" lon="-9.90747400559485">
        <ele>44.840000000000003</ele>
        <time>2026-06-28T13:08:25Z</time>
      </trkpt>
      <trkpt lat="51.745139015838504" lon="-9.907398987561464">
        <ele>44.359999999999999</ele>
        <time>2026-06-28T13:08:26Z</time>
      </trkpt>
      <trkpt lat="51.745214033871889" lon="-9.907318018376827">
        <ele>43.399999999999999</ele>
        <time>2026-06-28T13:08:27Z</time>
      </trkpt>
      <trkpt lat="51.745300032198429" lon="-9.907192038372159">
        <ele>42.439999999999998</ele>
        <time>2026-06-28T13:08:28Z</time>
      </trkpt>
      <trkpt lat="51.74534797668457" lon="-9.907042002305389">
        <ele>41.469999999999999</ele>
        <time>2026-06-28T13:08:29Z</time>
      </trkpt>
      <trkpt lat="51.745399022474885" lon="-9.906880985945463">
        <ele>40.990000000000002</ele>
        <time>2026-06-28T13:08:30Z</time>
      </trkpt>
      <trkpt lat="51.745827002450824" lon="-9.905339973047376">
        <ele>37.630000000000003</ele>
        <time>2026-06-28T13:08:39Z</time>
      </trkpt>
      <trkpt lat="51.745937978848815" lon="-9.904919033870101">
        <ele>37.630000000000003</ele>
        <time>2026-06-28T13:08:42Z</time>
      </trkpt>
      <trkpt lat="51.745971003547311" lon="-9.904793975874782">
        <ele>37.630000000000003</ele>
        <time>2026-06-28T13:08:43Z</time>
      </trkpt>
      <trkpt lat="51.746004028245807" lon="-9.904666990041733">
        <ele>37.630000000000003</ele>
        <time>2026-06-28T13:08:44Z</time>
      </trkpt>
      <trkpt lat="51.746039986610413" lon="-9.90453002974391">
        <ele>37.149999999999999</ele>
        <time>2026-06-28T13:08:45Z</time>
      </trkpt>
      <trkpt lat="51.74607896246016" lon="-9.90438099950552">
        <ele>37.149999999999999</ele>
        <time>2026-06-28T13:08:46Z</time>
      </trkpt>
      <trkpt lat="51.74641901627183" lon="-9.903087001293898">
        <ele>34.740000000000002</ele>
        <time>2026-06-28T13:08:54Z</time>
      </trkpt>
      <trkpt lat="51.746457992121577" lon="-9.902959009632468">
        <ele>34.259999999999998</ele>
        <time>2026-06-28T13:08:55Z</time>
      </trkpt>
      <trkpt lat="51.746510965749621" lon="-9.902829006314278">
        <ele>33.780000000000001</ele>
        <time>2026-06-28T13:08:56Z</time>
      </trkpt>
      <trkpt lat="51.746568968519568" lon="-9.902689028531313">
        <ele>33.780000000000001</ele>
        <time>2026-06-28T13:08:57Z</time>
      </trkpt>
      <trkpt lat="51.746626971289515" lon="-9.902547039091587">
        <ele>32.82</ele>
        <time>2026-06-28T13:08:58Z</time>
      </trkpt>
      <trkpt lat="51.746684974059463" lon="-9.902408989146352">
        <ele>32.340000000000003</ele>
        <time>2026-06-28T13:08:59Z</time>
      </trkpt>
      <trkpt lat="51.746738031506538" lon="-9.902277979999781">
        <ele>31.379999999999999</ele>
        <time>2026-06-28T13:09:00Z</time>
      </trkpt>
      <trkpt lat="51.746791005134583" lon="-9.902151999995112">
        <ele>30.420000000000002</ele>
        <time>2026-06-28T13:09:01Z</time>
      </trkpt>
      <trkpt lat="51.746844984591007" lon="-9.902019985020161">
        <ele>29.940000000000001</ele>
        <time>2026-06-28T13:09:02Z</time>
      </trkpt>
      <trkpt lat="51.747206998988986" lon="-9.901140974834561">
        <ele>26.57</ele>
        <time>2026-06-28T13:09:09Z</time>
      </trkpt>
      <trkpt lat="51.747233988717198" lon="-9.901075009256601">
        <ele>26.57</ele>
        <time>2026-06-28T13:09:10Z</time>
      </trkpt>
      <trkpt lat="51.747254021465778" lon="-9.901027986779809">
        <ele>26.57</ele>
        <time>2026-06-28T13:09:11Z</time>
      </trkpt>
      <trkpt lat="51.747305989265442" lon="-9.900916004553437">
        <ele>26.57</ele>
        <time>2026-06-28T13:09:12Z</time>
      </trkpt>
      <trkpt lat="51.747349994257092" lon="-9.900937965139747">
        <ele>27.050000000000001</ele>
        <time>2026-06-28T13:09:13Z</time>
      </trkpt>
      <trkpt lat="51.747410008683801" lon="-9.900968978181481">
        <ele>27.050000000000001</ele>
        <time>2026-06-28T13:09:14Z</time>
      </trkpt>
      <trkpt lat="51.747481003403664" lon="-9.9010060261935">
        <ele>27.050000000000001</ele>
        <time>2026-06-28T13:09:15Z</time>
      </trkpt>
      <trkpt lat="51.747561972588301" lon="-9.901048019528389">
        <ele>27.530000000000001</ele>
        <time>2026-06-28T13:09:16Z</time>
      </trkpt>
      <trkpt lat="51.747936978936195" lon="-9.901240970939398">
        <ele>28.98</ele>
        <time>2026-06-28T13:09:20Z</time>
      </trkpt>
      <trkpt lat="51.74805399030447" lon="-9.901257986202836">
        <ele>28.98</ele>
        <time>2026-06-28T13:09:21Z</time>
      </trkpt>
      <trkpt lat="51.748146023601294" lon="-9.901214987039566">
        <ele>29.460000000000001</ele>
        <time>2026-06-28T13:09:22Z</time>
      </trkpt>
      <trkpt lat="51.748743988573551" lon="-9.900938970968127">
        <ele>29.940000000000001</ele>
        <time>2026-06-28T13:09:28Z</time>
      </trkpt>
      <trkpt lat="51.748814983293414" lon="-9.900907035917044">
        <ele>29.460000000000001</ele>
        <time>2026-06-28T13:09:29Z</time>
      </trkpt>
      <trkpt lat="51.748885978013277" lon="-9.900954980403185">
        <ele>28.98</ele>
        <time>2026-06-28T13:09:30Z</time>
      </trkpt>
      <trkpt lat="51.748940041288733" lon="-9.901041984558106">
        <ele>28.98</ele>
        <time>2026-06-28T13:09:31Z</time>
      </trkpt>
      <trkpt lat="51.749026961624622" lon="-9.901105016469955">
        <ele>28.98</ele>
        <time>2026-06-28T13:09:32Z</time>
      </trkpt>
      <trkpt lat="51.749283028766513" lon="-9.901250023394823">
        <ele>28.98</ele>
        <time>2026-06-28T13:09:36Z</time>
      </trkpt>
      <trkpt lat="51.749339019879699" lon="-9.901281036436558">
        <ele>28.98</ele>
        <time>2026-06-28T13:09:37Z</time>
      </trkpt>
      <trkpt lat="51.749392999336123" lon="-9.901311965659261">
        <ele>28.98</ele>
        <time>2026-06-28T13:09:38Z</time>
      </trkpt>
      <trkpt lat="51.749446978792548" lon="-9.901342978700995">
        <ele>28.98</ele>
        <time>2026-06-28T13:09:39Z</time>
      </trkpt>
      <trkpt lat="51.749458964914083" lon="-9.901325963437557">
        <ele>28.98</ele>
        <time>2026-06-28T13:09:40Z</time>
      </trkpt>
      <trkpt lat="51.74951302818954" lon="-9.901252035051584">
        <ele>28.98</ele>
        <time>2026-06-28T13:09:41Z</time>
      </trkpt>
      <trkpt lat="51.749579999595881" lon="-9.90115899592638">
        <ele>28.98</ele>
        <time>2026-06-28T13:09:42Z</time>
      </trkpt>
      <trkpt lat="51.749618975445628" lon="-9.901106022298336">
        <ele>28.98</ele>
        <time>2026-06-28T13:09:43Z</time>
      </trkpt>
      <trkpt lat="51.749739004299045" lon="-9.901013989001513">
        <ele>29.460000000000001</ele>
        <time>2026-06-28T13:09:44Z</time>
      </trkpt>
      <trkpt lat="51.749807987362146" lon="-9.900961015373468">
        <ele>29.940000000000001</ele>
        <time>2026-06-28T13:09:45Z</time>
      </trkpt>
      <trkpt lat="51.749898009002209" lon="-9.900892032310367">
        <ele>30.420000000000002</ele>
        <time>2026-06-28T13:09:46Z</time>
      </trkpt>
      <trkpt lat="51.749898009002209" lon="-9.900892032310367">
        <ele>30.899999999999999</ele>
        <time>2026-06-28T13:09:47Z</time>
      </trkpt>
      <trkpt lat="51.749951988458633" lon="-9.900909969583154">
        <ele>31.379999999999999</ele>
        <time>2026-06-28T13:09:48Z</time>
      </trkpt>
      <trkpt lat="51.750013008713722" lon="-9.900930002331734">
        <ele>31.859999999999999</ele>
        <time>2026-06-28T13:09:49Z</time>
      </trkpt>
      <trkpt lat="51.75007302314043" lon="-9.900950035080314">
        <ele>31.859999999999999</ele>
        <time>2026-06-28T13:09:50Z</time>
      </trkpt>
      <trkpt lat="51.750143012031913" lon="-9.900974007323384">
        <ele>32.340000000000003</ele>
        <time>2026-06-28T13:09:51Z</time>
      </trkpt>
      <trkpt lat="51.750220041722059" lon="-9.900998985394836">
        <ele>32.340000000000003</ele>
        <time>2026-06-28T13:09:52Z</time>
      </trkpt>
      <trkpt lat="51.750378962606192" lon="-9.90105195902288">
        <ele>31.859999999999999</ele>
        <time>2026-06-28T13:09:54Z</time>
      </trkpt>
      <trkpt lat="51.750456998124719" lon="-9.901078026741743">
        <ele>31.379999999999999</ele>
        <time>2026-06-28T13:09:55Z</time>
      </trkpt>
      <trkpt lat="51.750538973137736" lon="-9.901105016469955">
        <ele>30.420000000000002</ele>
        <time>2026-06-28T13:09:56Z</time>
      </trkpt>
      <trkpt lat="51.751015987247229" lon="-9.901192020624876">
        <ele>26.57</ele>
        <time>2026-06-28T13:10:01Z</time>
      </trkpt>
      <trkpt lat="51.751107014715672" lon="-9.901192020624876">
        <ele>26.09</ele>
        <time>2026-06-28T13:10:02Z</time>
      </trkpt>
      <trkpt lat="51.751183960586786" lon="-9.901275001466274">
        <ele>26.09</ele>
        <time>2026-06-28T13:10:03Z</time>
      </trkpt>
      <trkpt lat="51.751238023862243" lon="-9.901383966207504">
        <ele>25.609999999999999</ele>
        <time>2026-06-28T13:10:04Z</time>
      </trkpt>
      <trkpt lat="51.751263001933694" lon="-9.901499971747398">
        <ele>25.609999999999999</ele>
        <time>2026-06-28T13:10:05Z</time>
      </trkpt>
      <trkpt lat="51.751245986670256" lon="-9.901612037792802">
        <ele>25.609999999999999</ele>
        <time>2026-06-28T13:10:06Z</time>
      </trkpt>
      <trkpt lat="51.751228971406817" lon="-9.901723014190793">
        <ele>25.609999999999999</ele>
        <time>2026-06-28T13:10:07Z</time>
      </trkpt>
      <trkpt lat="51.751227965578437" lon="-9.9018469825387">
        <ele>25.129999999999999</ele>
        <time>2026-06-28T13:10:08Z</time>
      </trkpt>
      <trkpt lat="51.751227965578437" lon="-9.901956031098962">
        <ele>25.129999999999999</ele>
        <time>2026-06-28T13:10:09Z</time>
      </trkpt>
      <trkpt lat="51.751227965578437" lon="-9.902055021375418">
        <ele>24.649999999999999</ele>
        <time>2026-06-28T13:10:10Z</time>
      </trkpt>
      <trkpt lat="51.751252021640539" lon="-9.902087040245533">
        <ele>24.649999999999999</ele>
        <time>2026-06-28T13:10:11Z</time>
      </trkpt>
      <trkpt lat="51.751294014975429" lon="-9.902073964476585">
        <ele>24.170000000000002</ele>
        <time>2026-06-28T13:10:12Z</time>
      </trkpt>
      <trkpt lat="51.751350006088614" lon="-9.90205803886056">
        <ele>23.690000000000001</ele>
        <time>2026-06-28T13:10:13Z</time>
      </trkpt>
      <trkpt lat="51.7514059972018" lon="-9.902041023597121">
        <ele>23.210000000000001</ele>
        <time>2026-06-28T13:10:14Z</time>
      </trkpt>
      <trkpt lat="51.751461988314986" lon="-9.902025014162064">
        <ele>22.73</ele>
        <time>2026-06-28T13:10:15Z</time>
      </trkpt>
      <trkpt lat="51.751522002741694" lon="-9.902006993070245">
        <ele>22.25</ele>
        <time>2026-06-28T13:10:16Z</time>
      </trkpt>
      <trkpt lat="51.751612024381757" lon="-9.901928035542369">
        <ele>21.77</ele>
        <time>2026-06-28T13:10:17Z</time>
      </trkpt>
      <trkpt lat="51.751678995788097" lon="-9.901728965342045">
        <ele>21.77</ele>
        <time>2026-06-28T13:10:18Z</time>
      </trkpt>
      <trkpt lat="51.751816961914301" lon="-9.901503995060921">
        <ele>23.210000000000001</ele>
        <time>2026-06-28T13:10:21Z</time>
      </trkpt>
      <trkpt lat="51.751863984391093" lon="-9.901382038369775">
        <ele>23.210000000000001</ele>
        <time>2026-06-28T13:10:22Z</time>
      </trkpt>
      <trkpt lat="51.751893991604447" lon="-9.901237031444907">
        <ele>23.210000000000001</ele>
        <time>2026-06-28T13:10:23Z</time>
      </trkpt>
      <trkpt lat="51.751953000202775" lon="-9.900954980403185">
        <ele>22.25</ele>
        <time>2026-06-28T13:10:25Z</time>
      </trkpt>
      <trkpt lat="51.751978984102607" lon="-9.900827994570136">
        <ele>22.73</ele>
        <time>2026-06-28T13:10:26Z</time>
      </trkpt>
      <trkpt lat="51.752033969387412" lon="-9.90079103037715">
        <ele>23.210000000000001</ele>
        <time>2026-06-28T13:10:27Z</time>
      </trkpt>
      <trkpt lat="51.752247037366033" lon="-9.900649040937424">
        <ele>25.129999999999999</ele>
        <time>2026-06-28T13:10:30Z</time>
      </trkpt>
      <trkpt lat="51.752317026257515" lon="-9.900575028732419">
        <ele>26.09</ele>
        <time>2026-06-28T13:10:31Z</time>
      </trkpt>
      <trkpt lat="51.752367988228798" lon="-9.900457011535764">
        <ele>27.050000000000001</ele>
        <time>2026-06-28T13:10:32Z</time>
      </trkpt>
      <trkpt lat="51.752420039847493" lon="-9.900333965197206">
        <ele>28.5</ele>
        <time>2026-06-28T13:10:33Z</time>
      </trkpt>
      <trkpt lat="51.752433031797409" lon="-9.900203039869666">
        <ele>29.460000000000001</ele>
        <time>2026-06-28T13:10:34Z</time>
      </trkpt>
      <trkpt lat="51.75243797712028" lon="-9.900080999359489">
        <ele>30.420000000000002</ele>
        <time>2026-06-28T13:10:35Z</time>
      </trkpt>
      <trkpt lat="51.752442000433803" lon="-9.899962982162833">
        <ele>31.379999999999999</ele>
        <time>2026-06-28T13:10:36Z</time>
      </trkpt>
      <trkpt lat="51.752446023747325" lon="-9.899841025471687">
        <ele>32.340000000000003</ele>
        <time>2026-06-28T13:10:37Z</time>
      </trkpt>
      <trkpt lat="51.75245700404048" lon="-9.899698030203581">
        <ele>33.780000000000001</ele>
        <time>2026-06-28T13:10:38Z</time>
      </trkpt>
      <trkpt lat="51.752504026517272" lon="-9.899583030492067">
        <ele>34.740000000000002</ele>
        <time>2026-06-28T13:10:39Z</time>
      </trkpt>
      <trkpt lat="51.752551971003413" lon="-9.899466019123793">
        <ele>36.189999999999998</ele>
        <time>2026-06-28T13:10:40Z</time>
      </trkpt>
      <trkpt lat="51.752599999308586" lon="-9.899351019412279">
        <ele>37.630000000000003</ele>
        <time>2026-06-28T13:10:41Z</time>
      </trkpt>
      <trkpt lat="51.752646015956998" lon="-9.899239959195256">
        <ele>38.590000000000003</ele>
        <time>2026-06-28T13:10:42Z</time>
      </trkpt>
      <trkpt lat="51.753078019246459" lon="-9.898069007322192">
        <ele>47.719999999999999</ele>
        <time>2026-06-28T13:10:51Z</time>
      </trkpt>
      <trkpt lat="51.753202993422747" lon="-9.897573972120881">
        <ele>51.090000000000003</ele>
        <time>2026-06-28T13:10:54Z</time>
      </trkpt>
      <trkpt lat="51.753481021150947" lon="-9.896879028528929">
        <ele>54.450000000000003</ele>
        <time>2026-06-28T13:10:59Z</time>
      </trkpt>
      <trkpt lat="51.753472974523902" lon="-9.896765034645796">
        <ele>54.93</ele>
        <time>2026-06-28T13:11:00Z</time>
      </trkpt>
      <trkpt lat="51.753468029201031" lon="-9.896682975813747">
        <ele>55.890000000000001</ele>
        <time>2026-06-28T13:11:01Z</time>
      </trkpt>
      <trkpt lat="51.753461994230747" lon="-9.896596977487207">
        <ele>56.369999999999997</ele>
        <time>2026-06-28T13:11:02Z</time>
      </trkpt>
      <trkpt lat="51.753455037251115" lon="-9.896493041887879">
        <ele>56.859999999999999</ele>
        <time>2026-06-28T13:11:03Z</time>
      </trkpt>
      <trkpt lat="51.75344699062407" lon="-9.896373013034463">
        <ele>57.82</ele>
        <time>2026-06-28T13:11:04Z</time>
      </trkpt>
      <trkpt lat="51.753439027816057" lon="-9.896234041079879">
        <ele>58.299999999999997</ele>
        <time>2026-06-28T13:11:05Z</time>
      </trkpt>
      <trkpt lat="51.753479009494185" lon="-9.89606698974967">
        <ele>58.299999999999997</ele>
        <time>2026-06-28T13:11:06Z</time>
      </trkpt>
      <trkpt lat="51.753524020314217" lon="-9.895884012803435">
        <ele>58.780000000000001</ele>
        <time>2026-06-28T13:11:07Z</time>
      </trkpt>
      <trkpt lat="51.753715965896845" lon="-9.895137017592788">
        <ele>58.299999999999997</ele>
        <time>2026-06-28T13:11:11Z</time>
      </trkpt>
      <trkpt lat="51.753781009465456" lon="-9.89499201066792">
        <ele>58.299999999999997</ele>
        <time>2026-06-28T13:11:12Z</time>
      </trkpt>
      <trkpt lat="51.754185017198324" lon="-9.894364960491657">
        <ele>58.780000000000001</ele>
        <time>2026-06-28T13:11:18Z</time>
      </trkpt>
      <trkpt lat="51.754242014139891" lon="-9.894287008792162">
        <ele>59.740000000000002</ele>
        <time>2026-06-28T13:11:19Z</time>
      </trkpt>
      <trkpt lat="51.754338992759585" lon="-9.89415398798883">
        <ele>61.659999999999997</ele>
        <time>2026-06-28T13:11:21Z</time>
      </trkpt>
      <trkpt lat="51.7543900385499" lon="-9.89404896274209">
        <ele>62.140000000000001</ele>
        <time>2026-06-28T13:11:22Z</time>
      </trkpt>
      <trkpt lat="51.754893036559224" lon="-9.893003990873694">
        <ele>62.140000000000001</ele>
        <time>2026-06-28T13:11:33Z</time>
      </trkpt>
      <trkpt lat="51.755353035405278" lon="-9.892161022871733">
        <ele>53.009999999999998</ele>
        <time>2026-06-28T13:11:42Z</time>
      </trkpt>
      <trkpt lat="51.755381030961871" lon="-9.892068989574909">
        <ele>52.049999999999997</ele>
        <time>2026-06-28T13:11:43Z</time>
      </trkpt>
      <trkpt lat="51.755408020690084" lon="-9.891977962106466">
        <ele>51.090000000000003</ele>
        <time>2026-06-28T13:11:44Z</time>
      </trkpt>
      <trkpt lat="51.755435010418296" lon="-9.891888024285436">
        <ele>50.609999999999999</ele>
        <time>2026-06-28T13:11:45Z</time>
      </trkpt>
      <trkpt lat="51.755462000146508" lon="-9.891795990988612">
        <ele>50.130000000000003</ele>
        <time>2026-06-28T13:11:46Z</time>
      </trkpt>
      <trkpt lat="51.755495024845004" lon="-9.891689037904143">
        <ele>49.159999999999997</ele>
        <time>2026-06-28T13:11:47Z</time>
      </trkpt>
      <trkpt lat="51.755531989037991" lon="-9.891563979908824">
        <ele>48.68</ele>
        <time>2026-06-28T13:11:48Z</time>
      </trkpt>
      <trkpt lat="51.755572976544499" lon="-9.89142601378262">
        <ele>47.240000000000002</ele>
        <time>2026-06-28T13:11:49Z</time>
      </trkpt>
      <trkpt lat="51.755613964051008" lon="-9.891287041828036">
        <ele>46.280000000000001</ele>
        <time>2026-06-28T13:11:50Z</time>
      </trkpt>
      <trkpt lat="51.755655035376549" lon="-9.891151003539562">
        <ele>44.840000000000003</ele>
        <time>2026-06-28T13:11:51Z</time>
      </trkpt>
      <trkpt lat="51.755696022883058" lon="-9.891013959422708">
        <ele>43.880000000000003</ele>
        <time>2026-06-28T13:11:52Z</time>
      </trkpt>
      <trkpt lat="51.755738016217947" lon="-9.890872975811362">
        <ele>42.920000000000002</ele>
        <time>2026-06-28T13:11:53Z</time>
      </trkpt>
      <trkpt lat="51.755780009552836" lon="-9.890734003856778">
        <ele>41.469999999999999</ele>
        <time>2026-06-28T13:11:54Z</time>
      </trkpt>
      <trkpt lat="51.755818985402584" lon="-9.890601988881826">
        <ele>40.509999999999998</ele>
        <time>2026-06-28T13:11:55Z</time>
      </trkpt>
      <trkpt lat="51.755860978737473" lon="-9.890466034412384">
        <ele>39.549999999999997</ele>
        <time>2026-06-28T13:11:56Z</time>
      </trkpt>
      <trkpt lat="51.755901966243982" lon="-9.890337036922574">
        <ele>38.590000000000003</ele>
        <time>2026-06-28T13:11:57Z</time>
      </trkpt>
      <trkpt lat="51.755939014256001" lon="-9.890220025554299">
        <ele>37.149999999999999</ele>
        <time>2026-06-28T13:11:58Z</time>
      </trkpt>
      <trkpt lat="51.755968015640974" lon="-9.890103014186025">
        <ele>35.710000000000001</ele>
        <time>2026-06-28T13:11:59Z</time>
      </trkpt>
      <trkpt lat="51.755947982892394" lon="-9.889968987554312">
        <ele>34.259999999999998</ele>
        <time>2026-06-28T13:12:00Z</time>
      </trkpt>
      <trkpt lat="51.755926022306085" lon="-9.889817023649812">
        <ele>32.340000000000003</ele>
        <time>2026-06-28T13:12:01Z</time>
      </trkpt>
      <trkpt lat="51.755901966243982" lon="-9.889652989804745">
        <ele>29.460000000000001</ele>
        <time>2026-06-28T13:12:02Z</time>
      </trkpt>
      <trkpt lat="51.75587497651577" lon="-9.889466995373368">
        <ele>26.57</ele>
        <time>2026-06-28T13:12:03Z</time>
      </trkpt>
      <trkpt lat="51.755845975130796" lon="-9.889273038133979">
        <ele>24.649999999999999</ele>
        <time>2026-06-28T13:12:04Z</time>
      </trkpt>
      <trkpt lat="51.755805993452668" lon="-9.889101963490248">
        <ele>23.210000000000001</ele>
        <time>2026-06-28T13:12:05Z</time>
      </trkpt>
      <trkpt lat="51.755588985979557" lon="-9.888048022985458">
        <ele>20.32</ele>
        <time>2026-06-28T13:12:11Z</time>
      </trkpt>
      <trkpt lat="51.755584040656686" lon="-9.887921959161758">
        <ele>20.809999999999999</ele>
        <time>2026-06-28T13:12:12Z</time>
      </trkpt>
      <trkpt lat="51.755584040656686" lon="-9.887783993035555">
        <ele>21.289999999999999</ele>
        <time>2026-06-28T13:12:13Z</time>
      </trkpt>
      <trkpt lat="51.755596026778221" lon="-9.887619037181139">
        <ele>21.289999999999999</ele>
        <time>2026-06-28T13:12:14Z</time>
      </trkpt>
      <trkpt lat="51.755627039819956" lon="-9.887480987235904">
        <ele>21.77</ele>
        <time>2026-06-28T13:12:15Z</time>
      </trkpt>
      <trkpt lat="51.755645982921124" lon="-9.887272026389837">
        <ele>21.77</ele>
        <time>2026-06-28T13:12:16Z</time>
      </trkpt>
      <trkpt lat="51.755660986527801" lon="-9.88710799254477">
        <ele>22.25</ele>
        <time>2026-06-28T13:12:17Z</time>
      </trkpt>
      <trkpt lat="51.75565998069942" lon="-9.886980000883341">
        <ele>22.25</ele>
        <time>2026-06-28T13:12:18Z</time>
      </trkpt>
      <trkpt lat="51.755626033991575" lon="-9.886877993121743">
        <ele>22.25</ele>
        <time>2026-06-28T13:12:19Z</time>
      </trkpt>
      <trkpt lat="51.755582028999925" lon="-9.886800963431597">
        <ele>22.25</ele>
        <time>2026-06-28T13:12:20Z</time>
      </trkpt>
      <trkpt lat="51.755507010966539" lon="-9.886752013117075">
        <ele>22.73</ele>
        <time>2026-06-28T13:12:21Z</time>
      </trkpt>
      <trkpt lat="51.755423024296761" lon="-9.88669803366065">
        <ele>23.210000000000001</ele>
        <time>2026-06-28T13:12:22Z</time>
      </trkpt>
      <trkpt lat="51.755331996828318" lon="-9.886640030890703">
        <ele>23.210000000000001</ele>
        <time>2026-06-28T13:12:23Z</time>
      </trkpt>
      <trkpt lat="51.755072996020317" lon="-9.886631984263659">
        <ele>24.649999999999999</ele>
        <time>2026-06-28T13:12:28Z</time>
      </trkpt>
      <trkpt lat="51.754916002973914" lon="-9.886639025062323">
        <ele>25.129999999999999</ele>
        <time>2026-06-28T13:12:31Z</time>
      </trkpt>
      <trkpt lat="51.754850959405303" lon="-9.886641036719084">
        <ele>25.129999999999999</ele>
        <time>2026-06-28T13:12:32Z</time>
      </trkpt>
      <trkpt lat="51.754790022969246" lon="-9.886643970385194">
        <ele>25.609999999999999</ele>
        <time>2026-06-28T13:12:33Z</time>
      </trkpt>
      <trkpt lat="51.754735959693789" lon="-9.886589990928769">
        <ele>26.09</ele>
        <time>2026-06-28T13:12:34Z</time>
      </trkpt>
      <trkpt lat="51.754676029086113" lon="-9.886529976502061">
        <ele>26.09</ele>
        <time>2026-06-28T13:12:35Z</time>
      </trkpt>
      <trkpt lat="51.754637975245714" lon="-9.886455964297056">
        <ele>26.09</ele>
        <time>2026-06-28T13:12:36Z</time>
      </trkpt>
      <trkpt lat="51.754595981910825" lon="-9.886344987899065">
        <ele>26.09</ele>
        <time>2026-06-28T13:12:37Z</time>
      </trkpt>
      <trkpt lat="51.754553988575935" lon="-9.88622797653079">
        <ele>26.09</ele>
        <time>2026-06-28T13:12:38Z</time>
      </trkpt>
      <trkpt lat="51.754563041031361" lon="-9.886094033718109">
        <ele>25.609999999999999</ele>
        <time>2026-06-28T13:12:39Z</time>
      </trkpt>
      <trkpt lat="51.754575027152896" lon="-9.885893035680056">
        <ele>25.609999999999999</ele>
        <time>2026-06-28T13:12:40Z</time>
      </trkpt>
      <trkpt lat="51.754604028537869" lon="-9.885789016261697">
        <ele>26.09</ele>
        <time>2026-06-28T13:12:41Z</time>
      </trkpt>
      <trkpt lat="51.754690026864409" lon="-9.885477041825652">
        <ele>25.609999999999999</ele>
        <time>2026-06-28T13:12:43Z</time>
      </trkpt>
      <trkpt lat="51.754730008542538" lon="-9.885335974395275">
        <ele>25.609999999999999</ele>
        <time>2026-06-28T13:12:44Z</time>
      </trkpt>
      <trkpt lat="51.754767978563905" lon="-9.88519599661231">
        <ele>25.129999999999999</ele>
        <time>2026-06-28T13:12:45Z</time>
      </trkpt>
      <trkpt lat="51.754841990768909" lon="-9.884930960834026">
        <ele>24.649999999999999</ele>
        <time>2026-06-28T13:12:47Z</time>
      </trkpt>
      <trkpt lat="51.754851965233684" lon="-9.884811015799642">
        <ele>24.170000000000002</ele>
        <time>2026-06-28T13:12:48Z</time>
      </trkpt>
      <trkpt lat="51.754848025739193" lon="-9.884674977511168">
        <ele>23.690000000000001</ele>
        <time>2026-06-28T13:12:49Z</time>
      </trkpt>
      <trkpt lat="51.754844002425671" lon="-9.884537011384964">
        <ele>23.210000000000001</ele>
        <time>2026-06-28T13:12:50Z</time>
      </trkpt>
      <trkpt lat="51.754839979112148" lon="-9.884392004460096">
        <ele>22.25</ele>
        <time>2026-06-28T13:12:51Z</time>
      </trkpt>
      <trkpt lat="51.754835033789277" lon="-9.884240962564945">
        <ele>20.809999999999999</ele>
        <time>2026-06-28T13:12:52Z</time>
      </trkpt>
      <trkpt lat="51.754850037395954" lon="-9.884090004488826">
        <ele>19.84</ele>
        <time>2026-06-28T13:12:53Z</time>
      </trkpt>
      <trkpt lat="51.754883984103799" lon="-9.883955977857113">
        <ele>18.879999999999999</ele>
        <time>2026-06-28T13:12:54Z</time>
      </trkpt>
      <trkpt lat="51.754919020459056" lon="-9.883822035044432">
        <ele>17.920000000000002</ele>
        <time>2026-06-28T13:12:55Z</time>
      </trkpt>
      <trkpt lat="51.754952967166901" lon="-9.88369002006948">
        <ele>16.960000000000001</ele>
        <time>2026-06-28T13:12:56Z</time>
      </trkpt>
      <trkpt lat="51.754994038492441" lon="-9.883425990119577">
        <ele>15.039999999999999</ele>
        <time>2026-06-28T13:12:58Z</time>
      </trkpt>
      <trkpt lat="51.755003007128835" lon="-9.883291963487864">
        <ele>14.56</ele>
        <time>2026-06-28T13:12:59Z</time>
      </trkpt>
      <trkpt lat="51.755023961886764" lon="-9.88300496712327">
        <ele>14.08</ele>
        <time>2026-06-28T13:13:01Z</time>
      </trkpt>
      <trkpt lat="51.755056986585259" lon="-9.882842022925615">
        <ele>13.6</ele>
        <time>2026-06-28T13:13:02Z</time>
      </trkpt>
      <trkpt lat="51.755263013765216" lon="-9.881981033831835">
        <ele>9.27</ele>
        <time>2026-06-28T13:13:07Z</time>
      </trkpt>
      <trkpt lat="51.755330990999937" lon="-9.88169495947659">
        <ele>7.35</ele>
        <time>2026-06-28T13:13:09Z</time>
      </trkpt>
      <trkpt lat="51.75535898655653" lon="-9.881574008613825">
        <ele>6.87</ele>
        <time>2026-06-28T13:13:10Z</time>
      </trkpt>
      <trkpt lat="51.755384970456362" lon="-9.881465965881944">
        <ele>5.91</ele>
        <time>2026-06-28T13:13:11Z</time>
      </trkpt>
      <trkpt lat="51.755409026518464" lon="-9.881363958120346">
        <ele>5.42</ele>
        <time>2026-06-28T13:13:12Z</time>
      </trkpt>
      <trkpt lat="51.755434004589915" lon="-9.8812610283494">
        <ele>4.94</ele>
        <time>2026-06-28T13:13:13Z</time>
      </trkpt>
      <trkpt lat="51.755451019853354" lon="-9.881136976182461">
        <ele>4.46</ele>
        <time>2026-06-28T13:13:14Z</time>
      </trkpt>
      <trkpt lat="51.755439033731818" lon="-9.88102700561285">
        <ele>3.98</ele>
        <time>2026-06-28T13:13:15Z</time>
      </trkpt>
      <trkpt lat="51.755396034568548" lon="-9.88091703504324">
        <ele>3.98</ele>
        <time>2026-06-28T13:13:16Z</time>
      </trkpt>
      <trkpt lat="51.755342977121472" lon="-9.880828019231558">
        <ele>3.98</ele>
        <time>2026-06-28T13:13:17Z</time>
      </trkpt>
      <trkpt lat="51.755290003493428" lon="-9.880739003419876">
        <ele>3.98</ele>
        <time>2026-06-28T13:13:18Z</time>
      </trkpt>
      <trkpt lat="51.755240969359875" lon="-9.880657028406858">
        <ele>3.98</ele>
        <time>2026-06-28T13:13:19Z</time>
      </trkpt>
      <trkpt lat="51.755163017660379" lon="-9.880605982616544">
        <ele>3.98</ele>
        <time>2026-06-28T13:13:20Z</time>
      </trkpt>
      <trkpt lat="51.755085987970233" lon="-9.88055401481688">
        <ele>4.46</ele>
        <time>2026-06-28T13:13:21Z</time>
      </trkpt>
      <trkpt lat="51.754982974380255" lon="-9.880486037582159">
        <ele>5.42</ele>
        <time>2026-06-28T13:13:22Z</time>
      </trkpt>
      <trkpt lat="51.754934024065733" lon="-9.880492994561791">
        <ele>5.91</ele>
        <time>2026-06-28T13:13:23Z</time>
      </trkpt>
      <trkpt lat="51.754846014082432" lon="-9.880506992340088">
        <ele>6.87</ele>
        <time>2026-06-28T13:13:24Z</time>
      </trkpt>
      <trkpt lat="51.754749035462737" lon="-9.880521995946765">
        <ele>7.83</ele>
        <time>2026-06-28T13:13:25Z</time>
      </trkpt>
      <trkpt lat="51.753866001963615" lon="-9.880952993407846">
        <ele>13.6</ele>
        <time>2026-06-28T13:13:33Z</time>
      </trkpt>
      <trkpt lat="51.752862017601728" lon="-9.881521034985781">
        <ele>17.920000000000002</ele>
        <time>2026-06-28T13:13:42Z</time>
      </trkpt>
      <trkpt lat="51.751908995211124" lon="-9.882547985762358">
        <ele>21.77</ele>
        <time>2026-06-28T13:13:52Z</time>
      </trkpt>
      <trkpt lat="51.751611018553376" lon="-9.882870018482208">
        <ele>22.73</ele>
        <time>2026-06-28T13:13:55Z</time>
      </trkpt>
      <trkpt lat="51.750959996134043" lon="-9.883606033399701">
        <ele>27.050000000000001</ele>
        <time>2026-06-28T13:14:02Z</time>
      </trkpt>
      <trkpt lat="51.750877015292645" lon="-9.883714998140931">
        <ele>28.02</ele>
        <time>2026-06-28T13:14:03Z</time>
      </trkpt>
      <trkpt lat="51.750793028622866" lon="-9.883807031437755">
        <ele>28.98</ele>
        <time>2026-06-28T13:14:04Z</time>
      </trkpt>
      <trkpt lat="51.750621031969786" lon="-9.883996965363622">
        <ele>30.899999999999999</ele>
        <time>2026-06-28T13:14:06Z</time>
      </trkpt>
      <trkpt lat="51.750421039760113" lon="-9.884154964238405">
        <ele>31.859999999999999</ele>
        <time>2026-06-28T13:14:08Z</time>
      </trkpt>
      <trkpt lat="51.75031098537147" lon="-9.88418597728014">
        <ele>32.340000000000003</ele>
        <time>2026-06-28T13:14:09Z</time>
      </trkpt>
      <trkpt lat="51.750104036182165" lon="-9.884243980050087">
        <ele>33.299999999999997</ele>
        <time>2026-06-28T13:14:11Z</time>
      </trkpt>
      <trkpt lat="51.749999010935426" lon="-9.884272981435061">
        <ele>33.780000000000001</ele>
        <time>2026-06-28T13:14:12Z</time>
      </trkpt>
      <trkpt lat="51.749095022678375" lon="-9.884838005527854">
        <ele>37.630000000000003</ele>
        <time>2026-06-28T13:14:21Z</time>
      </trkpt>
      <trkpt lat="51.748901987448335" lon="-9.884823001921177">
        <ele>39.549999999999997</ele>
        <time>2026-06-28T13:14:23Z</time>
      </trkpt>
      <trkpt lat="51.748707024380565" lon="-9.884927021339536">
        <ele>40.990000000000002</ele>
        <time>2026-06-28T13:14:25Z</time>
      </trkpt>
      <trkpt lat="51.74861297942698" lon="-9.884989969432354">
        <ele>41.469999999999999</ele>
        <time>2026-06-28T13:14:26Z</time>
      </trkpt>
      <trkpt lat="51.748546008020639" lon="-9.885034980252385">
        <ele>41.950000000000003</ele>
        <time>2026-06-28T13:14:27Z</time>
      </trkpt>
      <trkpt lat="51.748476019129157" lon="-9.885149979963899">
        <ele>42.439999999999998</ele>
        <time>2026-06-28T13:14:28Z</time>
      </trkpt>
      <trkpt lat="51.74841801635921" lon="-9.885246958583593">
        <ele>42.439999999999998</ele>
        <time>2026-06-28T13:14:29Z</time>
      </trkpt>
      <trkpt lat="51.748385997489095" lon="-9.885353995487094">
        <ele>42.439999999999998</ele>
        <time>2026-06-28T13:14:30Z</time>
      </trkpt>
      <trkpt lat="51.748344004154205" lon="-9.88549598492682">
        <ele>42.920000000000002</ele>
        <time>2026-06-28T13:14:31Z</time>
      </trkpt>
      <trkpt lat="51.748223975300789" lon="-9.885778035968542">
        <ele>44.359999999999999</ele>
        <time>2026-06-28T13:14:33Z</time>
      </trkpt>
      <trkpt lat="51.747899008914828" lon="-9.886280028149486">
        <ele>45.799999999999997</ele>
        <time>2026-06-28T13:14:37Z</time>
      </trkpt>
      <trkpt lat="51.747707985341549" lon="-9.886515978723764">
        <ele>45.32</ele>
        <time>2026-06-28T13:14:39Z</time>
      </trkpt>
      <trkpt lat="51.746709030121565" lon="-9.88783897832036">
        <ele>37.149999999999999</ele>
        <time>2026-06-28T13:14:50Z</time>
      </trkpt>
      <trkpt lat="51.746645998209715" lon="-9.8879440035671">
        <ele>36.670000000000002</ele>
        <time>2026-06-28T13:14:51Z</time>
      </trkpt>
      <trkpt lat="51.746584977954626" lon="-9.888045005500317">
        <ele>36.670000000000002</ele>
        <time>2026-06-28T13:14:52Z</time>
      </trkpt>
      <trkpt lat="51.746530998498201" lon="-9.888162016868591">
        <ele>36.189999999999998</ele>
        <time>2026-06-28T13:14:53Z</time>
      </trkpt>
      <trkpt lat="51.746489005163312" lon="-9.888295037671924">
        <ele>35.710000000000001</ele>
        <time>2026-06-28T13:14:54Z</time>
      </trkpt>
      <trkpt lat="51.746443994343281" lon="-9.88843702711165">
        <ele>34.740000000000002</ele>
        <time>2026-06-28T13:14:55Z</time>
      </trkpt>
      <trkpt lat="51.746394038200378" lon="-9.888612041249871">
        <ele>34.259999999999998</ele>
        <time>2026-06-28T13:14:56Z</time>
      </trkpt>
      <trkpt lat="51.746363025158644" lon="-9.888798035681248">
        <ele>33.780000000000001</ele>
        <time>2026-06-28T13:14:57Z</time>
      </trkpt>
      <trkpt lat="51.746332012116909" lon="-9.888983024284244">
        <ele>33.780000000000001</ele>
        <time>2026-06-28T13:14:58Z</time>
      </trkpt>
      <trkpt lat="51.74627099186182" lon="-9.889155020937324">
        <ele>33.780000000000001</ele>
        <time>2026-06-28T13:14:59Z</time>
      </trkpt>
      <trkpt lat="51.746178036555648" lon="-9.889294998720288">
        <ele>33.780000000000001</ele>
        <time>2026-06-28T13:15:00Z</time>
      </trkpt>
      <trkpt lat="51.745537994429469" lon="-9.890251960605383">
        <ele>35.229999999999997</ele>
        <time>2026-06-28T13:15:07Z</time>
      </trkpt>
      <trkpt lat="51.744886972010136" lon="-9.890903988853097">
        <ele>32.82</ele>
        <time>2026-06-28T13:15:13Z</time>
      </trkpt>
      <trkpt lat="51.744784964248538" lon="-9.891040027141571">
        <ele>32.340000000000003</ele>
        <time>2026-06-28T13:15:14Z</time>
      </trkpt>
      <trkpt lat="51.744490005075932" lon="-9.891429031267762">
        <ele>31.379999999999999</ele>
        <time>2026-06-28T13:15:17Z</time>
      </trkpt>
      <trkpt lat="51.744356984272599" lon="-9.891482004895806">
        <ele>30.899999999999999</ele>
        <time>2026-06-28T13:15:18Z</time>
      </trkpt>
      <trkpt lat="51.744021037593484" lon="-9.891660958528519">
        <ele>29.460000000000001</ele>
        <time>2026-06-28T13:15:21Z</time>
      </trkpt>
      <trkpt lat="51.743944007903337" lon="-9.891778975725174">
        <ele>29.460000000000001</ele>
        <time>2026-06-28T13:15:22Z</time>
      </trkpt>
      <trkpt lat="51.743346964940429" lon="-9.892891002818942">
        <ele>25.129999999999999</ele>
        <time>2026-06-28T13:15:29Z</time>
      </trkpt>
      <trkpt lat="51.7423399630934" lon="-9.894695039838553">
        <ele>25.609999999999999</ele>
        <time>2026-06-28T13:15:40Z</time>
      </trkpt>
      <trkpt lat="51.741504035890102" lon="-9.896975001320243">
        <ele>24.649999999999999</ele>
        <time>2026-06-28T13:15:52Z</time>
      </trkpt>
      <trkpt lat="51.740565011277795" lon="-9.898662026971579">
        <ele>23.690000000000001</ele>
        <time>2026-06-28T13:16:02Z</time>
      </trkpt>
      <trkpt lat="51.740056984126568" lon="-9.899258986115456">
        <ele>23.210000000000001</ele>
        <time>2026-06-28T13:16:07Z</time>
      </trkpt>
      <trkpt lat="51.739791026338935" lon="-9.899500971660018">
        <ele>20.809999999999999</ele>
        <time>2026-06-28T13:16:10Z</time>
      </trkpt>
      <trkpt lat="51.739710979163647" lon="-9.899509018287063">
        <ele>20.32</ele>
        <time>2026-06-28T13:16:11Z</time>
      </trkpt>
      <trkpt lat="51.739639984443784" lon="-9.899515975266695">
        <ele>19.84</ele>
        <time>2026-06-28T13:16:12Z</time>
      </trkpt>
      <trkpt lat="51.739584999158978" lon="-9.89944196306169">
        <ele>19.359999999999999</ele>
        <time>2026-06-28T13:16:13Z</time>
      </trkpt>
      <trkpt lat="51.739539988338947" lon="-9.899339033290744">
        <ele>18.879999999999999</ele>
        <time>2026-06-28T13:16:14Z</time>
      </trkpt>
      <trkpt lat="51.739485003054142" lon="-9.899214981123805">
        <ele>17.920000000000002</ele>
        <time>2026-06-28T13:16:15Z</time>
      </trkpt>
      <trkpt lat="51.739422976970673" lon="-9.899076009169221">
        <ele>16.960000000000001</ele>
        <time>2026-06-28T13:16:16Z</time>
      </trkpt>
      <trkpt lat="51.739253997802734" lon="-9.898604024201632">
        <ele>14.08</ele>
        <time>2026-06-28T13:16:19Z</time>
      </trkpt>
      <trkpt lat="51.73920102417469" lon="-9.898442002013326">
        <ele>13.119999999999999</ele>
        <time>2026-06-28T13:16:20Z</time>
      </trkpt>
      <trkpt lat="51.739147966727614" lon="-9.89827997982502">
        <ele>12.630000000000001</ele>
        <time>2026-06-28T13:16:21Z</time>
      </trkpt>
      <trkpt lat="51.739129023626447" lon="-9.898087028414011">
        <ele>12.15</ele>
        <time>2026-06-28T13:16:22Z</time>
      </trkpt>
      <trkpt lat="51.739133968949318" lon="-9.897883012890816">
        <ele>11.67</ele>
        <time>2026-06-28T13:16:23Z</time>
      </trkpt>
      <trkpt lat="51.739140003919601" lon="-9.897678997367621">
        <ele>10.710000000000001</ele>
        <time>2026-06-28T13:16:24Z</time>
      </trkpt>
      <trkpt lat="51.739132041111588" lon="-9.895601961761713">
        <ele>6.39</ele>
        <time>2026-06-28T13:16:33Z</time>
      </trkpt>
      <trkpt lat="51.739183003082871" lon="-9.895187979564071">
        <ele>5.91</ele>
        <time>2026-06-28T13:16:35Z</time>
      </trkpt>
      <trkpt lat="51.739212004467845" lon="-9.89494800567627">
        <ele>5.42</ele>
        <time>2026-06-28T13:16:36Z</time>
      </trkpt>
      <trkpt lat="51.739247040823102" lon="-9.894810961559415">
        <ele>5.42</ele>
        <time>2026-06-28T13:16:37Z</time>
      </trkpt>
      <trkpt lat="51.739343013614416" lon="-9.894442996010184">
        <ele>6.87</ele>
        <time>2026-06-28T13:16:40Z</time>
      </trkpt>
      <trkpt lat="51.739362040534616" lon="-9.89436898380518">
        <ele>7.35</ele>
        <time>2026-06-28T13:16:41Z</time>
      </trkpt>
      <trkpt lat="51.739334966987371" lon="-9.894287008792162">
        <ele>7.83</ele>
        <time>2026-06-28T13:16:42Z</time>
      </trkpt>
      <trkpt lat="51.739304959774017" lon="-9.894235040992498">
        <ele>8.310000000000001</ele>
        <time>2026-06-28T13:16:43Z</time>
      </trkpt>
      <trkpt lat="51.739246034994721" lon="-9.894210984930396">
        <ele>9.27</ele>
        <time>2026-06-28T13:16:44Z</time>
      </trkpt>
      <trkpt lat="51.739192977547646" lon="-9.894220037385821">
        <ele>9.75</ele>
        <time>2026-06-28T13:16:45Z</time>
      </trkpt>
      <trkpt lat="51.739134974777699" lon="-9.894290026277304">
        <ele>10.23</ele>
        <time>2026-06-28T13:16:46Z</time>
      </trkpt>
      <trkpt lat="51.7390710208565" lon="-9.894367977976799">
        <ele>10.710000000000001</ele>
        <time>2026-06-28T13:16:47Z</time>
      </trkpt>
      <trkpt lat="51.739000026136637" lon="-9.894453976303339">
        <ele>11.19</ele>
        <time>2026-06-28T13:16:48Z</time>
      </trkpt>
      <trkpt lat="51.738908998668194" lon="-9.894568976014853">
        <ele>11.67</ele>
        <time>2026-06-28T13:16:49Z</time>
      </trkpt>
      <trkpt lat="51.738849990069866" lon="-9.894720017910004">
        <ele>12.630000000000001</ele>
        <time>2026-06-28T13:16:50Z</time>
      </trkpt>
      <trkpt lat="51.738786958158016" lon="-9.894881034269929">
        <ele>13.119999999999999</ele>
        <time>2026-06-28T13:16:51Z</time>
      </trkpt>
      <trkpt lat="51.738721998408437" lon="-9.895048001781106">
        <ele>13.6</ele>
        <time>2026-06-28T13:16:52Z</time>
      </trkpt>
      <trkpt lat="51.737909037619829" lon="-9.896738966926932">
        <ele>17.440000000000001</ele>
        <time>2026-06-28T13:17:01Z</time>
      </trkpt>
      <trkpt lat="51.737820021808147" lon="-9.896915992721915">
        <ele>17.920000000000002</ele>
        <time>2026-06-28T13:17:02Z</time>
      </trkpt>
      <trkpt lat="51.737475022673607" lon="-9.897451009601355">
        <ele>19.84</ele>
        <time>2026-06-28T13:17:06Z</time>
      </trkpt>
      <trkpt lat="51.737391036003828" lon="-9.897514041513205">
        <ele>20.32</ele>
        <time>2026-06-28T13:17:07Z</time>
      </trkpt>
      <trkpt lat="51.737305037677288" lon="-9.897561985999346">
        <ele>20.32</ele>
        <time>2026-06-28T13:17:08Z</time>
      </trkpt>
      <trkpt lat="51.737210992723703" lon="-9.897614037618041">
        <ele>20.809999999999999</ele>
        <time>2026-06-28T13:17:09Z</time>
      </trkpt>
      <trkpt lat="51.737115019932389" lon="-9.897667011246085">
        <ele>21.289999999999999</ele>
        <time>2026-06-28T13:17:10Z</time>
      </trkpt>
      <trkpt lat="51.737014017999172" lon="-9.897690983489156">
        <ele>21.77</ele>
        <time>2026-06-28T13:17:11Z</time>
      </trkpt>
      <trkpt lat="51.736917039379478" lon="-9.897684026509523">
        <ele>22.25</ele>
        <time>2026-06-28T13:17:12Z</time>
      </trkpt>
      <trkpt lat="51.736816959455609" lon="-9.897676985710859">
        <ele>22.73</ele>
        <time>2026-06-28T13:17:13Z</time>
      </trkpt>
      <trkpt lat="51.736726015806198" lon="-9.897645972669125">
        <ele>22.73</ele>
        <time>2026-06-28T13:17:14Z</time>
      </trkpt>
      <trkpt lat="51.73664596863091" lon="-9.897589981555939">
        <ele>22.73</ele>
        <time>2026-06-28T13:17:15Z</time>
      </trkpt>
      <trkpt lat="51.736566005274653" lon="-9.897533990442753">
        <ele>22.73</ele>
        <time>2026-06-28T13:17:16Z</time>
      </trkpt>
      <trkpt lat="51.736479001119733" lon="-9.897473976016045">
        <ele>22.25</ele>
        <time>2026-06-28T13:17:17Z</time>
      </trkpt>
      <trkpt lat="51.736407000571489" lon="-9.897423014044762">
        <ele>22.25</ele>
        <time>2026-06-28T13:17:18Z</time>
      </trkpt>
      <trkpt lat="51.73634204082191" lon="-9.897379009053111">
        <ele>22.73</ele>
        <time>2026-06-28T13:17:19Z</time>
      </trkpt>
      <trkpt lat="51.736270962283015" lon="-9.897328969091177">
        <ele>22.73</ele>
        <time>2026-06-28T13:17:20Z</time>
      </trkpt>
      <trkpt lat="51.7359350156039" lon="-9.897100981324911">
        <ele>22.73</ele>
        <time>2026-06-28T13:17:24Z</time>
      </trkpt>
      <trkpt lat="51.735582975670695" lon="-9.896875005215406">
        <ele>24.170000000000002</ele>
        <time>2026-06-28T13:17:28Z</time>
      </trkpt>
      <trkpt lat="51.73542195931077" lon="-9.896793030202389">
        <ele>24.649999999999999</ele>
        <time>2026-06-28T13:17:30Z</time>
      </trkpt>
      <trkpt lat="51.73533596098423" lon="-9.896793030202389">
        <ele>25.129999999999999</ele>
        <time>2026-06-28T13:17:31Z</time>
      </trkpt>
      <trkpt lat="51.734828017652035" lon="-9.896793030202389">
        <ele>25.129999999999999</ele>
        <time>2026-06-28T13:17:37Z</time>
      </trkpt>
      <trkpt lat="51.734777977690101" lon="-9.896793030202389">
        <ele>25.129999999999999</ele>
        <time>2026-06-28T13:17:38Z</time>
      </trkpt>
      <trkpt lat="51.734699020162225" lon="-9.896683981642127">
        <ele>24.649999999999999</ele>
        <time>2026-06-28T13:17:39Z</time>
      </trkpt>
      <trkpt lat="51.734717041254044" lon="-9.896631008014083">
        <ele>24.649999999999999</ele>
        <time>2026-06-28T13:17:40Z</time>
      </trkpt>
      <trkpt lat="51.734741013497114" lon="-9.896556995809078">
        <ele>24.649999999999999</ele>
        <time>2026-06-28T13:17:41Z</time>
      </trkpt>
      <trkpt lat="51.734773032367229" lon="-9.896459011361003">
        <ele>24.170000000000002</ele>
        <time>2026-06-28T13:17:42Z</time>
      </trkpt>
      <trkpt lat="51.734801027923822" lon="-9.896334037184715">
        <ele>24.170000000000002</ele>
        <time>2026-06-28T13:17:43Z</time>
      </trkpt>
      <trkpt lat="51.735177962109447" lon="-9.89481900818646">
        <ele>25.129999999999999</ele>
        <time>2026-06-28T13:17:51Z</time>
      </trkpt>
      <trkpt lat="51.735513992607594" lon="-9.8934440407902">
        <ele>25.129999999999999</ele>
        <time>2026-06-28T13:17:57Z</time>
      </trkpt>
      <trkpt lat="51.736042974516749" lon="-9.891325011849403">
        <ele>26.57</ele>
        <time>2026-06-28T13:18:06Z</time>
      </trkpt>
      <trkpt lat="51.736816959455609" lon="-9.888495029881597">
        <ele>28.02</ele>
        <time>2026-06-28T13:18:18Z</time>
      </trkpt>
      <trkpt lat="51.737489020451903" lon="-9.886529976502061">
        <ele>26.09</ele>
        <time>2026-06-28T13:18:26Z</time>
      </trkpt>
      <trkpt lat="51.737909037619829" lon="-9.885586006566882">
        <ele>25.129999999999999</ele>
        <time>2026-06-28T13:18:30Z</time>
      </trkpt>
      <trkpt lat="51.737993024289608" lon="-9.885359024628997">
        <ele>25.129999999999999</ele>
        <time>2026-06-28T13:18:31Z</time>
      </trkpt>
      <trkpt lat="51.738045997917652" lon="-9.885116033256054">
        <ele>24.649999999999999</ele>
        <time>2026-06-28T13:18:32Z</time>
      </trkpt>
      <trkpt lat="51.738093020394444" lon="-9.884862983599305">
        <ele>24.649999999999999</ele>
        <time>2026-06-28T13:18:33Z</time>
      </trkpt>
      <trkpt lat="51.738140964880586" lon="-9.884604988619685">
        <ele>24.170000000000002</ele>
        <time>2026-06-28T13:18:34Z</time>
      </trkpt>
      <trkpt lat="51.738443970680237" lon="-9.882728029042482">
        <ele>24.649999999999999</ele>
        <time>2026-06-28T13:18:41Z</time>
      </trkpt>
      <trkpt lat="51.738540027290583" lon="-9.882469028234482">
        <ele>24.649999999999999</ele>
        <time>2026-06-28T13:18:42Z</time>
      </trkpt>
      <trkpt lat="51.739210998639464" lon="-9.881085008382797">
        <ele>23.210000000000001</ele>
        <time>2026-06-28T13:18:48Z</time>
      </trkpt>
      <trkpt lat="51.739294985309243" lon="-9.88085400313139">
        <ele>22.73</ele>
        <time>2026-06-28T13:18:49Z</time>
      </trkpt>
      <trkpt lat="51.739343013614416" lon="-9.880582010373473">
        <ele>22.73</ele>
        <time>2026-06-28T13:18:50Z</time>
      </trkpt>
      <trkpt lat="51.739393975585699" lon="-9.880302976816893">
        <ele>22.25</ele>
        <time>2026-06-28T13:18:51Z</time>
      </trkpt>
      <trkpt lat="51.739435968920588" lon="-9.880013968795538">
        <ele>22.25</ele>
        <time>2026-06-28T13:18:52Z</time>
      </trkpt>
      <trkpt lat="51.739592039957643" lon="-9.877778012305498">
        <ele>20.32</ele>
        <time>2026-06-28T13:19:00Z</time>
      </trkpt>
      <trkpt lat="51.739789014682174" lon="-9.876175979152322">
        <ele>19.359999999999999</ele>
        <time>2026-06-28T13:19:07Z</time>
      </trkpt>
      <trkpt lat="51.74029896967113" lon="-9.874398009851575">
        <ele>17.920000000000002</ele>
        <time>2026-06-28T13:19:17Z</time>
      </trkpt>
      <trkpt lat="51.740375999361277" lon="-9.874206986278296">
        <ele>17.440000000000001</ele>
        <time>2026-06-28T13:19:18Z</time>
      </trkpt>
      <trkpt lat="51.740441964939237" lon="-9.873983021825552">
        <ele>17.440000000000001</ele>
        <time>2026-06-28T13:19:19Z</time>
      </trkpt>
      <trkpt lat="51.740874974057078" lon="-9.871821999549866">
        <ele>20.32</ele>
        <time>2026-06-28T13:19:27Z</time>
      </trkpt>
      <trkpt lat="51.741333967074752" lon="-9.870162969455123">
        <ele>22.25</ele>
        <time>2026-06-28T13:19:33Z</time>
      </trkpt>
      <trkpt lat="51.74207903444767" lon="-9.868279974907637">
        <ele>26.09</ele>
        <time>2026-06-28T13:19:41Z</time>
      </trkpt>
      <trkpt lat="51.742170983925462" lon="-9.868065984919667">
        <ele>26.57</ele>
        <time>2026-06-28T13:19:42Z</time>
      </trkpt>
      <trkpt lat="51.742270980030298" lon="-9.867854006588459">
        <ele>27.050000000000001</ele>
        <time>2026-06-28T13:19:43Z</time>
      </trkpt>
      <trkpt lat="51.742914961650968" lon="-9.866495970636606">
        <ele>26.09</ele>
        <time>2026-06-28T13:19:49Z</time>
      </trkpt>
      <trkpt lat="51.743967980146408" lon="-9.864585986360908">
        <ele>20.809999999999999</ele>
        <time>2026-06-28T13:19:57Z</time>
      </trkpt>
      <trkpt lat="51.744113992899656" lon="-9.864412983879447">
        <ele>20.809999999999999</ele>
        <time>2026-06-28T13:19:58Z</time>
      </trkpt>
      <trkpt lat="51.744276015087962" lon="-9.864221038296819">
        <ele>20.32</ele>
        <time>2026-06-28T13:19:59Z</time>
      </trkpt>
      <trkpt lat="51.744426973164082" lon="-9.864105032756925">
        <ele>19.84</ele>
        <time>2026-06-28T13:20:00Z</time>
      </trkpt>
      <trkpt lat="51.745628016069531" lon="-9.862994011491537">
        <ele>17.920000000000002</ele>
        <time>2026-06-28T13:20:07Z</time>
      </trkpt>
      <trkpt lat="51.746302004903555" lon="-9.862146014347673">
        <ele>21.289999999999999</ele>
        <time>2026-06-28T13:20:12Z</time>
      </trkpt>
      <trkpt lat="51.747418977320194" lon="-9.860398974269629">
        <ele>26.09</ele>
        <time>2026-06-28T13:20:21Z</time>
      </trkpt>
      <trkpt lat="51.748548019677401" lon="-9.858373990282416">
        <ele>28.5</ele>
        <time>2026-06-28T13:20:30Z</time>
      </trkpt>
      <trkpt lat="51.749245980754495" lon="-9.856523014605045">
        <ele>29.940000000000001</ele>
        <time>2026-06-28T13:20:37Z</time>
      </trkpt>
      <trkpt lat="51.749788960441947" lon="-9.854313964024186">
        <ele>32.340000000000003</ele>
        <time>2026-06-28T13:20:45Z</time>
      </trkpt>
      <trkpt lat="51.750062964856625" lon="-9.853649027645588">
        <ele>33.299999999999997</ele>
        <time>2026-06-28T13:20:48Z</time>
      </trkpt>
      <trkpt lat="51.750160027295351" lon="-9.853431014344096">
        <ele>32.82</ele>
        <time>2026-06-28T13:20:49Z</time>
      </trkpt>
      <trkpt lat="51.750902999192476" lon="-9.852198036387563">
        <ele>31.859999999999999</ele>
        <time>2026-06-28T13:20:55Z</time>
      </trkpt>
      <trkpt lat="51.751500964164734" lon="-9.851539973169565">
        <ele>33.780000000000001</ele>
        <time>2026-06-28T13:20:59Z</time>
      </trkpt>
      <trkpt lat="51.751656029373407" lon="-9.851408964022994">
        <ele>33.780000000000001</ele>
        <time>2026-06-28T13:21:00Z</time>
      </trkpt>
      <trkpt lat="51.752997972071171" lon="-9.850599020719528">
        <ele>31.379999999999999</ele>
        <time>2026-06-28T13:21:08Z</time>
      </trkpt>
      <trkpt lat="51.754027018323541" lon="-9.84946696087718">
        <ele>25.129999999999999</ele>
        <time>2026-06-28T13:21:15Z</time>
      </trkpt>
      <trkpt lat="51.755189001560211" lon="-9.847565023228526">
        <ele>24.170000000000002</ele>
        <time>2026-06-28T13:21:24Z</time>
      </trkpt>
      <trkpt lat="51.755520002916455" lon="-9.846904026344419">
        <ele>24.649999999999999</ele>
        <time>2026-06-28T13:21:27Z</time>
      </trkpt>
      <trkpt lat="51.755595020949841" lon="-9.846674026921392">
        <ele>24.649999999999999</ele>
        <time>2026-06-28T13:21:28Z</time>
      </trkpt>
      <trkpt lat="51.756023000925779" lon="-9.845411041751504">
        <ele>24.649999999999999</ele>
        <time>2026-06-28T13:21:33Z</time>
      </trkpt>
      <trkpt lat="51.756115034222603" lon="-9.845199985429645">
        <ele>24.649999999999999</ele>
        <time>2026-06-28T13:21:34Z</time>
      </trkpt>
      <trkpt lat="51.756216958165169" lon="-9.84501700848341">
        <ele>24.649999999999999</ele>
        <time>2026-06-28T13:21:35Z</time>
      </trkpt>
      <trkpt lat="51.757238963618875" lon="-9.843698032200337">
        <ele>27.050000000000001</ele>
        <time>2026-06-28T13:21:43Z</time>
      </trkpt>
      <trkpt lat="51.757487989962101" lon="-9.843465015292168">
        <ele>28.02</ele>
        <time>2026-06-28T13:21:45Z</time>
      </trkpt>
      <trkpt lat="51.757603995501995" lon="-9.843356972560287">
        <ele>28.02</ele>
        <time>2026-06-28T13:21:46Z</time>
      </trkpt>
      <trkpt lat="51.757731987163424" lon="-9.843307016417384">
        <ele>28.02</ele>
        <time>2026-06-28T13:21:47Z</time>
      </trkpt>
      <trkpt lat="51.757860984653234" lon="-9.843325037509203">
        <ele>28.02</ele>
        <time>2026-06-28T13:21:48Z</time>
      </trkpt>
      <trkpt lat="51.757942959666252" lon="-9.843434002250433">
        <ele>28.02</ele>
        <time>2026-06-28T13:21:49Z</time>
      </trkpt>
      <trkpt lat="51.758020995184779" lon="-9.843604993075132">
        <ele>28.02</ele>
        <time>2026-06-28T13:21:50Z</time>
      </trkpt>
      <trkpt lat="51.758078997954726" lon="-9.843794004991651">
        <ele>28.02</ele>
        <time>2026-06-28T13:21:51Z</time>
      </trkpt>
      <trkpt lat="51.758139012381434" lon="-9.843992991372943">
        <ele>28.5</ele>
        <time>2026-06-28T13:21:52Z</time>
      </trkpt>
      <trkpt lat="51.758201038464904" lon="-9.844199018552899">
        <ele>28.5</ele>
        <time>2026-06-28T13:21:53Z</time>
      </trkpt>
      <trkpt lat="51.758275972679257" lon="-9.844392975792289">
        <ele>28.5</ele>
        <time>2026-06-28T13:21:54Z</time>
      </trkpt>
      <trkpt lat="51.758351996541023" lon="-9.84458701685071">
        <ele>28.5</ele>
        <time>2026-06-28T13:21:55Z</time>
      </trkpt>
      <trkpt lat="51.758416034281254" lon="-9.844693969935179">
        <ele>28.5</ele>
        <time>2026-06-28T13:21:56Z</time>
      </trkpt>
      <trkpt lat="51.758523993194103" lon="-9.844711991026998">
        <ele>28.98</ele>
        <time>2026-06-28T13:21:57Z</time>
      </trkpt>
      <trkpt lat="51.758600017055869" lon="-9.844671003520489">
        <ele>28.5</ele>
        <time>2026-06-28T13:21:58Z</time>
      </trkpt>
      <trkpt lat="51.758702024817467" lon="-9.84458701685071">
        <ele>28.98</ele>
        <time>2026-06-28T13:21:59Z</time>
      </trkpt>
      <trkpt lat="51.758815012872219" lon="-9.84448098577559">
        <ele>29.460000000000001</ele>
        <time>2026-06-28T13:22:00Z</time>
      </trkpt>
      <trkpt lat="51.758931018412113" lon="-9.844336984679103">
        <ele>29.460000000000001</ele>
        <time>2026-06-28T13:22:01Z</time>
      </trkpt>
      <trkpt lat="51.759177027270198" lon="-9.84403096139431">
        <ele>30.899999999999999</ele>
        <time>2026-06-28T13:22:03Z</time>
      </trkpt>
      <trkpt lat="51.759299989789724" lon="-9.843877991661429">
        <ele>31.379999999999999</ele>
        <time>2026-06-28T13:22:04Z</time>
      </trkpt>
      <trkpt lat="51.759415995329618" lon="-9.843732984736562">
        <ele>31.859999999999999</ele>
        <time>2026-06-28T13:22:05Z</time>
      </trkpt>
      <trkpt lat="51.759529989212751" lon="-9.843612033873797">
        <ele>31.859999999999999</ele>
        <time>2026-06-28T13:22:06Z</time>
      </trkpt>
      <trkpt lat="51.759642977267504" lon="-9.843527963384986">
        <ele>32.340000000000003</ele>
        <time>2026-06-28T13:22:07Z</time>
      </trkpt>
      <trkpt lat="51.759746996685863" lon="-9.843450011685491">
        <ele>32.82</ele>
        <time>2026-06-28T13:22:08Z</time>
      </trkpt>
      <trkpt lat="51.759873982518911" lon="-9.843450011685491">
        <ele>32.82</ele>
        <time>2026-06-28T13:22:09Z</time>
      </trkpt>
      <trkpt lat="51.759983031079173" lon="-9.843450011685491">
        <ele>33.299999999999997</ele>
        <time>2026-06-28T13:22:10Z</time>
      </trkpt>
      <trkpt lat="51.760090989992023" lon="-9.843551013618708">
        <ele>33.780000000000001</ele>
        <time>2026-06-28T13:22:11Z</time>
      </trkpt>
      <trkpt lat="51.760206995531917" lon="-9.843659978359938">
        <ele>34.259999999999998</ele>
        <time>2026-06-28T13:22:12Z</time>
      </trkpt>
      <trkpt lat="51.76032199524343" lon="-9.843768021091819">
        <ele>34.259999999999998</ele>
        <time>2026-06-28T13:22:13Z</time>
      </trkpt>
      <trkpt lat="51.760438000783324" lon="-9.84381303191185">
        <ele>34.259999999999998</ele>
        <time>2026-06-28T13:22:14Z</time>
      </trkpt>
      <trkpt lat="51.760546965524554" lon="-9.843811020255089">
        <ele>33.780000000000001</ele>
        <time>2026-06-28T13:22:15Z</time>
      </trkpt>
      <trkpt lat="51.760674035176635" lon="-9.843747988343239">
        <ele>33.780000000000001</ele>
        <time>2026-06-28T13:22:16Z</time>
      </trkpt>
      <trkpt lat="51.760810995474458" lon="-9.843680011108518">
        <ele>33.780000000000001</ele>
        <time>2026-06-28T13:22:17Z</time>
      </trkpt>
      <trkpt lat="51.760956002399325" lon="-9.843607004731894">
        <ele>34.259999999999998</ele>
        <time>2026-06-28T13:22:18Z</time>
      </trkpt>
      <trkpt lat="51.761097991839051" lon="-9.8434719722718">
        <ele>34.740000000000002</ele>
        <time>2026-06-28T13:22:19Z</time>
      </trkpt>
      <trkpt lat="51.761221960186958" lon="-9.84329997561872">
        <ele>35.229999999999997</ele>
        <time>2026-06-28T13:22:20Z</time>
      </trkpt>
      <trkpt lat="51.761345006525517" lon="-9.84310400672257">
        <ele>35.229999999999997</ele>
        <time>2026-06-28T13:22:21Z</time>
      </trkpt>
      <trkpt lat="51.761466963216662" lon="-9.842909965664148">
        <ele>36.189999999999998</ele>
        <time>2026-06-28T13:22:22Z</time>
      </trkpt>
      <trkpt lat="51.761581962928176" lon="-9.842726988717914">
        <ele>36.670000000000002</ele>
        <time>2026-06-28T13:22:23Z</time>
      </trkpt>
      <trkpt lat="51.761694028973579" lon="-9.842574018985033">
        <ele>37.630000000000003</ele>
        <time>2026-06-28T13:22:24Z</time>
      </trkpt>
      <trkpt lat="51.762677980586886" lon="-9.841309022158384">
        <ele>42.920000000000002</ele>
        <time>2026-06-28T13:22:33Z</time>
      </trkpt>
      <trkpt lat="51.763574006035924" lon="-9.8400320392102">
        <ele>42.920000000000002</ele>
        <time>2026-06-28T13:22:40Z</time>
      </trkpt>
      <trkpt lat="51.763667967170477" lon="-9.839804973453283">
        <ele>42.439999999999998</ele>
        <time>2026-06-28T13:22:41Z</time>
      </trkpt>
      <trkpt lat="51.763722030445933" lon="-9.839540021494031">
        <ele>41.469999999999999</ele>
        <time>2026-06-28T13:22:42Z</time>
      </trkpt>
      <trkpt lat="51.763778021559119" lon="-9.839256964623928">
        <ele>40.990000000000002</ele>
        <time>2026-06-28T13:22:43Z</time>
      </trkpt>
      <trkpt lat="51.763867037370801" lon="-9.838708033785224">
        <ele>39.07</ele>
        <time>2026-06-28T13:22:45Z</time>
      </trkpt>
      <trkpt lat="51.763960998505354" lon="-9.838440986350179">
        <ele>37.630000000000003</ele>
        <time>2026-06-28T13:22:46Z</time>
      </trkpt>
      <trkpt lat="51.764051020145416" lon="-9.838223978877068">
        <ele>36.670000000000002</ele>
        <time>2026-06-28T13:22:47Z</time>
      </trkpt>
      <trkpt lat="51.764731965959072" lon="-9.836761001497507">
        <ele>31.379999999999999</ele>
        <time>2026-06-28T13:22:53Z</time>
      </trkpt>
      <trkpt lat="51.765394974499941" lon="-9.834733000025153">
        <ele>27.050000000000001</ele>
        <time>2026-06-28T13:23:01Z</time>
      </trkpt>
      <trkpt lat="51.765770986676216" lon="-9.83219102025032">
        <ele>25.129999999999999</ele>
        <time>2026-06-28T13:23:10Z</time>
      </trkpt>
      <trkpt lat="51.766031999140978" lon="-9.828724013641477">
        <ele>16.48</ele>
        <time>2026-06-28T13:23:21Z</time>
      </trkpt>
      <trkpt lat="51.766120009124279" lon="-9.827259024605155">
        <ele>14.08</ele>
        <time>2026-06-28T13:23:26Z</time>
      </trkpt>
      <trkpt lat="51.766069969162345" lon="-9.827017961069942">
        <ele>13.119999999999999</ele>
        <time>2026-06-28T13:23:27Z</time>
      </trkpt>
      <trkpt lat="51.765920016914606" lon="-9.826270965859294">
        <ele>11.19</ele>
        <time>2026-06-28T13:23:30Z</time>
      </trkpt>
      <trkpt lat="51.765916999429464" lon="-9.825486000627279">
        <ele>9.27</ele>
        <time>2026-06-28T13:23:33Z</time>
      </trkpt>
      <trkpt lat="51.765939965844154" lon="-9.825218031182885">
        <ele>8.789999999999999</ele>
        <time>2026-06-28T13:23:34Z</time>
      </trkpt>
      <trkpt lat="51.765988999977708" lon="-9.824658036231995">
        <ele>7.35</ele>
        <time>2026-06-28T13:23:36Z</time>
      </trkpt>
      <trkpt lat="51.765981959179044" lon="-9.824365004897118">
        <ele>6.39</ele>
        <time>2026-06-28T13:23:37Z</time>
      </trkpt>
      <trkpt lat="51.76597198471427" lon="-9.824067028239369">
        <ele>5.91</ele>
        <time>2026-06-28T13:23:38Z</time>
      </trkpt>
      <trkpt lat="51.765548028051853" lon="-9.821483977138996">
        <ele>4.94</ele>
        <time>2026-06-28T13:23:47Z</time>
      </trkpt>
      <trkpt lat="51.764846965670586" lon="-9.819228993728757">
        <ele>3.98</ele>
        <time>2026-06-28T13:23:56Z</time>
      </trkpt>
      <trkpt lat="51.764131989330053" lon="-9.816667987033725">
        <ele>7.35</ele>
        <time>2026-06-28T13:24:07Z</time>
      </trkpt>
      <trkpt lat="51.764049008488655" lon="-9.816161971539259">
        <ele>8.310000000000001</ele>
        <time>2026-06-28T13:24:09Z</time>
      </trkpt>
      <trkpt lat="51.764007015153766" lon="-9.81590498238802">
        <ele>8.789999999999999</ele>
        <time>2026-06-28T13:24:10Z</time>
      </trkpt>
      <trkpt lat="51.763993017375469" lon="-9.815641036257148">
        <ele>9.27</ele>
        <time>2026-06-28T13:24:11Z</time>
      </trkpt>
      <trkpt lat="51.763989999890327" lon="-9.815371977165341">
        <ele>9.27</ele>
        <time>2026-06-28T13:24:12Z</time>
      </trkpt>
      <trkpt lat="51.763986982405186" lon="-9.815091015771031">
        <ele>9.75</ele>
        <time>2026-06-28T13:24:13Z</time>
      </trkpt>
      <trkpt lat="51.76397399045527" lon="-9.813859965652227">
        <ele>10.710000000000001</ele>
        <time>2026-06-28T13:24:18Z</time>
      </trkpt>
      <trkpt lat="51.763925962150097" lon="-9.813640024513006">
        <ele>10.710000000000001</ele>
        <time>2026-06-28T13:24:19Z</time>
      </trkpt>
      <trkpt lat="51.763884974643588" lon="-9.81345403008163">
        <ele>10.23</ele>
        <time>2026-06-28T13:24:20Z</time>
      </trkpt>
      <trkpt lat="51.763843987137079" lon="-9.813267029821873">
        <ele>9.75</ele>
        <time>2026-06-28T13:24:21Z</time>
      </trkpt>
      <trkpt lat="51.763806017115712" lon="-9.813095033168793">
        <ele>9.75</ele>
        <time>2026-06-28T13:24:22Z</time>
      </trkpt>
      <trkpt lat="51.763783972710371" lon="-9.812934016808868">
        <ele>9.75</ele>
        <time>2026-06-28T13:24:23Z</time>
      </trkpt>
      <trkpt lat="51.763796964660287" lon="-9.812761014327407">
        <ele>9.75</ele>
        <time>2026-06-28T13:24:24Z</time>
      </trkpt>
      <trkpt lat="51.763810962438583" lon="-9.812582982704043">
        <ele>9.75</ele>
        <time>2026-06-28T13:24:25Z</time>
      </trkpt>
      <trkpt lat="51.763930991292" lon="-9.810983967036009">
        <ele>12.15</ele>
        <time>2026-06-28T13:24:32Z</time>
      </trkpt>
      <trkpt lat="51.763930991292" lon="-9.810752961784601">
        <ele>12.15</ele>
        <time>2026-06-28T13:24:33Z</time>
      </trkpt>
      <trkpt lat="51.763930991292" lon="-9.810577025637031">
        <ele>12.15</ele>
        <time>2026-06-28T13:24:34Z</time>
      </trkpt>
      <trkpt lat="51.763870976865292" lon="-9.810397988185287">
        <ele>12.15</ele>
        <time>2026-06-28T13:24:35Z</time>
      </trkpt>
      <trkpt lat="51.763796964660287" lon="-9.810250969603658">
        <ele>12.15</ele>
        <time>2026-06-28T13:24:36Z</time>
      </trkpt>
      <trkpt lat="51.763695040717721" lon="-9.810104034841061">
        <ele>12.630000000000001</ele>
        <time>2026-06-28T13:24:37Z</time>
      </trkpt>
      <trkpt lat="51.763550033792853" lon="-9.810009989887476">
        <ele>12.630000000000001</ele>
        <time>2026-06-28T13:24:38Z</time>
      </trkpt>
      <trkpt lat="51.763407960534096" lon="-9.809917034581304">
        <ele>12.630000000000001</ele>
        <time>2026-06-28T13:24:39Z</time>
      </trkpt>
      <trkpt lat="51.76326597109437" lon="-9.8098239954561">
        <ele>12.630000000000001</ele>
        <time>2026-06-28T13:24:40Z</time>
      </trkpt>
      <trkpt lat="51.76313697360456" lon="-9.809740008786321">
        <ele>12.15</ele>
        <time>2026-06-28T13:24:41Z</time>
      </trkpt>
      <trkpt lat="51.763022979721427" lon="-9.809625009074807">
        <ele>11.67</ele>
        <time>2026-06-28T13:24:42Z</time>
      </trkpt>
      <trkpt lat="51.762928012758493" lon="-9.809499029070139">
        <ele>11.67</ele>
        <time>2026-06-28T13:24:43Z</time>
      </trkpt>
      <trkpt lat="51.762842014431953" lon="-9.809342036023736">
        <ele>11.67</ele>
        <time>2026-06-28T13:24:44Z</time>
      </trkpt>
      <trkpt lat="51.762755010277033" lon="-9.809184037148953">
        <ele>11.19</ele>
        <time>2026-06-28T13:24:45Z</time>
      </trkpt>
      <trkpt lat="51.762659959495068" lon="-9.809012040495873">
        <ele>11.67</ele>
        <time>2026-06-28T13:24:46Z</time>
      </trkpt>
      <trkpt lat="51.762578990310431" lon="-9.808849012479186">
        <ele>12.15</ele>
        <time>2026-06-28T13:24:47Z</time>
      </trkpt>
      <trkpt lat="51.762506989762187" lon="-9.808667963370681">
        <ele>12.630000000000001</ele>
        <time>2026-06-28T13:24:48Z</time>
      </trkpt>
      <trkpt lat="51.762374974787235" lon="-9.808269990608096">
        <ele>13.6</ele>
        <time>2026-06-28T13:24:50Z</time>
      </trkpt>
      <trkpt lat="51.762314038351178" lon="-9.808071004226804">
        <ele>14.08</ele>
        <time>2026-06-28T13:24:51Z</time>
      </trkpt>
      <trkpt lat="51.762257041409612" lon="-9.807886015623808">
        <ele>14.56</ele>
        <time>2026-06-28T13:24:52Z</time>
      </trkpt>
      <trkpt lat="51.762193003669381" lon="-9.807679988443852">
        <ele>15.039999999999999</ele>
        <time>2026-06-28T13:24:53Z</time>
      </trkpt>
      <trkpt lat="51.762183029204607" lon="-9.807475972920656">
        <ele>15.039999999999999</ele>
        <time>2026-06-28T13:24:54Z</time>
      </trkpt>
      <trkpt lat="51.76217095926404" lon="-9.807251002639532">
        <ele>15.52</ele>
        <time>2026-06-28T13:24:55Z</time>
      </trkpt>
      <trkpt lat="51.76217095926404" lon="-9.80703198350966">
        <ele>16</ele>
        <time>2026-06-28T13:24:56Z</time>
      </trkpt>
      <trkpt lat="51.76217095926404" lon="-9.806547006592155">
        <ele>16.48</ele>
        <time>2026-06-28T13:24:58Z</time>
      </trkpt>
      <trkpt lat="51.762162996456027" lon="-9.80632203631103">
        <ele>16.960000000000001</ele>
        <time>2026-06-28T13:24:59Z</time>
      </trkpt>
      <trkpt lat="51.762105999514461" lon="-9.806138975545764">
        <ele>17.440000000000001</ele>
        <time>2026-06-28T13:25:00Z</time>
      </trkpt>
      <trkpt lat="51.762038022279739" lon="-9.805983994156122">
        <ele>17.440000000000001</ele>
        <time>2026-06-28T13:25:01Z</time>
      </trkpt>
      <trkpt lat="51.761935008689761" lon="-9.805899001657963">
        <ele>17.920000000000002</ele>
        <time>2026-06-28T13:25:02Z</time>
      </trkpt>
      <trkpt lat="51.761807017028332" lon="-9.805844016373158">
        <ele>17.440000000000001</ele>
        <time>2026-06-28T13:25:03Z</time>
      </trkpt>
      <trkpt lat="51.761680031195283" lon="-9.805789031088352">
        <ele>16.960000000000001</ele>
        <time>2026-06-28T13:25:04Z</time>
      </trkpt>
      <trkpt lat="51.761552961543202" lon="-9.805734967812896">
        <ele>16.48</ele>
        <time>2026-06-28T13:25:05Z</time>
      </trkpt>
      <trkpt lat="51.761162029579282" lon="-9.805390974506736">
        <ele>15.039999999999999</ele>
        <time>2026-06-28T13:25:08Z</time>
      </trkpt>
      <trkpt lat="51.761018028482795" lon="-9.805250996723771">
        <ele>14.56</ele>
        <time>2026-06-28T13:25:09Z</time>
      </trkpt>
      <trkpt lat="51.760566998273134" lon="-9.804845983162522">
        <ele>14.08</ele>
        <time>2026-06-28T13:25:12Z</time>
      </trkpt>
      <trkpt lat="51.760431965813041" lon="-9.804793009534478">
        <ele>13.6</ele>
        <time>2026-06-28T13:25:13Z</time>
      </trkpt>
      <trkpt lat="51.760204983875155" lon="-9.804703993722796">
        <ele>13.119999999999999</ele>
        <time>2026-06-28T13:25:15Z</time>
      </trkpt>
      <trkpt lat="51.760093001648784" lon="-9.804617995396256">
        <ele>13.6</ele>
        <time>2026-06-28T13:25:16Z</time>
      </trkpt>
      <trkpt lat="51.759994011372328" lon="-9.80447500012815">
        <ele>13.6</ele>
        <time>2026-06-28T13:25:17Z</time>
      </trkpt>
      <trkpt lat="51.759923016652465" lon="-9.804300991818309">
        <ele>14.08</ele>
        <time>2026-06-28T13:25:18Z</time>
      </trkpt>
      <trkpt lat="51.759884962812066" lon="-9.804084990173578">
        <ele>14.56</ele>
        <time>2026-06-28T13:25:19Z</time>
      </trkpt>
      <trkpt lat="51.759858978912234" lon="-9.803862031549215">
        <ele>14.56</ele>
        <time>2026-06-28T13:25:20Z</time>
      </trkpt>
      <trkpt lat="51.759888986125588" lon="-9.803619962185621">
        <ele>15.039999999999999</ele>
        <time>2026-06-28T13:25:21Z</time>
      </trkpt>
      <trkpt lat="51.759921004995704" lon="-9.803370013833046">
        <ele>15.52</ele>
        <time>2026-06-28T13:25:22Z</time>
      </trkpt>
      <trkpt lat="51.760010020807385" lon="-9.802880007773638">
        <ele>15.039999999999999</ele>
        <time>2026-06-28T13:25:24Z</time>
      </trkpt>
      <trkpt lat="51.760151004418731" lon="-9.80245303362608">
        <ele>13.119999999999999</ele>
        <time>2026-06-28T13:25:26Z</time>
      </trkpt>
      <trkpt lat="51.760468007996678" lon="-9.801543010398746">
        <ele>8.789999999999999</ele>
        <time>2026-06-28T13:25:30Z</time>
      </trkpt>
      <trkpt lat="51.760531961917877" lon="-9.801303958520293">
        <ele>7.83</ele>
        <time>2026-06-28T13:25:31Z</time>
      </trkpt>
      <trkpt lat="51.760590970516205" lon="-9.801062978804112">
        <ele>6.87</ele>
        <time>2026-06-28T13:25:32Z</time>
      </trkpt>
      <trkpt lat="51.760962037369609" lon="-9.79875803925097">
        <ele>6.39</ele>
        <time>2026-06-28T13:25:41Z</time>
      </trkpt>
      <trkpt lat="51.761188013479114" lon="-9.797388017177582">
        <ele>10.23</ele>
        <time>2026-06-28T13:25:46Z</time>
      </trkpt>
      <trkpt lat="51.761236041784286" lon="-9.797099009156227">
        <ele>10.710000000000001</ele>
        <time>2026-06-28T13:25:47Z</time>
      </trkpt>
      <trkpt lat="51.761307958513498" lon="-9.796496015042067">
        <ele>12.630000000000001</ele>
        <time>2026-06-28T13:25:49Z</time>
      </trkpt>
      <trkpt lat="51.761398985981941" lon="-9.795019961893559">
        <ele>16.48</ele>
        <time>2026-06-28T13:25:54Z</time>
      </trkpt>
      <trkpt lat="51.761694028973579" lon="-9.793166974559426">
        <ele>20.32</ele>
        <time>2026-06-28T13:26:01Z</time>
      </trkpt>
      <trkpt lat="51.761750020086765" lon="-9.792903028428555">
        <ele>20.32</ele>
        <time>2026-06-28T13:26:02Z</time>
      </trkpt>
      <trkpt lat="51.761806011199951" lon="-9.792635980993509">
        <ele>20.32</ele>
        <time>2026-06-28T13:26:03Z</time>
      </trkpt>
      <trkpt lat="51.761863008141518" lon="-9.792368011549115">
        <ele>19.359999999999999</ele>
        <time>2026-06-28T13:26:04Z</time>
      </trkpt>
      <trkpt lat="51.761918999254704" lon="-9.792099958285689">
        <ele>18.879999999999999</ele>
        <time>2026-06-28T13:26:05Z</time>
      </trkpt>
      <trkpt lat="51.762348990887403" lon="-9.789496036246419">
        <ele>14.08</ele>
        <time>2026-06-28T13:26:15Z</time>
      </trkpt>
      <trkpt lat="51.762427026405931" lon="-9.787536012008786">
        <ele>10.710000000000001</ele>
        <time>2026-06-28T13:26:22Z</time>
      </trkpt>
      <trkpt lat="51.762391990050673" lon="-9.787266030907631">
        <ele>10.23</ele>
        <time>2026-06-28T13:26:23Z</time>
      </trkpt>
      <trkpt lat="51.762346979230642" lon="-9.786998983472586">
        <ele>9.75</ele>
        <time>2026-06-28T13:26:24Z</time>
      </trkpt>
      <trkpt lat="51.762301968410611" lon="-9.786726990714669">
        <ele>9.27</ele>
        <time>2026-06-28T13:26:25Z</time>
      </trkpt>
      <trkpt lat="51.762258969247341" lon="-9.786466984078288">
        <ele>8.789999999999999</ele>
        <time>2026-06-28T13:26:26Z</time>
      </trkpt>
      <trkpt lat="51.762246983125806" lon="-9.786226004362106">
        <ele>8.789999999999999</ele>
        <time>2026-06-28T13:26:27Z</time>
      </trkpt>
      <trkpt lat="51.762236002832651" lon="-9.785986030474305">
        <ele>8.310000000000001</ele>
        <time>2026-06-28T13:26:28Z</time>
      </trkpt>
      <trkpt lat="51.762256035581231" lon="-9.785731974989176">
        <ele>7.83</ele>
        <time>2026-06-28T13:26:29Z</time>
      </trkpt>
      <trkpt lat="51.762299034744501" lon="-9.785205004736781">
        <ele>6.87</ele>
        <time>2026-06-28T13:26:31Z</time>
      </trkpt>
      <trkpt lat="51.762347985059023" lon="-9.784955978393555">
        <ele>6.39</ele>
        <time>2026-06-28T13:26:32Z</time>
      </trkpt>
      <trkpt lat="51.762400958687067" lon="-9.784695971757174">
        <ele>5.91</ele>
        <time>2026-06-28T13:26:33Z</time>
      </trkpt>
      <trkpt lat="51.762450998649001" lon="-9.784448035061359">
        <ele>5.42</ele>
        <time>2026-06-28T13:26:34Z</time>
      </trkpt>
      <trkpt lat="51.762499026954174" lon="-9.784210994839668">
        <ele>5.42</ele>
        <time>2026-06-28T13:26:35Z</time>
      </trkpt>
      <trkpt lat="51.762546971440315" lon="-9.783975966274738">
        <ele>5.42</ele>
        <time>2026-06-28T13:26:36Z</time>
      </trkpt>
      <trkpt lat="51.762601034715772" lon="-9.783712020143867">
        <ele>5.42</ele>
        <time>2026-06-28T13:26:37Z</time>
      </trkpt>
      <trkpt lat="51.762786023318768" lon="-9.78185199201107">
        <ele>8.310000000000001</ele>
        <time>2026-06-28T13:26:45Z</time>
      </trkpt>
      <trkpt lat="51.762823993340135" lon="-9.781475979834795">
        <ele>8.789999999999999</ele>
        <time>2026-06-28T13:26:47Z</time>
      </trkpt>
      <trkpt lat="51.762842014431953" lon="-9.78129300288856">
        <ele>9.27</ele>
        <time>2026-06-28T13:26:48Z</time>
      </trkpt>
      <trkpt lat="51.762873027473688" lon="-9.780888995155692">
        <ele>9.75</ele>
        <time>2026-06-28T13:26:50Z</time>
      </trkpt>
      <trkpt lat="51.762837991118431" lon="-9.780709035694599">
        <ele>9.75</ele>
        <time>2026-06-28T13:26:51Z</time>
      </trkpt>
      <trkpt lat="51.762694995850325" lon="-9.779965979978442">
        <ele>9.27</ele>
        <time>2026-06-28T13:26:55Z</time>
      </trkpt>
      <trkpt lat="51.762694995850325" lon="-9.779775962233543">
        <ele>9.27</ele>
        <time>2026-06-28T13:26:56Z</time>
      </trkpt>
      <trkpt lat="51.76270698197186" lon="-9.779577981680632">
        <ele>8.789999999999999</ele>
        <time>2026-06-28T13:26:57Z</time>
      </trkpt>
      <trkpt lat="51.762766996398568" lon="-9.779403973370791">
        <ele>8.310000000000001</ele>
        <time>2026-06-28T13:26:58Z</time>
      </trkpt>
      <trkpt lat="51.762830028310418" lon="-9.779224013909698">
        <ele>7.83</ele>
        <time>2026-06-28T13:26:59Z</time>
      </trkpt>
      <trkpt lat="51.762933041900396" lon="-9.779119994491339">
        <ele>7.83</ele>
        <time>2026-06-28T13:27:00Z</time>
      </trkpt>
      <trkpt lat="51.763046029955149" lon="-9.779017986729741">
        <ele>7.83</ele>
        <time>2026-06-28T13:27:01Z</time>
      </trkpt>
      <trkpt lat="51.763161029666662" lon="-9.778914973139763">
        <ele>8.310000000000001</ele>
        <time>2026-06-28T13:27:02Z</time>
      </trkpt>
      <trkpt lat="51.763279968872666" lon="-9.778826963156462">
        <ele>8.789999999999999</ele>
        <time>2026-06-28T13:27:03Z</time>
      </trkpt>
      <trkpt lat="51.763410978019238" lon="-9.778773989528418">
        <ele>9.27</ele>
        <time>2026-06-28T13:27:04Z</time>
      </trkpt>
      <trkpt lat="51.76352396607399" lon="-9.778697965666652">
        <ele>9.75</ele>
        <time>2026-06-28T13:27:05Z</time>
      </trkpt>
      <trkpt lat="51.763627985492349" lon="-9.778608027845621">
        <ele>10.23</ele>
        <time>2026-06-28T13:27:06Z</time>
      </trkpt>
      <trkpt lat="51.763733010739088" lon="-9.778517000377178">
        <ele>10.710000000000001</ele>
        <time>2026-06-28T13:27:07Z</time>
      </trkpt>
      <trkpt lat="51.763829989358783" lon="-9.778380962088704">
        <ele>11.19</ele>
        <time>2026-06-28T13:27:08Z</time>
      </trkpt>
      <trkpt lat="51.763915987685323" lon="-9.778216006234288">
        <ele>12.15</ele>
        <time>2026-06-28T13:27:09Z</time>
      </trkpt>
      <trkpt lat="51.764007015153766" lon="-9.778041997924447">
        <ele>12.15</ele>
        <time>2026-06-28T13:27:10Z</time>
      </trkpt>
      <trkpt lat="51.76466197706759" lon="-9.776777001097798">
        <ele>10.23</ele>
        <time>2026-06-28T13:27:18Z</time>
      </trkpt>
      <trkpt lat="51.765435039997101" lon="-9.775455007329583">
        <ele>8.310000000000001</ele>
        <time>2026-06-28T13:27:27Z</time>
      </trkpt>
      <trkpt lat="51.765601001679897" lon="-9.775033984333277">
        <ele>7.83</ele>
        <time>2026-06-28T13:27:30Z</time>
      </trkpt>
      <trkpt lat="51.765635032206774" lon="-9.774836003780365">
        <ele>7.83</ele>
        <time>2026-06-28T13:27:32Z</time>
      </trkpt>
      <trkpt lat="51.765720024704933" lon="-9.774838015437126">
        <ele>7.83</ele>
        <time>2026-06-28T13:27:33Z</time>
      </trkpt>
      <trkpt lat="51.765751959756017" lon="-9.774871962144971">
        <ele>7.83</ele>
        <time>2026-06-28T13:27:34Z</time>
      </trkpt>
      <trkpt lat="51.765793031081557" lon="-9.774914961308241">
        <ele>7.83</ele>
        <time>2026-06-28T13:27:35Z</time>
      </trkpt>
      <trkpt lat="51.765848016366363" lon="-9.774971958249807">
        <ele>7.83</ele>
        <time>2026-06-28T13:27:36Z</time>
      </trkpt>
      <trkpt lat="51.765975002199411" lon="-9.775103973224759">
        <ele>8.310000000000001</ele>
        <time>2026-06-28T13:27:38Z</time>
      </trkpt>
      <trkpt lat="51.766044991090894" lon="-9.775175973773003">
        <ele>8.310000000000001</ele>
        <time>2026-06-28T13:27:39Z</time>
      </trkpt>
      <trkpt lat="51.766176000237465" lon="-9.775312012061477">
        <ele>8.789999999999999</ele>
        <time>2026-06-28T13:27:41Z</time>
      </trkpt>
      <trkpt lat="51.766269961372018" lon="-9.775476967915893">
        <ele>9.75</ele>
        <time>2026-06-28T13:27:43Z</time>
      </trkpt>
      <trkpt lat="51.766312038525939" lon="-9.775566989555955">
        <ele>9.75</ele>
        <time>2026-06-28T13:27:44Z</time>
      </trkpt>
      <trkpt lat="51.766357971355319" lon="-9.77566204033792">
        <ele>10.23</ele>
        <time>2026-06-28T13:27:45Z</time>
      </trkpt>
      <trkpt lat="51.7664660140872" lon="-9.77585700340569">
        <ele>11.19</ele>
        <time>2026-06-28T13:27:47Z</time>
      </trkpt>
      <trkpt lat="51.766541032120585" lon="-9.77592003531754">
        <ele>11.67</ele>
        <time>2026-06-28T13:27:48Z</time>
      </trkpt>
      <trkpt lat="51.766705987975001" lon="-9.775993041694164">
        <ele>13.6</ele>
        <time>2026-06-28T13:27:50Z</time>
      </trkpt>
      <trkpt lat="51.766815958544612" lon="-9.77602900005877">
        <ele>14.56</ele>
        <time>2026-06-28T13:27:51Z</time>
      </trkpt>
      <trkpt lat="51.766913020983338" lon="-9.776018019765616">
        <ele>15.52</ele>
        <time>2026-06-28T13:27:52Z</time>
      </trkpt>
      <trkpt lat="51.767208985984325" lon="-9.775987006723881">
        <ele>18.879999999999999</ele>
        <time>2026-06-28T13:27:55Z</time>
      </trkpt>
      <trkpt lat="51.767892027273774" lon="-9.775907965376973">
        <ele>23.690000000000001</ele>
        <time>2026-06-28T13:28:01Z</time>
      </trkpt>
      <trkpt lat="51.767986994236708" lon="-9.77594199590385">
        <ele>24.649999999999999</ele>
        <time>2026-06-28T13:28:02Z</time>
      </trkpt>
      <trkpt lat="51.768058994784951" lon="-9.775976026430726">
        <ele>25.609999999999999</ele>
        <time>2026-06-28T13:28:03Z</time>
      </trkpt>
      <trkpt lat="51.768133006989956" lon="-9.776079040020704">
        <ele>26.57</ele>
        <time>2026-06-28T13:28:04Z</time>
      </trkpt>
      <trkpt lat="51.768220011144876" lon="-9.77620099671185">
        <ele>27.050000000000001</ele>
        <time>2026-06-28T13:28:05Z</time>
      </trkpt>
      <trkpt lat="51.769045041874051" lon="-9.77731796912849">
        <ele>29.940000000000001</ele>
        <time>2026-06-28T13:28:13Z</time>
      </trkpt>
      <trkpt lat="51.769160963594913" lon="-9.777419976890087">
        <ele>29.460000000000001</ele>
        <time>2026-06-28T13:28:14Z</time>
      </trkpt>
      <trkpt lat="51.769272023811936" lon="-9.777518967166543">
        <ele>28.98</ele>
        <time>2026-06-28T13:28:15Z</time>
      </trkpt>
      <trkpt lat="51.769379982724786" lon="-9.777614017948508">
        <ele>28.5</ele>
        <time>2026-06-28T13:28:16Z</time>
      </trkpt>
      <trkpt lat="51.769484002143145" lon="-9.77770496159792">
        <ele>28.5</ele>
        <time>2026-06-28T13:28:17Z</time>
      </trkpt>
      <trkpt lat="51.769587015733123" lon="-9.777795989066362">
        <ele>28.02</ele>
        <time>2026-06-28T13:28:18Z</time>
      </trkpt>
      <trkpt lat="51.769692040979862" lon="-9.777889028191567">
        <ele>27.530000000000001</ele>
        <time>2026-06-28T13:28:19Z</time>
      </trkpt>
      <trkpt lat="51.769794970750809" lon="-9.778031017631292">
        <ele>27.050000000000001</ele>
        <time>2026-06-28T13:28:20Z</time>
      </trkpt>
      <trkpt lat="51.770066963508725" lon="-9.778469977900386">
        <ele>25.129999999999999</ele>
        <time>2026-06-28T13:28:23Z</time>
      </trkpt>
      <trkpt lat="51.770156985148787" lon="-9.778613978996873">
        <ele>24.170000000000002</ele>
        <time>2026-06-28T13:28:24Z</time>
      </trkpt>
      <trkpt lat="51.77035697735846" lon="-9.778799973428249">
        <ele>22.73</ele>
        <time>2026-06-28T13:28:26Z</time>
      </trkpt>
      <trkpt lat="51.770445993170142" lon="-9.778856970369816">
        <ele>22.25</ele>
        <time>2026-06-28T13:28:27Z</time>
      </trkpt>
      <trkpt lat="51.770518999546766" lon="-9.778867028653622">
        <ele>22.25</ele>
        <time>2026-06-28T13:28:28Z</time>
      </trkpt>
      <trkpt lat="51.77061103284359" lon="-9.778874991461635">
        <ele>21.77</ele>
        <time>2026-06-28T13:28:29Z</time>
      </trkpt>
      <trkpt lat="51.770723015069962" lon="-9.778883960098028">
        <ele>21.77</ele>
        <time>2026-06-28T13:28:30Z</time>
      </trkpt>
      <trkpt lat="51.770842960104346" lon="-9.778894018381834">
        <ele>21.289999999999999</ele>
        <time>2026-06-28T13:28:31Z</time>
      </trkpt>
      <trkpt lat="51.770960977301002" lon="-9.778903992846608">
        <ele>20.809999999999999</ele>
        <time>2026-06-28T13:28:32Z</time>
      </trkpt>
      <trkpt lat="51.771060973405838" lon="-9.778997031971812">
        <ele>20.809999999999999</ele>
        <time>2026-06-28T13:28:33Z</time>
      </trkpt>
      <trkpt lat="51.7711509950459" lon="-9.779086969792843">
        <ele>20.32</ele>
        <time>2026-06-28T13:28:34Z</time>
      </trkpt>
      <trkpt lat="51.771245962008834" lon="-9.779182020574808">
        <ele>19.359999999999999</ele>
        <time>2026-06-28T13:28:35Z</time>
      </trkpt>
      <trkpt lat="51.771355010569096" lon="-9.779303977265954">
        <ele>18.879999999999999</ele>
        <time>2026-06-28T13:28:36Z</time>
      </trkpt>
      <trkpt lat="51.771636977791786" lon="-9.779770011082292">
        <ele>18.399999999999999</ele>
        <time>2026-06-28T13:28:39Z</time>
      </trkpt>
      <trkpt lat="51.771728005260229" lon="-9.779919041320682">
        <ele>18.879999999999999</ele>
        <time>2026-06-28T13:28:40Z</time>
      </trkpt>
      <trkpt lat="51.771810986101627" lon="-9.780096989125013">
        <ele>19.359999999999999</ele>
        <time>2026-06-28T13:28:41Z</time>
      </trkpt>
      <trkpt lat="51.771887009963393" lon="-9.780289018526673">
        <ele>19.84</ele>
        <time>2026-06-28T13:28:42Z</time>
      </trkpt>
      <trkpt lat="51.771963033825159" lon="-9.780479036271572">
        <ele>20.32</ele>
        <time>2026-06-28T13:28:43Z</time>
      </trkpt>
      <trkpt lat="51.772386990487576" lon="-9.78131496347487">
        <ele>21.289999999999999</ele>
        <time>2026-06-28T13:28:48Z</time>
      </trkpt>
      <trkpt lat="51.772420015186071" lon="-9.78148402646184">
        <ele>21.289999999999999</ele>
        <time>2026-06-28T13:28:49Z</time>
      </trkpt>
      <trkpt lat="51.77241699770093" lon="-9.781632972881198">
        <ele>21.289999999999999</ele>
        <time>2026-06-28T13:28:50Z</time>
      </trkpt>
      <trkpt lat="51.77239403128624" lon="-9.781775968149304">
        <ele>21.289999999999999</ele>
        <time>2026-06-28T13:28:51Z</time>
      </trkpt>
      <trkpt lat="51.772365029901266" lon="-9.781951988115907">
        <ele>21.289999999999999</ele>
        <time>2026-06-28T13:28:52Z</time>
      </trkpt>
      <trkpt lat="51.772192027419806" lon="-9.783200975507498">
        <ele>20.32</ele>
        <time>2026-06-28T13:28:58Z</time>
      </trkpt>
      <trkpt lat="51.772205019369721" lon="-9.783341037109494">
        <ele>20.32</ele>
        <time>2026-06-28T13:28:59Z</time>
      </trkpt>
      <trkpt lat="51.772249024361372" lon="-9.783472968265414">
        <ele>20.32</ele>
        <time>2026-06-28T13:29:00Z</time>
      </trkpt>
      <trkpt lat="51.772317001596093" lon="-9.783587967976928">
        <ele>19.84</ele>
        <time>2026-06-28T13:29:01Z</time>
      </trkpt>
      <trkpt lat="51.772402999922633" lon="-9.783716965466738">
        <ele>19.84</ele>
        <time>2026-06-28T13:29:02Z</time>
      </trkpt>
      <trkpt lat="51.772496961057186" lon="-9.783858032897115">
        <ele>19.359999999999999</ele>
        <time>2026-06-28T13:29:03Z</time>
      </trkpt>
      <trkpt lat="51.77286802791059" lon="-9.784526992589235">
        <ele>18.879999999999999</ele>
        <time>2026-06-28T13:29:07Z</time>
      </trkpt>
      <trkpt lat="51.772946985438466" lon="-9.784603016451001">
        <ele>18.879999999999999</ele>
        <time>2026-06-28T13:29:08Z</time>
      </trkpt>
      <trkpt lat="51.772985961288214" lon="-9.784634029492736">
        <ele>18.399999999999999</ele>
        <time>2026-06-28T13:29:09Z</time>
      </trkpt>
      <trkpt lat="51.773069025948644" lon="-9.784569991752505">
        <ele>17.920000000000002</ele>
        <time>2026-06-28T13:29:10Z</time>
      </trkpt>
      <trkpt lat="51.773162987083197" lon="-9.784496985375881">
        <ele>17.440000000000001</ele>
        <time>2026-06-28T13:29:11Z</time>
      </trkpt>
      <trkpt lat="51.773209003731608" lon="-9.784375028684735">
        <ele>17.440000000000001</ele>
        <time>2026-06-28T13:29:12Z</time>
      </trkpt>
      <trkpt lat="51.773258037865162" lon="-9.784196997061372">
        <ele>16.960000000000001</ele>
        <time>2026-06-28T13:29:13Z</time>
      </trkpt>
      <trkpt lat="51.773303970694542" lon="-9.784025000408292">
        <ele>16.48</ele>
        <time>2026-06-28T13:29:14Z</time>
      </trkpt>
      <trkpt lat="51.773349987342954" lon="-9.783857027068734">
        <ele>16</ele>
        <time>2026-06-28T13:29:15Z</time>
      </trkpt>
      <trkpt lat="51.7734270170331" lon="-9.783713025972247">
        <ele>15.52</ele>
        <time>2026-06-28T13:29:16Z</time>
      </trkpt>
      <trkpt lat="51.773501029238105" lon="-9.783626021817327">
        <ele>15.039999999999999</ele>
        <time>2026-06-28T13:29:17Z</time>
      </trkpt>
      <trkpt lat="51.773597002029419" lon="-9.783601965755224">
        <ele>14.56</ele>
        <time>2026-06-28T13:29:18Z</time>
      </trkpt>
      <trkpt lat="51.773694986477494" lon="-9.783576987683773">
        <ele>14.08</ele>
        <time>2026-06-28T13:29:19Z</time>
      </trkpt>
      <trkpt lat="51.773794982582331" lon="-9.783572964370251">
        <ele>13.6</ele>
        <time>2026-06-28T13:29:20Z</time>
      </trkpt>
      <trkpt lat="51.77390000782907" lon="-9.783609006553888">
        <ele>14.08</ele>
        <time>2026-06-28T13:29:21Z</time>
      </trkpt>
      <trkpt lat="51.773998998105526" lon="-9.783666003495455">
        <ele>14.08</ele>
        <time>2026-06-28T13:29:22Z</time>
      </trkpt>
      <trkpt lat="51.774081978946924" lon="-9.783738004043698">
        <ele>13.6</ele>
        <time>2026-06-28T13:29:23Z</time>
      </trkpt>
      <trkpt lat="51.774132018908858" lon="-9.783882005140185">
        <ele>13.6</ele>
        <time>2026-06-28T13:29:24Z</time>
      </trkpt>
      <trkpt lat="51.774163031950593" lon="-9.784015025943518">
        <ele>13.119999999999999</ele>
        <time>2026-06-28T13:29:25Z</time>
      </trkpt>
      <trkpt lat="51.774198990315199" lon="-9.784166989848018">
        <ele>12.630000000000001</ele>
        <time>2026-06-28T13:29:26Z</time>
      </trkpt>
      <trkpt lat="51.774236960336566" lon="-9.784332029521465">
        <ele>12.630000000000001</ele>
        <time>2026-06-28T13:29:27Z</time>
      </trkpt>
      <trkpt lat="51.774318013340235" lon="-9.784679040312767">
        <ele>12.15</ele>
        <time>2026-06-28T13:29:29Z</time>
      </trkpt>
      <trkpt lat="51.774337962269783" lon="-9.78485899977386">
        <ele>12.15</ele>
        <time>2026-06-28T13:29:30Z</time>
      </trkpt>
      <trkpt lat="51.774337962269783" lon="-9.785035019740462">
        <ele>11.67</ele>
        <time>2026-06-28T13:29:31Z</time>
      </trkpt>
      <trkpt lat="51.774337962269783" lon="-9.785364009439945">
        <ele>12.15</ele>
        <time>2026-06-28T13:29:33Z</time>
      </trkpt>
      <trkpt lat="51.774360006675124" lon="-9.785495018586516">
        <ele>12.15</ele>
        <time>2026-06-28T13:29:34Z</time>
      </trkpt>
      <trkpt lat="51.774419015273452" lon="-9.785615969449282">
        <ele>11.19</ele>
        <time>2026-06-28T13:29:35Z</time>
      </trkpt>
      <trkpt lat="51.774485986679792" lon="-9.785753013566136">
        <ele>10.710000000000001</ele>
        <time>2026-06-28T13:29:36Z</time>
      </trkpt>
      <trkpt lat="51.774564022198319" lon="-9.785915035754442">
        <ele>10.23</ele>
        <time>2026-06-28T13:29:37Z</time>
      </trkpt>
      <trkpt lat="51.774739036336541" lon="-9.786292975768447">
        <ele>8.789999999999999</ele>
        <time>2026-06-28T13:29:39Z</time>
      </trkpt>
      <trkpt lat="51.775037012994289" lon="-9.787389999255538">
        <ele>5.91</ele>
        <time>2026-06-28T13:29:44Z</time>
      </trkpt>
      <trkpt lat="51.775088980793953" lon="-9.787616981193423">
        <ele>5.91</ele>
        <time>2026-06-28T13:29:45Z</time>
      </trkpt>
      <trkpt lat="51.775155030190945" lon="-9.787828037515283">
        <ele>5.91</ele>
        <time>2026-06-28T13:29:46Z</time>
      </trkpt>
      <trkpt lat="51.775335995480418" lon="-9.788581989705563">
        <ele>4.94</ele>
        <time>2026-06-28T13:29:50Z</time>
      </trkpt>
      <trkpt lat="51.775344964116812" lon="-9.788745017722249">
        <ele>4.94</ele>
        <time>2026-06-28T13:29:51Z</time>
      </trkpt>
      <trkpt lat="51.775354016572237" lon="-9.788917014375329">
        <ele>4.46</ele>
        <time>2026-06-28T13:29:52Z</time>
      </trkpt>
      <trkpt lat="51.77536197938025" lon="-9.789076019078493">
        <ele>4.46</ele>
        <time>2026-06-28T13:29:53Z</time>
      </trkpt>
      <trkpt lat="51.775368014350533" lon="-9.789182972162962">
        <ele>3.5</ele>
        <time>2026-06-28T13:29:54Z</time>
      </trkpt>
      <trkpt lat="51.775415958836675" lon="-9.789269976317883">
        <ele>3.02</ele>
        <time>2026-06-28T13:29:55Z</time>
      </trkpt>
      <trkpt lat="51.775464992970228" lon="-9.789358992129564">
        <ele>2.06</ele>
        <time>2026-06-28T13:29:56Z</time>
      </trkpt>
      <trkpt lat="51.775518972426653" lon="-9.789455970749259">
        <ele>2.06</ele>
        <time>2026-06-28T13:29:57Z</time>
      </trkpt>
      <trkpt lat="51.77557404153049" lon="-9.789554039016366">
        <ele>2.06</ele>
        <time>2026-06-28T13:29:58Z</time>
      </trkpt>
      <trkpt lat="51.775617962703109" lon="-9.789686976000667">
        <ele>2.54</ele>
        <time>2026-06-28T13:29:59Z</time>
      </trkpt>
      <trkpt lat="51.775633972138166" lon="-9.789856960996985">
        <ele>2.54</ele>
        <time>2026-06-28T13:30:00Z</time>
      </trkpt>
      <trkpt lat="51.775608994066715" lon="-9.789998028427362">
        <ele>2.54</ele>
        <time>2026-06-28T13:30:01Z</time>
      </trkpt>
      <trkpt lat="51.775584015995264" lon="-9.79014596901834">
        <ele>3.02</ele>
        <time>2026-06-28T13:30:02Z</time>
      </trkpt>
      <trkpt lat="51.775557026267052" lon="-9.790296005085111">
        <ele>3.5</ele>
        <time>2026-06-28T13:30:03Z</time>
      </trkpt>
      <trkpt lat="51.775529030710459" lon="-9.790457021445036">
        <ele>3.5</ele>
        <time>2026-06-28T13:30:04Z</time>
      </trkpt>
      <trkpt lat="51.775497011840343" lon="-9.790642010048032">
        <ele>3.5</ele>
        <time>2026-06-28T13:30:05Z</time>
      </trkpt>
      <trkpt lat="51.775539005175233" lon="-9.790813000872731">
        <ele>3.02</ele>
        <time>2026-06-28T13:30:06Z</time>
      </trkpt>
      <trkpt lat="51.775594996288419" lon="-9.790997989475727">
        <ele>2.54</ele>
        <time>2026-06-28T13:30:07Z</time>
      </trkpt>
      <trkpt lat="51.775660961866379" lon="-9.791184989735484">
        <ele>2.54</ele>
        <time>2026-06-28T13:30:08Z</time>
      </trkpt>
      <trkpt lat="51.775800017639995" lon="-9.791583968326449">
        <ele>1.58</ele>
        <time>2026-06-28T13:30:10Z</time>
      </trkpt>
      <trkpt lat="51.775865983217955" lon="-9.791796030476689">
        <ele>1.58</ele>
        <time>2026-06-28T13:30:11Z</time>
      </trkpt>
      <trkpt lat="51.775892972946167" lon="-9.792028041556478">
        <ele>1.58</ele>
        <time>2026-06-28T13:30:12Z</time>
      </trkpt>
      <trkpt lat="51.775919962674379" lon="-9.79224999435246">
        <ele>1.58</ele>
        <time>2026-06-28T13:30:13Z</time>
      </trkpt>
      <trkpt lat="51.775944018736482" lon="-9.792451998218894">
        <ele>1.58</ele>
        <time>2026-06-28T13:30:14Z</time>
      </trkpt>
      <trkpt lat="51.775968996807933" lon="-9.792659031227231">
        <ele>1.1</ele>
        <time>2026-06-28T13:30:15Z</time>
      </trkpt>
      <trkpt lat="51.776031022891402" lon="-9.792769001796842">
        <ele>0.62</ele>
        <time>2026-06-28T13:30:16Z</time>
      </trkpt>
      <trkpt lat="51.77611299790442" lon="-9.792911997064948">
        <ele>0.14</ele>
        <time>2026-06-28T13:30:17Z</time>
      </trkpt>
      <trkpt lat="51.776202013716102" lon="-9.79306798428297">
        <ele>-0.34</ele>
        <time>2026-06-28T13:30:18Z</time>
      </trkpt>
      <trkpt lat="51.776331011205912" lon="-9.793192036449909">
        <ele>-0.34</ele>
        <time>2026-06-28T13:30:19Z</time>
      </trkpt>
      <trkpt lat="51.776461014524102" lon="-9.793294966220856">
        <ele>-0.82</ele>
        <time>2026-06-28T13:30:20Z</time>
      </trkpt>
      <trkpt lat="51.776601998135448" lon="-9.793383982032538">
        <ele>-0.82</ele>
        <time>2026-06-28T13:30:21Z</time>
      </trkpt>
      <trkpt lat="51.777057973667979" lon="-9.793683970347047">
        <ele>0.62</ele>
        <time>2026-06-28T13:30:25Z</time>
      </trkpt>
      <trkpt lat="51.777266012504697" lon="-9.793893015012145">
        <ele>2.06</ele>
        <time>2026-06-28T13:30:27Z</time>
      </trkpt>
      <trkpt lat="51.777362991124392" lon="-9.79398999363184">
        <ele>3.02</ele>
        <time>2026-06-28T13:30:28Z</time>
      </trkpt>
      <trkpt lat="51.777411019429564" lon="-9.794104993343353">
        <ele>3.5</ele>
        <time>2026-06-28T13:30:29Z</time>
      </trkpt>
      <trkpt lat="51.777462987229228" lon="-9.794230973348022">
        <ele>3.98</ele>
        <time>2026-06-28T13:30:30Z</time>
      </trkpt>
      <trkpt lat="51.777514033019543" lon="-9.79435502551496">
        <ele>4.46</ele>
        <time>2026-06-28T13:30:31Z</time>
      </trkpt>
      <trkpt lat="51.777529958635569" lon="-9.794492991641164">
        <ele>4.46</ele>
        <time>2026-06-28T13:30:32Z</time>
      </trkpt>
      <trkpt lat="51.777550997212529" lon="-9.794671023264527">
        <ele>4.94</ele>
        <time>2026-06-28T13:30:33Z</time>
      </trkpt>
      <trkpt lat="51.777620986104012" lon="-9.796083038672805">
        <ele>6.87</ele>
        <time>2026-06-28T13:30:40Z</time>
      </trkpt>
      <trkpt lat="51.77759500220418" lon="-9.796273978427053">
        <ele>6.87</ele>
        <time>2026-06-28T13:30:41Z</time>
      </trkpt>
      <trkpt lat="51.777485031634569" lon="-9.796864986419678">
        <ele>7.35</ele>
        <time>2026-06-28T13:30:44Z</time>
      </trkpt>
      <trkpt lat="51.777449995279312" lon="-9.797079982236028">
        <ele>7.83</ele>
        <time>2026-06-28T13:30:45Z</time>
      </trkpt>
      <trkpt lat="51.777461981400847" lon="-9.797286009415984">
        <ele>7.83</ele>
        <time>2026-06-28T13:30:46Z</time>
      </trkpt>
      <trkpt lat="51.777472961694002" lon="-9.79749396443367">
        <ele>7.83</ele>
        <time>2026-06-28T13:30:47Z</time>
      </trkpt>
      <trkpt lat="51.777484025806189" lon="-9.797703009098768">
        <ele>8.310000000000001</ele>
        <time>2026-06-28T13:30:48Z</time>
      </trkpt>
      <trkpt lat="51.777487965300679" lon="-9.797912975773215">
        <ele>8.310000000000001</ele>
        <time>2026-06-28T13:30:49Z</time>
      </trkpt>
      <trkpt lat="51.777472039684653" lon="-9.798137024044991">
        <ele>8.310000000000001</ele>
        <time>2026-06-28T13:30:50Z</time>
      </trkpt>
      <trkpt lat="51.77738101221621" lon="-9.799775015562773">
        <ele>9.27</ele>
        <time>2026-06-28T13:30:57Z</time>
      </trkpt>
      <trkpt lat="51.777410013601184" lon="-9.799968972802162">
        <ele>9.27</ele>
        <time>2026-06-28T13:30:58Z</time>
      </trkpt>
      <trkpt lat="51.777440020814538" lon="-9.800176005810499">
        <ele>9.27</ele>
        <time>2026-06-28T13:30:59Z</time>
      </trkpt>
      <trkpt lat="51.777480002492666" lon="-9.800406005233526">
        <ele>8.789999999999999</ele>
        <time>2026-06-28T13:31:00Z</time>
      </trkpt>
      <trkpt lat="51.777546973899007" lon="-9.800556963309646">
        <ele>8.789999999999999</ele>
        <time>2026-06-28T13:31:01Z</time>
      </trkpt>
      <trkpt lat="51.777641018852592" lon="-9.800661988556385">
        <ele>8.310000000000001</ele>
        <time>2026-06-28T13:31:02Z</time>
      </trkpt>
      <trkpt lat="51.777728023007512" lon="-9.800747986882925">
        <ele>8.310000000000001</ele>
        <time>2026-06-28T13:31:03Z</time>
      </trkpt>
      <trkpt lat="51.777821984142065" lon="-9.80084303766489">
        <ele>7.83</ele>
        <time>2026-06-28T13:31:04Z</time>
      </trkpt>
      <trkpt lat="51.777920974418521" lon="-9.800942027941346">
        <ele>7.83</ele>
        <time>2026-06-28T13:31:05Z</time>
      </trkpt>
      <trkpt lat="51.777991969138384" lon="-9.801053004339337">
        <ele>7.83</ele>
        <time>2026-06-28T13:31:06Z</time>
      </trkpt>
      <trkpt lat="51.778072016313672" lon="-9.801177978515625">
        <ele>7.83</ele>
        <time>2026-06-28T13:31:07Z</time>
      </trkpt>
      <trkpt lat="51.778142005205154" lon="-9.80133899487555">
        <ele>7.83</ele>
        <time>2026-06-28T13:31:08Z</time>
      </trkpt>
      <trkpt lat="51.778803002089262" lon="-9.80294899083674">
        <ele>7.83</ele>
        <time>2026-06-28T13:31:16Z</time>
      </trkpt>
      <trkpt lat="51.778996037319303" lon="-9.803643012419343">
        <ele>8.310000000000001</ele>
        <time>2026-06-28T13:31:19Z</time>
      </trkpt>
      <trkpt lat="51.779068959876895" lon="-9.803831018507481">
        <ele>7.83</ele>
        <time>2026-06-28T13:31:20Z</time>
      </trkpt>
      <trkpt lat="51.779208015650511" lon="-9.804173000156879">
        <ele>7.83</ele>
        <time>2026-06-28T13:31:22Z</time>
      </trkpt>
      <trkpt lat="51.779295019805431" lon="-9.804310966283083">
        <ele>7.83</ele>
        <time>2026-06-28T13:31:23Z</time>
      </trkpt>
      <trkpt lat="51.77939903922379" lon="-9.804385984316468">
        <ele>7.83</ele>
        <time>2026-06-28T13:31:24Z</time>
      </trkpt>
      <trkpt lat="51.779497023671865" lon="-9.804456979036331">
        <ele>7.83</ele>
        <time>2026-06-28T13:31:25Z</time>
      </trkpt>
      <trkpt lat="51.779595008119941" lon="-9.804527973756194">
        <ele>7.35</ele>
        <time>2026-06-28T13:31:26Z</time>
      </trkpt>
      <trkpt lat="51.779681006446481" lon="-9.804589999839664">
        <ele>6.87</ele>
        <time>2026-06-28T13:31:27Z</time>
      </trkpt>
      <trkpt lat="51.77970003336668" lon="-9.804708017036319">
        <ele>6.39</ele>
        <time>2026-06-28T13:31:28Z</time>
      </trkpt>
      <trkpt lat="51.779720988124609" lon="-9.804828967899084">
        <ele>5.91</ele>
        <time>2026-06-28T13:31:29Z</time>
      </trkpt>
      <trkpt lat="51.779741020873189" lon="-9.804954025894404">
        <ele>5.91</ele>
        <time>2026-06-28T13:31:30Z</time>
      </trkpt>
      <trkpt lat="51.779759963974357" lon="-9.805067013949156">
        <ele>5.42</ele>
        <time>2026-06-28T13:31:31Z</time>
      </trkpt>
      <trkpt lat="51.779776979237795" lon="-9.805164998397231">
        <ele>4.94</ele>
        <time>2026-06-28T13:31:32Z</time>
      </trkpt>
      <trkpt lat="51.779826013371348" lon="-9.805253008380532">
        <ele>3.98</ele>
        <time>2026-06-28T13:31:33Z</time>
      </trkpt>
      <trkpt lat="51.77989499643445" lon="-9.805289972573519">
        <ele>3.5</ele>
        <time>2026-06-28T13:31:34Z</time>
      </trkpt>
      <trkpt lat="51.779970014467835" lon="-9.805329032242298">
        <ele>3.02</ele>
        <time>2026-06-28T13:31:35Z</time>
      </trkpt>
      <trkpt lat="51.780048971995711" lon="-9.805371025577188">
        <ele>2.06</ele>
        <time>2026-06-28T13:31:36Z</time>
      </trkpt>
      <trkpt lat="51.780131030827761" lon="-9.805414024740458">
        <ele>1.58</ele>
        <time>2026-06-28T13:31:37Z</time>
      </trkpt>
      <trkpt lat="51.78019599057734" lon="-9.805447971448302">
        <ele>1.1</ele>
        <time>2026-06-28T13:31:38Z</time>
      </trkpt>
      <trkpt lat="51.780275031924248" lon="-9.805520977824926">
        <ele>0.62</ele>
        <time>2026-06-28T13:31:39Z</time>
      </trkpt>
      <trkpt lat="51.780460020527244" lon="-9.805700015276671">
        <ele>0.14</ele>
        <time>2026-06-28T13:31:42Z</time>
      </trkpt>
      <trkpt lat="51.780498996376991" lon="-9.805799005553126">
        <ele>0.14</ele>
        <time>2026-06-28T13:31:43Z</time>
      </trkpt>
      <trkpt lat="51.780540989711881" lon="-9.805907970294356">
        <ele>0.14</ele>
        <time>2026-06-28T13:31:44Z</time>
      </trkpt>
      <trkpt lat="51.780565967783332" lon="-9.806047026067972">
        <ele>0.14</ele>
        <time>2026-06-28T13:31:45Z</time>
      </trkpt>
      <trkpt lat="51.780593963339925" lon="-9.806202007457614">
        <ele>0.14</ele>
        <time>2026-06-28T13:31:46Z</time>
      </trkpt>
      <trkpt lat="51.780765959993005" lon="-9.807431967929006">
        <ele>1.1</ele>
        <time>2026-06-28T13:31:52Z</time>
      </trkpt>
      <trkpt lat="51.780774006620049" lon="-9.807660961523652">
        <ele>1.58</ele>
        <time>2026-06-28T13:31:53Z</time>
      </trkpt>
      <trkpt lat="51.78077501244843" lon="-9.807871012017131">
        <ele>2.06</ele>
        <time>2026-06-28T13:31:54Z</time>
      </trkpt>
      <trkpt lat="51.78077501244843" lon="-9.808056000620127">
        <ele>2.06</ele>
        <time>2026-06-28T13:31:55Z</time>
      </trkpt>
      <trkpt lat="51.780785992741585" lon="-9.808215005323291">
        <ele>2.54</ele>
        <time>2026-06-28T13:31:56Z</time>
      </trkpt>
      <trkpt lat="51.780827986076474" lon="-9.808379961177707">
        <ele>2.54</ele>
        <time>2026-06-28T13:31:57Z</time>
      </trkpt>
      <trkpt lat="51.780876014381647" lon="-9.808563021942973">
        <ele>2.54</ele>
        <time>2026-06-28T13:31:58Z</time>
      </trkpt>
      <trkpt lat="51.780964024364948" lon="-9.808908021077514">
        <ele>2.06</ele>
        <time>2026-06-28T13:32:00Z</time>
      </trkpt>
      <trkpt lat="51.780946003273129" lon="-9.80907398276031">
        <ele>1.58</ele>
        <time>2026-06-28T13:32:01Z</time>
      </trkpt>
      <trkpt lat="51.780918007716537" lon="-9.809255031868815">
        <ele>1.58</ele>
        <time>2026-06-28T13:32:02Z</time>
      </trkpt>
      <trkpt lat="51.780862016603351" lon="-9.809628026559949">
        <ele>1.58</ele>
        <time>2026-06-28T13:32:04Z</time>
      </trkpt>
      <trkpt lat="51.78086101077497" lon="-9.809790970757604">
        <ele>1.58</ele>
        <time>2026-06-28T13:32:05Z</time>
      </trkpt>
      <trkpt lat="51.780880959704518" lon="-9.809915022924542">
        <ele>2.06</ele>
        <time>2026-06-28T13:32:06Z</time>
      </trkpt>
      <trkpt lat="51.780935022979975" lon="-9.810021976009011">
        <ele>2.06</ele>
        <time>2026-06-28T13:32:07Z</time>
      </trkpt>
      <trkpt lat="51.781016997992992" lon="-9.810051983222365">
        <ele>2.06</ele>
        <time>2026-06-28T13:32:08Z</time>
      </trkpt>
      <trkpt lat="51.781085981056094" lon="-9.810076961293817">
        <ele>2.54</ele>
        <time>2026-06-28T13:32:09Z</time>
      </trkpt>
      <trkpt lat="51.781136021018028" lon="-9.810094982385635">
        <ele>3.5</ele>
        <time>2026-06-28T13:32:14Z</time>
      </trkpt>
      <trkpt lat="51.781202992424369" lon="-9.810119960457087">
        <ele>3.98</ele>
        <time>2026-06-28T13:32:20Z</time>
      </trkpt>
      <trkpt lat="51.781244985759258" lon="-9.810134964063764">
        <ele>3.98</ele>
        <time>2026-06-28T13:32:21Z</time>
      </trkpt>
      <trkpt lat="51.781597025692463" lon="-9.810164971277118">
        <ele>6.39</ele>
        <time>2026-06-28T13:32:29Z</time>
      </trkpt>
      <trkpt lat="51.781662991270423" lon="-9.810157008469105">
        <ele>6.87</ele>
        <time>2026-06-28T13:32:30Z</time>
      </trkpt>
      <trkpt lat="51.78174102678895" lon="-9.810147034004331">
        <ele>6.39</ele>
        <time>2026-06-28T13:32:31Z</time>
      </trkpt>
      <trkpt lat="51.782219968736172" lon="-9.809843022376299">
        <ele>7.35</ele>
        <time>2026-06-28T13:32:38Z</time>
      </trkpt>
      <trkpt lat="51.783026978373528" lon="-9.8093749769032">
        <ele>9.27</ele>
        <time>2026-06-28T13:32:44Z</time>
      </trkpt>
      <trkpt lat="51.783136026933789" lon="-9.809353016316891">
        <ele>9.75</ele>
        <time>2026-06-28T13:32:45Z</time>
      </trkpt>
      <trkpt lat="51.78322403691709" lon="-9.809390986338258">
        <ele>9.75</ele>
        <time>2026-06-28T13:32:46Z</time>
      </trkpt>
      <trkpt lat="51.783298971131444" lon="-9.809446977451444">
        <ele>9.75</ele>
        <time>2026-06-28T13:32:47Z</time>
      </trkpt>
      <trkpt lat="51.783342976123095" lon="-9.809541022405028">
        <ele>9.75</ele>
        <time>2026-06-28T13:32:48Z</time>
      </trkpt>
      <trkpt lat="51.783388992771506" lon="-9.809639006853104">
        <ele>9.75</ele>
        <time>2026-06-28T13:32:49Z</time>
      </trkpt>
      <trkpt lat="51.78343802690506" lon="-9.809774039313197">
        <ele>9.27</ele>
        <time>2026-06-28T13:32:50Z</time>
      </trkpt>
      <trkpt lat="51.783444983884692" lon="-9.80993396602571">
        <ele>9.27</ele>
        <time>2026-06-28T13:32:51Z</time>
      </trkpt>
      <trkpt lat="51.783454036340117" lon="-9.810109985992312">
        <ele>8.789999999999999</ele>
        <time>2026-06-28T13:32:52Z</time>
      </trkpt>
      <trkpt lat="51.78343903273344" lon="-9.810303021222353">
        <ele>8.789999999999999</ele>
        <time>2026-06-28T13:32:53Z</time>
      </trkpt>
      <trkpt lat="51.783407013863325" lon="-9.810502007603645">
        <ele>8.310000000000001</ele>
        <time>2026-06-28T13:32:54Z</time>
      </trkpt>
      <trkpt lat="51.78305497393012" lon="-9.812680967152119">
        <ele>6.39</ele>
        <time>2026-06-28T13:33:03Z</time>
      </trkpt>
      <trkpt lat="51.782763032242656" lon="-9.814780969172716">
        <ele>8.789999999999999</ele>
        <time>2026-06-28T13:33:11Z</time>
      </trkpt>
      <trkpt lat="51.78275004029274" lon="-9.815913029015064">
        <ele>10.23</ele>
        <time>2026-06-28T13:33:15Z</time>
      </trkpt>
      <trkpt lat="51.782776024192572" lon="-9.816150991246104">
        <ele>10.23</ele>
        <time>2026-06-28T13:33:16Z</time>
      </trkpt>
      <trkpt lat="51.782812988385558" lon="-9.816366992890835">
        <ele>10.23</ele>
        <time>2026-06-28T13:33:17Z</time>
      </trkpt>
      <trkpt lat="51.78288297727704" lon="-9.816565979272127">
        <ele>10.23</ele>
        <time>2026-06-28T13:33:18Z</time>
      </trkpt>
      <trkpt lat="51.782952966168523" lon="-9.816768988966942">
        <ele>9.75</ele>
        <time>2026-06-28T13:33:19Z</time>
      </trkpt>
      <trkpt lat="51.783047011122108" lon="-9.816930005326867">
        <ele>9.27</ele>
        <time>2026-06-28T13:33:20Z</time>
      </trkpt>
      <trkpt lat="51.783148013055325" lon="-9.817057996988297">
        <ele>9.27</ele>
        <time>2026-06-28T13:33:21Z</time>
      </trkpt>
      <trkpt lat="51.783257983624935" lon="-9.817131003364921">
        <ele>8.789999999999999</ele>
        <time>2026-06-28T13:33:22Z</time>
      </trkpt>
      <trkpt lat="51.783358985558152" lon="-9.817176014184952">
        <ele>8.789999999999999</ele>
        <time>2026-06-28T13:33:23Z</time>
      </trkpt>
      <trkpt lat="51.783454036340117" lon="-9.817197974771261">
        <ele>8.789999999999999</ele>
        <time>2026-06-28T13:33:24Z</time>
      </trkpt>
      <trkpt lat="51.783541962504387" lon="-9.817218007519841">
        <ele>8.789999999999999</ele>
        <time>2026-06-28T13:33:25Z</time>
      </trkpt>
      <trkpt lat="51.783604994416237" lon="-9.817267041653395">
        <ele>8.789999999999999</ele>
        <time>2026-06-28T13:33:26Z</time>
      </trkpt>
      <trkpt lat="51.783645981922746" lon="-9.817347005009651">
        <ele>8.310000000000001</ele>
        <time>2026-06-28T13:33:27Z</time>
      </trkpt>
      <trkpt lat="51.783668026328087" lon="-9.817459993064404">
        <ele>8.310000000000001</ele>
        <time>2026-06-28T13:33:28Z</time>
      </trkpt>
      <trkpt lat="51.783659979701042" lon="-9.817598965018988">
        <ele>8.310000000000001</ele>
        <time>2026-06-28T13:33:29Z</time>
      </trkpt>
      <trkpt lat="51.783650005236268" lon="-9.817756963893771">
        <ele>8.310000000000001</ele>
        <time>2026-06-28T13:33:30Z</time>
      </trkpt>
      <trkpt lat="51.783639024943113" lon="-9.817936001345515">
        <ele>8.310000000000001</ele>
        <time>2026-06-28T13:33:31Z</time>
      </trkpt>
      <trkpt lat="51.783626032993197" lon="-9.818132976070046">
        <ele>8.310000000000001</ele>
        <time>2026-06-28T13:33:32Z</time>
      </trkpt>
      <trkpt lat="51.78358999080956" lon="-9.818502031266689">
        <ele>8.310000000000001</ele>
        <time>2026-06-28T13:33:34Z</time>
      </trkpt>
      <trkpt lat="51.78354799747467" lon="-9.818667992949486">
        <ele>7.83</ele>
        <time>2026-06-28T13:33:35Z</time>
      </trkpt>
      <trkpt lat="51.7835049983114" lon="-9.818839989602566">
        <ele>7.83</ele>
        <time>2026-06-28T13:33:36Z</time>
      </trkpt>
      <trkpt lat="51.78337600082159" lon="-9.819356985390186">
        <ele>6.87</ele>
        <time>2026-06-28T13:33:39Z</time>
      </trkpt>
      <trkpt lat="51.7833530344069" lon="-9.81951599009335">
        <ele>6.87</ele>
        <time>2026-06-28T13:33:40Z</time>
      </trkpt>
      <trkpt lat="51.783358985558152" lon="-9.819638030603528">
        <ele>6.39</ele>
        <time>2026-06-28T13:33:41Z</time>
      </trkpt>
      <trkpt lat="51.783364014700055" lon="-9.819731991738081">
        <ele>6.39</ele>
        <time>2026-06-28T13:33:42Z</time>
      </trkpt>
      <trkpt lat="51.783367032185197" lon="-9.819795023649931">
        <ele>6.39</ele>
        <time>2026-06-28T13:33:43Z</time>
      </trkpt>
      <trkpt lat="51.783368960022926" lon="-9.819844979792833">
        <ele>5.91</ele>
        <time>2026-06-28T13:33:44Z</time>
      </trkpt>
      <trkpt lat="51.783371977508068" lon="-9.819888984784484">
        <ele>5.91</ele>
        <time>2026-06-28T13:33:45Z</time>
      </trkpt>
      <trkpt lat="51.783371977508068" lon="-9.819888984784484">
        <ele>6.39</ele>
        <time>2026-06-28T13:33:53Z</time>
      </trkpt>
      <trkpt lat="51.783371977508068" lon="-9.819888984784484">
        <ele>6.39</ele>
        <time>2026-06-28T13:34:11Z</time>
      </trkpt>
      <trkpt lat="51.783377006649971" lon="-9.819908011704683">
        <ele>5.91</ele>
        <time>2026-06-28T13:34:16Z</time>
      </trkpt>
      <trkpt lat="51.783383963629603" lon="-9.819932989776135">
        <ele>5.91</ele>
        <time>2026-06-28T13:34:17Z</time>
      </trkpt>
      <trkpt lat="51.783392010256648" lon="-9.819959979504347">
        <ele>5.91</ele>
        <time>2026-06-28T13:34:18Z</time>
      </trkpt>
      <trkpt lat="51.783399973064661" lon="-9.81998898088932">
        <ele>5.91</ele>
        <time>2026-06-28T13:34:19Z</time>
      </trkpt>
      <trkpt lat="51.783408019691706" lon="-9.820015970617533">
        <ele>5.91</ele>
        <time>2026-06-28T13:34:20Z</time>
      </trkpt>
      <trkpt lat="51.783427968621254" lon="-9.820086965337396">
        <ele>5.91</ele>
        <time>2026-06-28T13:34:30Z</time>
      </trkpt>
      <trkpt lat="51.783511033281684" lon="-9.820260973647237">
        <ele>5.42</ele>
        <time>2026-06-28T13:34:32Z</time>
      </trkpt>
      <trkpt lat="51.78356803022325" lon="-9.820336997509003">
        <ele>5.42</ele>
        <time>2026-06-28T13:34:33Z</time>
      </trkpt>
      <trkpt lat="51.783639024943113" lon="-9.820381002500653">
        <ele>5.42</ele>
        <time>2026-06-28T13:34:34Z</time>
      </trkpt>
      <trkpt lat="51.783713959157467" lon="-9.820408998057246">
        <ele>5.42</ele>
        <time>2026-06-28T13:34:35Z</time>
      </trkpt>
      <trkpt lat="51.783787971362472" lon="-9.820436993613839">
        <ele>5.42</ele>
        <time>2026-06-28T13:34:36Z</time>
      </trkpt>
      <trkpt lat="51.783857038244605" lon="-9.820462977513671">
        <ele>5.42</ele>
        <time>2026-06-28T13:34:37Z</time>
      </trkpt>
      <trkpt lat="51.783931972458959" lon="-9.820506982505322">
        <ele>5.42</ele>
        <time>2026-06-28T13:34:38Z</time>
      </trkpt>
      <trkpt lat="51.783949993550777" lon="-9.820616031065583">
        <ele>5.91</ele>
        <time>2026-06-28T13:34:39Z</time>
      </trkpt>
      <trkpt lat="51.783968014642596" lon="-9.820731030777097">
        <ele>5.91</ele>
        <time>2026-06-28T13:34:40Z</time>
      </trkpt>
      <trkpt lat="51.783987041562796" lon="-9.82084795832634">
        <ele>5.91</ele>
        <time>2026-06-28T13:34:41Z</time>
      </trkpt>
      <trkpt lat="51.784004978835583" lon="-9.820964969694614">
        <ele>5.91</ele>
        <time>2026-06-28T13:34:42Z</time>
      </trkpt>
      <trkpt lat="51.784052001312375" lon="-9.821077035740018">
        <ele>5.91</ele>
        <time>2026-06-28T13:34:43Z</time>
      </trkpt>
      <trkpt lat="51.784118972718716" lon="-9.82116898521781">
        <ele>5.91</ele>
        <time>2026-06-28T13:34:44Z</time>
      </trkpt>
      <trkpt lat="51.784188961610198" lon="-9.821265041828156">
        <ele>6.39</ele>
        <time>2026-06-28T13:34:45Z</time>
      </trkpt>
      <trkpt lat="51.784261967986822" lon="-9.821365959942341">
        <ele>6.39</ele>
        <time>2026-06-28T13:34:46Z</time>
      </trkpt>
      <trkpt lat="51.784330029040575" lon="-9.821458999067545">
        <ele>6.39</ele>
        <time>2026-06-28T13:34:47Z</time>
      </trkpt>
      <trkpt lat="51.784374034032226" lon="-9.821567041799426">
        <ele>6.39</ele>
        <time>2026-06-28T13:34:48Z</time>
      </trkpt>
      <trkpt lat="51.784402029588819" lon="-9.821692015975714">
        <ele>6.39</ele>
        <time>2026-06-28T13:34:49Z</time>
      </trkpt>
      <trkpt lat="51.784381996840239" lon="-9.821830987930298">
        <ele>5.91</ele>
        <time>2026-06-28T13:34:50Z</time>
      </trkpt>
      <trkpt lat="51.784361964091659" lon="-9.821977000683546">
        <ele>5.91</ele>
        <time>2026-06-28T13:34:51Z</time>
      </trkpt>
      <trkpt lat="51.78434201516211" lon="-9.822127036750317">
        <ele>5.91</ele>
        <time>2026-06-28T13:34:52Z</time>
      </trkpt>
      <trkpt lat="51.78432198241353" lon="-9.822268020361662">
        <ele>5.91</ele>
        <time>2026-06-28T13:34:53Z</time>
      </trkpt>
      <trkpt lat="51.784336986020207" lon="-9.822417972609401">
        <ele>5.91</ele>
        <time>2026-06-28T13:34:54Z</time>
      </trkpt>
      <trkpt lat="51.784361964091659" lon="-9.822544036433101">
        <ele>5.91</ele>
        <time>2026-06-28T13:34:55Z</time>
      </trkpt>
      <trkpt lat="51.784389037638903" lon="-9.822678985074163">
        <ele>6.39</ele>
        <time>2026-06-28T13:34:56Z</time>
      </trkpt>
      <trkpt lat="51.784416027367115" lon="-9.822813011705875">
        <ele>6.87</ele>
        <time>2026-06-28T13:34:57Z</time>
      </trkpt>
      <trkpt lat="51.78440404124558" lon="-9.822944020852447">
        <ele>6.87</ele>
        <time>2026-06-28T13:34:58Z</time>
      </trkpt>
      <trkpt lat="51.784374034032226" lon="-9.823095984756947">
        <ele>6.87</ele>
        <time>2026-06-28T13:34:59Z</time>
      </trkpt>
      <trkpt lat="51.78434201516211" lon="-9.82325398363173">
        <ele>6.87</ele>
        <time>2026-06-28T13:35:00Z</time>
      </trkpt>
      <trkpt lat="51.784318964928389" lon="-9.823423968628049">
        <ele>6.87</ele>
        <time>2026-06-28T13:35:01Z</time>
      </trkpt>
      <trkpt lat="51.784331034868956" lon="-9.823545003309846">
        <ele>7.35</ele>
        <time>2026-06-28T13:35:02Z</time>
      </trkpt>
      <trkpt lat="51.784378979355097" lon="-9.823600994423032">
        <ele>7.35</ele>
        <time>2026-06-28T13:35:03Z</time>
      </trkpt>
      <trkpt lat="51.784424996003509" lon="-9.823600994423032">
        <ele>7.35</ele>
        <time>2026-06-28T13:35:04Z</time>
      </trkpt>
      <trkpt lat="51.784487022086978" lon="-9.823600994423032">
        <ele>7.35</ele>
        <time>2026-06-28T13:35:05Z</time>
      </trkpt>
      <trkpt lat="51.784552987664938" lon="-9.823533017188311">
        <ele>7.35</ele>
        <time>2026-06-28T13:35:06Z</time>
      </trkpt>
      <trkpt lat="51.784637980163097" lon="-9.823444001376629">
        <ele>7.35</ele>
        <time>2026-06-28T13:35:07Z</time>
      </trkpt>
      <trkpt lat="51.784734036773443" lon="-9.823344005271792">
        <ele>7.35</ele>
        <time>2026-06-28T13:35:08Z</time>
      </trkpt>
      <trkpt lat="51.78492397069931" lon="-9.823146024718881">
        <ele>7.35</ele>
        <time>2026-06-28T13:35:10Z</time>
      </trkpt>
      <trkpt lat="51.78500996902585" lon="-9.823089027777314">
        <ele>7.35</ele>
        <time>2026-06-28T13:35:11Z</time>
      </trkpt>
      <trkpt lat="51.785099990665913" lon="-9.823096990585327">
        <ele>6.87</ele>
        <time>2026-06-28T13:35:12Z</time>
      </trkpt>
      <trkpt lat="51.785189006477594" lon="-9.823105037212372">
        <ele>6.87</ele>
        <time>2026-06-28T13:35:13Z</time>
      </trkpt>
      <trkpt lat="51.78526695817709" lon="-9.823158010840416">
        <ele>6.87</ele>
        <time>2026-06-28T13:35:14Z</time>
      </trkpt>
      <trkpt lat="51.785343987867236" lon="-9.823235040530562">
        <ele>6.87</ele>
        <time>2026-06-28T13:35:15Z</time>
      </trkpt>
      <trkpt lat="51.78541598841548" lon="-9.823307041078806">
        <ele>6.87</ele>
        <time>2026-06-28T13:35:16Z</time>
      </trkpt>
      <trkpt lat="51.785490000620484" lon="-9.823321960866451">
        <ele>6.87</ele>
        <time>2026-06-28T13:35:17Z</time>
      </trkpt>
      <trkpt lat="51.785582033917308" lon="-9.823321960866451">
        <ele>6.87</ele>
        <time>2026-06-28T13:35:18Z</time>
      </trkpt>
      <trkpt lat="51.785656968131661" lon="-9.823262030258775">
        <ele>6.39</ele>
        <time>2026-06-28T13:35:19Z</time>
      </trkpt>
      <trkpt lat="51.785727962851524" lon="-9.823155999183655">
        <ele>6.87</ele>
        <time>2026-06-28T13:35:20Z</time>
      </trkpt>
      <trkpt lat="51.785793006420135" lon="-9.823020966723561">
        <ele>6.87</ele>
        <time>2026-06-28T13:35:21Z</time>
      </trkpt>
      <trkpt lat="51.785865006968379" lon="-9.822873026132584">
        <ele>6.87</ele>
        <time>2026-06-28T13:35:22Z</time>
      </trkpt>
      <trkpt lat="51.78670696914196" lon="-9.821400996297598">
        <ele>11.19</ele>
        <time>2026-06-28T13:35:32Z</time>
      </trkpt>
      <trkpt lat="51.787695027887821" lon="-9.819458993151784">
        <ele>15.52</ele>
        <time>2026-06-28T13:35:43Z</time>
      </trkpt>
      <trkpt lat="51.788503965362906" lon="-9.81736502610147">
        <ele>19.359999999999999</ele>
        <time>2026-06-28T13:35:53Z</time>
      </trkpt>
      <trkpt lat="51.789416000247002" lon="-9.814734030514956">
        <ele>22.25</ele>
        <time>2026-06-28T13:36:05Z</time>
      </trkpt>
      <trkpt lat="51.789514990523458" lon="-9.814308984205127">
        <ele>22.73</ele>
        <time>2026-06-28T13:36:07Z</time>
      </trkpt>
      <trkpt lat="51.789556983858347" lon="-9.81410002335906">
        <ele>23.210000000000001</ele>
        <time>2026-06-28T13:36:08Z</time>
      </trkpt>
      <trkpt lat="51.789597971364856" lon="-9.813900031149387">
        <ele>23.210000000000001</ele>
        <time>2026-06-28T13:36:09Z</time>
      </trkpt>
      <trkpt lat="51.789642982184887" lon="-9.81369199231267">
        <ele>23.690000000000001</ele>
        <time>2026-06-28T13:36:10Z</time>
      </trkpt>
      <trkpt lat="51.789710959419608" lon="-9.8134970292449">
        <ele>23.690000000000001</ele>
        <time>2026-06-28T13:36:11Z</time>
      </trkpt>
      <trkpt lat="51.790039027109742" lon="-9.812709968537092">
        <ele>25.129999999999999</ele>
        <time>2026-06-28T13:36:15Z</time>
      </trkpt>
      <trkpt lat="51.790491985157132" lon="-9.811626020818949">
        <ele>25.609999999999999</ele>
        <time>2026-06-28T13:36:21Z</time>
      </trkpt>
      <trkpt lat="51.79052903316915" lon="-9.811438014730811">
        <ele>26.09</ele>
        <time>2026-06-28T13:36:22Z</time>
      </trkpt>
      <trkpt lat="51.790565997362137" lon="-9.811254031956196">
        <ele>26.09</ele>
        <time>2026-06-28T13:36:23Z</time>
      </trkpt>
      <trkpt lat="51.790627017617226" lon="-9.811089998111129">
        <ele>26.09</ele>
        <time>2026-06-28T13:36:24Z</time>
      </trkpt>
      <trkpt lat="51.790703041478992" lon="-9.810941973701119">
        <ele>26.57</ele>
        <time>2026-06-28T13:36:25Z</time>
      </trkpt>
      <trkpt lat="51.790780993178487" lon="-9.810792021453381">
        <ele>26.57</ele>
        <time>2026-06-28T13:36:26Z</time>
      </trkpt>
      <trkpt lat="51.790858022868633" lon="-9.810643997043371">
        <ele>27.050000000000001</ele>
        <time>2026-06-28T13:36:27Z</time>
      </trkpt>
      <trkpt lat="51.790913008153439" lon="-9.810450961813331">
        <ele>27.050000000000001</ele>
        <time>2026-06-28T13:36:28Z</time>
      </trkpt>
      <trkpt lat="51.790957013145089" lon="-9.810243006795645">
        <ele>27.050000000000001</ele>
        <time>2026-06-28T13:36:29Z</time>
      </trkpt>
      <trkpt lat="51.791003029793501" lon="-9.810023987665772">
        <ele>27.530000000000001</ele>
        <time>2026-06-28T13:36:30Z</time>
      </trkpt>
      <trkpt lat="51.791062038391829" lon="-9.809806980192661">
        <ele>27.530000000000001</ele>
        <time>2026-06-28T13:36:31Z</time>
      </trkpt>
      <trkpt lat="51.791137978434563" lon="-9.80958997271955">
        <ele>27.530000000000001</ele>
        <time>2026-06-28T13:36:32Z</time>
      </trkpt>
      <trkpt lat="51.791446013376117" lon="-9.808722026646137">
        <ele>27.530000000000001</ele>
        <time>2026-06-28T13:36:36Z</time>
      </trkpt>
      <trkpt lat="51.791514996439219" lon="-9.808517005294561">
        <ele>27.050000000000001</ele>
        <time>2026-06-28T13:36:37Z</time>
      </trkpt>
      <trkpt lat="51.791724041104317" lon="-9.807664984837174">
        <ele>26.57</ele>
        <time>2026-06-28T13:36:41Z</time>
      </trkpt>
      <trkpt lat="51.791741978377104" lon="-9.807463986799121">
        <ele>26.57</ele>
        <time>2026-06-28T13:36:42Z</time>
      </trkpt>
      <trkpt lat="51.791759999468923" lon="-9.807265000417829">
        <ele>26.57</ele>
        <time>2026-06-28T13:36:43Z</time>
      </trkpt>
      <trkpt lat="51.791778020560741" lon="-9.807069031521678">
        <ele>26.57</ele>
        <time>2026-06-28T13:36:44Z</time>
      </trkpt>
      <trkpt lat="51.79179604165256" lon="-9.806869961321354">
        <ele>26.57</ele>
        <time>2026-06-28T13:36:45Z</time>
      </trkpt>
      <trkpt lat="51.79184096865356" lon="-9.806681033223867">
        <ele>26.57</ele>
        <time>2026-06-28T13:36:46Z</time>
      </trkpt>
      <trkpt lat="51.791900983080268" lon="-9.806520016863942">
        <ele>26.09</ele>
        <time>2026-06-28T13:36:47Z</time>
      </trkpt>
      <trkpt lat="51.791953034698963" lon="-9.806382972747088">
        <ele>25.609999999999999</ele>
        <time>2026-06-28T13:36:48Z</time>
      </trkpt>
      <trkpt lat="51.791996033862233" lon="-9.806266967207193">
        <ele>25.609999999999999</ele>
        <time>2026-06-28T13:36:49Z</time>
      </trkpt>
      <trkpt lat="51.792042972519994" lon="-9.806163031607866">
        <ele>25.609999999999999</ele>
        <time>2026-06-28T13:36:50Z</time>
      </trkpt>
      <trkpt lat="51.792300967499614" lon="-9.805566994473338">
        <ele>24.649999999999999</ele>
        <time>2026-06-28T13:36:55Z</time>
      </trkpt>
      <trkpt lat="51.7923569586128" lon="-9.805399021133781">
        <ele>24.649999999999999</ele>
        <time>2026-06-28T13:36:56Z</time>
      </trkpt>
      <trkpt lat="51.792416973039508" lon="-9.805220989510417">
        <ele>24.170000000000002</ele>
        <time>2026-06-28T13:36:57Z</time>
      </trkpt>
      <trkpt lat="51.792477993294597" lon="-9.805036000907421">
        <ele>23.210000000000001</ele>
        <time>2026-06-28T13:36:58Z</time>
      </trkpt>
      <trkpt lat="51.792542031034827" lon="-9.804842965677381">
        <ele>22.73</ele>
        <time>2026-06-28T13:36:59Z</time>
      </trkpt>
      <trkpt lat="51.793267987668514" lon="-9.802779005840421">
        <ele>20.809999999999999</ele>
        <time>2026-06-28T13:37:09Z</time>
      </trkpt>
      <trkpt lat="51.793400002643466" lon="-9.802395030856133">
        <ele>19.84</ele>
        <time>2026-06-28T13:37:11Z</time>
      </trkpt>
      <trkpt lat="51.793445013463497" lon="-9.802192021161318">
        <ele>19.84</ele>
        <time>2026-06-28T13:37:12Z</time>
      </trkpt>
      <trkpt lat="51.793491030111909" lon="-9.80198297649622">
        <ele>20.32</ele>
        <time>2026-06-28T13:37:13Z</time>
      </trkpt>
      <trkpt lat="51.793696973472834" lon="-9.801090974360704">
        <ele>19.359999999999999</ele>
        <time>2026-06-28T13:37:17Z</time>
      </trkpt>
      <trkpt lat="51.793770985677838" lon="-9.800896011292934">
        <ele>19.359999999999999</ele>
        <time>2026-06-28T13:37:18Z</time>
      </trkpt>
      <trkpt lat="51.793862013146281" lon="-9.800729965791106">
        <ele>19.359999999999999</ele>
        <time>2026-06-28T13:37:19Z</time>
      </trkpt>
      <trkpt lat="51.794042978435755" lon="-9.800409022718668">
        <ele>18.879999999999999</ele>
        <time>2026-06-28T13:37:21Z</time>
      </trkpt>
      <trkpt lat="51.794103998690844" lon="-9.800205007195473">
        <ele>18.879999999999999</ele>
        <time>2026-06-28T13:37:22Z</time>
      </trkpt>
      <trkpt lat="51.794159989804029" lon="-9.7999859880656">
        <ele>18.399999999999999</ele>
        <time>2026-06-28T13:37:23Z</time>
      </trkpt>
      <trkpt lat="51.794754015281796" lon="-9.797895038500428">
        <ele>17.920000000000002</ele>
        <time>2026-06-28T13:37:32Z</time>
      </trkpt>
      <trkpt lat="51.795260030776262" lon="-9.79613802395761">
        <ele>16.960000000000001</ele>
        <time>2026-06-28T13:37:41Z</time>
      </trkpt>
      <trkpt lat="51.795322978869081" lon="-9.795919004827738">
        <ele>16.960000000000001</ele>
        <time>2026-06-28T13:37:42Z</time>
      </trkpt>
      <trkpt lat="51.79545097053051" lon="-9.795474009588361">
        <ele>16.960000000000001</ele>
        <time>2026-06-28T13:37:44Z</time>
      </trkpt>
      <trkpt lat="51.795506039634347" lon="-9.79525700211525">
        <ele>16.48</ele>
        <time>2026-06-28T13:37:45Z</time>
      </trkpt>
      <trkpt lat="51.795545015484095" lon="-9.7950229793787">
        <ele>16.960000000000001</ele>
        <time>2026-06-28T13:37:46Z</time>
      </trkpt>
      <trkpt lat="51.795734027400613" lon="-9.7938849683851">
        <ele>16.48</ele>
        <time>2026-06-28T13:37:51Z</time>
      </trkpt>
      <trkpt lat="51.796058993786573" lon="-9.791936008259654">
        <ele>13.119999999999999</ele>
        <time>2026-06-28T13:38:00Z</time>
      </trkpt>
      <trkpt lat="51.79609696380794" lon="-9.791708020493388">
        <ele>12.15</ele>
        <time>2026-06-28T13:38:01Z</time>
      </trkpt>
      <trkpt lat="51.796165024861693" lon="-9.791049035266042">
        <ele>10.23</ele>
        <time>2026-06-28T13:38:04Z</time>
      </trkpt>
      <trkpt lat="51.796182040125132" lon="-9.790857005864382">
        <ele>9.75</ele>
        <time>2026-06-28T13:38:05Z</time>
      </trkpt>
      <trkpt lat="51.796161001548171" lon="-9.790668999776244">
        <ele>9.75</ele>
        <time>2026-06-28T13:38:06Z</time>
      </trkpt>
      <trkpt lat="51.796067040413618" lon="-9.789189007133246">
        <ele>10.23</ele>
        <time>2026-06-28T13:38:13Z</time>
      </trkpt>
      <trkpt lat="51.79607299156487" lon="-9.788985997438431">
        <ele>10.710000000000001</ele>
        <time>2026-06-28T13:38:14Z</time>
      </trkpt>
      <trkpt lat="51.795989004895091" lon="-9.787084981799126">
        <ele>12.630000000000001</ele>
        <time>2026-06-28T13:38:23Z</time>
      </trkpt>
      <trkpt lat="51.795968972146511" lon="-9.786884989589453">
        <ele>13.119999999999999</ele>
        <time>2026-06-28T13:38:24Z</time>
      </trkpt>
      <trkpt lat="51.79598799906671" lon="-9.786717016249895">
        <ele>13.6</ele>
        <time>2026-06-28T13:38:25Z</time>
      </trkpt>
      <trkpt lat="51.79600995965302" lon="-9.786567986011505">
        <ele>13.6</ele>
        <time>2026-06-28T13:38:26Z</time>
      </trkpt>
      <trkpt lat="51.79603099822998" lon="-9.786417027935386">
        <ele>13.6</ele>
        <time>2026-06-28T13:38:27Z</time>
      </trkpt>
      <trkpt lat="51.796054970473051" lon="-9.786250982433558">
        <ele>14.08</ele>
        <time>2026-06-28T13:38:28Z</time>
      </trkpt>
      <trkpt lat="51.796075003221631" lon="-9.786115027964115">
        <ele>14.08</ele>
        <time>2026-06-28T13:38:29Z</time>
      </trkpt>
      <trkpt lat="51.796067962422967" lon="-9.785871030762792">
        <ele>14.08</ele>
        <time>2026-06-28T13:38:30Z</time>
      </trkpt>
      <trkpt lat="51.796062011271715" lon="-9.785659974440932">
        <ele>14.08</ele>
        <time>2026-06-28T13:38:31Z</time>
      </trkpt>
      <trkpt lat="51.796055976301432" lon="-9.785452019423246">
        <ele>13.6</ele>
        <time>2026-06-28T13:38:32Z</time>
      </trkpt>
      <trkpt lat="51.7960299924016" lon="-9.785242974758148">
        <ele>12.630000000000001</ele>
        <time>2026-06-28T13:38:33Z</time>
      </trkpt>
      <trkpt lat="51.79598699323833" lon="-9.785061003640294">
        <ele>12.630000000000001</ele>
        <time>2026-06-28T13:38:34Z</time>
      </trkpt>
      <trkpt lat="51.795907029882073" lon="-9.784720027819276">
        <ele>11.67</ele>
        <time>2026-06-28T13:38:36Z</time>
      </trkpt>
      <trkpt lat="51.795869981870055" lon="-9.784393971785903">
        <ele>10.710000000000001</ele>
        <time>2026-06-28T13:38:38Z</time>
      </trkpt>
      <trkpt lat="51.795862019062042" lon="-9.784230021759868">
        <ele>10.23</ele>
        <time>2026-06-28T13:38:39Z</time>
      </trkpt>
      <trkpt lat="51.795851960778236" lon="-9.784054001793265">
        <ele>10.23</ele>
        <time>2026-06-28T13:38:40Z</time>
      </trkpt>
      <trkpt lat="51.795842992141843" lon="-9.78386901319027">
        <ele>9.75</ele>
        <time>2026-06-28T13:38:41Z</time>
      </trkpt>
      <trkpt lat="51.795834023505449" lon="-9.783692993223667">
        <ele>9.27</ele>
        <time>2026-06-28T13:38:42Z</time>
      </trkpt>
      <trkpt lat="51.795823965221643" lon="-9.783512027934194">
        <ele>8.789999999999999</ele>
        <time>2026-06-28T13:38:43Z</time>
      </trkpt>
      <trkpt lat="51.795862019062042" lon="-9.783164011314511">
        <ele>7.83</ele>
        <time>2026-06-28T13:38:45Z</time>
      </trkpt>
      <trkpt lat="51.795897977426648" lon="-9.783005006611347">
        <ele>7.35</ele>
        <time>2026-06-28T13:38:46Z</time>
      </trkpt>
      <trkpt lat="51.795975007116795" lon="-9.782657995820046">
        <ele>5.91</ele>
        <time>2026-06-28T13:38:48Z</time>
      </trkpt>
      <trkpt lat="51.796013982966542" lon="-9.782481975853443">
        <ele>5.42</ele>
        <time>2026-06-28T13:38:49Z</time>
      </trkpt>
      <trkpt lat="51.796026974916458" lon="-9.782297993078828">
        <ele>4.46</ele>
        <time>2026-06-28T13:38:50Z</time>
      </trkpt>
      <trkpt lat="51.795989004895091" lon="-9.781372966244817">
        <ele>3.02</ele>
        <time>2026-06-28T13:38:54Z</time>
      </trkpt>
      <trkpt lat="51.795995961874723" lon="-9.781230976805091">
        <ele>3.02</ele>
        <time>2026-06-28T13:38:55Z</time>
      </trkpt>
      <trkpt lat="51.79600702598691" lon="-9.781024027615786">
        <ele>3.02</ele>
        <time>2026-06-28T13:38:56Z</time>
      </trkpt>
      <trkpt lat="51.796018006280065" lon="-9.780818000435829">
        <ele>3.98</ele>
        <time>2026-06-28T13:38:57Z</time>
      </trkpt>
      <trkpt lat="51.7960299924016" lon="-9.780595041811466">
        <ele>4.46</ele>
        <time>2026-06-28T13:38:58Z</time>
      </trkpt>
      <trkpt lat="51.796085983514786" lon="-9.779715025797486">
        <ele>5.42</ele>
        <time>2026-06-28T13:39:02Z</time>
      </trkpt>
      <trkpt lat="51.796132000163198" lon="-9.779516961425543">
        <ele>5.91</ele>
        <time>2026-06-28T13:39:03Z</time>
      </trkpt>
      <trkpt lat="51.79617902263999" lon="-9.77931504137814">
        <ele>5.91</ele>
        <time>2026-06-28T13:39:04Z</time>
      </trkpt>
      <trkpt lat="51.796310031786561" lon="-9.77890701033175">
        <ele>5.91</ele>
        <time>2026-06-28T13:39:06Z</time>
      </trkpt>
      <trkpt lat="51.796525027602911" lon="-9.778368975967169">
        <ele>5.91</ele>
        <time>2026-06-28T13:39:09Z</time>
      </trkpt>
      <trkpt lat="51.796587975695729" lon="-9.778159009292722">
        <ele>5.91</ele>
        <time>2026-06-28T13:39:10Z</time>
      </trkpt>
      <trkpt lat="51.796651007607579" lon="-9.777950970456004">
        <ele>5.91</ele>
        <time>2026-06-28T13:39:11Z</time>
      </trkpt>
      <trkpt lat="51.796714039519429" lon="-9.777741003781557">
        <ele>5.91</ele>
        <time>2026-06-28T13:39:12Z</time>
      </trkpt>
      <trkpt lat="51.796774975955486" lon="-9.777540005743504">
        <ele>5.91</ele>
        <time>2026-06-28T13:39:13Z</time>
      </trkpt>
      <trkpt lat="51.796835996210575" lon="-9.777336996048689">
        <ele>6.39</ele>
        <time>2026-06-28T13:39:14Z</time>
      </trkpt>
      <trkpt lat="51.796897016465664" lon="-9.777137003839016">
        <ele>6.87</ele>
        <time>2026-06-28T13:39:15Z</time>
      </trkpt>
      <trkpt lat="51.796952001750469" lon="-9.776752023026347">
        <ele>6.87</ele>
        <time>2026-06-28T13:39:17Z</time>
      </trkpt>
      <trkpt lat="51.796967005357146" lon="-9.776526968926191">
        <ele>6.87</ele>
        <time>2026-06-28T13:39:18Z</time>
      </trkpt>
      <trkpt lat="51.797051997855306" lon="-9.775326009839773">
        <ele>6.39</ele>
        <time>2026-06-28T13:39:23Z</time>
      </trkpt>
      <trkpt lat="51.79706197232008" lon="-9.775112019851804">
        <ele>6.39</ele>
        <time>2026-06-28T13:39:24Z</time>
      </trkpt>
      <trkpt lat="51.79706197232008" lon="-9.774900041520596">
        <ele>6.39</ele>
        <time>2026-06-28T13:39:25Z</time>
      </trkpt>
      <trkpt lat="51.79706197232008" lon="-9.774684039875865">
        <ele>6.87</ele>
        <time>2026-06-28T13:39:26Z</time>
      </trkpt>
      <trkpt lat="51.79706197232008" lon="-9.774466026574373">
        <ele>7.35</ele>
        <time>2026-06-28T13:39:27Z</time>
      </trkpt>
      <trkpt lat="51.79706197232008" lon="-9.77424600161612">
        <ele>7.83</ele>
        <time>2026-06-28T13:39:28Z</time>
      </trkpt>
      <trkpt lat="51.79708200506866" lon="-9.774023965001106">
        <ele>8.310000000000001</ele>
        <time>2026-06-28T13:39:29Z</time>
      </trkpt>
      <trkpt lat="51.797203039750457" lon="-9.773348970338702">
        <ele>8.789999999999999</ele>
        <time>2026-06-28T13:39:32Z</time>
      </trkpt>
      <trkpt lat="51.797259030863643" lon="-9.773113019764423">
        <ele>8.310000000000001</ele>
        <time>2026-06-28T13:39:33Z</time>
      </trkpt>
      <trkpt lat="51.797374030575156" lon="-9.77265402674675">
        <ele>7.83</ele>
        <time>2026-06-28T13:39:35Z</time>
      </trkpt>
      <trkpt lat="51.79744896478951" lon="-9.772474989295006">
        <ele>7.35</ele>
        <time>2026-06-28T13:39:36Z</time>
      </trkpt>
      <trkpt lat="51.797520965337753" lon="-9.772303998470306">
        <ele>7.35</ele>
        <time>2026-06-28T13:39:37Z</time>
      </trkpt>
      <trkpt lat="51.797606041654944" lon="-9.772166032344103">
        <ele>6.87</ele>
        <time>2026-06-28T13:39:38Z</time>
      </trkpt>
      <trkpt lat="51.797675024718046" lon="-9.772063018754125">
        <ele>6.39</ele>
        <time>2026-06-28T13:39:39Z</time>
      </trkpt>
      <trkpt lat="51.797749036923051" lon="-9.771952964365482">
        <ele>5.91</ele>
        <time>2026-06-28T13:39:40Z</time>
      </trkpt>
      <trkpt lat="51.797830006107688" lon="-9.771935027092695">
        <ele>5.91</ele>
        <time>2026-06-28T13:39:41Z</time>
      </trkpt>
      <trkpt lat="51.797916004434228" lon="-9.771916000172496">
        <ele>5.42</ele>
        <time>2026-06-28T13:39:42Z</time>
      </trkpt>
      <trkpt lat="51.797980964183807" lon="-9.771854979917407">
        <ele>4.94</ele>
        <time>2026-06-28T13:39:43Z</time>
      </trkpt>
      <trkpt lat="51.79804902523756" lon="-9.771762024611235">
        <ele>4.94</ele>
        <time>2026-06-28T13:39:44Z</time>
      </trkpt>
      <trkpt lat="51.798117002472281" lon="-9.771641995757818">
        <ele>4.94</ele>
        <time>2026-06-28T13:39:45Z</time>
      </trkpt>
      <trkpt lat="51.798136029392481" lon="-9.771472010761499">
        <ele>4.94</ele>
        <time>2026-06-28T13:39:46Z</time>
      </trkpt>
      <trkpt lat="51.79815798997879" lon="-9.771279981359839">
        <ele>5.42</ele>
        <time>2026-06-28T13:39:47Z</time>
      </trkpt>
      <trkpt lat="51.79817802272737" lon="-9.771103961393237">
        <ele>5.91</ele>
        <time>2026-06-28T13:39:48Z</time>
      </trkpt>
      <trkpt lat="51.798195960000157" lon="-9.770948980003595">
        <ele>5.91</ele>
        <time>2026-06-28T13:39:49Z</time>
      </trkpt>
      <trkpt lat="51.798235019668937" lon="-9.770819982513785">
        <ele>5.91</ele>
        <time>2026-06-28T13:39:50Z</time>
      </trkpt>
      <trkpt lat="51.7982869874686" lon="-9.770672963932157">
        <ele>5.91</ele>
        <time>2026-06-28T13:39:51Z</time>
      </trkpt>
      <trkpt lat="51.798342978581786" lon="-9.770514965057373">
        <ele>5.91</ele>
        <time>2026-06-28T13:39:52Z</time>
      </trkpt>
      <trkpt lat="51.798403998836875" lon="-9.770341962575913">
        <ele>6.39</ele>
        <time>2026-06-28T13:39:53Z</time>
      </trkpt>
      <trkpt lat="51.798466024920344" lon="-9.770178012549877">
        <ele>6.87</ele>
        <time>2026-06-28T13:39:54Z</time>
      </trkpt>
      <trkpt lat="51.798552023246884" lon="-9.770042980089784">
        <ele>7.35</ele>
        <time>2026-06-28T13:39:55Z</time>
      </trkpt>
      <trkpt lat="51.798638021573424" lon="-9.769907025620341">
        <ele>7.83</ele>
        <time>2026-06-28T13:39:56Z</time>
      </trkpt>
      <trkpt lat="51.798725025728345" lon="-9.769769981503487">
        <ele>8.789999999999999</ele>
        <time>2026-06-28T13:39:57Z</time>
      </trkpt>
      <trkpt lat="51.798814041540027" lon="-9.769628997892141">
        <ele>9.27</ele>
        <time>2026-06-28T13:39:58Z</time>
      </trkpt>
      <trkpt lat="51.798873972147703" lon="-9.769455995410681">
        <ele>9.75</ele>
        <time>2026-06-28T13:39:59Z</time>
      </trkpt>
      <trkpt lat="51.798894004896283" lon="-9.769265977665782">
        <ele>9.75</ele>
        <time>2026-06-28T13:40:00Z</time>
      </trkpt>
      <trkpt lat="51.798914037644863" lon="-9.769070008769631">
        <ele>9.75</ele>
        <time>2026-06-28T13:40:01Z</time>
      </trkpt>
      <trkpt lat="51.798934992402792" lon="-9.768874039873481">
        <ele>10.23</ele>
        <time>2026-06-28T13:40:02Z</time>
      </trkpt>
      <trkpt lat="51.798957036808133" lon="-9.76872400380671">
        <ele>10.23</ele>
        <time>2026-06-28T13:40:03Z</time>
      </trkpt>
      <trkpt lat="51.79901696741581" lon="-9.768630964681506">
        <ele>10.710000000000001</ele>
        <time>2026-06-28T13:40:04Z</time>
      </trkpt>
      <trkpt lat="51.799066001549363" lon="-9.768555024638772">
        <ele>11.67</ele>
        <time>2026-06-28T13:40:05Z</time>
      </trkpt>
      <trkpt lat="51.799111012369394" lon="-9.76848503574729">
        <ele>12.630000000000001</ele>
        <time>2026-06-28T13:40:06Z</time>
      </trkpt>
      <trkpt lat="51.799216037616134" lon="-9.768321001902223">
        <ele>13.6</ele>
        <time>2026-06-28T13:40:08Z</time>
      </trkpt>
      <trkpt lat="51.79927202872932" lon="-9.768231986090541">
        <ele>14.56</ele>
        <time>2026-06-28T13:40:09Z</time>
      </trkpt>
      <trkpt lat="51.799334976822138" lon="-9.768129978328943">
        <ele>15.52</ele>
        <time>2026-06-28T13:40:10Z</time>
      </trkpt>
      <trkpt lat="51.799551984295249" lon="-9.767786990851164">
        <ele>19.84</ele>
        <time>2026-06-28T13:40:13Z</time>
      </trkpt>
      <trkpt lat="51.800022041425109" lon="-9.767076037824154">
        <ele>28.02</ele>
        <time>2026-06-28T13:40:18Z</time>
      </trkpt>
      <trkpt lat="51.80028397589922" lon="-9.766734978184104">
        <ele>32.340000000000003</ele>
        <time>2026-06-28T13:40:21Z</time>
      </trkpt>
      <trkpt lat="51.800371985882521" lon="-9.766674041748047">
        <ele>33.299999999999997</ele>
        <time>2026-06-28T13:40:22Z</time>
      </trkpt>
      <trkpt lat="51.800540965050459" lon="-9.766558958217502">
        <ele>35.229999999999997</ele>
        <time>2026-06-28T13:40:24Z</time>
      </trkpt>
      <trkpt lat="51.800624029710889" lon="-9.766501961275935">
        <ele>36.189999999999998</ele>
        <time>2026-06-28T13:40:25Z</time>
      </trkpt>
      <trkpt lat="51.800683960318565" lon="-9.766390984877944">
        <ele>37.149999999999999</ele>
        <time>2026-06-28T13:40:26Z</time>
      </trkpt>
      <trkpt lat="51.800744980573654" lon="-9.766279002651572">
        <ele>37.630000000000003</ele>
        <time>2026-06-28T13:40:27Z</time>
      </trkpt>
      <trkpt lat="51.800809018313885" lon="-9.766160985454917">
        <ele>38.109999999999999</ele>
        <time>2026-06-28T13:40:28Z</time>
      </trkpt>
      <trkpt lat="51.800875989720225" lon="-9.766038022935391">
        <ele>38.590000000000003</ele>
        <time>2026-06-28T13:40:29Z</time>
      </trkpt>
      <trkpt lat="51.800934998318553" lon="-9.765927968546748">
        <ele>39.07</ele>
        <time>2026-06-28T13:40:30Z</time>
      </trkpt>
      <trkpt lat="51.8009930010885" lon="-9.76582202129066">
        <ele>39.07</ele>
        <time>2026-06-28T13:40:31Z</time>
      </trkpt>
      <trkpt lat="51.801042035222054" lon="-9.765711966902018">
        <ele>39.07</ele>
        <time>2026-06-28T13:40:32Z</time>
      </trkpt>
      <trkpt lat="51.801074976101518" lon="-9.765596967190504">
        <ele>39.07</ele>
        <time>2026-06-28T13:40:33Z</time>
      </trkpt>
      <trkpt lat="51.801105989143252" lon="-9.765486996620894">
        <ele>39.07</ele>
        <time>2026-06-28T13:40:34Z</time>
      </trkpt>
      <trkpt lat="51.801137002184987" lon="-9.765377026051283">
        <ele>39.549999999999997</ele>
        <time>2026-06-28T13:40:35Z</time>
      </trkpt>
      <trkpt lat="51.801166003569961" lon="-9.765270994976163">
        <ele>39.549999999999997</ele>
        <time>2026-06-28T13:40:36Z</time>
      </trkpt>
      <trkpt lat="51.801218977198005" lon="-9.765081983059645">
        <ele>39.549999999999997</ele>
        <time>2026-06-28T13:40:38Z</time>
      </trkpt>
      <trkpt lat="51.801402037963271" lon="-9.764633970335126">
        <ele>40.030000000000001</ele>
        <time>2026-06-28T13:40:42Z</time>
      </trkpt>
      <trkpt lat="51.801459034904838" lon="-9.764493992552161">
        <ele>40.990000000000002</ele>
        <time>2026-06-28T13:40:43Z</time>
      </trkpt>
      <trkpt lat="51.801525000482798" lon="-9.764334987848997">
        <ele>41.950000000000003</ele>
        <time>2026-06-28T13:40:44Z</time>
      </trkpt>
      <trkpt lat="51.801738990470767" lon="-9.763645995408297">
        <ele>46.280000000000001</ele>
        <time>2026-06-28T13:40:49Z</time>
      </trkpt>
      <trkpt lat="51.8018529843539" lon="-9.763193037360907">
        <ele>51.090000000000003</ele>
        <time>2026-06-28T13:40:53Z</time>
      </trkpt>
      <trkpt lat="51.801874022930861" lon="-9.763053981587291">
        <ele>52.049999999999997</ele>
        <time>2026-06-28T13:40:54Z</time>
      </trkpt>
      <trkpt lat="51.801942000165582" lon="-9.762619966641069">
        <ele>53.969999999999999</ele>
        <time>2026-06-28T13:40:57Z</time>
      </trkpt>
      <trkpt lat="51.801963038742542" lon="-9.762482000514865">
        <ele>54.450000000000003</ele>
        <time>2026-06-28T13:40:58Z</time>
      </trkpt>
      <trkpt lat="51.801982987672091" lon="-9.762351997196674">
        <ele>54.93</ele>
        <time>2026-06-28T13:40:59Z</time>
      </trkpt>
      <trkpt lat="51.802021963521838" lon="-9.762115962803364">
        <ele>55.409999999999997</ele>
        <time>2026-06-28T13:41:01Z</time>
      </trkpt>
      <trkpt lat="51.802155990153551" lon="-9.76174296811223">
        <ele>54.93</ele>
        <time>2026-06-28T13:41:04Z</time>
      </trkpt>
      <trkpt lat="51.802203012630343" lon="-9.761611958965659">
        <ele>54.93</ele>
        <time>2026-06-28T13:41:05Z</time>
      </trkpt>
      <trkpt lat="51.802252968773246" lon="-9.761498970910907">
        <ele>55.409999999999997</ele>
        <time>2026-06-28T13:41:06Z</time>
      </trkpt>
      <trkpt lat="51.802305020391941" lon="-9.761389000341296">
        <ele>54.93</ele>
        <time>2026-06-28T13:41:07Z</time>
      </trkpt>
      <trkpt lat="51.802353970706463" lon="-9.761284980922937">
        <ele>54.93</ele>
        <time>2026-06-28T13:41:08Z</time>
      </trkpt>
      <trkpt lat="51.802446004003286" lon="-9.761089012026787">
        <ele>54.93</ele>
        <time>2026-06-28T13:41:10Z</time>
      </trkpt>
      <trkpt lat="51.802607020363212" lon="-9.760610992088914">
        <ele>55.409999999999997</ele>
        <time>2026-06-28T13:41:14Z</time>
      </trkpt>
      <trkpt lat="51.80279703810811" lon="-9.759862991049886">
        <ele>57.340000000000003</ele>
        <time>2026-06-28T13:41:20Z</time>
      </trkpt>
      <trkpt lat="51.802849005907774" lon="-9.759658975526691">
        <ele>57.340000000000003</ele>
        <time>2026-06-28T13:41:22Z</time>
      </trkpt>
      <trkpt lat="51.802967023104429" lon="-9.758908962830901">
        <ele>57.82</ele>
        <time>2026-06-28T13:41:28Z</time>
      </trkpt>
      <trkpt lat="51.803309004753828" lon="-9.7578090056777">
        <ele>57.340000000000003</ele>
        <time>2026-06-28T13:41:37Z</time>
      </trkpt>
      <trkpt lat="51.803585020825267" lon="-9.756764033809304">
        <ele>59.740000000000002</ele>
        <time>2026-06-28T13:41:45Z</time>
      </trkpt>
      <trkpt lat="51.803625002503395" lon="-9.756610980257392">
        <ele>59.740000000000002</ele>
        <time>2026-06-28T13:41:46Z</time>
      </trkpt>
      <trkpt lat="51.803671019151807" lon="-9.756438983604312">
        <ele>59.259999999999998</ele>
        <time>2026-06-28T13:41:47Z</time>
      </trkpt>
      <trkpt lat="51.80419497191906" lon="-9.7546730004251">
        <ele>57.82</ele>
        <time>2026-06-28T13:41:55Z</time>
      </trkpt>
      <trkpt lat="51.804819004610181" lon="-9.752101013436914">
        <ele>53.969999999999999</ele>
        <time>2026-06-28T13:42:05Z</time>
      </trkpt>
      <trkpt lat="51.805129973217845" lon="-9.74996698088944">
        <ele>51.090000000000003</ele>
        <time>2026-06-28T13:42:14Z</time>
      </trkpt>
      <trkpt lat="51.805186970159411" lon="-9.749746033921838">
        <ele>51.57</ele>
        <time>2026-06-28T13:42:15Z</time>
      </trkpt>
      <trkpt lat="51.805327031761408" lon="-9.749320987612009">
        <ele>52.049999999999997</ele>
        <time>2026-06-28T13:42:17Z</time>
      </trkpt>
      <trkpt lat="51.80546198040247" lon="-9.748937012627721">
        <ele>52.049999999999997</ele>
        <time>2026-06-28T13:42:19Z</time>
      </trkpt>
      <trkpt lat="51.806116020306945" lon="-9.747655000537634">
        <ele>53.490000000000002</ele>
        <time>2026-06-28T13:42:28Z</time>
      </trkpt>
      <trkpt lat="51.806251974776387" lon="-9.74738996475935">
        <ele>53.969999999999999</ele>
        <time>2026-06-28T13:42:32Z</time>
      </trkpt>
      <trkpt lat="51.806323975324631" lon="-9.74732500500977">
        <ele>53.969999999999999</ele>
        <time>2026-06-28T13:42:38Z</time>
      </trkpt>
      <trkpt lat="51.806389018893242" lon="-9.747333973646164">
        <ele>54.450000000000003</ele>
        <time>2026-06-28T13:42:39Z</time>
      </trkpt>
      <trkpt lat="51.80647199973464" lon="-9.74734696559608">
        <ele>54.450000000000003</ele>
        <time>2026-06-28T13:42:40Z</time>
      </trkpt>
      <trkpt lat="51.806564033031464" lon="-9.747360963374376">
        <ele>54.450000000000003</ele>
        <time>2026-06-28T13:42:41Z</time>
      </trkpt>
      <trkpt lat="51.806667968630791" lon="-9.747375966981053">
        <ele>54.450000000000003</ele>
        <time>2026-06-28T13:42:42Z</time>
      </trkpt>
      <trkpt lat="51.807034006342292" lon="-9.747468000277877">
        <ele>53.969999999999999</ele>
        <time>2026-06-28T13:42:45Z</time>
      </trkpt>
      <trkpt lat="51.807158980518579" lon="-9.747457019984722">
        <ele>53.969999999999999</ele>
        <time>2026-06-28T13:42:46Z</time>
      </trkpt>
      <trkpt lat="51.807289989665151" lon="-9.747443022206426">
        <ele>53.969999999999999</ele>
        <time>2026-06-28T13:42:47Z</time>
      </trkpt>
      <trkpt lat="51.807446982711554" lon="-9.747427012771368">
        <ele>53.490000000000002</ele>
        <time>2026-06-28T13:42:48Z</time>
      </trkpt>
      <trkpt lat="51.807542033493519" lon="-9.747312013059855">
        <ele>53.009999999999998</ele>
        <time>2026-06-28T13:42:49Z</time>
      </trkpt>
      <trkpt lat="51.807657033205032" lon="-9.74717203527689">
        <ele>53.009999999999998</ele>
        <time>2026-06-28T13:42:50Z</time>
      </trkpt>
      <trkpt lat="51.807781001552939" lon="-9.74702401086688">
        <ele>52.049999999999997</ele>
        <time>2026-06-28T13:42:51Z</time>
      </trkpt>
      <trkpt lat="51.808975003659725" lon="-9.745609983801842">
        <ele>42.439999999999998</ele>
        <time>2026-06-28T13:43:01Z</time>
      </trkpt>
      <trkpt lat="51.809214977547526" lon="-9.745357017964125">
        <ele>40.509999999999998</ele>
        <time>2026-06-28T13:43:03Z</time>
      </trkpt>
      <trkpt lat="51.809364007785916" lon="-9.745268002152443">
        <ele>39.549999999999997</ele>
        <time>2026-06-28T13:43:04Z</time>
      </trkpt>
      <trkpt lat="51.809519995003939" lon="-9.74517404101789">
        <ele>38.590000000000003</ele>
        <time>2026-06-28T13:43:05Z</time>
      </trkpt>
      <trkpt lat="51.809676988050342" lon="-9.745081001892686">
        <ele>37.630000000000003</ele>
        <time>2026-06-28T13:43:06Z</time>
      </trkpt>
      <trkpt lat="51.809836998581886" lon="-9.744984023272991">
        <ele>37.149999999999999</ele>
        <time>2026-06-28T13:43:07Z</time>
      </trkpt>
      <trkpt lat="51.809998014941812" lon="-9.74487497471273">
        <ele>36.189999999999998</ele>
        <time>2026-06-28T13:43:08Z</time>
      </trkpt>
      <trkpt lat="51.810313006862998" lon="-9.744639024138451">
        <ele>33.299999999999997</ele>
        <time>2026-06-28T13:43:10Z</time>
      </trkpt>
      <trkpt lat="51.810616012662649" lon="-9.744415981695056">
        <ele>30.899999999999999</ele>
        <time>2026-06-28T13:43:12Z</time>
      </trkpt>
      <trkpt lat="51.811314979568124" lon="-9.744077017530799">
        <ele>26.09</ele>
        <time>2026-06-28T13:43:16Z</time>
      </trkpt>
      <trkpt lat="51.811492005363107" lon="-9.74399202503264">
        <ele>25.609999999999999</ele>
        <time>2026-06-28T13:43:17Z</time>
      </trkpt>
      <trkpt lat="51.812020987272263" lon="-9.74371399730444">
        <ele>24.170000000000002</ele>
        <time>2026-06-28T13:43:20Z</time>
      </trkpt>
      <trkpt lat="51.812628004699945" lon="-9.743046965450048">
        <ele>23.690000000000001</ele>
        <time>2026-06-28T13:43:24Z</time>
      </trkpt>
      <trkpt lat="51.81276697665453" lon="-9.742939006537199">
        <ele>24.170000000000002</ele>
        <time>2026-06-28T13:43:25Z</time>
      </trkpt>
      <trkpt lat="51.812907960265875" lon="-9.742853008210659">
        <ele>24.649999999999999</ele>
        <time>2026-06-28T13:43:26Z</time>
      </trkpt>
      <trkpt lat="51.813060007989407" lon="-9.74281202070415">
        <ele>25.129999999999999</ele>
        <time>2026-06-28T13:43:27Z</time>
      </trkpt>
      <trkpt lat="51.813221024349332" lon="-9.74281101487577">
        <ele>25.129999999999999</ele>
        <time>2026-06-28T13:43:28Z</time>
      </trkpt>
      <trkpt lat="51.813386986032128" lon="-9.742847979068756">
        <ele>25.129999999999999</ele>
        <time>2026-06-28T13:43:29Z</time>
      </trkpt>
      <trkpt lat="51.813722010701895" lon="-9.742918973788619">
        <ele>25.609999999999999</ele>
        <time>2026-06-28T13:43:31Z</time>
      </trkpt>
      <trkpt lat="51.813889984041452" lon="-9.742887960746884">
        <ele>25.609999999999999</ele>
        <time>2026-06-28T13:43:32Z</time>
      </trkpt>
      <trkpt lat="51.814052006229758" lon="-9.742803974077106">
        <ele>25.609999999999999</ele>
        <time>2026-06-28T13:43:33Z</time>
      </trkpt>
      <trkpt lat="51.814210005104542" lon="-9.742690986022353">
        <ele>26.09</ele>
        <time>2026-06-28T13:43:34Z</time>
      </trkpt>
      <trkpt lat="51.814359035342932" lon="-9.742540027946234">
        <ele>26.09</ele>
        <time>2026-06-28T13:43:35Z</time>
      </trkpt>
      <trkpt lat="51.814500018954277" lon="-9.742383034899831">
        <ele>26.09</ele>
        <time>2026-06-28T13:43:36Z</time>
      </trkpt>
      <trkpt lat="51.814790032804012" lon="-9.742138031870127">
        <ele>26.57</ele>
        <time>2026-06-28T13:43:38Z</time>
      </trkpt>
      <trkpt lat="51.814935961738229" lon="-9.7420409694314">
        <ele>27.050000000000001</ele>
        <time>2026-06-28T13:43:39Z</time>
      </trkpt>
      <trkpt lat="51.815093038603663" lon="-9.742029989138246">
        <ele>27.050000000000001</ele>
        <time>2026-06-28T13:43:40Z</time>
      </trkpt>
      <trkpt lat="51.816057041287422" lon="-9.741965029388666">
        <ele>30.420000000000002</ele>
        <time>2026-06-28T13:43:46Z</time>
      </trkpt>
      <trkpt lat="51.816387036815286" lon="-9.741898979991674">
        <ele>31.379999999999999</ele>
        <time>2026-06-28T13:43:48Z</time>
      </trkpt>
      <trkpt lat="51.817435026168823" lon="-9.741281988099217">
        <ele>30.899999999999999</ele>
        <time>2026-06-28T13:43:55Z</time>
      </trkpt>
      <trkpt lat="51.817740965634584" lon="-9.74098501726985">
        <ele>30.420000000000002</ele>
        <time>2026-06-28T13:43:58Z</time>
      </trkpt>
      <trkpt lat="51.817903993651271" lon="-9.74070799537003">
        <ele>29.940000000000001</ele>
        <time>2026-06-28T13:44:00Z</time>
      </trkpt>
      <trkpt lat="51.818184033036232" lon="-9.740155041217804">
        <ele>29.460000000000001</ele>
        <time>2026-06-28T13:44:04Z</time>
      </trkpt>
      <trkpt lat="51.818875037133694" lon="-9.738872023299336">
        <ele>28.5</ele>
        <time>2026-06-28T13:44:13Z</time>
      </trkpt>
      <trkpt lat="51.819767039269209" lon="-9.737334027886391">
        <ele>25.609999999999999</ele>
        <time>2026-06-28T13:44:21Z</time>
      </trkpt>
      <trkpt lat="51.820616964250803" lon="-9.735941961407661">
        <ele>23.690000000000001</ele>
        <time>2026-06-28T13:44:29Z</time>
      </trkpt>
      <trkpt lat="51.821320038288832" lon="-9.734500022605062">
        <ele>21.77</ele>
        <time>2026-06-28T13:44:37Z</time>
      </trkpt>
      <trkpt lat="51.821534028276801" lon="-9.734185030683875">
        <ele>21.77</ele>
        <time>2026-06-28T13:44:39Z</time>
      </trkpt>
      <trkpt lat="51.821665959432721" lon="-9.734066007658839">
        <ele>21.77</ele>
        <time>2026-06-28T13:44:40Z</time>
      </trkpt>
      <trkpt lat="51.822525020688772" lon="-9.73342202603817">
        <ele>21.77</ele>
        <time>2026-06-28T13:44:47Z</time>
      </trkpt>
      <trkpt lat="51.82264999486506" lon="-9.733296968042851">
        <ele>21.289999999999999</ele>
        <time>2026-06-28T13:44:48Z</time>
      </trkpt>
      <trkpt lat="51.822767006233335" lon="-9.733146009966731">
        <ele>21.289999999999999</ele>
        <time>2026-06-28T13:44:49Z</time>
      </trkpt>
      <trkpt lat="51.823479970917106" lon="-9.732216959819198">
        <ele>19.84</ele>
        <time>2026-06-28T13:44:55Z</time>
      </trkpt>
      <trkpt lat="51.823619026690722" lon="-9.732118975371122">
        <ele>19.84</ele>
        <time>2026-06-28T13:44:56Z</time>
      </trkpt>
      <trkpt lat="51.824716972187161" lon="-9.731481028720737">
        <ele>21.77</ele>
        <time>2026-06-28T13:45:04Z</time>
      </trkpt>
      <trkpt lat="51.825283002108335" lon="-9.731227979063988">
        <ele>21.77</ele>
        <time>2026-06-28T13:45:08Z</time>
      </trkpt>
      <trkpt lat="51.825425997376442" lon="-9.731164025142789">
        <ele>21.289999999999999</ele>
        <time>2026-06-28T13:45:09Z</time>
      </trkpt>
      <trkpt lat="51.825956990942359" lon="-9.730916004627943">
        <ele>22.25</ele>
        <time>2026-06-28T13:45:13Z</time>
      </trkpt>
      <trkpt lat="51.826085988432169" lon="-9.730853978544474">
        <ele>22.73</ele>
        <time>2026-06-28T13:45:14Z</time>
      </trkpt>
      <trkpt lat="51.826195036992431" lon="-9.730727998539805">
        <ele>23.210000000000001</ele>
        <time>2026-06-28T13:45:15Z</time>
      </trkpt>
      <trkpt lat="51.826296960934997" lon="-9.730583997443318">
        <ele>23.690000000000001</ele>
        <time>2026-06-28T13:45:16Z</time>
      </trkpt>
      <trkpt lat="51.826405003666878" lon="-9.730432033538818">
        <ele>23.690000000000001</ele>
        <time>2026-06-28T13:45:17Z</time>
      </trkpt>
      <trkpt lat="51.827211007475853" lon="-9.72923400811851">
        <ele>25.129999999999999</ele>
        <time>2026-06-28T13:45:23Z</time>
      </trkpt>
      <trkpt lat="51.827973006293178" lon="-9.728308981284499">
        <ele>28.5</ele>
        <time>2026-06-28T13:45:29Z</time>
      </trkpt>
      <trkpt lat="51.829252000898123" lon="-9.727072985842824">
        <ele>28.98</ele>
        <time>2026-06-28T13:45:35Z</time>
      </trkpt>
      <trkpt lat="51.830418007448316" lon="-9.725503977388144">
        <ele>28.98</ele>
        <time>2026-06-28T13:45:42Z</time>
      </trkpt>
      <trkpt lat="51.831174977123737" lon="-9.72388400696218">
        <ele>28.02</ele>
        <time>2026-06-28T13:45:50Z</time>
      </trkpt>
      <trkpt lat="51.831268016248941" lon="-9.723666999489069">
        <ele>28.02</ele>
        <time>2026-06-28T13:45:51Z</time>
      </trkpt>
      <trkpt lat="51.83167202398181" lon="-9.722672989591956">
        <ele>26.09</ele>
        <time>2026-06-28T13:45:56Z</time>
      </trkpt>
      <trkpt lat="51.831720974296331" lon="-9.72244399599731">
        <ele>25.609999999999999</ele>
        <time>2026-06-28T13:45:57Z</time>
      </trkpt>
      <trkpt lat="51.831773025915027" lon="-9.722198992967606">
        <ele>25.609999999999999</ele>
        <time>2026-06-28T13:45:58Z</time>
      </trkpt>
      <trkpt lat="51.831829017028213" lon="-9.721939992159605">
        <ele>25.609999999999999</ele>
        <time>2026-06-28T13:45:59Z</time>
      </trkpt>
      <trkpt lat="51.831885008141398" lon="-9.721674034371972">
        <ele>25.129999999999999</ele>
        <time>2026-06-28T13:46:00Z</time>
      </trkpt>
      <trkpt lat="51.832218021154404" lon="-9.720115000382066">
        <ele>24.170000000000002</ele>
        <time>2026-06-28T13:46:07Z</time>
      </trkpt>
      <trkpt lat="51.832809029147029" lon="-9.718456976115704">
        <ele>24.170000000000002</ele>
        <time>2026-06-28T13:46:15Z</time>
      </trkpt>
      <trkpt lat="51.833328036591411" lon="-9.71636401489377">
        <ele>23.210000000000001</ele>
        <time>2026-06-28T13:46:21Z</time>
      </trkpt>
      <trkpt lat="51.833462985232472" lon="-9.71572196111083">
        <ele>22.25</ele>
        <time>2026-06-28T13:46:23Z</time>
      </trkpt>
      <trkpt lat="51.833557030186057" lon="-9.715438988059759">
        <ele>21.77</ele>
        <time>2026-06-28T13:46:24Z</time>
      </trkpt>
      <trkpt lat="51.833685021847486" lon="-9.715175963938236">
        <ele>20.809999999999999</ele>
        <time>2026-06-28T13:46:25Z</time>
      </trkpt>
      <trkpt lat="51.834662016481161" lon="-9.712984012439847">
        <ele>14.56</ele>
        <time>2026-06-28T13:46:33Z</time>
      </trkpt>
      <trkpt lat="51.834867037832737" lon="-9.7124960180372">
        <ele>13.119999999999999</ele>
        <time>2026-06-28T13:46:35Z</time>
      </trkpt>
      <trkpt lat="51.834988994523883" lon="-9.712308011949062">
        <ele>12.630000000000001</ele>
        <time>2026-06-28T13:46:36Z</time>
      </trkpt>
      <trkpt lat="51.835102988407016" lon="-9.712130986154079">
        <ele>12.15</ele>
        <time>2026-06-28T13:46:37Z</time>
      </trkpt>
      <trkpt lat="51.835215976461768" lon="-9.711956977844238">
        <ele>11.67</ele>
        <time>2026-06-28T13:46:38Z</time>
      </trkpt>
      <trkpt lat="51.83532795868814" lon="-9.711760003119707">
        <ele>11.19</ele>
        <time>2026-06-28T13:46:39Z</time>
      </trkpt>
      <trkpt lat="51.835424015298486" lon="-9.711533021181822">
        <ele>11.19</ele>
        <time>2026-06-28T13:46:40Z</time>
      </trkpt>
      <trkpt lat="51.83552099391818" lon="-9.711305033415556">
        <ele>11.19</ele>
        <time>2026-06-28T13:46:41Z</time>
      </trkpt>
      <trkpt lat="51.835711011663079" lon="-9.710854003205895">
        <ele>11.19</ele>
        <time>2026-06-28T13:46:43Z</time>
      </trkpt>
      <trkpt lat="51.836030026897788" lon="-9.710227958858013">
        <ele>10.710000000000001</ele>
        <time>2026-06-28T13:46:46Z</time>
      </trkpt>
      <trkpt lat="51.836129017174244" lon="-9.710009023547173">
        <ele>10.23</ele>
        <time>2026-06-28T13:46:47Z</time>
      </trkpt>
      <trkpt lat="51.836191965267062" lon="-9.709748011082411">
        <ele>9.75</ele>
        <time>2026-06-28T13:46:48Z</time>
      </trkpt>
      <trkpt lat="51.836731005460024" lon="-9.707249030470848">
        <ele>9.75</ele>
        <time>2026-06-28T13:46:57Z</time>
      </trkpt>
      <trkpt lat="51.837288988754153" lon="-9.704811992123723">
        <ele>8.789999999999999</ele>
        <time>2026-06-28T13:47:06Z</time>
      </trkpt>
      <trkpt lat="51.838395986706018" lon="-9.702242016792297">
        <ele>7.83</ele>
        <time>2026-06-28T13:47:17Z</time>
      </trkpt>
      <trkpt lat="51.83940701186657" lon="-9.699700037017465">
        <ele>5.91</ele>
        <time>2026-06-28T13:47:27Z</time>
      </trkpt>
      <trkpt lat="51.839915039017797" lon="-9.697512025013566">
        <ele>6.87</ele>
        <time>2026-06-28T13:47:35Z</time>
      </trkpt>
      <trkpt lat="51.84018200263381" lon="-9.69580396078527">
        <ele>7.35</ele>
        <time>2026-06-28T13:47:41Z</time>
      </trkpt>
      <trkpt lat="51.840203963220119" lon="-9.695505984127522">
        <ele>7.83</ele>
        <time>2026-06-28T13:47:42Z</time>
      </trkpt>
      <trkpt lat="51.840412002056837" lon="-9.693198027089238">
        <ele>6.39</ele>
        <time>2026-06-28T13:47:50Z</time>
      </trkpt>
      <trkpt lat="51.840558014810085" lon="-9.692078959196806">
        <ele>4.46</ele>
        <time>2026-06-28T13:47:54Z</time>
      </trkpt>
      <trkpt lat="51.840592967346311" lon="-9.691531034186482">
        <ele>3.5</ele>
        <time>2026-06-28T13:47:56Z</time>
      </trkpt>
      <trkpt lat="51.840587016195059" lon="-9.691257029771805">
        <ele>3.02</ele>
        <time>2026-06-28T13:47:57Z</time>
      </trkpt>
      <trkpt lat="51.840578969568014" lon="-9.690977996215224">
        <ele>2.54</ele>
        <time>2026-06-28T13:47:58Z</time>
      </trkpt>
      <trkpt lat="51.840640995651484" lon="-9.688726030290127">
        <ele>-0.34</ele>
        <time>2026-06-28T13:48:06Z</time>
      </trkpt>
      <trkpt lat="51.840874012559652" lon="-9.686632985249162">
        <ele>-1.79</ele>
        <time>2026-06-28T13:48:13Z</time>
      </trkpt>
      <trkpt lat="51.840946013107896" lon="-9.686034014448524">
        <ele>-2.75</ele>
        <time>2026-06-28T13:48:15Z</time>
      </trkpt>
      <trkpt lat="51.840983983129263" lon="-9.685745006427169">
        <ele>-3.23</ele>
        <time>2026-06-28T13:48:16Z</time>
      </trkpt>
      <trkpt lat="51.841343985870481" lon="-9.683267986401916">
        <ele>-6.59</ele>
        <time>2026-06-28T13:48:25Z</time>
      </trkpt>
      <trkpt lat="51.841371981427073" lon="-9.683003034442663">
        <ele>-7.07</ele>
        <time>2026-06-28T13:48:26Z</time>
      </trkpt>
      <trkpt lat="51.841371981427073" lon="-9.682731963694096">
        <ele>-7.07</ele>
        <time>2026-06-28T13:48:27Z</time>
      </trkpt>
      <trkpt lat="51.841371981427073" lon="-9.682459970936179">
        <ele>-7.55</ele>
        <time>2026-06-28T13:48:28Z</time>
      </trkpt>
      <trkpt lat="51.841371981427073" lon="-9.682179009541869">
        <ele>-7.55</ele>
        <time>2026-06-28T13:48:29Z</time>
      </trkpt>
      <trkpt lat="51.841371981427073" lon="-9.681905005127192">
        <ele>-7.55</ele>
        <time>2026-06-28T13:48:30Z</time>
      </trkpt>
      <trkpt lat="51.841371981427073" lon="-9.681647010147572">
        <ele>-7.07</ele>
        <time>2026-06-28T13:48:31Z</time>
      </trkpt>
      <trkpt lat="51.841442976146936" lon="-9.680562978610396">
        <ele>-6.59</ele>
        <time>2026-06-28T13:48:35Z</time>
      </trkpt>
      <trkpt lat="51.841482035815716" lon="-9.680292997509241">
        <ele>-6.11</ele>
        <time>2026-06-28T13:48:36Z</time>
      </trkpt>
      <trkpt lat="51.841521011665463" lon="-9.680027961730957">
        <ele>-6.11</ele>
        <time>2026-06-28T13:48:37Z</time>
      </trkpt>
      <trkpt lat="51.841887971386313" lon="-9.67751800082624">
        <ele>-6.11</ele>
        <time>2026-06-28T13:48:46Z</time>
      </trkpt>
      <trkpt lat="51.842099027708173" lon="-9.675957961007953">
        <ele>-5.63</ele>
        <time>2026-06-28T13:48:52Z</time>
      </trkpt>
      <trkpt lat="51.842072959989309" lon="-9.674327010288835">
        <ele>-6.11</ele>
        <time>2026-06-28T13:48:58Z</time>
      </trkpt>
      <trkpt lat="51.842069020494819" lon="-9.674052000045776">
        <ele>-6.11</ele>
        <time>2026-06-28T13:48:59Z</time>
      </trkpt>
      <trkpt lat="51.842059968039393" lon="-9.673492005094886">
        <ele>-5.63</ele>
        <time>2026-06-28T13:49:01Z</time>
      </trkpt>
      <trkpt lat="51.84207103215158" lon="-9.673218000680208">
        <ele>-5.63</ele>
        <time>2026-06-28T13:49:02Z</time>
      </trkpt>
      <trkpt lat="51.842089975252748" lon="-9.672951959073544">
        <ele>-6.11</ele>
        <time>2026-06-28T13:49:03Z</time>
      </trkpt>
      <trkpt lat="51.842110008001328" lon="-9.672683989629149">
        <ele>-7.07</ele>
        <time>2026-06-28T13:49:04Z</time>
      </trkpt>
      <trkpt lat="51.842129034921527" lon="-9.672417026013136">
        <ele>-7.55</ele>
        <time>2026-06-28T13:49:05Z</time>
      </trkpt>
      <trkpt lat="51.842148983851075" lon="-9.672146961092949">
        <ele>-7.55</ele>
        <time>2026-06-28T13:49:06Z</time>
      </trkpt>
      <trkpt lat="51.842168010771275" lon="-9.671881003305316">
        <ele>-8.029999999999999</ele>
        <time>2026-06-28T13:49:07Z</time>
      </trkpt>
      <trkpt lat="51.842187037691474" lon="-9.671616973355413">
        <ele>-8.029999999999999</ele>
        <time>2026-06-28T13:49:08Z</time>
      </trkpt>
      <trkpt lat="51.842152001336217" lon="-9.671384962275624">
        <ele>-8.029999999999999</ele>
        <time>2026-06-28T13:49:09Z</time>
      </trkpt>
      <trkpt lat="51.84211503714323" lon="-9.671138031408191">
        <ele>-7.55</ele>
        <time>2026-06-28T13:49:10Z</time>
      </trkpt>
      <trkpt lat="51.842066003009677" lon="-9.670877018943429">
        <ele>-7.55</ele>
        <time>2026-06-28T13:49:11Z</time>
      </trkpt>
      <trkpt lat="51.841551018878818" lon="-9.669572040438652">
        <ele>-9</ele>
        <time>2026-06-28T13:49:17Z</time>
      </trkpt>
      <trkpt lat="51.841436019167304" lon="-9.669157974421978">
        <ele>-9.960000000000001</ele>
        <time>2026-06-28T13:49:19Z</time>
      </trkpt>
      <trkpt lat="51.841417998075485" lon="-9.668907020241022">
        <ele>-10.44</ele>
        <time>2026-06-28T13:49:20Z</time>
      </trkpt>
      <trkpt lat="51.841426966711879" lon="-9.668648019433022">
        <ele>-10.44</ele>
        <time>2026-06-28T13:49:21Z</time>
      </trkpt>
      <trkpt lat="51.841436019167304" lon="-9.668386001139879">
        <ele>-10.44</ele>
        <time>2026-06-28T13:49:22Z</time>
      </trkpt>
      <trkpt lat="51.841468960046768" lon="-9.668125994503498">
        <ele>-10.44</ele>
        <time>2026-06-28T13:49:23Z</time>
      </trkpt>
      <trkpt lat="51.841499973088503" lon="-9.667883003130555">
        <ele>-10.92</ele>
        <time>2026-06-28T13:49:24Z</time>
      </trkpt>
      <trkpt lat="51.841569039970636" lon="-9.667634982615709">
        <ele>-11.880000000000001</ele>
        <time>2026-06-28T13:49:25Z</time>
      </trkpt>
      <trkpt lat="51.841636011376977" lon="-9.667392997071147">
        <ele>-11.880000000000001</ele>
        <time>2026-06-28T13:49:26Z</time>
      </trkpt>
      <trkpt lat="51.841715974733233" lon="-9.667158974334598">
        <ele>-12.359999999999999</ele>
        <time>2026-06-28T13:49:27Z</time>
      </trkpt>
      <trkpt lat="51.842133980244398" lon="-9.666193965822458">
        <ele>-10.92</ele>
        <time>2026-06-28T13:49:31Z</time>
      </trkpt>
      <trkpt lat="51.842235988005996" lon="-9.665934965014458">
        <ele>-9.960000000000001</ele>
        <time>2026-06-28T13:49:32Z</time>
      </trkpt>
      <trkpt lat="51.842277981340885" lon="-9.665643023326993">
        <ele>-9.48</ele>
        <time>2026-06-28T13:49:33Z</time>
      </trkpt>
      <trkpt lat="51.842320980504155" lon="-9.665347980335355">
        <ele>-9</ele>
        <time>2026-06-28T13:49:34Z</time>
      </trkpt>
      <trkpt lat="51.842362973839045" lon="-9.665056960657239">
        <ele>-8.51</ele>
        <time>2026-06-28T13:49:35Z</time>
      </trkpt>
      <trkpt lat="51.842405973002315" lon="-9.664762001484633">
        <ele>-8.029999999999999</ele>
        <time>2026-06-28T13:49:36Z</time>
      </trkpt>
      <trkpt lat="51.842682994902134" lon="-9.66303700581193">
        <ele>-6.11</ele>
        <time>2026-06-28T13:49:42Z</time>
      </trkpt>
      <trkpt lat="51.842866977676749" lon="-9.660343984141946">
        <ele>-4.19</ele>
        <time>2026-06-28T13:49:51Z</time>
      </trkpt>
      <trkpt lat="51.842964040115476" lon="-9.659511996433139">
        <ele>-3.23</ele>
        <time>2026-06-28T13:49:54Z</time>
      </trkpt>
      <trkpt lat="51.84304098598659" lon="-9.659258024767041">
        <ele>-3.23</ele>
        <time>2026-06-28T13:49:55Z</time>
      </trkpt>
      <trkpt lat="51.843140982091427" lon="-9.659007992595434">
        <ele>-3.23</ele>
        <time>2026-06-28T13:49:56Z</time>
      </trkpt>
      <trkpt lat="51.843248018994927" lon="-9.658776987344027">
        <ele>-3.23</ele>
        <time>2026-06-28T13:49:57Z</time>
      </trkpt>
      <trkpt lat="51.843364024534822" lon="-9.658571965992451">
        <ele>-2.75</ele>
        <time>2026-06-28T13:49:58Z</time>
      </trkpt>
      <trkpt lat="51.843475000932813" lon="-9.658373985439539">
        <ele>-2.75</ele>
        <time>2026-06-28T13:49:59Z</time>
      </trkpt>
      <trkpt lat="51.843585977330804" lon="-9.658163012936711">
        <ele>-2.27</ele>
        <time>2026-06-28T13:50:00Z</time>
      </trkpt>
      <trkpt lat="51.843637023121119" lon="-9.657908035442233">
        <ele>-1.3</ele>
        <time>2026-06-28T13:50:01Z</time>
      </trkpt>
      <trkpt lat="51.843688990920782" lon="-9.657650040462613">
        <ele>-0.82</ele>
        <time>2026-06-28T13:50:02Z</time>
      </trkpt>
      <trkpt lat="51.843740036711097" lon="-9.657392967492342">
        <ele>-0.82</ele>
        <time>2026-06-28T13:50:03Z</time>
      </trkpt>
      <trkpt lat="51.844129040837288" lon="-9.65558398514986">
        <ele>0.14</ele>
        <time>2026-06-28T13:50:11Z</time>
      </trkpt>
      <trkpt lat="51.844194000586867" lon="-9.655414000153542">
        <ele>0.14</ele>
        <time>2026-06-28T13:50:12Z</time>
      </trkpt>
      <trkpt lat="51.844268012791872" lon="-9.655266981571913">
        <ele>0.62</ele>
        <time>2026-06-28T13:50:13Z</time>
      </trkpt>
      <trkpt lat="51.844412013888359" lon="-9.654978979378939">
        <ele>0.62</ele>
        <time>2026-06-28T13:50:15Z</time>
      </trkpt>
      <trkpt lat="51.844484014436603" lon="-9.654833972454071">
        <ele>0.62</ele>
        <time>2026-06-28T13:50:16Z</time>
      </trkpt>
      <trkpt lat="51.844552997499704" lon="-9.654678991064429">
        <ele>1.1</ele>
        <time>2026-06-28T13:50:17Z</time>
      </trkpt>
      <trkpt lat="51.844588033854961" lon="-9.654496014118195">
        <ele>1.1</ele>
        <time>2026-06-28T13:50:18Z</time>
      </trkpt>
      <trkpt lat="51.844627009704709" lon="-9.654299039393663">
        <ele>0.62</ele>
        <time>2026-06-28T13:50:19Z</time>
      </trkpt>
      <trkpt lat="51.844934038817883" lon="-9.652712009847164">
        <ele>1.1</ele>
        <time>2026-06-28T13:50:28Z</time>
      </trkpt>
      <trkpt lat="51.844934038817883" lon="-9.65253003872931">
        <ele>1.1</ele>
        <time>2026-06-28T13:50:29Z</time>
      </trkpt>
      <trkpt lat="51.844934038817883" lon="-9.652364999055862">
        <ele>1.1</ele>
        <time>2026-06-28T13:50:30Z</time>
      </trkpt>
      <trkpt lat="51.844934038817883" lon="-9.65220901183784">
        <ele>0.62</ele>
        <time>2026-06-28T13:50:31Z</time>
      </trkpt>
      <trkpt lat="51.844771010801196" lon="-9.650354012846947">
        <ele>1.1</ele>
        <time>2026-06-28T13:50:42Z</time>
      </trkpt>
      <trkpt lat="51.844725999981165" lon="-9.650110015645623">
        <ele>1.1</ele>
        <time>2026-06-28T13:50:43Z</time>
      </trkpt>
      <trkpt lat="51.844468005001545" lon="-9.649053979665041">
        <ele>2.54</ele>
        <time>2026-06-28T13:50:47Z</time>
      </trkpt>
      <trkpt lat="51.844440009444952" lon="-9.648753991350532">
        <ele>3.02</ele>
        <time>2026-06-28T13:50:48Z</time>
      </trkpt>
      <trkpt lat="51.844440009444952" lon="-9.648446040228009">
        <ele>3.5</ele>
        <time>2026-06-28T13:50:49Z</time>
      </trkpt>
      <trkpt lat="51.844382006675005" lon="-9.646367998793721">
        <ele>3.5</ele>
        <time>2026-06-28T13:50:56Z</time>
      </trkpt>
      <trkpt lat="51.844458030536771" lon="-9.645178020000458">
        <ele>4.94</ele>
        <time>2026-06-28T13:51:01Z</time>
      </trkpt>
      <trkpt lat="51.844509998336434" lon="-9.644984984770417">
        <ele>4.94</ele>
        <time>2026-06-28T13:51:02Z</time>
      </trkpt>
      <trkpt lat="51.844574036076665" lon="-9.644809970632196">
        <ele>4.94</ele>
        <time>2026-06-28T13:51:03Z</time>
      </trkpt>
      <trkpt lat="51.844660034403205" lon="-9.644650965929031">
        <ele>4.94</ele>
        <time>2026-06-28T13:51:04Z</time>
      </trkpt>
      <trkpt lat="51.844762964174151" lon="-9.644526997581124">
        <ele>5.42</ele>
        <time>2026-06-28T13:51:05Z</time>
      </trkpt>
      <trkpt lat="51.844867989420891" lon="-9.644401017576456">
        <ele>5.42</ele>
        <time>2026-06-28T13:51:06Z</time>
      </trkpt>
      <trkpt lat="51.844977959990501" lon="-9.644270008429885">
        <ele>5.42</ele>
        <time>2026-06-28T13:51:07Z</time>
      </trkpt>
      <trkpt lat="51.845092959702015" lon="-9.644131036475301">
        <ele>5.42</ele>
        <time>2026-06-28T13:51:08Z</time>
      </trkpt>
      <trkpt lat="51.845219023525715" lon="-9.64398100040853">
        <ele>5.42</ele>
        <time>2026-06-28T13:51:09Z</time>
      </trkpt>
      <trkpt lat="51.846167016774416" lon="-9.642400005832315">
        <ele>5.91</ele>
        <time>2026-06-28T13:51:18Z</time>
      </trkpt>
      <trkpt lat="51.846453007310629" lon="-9.641960961744189">
        <ele>5.91</ele>
        <time>2026-06-28T13:51:21Z</time>
      </trkpt>
      <trkpt lat="51.846536993980408" lon="-9.641831964254379">
        <ele>5.91</ele>
        <time>2026-06-28T13:51:22Z</time>
      </trkpt>
      <trkpt lat="51.846590973436832" lon="-9.641702966764569">
        <ele>5.91</ele>
        <time>2026-06-28T13:51:23Z</time>
      </trkpt>
      <trkpt lat="51.846651993691921" lon="-9.641501968726516">
        <ele>5.91</ele>
        <time>2026-06-28T13:51:25Z</time>
      </trkpt>
      <trkpt lat="51.846678983420134" lon="-9.641412030905485">
        <ele>5.91</ele>
        <time>2026-06-28T13:51:26Z</time>
      </trkpt>
      <trkpt lat="51.846708990633488" lon="-9.641312034800649">
        <ele>5.91</ele>
        <time>2026-06-28T13:51:27Z</time>
      </trkpt>
      <trkpt lat="51.846747966483235" lon="-9.641184965148568">
        <ele>5.42</ele>
        <time>2026-06-28T13:51:28Z</time>
      </trkpt>
      <trkpt lat="51.846793983131647" lon="-9.641029983758926">
        <ele>5.42</ele>
        <time>2026-06-28T13:51:29Z</time>
      </trkpt>
      <trkpt lat="51.847090031951666" lon="-9.639659039676189">
        <ele>4.94</ele>
        <time>2026-06-28T13:51:35Z</time>
      </trkpt>
      <trkpt lat="51.847432013601065" lon="-9.63783698156476">
        <ele>7.35</ele>
        <time>2026-06-28T13:51:41Z</time>
      </trkpt>
      <trkpt lat="51.847798973321915" lon="-9.636054988950491">
        <ele>10.23</ele>
        <time>2026-06-28T13:51:46Z</time>
      </trkpt>
      <trkpt lat="51.847910033538938" lon="-9.635843010619283">
        <ele>10.710000000000001</ele>
        <time>2026-06-28T13:51:47Z</time>
      </trkpt>
      <trkpt lat="51.848017992451787" lon="-9.635657016187906">
        <ele>11.19</ele>
        <time>2026-06-28T13:51:48Z</time>
      </trkpt>
      <trkpt lat="51.848130980506539" lon="-9.635460041463375">
        <ele>11.67</ele>
        <time>2026-06-28T13:51:49Z</time>
      </trkpt>
      <trkpt lat="51.848265007138252" lon="-9.635304976254702">
        <ele>12.15</ele>
        <time>2026-06-28T13:51:50Z</time>
      </trkpt>
      <trkpt lat="51.84937602840364" lon="-9.634015001356602">
        <ele>11.19</ele>
        <time>2026-06-28T13:51:57Z</time>
      </trkpt>
      <trkpt lat="51.850682012736797" lon="-9.632544983178377">
        <ele>8.310000000000001</ele>
        <time>2026-06-28T13:52:05Z</time>
      </trkpt>
      <trkpt lat="51.850786032155156" lon="-9.632322024554014">
        <ele>8.310000000000001</ele>
        <time>2026-06-28T13:52:06Z</time>
      </trkpt>
      <trkpt lat="51.850883010774851" lon="-9.632080039009452">
        <ele>8.310000000000001</ele>
        <time>2026-06-28T13:52:07Z</time>
      </trkpt>
      <trkpt lat="51.851607039570808" lon="-9.629986993968487">
        <ele>6.39</ele>
        <time>2026-06-28T13:52:15Z</time>
      </trkpt>
      <trkpt lat="51.851856987923384" lon="-9.629251984879375">
        <ele>6.39</ele>
        <time>2026-06-28T13:52:18Z</time>
      </trkpt>
      <trkpt lat="51.851946003735065" lon="-9.628989966586232">
        <ele>6.39</ele>
        <time>2026-06-28T13:52:19Z</time>
      </trkpt>
      <trkpt lat="51.852570958435535" lon="-9.627409977838397">
        <ele>7.83</ele>
        <time>2026-06-28T13:52:26Z</time>
      </trkpt>
      <trkpt lat="51.852680006995797" lon="-9.627199005335569">
        <ele>7.83</ele>
        <time>2026-06-28T13:52:27Z</time>
      </trkpt>
      <trkpt lat="51.852778997272253" lon="-9.627095991745591">
        <ele>8.310000000000001</ele>
        <time>2026-06-28T13:52:28Z</time>
      </trkpt>
      <trkpt lat="51.852905983105302" lon="-9.627032037824392">
        <ele>8.789999999999999</ele>
        <time>2026-06-28T13:52:29Z</time>
      </trkpt>
      <trkpt lat="51.853036992251873" lon="-9.6269850153476">
        <ele>9.27</ele>
        <time>2026-06-28T13:52:30Z</time>
      </trkpt>
      <trkpt lat="51.853169007226825" lon="-9.626995995640755">
        <ele>9.75</ele>
        <time>2026-06-28T13:52:31Z</time>
      </trkpt>
      <trkpt lat="51.853294987231493" lon="-9.627034971490502">
        <ele>10.23</ele>
        <time>2026-06-28T13:52:32Z</time>
      </trkpt>
      <trkpt lat="51.853417027741671" lon="-9.627072019502521">
        <ele>10.710000000000001</ele>
        <time>2026-06-28T13:52:33Z</time>
      </trkpt>
      <trkpt lat="51.853669993579388" lon="-9.627149971202016">
        <ele>11.67</ele>
        <time>2026-06-28T13:52:35Z</time>
      </trkpt>
      <trkpt lat="51.853805026039481" lon="-9.627190958708525">
        <ele>11.67</ele>
        <time>2026-06-28T13:52:36Z</time>
      </trkpt>
      <trkpt lat="51.853941986337304" lon="-9.627211997285485">
        <ele>12.15</ele>
        <time>2026-06-28T13:52:37Z</time>
      </trkpt>
      <trkpt lat="51.854240968823433" lon="-9.627141002565622">
        <ele>12.630000000000001</ele>
        <time>2026-06-28T13:52:39Z</time>
      </trkpt>
      <trkpt lat="51.854364015161991" lon="-9.627027008682489">
        <ele>12.630000000000001</ele>
        <time>2026-06-28T13:52:40Z</time>
      </trkpt>
      <trkpt lat="51.854477003216743" lon="-9.62689901702106">
        <ele>13.119999999999999</ele>
        <time>2026-06-28T13:52:41Z</time>
      </trkpt>
      <trkpt lat="51.854611029848456" lon="-9.626748980954289">
        <ele>13.6</ele>
        <time>2026-06-28T13:52:42Z</time>
      </trkpt>
      <trkpt lat="51.85468596406281" lon="-9.626601962372661">
        <ele>14.56</ele>
        <time>2026-06-28T13:52:43Z</time>
      </trkpt>
      <trkpt lat="51.854779003188014" lon="-9.626418985426426">
        <ele>16</ele>
        <time>2026-06-28T13:52:44Z</time>
      </trkpt>
      <trkpt lat="51.854881010949612" lon="-9.626218993216753">
        <ele>16.960000000000001</ele>
        <time>2026-06-28T13:52:45Z</time>
      </trkpt>
      <trkpt lat="51.855611996725202" lon="-9.624694995582104">
        <ele>24.170000000000002</ele>
        <time>2026-06-28T13:52:53Z</time>
      </trkpt>
      <trkpt lat="51.856223037466407" lon="-9.623254984617233">
        <ele>23.690000000000001</ele>
        <time>2026-06-28T13:52:58Z</time>
      </trkpt>
      <trkpt lat="51.856551021337509" lon="-9.622482005506754">
        <ele>22.73</ele>
        <time>2026-06-28T13:53:02Z</time>
      </trkpt>
      <trkpt lat="51.856742966920137" lon="-9.622128959745169">
        <ele>22.25</ele>
        <time>2026-06-28T13:53:04Z</time>
      </trkpt>
      <trkpt lat="51.856858972460032" lon="-9.621940031647682">
        <ele>21.77</ele>
        <time>2026-06-28T13:53:05Z</time>
      </trkpt>
      <trkpt lat="51.857087966054678" lon="-9.621568964794278">
        <ele>20.809999999999999</ele>
        <time>2026-06-28T13:53:07Z</time>
      </trkpt>
      <trkpt lat="51.857200032100081" lon="-9.621389005333185">
        <ele>20.809999999999999</ele>
        <time>2026-06-28T13:53:08Z</time>
      </trkpt>
      <trkpt lat="51.857264991849661" lon="-9.621149031445384">
        <ele>20.32</ele>
        <time>2026-06-28T13:53:09Z</time>
      </trkpt>
      <trkpt lat="51.857312014326453" lon="-9.620903022587299">
        <ele>19.84</ele>
        <time>2026-06-28T13:53:10Z</time>
      </trkpt>
      <trkpt lat="51.857359036803246" lon="-9.620658019557595">
        <ele>19.84</ele>
        <time>2026-06-28T13:53:11Z</time>
      </trkpt>
      <trkpt lat="51.857483005151153" lon="-9.620004985481501">
        <ele>19.359999999999999</ele>
        <time>2026-06-28T13:53:14Z</time>
      </trkpt>
      <trkpt lat="51.8575410079211" lon="-9.61980801075697">
        <ele>20.32</ele>
        <time>2026-06-28T13:53:15Z</time>
      </trkpt>
      <trkpt lat="51.857717027887702" lon="-9.619414983317256">
        <ele>21.77</ele>
        <time>2026-06-28T13:53:17Z</time>
      </trkpt>
      <trkpt lat="51.85803696513176" lon="-9.618879966437817">
        <ele>25.129999999999999</ele>
        <time>2026-06-28T13:53:20Z</time>
      </trkpt>
      <trkpt lat="51.858130004256964" lon="-9.618659019470215">
        <ele>26.09</ele>
        <time>2026-06-28T13:53:21Z</time>
      </trkpt>
      <trkpt lat="51.858195969834924" lon="-9.618403036147356">
        <ele>27.050000000000001</ele>
        <time>2026-06-28T13:53:22Z</time>
      </trkpt>
      <trkpt lat="51.858280040323734" lon="-9.618079997599125">
        <ele>27.530000000000001</ele>
        <time>2026-06-28T13:53:23Z</time>
      </trkpt>
      <trkpt lat="51.858329996466637" lon="-9.617772968485951">
        <ele>28.5</ele>
        <time>2026-06-28T13:53:24Z</time>
      </trkpt>
      <trkpt lat="51.85863995924592" lon="-9.615542041137815">
        <ele>28.5</ele>
        <time>2026-06-28T13:53:30Z</time>
      </trkpt>
      <trkpt lat="51.858759988099337" lon="-9.61360196582973">
        <ele>26.09</ele>
        <time>2026-06-28T13:53:36Z</time>
      </trkpt>
      <trkpt lat="51.858785971999168" lon="-9.612725973129273">
        <ele>25.609999999999999</ele>
        <time>2026-06-28T13:53:39Z</time>
      </trkpt>
      <trkpt lat="51.858794018626213" lon="-9.612450040876865">
        <ele>25.609999999999999</ele>
        <time>2026-06-28T13:53:40Z</time>
      </trkpt>
      <trkpt lat="51.858842968940735" lon="-9.612175030633807">
        <ele>25.609999999999999</ele>
        <time>2026-06-28T13:53:41Z</time>
      </trkpt>
      <trkpt lat="51.858902983367443" lon="-9.611899014562368">
        <ele>25.609999999999999</ele>
        <time>2026-06-28T13:53:42Z</time>
      </trkpt>
      <trkpt lat="51.858971966430545" lon="-9.611615035682917">
        <ele>26.09</ele>
        <time>2026-06-28T13:53:43Z</time>
      </trkpt>
      <trkpt lat="51.859728014096618" lon="-9.609073977917433">
        <ele>28.02</ele>
        <time>2026-06-28T13:53:52Z</time>
      </trkpt>
      <trkpt lat="51.859923982992768" lon="-9.608606016263366">
        <ele>28.02</ele>
        <time>2026-06-28T13:53:54Z</time>
      </trkpt>
      <trkpt lat="51.860021967440844" lon="-9.608480036258698">
        <ele>28.02</ele>
        <time>2026-06-28T13:53:55Z</time>
      </trkpt>
      <trkpt lat="51.860138978809118" lon="-9.608407029882073">
        <ele>28.02</ele>
        <time>2026-06-28T13:53:56Z</time>
      </trkpt>
      <trkpt lat="51.860263030976057" lon="-9.608327988535166">
        <ele>28.02</ele>
        <time>2026-06-28T13:53:57Z</time>
      </trkpt>
      <trkpt lat="51.860400997102261" lon="-9.608240984380245">
        <ele>28.5</ele>
        <time>2026-06-28T13:53:58Z</time>
      </trkpt>
      <trkpt lat="51.860548015683889" lon="-9.608148029074073">
        <ele>28.5</ele>
        <time>2026-06-28T13:53:59Z</time>
      </trkpt>
      <trkpt lat="51.860696040093899" lon="-9.608054989948869">
        <ele>28.5</ele>
        <time>2026-06-28T13:54:00Z</time>
      </trkpt>
      <trkpt lat="51.860841969028115" lon="-9.607919035479426">
        <ele>28.98</ele>
        <time>2026-06-28T13:54:01Z</time>
      </trkpt>
      <trkpt lat="51.860974989831448" lon="-9.607722982764244">
        <ele>29.460000000000001</ele>
        <time>2026-06-28T13:54:02Z</time>
      </trkpt>
      <trkpt lat="51.861125025898218" lon="-9.607502035796642">
        <ele>29.460000000000001</ele>
        <time>2026-06-28T13:54:03Z</time>
      </trkpt>
      <trkpt lat="51.86224702745676" lon="-9.60573697462678">
        <ele>28.98</ele>
        <time>2026-06-28T13:54:11Z</time>
      </trkpt>
      <trkpt lat="51.862818002700806" lon="-9.60463902913034">
        <ele>27.050000000000001</ele>
        <time>2026-06-28T13:54:16Z</time>
      </trkpt>
      <trkpt lat="51.862917998805642" lon="-9.60440400056541">
        <ele>26.09</ele>
        <time>2026-06-28T13:54:17Z</time>
      </trkpt>
      <trkpt lat="51.863104999065399" lon="-9.603881975635886">
        <ele>25.129999999999999</ele>
        <time>2026-06-28T13:54:19Z</time>
      </trkpt>
      <trkpt lat="51.863653007894754" lon="-9.602559981867671">
        <ele>20.809999999999999</ele>
        <time>2026-06-28T13:54:25Z</time>
      </trkpt>
      <trkpt lat="51.863764990121126" lon="-9.602373987436295">
        <ele>20.32</ele>
        <time>2026-06-28T13:54:26Z</time>
      </trkpt>
      <trkpt lat="51.864036982879043" lon="-9.602038040757179">
        <ele>18.879999999999999</ele>
        <time>2026-06-28T13:54:28Z</time>
      </trkpt>
      <trkpt lat="51.864135973155499" lon="-9.601820027455688">
        <ele>18.399999999999999</ele>
        <time>2026-06-28T13:54:29Z</time>
      </trkpt>
      <trkpt lat="51.864234963431954" lon="-9.601602014154196">
        <ele>17.920000000000002</ele>
        <time>2026-06-28T13:54:30Z</time>
      </trkpt>
      <trkpt lat="51.864304030314088" lon="-9.601341001689434">
        <ele>17.440000000000001</ele>
        <time>2026-06-28T13:54:31Z</time>
      </trkpt>
      <trkpt lat="51.864369995892048" lon="-9.601074038073421">
        <ele>17.440000000000001</ele>
        <time>2026-06-28T13:54:32Z</time>
      </trkpt>
      <trkpt lat="51.864502010867" lon="-9.600534997880459">
        <ele>16.48</ele>
        <time>2026-06-28T13:54:34Z</time>
      </trkpt>
      <trkpt lat="51.864559007808566" lon="-9.600010039284825">
        <ele>16.48</ele>
        <time>2026-06-28T13:54:36Z</time>
      </trkpt>
      <trkpt lat="51.864580968394876" lon="-9.599747015163302">
        <ele>16.48</ele>
        <time>2026-06-28T13:54:37Z</time>
      </trkpt>
      <trkpt lat="51.864566970616579" lon="-9.599486002698541">
        <ele>16.48</ele>
        <time>2026-06-28T13:54:38Z</time>
      </trkpt>
      <trkpt lat="51.864419030025601" lon="-9.598228968679905">
        <ele>16</ele>
        <time>2026-06-28T13:54:43Z</time>
      </trkpt>
      <trkpt lat="51.864404026418924" lon="-9.597991006448865">
        <ele>16</ele>
        <time>2026-06-28T13:54:44Z</time>
      </trkpt>
      <trkpt lat="51.864407965913415" lon="-9.597760001197457">
        <ele>16.48</ele>
        <time>2026-06-28T13:54:45Z</time>
      </trkpt>
      <trkpt lat="51.864432021975517" lon="-9.597543999552727">
        <ele>16.960000000000001</ele>
        <time>2026-06-28T13:54:46Z</time>
      </trkpt>
      <trkpt lat="51.864488013088703" lon="-9.597339984029532">
        <ele>17.440000000000001</ele>
        <time>2026-06-28T13:54:47Z</time>
      </trkpt>
      <trkpt lat="51.864554984495044" lon="-9.597150972113013">
        <ele>17.920000000000002</ele>
        <time>2026-06-28T13:54:48Z</time>
      </trkpt>
      <trkpt lat="51.864635031670332" lon="-9.596959026530385">
        <ele>18.879999999999999</ele>
        <time>2026-06-28T13:54:49Z</time>
      </trkpt>
      <trkpt lat="51.865336010232568" lon="-9.595534019172192">
        <ele>19.84</ele>
        <time>2026-06-28T13:54:56Z</time>
      </trkpt>
      <trkpt lat="51.865831967443228" lon="-9.594486029818654">
        <ele>18.399999999999999</ele>
        <time>2026-06-28T13:55:01Z</time>
      </trkpt>
      <trkpt lat="51.865902962163091" lon="-9.594249995425344">
        <ele>18.399999999999999</ele>
        <time>2026-06-28T13:55:02Z</time>
      </trkpt>
      <trkpt lat="51.866563037037849" lon="-9.592271028086543">
        <ele>16.48</ele>
        <time>2026-06-28T13:55:11Z</time>
      </trkpt>
      <trkpt lat="51.867482028901577" lon="-9.590365989133716">
        <ele>17.920000000000002</ele>
        <time>2026-06-28T13:55:20Z</time>
      </trkpt>
      <trkpt lat="51.867958959192038" lon="-9.589640032500029">
        <ele>16.960000000000001</ele>
        <time>2026-06-28T13:55:24Z</time>
      </trkpt>
      <trkpt lat="51.868534963577986" lon="-9.588968977332115">
        <ele>14.56</ele>
        <time>2026-06-28T13:55:28Z</time>
      </trkpt>
      <trkpt lat="51.868667984381318" lon="-9.588774014264345">
        <ele>13.6</ele>
        <time>2026-06-28T13:55:29Z</time>
      </trkpt>
      <trkpt lat="51.868788013234735" lon="-9.588548038154841">
        <ele>13.119999999999999</ele>
        <time>2026-06-28T13:55:30Z</time>
      </trkpt>
      <trkpt lat="51.869684960693121" lon="-9.586155004799366">
        <ele>9.27</ele>
        <time>2026-06-28T13:55:39Z</time>
      </trkpt>
      <trkpt lat="51.86998100951314" lon="-9.584998972713947">
        <ele>7.83</ele>
        <time>2026-06-28T13:55:43Z</time>
      </trkpt>
      <trkpt lat="51.870023002848029" lon="-9.584713988006115">
        <ele>7.35</ele>
        <time>2026-06-28T13:55:44Z</time>
      </trkpt>
      <trkpt lat="51.870020991191268" lon="-9.584441995248199">
        <ele>6.87</ele>
        <time>2026-06-28T13:55:45Z</time>
      </trkpt>
      <trkpt lat="51.869991989806294" lon="-9.584184000268579">
        <ele>6.39</ele>
        <time>2026-06-28T13:55:46Z</time>
      </trkpt>
      <trkpt lat="51.869948990643024" lon="-9.583945032209158">
        <ele>5.91</ele>
        <time>2026-06-28T13:55:47Z</time>
      </trkpt>
      <trkpt lat="51.869876990094781" lon="-9.583716038614512">
        <ele>5.42</ele>
        <time>2026-06-28T13:55:48Z</time>
      </trkpt>
      <trkpt lat="51.869613965973258" lon="-9.582709958776832">
        <ele>3.5</ele>
        <time>2026-06-28T13:55:53Z</time>
      </trkpt>
      <trkpt lat="51.869618995115161" lon="-9.582535028457642">
        <ele>3.5</ele>
        <time>2026-06-28T13:55:54Z</time>
      </trkpt>
      <trkpt lat="51.869633998721838" lon="-9.582351967692375">
        <ele>3.5</ele>
        <time>2026-06-28T13:55:55Z</time>
      </trkpt>
      <trkpt lat="51.869653025642037" lon="-9.582117022946477">
        <ele>3.5</ele>
        <time>2026-06-28T13:55:56Z</time>
      </trkpt>
      <trkpt lat="51.86970398761332" lon="-9.582005040720105">
        <ele>3.5</ele>
        <time>2026-06-28T13:55:57Z</time>
      </trkpt>
      <trkpt lat="51.869772970676422" lon="-9.581861039623618">
        <ele>3.02</ele>
        <time>2026-06-28T13:55:58Z</time>
      </trkpt>
      <trkpt lat="51.869854023680091" lon="-9.581738999113441">
        <ele>3.02</ele>
        <time>2026-06-28T13:55:59Z</time>
      </trkpt>
      <trkpt lat="51.86993901617825" lon="-9.581616958603263">
        <ele>2.54</ele>
        <time>2026-06-28T13:56:00Z</time>
      </trkpt>
      <trkpt lat="51.870029959827662" lon="-9.581541018560529">
        <ele>2.06</ele>
        <time>2026-06-28T13:56:01Z</time>
      </trkpt>
      <trkpt lat="51.870115958154202" lon="-9.581468012183905">
        <ele>2.06</ele>
        <time>2026-06-28T13:56:02Z</time>
      </trkpt>
      <trkpt lat="51.870187958702445" lon="-9.581406991928816">
        <ele>2.06</ele>
        <time>2026-06-28T13:56:03Z</time>
      </trkpt>
      <trkpt lat="51.870245961472392" lon="-9.581358963623643">
        <ele>1.58</ele>
        <time>2026-06-28T13:56:04Z</time>
      </trkpt>
      <trkpt lat="51.870285021141171" lon="-9.581326022744179">
        <ele>1.58</ele>
        <time>2026-06-28T13:56:05Z</time>
      </trkpt>
      <trkpt lat="51.870394991710782" lon="-9.581334991380572">
        <ele>0.62</ele>
        <time>2026-06-28T13:56:11Z</time>
      </trkpt>
      <trkpt lat="51.870450982823968" lon="-9.581390982493758">
        <ele>0.62</ele>
        <time>2026-06-28T13:56:13Z</time>
      </trkpt>
      <trkpt lat="51.870510997250676" lon="-9.581450996920466">
        <ele>0.62</ele>
        <time>2026-06-28T13:56:14Z</time>
      </trkpt>
      <trkpt lat="51.871234020218253" lon="-9.582036975771189">
        <ele>1.1</ele>
        <time>2026-06-28T13:56:21Z</time>
      </trkpt>
      <trkpt lat="51.872287960723042" lon="-9.582900982350111">
        <ele>1.1</ele>
        <time>2026-06-28T13:56:29Z</time>
      </trkpt>
      <trkpt lat="51.873371992260218" lon="-9.583640014752746">
        <ele>0.62</ele>
        <time>2026-06-28T13:56:38Z</time>
      </trkpt>
      <trkpt lat="51.874565994367003" lon="-9.583789967000485">
        <ele>1.58</ele>
        <time>2026-06-28T13:56:48Z</time>
      </trkpt>
      <trkpt lat="51.875426983460784" lon="-9.583765994757414">
        <ele>3.98</ele>
        <time>2026-06-28T13:56:56Z</time>
      </trkpt>
      <trkpt lat="51.876653004437685" lon="-9.583658035844564">
        <ele>9.27</ele>
        <time>2026-06-28T13:57:06Z</time>
      </trkpt>
      <trkpt lat="51.876774961128831" lon="-9.583648983389139">
        <ele>9.75</ele>
        <time>2026-06-28T13:57:07Z</time>
      </trkpt>
      <trkpt lat="51.876890966668725" lon="-9.583640014752746">
        <ele>10.23</ele>
        <time>2026-06-28T13:57:08Z</time>
      </trkpt>
      <trkpt lat="51.877097999677062" lon="-9.583625011146069">
        <ele>11.67</ele>
        <time>2026-06-28T13:57:10Z</time>
      </trkpt>
      <trkpt lat="51.877194978296757" lon="-9.583617970347405">
        <ele>12.15</ele>
        <time>2026-06-28T13:57:11Z</time>
      </trkpt>
      <trkpt lat="51.877288017421961" lon="-9.583611013367772">
        <ele>12.630000000000001</ele>
        <time>2026-06-28T13:57:12Z</time>
      </trkpt>
      <trkpt lat="51.87737300992012" lon="-9.583604978397489">
        <ele>12.630000000000001</ele>
        <time>2026-06-28T13:57:13Z</time>
      </trkpt>
      <trkpt lat="51.877451967447996" lon="-9.583599027246237">
        <ele>12.630000000000001</ele>
        <time>2026-06-28T13:57:14Z</time>
      </trkpt>
      <trkpt lat="51.877928981557488" lon="-9.583558039739728">
        <ele>9.75</ele>
        <time>2026-06-28T13:57:23Z</time>
      </trkpt>
      <trkpt lat="51.878135008737445" lon="-9.583554016426206">
        <ele>10.710000000000001</ele>
        <time>2026-06-28T13:57:33Z</time>
      </trkpt>
      <trkpt lat="51.878186976537108" lon="-9.583554016426206">
        <ele>12.15</ele>
        <time>2026-06-28T13:57:45Z</time>
      </trkpt>
      <trkpt lat="51.878186976537108" lon="-9.583554016426206">
        <ele>12.15</ele>
        <time>2026-06-28T13:58:04Z</time>
      </trkpt>
      <trkpt lat="51.878352016210556" lon="-9.583554016426206">
        <ele>12.15</ele>
        <time>2026-06-28T13:58:20Z</time>
      </trkpt>
      <trkpt lat="51.8785759806633" lon="-9.583737999200821">
        <ele>103.95999999999999</ele>
        <time>2026-06-28T14:43:07Z</time>
      </trkpt>
      <trkpt lat="51.878469027578831" lon="-9.58354496397078">
        <ele>25.129999999999999</ele>
        <time>2026-06-28T14:43:50Z</time>
      </trkpt>
      <trkpt lat="51.878503980115056" lon="-9.583510011434555">
        <ele>19.359999999999999</ele>
        <time>2026-06-28T14:44:30Z</time>
      </trkpt>
      <trkpt lat="51.878504985943437" lon="-9.583492996171117">
        <ele>19.359999999999999</ele>
        <time>2026-06-28T14:45:03Z</time>
      </trkpt>
      <trkpt lat="51.878504985943437" lon="-9.583492996171117">
        <ele>19.359999999999999</ele>
        <time>2026-06-28T14:45:25Z</time>
      </trkpt>
      <trkpt lat="51.878500962629914" lon="-9.583490984514356">
        <ele>17.920000000000002</ele>
        <time>2026-06-28T14:45:30Z</time>
      </trkpt>
      <trkpt lat="51.878517977893353" lon="-9.583549993112683">
        <ele>17.920000000000002</ele>
        <time>2026-06-28T14:45:32Z</time>
      </trkpt>
      <trkpt lat="51.878551002591848" lon="-9.583547981455922">
        <ele>17.920000000000002</ele>
        <time>2026-06-28T14:45:33Z</time>
      </trkpt>
      <trkpt lat="51.878595007583499" lon="-9.583545969799161">
        <ele>17.440000000000001</ele>
        <time>2026-06-28T14:45:34Z</time>
      </trkpt>
      <trkpt lat="51.878641024231911" lon="-9.5835439581424">
        <ele>17.440000000000001</ele>
        <time>2026-06-28T14:45:35Z</time>
      </trkpt>
      <trkpt lat="51.878684023395181" lon="-9.58354203030467">
        <ele>16.960000000000001</ele>
        <time>2026-06-28T14:45:36Z</time>
      </trkpt>
      <trkpt lat="51.878728028386831" lon="-9.58354102447629">
        <ele>16.960000000000001</ele>
        <time>2026-06-28T14:45:37Z</time>
      </trkpt>
      <trkpt lat="51.878802040591836" lon="-9.583537001162767">
        <ele>16.48</ele>
        <time>2026-06-28T14:45:41Z</time>
      </trkpt>
      <trkpt lat="51.878802040591836" lon="-9.583537001162767">
        <ele>17.920000000000002</ele>
        <time>2026-06-28T14:45:54Z</time>
      </trkpt>
      <trkpt lat="51.878802040591836" lon="-9.583537001162767">
        <ele>17.920000000000002</ele>
        <time>2026-06-28T14:46:21Z</time>
      </trkpt>
      <trkpt lat="51.878802040591836" lon="-9.583537001162767">
        <ele>17.440000000000001</ele>
        <time>2026-06-28T14:47:02Z</time>
      </trkpt>
      <trkpt lat="51.878802040591836" lon="-9.583537001162767">
        <ele>16.960000000000001</ele>
        <time>2026-06-28T14:47:37Z</time>
      </trkpt>
      <trkpt lat="51.878847973421216" lon="-9.583534989506006">
        <ele>16</ele>
        <time>2026-06-28T14:47:38Z</time>
      </trkpt>
      <trkpt lat="51.87887798063457" lon="-9.583533983677626">
        <ele>16.48</ele>
        <time>2026-06-28T14:47:39Z</time>
      </trkpt>
      <trkpt lat="51.879089036956429" lon="-9.583523003384471">
        <ele>14.08</ele>
        <time>2026-06-28T14:47:49Z</time>
      </trkpt>
      <trkpt lat="51.879299003630877" lon="-9.583511017262936">
        <ele>14.56</ele>
        <time>2026-06-28T14:47:58Z</time>
      </trkpt>
      <trkpt lat="51.879582982510328" lon="-9.583496013656259">
        <ele>15.039999999999999</ele>
        <time>2026-06-28T14:48:05Z</time>
      </trkpt>
      <trkpt lat="51.879926975816488" lon="-9.583476986736059">
        <ele>13.119999999999999</ele>
        <time>2026-06-28T14:48:15Z</time>
      </trkpt>
      <trkpt lat="51.879998976364732" lon="-9.583472963422537">
        <ele>11.19</ele>
        <time>2026-06-28T14:48:18Z</time>
      </trkpt>
      <trkpt lat="51.880034012719989" lon="-9.583471035584807">
        <ele>10.710000000000001</ele>
        <time>2026-06-28T14:48:19Z</time>
      </trkpt>
      <trkpt lat="51.880102995783091" lon="-9.58350196480751">
        <ele>10.23</ele>
        <time>2026-06-28T14:48:20Z</time>
      </trkpt>
      <trkpt lat="51.880293013527989" lon="-9.583801031112671">
        <ele>5.91</ele>
        <time>2026-06-28T14:48:27Z</time>
      </trkpt>
      <trkpt lat="51.880325032398105" lon="-9.583851993083954">
        <ele>5.42</ele>
        <time>2026-06-28T14:48:28Z</time>
      </trkpt>
      <trkpt lat="51.880365014076233" lon="-9.583914019167423">
        <ele>4.94</ele>
        <time>2026-06-28T14:48:29Z</time>
      </trkpt>
      <trkpt lat="51.880407007411122" lon="-9.583979984745383">
        <ele>4.46</ele>
        <time>2026-06-28T14:48:30Z</time>
      </trkpt>
      <trkpt lat="51.880453024059534" lon="-9.584051985293627">
        <ele>3.98</ele>
        <time>2026-06-28T14:48:31Z</time>
      </trkpt>
      <trkpt lat="51.880500968545675" lon="-9.584128009155393">
        <ele>3.5</ele>
        <time>2026-06-28T14:48:32Z</time>
      </trkpt>
      <trkpt lat="51.880547991022468" lon="-9.584192968904972">
        <ele>3.5</ele>
        <time>2026-06-28T14:48:33Z</time>
      </trkpt>
      <trkpt lat="51.880970019847155" lon="-9.584541991353035">
        <ele>1.58</ele>
        <time>2026-06-28T14:48:40Z</time>
      </trkpt>
      <trkpt lat="51.881042020395398" lon="-9.584593959152699">
        <ele>1.58</ele>
        <time>2026-06-28T14:48:41Z</time>
      </trkpt>
      <trkpt lat="51.881190966814756" lon="-9.584696972742677">
        <ele>1.58</ele>
        <time>2026-06-28T14:48:43Z</time>
      </trkpt>
      <trkpt lat="51.881358018144965" lon="-9.584757992997766">
        <ele>1.58</ele>
        <time>2026-06-28T14:48:45Z</time>
      </trkpt>
      <trkpt lat="51.881444016471505" lon="-9.584784982725978">
        <ele>1.58</ele>
        <time>2026-06-28T14:48:46Z</time>
      </trkpt>
      <trkpt lat="51.881530014798045" lon="-9.584806021302939">
        <ele>1.58</ele>
        <time>2026-06-28T14:48:47Z</time>
      </trkpt>
      <trkpt lat="51.882090009748936" lon="-9.584963014349341">
        <ele>3.02</ele>
        <time>2026-06-28T14:48:53Z</time>
      </trkpt>
      <trkpt lat="51.88323900103569" lon="-9.585759965702891">
        <ele>7.35</ele>
        <time>2026-06-28T14:49:04Z</time>
      </trkpt>
      <trkpt lat="51.883434969931841" lon="-9.586023995652795">
        <ele>7.83</ele>
        <time>2026-06-28T14:49:06Z</time>
      </trkpt>
      <trkpt lat="51.883508982136846" lon="-9.58618400618434">
        <ele>8.310000000000001</ele>
        <time>2026-06-28T14:49:07Z</time>
      </trkpt>
      <trkpt lat="51.883584000170231" lon="-9.586345022544265">
        <ele>8.789999999999999</ele>
        <time>2026-06-28T14:49:08Z</time>
      </trkpt>
      <trkpt lat="51.883651977404952" lon="-9.586514001712203">
        <ele>9.75</ele>
        <time>2026-06-28T14:49:09Z</time>
      </trkpt>
      <trkpt lat="51.88369195908308" lon="-9.58669999614358">
        <ele>9.75</ele>
        <time>2026-06-28T14:49:10Z</time>
      </trkpt>
      <trkpt lat="51.883729007095098" lon="-9.586878027766943">
        <ele>9.75</ele>
        <time>2026-06-28T14:49:11Z</time>
      </trkpt>
      <trkpt lat="51.883765971288085" lon="-9.587051030248404">
        <ele>9.75</ele>
        <time>2026-06-28T14:49:12Z</time>
      </trkpt>
      <trkpt lat="51.883793966844678" lon="-9.587215986102819">
        <ele>9.75</ele>
        <time>2026-06-28T14:49:13Z</time>
      </trkpt>
      <trkpt lat="51.883798995986581" lon="-9.587379014119506">
        <ele>9.75</ele>
        <time>2026-06-28T14:49:14Z</time>
      </trkpt>
      <trkpt lat="51.883808970451355" lon="-9.587699035182595">
        <ele>9.75</ele>
        <time>2026-06-28T14:49:16Z</time>
      </trkpt>
      <trkpt lat="51.883747028186917" lon="-9.588591037318111">
        <ele>10.23</ele>
        <time>2026-06-28T14:49:22Z</time>
      </trkpt>
      <trkpt lat="51.883733030408621" lon="-9.588729003444314">
        <ele>10.23</ele>
        <time>2026-06-28T14:49:23Z</time>
      </trkpt>
      <trkpt lat="51.883737975731492" lon="-9.589091017842293">
        <ele>11.67</ele>
        <time>2026-06-28T14:49:26Z</time>
      </trkpt>
      <trkpt lat="51.883812993764877" lon="-9.589775986969471">
        <ele>13.6</ele>
        <time>2026-06-28T14:49:32Z</time>
      </trkpt>
      <trkpt lat="51.884225970134139" lon="-9.591265032067895">
        <ele>13.119999999999999</ele>
        <time>2026-06-28T14:49:43Z</time>
      </trkpt>
      <trkpt lat="51.884990986436605" lon="-9.592753993347287">
        <ele>14.08</ele>
        <time>2026-06-28T14:49:52Z</time>
      </trkpt>
      <trkpt lat="51.885562967509031" lon="-9.594530034810305">
        <ele>17.440000000000001</ele>
        <time>2026-06-28T14:50:01Z</time>
      </trkpt>
      <trkpt lat="51.886197980493307" lon="-9.595671985298395">
        <ele>22.73</ele>
        <time>2026-06-28T14:50:08Z</time>
      </trkpt>
      <trkpt lat="51.887306990101933" lon="-9.596860036253929">
        <ele>27.530000000000001</ele>
        <time>2026-06-28T14:50:18Z</time>
      </trkpt>
      <trkpt lat="51.888800980523229" lon="-9.597784979268909">
        <ele>28.02</ele>
        <time>2026-06-28T14:50:29Z</time>
      </trkpt>
      <trkpt lat="51.88992197625339" lon="-9.598476989194751">
        <ele>29.460000000000001</ele>
        <time>2026-06-28T14:50:35Z</time>
      </trkpt>
      <trkpt lat="51.891802959144115" lon="-9.599559009075165">
        <ele>33.780000000000001</ele>
        <time>2026-06-28T14:50:44Z</time>
      </trkpt>
      <trkpt lat="51.893326034769416" lon="-9.60049401037395">
        <ele>36.670000000000002</ele>
        <time>2026-06-28T14:50:52Z</time>
      </trkpt>
      <trkpt lat="51.89348797313869" lon="-9.600672964006662">
        <ele>37.149999999999999</ele>
        <time>2026-06-28T14:50:53Z</time>
      </trkpt>
      <trkpt lat="51.893644966185093" lon="-9.600870022550225">
        <ele>37.149999999999999</ele>
        <time>2026-06-28T14:50:54Z</time>
      </trkpt>
      <trkpt lat="51.893802965059876" lon="-9.601070014759898">
        <ele>37.630000000000003</ele>
        <time>2026-06-28T14:50:55Z</time>
      </trkpt>
      <trkpt lat="51.893962975591421" lon="-9.60124502889812">
        <ele>38.109999999999999</ele>
        <time>2026-06-28T14:50:56Z</time>
      </trkpt>
      <trkpt lat="51.894140001386404" lon="-9.601393975317478">
        <ele>38.109999999999999</ele>
        <time>2026-06-28T14:50:57Z</time>
      </trkpt>
      <trkpt lat="51.894317027181387" lon="-9.601543005555868">
        <ele>38.590000000000003</ele>
        <time>2026-06-28T14:50:58Z</time>
      </trkpt>
      <trkpt lat="51.894865036010742" lon="-9.601892028003931">
        <ele>39.07</ele>
        <time>2026-06-28T14:51:01Z</time>
      </trkpt>
      <trkpt lat="51.895054969936609" lon="-9.601954976096749">
        <ele>39.549999999999997</ele>
        <time>2026-06-28T14:51:02Z</time>
      </trkpt>
      <trkpt lat="51.895251022651792" lon="-9.601980959996581">
        <ele>40.030000000000001</ele>
        <time>2026-06-28T14:51:03Z</time>
      </trkpt>
      <trkpt lat="51.895446991547942" lon="-9.602008033543825">
        <ele>40.509999999999998</ele>
        <time>2026-06-28T14:51:04Z</time>
      </trkpt>
      <trkpt lat="51.895647989585996" lon="-9.601982971653342">
        <ele>41.469999999999999</ele>
        <time>2026-06-28T14:51:05Z</time>
      </trkpt>
      <trkpt lat="51.895843958482146" lon="-9.601937038823962">
        <ele>42.439999999999998</ele>
        <time>2026-06-28T14:51:06Z</time>
      </trkpt>
      <trkpt lat="51.896037999540567" lon="-9.601839976385236">
        <ele>42.920000000000002</ele>
        <time>2026-06-28T14:51:07Z</time>
      </trkpt>
      <trkpt lat="51.89623799175024" lon="-9.601739980280399">
        <ele>42.920000000000002</ele>
        <time>2026-06-28T14:51:08Z</time>
      </trkpt>
      <trkpt lat="51.896432032808661" lon="-9.601595979183912">
        <ele>43.399999999999999</ele>
        <time>2026-06-28T14:51:09Z</time>
      </trkpt>
      <trkpt lat="51.896606963127851" lon="-9.601405961439014">
        <ele>43.399999999999999</ele>
        <time>2026-06-28T14:51:10Z</time>
      </trkpt>
      <trkpt lat="51.896780971437693" lon="-9.601209992542863">
        <ele>43.399999999999999</ele>
        <time>2026-06-28T14:51:11Z</time>
      </trkpt>
      <trkpt lat="51.897298973053694" lon="-9.600628037005663">
        <ele>44.359999999999999</ele>
        <time>2026-06-28T14:51:14Z</time>
      </trkpt>
      <trkpt lat="51.897488990798593" lon="-9.600499039515853">
        <ele>44.840000000000003</ele>
        <time>2026-06-28T14:51:15Z</time>
      </trkpt>
      <trkpt lat="51.897682026028633" lon="-9.600375993177295">
        <ele>45.32</ele>
        <time>2026-06-28T14:51:16Z</time>
      </trkpt>
      <trkpt lat="51.899664010852575" lon="-9.598960960283876">
        <ele>50.609999999999999</ele>
        <time>2026-06-28T14:51:26Z</time>
      </trkpt>
      <trkpt lat="51.899882024154067" lon="-9.598874961957336">
        <ele>51.090000000000003</ele>
        <time>2026-06-28T14:51:27Z</time>
      </trkpt>
      <trkpt lat="51.900100037455559" lon="-9.598801033571363">
        <ele>51.57</ele>
        <time>2026-06-28T14:51:28Z</time>
      </trkpt>
      <trkpt lat="51.901569971814752" lon="-9.598584026098251">
        <ele>55.409999999999997</ele>
        <time>2026-06-28T14:51:35Z</time>
      </trkpt>
      <trkpt lat="51.90177901647985" lon="-9.59858201444149">
        <ele>56.369999999999997</ele>
        <time>2026-06-28T14:51:36Z</time>
      </trkpt>
      <trkpt lat="51.902184030041099" lon="-9.598672958090901">
        <ele>56.859999999999999</ele>
        <time>2026-06-28T14:51:38Z</time>
      </trkpt>
      <trkpt lat="51.902379998937249" lon="-9.598735990002751">
        <ele>57.82</ele>
        <time>2026-06-28T14:51:39Z</time>
      </trkpt>
      <trkpt lat="51.903945989906788" lon="-9.59963302128017">
        <ele>67.430000000000007</ele>
        <time>2026-06-28T14:51:47Z</time>
      </trkpt>
      <trkpt lat="51.904136007651687" lon="-9.599769981577992">
        <ele>68.870000000000005</ele>
        <time>2026-06-28T14:51:48Z</time>
      </trkpt>
      <trkpt lat="51.905148038640618" lon="-9.601058028638363">
        <ele>73.680000000000007</ele>
        <time>2026-06-28T14:51:54Z</time>
      </trkpt>
      <trkpt lat="51.906129978597164" lon="-9.603470005095005">
        <ele>76.079999999999998</ele>
        <time>2026-06-28T14:52:02Z</time>
      </trkpt>
      <trkpt lat="51.907311994582415" lon="-9.606766020879149">
        <ele>77.040000000000006</ele>
        <time>2026-06-28T14:52:12Z</time>
      </trkpt>
      <trkpt lat="51.908478001132607" lon="-9.60953900590539">
        <ele>82.329999999999998</ele>
        <time>2026-06-28T14:52:21Z</time>
      </trkpt>
      <trkpt lat="51.908686961978674" lon="-9.61016396060586">
        <ele>83.769999999999996</ele>
        <time>2026-06-28T14:52:23Z</time>
      </trkpt>
      <trkpt lat="51.908749993890524" lon="-9.610475013032556">
        <ele>84.25</ele>
        <time>2026-06-28T14:52:24Z</time>
      </trkpt>
      <trkpt lat="51.90876298584044" lon="-9.610800985246897">
        <ele>84.730000000000004</ele>
        <time>2026-06-28T14:52:25Z</time>
      </trkpt>
      <trkpt lat="51.908749993890524" lon="-9.611127963289619">
        <ele>85.209999999999994</ele>
        <time>2026-06-28T14:52:26Z</time>
      </trkpt>
      <trkpt lat="51.908738007768989" lon="-9.61145200766623">
        <ele>85.209999999999994</ele>
        <time>2026-06-28T14:52:27Z</time>
      </trkpt>
      <trkpt lat="51.908726021647453" lon="-9.611774040386081">
        <ele>85.209999999999994</ele>
        <time>2026-06-28T14:52:28Z</time>
      </trkpt>
      <trkpt lat="51.908715041354299" lon="-9.612094983458519">
        <ele>85.689999999999998</ele>
        <time>2026-06-28T14:52:29Z</time>
      </trkpt>
      <trkpt lat="51.908764997497201" lon="-9.613335002213717">
        <ele>88.099999999999994</ele>
        <time>2026-06-28T14:52:33Z</time>
      </trkpt>
      <trkpt lat="51.908814031630754" lon="-9.613634990528226">
        <ele>88.579999999999998</ele>
        <time>2026-06-28T14:52:34Z</time>
      </trkpt>
      <trkpt lat="51.908857030794024" lon="-9.613897008821368">
        <ele>88.579999999999998</ele>
        <time>2026-06-28T14:52:35Z</time>
      </trkpt>
      <trkpt lat="51.908941017463803" lon="-9.614114016294479">
        <ele>89.060000000000002</ele>
        <time>2026-06-28T14:52:36Z</time>
      </trkpt>
      <trkpt lat="51.909025004133582" lon="-9.614305039867759">
        <ele>89.540000000000006</ele>
        <time>2026-06-28T14:52:37Z</time>
      </trkpt>
      <trkpt lat="51.909146038815379" lon="-9.614449962973595">
        <ele>90.019999999999996</ele>
        <time>2026-06-28T14:52:38Z</time>
      </trkpt>
      <trkpt lat="51.909273024648428" lon="-9.614552976563573">
        <ele>90.019999999999996</ele>
        <time>2026-06-28T14:52:39Z</time>
      </trkpt>
      <trkpt lat="51.909413002431393" lon="-9.614592036232352">
        <ele>90.019999999999996</ele>
        <time>2026-06-28T14:52:40Z</time>
      </trkpt>
      <trkpt lat="51.909562032669783" lon="-9.61458801291883">
        <ele>90.019999999999996</ele>
        <time>2026-06-28T14:52:41Z</time>
      </trkpt>
      <trkpt lat="51.909718019887805" lon="-9.614564040675759">
        <ele>90.5</ele>
        <time>2026-06-28T14:52:42Z</time>
      </trkpt>
      <trkpt lat="51.909873001277447" lon="-9.614510983228684">
        <ele>90.980000000000004</ele>
        <time>2026-06-28T14:52:43Z</time>
      </trkpt>
      <trkpt lat="51.910032005980611" lon="-9.614452980458736">
        <ele>91.459999999999994</ele>
        <time>2026-06-28T14:52:44Z</time>
      </trkpt>
      <trkpt lat="51.910896012559533" lon="-9.614277966320515">
        <ele>94.349999999999994</ele>
        <time>2026-06-28T14:52:49Z</time>
      </trkpt>
      <trkpt lat="51.911248974502087" lon="-9.614319037646055">
        <ele>95.310000000000002</ele>
        <time>2026-06-28T14:52:51Z</time>
      </trkpt>
      <trkpt lat="51.911431029438972" lon="-9.614362958818674">
        <ele>95.790000000000006</ele>
        <time>2026-06-28T14:52:52Z</time>
      </trkpt>
      <trkpt lat="51.911615012213588" lon="-9.614466978237033">
        <ele>96.269999999999996</ele>
        <time>2026-06-28T14:52:53Z</time>
      </trkpt>
      <trkpt lat="51.911794971674681" lon="-9.614578038454056">
        <ele>97.230000000000004</ele>
        <time>2026-06-28T14:52:54Z</time>
      </trkpt>
      <trkpt lat="51.911976020783186" lon="-9.614690020680428">
        <ele>97.709999999999994</ele>
        <time>2026-06-28T14:52:55Z</time>
      </trkpt>
      <trkpt lat="51.912938011810184" lon="-9.615588979795575">
        <ele>99.150000000000006</ele>
        <time>2026-06-28T14:53:01Z</time>
      </trkpt>
      <trkpt lat="51.913072960451245" lon="-9.615760976448655">
        <ele>99.150000000000006</ele>
        <time>2026-06-28T14:53:02Z</time>
      </trkpt>
      <trkpt lat="51.913185026496649" lon="-9.615970021113753">
        <ele>99.629999999999995</ele>
        <time>2026-06-28T14:53:03Z</time>
      </trkpt>
      <trkpt lat="51.913297008723021" lon="-9.6161799877882">
        <ele>100.11</ele>
        <time>2026-06-28T14:53:04Z</time>
      </trkpt>
      <trkpt lat="51.913399016484618" lon="-9.616401018574834">
        <ele>100.59999999999999</ele>
        <time>2026-06-28T14:53:05Z</time>
      </trkpt>
      <trkpt lat="51.913461964577436" lon="-9.616648033261299">
        <ele>101.08</ele>
        <time>2026-06-28T14:53:06Z</time>
      </trkpt>
      <trkpt lat="51.913526002317667" lon="-9.616897981613874">
        <ele>102.04000000000001</ele>
        <time>2026-06-28T14:53:07Z</time>
      </trkpt>
      <trkpt lat="51.913598002865911" lon="-9.617179026827216">
        <ele>102.04000000000001</ele>
        <time>2026-06-28T14:53:08Z</time>
      </trkpt>
      <trkpt lat="51.913618035614491" lon="-9.617442972958088">
        <ele>103</ele>
        <time>2026-06-28T14:53:09Z</time>
      </trkpt>
      <trkpt lat="51.913641002029181" lon="-9.617740027606487">
        <ele>103.48</ele>
        <time>2026-06-28T14:53:10Z</time>
      </trkpt>
      <trkpt lat="51.91366296261549" lon="-9.618038004264236">
        <ele>104.44</ele>
        <time>2026-06-28T14:53:11Z</time>
      </trkpt>
      <trkpt lat="51.913685007020831" lon="-9.618321983143687">
        <ele>104.92</ele>
        <time>2026-06-28T14:53:12Z</time>
      </trkpt>
      <trkpt lat="51.913745021447539" lon="-9.618590036407113">
        <ele>105.40000000000001</ele>
        <time>2026-06-28T14:53:13Z</time>
      </trkpt>
      <trkpt lat="51.913834037259221" lon="-9.618821041658521">
        <ele>105.88</ele>
        <time>2026-06-28T14:53:14Z</time>
      </trkpt>
      <trkpt lat="51.913949036970735" lon="-9.619018016383052">
        <ele>106.84</ele>
        <time>2026-06-28T14:53:15Z</time>
      </trkpt>
      <trkpt lat="51.914082979783416" lon="-9.619191018864512">
        <ele>107.81</ele>
        <time>2026-06-28T14:53:16Z</time>
      </trkpt>
      <trkpt lat="51.914217006415129" lon="-9.619362009689212">
        <ele>108.29000000000001</ele>
        <time>2026-06-28T14:53:17Z</time>
      </trkpt>
      <trkpt lat="51.914368970319629" lon="-9.619494024664164">
        <ele>109.25</ele>
        <time>2026-06-28T14:53:18Z</time>
      </trkpt>
      <trkpt lat="51.91452101804316" lon="-9.619625033810735">
        <ele>110.20999999999999</ele>
        <time>2026-06-28T14:53:19Z</time>
      </trkpt>
      <trkpt lat="51.914689997211099" lon="-9.619724024087191">
        <ele>110.69</ele>
        <time>2026-06-28T14:53:20Z</time>
      </trkpt>
      <trkpt lat="51.914861993864179" lon="-9.619826031848788">
        <ele>111.65000000000001</ele>
        <time>2026-06-28T14:53:21Z</time>
      </trkpt>
      <trkpt lat="51.915201963856816" lon="-9.620026024058461">
        <ele>113.56999999999999</ele>
        <time>2026-06-28T14:53:23Z</time>
      </trkpt>
      <trkpt lat="51.915663974359632" lon="-9.620423996821046">
        <ele>116.94</ele>
        <time>2026-06-28T14:53:26Z</time>
      </trkpt>
      <trkpt lat="51.915805041790009" lon="-9.620588030666113">
        <ele>118.86</ele>
        <time>2026-06-28T14:53:27Z</time>
      </trkpt>
      <trkpt lat="51.915907971560955" lon="-9.620807971805334">
        <ele>119.81999999999999</ele>
        <time>2026-06-28T14:53:28Z</time>
      </trkpt>
      <trkpt lat="51.916012996807694" lon="-9.621035037562251">
        <ele>120.78</ele>
        <time>2026-06-28T14:53:29Z</time>
      </trkpt>
      <trkpt lat="51.916117016226053" lon="-9.621260007843375">
        <ele>121.73999999999999</ele>
        <time>2026-06-28T14:53:30Z</time>
      </trkpt>
      <trkpt lat="51.916222963482141" lon="-9.621464023366571">
        <ele>122.70999999999999</ele>
        <time>2026-06-28T14:53:31Z</time>
      </trkpt>
      <trkpt lat="51.9163460098207" lon="-9.621628979220986">
        <ele>123.67</ele>
        <time>2026-06-28T14:53:32Z</time>
      </trkpt>
      <trkpt lat="51.916484981775284" lon="-9.62176501750946">
        <ele>124.63</ele>
        <time>2026-06-28T14:53:33Z</time>
      </trkpt>
      <trkpt lat="51.916635017842054" lon="-9.621888985857368">
        <ele>125.59</ele>
        <time>2026-06-28T14:53:34Z</time>
      </trkpt>
      <trkpt lat="51.916788993403316" lon="-9.622015971690416">
        <ele>126.55</ele>
        <time>2026-06-28T14:53:35Z</time>
      </trkpt>
      <trkpt lat="51.916950009763241" lon="-9.622125020250678">
        <ele>127.51000000000001</ele>
        <time>2026-06-28T14:53:36Z</time>
      </trkpt>
      <trkpt lat="51.917122006416321" lon="-9.622208001092076">
        <ele>127.98999999999999</ele>
        <time>2026-06-28T14:53:37Z</time>
      </trkpt>
      <trkpt lat="51.917294003069401" lon="-9.622290981933475">
        <ele>128.47</ele>
        <time>2026-06-28T14:53:38Z</time>
      </trkpt>
      <trkpt lat="51.917602960020304" lon="-9.622491979971528">
        <ele>129.43000000000001</ele>
        <time>2026-06-28T14:53:40Z</time>
      </trkpt>
      <trkpt lat="51.917736986652017" lon="-9.62264402769506">
        <ele>130.40000000000001</ele>
        <time>2026-06-28T14:53:41Z</time>
      </trkpt>
      <trkpt lat="51.917863972485065" lon="-9.622829016298056">
        <ele>130.88</ele>
        <time>2026-06-28T14:53:42Z</time>
      </trkpt>
      <trkpt lat="51.918395971879363" lon="-9.623604007065296">
        <ele>134.24000000000001</ele>
        <time>2026-06-28T14:53:46Z</time>
      </trkpt>
      <trkpt lat="51.918562017381191" lon="-9.623724035918713">
        <ele>135.19999999999999</ele>
        <time>2026-06-28T14:53:47Z</time>
      </trkpt>
      <trkpt lat="51.918726973235607" lon="-9.623837023973465">
        <ele>135.68000000000001</ele>
        <time>2026-06-28T14:53:48Z</time>
      </trkpt>
      <trkpt lat="51.919221002608538" lon="-9.62421203032136">
        <ele>137.61000000000001</ele>
        <time>2026-06-28T14:53:51Z</time>
      </trkpt>
      <trkpt lat="51.919381013140082" lon="-9.62436399422586">
        <ele>138.56999999999999</ele>
        <time>2026-06-28T14:53:52Z</time>
      </trkpt>
      <trkpt lat="51.919542029500008" lon="-9.62451696395874">
        <ele>139.05000000000001</ele>
        <time>2026-06-28T14:53:53Z</time>
      </trkpt>
      <trkpt lat="51.919682007282972" lon="-9.624719973653555">
        <ele>140.00999999999999</ele>
        <time>2026-06-28T14:53:54Z</time>
      </trkpt>
      <trkpt lat="51.919818967580795" lon="-9.624918960034847">
        <ele>140.97</ele>
        <time>2026-06-28T14:53:55Z</time>
      </trkpt>
      <trkpt lat="51.919958023354411" lon="-9.625120963901281">
        <ele>141.44999999999999</ele>
        <time>2026-06-28T14:53:56Z</time>
      </trkpt>
      <trkpt lat="51.920050978660583" lon="-9.625378958880901">
        <ele>142.41</ele>
        <time>2026-06-28T14:53:57Z</time>
      </trkpt>
      <trkpt lat="51.920138988643885" lon="-9.625643994659185">
        <ele>143.37</ele>
        <time>2026-06-28T14:53:58Z</time>
      </trkpt>
      <trkpt lat="51.92148202098906" lon="-9.629002036526799">
        <ele>148.18000000000001</ele>
        <time>2026-06-28T14:54:11Z</time>
      </trkpt>
      <trkpt lat="51.922075040638447" lon="-9.630152033641934">
        <ele>150.58000000000001</ele>
        <time>2026-06-28T14:54:16Z</time>
      </trkpt>
      <trkpt lat="51.922209989279509" lon="-9.630252029746771">
        <ele>151.53999999999999</ele>
        <time>2026-06-28T14:54:17Z</time>
      </trkpt>
      <trkpt lat="51.922356002032757" lon="-9.630340961739421">
        <ele>152.03</ele>
        <time>2026-06-28T14:54:18Z</time>
      </trkpt>
      <trkpt lat="51.922506960108876" lon="-9.630432995036244">
        <ele>152.99000000000001</ele>
        <time>2026-06-28T14:54:19Z</time>
      </trkpt>
      <trkpt lat="51.922655990347266" lon="-9.630524022504687">
        <ele>153.94999999999999</ele>
        <time>2026-06-28T14:54:20Z</time>
      </trkpt>
      <trkpt lat="51.922803008928895" lon="-9.630613960325718">
        <ele>154.91</ele>
        <time>2026-06-28T14:54:21Z</time>
      </trkpt>
      <trkpt lat="51.922932006418705" lon="-9.630740024149418">
        <ele>156.34999999999999</ele>
        <time>2026-06-28T14:54:22Z</time>
      </trkpt>
      <trkpt lat="51.923040971159935" lon="-9.630888970568776">
        <ele>157.31</ele>
        <time>2026-06-28T14:54:23Z</time>
      </trkpt>
      <trkpt lat="51.923144990578294" lon="-9.631030960008502">
        <ele>157.78999999999999</ele>
        <time>2026-06-28T14:54:24Z</time>
      </trkpt>
      <trkpt lat="51.923353029415011" lon="-9.631312005221844">
        <ele>159.24000000000001</ele>
        <time>2026-06-28T14:54:26Z</time>
      </trkpt>
      <trkpt lat="51.923455037176609" lon="-9.631450977176428">
        <ele>160.19999999999999</ele>
        <time>2026-06-28T14:54:27Z</time>
      </trkpt>
      <trkpt lat="51.92358797416091" lon="-9.631532030180097">
        <ele>161.16</ele>
        <time>2026-06-28T14:54:28Z</time>
      </trkpt>
      <trkpt lat="51.923732981085777" lon="-9.631607970222831">
        <ele>162.12</ele>
        <time>2026-06-28T14:54:29Z</time>
      </trkpt>
      <trkpt lat="51.92388603463769" lon="-9.631688017398119">
        <ele>162.59999999999999</ele>
        <time>2026-06-28T14:54:30Z</time>
      </trkpt>
      <trkpt lat="51.924495985731483" lon="-9.632089007645845">
        <ele>165.47999999999999</ele>
        <time>2026-06-28T14:54:34Z</time>
      </trkpt>
      <trkpt lat="51.924630012363195" lon="-9.632223034277558">
        <ele>165.96000000000001</ele>
        <time>2026-06-28T14:54:35Z</time>
      </trkpt>
      <trkpt lat="51.924735959619284" lon="-9.632407017052174">
        <ele>166.44999999999999</ele>
        <time>2026-06-28T14:54:36Z</time>
      </trkpt>
      <trkpt lat="51.92483302205801" lon="-9.632618995383382">
        <ele>166.93000000000001</ele>
        <time>2026-06-28T14:54:37Z</time>
      </trkpt>
      <trkpt lat="51.924933018162847" lon="-9.632837008684874">
        <ele>167.41</ele>
        <time>2026-06-28T14:54:38Z</time>
      </trkpt>
      <trkpt lat="51.925033014267683" lon="-9.633063990622759">
        <ele>167.88999999999999</ele>
        <time>2026-06-28T14:54:39Z</time>
      </trkpt>
      <trkpt lat="51.926078991964459" lon="-9.63572901673615">
        <ele>172.21000000000001</ele>
        <time>2026-06-28T14:54:50Z</time>
      </trkpt>
      <trkpt lat="51.926194997504354" lon="-9.635933032259345">
        <ele>172.69</ele>
        <time>2026-06-28T14:54:51Z</time>
      </trkpt>
      <trkpt lat="51.926410999149084" lon="-9.636316001415253">
        <ele>173.66</ele>
        <time>2026-06-28T14:54:53Z</time>
      </trkpt>
      <trkpt lat="51.926490962505341" lon="-9.63650400750339">
        <ele>173.66</ele>
        <time>2026-06-28T14:54:54Z</time>
      </trkpt>
      <trkpt lat="51.926534967496991" lon="-9.63669603690505">
        <ele>174.13999999999999</ele>
        <time>2026-06-28T14:54:55Z</time>
      </trkpt>
      <trkpt lat="51.926503032445908" lon="-9.636897034943104">
        <ele>174.13999999999999</ele>
        <time>2026-06-28T14:54:56Z</time>
      </trkpt>
      <trkpt lat="51.92646699026227" lon="-9.637101972475648">
        <ele>174.62</ele>
        <time>2026-06-28T14:54:57Z</time>
      </trkpt>
      <trkpt lat="51.926428014412522" lon="-9.637324009090662">
        <ele>174.62</ele>
        <time>2026-06-28T14:54:58Z</time>
      </trkpt>
      <trkpt lat="51.926395995542407" lon="-9.637561971321702">
        <ele>175.09999999999999</ele>
        <time>2026-06-28T14:54:59Z</time>
      </trkpt>
      <trkpt lat="51.926370011642575" lon="-9.637816026806831">
        <ele>175.09999999999999</ele>
        <time>2026-06-28T14:55:00Z</time>
      </trkpt>
      <trkpt lat="51.926387026906013" lon="-9.638083996251226">
        <ele>175.09999999999999</ele>
        <time>2026-06-28T14:55:01Z</time>
      </trkpt>
      <trkpt lat="51.926413010805845" lon="-9.638362023979425">
        <ele>175.09999999999999</ele>
        <time>2026-06-28T14:55:02Z</time>
      </trkpt>
      <trkpt lat="51.926441006362438" lon="-9.6386500261724">
        <ele>175.58000000000001</ele>
        <time>2026-06-28T14:55:03Z</time>
      </trkpt>
      <trkpt lat="51.926469001919031" lon="-9.638937022536993">
        <ele>176.06</ele>
        <time>2026-06-28T14:55:04Z</time>
      </trkpt>
      <trkpt lat="51.926541002467275" lon="-9.63920901529491">
        <ele>177.02000000000001</ele>
        <time>2026-06-28T14:55:05Z</time>
      </trkpt>
      <trkpt lat="51.926623983308673" lon="-9.639486959204078">
        <ele>177.97999999999999</ele>
        <time>2026-06-28T14:55:06Z</time>
      </trkpt>
      <trkpt lat="51.926707969978452" lon="-9.639770016074181">
        <ele>178.46000000000001</ele>
        <time>2026-06-28T14:55:07Z</time>
      </trkpt>
      <trkpt lat="51.92730501294136" lon="-9.641615962609649">
        <ele>181.83000000000001</ele>
        <time>2026-06-28T14:55:14Z</time>
      </trkpt>
      <trkpt lat="51.92741397768259" lon="-9.641839005053043">
        <ele>182.78999999999999</ele>
        <time>2026-06-28T14:55:15Z</time>
      </trkpt>
      <trkpt lat="51.927684964612126" lon="-9.642466977238655">
        <ele>184.71000000000001</ele>
        <time>2026-06-28T14:55:18Z</time>
      </trkpt>
      <trkpt lat="51.927739027887583" lon="-9.642649032175541">
        <ele>186.15000000000001</ele>
        <time>2026-06-28T14:55:19Z</time>
      </trkpt>
      <trkpt lat="51.927717989310622" lon="-9.642852963879705">
        <ele>187.11000000000001</ele>
        <time>2026-06-28T14:55:20Z</time>
      </trkpt>
      <trkpt lat="51.927697034552693" lon="-9.643052034080029">
        <ele>187.59</ele>
        <time>2026-06-28T14:55:21Z</time>
      </trkpt>
      <trkpt lat="51.927673984318972" lon="-9.643273986876011">
        <ele>189.03999999999999</ele>
        <time>2026-06-28T14:55:22Z</time>
      </trkpt>
      <trkpt lat="51.927515985444188" lon="-9.644590029492974">
        <ele>193.36000000000001</ele>
        <time>2026-06-28T14:55:27Z</time>
      </trkpt>
      <trkpt lat="51.927439039573073" lon="-9.64484098367393">
        <ele>193.84</ele>
        <time>2026-06-28T14:55:28Z</time>
      </trkpt>
      <trkpt lat="51.927361004054546" lon="-9.645095961168408">
        <ele>194.80000000000001</ele>
        <time>2026-06-28T14:55:29Z</time>
      </trkpt>
      <trkpt lat="51.927153971046209" lon="-9.645767016336322">
        <ele>197.21000000000001</ele>
        <time>2026-06-28T14:55:32Z</time>
      </trkpt>
      <trkpt lat="51.927117006853223" lon="-9.645975977182388">
        <ele>197.69</ele>
        <time>2026-06-28T14:55:33Z</time>
      </trkpt>
      <trkpt lat="51.927117006853223" lon="-9.6461929846555">
        <ele>198.16999999999999</ele>
        <time>2026-06-28T14:55:34Z</time>
      </trkpt>
      <trkpt lat="51.9271320104599" lon="-9.646407980471849">
        <ele>198.65000000000001</ele>
        <time>2026-06-28T14:55:35Z</time>
      </trkpt>
      <trkpt lat="51.927198981866241" lon="-9.646608978509903">
        <ele>199.13</ele>
        <time>2026-06-28T14:55:36Z</time>
      </trkpt>
      <trkpt lat="51.927300989627838" lon="-9.646766977384687">
        <ele>200.09</ele>
        <time>2026-06-28T14:55:37Z</time>
      </trkpt>
      <trkpt lat="51.927425041794777" lon="-9.646854987367988">
        <ele>201.05000000000001</ele>
        <time>2026-06-28T14:55:38Z</time>
      </trkpt>
      <trkpt lat="51.927569964900613" lon="-9.646922964602709">
        <ele>202.00999999999999</ele>
        <time>2026-06-28T14:55:39Z</time>
      </trkpt>
      <trkpt lat="51.927722012624145" lon="-9.646965963765979">
        <ele>202.97999999999999</ele>
        <time>2026-06-28T14:55:40Z</time>
      </trkpt>
      <trkpt lat="51.927887974306941" lon="-9.646975016221404">
        <ele>203.94</ele>
        <time>2026-06-28T14:55:41Z</time>
      </trkpt>
      <trkpt lat="51.928054019808769" lon="-9.646962024271488">
        <ele>204.90000000000001</ele>
        <time>2026-06-28T14:55:42Z</time>
      </trkpt>
      <trkpt lat="51.928216964006424" lon="-9.646864039823413">
        <ele>205.86000000000001</ele>
        <time>2026-06-28T14:55:43Z</time>
      </trkpt>
      <trkpt lat="51.928388038650155" lon="-9.646761026233435">
        <ele>206.34</ele>
        <time>2026-06-28T14:55:44Z</time>
      </trkpt>
      <trkpt lat="51.928564980626106" lon="-9.646654995158315">
        <ele>206.81999999999999</ele>
        <time>2026-06-28T14:55:45Z</time>
      </trkpt>
      <trkpt lat="51.929780021309853" lon="-9.64610698632896">
        <ele>214.03</ele>
        <time>2026-06-28T14:55:52Z</time>
      </trkpt>
      <trkpt lat="51.92992796190083" lon="-9.646096006035805">
        <ele>214.99000000000001</ele>
        <time>2026-06-28T14:55:53Z</time>
      </trkpt>
      <trkpt lat="51.930085038766265" lon="-9.646119978278875">
        <ele>215.94999999999999</ele>
        <time>2026-06-28T14:55:54Z</time>
      </trkpt>
      <trkpt lat="51.9302489887923" lon="-9.646145962178707">
        <ele>216.91</ele>
        <time>2026-06-28T14:55:55Z</time>
      </trkpt>
      <trkpt lat="51.930401958525181" lon="-9.646247969940305">
        <ele>217.88</ele>
        <time>2026-06-28T14:55:56Z</time>
      </trkpt>
      <trkpt lat="51.930560963228345" lon="-9.646354001015425">
        <ele>218.36000000000001</ele>
        <time>2026-06-28T14:55:57Z</time>
      </trkpt>
      <trkpt lat="51.931095980107784" lon="-9.646750967949629">
        <ele>222.19999999999999</ele>
        <time>2026-06-28T14:56:01Z</time>
      </trkpt>
      <trkpt lat="51.931162029504776" lon="-9.646899998188019">
        <ele>222.68000000000001</ele>
        <time>2026-06-28T14:56:02Z</time>
      </trkpt>
      <trkpt lat="51.931190025061369" lon="-9.647093033418059">
        <ele>223.16</ele>
        <time>2026-06-28T14:56:03Z</time>
      </trkpt>
      <trkpt lat="51.931181978434324" lon="-9.647315992042422">
        <ele>223.63999999999999</ele>
        <time>2026-06-28T14:56:04Z</time>
      </trkpt>
      <trkpt lat="51.93117200396955" lon="-9.647565018385649">
        <ele>224.12</ele>
        <time>2026-06-28T14:56:05Z</time>
      </trkpt>
      <trkpt lat="51.931174015626311" lon="-9.648269014433026">
        <ele>225.09</ele>
        <time>2026-06-28T14:56:08Z</time>
      </trkpt>
      <trkpt lat="51.931204022839665" lon="-9.648460960015655">
        <ele>225.56999999999999</ele>
        <time>2026-06-28T14:56:09Z</time>
      </trkpt>
      <trkpt lat="51.931275017559528" lon="-9.648633962497115">
        <ele>225.56999999999999</ele>
        <time>2026-06-28T14:56:10Z</time>
      </trkpt>
      <trkpt lat="51.931378031149507" lon="-9.648816017434001">
        <ele>226.05000000000001</ele>
        <time>2026-06-28T14:56:11Z</time>
      </trkpt>
      <trkpt lat="51.931491019204259" lon="-9.649016009643674">
        <ele>226.53</ele>
        <time>2026-06-28T14:56:12Z</time>
      </trkpt>
      <trkpt lat="51.931727975606918" lon="-9.6494360268116">
        <ele>227.00999999999999</ele>
        <time>2026-06-28T14:56:14Z</time>
      </trkpt>
      <trkpt lat="51.931867031380534" lon="-9.649611040949822">
        <ele>227.49000000000001</ele>
        <time>2026-06-28T14:56:15Z</time>
      </trkpt>
      <trkpt lat="51.932013966143131" lon="-9.649763004854322">
        <ele>228.44999999999999</ele>
        <time>2026-06-28T14:56:16Z</time>
      </trkpt>
      <trkpt lat="51.932574966922402" lon="-9.650345966219902">
        <ele>230.37</ele>
        <time>2026-06-28T14:56:20Z</time>
      </trkpt>
      <trkpt lat="51.93267404101789" lon="-9.650545958429575">
        <ele>230.37</ele>
        <time>2026-06-28T14:56:21Z</time>
      </trkpt>
      <trkpt lat="51.93276297301054" lon="-9.650764977559447">
        <ele>230.37</ele>
        <time>2026-06-28T14:56:22Z</time>
      </trkpt>
      <trkpt lat="51.932830028235912" lon="-9.651012998074293">
        <ele>230.84999999999999</ele>
        <time>2026-06-28T14:56:23Z</time>
      </trkpt>
      <trkpt lat="51.932894987985492" lon="-9.651275016367436">
        <ele>230.84999999999999</ele>
        <time>2026-06-28T14:56:24Z</time>
      </trkpt>
      <trkpt lat="51.933011999353766" lon="-9.652110021561384">
        <ele>231.81</ele>
        <time>2026-06-28T14:56:27Z</time>
      </trkpt>
      <trkpt lat="51.933114007115364" lon="-9.652828015387058">
        <ele>233.25999999999999</ele>
        <time>2026-06-28T14:56:30Z</time>
      </trkpt>
      <trkpt lat="51.933178966864944" lon="-9.652985008433461">
        <ele>233.74000000000001</ele>
        <time>2026-06-28T14:56:31Z</time>
      </trkpt>
      <trkpt lat="51.933275023475289" lon="-9.653122974559665">
        <ele>234.22</ele>
        <time>2026-06-28T14:56:32Z</time>
      </trkpt>
      <trkpt lat="51.933387005701661" lon="-9.6532610245049">
        <ele>235.18000000000001</ele>
        <time>2026-06-28T14:56:33Z</time>
      </trkpt>
      <trkpt lat="51.933531006798148" lon="-9.653323972597718">
        <ele>236.13999999999999</ele>
        <time>2026-06-28T14:56:34Z</time>
      </trkpt>
      <trkpt lat="51.933684982359409" lon="-9.653393039479852">
        <ele>236.62</ele>
        <time>2026-06-28T14:56:35Z</time>
      </trkpt>
      <trkpt lat="51.933849016204476" lon="-9.653440983965993">
        <ele>237.09999999999999</ele>
        <time>2026-06-28T14:56:36Z</time>
      </trkpt>
      <trkpt lat="51.934012966230512" lon="-9.653474008664489">
        <ele>237.58000000000001</ele>
        <time>2026-06-28T14:56:37Z</time>
      </trkpt>
      <trkpt lat="51.934166019782424" lon="-9.653435032814741">
        <ele>238.06</ele>
        <time>2026-06-28T14:56:38Z</time>
      </trkpt>
      <trkpt lat="51.934316977858543" lon="-9.653356997296214">
        <ele>238.53999999999999</ele>
        <time>2026-06-28T14:56:39Z</time>
      </trkpt>
      <trkpt lat="51.93448000587523" lon="-9.653272004798055">
        <ele>239.02000000000001</ele>
        <time>2026-06-28T14:56:40Z</time>
      </trkpt>
      <trkpt lat="51.93465200252831" lon="-9.653182988986373">
        <ele>239.50999999999999</ele>
        <time>2026-06-28T14:56:41Z</time>
      </trkpt>
      <trkpt lat="51.934840008616447" lon="-9.653110988438129">
        <ele>239.99000000000001</ele>
        <time>2026-06-28T14:56:42Z</time>
      </trkpt>
      <trkpt lat="51.936331987380981" lon="-9.652686025947332">
        <ele>245.27000000000001</ele>
        <time>2026-06-28T14:56:50Z</time>
      </trkpt>
      <trkpt lat="51.936496021226048" lon="-9.6527239959687">
        <ele>246.22999999999999</ele>
        <time>2026-06-28T14:56:51Z</time>
      </trkpt>
      <trkpt lat="51.937224995344877" lon="-9.652895992621779">
        <ele>249.59999999999999</ele>
        <time>2026-06-28T14:56:55Z</time>
      </trkpt>
      <trkpt lat="51.937378970906138" lon="-9.652867997065187">
        <ele>250.08000000000001</ele>
        <time>2026-06-28T14:56:56Z</time>
      </trkpt>
      <trkpt lat="51.937646018341184" lon="-9.652818040922284">
        <ele>251.52000000000001</ele>
        <time>2026-06-28T14:56:58Z</time>
      </trkpt>
      <trkpt lat="51.937779039144516" lon="-9.652888029813767">
        <ele>252</ele>
        <time>2026-06-28T14:56:59Z</time>
      </trkpt>
      <trkpt lat="51.937908958643675" lon="-9.653004035353661">
        <ele>252.47999999999999</ele>
        <time>2026-06-28T14:57:00Z</time>
      </trkpt>
      <trkpt lat="51.938019013032317" lon="-9.653183994814754">
        <ele>253.93000000000001</ele>
        <time>2026-06-28T14:57:01Z</time>
      </trkpt>
      <trkpt lat="51.938129989430308" lon="-9.653366971760988">
        <ele>254.41</ele>
        <time>2026-06-28T14:57:02Z</time>
      </trkpt>
      <trkpt lat="51.938222022727132" lon="-9.653551960363984">
        <ele>255.37</ele>
        <time>2026-06-28T14:57:03Z</time>
      </trkpt>
      <trkpt lat="51.938248006626964" lon="-9.653767039999366">
        <ele>255.84999999999999</ele>
        <time>2026-06-28T14:57:04Z</time>
      </trkpt>
      <trkpt lat="51.938238032162189" lon="-9.65399201028049">
        <ele>256.32999999999998</ele>
        <time>2026-06-28T14:57:05Z</time>
      </trkpt>
      <trkpt lat="51.938213976100087" lon="-9.654247993603349">
        <ele>257.29000000000002</ele>
        <time>2026-06-28T14:57:06Z</time>
      </trkpt>
      <trkpt lat="51.938124960288405" lon="-9.654983002692461">
        <ele>258.73000000000002</ele>
        <time>2026-06-28T14:57:09Z</time>
      </trkpt>
      <trkpt lat="51.93809000775218" lon="-9.65517695993185">
        <ele>259.20999999999998</ele>
        <time>2026-06-28T14:57:10Z</time>
      </trkpt>
      <trkpt lat="51.938058994710445" lon="-9.655347028747201">
        <ele>259.69</ele>
        <time>2026-06-28T14:57:11Z</time>
      </trkpt>
      <trkpt lat="51.938030999153852" lon="-9.655501004308462">
        <ele>259.69</ele>
        <time>2026-06-28T14:57:12Z</time>
      </trkpt>
      <trkpt lat="51.93800300359726" lon="-9.655651962384582">
        <ele>259.20999999999998</ele>
        <time>2026-06-28T14:57:13Z</time>
      </trkpt>
      <trkpt lat="51.937976013869047" lon="-9.655803004279733">
        <ele>259.20999999999998</ele>
        <time>2026-06-28T14:57:14Z</time>
      </trkpt>
      <trkpt lat="51.937952963635325" lon="-9.655930995941162">
        <ele>259.20999999999998</ele>
        <time>2026-06-28T14:57:15Z</time>
      </trkpt>
      <trkpt lat="51.937945000827312" lon="-9.656082037836313">
        <ele>259.20999999999998</ele>
        <time>2026-06-28T14:57:16Z</time>
      </trkpt>
      <trkpt lat="51.937924968078732" lon="-9.656456960365176">
        <ele>258.73000000000002</ele>
        <time>2026-06-28T14:57:19Z</time>
      </trkpt>
      <trkpt lat="51.937920022755861" lon="-9.656544970348477">
        <ele>258.73000000000002</ele>
        <time>2026-06-28T14:57:20Z</time>
      </trkpt>
      <trkpt lat="51.937915999442339" lon="-9.656629040837288">
        <ele>259.20999999999998</ele>
        <time>2026-06-28T14:57:21Z</time>
      </trkpt>
      <trkpt lat="51.937909964472055" lon="-9.656746974214912">
        <ele>259.20999999999998</ele>
        <time>2026-06-28T14:57:22Z</time>
      </trkpt>
      <trkpt lat="51.93793997168541" lon="-9.656815035268664">
        <ele>259.69</ele>
        <time>2026-06-28T14:57:23Z</time>
      </trkpt>
      <trkpt lat="51.93798003718257" lon="-9.656906984746456">
        <ele>259.69</ele>
        <time>2026-06-28T14:57:24Z</time>
      </trkpt>
      <trkpt lat="51.93802303634584" lon="-9.657003963366151">
        <ele>260.17000000000002</ele>
        <time>2026-06-28T14:57:25Z</time>
      </trkpt>
      <trkpt lat="51.938064023852348" lon="-9.657095996662974">
        <ele>260.17000000000002</ele>
        <time>2026-06-28T14:57:26Z</time>
      </trkpt>
      <trkpt lat="51.938099982216954" lon="-9.657179983332753">
        <ele>260.17000000000002</ele>
        <time>2026-06-28T14:57:27Z</time>
      </trkpt>
      <trkpt lat="51.938145998865366" lon="-9.657282996922731">
        <ele>260.64999999999998</ele>
        <time>2026-06-28T14:57:28Z</time>
      </trkpt>
      <trkpt lat="51.938340961933136" lon="-9.657510984688997">
        <ele>261.13999999999999</ele>
        <time>2026-06-28T14:57:33Z</time>
      </trkpt>
      <trkpt lat="51.938402988016605" lon="-9.657582985237241">
        <ele>261.13999999999999</ele>
        <time>2026-06-28T14:57:34Z</time>
      </trkpt>
      <trkpt lat="51.938402988016605" lon="-9.657582985237241">
        <ele>261.62</ele>
        <time>2026-06-28T14:57:35Z</time>
      </trkpt>
      <trkpt lat="51.938410028815269" lon="-9.657586002722383">
        <ele>261.13999999999999</ele>
        <time>2026-06-28T14:57:36Z</time>
      </trkpt>
      <trkpt lat="51.938421009108424" lon="-9.657591031864286">
        <ele>261.13999999999999</ele>
        <time>2026-06-28T14:57:37Z</time>
      </trkpt>
      <trkpt lat="51.938421009108424" lon="-9.657591031864286">
        <ele>261.13999999999999</ele>
        <time>2026-06-28T14:57:38Z</time>
      </trkpt>
      <trkpt lat="51.938421009108424" lon="-9.657591031864286">
        <ele>260.17000000000002</ele>
        <time>2026-06-28T14:57:53Z</time>
      </trkpt>
      <trkpt lat="51.938437018543482" lon="-9.657415011897683">
        <ele>263.06</ele>
        <time>2026-06-28T15:03:09Z</time>
      </trkpt>
      <trkpt lat="51.938436012715101" lon="-9.657423980534077">
        <ele>252.96000000000001</ele>
        <time>2026-06-28T15:03:46Z</time>
      </trkpt>
      <trkpt lat="51.93836803548038" lon="-9.657432027161121">
        <ele>256.32999999999998</ele>
        <time>2026-06-28T15:04:08Z</time>
      </trkpt>
      <trkpt lat="51.938360994681716" lon="-9.657448036596179">
        <ele>256.32999999999998</ele>
        <time>2026-06-28T15:04:09Z</time>
      </trkpt>
      <trkpt lat="51.938349008560181" lon="-9.657520037144423">
        <ele>255.84999999999999</ele>
        <time>2026-06-28T15:04:11Z</time>
      </trkpt>
      <trkpt lat="51.938371974974871" lon="-9.657547026872635">
        <ele>255.84999999999999</ele>
        <time>2026-06-28T15:04:12Z</time>
      </trkpt>
      <trkpt lat="51.938402988016605" lon="-9.657582985237241">
        <ele>255.84999999999999</ele>
        <time>2026-06-28T15:04:13Z</time>
      </trkpt>
      <trkpt lat="51.938402988016605" lon="-9.657582985237241">
        <ele>255.37</ele>
        <time>2026-06-28T15:04:14Z</time>
      </trkpt>
      <trkpt lat="51.938502984121442" lon="-9.657625984400511">
        <ele>255.37</ele>
        <time>2026-06-28T15:04:15Z</time>
      </trkpt>
      <trkpt lat="51.938595017418265" lon="-9.657759005203843">
        <ele>255.37</ele>
        <time>2026-06-28T15:04:16Z</time>
      </trkpt>
      <trkpt lat="51.938679004088044" lon="-9.657981041818857">
        <ele>255.37</ele>
        <time>2026-06-28T15:04:18Z</time>
      </trkpt>
      <trkpt lat="51.939163981005549" lon="-9.659264981746674">
        <ele>253.93000000000001</ele>
        <time>2026-06-28T15:04:27Z</time>
      </trkpt>
      <trkpt lat="51.939611993730068" lon="-9.660981008782983">
        <ele>256.81</ele>
        <time>2026-06-28T15:04:35Z</time>
      </trkpt>
      <trkpt lat="51.939696986228228" lon="-9.661845015361905">
        <ele>258.25</ele>
        <time>2026-06-28T15:04:39Z</time>
      </trkpt>
      <trkpt lat="51.939704027026892" lon="-9.662022041156888">
        <ele>258.73000000000002</ele>
        <time>2026-06-28T15:04:40Z</time>
      </trkpt>
      <trkpt lat="51.939647030085325" lon="-9.662151960656047">
        <ele>258.73000000000002</ele>
        <time>2026-06-28T15:04:41Z</time>
      </trkpt>
      <trkpt lat="51.939576035365462" lon="-9.662312977015972">
        <ele>258.73000000000002</ele>
        <time>2026-06-28T15:04:42Z</time>
      </trkpt>
      <trkpt lat="51.939494982361794" lon="-9.662498971447349">
        <ele>258.73000000000002</ele>
        <time>2026-06-28T15:04:43Z</time>
      </trkpt>
      <trkpt lat="51.938997013494372" lon="-9.663912998512387">
        <ele>262.10000000000002</ele>
        <time>2026-06-28T15:04:49Z</time>
      </trkpt>
      <trkpt lat="51.938330987468362" lon="-9.665890038013458">
        <ele>265.94</ele>
        <time>2026-06-28T15:04:57Z</time>
      </trkpt>
      <trkpt lat="51.938239959999919" lon="-9.666357999667525">
        <ele>266.89999999999998</ele>
        <time>2026-06-28T15:04:59Z</time>
      </trkpt>
      <trkpt lat="51.938186986371875" lon="-9.666577018797398">
        <ele>266.89999999999998</ele>
        <time>2026-06-28T15:05:00Z</time>
      </trkpt>
      <trkpt lat="51.938113979995251" lon="-9.666780028492212">
        <ele>266.89999999999998</ele>
        <time>2026-06-28T15:05:01Z</time>
      </trkpt>
      <trkpt lat="51.937900995835662" lon="-9.667384028434753">
        <ele>266.42000000000002</ele>
        <time>2026-06-28T15:05:04Z</time>
      </trkpt>
      <trkpt lat="51.93785497918725" lon="-9.667585026472807">
        <ele>266.42000000000002</ele>
        <time>2026-06-28T15:05:05Z</time>
      </trkpt>
      <trkpt lat="51.93761701695621" lon="-9.668491026386619">
        <ele>267.38</ele>
        <time>2026-06-28T15:05:11Z</time>
      </trkpt>
      <trkpt lat="51.937567982822657" lon="-9.668588005006313">
        <ele>267.38</ele>
        <time>2026-06-28T15:05:12Z</time>
      </trkpt>
      <trkpt lat="51.937511991709471" lon="-9.668699987232685">
        <ele>267.38</ele>
        <time>2026-06-28T15:05:13Z</time>
      </trkpt>
      <trkpt lat="51.937438985332847" lon="-9.668807024136186">
        <ele>267.38</ele>
        <time>2026-06-28T15:05:14Z</time>
      </trkpt>
      <trkpt lat="51.937352987006307" lon="-9.668900985270739">
        <ele>267.38</ele>
        <time>2026-06-28T15:05:15Z</time>
      </trkpt>
      <trkpt lat="51.937259025871754" lon="-9.669002993032336">
        <ele>266.89999999999998</ele>
        <time>2026-06-28T15:05:16Z</time>
      </trkpt>
      <trkpt lat="51.937155006453395" lon="-9.669092008844018">
        <ele>266.89999999999998</ele>
        <time>2026-06-28T15:05:17Z</time>
      </trkpt>
      <trkpt lat="51.937040006741881" lon="-9.669177001342177">
        <ele>266.42000000000002</ele>
        <time>2026-06-28T15:05:18Z</time>
      </trkpt>
      <trkpt lat="51.93692802451551" lon="-9.669259982183576">
        <ele>266.42000000000002</ele>
        <time>2026-06-28T15:05:19Z</time>
      </trkpt>
      <trkpt lat="51.936613032594323" lon="-9.669491993263364">
        <ele>265.45999999999998</ele>
        <time>2026-06-28T15:05:24Z</time>
      </trkpt>
      <trkpt lat="51.936540026217699" lon="-9.669545972719789">
        <ele>264.98000000000002</ele>
        <time>2026-06-28T15:05:30Z</time>
      </trkpt>
      <trkpt lat="51.936540026217699" lon="-9.669545972719789">
        <ele>264.98000000000002</ele>
        <time>2026-06-28T15:05:31Z</time>
      </trkpt>
      <trkpt lat="51.936540026217699" lon="-9.669545972719789">
        <ele>265.45999999999998</ele>
        <time>2026-06-28T15:05:32Z</time>
      </trkpt>
      <trkpt lat="51.936540026217699" lon="-9.669545972719789">
        <ele>265.94</ele>
        <time>2026-06-28T15:05:33Z</time>
      </trkpt>
      <trkpt lat="51.936528962105513" lon="-9.669554019346833">
        <ele>265.94</ele>
        <time>2026-06-28T15:05:34Z</time>
      </trkpt>
      <trkpt lat="51.93654103204608" lon="-9.669544966891408">
        <ele>266.42000000000002</ele>
        <time>2026-06-28T15:05:35Z</time>
      </trkpt>
      <trkpt lat="51.936556035652757" lon="-9.669533986598253">
        <ele>266.42000000000002</ele>
        <time>2026-06-28T15:05:36Z</time>
      </trkpt>
      <trkpt lat="51.936683021485806" lon="-9.6694400254637">
        <ele>265.94</ele>
        <time>2026-06-28T15:05:42Z</time>
      </trkpt>
      <trkpt lat="51.937222983688116" lon="-9.669041968882084">
        <ele>268.35000000000002</ele>
        <time>2026-06-28T15:05:50Z</time>
      </trkpt>
      <trkpt lat="51.937406966462731" lon="-9.668842982500792">
        <ele>269.79000000000002</ele>
        <time>2026-06-28T15:05:56Z</time>
      </trkpt>
      <trkpt lat="51.937480978667736" lon="-9.668905008584261">
        <ele>269.79000000000002</ele>
        <time>2026-06-28T15:05:57Z</time>
      </trkpt>
      <trkpt lat="51.937480978667736" lon="-9.668912971392274">
        <ele>270.26999999999998</ele>
        <time>2026-06-28T15:05:58Z</time>
      </trkpt>
      <trkpt lat="51.937480978667736" lon="-9.668912971392274">
        <ele>270.26999999999998</ele>
        <time>2026-06-28T15:05:59Z</time>
      </trkpt>
      <trkpt lat="51.93744502030313" lon="-9.668997041881084">
        <ele>270.75</ele>
        <time>2026-06-28T15:06:00Z</time>
      </trkpt>
      <trkpt lat="51.93742498755455" lon="-9.669042974710465">
        <ele>270.26999999999998</ele>
        <time>2026-06-28T15:06:01Z</time>
      </trkpt>
      <trkpt lat="51.937382994219661" lon="-9.66909502632916">
        <ele>270.26999999999998</ele>
        <time>2026-06-28T15:06:02Z</time>
      </trkpt>
      <trkpt lat="51.937314011156559" lon="-9.669159986078739">
        <ele>269.79000000000002</ele>
        <time>2026-06-28T15:06:03Z</time>
      </trkpt>
      <trkpt lat="51.936701964586973" lon="-9.669736996293068">
        <ele>263.06</ele>
        <time>2026-06-28T15:06:09Z</time>
      </trkpt>
      <trkpt lat="51.936398958787322" lon="-9.66995601542294">
        <ele>259.20999999999998</ele>
        <time>2026-06-28T15:06:12Z</time>
      </trkpt>
      <trkpt lat="51.936318995431066" lon="-9.670118037611246">
        <ele>257.76999999999998</ele>
        <time>2026-06-28T15:06:13Z</time>
      </trkpt>
      <trkpt lat="51.936244983226061" lon="-9.670287016779184">
        <ele>256.32999999999998</ele>
        <time>2026-06-28T15:06:14Z</time>
      </trkpt>
      <trkpt lat="51.936185974627733" lon="-9.670480974018574">
        <ele>254.88999999999999</ele>
        <time>2026-06-28T15:06:15Z</time>
      </trkpt>
      <trkpt lat="51.936131995171309" lon="-9.670670991763473">
        <ele>253.93000000000001</ele>
        <time>2026-06-28T15:06:16Z</time>
      </trkpt>
      <trkpt lat="51.936107017099857" lon="-9.67085899785161">
        <ele>252.96000000000001</ele>
        <time>2026-06-28T15:06:17Z</time>
      </trkpt>
      <trkpt lat="51.936107017099857" lon="-9.671019008383155">
        <ele>252.96000000000001</ele>
        <time>2026-06-28T15:06:18Z</time>
      </trkpt>
      <trkpt lat="51.936153033748269" lon="-9.671149011701345">
        <ele>252.47999999999999</ele>
        <time>2026-06-28T15:06:19Z</time>
      </trkpt>
      <trkpt lat="51.936210030689836" lon="-9.671285971999168">
        <ele>252</ele>
        <time>2026-06-28T15:06:20Z</time>
      </trkpt>
      <trkpt lat="51.936269961297512" lon="-9.671431984752417">
        <ele>252</ele>
        <time>2026-06-28T15:06:21Z</time>
      </trkpt>
      <trkpt lat="51.936330981552601" lon="-9.671577997505665">
        <ele>251.52000000000001</ele>
        <time>2026-06-28T15:06:22Z</time>
      </trkpt>
      <trkpt lat="51.936374986544251" lon="-9.671729039400816">
        <ele>250.56</ele>
        <time>2026-06-28T15:06:23Z</time>
      </trkpt>
      <trkpt lat="51.936398958787322" lon="-9.671883014962077">
        <ele>250.08000000000001</ele>
        <time>2026-06-28T15:06:24Z</time>
      </trkpt>
      <trkpt lat="51.936422009021044" lon="-9.672031039372087">
        <ele>249.12</ele>
        <time>2026-06-28T15:06:25Z</time>
      </trkpt>
      <trkpt lat="51.936441035941243" lon="-9.672155007719994">
        <ele>248.16</ele>
        <time>2026-06-28T15:06:26Z</time>
      </trkpt>
      <trkpt lat="51.936427960172296" lon="-9.672267995774746">
        <ele>247.68000000000001</ele>
        <time>2026-06-28T15:06:27Z</time>
      </trkpt>
      <trkpt lat="51.936386972665787" lon="-9.672358017414808">
        <ele>246.22999999999999</ele>
        <time>2026-06-28T15:06:28Z</time>
      </trkpt>
      <trkpt lat="51.936342967674136" lon="-9.672453990206122">
        <ele>245.27000000000001</ele>
        <time>2026-06-28T15:06:29Z</time>
      </trkpt>
      <trkpt lat="51.936280019581318" lon="-9.672543006017804">
        <ele>244.78999999999999</ele>
        <time>2026-06-28T15:06:30Z</time>
      </trkpt>
      <trkpt lat="51.936083966866136" lon="-9.67283402569592">
        <ele>241.91</ele>
        <time>2026-06-28T15:06:33Z</time>
      </trkpt>
      <trkpt lat="51.936073992401361" lon="-9.672951037064195">
        <ele>240.94999999999999</ele>
        <time>2026-06-28T15:06:34Z</time>
      </trkpt>
      <trkpt lat="51.93607097491622" lon="-9.673068970441818">
        <ele>240.47</ele>
        <time>2026-06-28T15:06:35Z</time>
      </trkpt>
      <trkpt lat="51.936121014878154" lon="-9.673175001516938">
        <ele>239.99000000000001</ele>
        <time>2026-06-28T15:06:36Z</time>
      </trkpt>
      <trkpt lat="51.936182035133243" lon="-9.673306010663509">
        <ele>239.50999999999999</ele>
        <time>2026-06-28T15:06:37Z</time>
      </trkpt>
      <trkpt lat="51.936248000711203" lon="-9.673448000103235">
        <ele>239.02000000000001</ele>
        <time>2026-06-28T15:06:38Z</time>
      </trkpt>
      <trkpt lat="51.936312038451433" lon="-9.673584960401058">
        <ele>238.06</ele>
        <time>2026-06-28T15:06:39Z</time>
      </trkpt>
      <trkpt lat="51.936365012079477" lon="-9.673698032274842">
        <ele>237.09999999999999</ele>
        <time>2026-06-28T15:06:40Z</time>
      </trkpt>
      <trkpt lat="51.936452016234398" lon="-9.673784030601382">
        <ele>235.66</ele>
        <time>2026-06-28T15:06:41Z</time>
      </trkpt>
      <trkpt lat="51.936551006510854" lon="-9.673816971480846">
        <ele>234.69999999999999</ele>
        <time>2026-06-28T15:06:42Z</time>
      </trkpt>
      <trkpt lat="51.936666006222367" lon="-9.6738660056144">
        <ele>233.74000000000001</ele>
        <time>2026-06-28T15:06:43Z</time>
      </trkpt>
      <trkpt lat="51.936784023419023" lon="-9.673958038911223">
        <ele>232.30000000000001</ele>
        <time>2026-06-28T15:06:44Z</time>
      </trkpt>
      <trkpt lat="51.936906985938549" lon="-9.674055017530918">
        <ele>230.84999999999999</ele>
        <time>2026-06-28T15:06:45Z</time>
      </trkpt>
      <trkpt lat="51.937756994739175" lon="-9.674739986658096">
        <ele>220.75999999999999</ele>
        <time>2026-06-28T15:06:53Z</time>
      </trkpt>
      <trkpt lat="51.937806028872728" lon="-9.674830008298159">
        <ele>219.80000000000001</ele>
        <time>2026-06-28T15:06:54Z</time>
      </trkpt>
      <trkpt lat="51.937857996672392" lon="-9.674957999959588">
        <ele>219.31999999999999</ele>
        <time>2026-06-28T15:06:55Z</time>
      </trkpt>
      <trkpt lat="51.938001997768879" lon="-9.675450017675757">
        <ele>218.84</ele>
        <time>2026-06-28T15:06:58Z</time>
      </trkpt>
      <trkpt lat="51.938060000538826" lon="-9.675608016550541">
        <ele>218.84</ele>
        <time>2026-06-28T15:06:59Z</time>
      </trkpt>
      <trkpt lat="51.938114985823631" lon="-9.675681022927165">
        <ele>218.36000000000001</ele>
        <time>2026-06-28T15:07:00Z</time>
      </trkpt>
      <trkpt lat="51.938200984150171" lon="-9.675718992948532">
        <ele>218.36000000000001</ele>
        <time>2026-06-28T15:07:01Z</time>
      </trkpt>
      <trkpt lat="51.938291005790234" lon="-9.675717987120152">
        <ele>218.36000000000001</ele>
        <time>2026-06-28T15:07:02Z</time>
      </trkpt>
      <trkpt lat="51.938388990238309" lon="-9.675668030977249">
        <ele>217.88</ele>
        <time>2026-06-28T15:07:03Z</time>
      </trkpt>
      <trkpt lat="51.93849703297019" lon="-9.67558697797358">
        <ele>217.88</ele>
        <time>2026-06-28T15:07:04Z</time>
      </trkpt>
      <trkpt lat="51.938593005761504" lon="-9.675450017675757">
        <ele>217.88</ele>
        <time>2026-06-28T15:07:05Z</time>
      </trkpt>
      <trkpt lat="51.938681015744805" lon="-9.675323031842709">
        <ele>217.40000000000001</ele>
        <time>2026-06-28T15:07:06Z</time>
      </trkpt>
      <trkpt lat="51.938756033778191" lon="-9.675213983282447">
        <ele>216.91</ele>
        <time>2026-06-28T15:07:07Z</time>
      </trkpt>
      <trkpt lat="51.93884102627635" lon="-9.675139971077442">
        <ele>216.43000000000001</ele>
        <time>2026-06-28T15:07:08Z</time>
      </trkpt>
      <trkpt lat="51.938919983804226" lon="-9.675151035189629">
        <ele>215.47</ele>
        <time>2026-06-28T15:07:09Z</time>
      </trkpt>
      <trkpt lat="51.938990978524089" lon="-9.675179030746222">
        <ele>214.99000000000001</ele>
        <time>2026-06-28T15:07:10Z</time>
      </trkpt>
      <trkpt lat="51.939064990729094" lon="-9.675234016031027">
        <ele>214.03</ele>
        <time>2026-06-28T15:07:11Z</time>
      </trkpt>
      <trkpt lat="51.939150989055634" lon="-9.675296964123845">
        <ele>214.03</ele>
        <time>2026-06-28T15:07:12Z</time>
      </trkpt>
      <trkpt lat="51.939246961846948" lon="-9.675367958843708">
        <ele>213.55000000000001</ele>
        <time>2026-06-28T15:07:13Z</time>
      </trkpt>
      <trkpt lat="51.939369002357125" lon="-9.67545798048377">
        <ele>213.55000000000001</ele>
        <time>2026-06-28T15:07:14Z</time>
      </trkpt>
      <trkpt lat="51.939479978755116" lon="-9.67545798048377">
        <ele>213.55000000000001</ele>
        <time>2026-06-28T15:07:15Z</time>
      </trkpt>
      <trkpt lat="51.939606964588165" lon="-9.67545798048377">
        <ele>213.55000000000001</ele>
        <time>2026-06-28T15:07:16Z</time>
      </trkpt>
      <trkpt lat="51.939720036461949" lon="-9.67545798048377">
        <ele>213.55000000000001</ele>
        <time>2026-06-28T15:07:17Z</time>
      </trkpt>
      <trkpt lat="51.939808968454599" lon="-9.675484970211983">
        <ele>213.55000000000001</ele>
        <time>2026-06-28T15:07:18Z</time>
      </trkpt>
      <trkpt lat="51.939880969002843" lon="-9.675544984638691">
        <ele>214.03</ele>
        <time>2026-06-28T15:07:19Z</time>
      </trkpt>
      <trkpt lat="51.939934026449919" lon="-9.675626959651709">
        <ele>214.03</ele>
        <time>2026-06-28T15:07:20Z</time>
      </trkpt>
      <trkpt lat="51.939988005906343" lon="-9.675744976848364">
        <ele>214.03</ele>
        <time>2026-06-28T15:07:21Z</time>
      </trkpt>
      <trkpt lat="51.940050031989813" lon="-9.675880009308457">
        <ele>214.03</ele>
        <time>2026-06-28T15:07:22Z</time>
      </trkpt>
      <trkpt lat="51.940106023102999" lon="-9.676002971827984">
        <ele>214.03</ele>
        <time>2026-06-28T15:07:23Z</time>
      </trkpt>
      <trkpt lat="51.940163020044565" lon="-9.67610196210444">
        <ele>213.55000000000001</ele>
        <time>2026-06-28T15:07:24Z</time>
      </trkpt>
      <trkpt lat="51.940224962309003" lon="-9.676162982359529">
        <ele>213.55000000000001</ele>
        <time>2026-06-28T15:07:25Z</time>
      </trkpt>
      <trkpt lat="51.94028296507895" lon="-9.676221990957856">
        <ele>213.55000000000001</ele>
        <time>2026-06-28T15:07:26Z</time>
      </trkpt>
      <trkpt lat="51.9403459969908" lon="-9.676284017041326">
        <ele>212.59</ele>
        <time>2026-06-28T15:07:27Z</time>
      </trkpt>
      <trkpt lat="51.940558981150389" lon="-9.676498007029295">
        <ele>211.15000000000001</ele>
        <time>2026-06-28T15:07:30Z</time>
      </trkpt>
      <trkpt lat="51.940613966435194" lon="-9.676590962335467">
        <ele>210.66999999999999</ele>
        <time>2026-06-28T15:07:31Z</time>
      </trkpt>
      <trkpt lat="51.940656965598464" lon="-9.676705040037632">
        <ele>210.19</ele>
        <time>2026-06-28T15:07:32Z</time>
      </trkpt>
      <trkpt lat="51.940700970590115" lon="-9.676824985072017">
        <ele>209.69999999999999</ele>
        <time>2026-06-28T15:07:33Z</time>
      </trkpt>
      <trkpt lat="51.940747993066907" lon="-9.676950965076685">
        <ele>209.22</ele>
        <time>2026-06-28T15:07:34Z</time>
      </trkpt>
      <trkpt lat="51.940833991393447" lon="-9.677182976156473">
        <ele>207.78</ele>
        <time>2026-06-28T15:07:36Z</time>
      </trkpt>
      <trkpt lat="51.940869027748704" lon="-9.677276015281677">
        <ele>206.81999999999999</ele>
        <time>2026-06-28T15:07:37Z</time>
      </trkpt>
      <trkpt lat="51.940930970013142" lon="-9.677321026101708">
        <ele>206.34</ele>
        <time>2026-06-28T15:07:38Z</time>
      </trkpt>
      <trkpt lat="51.940988972783089" lon="-9.677360001951456">
        <ele>205.38</ele>
        <time>2026-06-28T15:07:39Z</time>
      </trkpt>
      <trkpt lat="51.9410540163517" lon="-9.677354972809553">
        <ele>204.90000000000001</ele>
        <time>2026-06-28T15:07:40Z</time>
      </trkpt>
      <trkpt lat="51.94112098775804" lon="-9.677338963374496">
        <ele>204.41999999999999</ele>
        <time>2026-06-28T15:07:41Z</time>
      </trkpt>
      <trkpt lat="51.941187037155032" lon="-9.67732303775847">
        <ele>203.46000000000001</ele>
        <time>2026-06-28T15:07:42Z</time>
      </trkpt>
      <trkpt lat="51.941303964704275" lon="-9.677295964211226">
        <ele>202.00999999999999</ele>
        <time>2026-06-28T15:07:44Z</time>
      </trkpt>
      <trkpt lat="51.941351993009448" lon="-9.67728397808969">
        <ele>201.53</ele>
        <time>2026-06-28T15:07:45Z</time>
      </trkpt>
      <trkpt lat="51.941403960809112" lon="-9.677334018051624">
        <ele>201.05000000000001</ele>
        <time>2026-06-28T15:07:46Z</time>
      </trkpt>
      <trkpt lat="51.941433968022466" lon="-9.677393026649952">
        <ele>200.56999999999999</ele>
        <time>2026-06-28T15:07:47Z</time>
      </trkpt>
      <trkpt lat="51.941449977457523" lon="-9.677465027198196">
        <ele>200.56999999999999</ele>
        <time>2026-06-28T15:07:48Z</time>
      </trkpt>
      <trkpt lat="51.941472021862864" lon="-9.677559994161129">
        <ele>199.61000000000001</ele>
        <time>2026-06-28T15:07:50Z</time>
      </trkpt>
      <trkpt lat="51.941467998549342" lon="-9.67764699831605">
        <ele>199.13</ele>
        <time>2026-06-28T15:07:51Z</time>
      </trkpt>
      <trkpt lat="51.94146397523582" lon="-9.677739031612873">
        <ele>199.13</ele>
        <time>2026-06-28T15:07:52Z</time>
      </trkpt>
      <trkpt lat="51.941459029912949" lon="-9.677852019667625">
        <ele>198.65000000000001</ele>
        <time>2026-06-28T15:07:53Z</time>
      </trkpt>
      <trkpt lat="51.941452994942665" lon="-9.677975988015533">
        <ele>198.16999999999999</ele>
        <time>2026-06-28T15:07:54Z</time>
      </trkpt>
      <trkpt lat="51.941446959972382" lon="-9.678115965798497">
        <ele>197.21000000000001</ele>
        <time>2026-06-28T15:07:55Z</time>
      </trkpt>
      <trkpt lat="51.941433968022466" lon="-9.678418971598148">
        <ele>194.80000000000001</ele>
        <time>2026-06-28T15:07:57Z</time>
      </trkpt>
      <trkpt lat="51.941446037963033" lon="-9.678560961037874">
        <ele>193.84</ele>
        <time>2026-06-28T15:07:58Z</time>
      </trkpt>
      <trkpt lat="51.941472021862864" lon="-9.678612006828189">
        <ele>192.40000000000001</ele>
        <time>2026-06-28T15:07:59Z</time>
      </trkpt>
      <trkpt lat="51.941562965512276" lon="-9.678689036518335">
        <ele>190.96000000000001</ele>
        <time>2026-06-28T15:08:00Z</time>
      </trkpt>
      <trkpt lat="51.941627003252506" lon="-9.67874301597476">
        <ele>190</ele>
        <time>2026-06-28T15:08:01Z</time>
      </trkpt>
      <trkpt lat="51.941689029335976" lon="-9.678795989602804">
        <ele>188.56</ele>
        <time>2026-06-28T15:08:02Z</time>
      </trkpt>
      <trkpt lat="51.941751977428794" lon="-9.67885198071599">
        <ele>188.08000000000001</ele>
        <time>2026-06-28T15:08:03Z</time>
      </trkpt>
      <trkpt lat="51.941794976592064" lon="-9.678961029276252">
        <ele>187.11000000000001</ele>
        <time>2026-06-28T15:08:04Z</time>
      </trkpt>
      <trkpt lat="51.94184803403914" lon="-9.679101007059217">
        <ele>185.66999999999999</ele>
        <time>2026-06-28T15:08:05Z</time>
      </trkpt>
      <trkpt lat="51.941910982131958" lon="-9.679262023419142">
        <ele>184.71000000000001</ele>
        <time>2026-06-28T15:08:06Z</time>
      </trkpt>
      <trkpt lat="51.941976025700569" lon="-9.679429996758699">
        <ele>183.75</ele>
        <time>2026-06-28T15:08:07Z</time>
      </trkpt>
      <trkpt lat="51.942062024027109" lon="-9.679573997855187">
        <ele>182.78999999999999</ele>
        <time>2026-06-28T15:08:08Z</time>
      </trkpt>
      <trkpt lat="51.94219303317368" lon="-9.679787987843156">
        <ele>181.34999999999999</ele>
        <time>2026-06-28T15:08:10Z</time>
      </trkpt>
      <trkpt lat="51.942227985709906" lon="-9.679895024746656">
        <ele>180.87</ele>
        <time>2026-06-28T15:08:11Z</time>
      </trkpt>
      <trkpt lat="51.942268973216414" lon="-9.680017987266183">
        <ele>179.90000000000001</ele>
        <time>2026-06-28T15:08:12Z</time>
      </trkpt>
      <trkpt lat="51.942309038713574" lon="-9.680134998634458">
        <ele>178.94</ele>
        <time>2026-06-28T15:08:13Z</time>
      </trkpt>
      <trkpt lat="51.942381039261818" lon="-9.680263996124268">
        <ele>178.46000000000001</ele>
        <time>2026-06-28T15:08:14Z</time>
      </trkpt>
      <trkpt lat="51.942443987354636" lon="-9.680374972522259">
        <ele>177.97999999999999</ele>
        <time>2026-06-28T15:08:15Z</time>
      </trkpt>
      <trkpt lat="51.942506013438106" lon="-9.680484021082521">
        <ele>177.02000000000001</ele>
        <time>2026-06-28T15:08:16Z</time>
      </trkpt>
      <trkpt lat="51.942564016208053" lon="-9.680587034672499">
        <ele>176.06</ele>
        <time>2026-06-28T15:08:17Z</time>
      </trkpt>
      <trkpt lat="51.942608021199703" lon="-9.680699016898871">
        <ele>175.09999999999999</ele>
        <time>2026-06-28T15:08:18Z</time>
      </trkpt>
      <trkpt lat="51.942646997049451" lon="-9.680835977196693">
        <ele>174.13999999999999</ele>
        <time>2026-06-28T15:08:19Z</time>
      </trkpt>
      <trkpt lat="51.942737018689513" lon="-9.681147029623389">
        <ele>173.16999999999999</ele>
        <time>2026-06-28T15:08:21Z</time>
      </trkpt>
      <trkpt lat="51.942783035337925" lon="-9.681309973821044">
        <ele>172.21000000000001</ele>
        <time>2026-06-28T15:08:22Z</time>
      </trkpt>
      <trkpt lat="51.942870961502194" lon="-9.681613985449076">
        <ele>170.77000000000001</ele>
        <time>2026-06-28T15:08:24Z</time>
      </trkpt>
      <trkpt lat="51.943063996732235" lon="-9.682285040616989">
        <ele>166.93000000000001</ele>
        <time>2026-06-28T15:08:28Z</time>
      </trkpt>
      <trkpt lat="51.943126022815704" lon="-9.682380007579923">
        <ele>166.44999999999999</ele>
        <time>2026-06-28T15:08:29Z</time>
      </trkpt>
      <trkpt lat="51.943200035020709" lon="-9.682437004521489">
        <ele>165.47999999999999</ele>
        <time>2026-06-28T15:08:30Z</time>
      </trkpt>
      <trkpt lat="51.943270023912191" lon="-9.682490983977914">
        <ele>164.52000000000001</ele>
        <time>2026-06-28T15:08:31Z</time>
      </trkpt>
      <trkpt lat="51.94333397783339" lon="-9.682540018111467">
        <ele>164.03999999999999</ele>
        <time>2026-06-28T15:08:32Z</time>
      </trkpt>
      <trkpt lat="51.943391980603337" lon="-9.68263297341764">
        <ele>163.56</ele>
        <time>2026-06-28T15:08:33Z</time>
      </trkpt>
      <trkpt lat="51.943434979766607" lon="-9.682729030027986">
        <ele>162.59999999999999</ele>
        <time>2026-06-28T15:08:34Z</time>
      </trkpt>
      <trkpt lat="51.94346196949482" lon="-9.682846963405609">
        <ele>162.12</ele>
        <time>2026-06-28T15:08:35Z</time>
      </trkpt>
      <trkpt lat="51.943485019728541" lon="-9.682978978380561">
        <ele>161.63999999999999</ele>
        <time>2026-06-28T15:08:36Z</time>
      </trkpt>
      <trkpt lat="51.943511003628373" lon="-9.68312700279057">
        <ele>161.16</ele>
        <time>2026-06-28T15:08:37Z</time>
      </trkpt>
      <trkpt lat="51.943565988913178" lon="-9.68344802968204">
        <ele>160.19999999999999</ele>
        <time>2026-06-28T15:08:39Z</time>
      </trkpt>
      <trkpt lat="51.943638995289803" lon="-9.683924959972501">
        <ele>158.75</ele>
        <time>2026-06-28T15:08:42Z</time>
      </trkpt>
      <trkpt lat="51.943638995289803" lon="-9.684074996039271">
        <ele>158.27000000000001</ele>
        <time>2026-06-28T15:08:43Z</time>
      </trkpt>
      <trkpt lat="51.943629020825028" lon="-9.684224026277661">
        <ele>157.31</ele>
        <time>2026-06-28T15:08:44Z</time>
      </trkpt>
      <trkpt lat="51.943575041368604" lon="-9.684691987931728">
        <ele>155.87</ele>
        <time>2026-06-28T15:08:47Z</time>
      </trkpt>
      <trkpt lat="51.943575041368604" lon="-9.684851998463273">
        <ele>155.38999999999999</ele>
        <time>2026-06-28T15:08:48Z</time>
      </trkpt>
      <trkpt lat="51.943593984469771" lon="-9.685001028701663">
        <ele>154.43000000000001</ele>
        <time>2026-06-28T15:08:49Z</time>
      </trkpt>
      <trkpt lat="51.943709990009665" lon="-9.685591030865908">
        <ele>152.03</ele>
        <time>2026-06-28T15:08:53Z</time>
      </trkpt>
      <trkpt lat="51.943735973909497" lon="-9.68572698533535">
        <ele>151.06</ele>
        <time>2026-06-28T15:08:54Z</time>
      </trkpt>
      <trkpt lat="51.943776039406657" lon="-9.685859000310302">
        <ele>150.09999999999999</ele>
        <time>2026-06-28T15:08:55Z</time>
      </trkpt>
      <trkpt lat="51.943829013034701" lon="-9.685997972264886">
        <ele>149.62</ele>
        <time>2026-06-28T15:08:56Z</time>
      </trkpt>
      <trkpt lat="51.943885004147887" lon="-9.686145996674895">
        <ele>148.66</ele>
        <time>2026-06-28T15:08:57Z</time>
      </trkpt>
      <trkpt lat="51.943996986374259" lon="-9.686441961675882">
        <ele>147.69999999999999</ele>
        <time>2026-06-28T15:08:59Z</time>
      </trkpt>
      <trkpt lat="51.944221034646034" lon="-9.687648033723235">
        <ele>142.41</ele>
        <time>2026-06-28T15:09:07Z</time>
      </trkpt>
      <trkpt lat="51.944262022152543" lon="-9.687763033434749">
        <ele>141.93000000000001</ele>
        <time>2026-06-28T15:09:08Z</time>
      </trkpt>
      <trkpt lat="51.94429898634553" lon="-9.687866969034076">
        <ele>141.44999999999999</ele>
        <time>2026-06-28T15:09:09Z</time>
      </trkpt>
      <trkpt lat="51.944351959973574" lon="-9.687881972640753">
        <ele>140.49000000000001</ele>
        <time>2026-06-28T15:09:10Z</time>
      </trkpt>
      <trkpt lat="51.944396970793605" lon="-9.687881972640753">
        <ele>139.53</ele>
        <time>2026-06-28T15:09:11Z</time>
      </trkpt>
      <trkpt lat="51.944432007148862" lon="-9.687881972640753">
        <ele>139.05000000000001</ele>
        <time>2026-06-28T15:09:12Z</time>
      </trkpt>
      <trkpt lat="51.944500990211964" lon="-9.68787501566112">
        <ele>136.63999999999999</ele>
        <time>2026-06-28T15:09:15Z</time>
      </trkpt>
      <trkpt lat="51.944624958559871" lon="-9.687637975439429">
        <ele>133.75999999999999</ele>
        <time>2026-06-28T15:09:19Z</time>
      </trkpt>
      <trkpt lat="51.944667035713792" lon="-9.687558012083173">
        <ele>132.80000000000001</ele>
        <time>2026-06-28T15:09:20Z</time>
      </trkpt>
      <trkpt lat="51.944929976016283" lon="-9.686877988278866">
        <ele>128.94999999999999</ele>
        <time>2026-06-28T15:09:26Z</time>
      </trkpt>
      <trkpt lat="51.944935005158186" lon="-9.686739016324282">
        <ele>128.47</ele>
        <time>2026-06-28T15:09:27Z</time>
      </trkpt>
      <trkpt lat="51.944940034300089" lon="-9.686590991914272">
        <ele>127.51000000000001</ele>
        <time>2026-06-28T15:09:28Z</time>
      </trkpt>
      <trkpt lat="51.944945985451341" lon="-9.686443973332644">
        <ele>127.03</ele>
        <time>2026-06-28T15:09:29Z</time>
      </trkpt>
      <trkpt lat="51.944958977401257" lon="-9.686313970014453">
        <ele>127.03</ele>
        <time>2026-06-28T15:09:30Z</time>
      </trkpt>
      <trkpt lat="51.944979010149837" lon="-9.686194024980068">
        <ele>126.55</ele>
        <time>2026-06-28T15:09:31Z</time>
      </trkpt>
      <trkpt lat="51.945016980171204" lon="-9.686071984469891">
        <ele>125.59</ele>
        <time>2026-06-28T15:09:32Z</time>
      </trkpt>
      <trkpt lat="51.945080012083054" lon="-9.685953967273235">
        <ele>125.11</ele>
        <time>2026-06-28T15:09:33Z</time>
      </trkpt>
      <trkpt lat="51.945150000974536" lon="-9.685822036117315">
        <ele>125.11</ele>
        <time>2026-06-28T15:09:34Z</time>
      </trkpt>
      <trkpt lat="51.945227030664682" lon="-9.685678035020828">
        <ele>125.11</ele>
        <time>2026-06-28T15:09:35Z</time>
      </trkpt>
      <trkpt lat="51.945298025384545" lon="-9.685544008389115">
        <ele>124.15000000000001</ele>
        <time>2026-06-28T15:09:36Z</time>
      </trkpt>
      <trkpt lat="51.945356028154492" lon="-9.685434959828854">
        <ele>123.67</ele>
        <time>2026-06-28T15:09:37Z</time>
      </trkpt>
      <trkpt lat="51.945424005389214" lon="-9.685366982594132">
        <ele>122.70999999999999</ele>
        <time>2026-06-28T15:09:38Z</time>
      </trkpt>
      <trkpt lat="51.945484019815922" lon="-9.685306968167424">
        <ele>122.22</ele>
        <time>2026-06-28T15:09:39Z</time>
      </trkpt>
      <trkpt lat="51.945568006485701" lon="-9.685334963724017">
        <ele>121.73999999999999</ele>
        <time>2026-06-28T15:09:40Z</time>
      </trkpt>
      <trkpt lat="51.945676971226931" lon="-9.685371005907655">
        <ele>121.73999999999999</ele>
        <time>2026-06-28T15:09:41Z</time>
      </trkpt>
      <trkpt lat="51.945741008967161" lon="-9.685440994799137">
        <ele>121.73999999999999</ele>
        <time>2026-06-28T15:09:42Z</time>
      </trkpt>
      <trkpt lat="51.945827007293701" lon="-9.685536967590451">
        <ele>121.73999999999999</ele>
        <time>2026-06-28T15:09:43Z</time>
      </trkpt>
      <trkpt lat="51.946808025240898" lon="-9.686623010784388">
        <ele>118.38</ele>
        <time>2026-06-28T15:09:53Z</time>
      </trkpt>
      <trkpt lat="51.947602964937687" lon="-9.687454998493195">
        <ele>120.3</ele>
        <time>2026-06-28T15:10:02Z</time>
      </trkpt>
      <trkpt lat="51.948120966553688" lon="-9.687824975699186">
        <ele>121.26000000000001</ele>
        <time>2026-06-28T15:10:10Z</time>
      </trkpt>
      <trkpt lat="51.948183998465538" lon="-9.688002001494169">
        <ele>121.73999999999999</ele>
        <time>2026-06-28T15:10:13Z</time>
      </trkpt>
      <trkpt lat="51.948150973767042" lon="-9.688071990385652">
        <ele>121.73999999999999</ele>
        <time>2026-06-28T15:10:14Z</time>
      </trkpt>
      <trkpt lat="51.948104035109282" lon="-9.688170980662108">
        <ele>121.73999999999999</ele>
        <time>2026-06-28T15:10:15Z</time>
      </trkpt>
      <trkpt lat="51.947524007409811" lon="-9.68939901329577">
        <ele>120.78</ele>
        <time>2026-06-28T15:10:24Z</time>
      </trkpt>
      <trkpt lat="51.946456991136074" lon="-9.691658020019531">
        <ele>118.38</ele>
        <time>2026-06-28T15:10:38Z</time>
      </trkpt>
      <trkpt lat="51.945734973996878" lon="-9.69367403537035">
        <ele>121.26000000000001</ele>
        <time>2026-06-28T15:10:49Z</time>
      </trkpt>
      <trkpt lat="51.945376982912421" lon="-9.694895027205348">
        <ele>124.15000000000001</ele>
        <time>2026-06-28T15:10:56Z</time>
      </trkpt>
      <trkpt lat="51.945100966840982" lon="-9.695881996303797">
        <ele>124.63</ele>
        <time>2026-06-28T15:11:02Z</time>
      </trkpt>
      <trkpt lat="51.944875996559858" lon="-9.696761006489396">
        <ele>124.63</ele>
        <time>2026-06-28T15:11:07Z</time>
      </trkpt>
      <trkpt lat="51.944828974083066" lon="-9.696945995092392">
        <ele>124.15000000000001</ele>
        <time>2026-06-28T15:11:08Z</time>
      </trkpt>
      <trkpt lat="51.944343997165561" lon="-9.699022024869919">
        <ele>126.06999999999999</ele>
        <time>2026-06-28T15:11:19Z</time>
      </trkpt>
      <trkpt lat="51.94404199719429" lon="-9.701355965808034">
        <ele>130.88</ele>
        <time>2026-06-28T15:11:31Z</time>
      </trkpt>
      <trkpt lat="51.943924985826015" lon="-9.703259998932481">
        <ele>133.75999999999999</ele>
        <time>2026-06-28T15:11:41Z</time>
      </trkpt>
      <trkpt lat="51.943723987787962" lon="-9.705093037337065">
        <ele>138.09</ele>
        <time>2026-06-28T15:11:51Z</time>
      </trkpt>
      <trkpt lat="51.943722981959581" lon="-9.705229997634888">
        <ele>138.09</ele>
        <time>2026-06-28T15:11:52Z</time>
      </trkpt>
      <trkpt lat="51.943721976131201" lon="-9.705505007877946">
        <ele>139.05000000000001</ele>
        <time>2026-06-28T15:11:54Z</time>
      </trkpt>
      <trkpt lat="51.943718958646059" lon="-9.705828968435526">
        <ele>140.49000000000001</ele>
        <time>2026-06-28T15:11:56Z</time>
      </trkpt>
      <trkpt lat="51.943716024979949" lon="-9.706375971436501">
        <ele>141.93000000000001</ele>
        <time>2026-06-28T15:11:59Z</time>
      </trkpt>
      <trkpt lat="51.943712001666427" lon="-9.708546968176961">
        <ele>148.18000000000001</ele>
        <time>2026-06-28T15:12:11Z</time>
      </trkpt>
      <trkpt lat="51.943744020536542" lon="-9.710701033473015">
        <ele>151.06</ele>
        <time>2026-06-28T15:12:22Z</time>
      </trkpt>
      <trkpt lat="51.94358803331852" lon="-9.712891979143024">
        <ele>152.50999999999999</ele>
        <time>2026-06-28T15:12:33Z</time>
      </trkpt>
      <trkpt lat="51.943469010293484" lon="-9.715473018586636">
        <ele>154.43000000000001</ele>
        <time>2026-06-28T15:12:46Z</time>
      </trkpt>
      <trkpt lat="51.943477978929877" lon="-9.715673010796309">
        <ele>154.43000000000001</ele>
        <time>2026-06-28T15:12:47Z</time>
      </trkpt>
      <trkpt lat="51.943516032770276" lon="-9.716239962726831">
        <ele>155.87</ele>
        <time>2026-06-28T15:12:50Z</time>
      </trkpt>
      <trkpt lat="51.943575041368604" lon="-9.717584000900388">
        <ele>165</ele>
        <time>2026-06-28T15:12:58Z</time>
      </trkpt>
      <trkpt lat="51.943575041368604" lon="-9.717731019482017">
        <ele>165.96000000000001</ele>
        <time>2026-06-28T15:12:59Z</time>
      </trkpt>
      <trkpt lat="51.943563977256417" lon="-9.717882983386517">
        <ele>166.93000000000001</ele>
        <time>2026-06-28T15:13:00Z</time>
      </trkpt>
      <trkpt lat="51.94344000890851" lon="-9.719263985753059">
        <ele>170.28999999999999</ele>
        <time>2026-06-28T15:13:08Z</time>
      </trkpt>
      <trkpt lat="51.94341897033155" lon="-9.719873014837503">
        <ele>169.33000000000001</ele>
        <time>2026-06-28T15:13:12Z</time>
      </trkpt>
      <trkpt lat="51.943413019180298" lon="-9.720049034804106">
        <ele>169.81</ele>
        <time>2026-06-28T15:13:13Z</time>
      </trkpt>
      <trkpt lat="51.943405978381634" lon="-9.720239974558353">
        <ele>170.28999999999999</ele>
        <time>2026-06-28T15:13:14Z</time>
      </trkpt>
      <trkpt lat="51.943297013640404" lon="-9.722210979089141">
        <ele>179.41999999999999</ele>
        <time>2026-06-28T15:13:25Z</time>
      </trkpt>
      <trkpt lat="51.94318100810051" lon="-9.723916025832295">
        <ele>187.59</ele>
        <time>2026-06-28T15:13:35Z</time>
      </trkpt>
      <trkpt lat="51.943039018660784" lon="-9.725841013714671">
        <ele>198.16999999999999</ele>
        <time>2026-06-28T15:13:47Z</time>
      </trkpt>
      <trkpt lat="51.942937010899186" lon="-9.726606030017138">
        <ele>199.13</ele>
        <time>2026-06-28T15:13:52Z</time>
      </trkpt>
      <trkpt lat="51.942914966493845" lon="-9.726776015013456">
        <ele>199.61000000000001</ele>
        <time>2026-06-28T15:13:53Z</time>
      </trkpt>
      <trkpt lat="51.942893005907536" lon="-9.726937031373382">
        <ele>200.09</ele>
        <time>2026-06-28T15:13:54Z</time>
      </trkpt>
      <trkpt lat="51.942871967330575" lon="-9.727099975571036">
        <ele>201.05000000000001</ele>
        <time>2026-06-28T15:13:55Z</time>
      </trkpt>
      <trkpt lat="51.942850006744266" lon="-9.727265015244484">
        <ele>201.53</ele>
        <time>2026-06-28T15:13:56Z</time>
      </trkpt>
      <trkpt lat="51.942827962338924" lon="-9.727426031604409">
        <ele>201.53</ele>
        <time>2026-06-28T15:13:57Z</time>
      </trkpt>
      <trkpt lat="51.942701982334256" lon="-9.728237986564636">
        <ele>204.41999999999999</ele>
        <time>2026-06-28T15:14:02Z</time>
      </trkpt>
      <trkpt lat="51.942675998434424" lon="-9.7283969912678">
        <ele>204.41999999999999</ele>
        <time>2026-06-28T15:14:03Z</time>
      </trkpt>
      <trkpt lat="51.942650014534593" lon="-9.728555995970964">
        <ele>204.90000000000001</ele>
        <time>2026-06-28T15:14:04Z</time>
      </trkpt>
      <trkpt lat="51.942465025931597" lon="-9.730163980275393">
        <ele>212.11000000000001</ele>
        <time>2026-06-28T15:14:15Z</time>
      </trkpt>
      <trkpt lat="51.942445999011397" lon="-9.730837969109416">
        <ele>218.36000000000001</ele>
        <time>2026-06-28T15:14:20Z</time>
      </trkpt>
      <trkpt lat="51.942437030375004" lon="-9.731172993779182">
        <ele>222.19999999999999</ele>
        <time>2026-06-28T15:14:24Z</time>
      </trkpt>
      <trkpt lat="51.942434012889862" lon="-9.731281036511064">
        <ele>222.68000000000001</ele>
        <time>2026-06-28T15:14:25Z</time>
      </trkpt>
      <trkpt lat="51.94243099540472" lon="-9.731393018737435">
        <ele>223.63999999999999</ele>
        <time>2026-06-28T15:14:26Z</time>
      </trkpt>
      <trkpt lat="51.942426972091198" lon="-9.731508018448949">
        <ele>224.12</ele>
        <time>2026-06-28T15:14:27Z</time>
      </trkpt>
      <trkpt lat="51.942424038425088" lon="-9.731623018160462">
        <ele>225.09</ele>
        <time>2026-06-28T15:14:28Z</time>
      </trkpt>
      <trkpt lat="51.942421020939946" lon="-9.731746986508369">
        <ele>225.09</ele>
        <time>2026-06-28T15:14:29Z</time>
      </trkpt>
      <trkpt lat="51.942394031211734" lon="-9.732706965878606">
        <ele>227.97</ele>
        <time>2026-06-28T15:14:37Z</time>
      </trkpt>
      <trkpt lat="51.94236796349287" lon="-9.732947023585439">
        <ele>228.93000000000001</ele>
        <time>2026-06-28T15:14:39Z</time>
      </trkpt>
      <trkpt lat="51.942355977371335" lon="-9.733050959184766">
        <ele>229.88999999999999</ele>
        <time>2026-06-28T15:14:40Z</time>
      </trkpt>
      <trkpt lat="51.942311972379684" lon="-9.733448009938002">
        <ele>233.74000000000001</ele>
        <time>2026-06-28T15:14:44Z</time>
      </trkpt>
      <trkpt lat="51.942275008186698" lon="-9.734502034261823">
        <ele>239.50999999999999</ele>
        <time>2026-06-28T15:14:53Z</time>
      </trkpt>
      <trkpt lat="51.942168977111578" lon="-9.735886976122856">
        <ele>241.43000000000001</ele>
        <time>2026-06-28T15:15:04Z</time>
      </trkpt>
      <trkpt lat="51.942028999328613" lon="-9.736650986596942">
        <ele>241.43000000000001</ele>
        <time>2026-06-28T15:15:11Z</time>
      </trkpt>
      <trkpt lat="51.941890027374029" lon="-9.737087013199925">
        <ele>242.38999999999999</ele>
        <time>2026-06-28T15:15:15Z</time>
      </trkpt>
      <trkpt lat="51.941853985190392" lon="-9.737198995426297">
        <ele>242.87</ele>
        <time>2026-06-28T15:15:16Z</time>
      </trkpt>
      <trkpt lat="51.94180897437036" lon="-9.737301003187895">
        <ele>243.34999999999999</ele>
        <time>2026-06-28T15:15:17Z</time>
      </trkpt>
      <trkpt lat="51.941750971600413" lon="-9.737396975979209">
        <ele>243.83000000000001</ele>
        <time>2026-06-28T15:15:18Z</time>
      </trkpt>
      <trkpt lat="51.941692968830466" lon="-9.737492026761174">
        <ele>243.83000000000001</ele>
        <time>2026-06-28T15:15:19Z</time>
      </trkpt>
      <trkpt lat="51.941436985507607" lon="-9.737915983423591">
        <ele>246.72</ele>
        <time>2026-06-28T15:15:24Z</time>
      </trkpt>
      <trkpt lat="51.941388035193086" lon="-9.737997036427259">
        <ele>247.68000000000001</ele>
        <time>2026-06-28T15:15:25Z</time>
      </trkpt>
      <trkpt lat="51.94126901216805" lon="-9.738238016143441">
        <ele>250.56</ele>
        <time>2026-06-28T15:15:28Z</time>
      </trkpt>
      <trkpt lat="51.941253002732992" lon="-9.738329965621233">
        <ele>251.52000000000001</ele>
        <time>2026-06-28T15:15:29Z</time>
      </trkpt>
      <trkpt lat="51.941239004954696" lon="-9.738414036110044">
        <ele>252.47999999999999</ele>
        <time>2026-06-28T15:15:30Z</time>
      </trkpt>
      <trkpt lat="51.94122701883316" lon="-9.738489976152778">
        <ele>252.96000000000001</ele>
        <time>2026-06-28T15:15:31Z</time>
      </trkpt>
      <trkpt lat="51.941214026883245" lon="-9.738564994186163">
        <ele>254.41</ele>
        <time>2026-06-28T15:15:32Z</time>
      </trkpt>
      <trkpt lat="51.941214026883245" lon="-9.738564994186163">
        <ele>254.88999999999999</ele>
        <time>2026-06-28T15:15:33Z</time>
      </trkpt>
      <trkpt lat="51.941214026883245" lon="-9.738564994186163">
        <ele>255.84999999999999</ele>
        <time>2026-06-28T15:15:46Z</time>
      </trkpt>
      <trkpt lat="51.941214026883245" lon="-9.738564994186163">
        <ele>256.81</ele>
        <time>2026-06-28T15:16:38Z</time>
      </trkpt>
      <trkpt lat="51.941214026883245" lon="-9.738965984433889">
        <ele>258.73000000000002</ele>
        <time>2026-06-28T15:16:49Z</time>
      </trkpt>
      <trkpt lat="51.941198017448187" lon="-9.739605020731688">
        <ele>260.17000000000002</ele>
        <time>2026-06-28T15:16:55Z</time>
      </trkpt>
      <trkpt lat="51.941173039376736" lon="-9.739690013229847">
        <ele>260.17000000000002</ele>
        <time>2026-06-28T15:17:03Z</time>
      </trkpt>
      <trkpt lat="51.941153006628156" lon="-9.739756984636188">
        <ele>260.64999999999998</ele>
        <time>2026-06-28T15:17:43Z</time>
      </trkpt>
      <trkpt lat="51.940960977226496" lon="-9.740399038419128">
        <ele>255.37</ele>
        <time>2026-06-28T15:17:50Z</time>
      </trkpt>
      <trkpt lat="51.940771965309978" lon="-9.741031033918262">
        <ele>250.56</ele>
        <time>2026-06-28T15:17:57Z</time>
      </trkpt>
      <trkpt lat="51.940747993066907" lon="-9.741110997274518">
        <ele>250.08000000000001</ele>
        <time>2026-06-28T15:17:58Z</time>
      </trkpt>
      <trkpt lat="51.940723014995456" lon="-9.741194983944297">
        <ele>249.59999999999999</ele>
        <time>2026-06-28T15:17:59Z</time>
      </trkpt>
      <trkpt lat="51.940666018053889" lon="-9.741387013345957">
        <ele>248.63999999999999</ele>
        <time>2026-06-28T15:18:01Z</time>
      </trkpt>
      <trkpt lat="51.940577002242208" lon="-9.741762019693852">
        <ele>247.19999999999999</ele>
        <time>2026-06-28T15:18:05Z</time>
      </trkpt>
      <trkpt lat="51.940566021949053" lon="-9.74186603911221">
        <ele>246.72</ele>
        <time>2026-06-28T15:18:06Z</time>
      </trkpt>
      <trkpt lat="51.940463008359075" lon="-9.74276902154088">
        <ele>239.99000000000001</ele>
        <time>2026-06-28T15:18:14Z</time>
      </trkpt>
      <trkpt lat="51.940310960635543" lon="-9.744099983945489">
        <ele>232.30000000000001</ele>
        <time>2026-06-28T15:18:26Z</time>
      </trkpt>
      <trkpt lat="51.940085990354419" lon="-9.745453996583819">
        <ele>222.19999999999999</ele>
        <time>2026-06-28T15:18:38Z</time>
      </trkpt>
      <trkpt lat="51.939839981496334" lon="-9.74663701839745">
        <ele>211.15000000000001</ele>
        <time>2026-06-28T15:18:48Z</time>
      </trkpt>
      <trkpt lat="51.939685000106692" lon="-9.747099028900266">
        <ele>205.86000000000001</ele>
        <time>2026-06-28T15:18:53Z</time>
      </trkpt>
      <trkpt lat="51.939644012600183" lon="-9.747168011963368">
        <ele>204.90000000000001</ele>
        <time>2026-06-28T15:18:54Z</time>
      </trkpt>
      <trkpt lat="51.939605036750436" lon="-9.747233977541328">
        <ele>203.94</ele>
        <time>2026-06-28T15:18:55Z</time>
      </trkpt>
      <trkpt lat="51.939544016495347" lon="-9.747277982532978">
        <ele>203.46000000000001</ele>
        <time>2026-06-28T15:18:56Z</time>
      </trkpt>
      <trkpt lat="51.939473021775484" lon="-9.747330034151673">
        <ele>202.49000000000001</ele>
        <time>2026-06-28T15:18:57Z</time>
      </trkpt>
      <trkpt lat="51.939385011792183" lon="-9.747394993901253">
        <ele>201.53</ele>
        <time>2026-06-28T15:18:58Z</time>
      </trkpt>
      <trkpt lat="51.938920989632607" lon="-9.747697999700904">
        <ele>198.16999999999999</ele>
        <time>2026-06-28T15:19:04Z</time>
      </trkpt>
      <trkpt lat="51.938874972984195" lon="-9.74768903106451">
        <ele>198.16999999999999</ele>
        <time>2026-06-28T15:19:05Z</time>
      </trkpt>
      <trkpt lat="51.938848989084363" lon="-9.747677966952324">
        <ele>197.69</ele>
        <time>2026-06-28T15:19:06Z</time>
      </trkpt>
      <trkpt lat="51.938816970214248" lon="-9.747643014416099">
        <ele>197.69</ele>
        <time>2026-06-28T15:19:07Z</time>
      </trkpt>
      <trkpt lat="51.938780006021261" lon="-9.74760202690959">
        <ele>197.21000000000001</ele>
        <time>2026-06-28T15:19:08Z</time>
      </trkpt>
      <trkpt lat="51.938739018514752" lon="-9.747557016089559">
        <ele>197.21000000000001</ele>
        <time>2026-06-28T15:19:09Z</time>
      </trkpt>
      <trkpt lat="51.938700964674354" lon="-9.747514016926289">
        <ele>197.21000000000001</ele>
        <time>2026-06-28T15:19:10Z</time>
      </trkpt>
      <trkpt lat="51.93866902962327" lon="-9.747478980571032">
        <ele>197.21000000000001</ele>
        <time>2026-06-28T15:19:11Z</time>
      </trkpt>
      <trkpt lat="51.938644973561168" lon="-9.747500019147992">
        <ele>196.72999999999999</ele>
        <time>2026-06-28T15:19:12Z</time>
      </trkpt>
      <trkpt lat="51.938614966347814" lon="-9.747561039403081">
        <ele>196.72999999999999</ele>
        <time>2026-06-28T15:19:13Z</time>
      </trkpt>
      <trkpt lat="51.938579007983208" lon="-9.747633039951325">
        <ele>196.25</ele>
        <time>2026-06-28T15:19:14Z</time>
      </trkpt>
      <trkpt lat="51.938531985506415" lon="-9.747727001085877">
        <ele>196.25</ele>
        <time>2026-06-28T15:19:15Z</time>
      </trkpt>
      <trkpt lat="51.938105011358857" lon="-9.748841039836407">
        <ele>195.28</ele>
        <time>2026-06-28T15:19:24Z</time>
      </trkpt>
      <trkpt lat="51.937476033344865" lon="-9.75033100694418">
        <ele>189.52000000000001</ele>
        <time>2026-06-28T15:19:37Z</time>
      </trkpt>
      <trkpt lat="51.937392968684435" lon="-9.75052697584033">
        <ele>189.03999999999999</ele>
        <time>2026-06-28T15:19:39Z</time>
      </trkpt>
      <trkpt lat="51.937352987006307" lon="-9.750622026622295">
        <ele>188.56</ele>
        <time>2026-06-28T15:19:40Z</time>
      </trkpt>
      <trkpt lat="51.937329014763236" lon="-9.750715987756848">
        <ele>188.56</ele>
        <time>2026-06-28T15:19:41Z</time>
      </trkpt>
      <trkpt lat="51.936988038942218" lon="-9.752104030922055">
        <ele>189.03999999999999</ele>
        <time>2026-06-28T15:19:52Z</time>
      </trkpt>
      <trkpt lat="51.936643961817026" lon="-9.753506993874908">
        <ele>186.15000000000001</ele>
        <time>2026-06-28T15:20:03Z</time>
      </trkpt>
      <trkpt lat="51.936216987669468" lon="-9.755244981497526">
        <ele>179.41999999999999</ele>
        <time>2026-06-28T15:20:16Z</time>
      </trkpt>
      <trkpt lat="51.935823038220406" lon="-9.757240964099765">
        <ele>172.69</ele>
        <time>2026-06-28T15:20:29Z</time>
      </trkpt>
      <trkpt lat="51.935480972751975" lon="-9.759017005562782">
        <ele>176.06</ele>
        <time>2026-06-28T15:20:41Z</time>
      </trkpt>
      <trkpt lat="51.935172015801072" lon="-9.760620966553688">
        <ele>177.5</ele>
        <time>2026-06-28T15:20:53Z</time>
      </trkpt>
      <trkpt lat="51.934884013608098" lon="-9.762110011652112">
        <ele>174.13999999999999</ele>
        <time>2026-06-28T15:21:04Z</time>
      </trkpt>
      <trkpt lat="51.934548988938332" lon="-9.763840036466718">
        <ele>167.41</ele>
        <time>2026-06-28T15:21:15Z</time>
      </trkpt>
      <trkpt lat="51.934257969260216" lon="-9.765511974692345">
        <ele>159.24000000000001</ele>
        <time>2026-06-28T15:21:25Z</time>
      </trkpt>
      <trkpt lat="51.934039033949375" lon="-9.766928013414145">
        <ele>154.91</ele>
        <time>2026-06-28T15:21:34Z</time>
      </trkpt>
      <trkpt lat="51.933870976790786" lon="-9.76827003993094">
        <ele>149.13999999999999</ele>
        <time>2026-06-28T15:21:44Z</time>
      </trkpt>
      <trkpt lat="51.933855973184109" lon="-9.768412029370666">
        <ele>148.18000000000001</ele>
        <time>2026-06-28T15:21:45Z</time>
      </trkpt>
      <trkpt lat="51.933839963749051" lon="-9.768556030467153">
        <ele>146.74000000000001</ele>
        <time>2026-06-28T15:21:46Z</time>
      </trkpt>
      <trkpt lat="51.933712977916002" lon="-9.769741985946894">
        <ele>142.41</ele>
        <time>2026-06-28T15:21:55Z</time>
      </trkpt>
      <trkpt lat="51.933456994593143" lon="-9.77108602412045">
        <ele>134.24000000000001</ele>
        <time>2026-06-28T15:22:05Z</time>
      </trkpt>
      <trkpt lat="51.933165974915028" lon="-9.772524023428559">
        <ele>125.11</ele>
        <time>2026-06-28T15:22:16Z</time>
      </trkpt>
      <trkpt lat="51.933124987408519" lon="-9.772584959864616">
        <ele>124.15000000000001</ele>
        <time>2026-06-28T15:22:17Z</time>
      </trkpt>
      <trkpt lat="51.933079976588488" lon="-9.772652015089989">
        <ele>123.19</ele>
        <time>2026-06-28T15:22:18Z</time>
      </trkpt>
      <trkpt lat="51.932528028264642" lon="-9.773199018090963">
        <ele>118.38</ele>
        <time>2026-06-28T15:22:24Z</time>
      </trkpt>
      <trkpt lat="51.932126032188535" lon="-9.773646024987102">
        <ele>115.98</ele>
        <time>2026-06-28T15:22:28Z</time>
      </trkpt>
      <trkpt lat="51.932035004720092" lon="-9.773763036355376">
        <ele>114.53</ele>
        <time>2026-06-28T15:22:29Z</time>
      </trkpt>
      <trkpt lat="51.931937020272017" lon="-9.773888010531664">
        <ele>114.05</ele>
        <time>2026-06-28T15:22:30Z</time>
      </trkpt>
      <trkpt lat="51.93183702416718" lon="-9.774017008021474">
        <ele>114.05</ele>
        <time>2026-06-28T15:22:31Z</time>
      </trkpt>
      <trkpt lat="51.931735016405582" lon="-9.774147011339665">
        <ele>114.05</ele>
        <time>2026-06-28T15:22:32Z</time>
      </trkpt>
      <trkpt lat="51.930932030081749" lon="-9.775174967944622">
        <ele>117.42</ele>
        <time>2026-06-28T15:22:41Z</time>
      </trkpt>
      <trkpt lat="51.93046398460865" lon="-9.77566497400403">
        <ele>118.38</ele>
        <time>2026-06-28T15:22:47Z</time>
      </trkpt>
      <trkpt lat="51.930362982675433" lon="-9.775688024237752">
        <ele>117.90000000000001</ele>
        <time>2026-06-28T15:22:48Z</time>
      </trkpt>
      <trkpt lat="51.930270027369261" lon="-9.775709984824061">
        <ele>117.42</ele>
        <time>2026-06-28T15:22:49Z</time>
      </trkpt>
      <trkpt lat="51.929297978058457" lon="-9.775828002020717">
        <ele>109.25</ele>
        <time>2026-06-28T15:22:57Z</time>
      </trkpt>
      <trkpt lat="51.928001968190074" lon="-9.775908971205354">
        <ele>106.36</ele>
        <time>2026-06-28T15:23:08Z</time>
      </trkpt>
      <trkpt lat="51.927061015740037" lon="-9.775875024497509">
        <ele>108.77</ele>
        <time>2026-06-28T15:23:17Z</time>
      </trkpt>
      <trkpt lat="51.926001962274313" lon="-9.77540697902441">
        <ele>112.13</ele>
        <time>2026-06-28T15:23:29Z</time>
      </trkpt>
      <trkpt lat="51.925162011757493" lon="-9.774689991027117">
        <ele>119.34</ele>
        <time>2026-06-28T15:23:39Z</time>
      </trkpt>
      <trkpt lat="51.92446899600327" lon="-9.77392204105854">
        <ele>123.67</ele>
        <time>2026-06-28T15:23:48Z</time>
      </trkpt>
      <trkpt lat="51.924054007977247" lon="-9.773338995873928">
        <ele>125.11</ele>
        <time>2026-06-28T15:23:53Z</time>
      </trkpt>
      <trkpt lat="51.923962980508804" lon="-9.773252997547388">
        <ele>125.59</ele>
        <time>2026-06-28T15:23:54Z</time>
      </trkpt>
      <trkpt lat="51.922821030020714" lon="-9.772156979888678">
        <ele>129.91999999999999</ele>
        <time>2026-06-28T15:24:06Z</time>
      </trkpt>
      <trkpt lat="51.922204038128257" lon="-9.771376037970185">
        <ele>133.28</ele>
        <time>2026-06-28T15:24:13Z</time>
      </trkpt>
      <trkpt lat="51.922123990952969" lon="-9.771276041865349">
        <ele>133.75999999999999</ele>
        <time>2026-06-28T15:24:14Z</time>
      </trkpt>
      <trkpt lat="51.922031035646796" lon="-9.771253997460008">
        <ele>134.24000000000001</ele>
        <time>2026-06-28T15:24:15Z</time>
      </trkpt>
      <trkpt lat="51.921927016228437" lon="-9.771239999681711">
        <ele>134.72</ele>
        <time>2026-06-28T15:24:16Z</time>
      </trkpt>
      <trkpt lat="51.921813022345304" lon="-9.771223990246654">
        <ele>134.72</ele>
        <time>2026-06-28T15:24:17Z</time>
      </trkpt>
      <trkpt lat="51.920650033280253" lon="-9.771060040220618">
        <ele>131.36000000000001</ele>
        <time>2026-06-28T15:24:27Z</time>
      </trkpt>
      <trkpt lat="51.919328961521387" lon="-9.770858958363533">
        <ele>128.47</ele>
        <time>2026-06-28T15:24:39Z</time>
      </trkpt>
      <trkpt lat="51.918057007715106" lon="-9.77055000141263">
        <ele>128.47</ele>
        <time>2026-06-28T15:24:51Z</time>
      </trkpt>
      <trkpt lat="51.917545963078737" lon="-9.770267028361559">
        <ele>129.43000000000001</ele>
        <time>2026-06-28T15:24:56Z</time>
      </trkpt>
      <trkpt lat="51.917459964752197" lon="-9.770192010328174">
        <ele>129.43000000000001</ele>
        <time>2026-06-28T15:24:57Z</time>
      </trkpt>
      <trkpt lat="51.916966019198298" lon="-9.769665040075779">
        <ele>131.36000000000001</ele>
        <time>2026-06-28T15:25:03Z</time>
      </trkpt>
      <trkpt lat="51.916902987286448" lon="-9.769541993737221">
        <ele>131.36000000000001</ele>
        <time>2026-06-28T15:25:04Z</time>
      </trkpt>
      <trkpt lat="51.916177030652761" lon="-9.767783973366022">
        <ele>125.59</ele>
        <time>2026-06-28T15:25:16Z</time>
      </trkpt>
      <trkpt lat="51.915402039885521" lon="-9.766096025705338">
        <ele>119.34</ele>
        <time>2026-06-28T15:25:28Z</time>
      </trkpt>
      <trkpt lat="51.914510037750006" lon="-9.764500027522445">
        <ele>115.98</ele>
        <time>2026-06-28T15:25:40Z</time>
      </trkpt>
      <trkpt lat="51.914430996403098" lon="-9.764358960092068">
        <ele>114.53</ele>
        <time>2026-06-28T15:25:41Z</time>
      </trkpt>
      <trkpt lat="51.914353966712952" lon="-9.764221999794245">
        <ele>112.61</ele>
        <time>2026-06-28T15:25:42Z</time>
      </trkpt>
      <trkpt lat="51.914049033075571" lon="-9.763700980693102">
        <ele>107.31999999999999</ele>
        <time>2026-06-28T15:25:47Z</time>
      </trkpt>
      <trkpt lat="51.913978960365057" lon="-9.763660999014974">
        <ele>106.84</ele>
        <time>2026-06-28T15:25:48Z</time>
      </trkpt>
      <trkpt lat="51.913911988958716" lon="-9.763626968488097">
        <ele>107.31999999999999</ele>
        <time>2026-06-28T15:25:49Z</time>
      </trkpt>
      <trkpt lat="51.913825990632176" lon="-9.763620011508465">
        <ele>107.31999999999999</ele>
        <time>2026-06-28T15:25:50Z</time>
      </trkpt>
      <trkpt lat="51.913729012012482" lon="-9.763612970709801">
        <ele>107.81</ele>
        <time>2026-06-28T15:25:51Z</time>
      </trkpt>
      <trkpt lat="51.912548001855612" lon="-9.763499982655048">
        <ele>112.61</ele>
        <time>2026-06-28T15:26:02Z</time>
      </trkpt>
      <trkpt lat="51.912438031286001" lon="-9.763486990705133">
        <ele>113.56999999999999</ele>
        <time>2026-06-28T15:26:03Z</time>
      </trkpt>
      <trkpt lat="51.910935994237661" lon="-9.762968989089131">
        <ele>115.01000000000001</ele>
        <time>2026-06-28T15:26:16Z</time>
      </trkpt>
      <trkpt lat="51.909822961315513" lon="-9.762659026309848">
        <ele>120.3</ele>
        <time>2026-06-28T15:26:26Z</time>
      </trkpt>
      <trkpt lat="51.908643962815404" lon="-9.762330958619714">
        <ele>119.81999999999999</ele>
        <time>2026-06-28T15:26:36Z</time>
      </trkpt>
      <trkpt lat="51.907824967056513" lon="-9.762103976681829">
        <ele>118.86</ele>
        <time>2026-06-28T15:26:43Z</time>
      </trkpt>
      <trkpt lat="51.906629959121346" lon="-9.761789990589023">
        <ele>120.78</ele>
        <time>2026-06-28T15:26:54Z</time>
      </trkpt>
      <trkpt lat="51.906433990225196" lon="-9.76174003444612">
        <ele>120.3</ele>
        <time>2026-06-28T15:26:56Z</time>
      </trkpt>
      <trkpt lat="51.906332988291979" lon="-9.76176300086081">
        <ele>119.81999999999999</ele>
        <time>2026-06-28T15:26:57Z</time>
      </trkpt>
      <trkpt lat="51.906230980530381" lon="-9.761811029165983">
        <ele>119.81999999999999</ele>
        <time>2026-06-28T15:26:58Z</time>
      </trkpt>
      <trkpt lat="51.906138025224209" lon="-9.761903984472156">
        <ele>119.34</ele>
        <time>2026-06-28T15:26:59Z</time>
      </trkpt>
      <trkpt lat="51.906045991927385" lon="-9.762009009718895">
        <ele>119.34</ele>
        <time>2026-06-28T15:27:00Z</time>
      </trkpt>
      <trkpt lat="51.905954964458942" lon="-9.762117974460125">
        <ele>119.34</ele>
        <time>2026-06-28T15:27:01Z</time>
      </trkpt>
      <trkpt lat="51.905309977009892" lon="-9.762863963842392">
        <ele>115.01000000000001</ele>
        <time>2026-06-28T15:27:09Z</time>
      </trkpt>
      <trkpt lat="51.905252980068326" lon="-9.762906963005662">
        <ele>114.53</ele>
        <time>2026-06-28T15:27:10Z</time>
      </trkpt>
      <trkpt lat="51.905207969248295" lon="-9.762940993532538">
        <ele>114.05</ele>
        <time>2026-06-28T15:27:11Z</time>
      </trkpt>
      <trkpt lat="51.905190031975508" lon="-9.762899000197649">
        <ele>113.09</ele>
        <time>2026-06-28T15:27:12Z</time>
      </trkpt>
      <trkpt lat="51.905154995620251" lon="-9.762818031013012">
        <ele>112.61</ele>
        <time>2026-06-28T15:27:13Z</time>
      </trkpt>
      <trkpt lat="51.905114008113742" lon="-9.762723986059427">
        <ele>112.13</ele>
        <time>2026-06-28T15:27:14Z</time>
      </trkpt>
      <trkpt lat="51.905058017000556" lon="-9.762597000226378">
        <ele>112.13</ele>
        <time>2026-06-28T15:27:15Z</time>
      </trkpt>
      <trkpt lat="51.905035972595215" lon="-9.762487029656768">
        <ele>111.65000000000001</ele>
        <time>2026-06-28T15:27:16Z</time>
      </trkpt>
      <trkpt lat="51.904698014259338" lon="-9.760818025097251">
        <ele>103.48</ele>
        <time>2026-06-28T15:27:26Z</time>
      </trkpt>
      <trkpt lat="51.904603969305754" lon="-9.760485012084246">
        <ele>101.56</ele>
        <time>2026-06-28T15:27:28Z</time>
      </trkpt>
      <trkpt lat="51.904526017606258" lon="-9.760360959917307">
        <ele>100.11</ele>
        <time>2026-06-28T15:27:29Z</time>
      </trkpt>
      <trkpt lat="51.904435995966196" lon="-9.760256018489599">
        <ele>99.150000000000006</ele>
        <time>2026-06-28T15:27:30Z</time>
      </trkpt>
      <trkpt lat="51.904342034831643" lon="-9.760147975757718">
        <ele>98.670000000000002</ele>
        <time>2026-06-28T15:27:31Z</time>
      </trkpt>
      <trkpt lat="51.904241032898426" lon="-9.760050997138023">
        <ele>98.189999999999998</ele>
        <time>2026-06-28T15:27:32Z</time>
      </trkpt>
      <trkpt lat="51.90287402831018" lon="-9.758836962282658">
        <ele>92.900000000000006</ele>
        <time>2026-06-28T15:27:45Z</time>
      </trkpt>
      <trkpt lat="51.901749009266496" lon="-9.757810011506081">
        <ele>88.579999999999998</ele>
        <time>2026-06-28T15:27:55Z</time>
      </trkpt>
      <trkpt lat="51.90034001134336" lon="-9.756785994395614">
        <ele>89.540000000000006</ele>
        <time>2026-06-28T15:28:07Z</time>
      </trkpt>
      <trkpt lat="51.899065040051937" lon="-9.756097001954913">
        <ele>81.370000000000005</ele>
        <time>2026-06-28T15:28:17Z</time>
      </trkpt>
      <trkpt lat="51.898241015151143" lon="-9.755472969263792">
        <ele>80.890000000000001</ele>
        <time>2026-06-28T15:28:25Z</time>
      </trkpt>
      <trkpt lat="51.897475998848677" lon="-9.754766961559653">
        <ele>76.560000000000002</ele>
        <time>2026-06-28T15:28:34Z</time>
      </trkpt>
      <trkpt lat="51.897379020228982" lon="-9.754677023738623">
        <ele>74.640000000000001</ele>
        <time>2026-06-28T15:28:39Z</time>
      </trkpt>
      <trkpt lat="51.897339038550854" lon="-9.754639975726605">
        <ele>73.680000000000007</ele>
        <time>2026-06-28T15:28:44Z</time>
      </trkpt>
      <trkpt lat="51.897300984710455" lon="-9.754636958241463">
        <ele>74.159999999999997</ele>
        <time>2026-06-28T15:28:45Z</time>
      </trkpt>
      <trkpt lat="51.89726896584034" lon="-9.754700995981693">
        <ele>74.159999999999997</ele>
        <time>2026-06-28T15:28:46Z</time>
      </trkpt>
      <trkpt lat="51.89722403883934" lon="-9.754794035106897">
        <ele>74.159999999999997</ele>
        <time>2026-06-28T15:28:47Z</time>
      </trkpt>
      <trkpt lat="51.897167963907123" lon="-9.75490702316165">
        <ele>74.159999999999997</ele>
        <time>2026-06-28T15:28:48Z</time>
      </trkpt>
      <trkpt lat="51.896662032231688" lon="-9.755935985594988">
        <ele>74.159999999999997</ele>
        <time>2026-06-28T15:28:54Z</time>
      </trkpt>
      <trkpt lat="51.895375996828079" lon="-9.758036993443966">
        <ele>70.790000000000006</ele>
        <time>2026-06-28T15:29:04Z</time>
      </trkpt>
      <trkpt lat="51.894688010215759" lon="-9.759123036637902">
        <ele>66.950000000000003</ele>
        <time>2026-06-28T15:29:11Z</time>
      </trkpt>
      <trkpt lat="51.894498998299241" lon="-9.75942000746727">
        <ele>65.510000000000005</ele>
        <time>2026-06-28T15:29:14Z</time>
      </trkpt>
      <trkpt lat="51.894501009956002" lon="-9.759550010785461">
        <ele>65.510000000000005</ele>
        <time>2026-06-28T15:29:15Z</time>
      </trkpt>
      <trkpt lat="51.894502015784383" lon="-9.759702980518341">
        <ele>65.510000000000005</ele>
        <time>2026-06-28T15:29:16Z</time>
      </trkpt>
      <trkpt lat="51.894504027441144" lon="-9.759873971343041">
        <ele>65.989999999999995</ele>
        <time>2026-06-28T15:29:17Z</time>
      </trkpt>
      <trkpt lat="51.894506039097905" lon="-9.760053008794785">
        <ele>66.469999999999999</ele>
        <time>2026-06-28T15:29:18Z</time>
      </trkpt>
      <trkpt lat="51.89451701939106" lon="-9.761065961793065">
        <ele>67.430000000000007</ele>
        <time>2026-06-28T15:29:23Z</time>
      </trkpt>
      <trkpt lat="51.894415011629462" lon="-9.763463018462062">
        <ele>65.510000000000005</ele>
        <time>2026-06-28T15:29:34Z</time>
      </trkpt>
      <trkpt lat="51.894438983872533" lon="-9.765618005767465">
        <ele>65.510000000000005</ele>
        <time>2026-06-28T15:29:43Z</time>
      </trkpt>
      <trkpt lat="51.894586002454162" lon="-9.768039034679532">
        <ele>61.18</ele>
        <time>2026-06-28T15:29:53Z</time>
      </trkpt>
      <trkpt lat="51.894606035202742" lon="-9.768278002738953">
        <ele>60.219999999999999</ele>
        <time>2026-06-28T15:29:54Z</time>
      </trkpt>
      <trkpt lat="51.894963020458817" lon="-9.770503984764218">
        <ele>53.969999999999999</ele>
        <time>2026-06-28T15:30:04Z</time>
      </trkpt>
      <trkpt lat="51.895441962406039" lon="-9.772335011512041">
        <ele>58.299999999999997</ele>
        <time>2026-06-28T15:30:13Z</time>
      </trkpt>
      <trkpt lat="51.89617202617228" lon="-9.775089975446463">
        <ele>60.700000000000003</ele>
        <time>2026-06-28T15:30:26Z</time>
      </trkpt>
      <trkpt lat="51.896830005571246" lon="-9.777764976024628">
        <ele>60.700000000000003</ele>
        <time>2026-06-28T15:30:39Z</time>
      </trkpt>
      <trkpt lat="51.896866969764233" lon="-9.777963040396571">
        <ele>60.700000000000003</ele>
        <time>2026-06-28T15:30:40Z</time>
      </trkpt>
      <trkpt lat="51.896933019161224" lon="-9.778146017342806">
        <ele>60.219999999999999</ele>
        <time>2026-06-28T15:30:41Z</time>
      </trkpt>
      <trkpt lat="51.897019017487764" lon="-9.778314996510744">
        <ele>60.700000000000003</ele>
        <time>2026-06-28T15:30:42Z</time>
      </trkpt>
      <trkpt lat="51.897858968004584" lon="-9.779801024124026">
        <ele>62.140000000000001</ele>
        <time>2026-06-28T15:30:51Z</time>
      </trkpt>
      <trkpt lat="51.898606969043612" lon="-9.780865022912622">
        <ele>61.18</ele>
        <time>2026-06-28T15:30:59Z</time>
      </trkpt>
      <trkpt lat="51.89868500456214" lon="-9.780943980440497">
        <ele>61.18</ele>
        <time>2026-06-28T15:31:00Z</time>
      </trkpt>
      <trkpt lat="51.89879497513175" lon="-9.780952027067542">
        <ele>61.659999999999997</ele>
        <time>2026-06-28T15:31:01Z</time>
      </trkpt>
      <trkpt lat="51.898908969014883" lon="-9.780960995703936">
        <ele>61.659999999999997</ele>
        <time>2026-06-28T15:31:02Z</time>
      </trkpt>
      <trkpt lat="51.899027992039919" lon="-9.780940962955356">
        <ele>61.18</ele>
        <time>2026-06-28T15:31:03Z</time>
      </trkpt>
      <trkpt lat="51.899876995012164" lon="-9.780666036531329">
        <ele>63.100000000000001</ele>
        <time>2026-06-28T15:31:10Z</time>
      </trkpt>
      <trkpt lat="51.899961987510324" lon="-9.78069101460278">
        <ele>63.579999999999998</ele>
        <time>2026-06-28T15:31:11Z</time>
      </trkpt>
      <trkpt lat="51.900057960301638" lon="-9.780759997665882">
        <ele>64.069999999999993</ele>
        <time>2026-06-28T15:31:12Z</time>
      </trkpt>
      <trkpt lat="51.900130966678262" lon="-9.780852030962706">
        <ele>64.549999999999997</ele>
        <time>2026-06-28T15:31:13Z</time>
      </trkpt>
      <trkpt lat="51.900187041610479" lon="-9.780922019854188">
        <ele>64.549999999999997</ele>
        <time>2026-06-28T15:31:14Z</time>
      </trkpt>
      <trkpt lat="51.900245966389775" lon="-9.781089993193746">
        <ele>65.030000000000001</ele>
        <time>2026-06-28T15:31:15Z</time>
      </trkpt>
      <trkpt lat="51.900290977209806" lon="-9.781219996511936">
        <ele>65.030000000000001</ele>
        <time>2026-06-28T15:31:16Z</time>
      </trkpt>
      <trkpt lat="51.900341017171741" lon="-9.781366009265184">
        <ele>65.510000000000005</ele>
        <time>2026-06-28T15:31:17Z</time>
      </trkpt>
      <trkpt lat="51.900678975507617" lon="-9.782795961946249">
        <ele>68.390000000000001</ele>
        <time>2026-06-28T15:31:26Z</time>
      </trkpt>
      <trkpt lat="51.900699008256197" lon="-9.782877014949918">
        <ele>68.870000000000005</ele>
        <time>2026-06-28T15:31:27Z</time>
      </trkpt>
      <trkpt lat="51.900744019076228" lon="-9.782984973862767">
        <ele>68.870000000000005</ele>
        <time>2026-06-28T15:31:28Z</time>
      </trkpt>
      <trkpt lat="51.900803027674556" lon="-9.782993020489812">
        <ele>69.349999999999994</ele>
        <time>2026-06-28T15:31:29Z</time>
      </trkpt>
      <trkpt lat="51.90150098875165" lon="-9.783089999109507">
        <ele>69.349999999999994</ele>
        <time>2026-06-28T15:31:36Z</time>
      </trkpt>
      <trkpt lat="51.901611965149641" lon="-9.783106008544564">
        <ele>69.349999999999994</ele>
        <time>2026-06-28T15:31:37Z</time>
      </trkpt>
      <trkpt lat="51.901705004274845" lon="-9.783070972189307">
        <ele>69.349999999999994</ele>
        <time>2026-06-28T15:31:38Z</time>
      </trkpt>
      <trkpt lat="51.90180198289454" lon="-9.783005006611347">
        <ele>68.870000000000005</ele>
        <time>2026-06-28T15:31:39Z</time>
      </trkpt>
      <trkpt lat="51.901900973170996" lon="-9.782938035205007">
        <ele>68.870000000000005</ele>
        <time>2026-06-28T15:31:40Z</time>
      </trkpt>
      <trkpt lat="51.902000969275832" lon="-9.782869974151254">
        <ele>69.349999999999994</ele>
        <time>2026-06-28T15:31:41Z</time>
      </trkpt>
      <trkpt lat="51.902217976748943" lon="-9.782723039388657">
        <ele>69.829999999999998</ele>
        <time>2026-06-28T15:31:43Z</time>
      </trkpt>
      <trkpt lat="51.902925996109843" lon="-9.782435959205031">
        <ele>73.680000000000007</ele>
        <time>2026-06-28T15:31:49Z</time>
      </trkpt>
      <trkpt lat="51.90300403162837" lon="-9.782464038580656">
        <ele>74.640000000000001</ele>
        <time>2026-06-28T15:31:50Z</time>
      </trkpt>
      <trkpt lat="51.903073014691472" lon="-9.782522041350603">
        <ele>75.120000000000005</ele>
        <time>2026-06-28T15:31:51Z</time>
      </trkpt>
      <trkpt lat="51.903117019683123" lon="-9.782622959464788">
        <ele>75.599999999999994</ele>
        <time>2026-06-28T15:31:52Z</time>
      </trkpt>
      <trkpt lat="51.903166975826025" lon="-9.782760003581643">
        <ele>76.079999999999998</ele>
        <time>2026-06-28T15:31:53Z</time>
      </trkpt>
      <trkpt lat="51.903221039101481" lon="-9.782907022163272">
        <ele>77.040000000000006</ele>
        <time>2026-06-28T15:31:54Z</time>
      </trkpt>
      <trkpt lat="51.903274012729526" lon="-9.78305496275425">
        <ele>77.040000000000006</ele>
        <time>2026-06-28T15:31:55Z</time>
      </trkpt>
      <trkpt lat="51.903325980529189" lon="-9.783197036013007">
        <ele>77.519999999999996</ele>
        <time>2026-06-28T15:31:56Z</time>
      </trkpt>
      <trkpt lat="51.903418013826013" lon="-9.783280016854405">
        <ele>78</ele>
        <time>2026-06-28T15:31:57Z</time>
      </trkpt>
      <trkpt lat="51.903513986617327" lon="-9.783331984654069">
        <ele>78.969999999999999</ele>
        <time>2026-06-28T15:31:58Z</time>
      </trkpt>
      <trkpt lat="51.903614988550544" lon="-9.783385964110494">
        <ele>79.930000000000007</ele>
        <time>2026-06-28T15:31:59Z</time>
      </trkpt>
      <trkpt lat="51.903822021558881" lon="-9.783497024327517">
        <ele>81.849999999999994</ele>
        <time>2026-06-28T15:32:01Z</time>
      </trkpt>
      <trkpt lat="51.903941966593266" lon="-9.783560978248715">
        <ele>82.329999999999998</ele>
        <time>2026-06-28T15:32:02Z</time>
      </trkpt>
      <trkpt lat="51.90401597879827" lon="-9.783668015152216">
        <ele>83.290000000000006</ele>
        <time>2026-06-28T15:32:03Z</time>
      </trkpt>
      <trkpt lat="51.90466096624732" lon="-9.784420961514115">
        <ele>89.060000000000002</ele>
        <time>2026-06-28T15:32:10Z</time>
      </trkpt>
      <trkpt lat="51.905129011720419" lon="-9.784680968150497">
        <ele>91.939999999999998</ele>
        <time>2026-06-28T15:32:14Z</time>
      </trkpt>
      <trkpt lat="51.905230013653636" lon="-9.784720027819276">
        <ele>91.939999999999998</ele>
        <time>2026-06-28T15:32:15Z</time>
      </trkpt>
      <trkpt lat="51.905607031658292" lon="-9.784637968987227">
        <ele>93.390000000000001</ele>
        <time>2026-06-28T15:32:18Z</time>
      </trkpt>
      <trkpt lat="51.905723037198186" lon="-9.784612990915775">
        <ele>93.870000000000005</ele>
        <time>2026-06-28T15:32:19Z</time>
      </trkpt>
      <trkpt lat="51.905823033303022" lon="-9.784545013681054">
        <ele>94.349999999999994</ele>
        <time>2026-06-28T15:32:20Z</time>
      </trkpt>
      <trkpt lat="51.905994024127722" lon="-9.784428002312779">
        <ele>95.310000000000002</ele>
        <time>2026-06-28T15:32:22Z</time>
      </trkpt>
      <trkpt lat="51.906788963824511" lon="-9.783886028453708">
        <ele>97.230000000000004</ele>
        <time>2026-06-28T15:32:29Z</time>
      </trkpt>
      <trkpt lat="51.90805496647954" lon="-9.782857988029718">
        <ele>95.790000000000006</ele>
        <time>2026-06-28T15:32:39Z</time>
      </trkpt>
      <trkpt lat="51.908320002257824" lon="-9.782531009986997">
        <ele>97.230000000000004</ele>
        <time>2026-06-28T15:32:42Z</time>
      </trkpt>
      <trkpt lat="51.90837599337101" lon="-9.782537966966629">
        <ele>97.230000000000004</ele>
        <time>2026-06-28T15:32:43Z</time>
      </trkpt>
      <trkpt lat="51.908426033332944" lon="-9.782545007765293">
        <ele>97.230000000000004</ele>
        <time>2026-06-28T15:32:44Z</time>
      </trkpt>
      <trkpt lat="51.908476995304227" lon="-9.782550958916545">
        <ele>97.230000000000004</ele>
        <time>2026-06-28T15:32:45Z</time>
      </trkpt>
      <trkpt lat="51.908490993082523" lon="-9.782565040513873">
        <ele>97.709999999999994</ele>
        <time>2026-06-28T15:32:46Z</time>
      </trkpt>
      <trkpt lat="51.908490993082523" lon="-9.782666964456439">
        <ele>98.189999999999998</ele>
        <time>2026-06-28T15:32:47Z</time>
      </trkpt>
      <trkpt lat="51.908490993082523" lon="-9.782801996916533">
        <ele>98.189999999999998</ele>
        <time>2026-06-28T15:32:48Z</time>
      </trkpt>
      <trkpt lat="51.908490993082523" lon="-9.7829470038414">
        <ele>97.709999999999994</ele>
        <time>2026-06-28T15:32:49Z</time>
      </trkpt>
      <trkpt lat="51.908518988639116" lon="-9.783078012987971">
        <ele>97.709999999999994</ele>
        <time>2026-06-28T15:32:50Z</time>
      </trkpt>
      <trkpt lat="51.908546984195709" lon="-9.783177003264427">
        <ele>97.709999999999994</ele>
        <time>2026-06-28T15:32:51Z</time>
      </trkpt>
      <trkpt lat="51.908588977530599" lon="-9.783285968005657">
        <ele>98.189999999999998</ele>
        <time>2026-06-28T15:32:52Z</time>
      </trkpt>
      <trkpt lat="51.908665001392365" lon="-9.783307006582618">
        <ele>98.670000000000002</ele>
        <time>2026-06-28T15:32:53Z</time>
      </trkpt>
      <trkpt lat="51.908727027475834" lon="-9.783325027674437">
        <ele>99.150000000000006</ele>
        <time>2026-06-28T15:32:54Z</time>
      </trkpt>
      <trkpt lat="51.908811014145613" lon="-9.783218996599317">
        <ele>99.629999999999995</ele>
        <time>2026-06-28T15:32:55Z</time>
      </trkpt>
      <trkpt lat="51.908875973895192" lon="-9.783137021586299">
        <ele>100.11</ele>
        <time>2026-06-28T15:32:56Z</time>
      </trkpt>
      <trkpt lat="51.908942023292184" lon="-9.783054040744901">
        <ele>100.59999999999999</ele>
        <time>2026-06-28T15:32:57Z</time>
      </trkpt>
      <trkpt lat="51.909048976376653" lon="-9.782918002456427">
        <ele>100.59999999999999</ele>
        <time>2026-06-28T15:32:59Z</time>
      </trkpt>
      <trkpt lat="51.909169005230069" lon="-9.782871985808015">
        <ele>101.08</ele>
        <time>2026-06-28T15:33:00Z</time>
      </trkpt>
      <trkpt lat="51.909259026870131" lon="-9.78283703327179">
        <ele>101.08</ele>
        <time>2026-06-28T15:33:01Z</time>
      </trkpt>
      <trkpt lat="51.909328009933233" lon="-9.782809959724546">
        <ele>101.08</ele>
        <time>2026-06-28T15:33:02Z</time>
      </trkpt>
      <trkpt lat="51.909420965239406" lon="-9.782872991636396">
        <ele>101.56</ele>
        <time>2026-06-28T15:33:03Z</time>
      </trkpt>
      <trkpt lat="51.909499000757933" lon="-9.78292403742671">
        <ele>101.56</ele>
        <time>2026-06-28T15:33:04Z</time>
      </trkpt>
      <trkpt lat="51.909533031284809" lon="-9.782994026318193">
        <ele>101.56</ele>
        <time>2026-06-28T15:33:05Z</time>
      </trkpt>
      <trkpt lat="51.909559015184641" lon="-9.783120006322861">
        <ele>101.56</ele>
        <time>2026-06-28T15:33:06Z</time>
      </trkpt>
      <trkpt lat="51.909588016569614" lon="-9.783256966620684">
        <ele>101.08</ele>
        <time>2026-06-28T15:33:07Z</time>
      </trkpt>
      <trkpt lat="51.90962003543973" lon="-9.783410020172596">
        <ele>101.08</ele>
        <time>2026-06-28T15:33:08Z</time>
      </trkpt>
      <trkpt lat="51.909681977704167" lon="-9.783705985173583">
        <ele>100.59999999999999</ele>
        <time>2026-06-28T15:33:10Z</time>
      </trkpt>
      <trkpt lat="51.909707961603999" lon="-9.783830037340522">
        <ele>99.629999999999995</ele>
        <time>2026-06-28T15:33:11Z</time>
      </trkpt>
      <trkpt lat="51.90977199934423" lon="-9.783886028453708">
        <ele>99.629999999999995</ele>
        <time>2026-06-28T15:33:12Z</time>
      </trkpt>
      <trkpt lat="51.909842994064093" lon="-9.783917041495442">
        <ele>98.670000000000002</ele>
        <time>2026-06-28T15:33:13Z</time>
      </trkpt>
      <trkpt lat="51.909922035411" lon="-9.783910000696778">
        <ele>98.189999999999998</ele>
        <time>2026-06-28T15:33:14Z</time>
      </trkpt>
      <trkpt lat="51.910019014030695" lon="-9.783873958513141">
        <ele>97.709999999999994</ele>
        <time>2026-06-28T15:33:15Z</time>
      </trkpt>
      <trkpt lat="51.910067964345217" lon="-9.783760970458388">
        <ele>97.709999999999994</ele>
        <time>2026-06-28T15:33:16Z</time>
      </trkpt>
      <trkpt lat="51.910124961286783" lon="-9.783630967140198">
        <ele>97.709999999999994</ele>
        <time>2026-06-28T15:33:17Z</time>
      </trkpt>
      <trkpt lat="51.910186987370253" lon="-9.783489983528853">
        <ele>97.709999999999994</ele>
        <time>2026-06-28T15:33:18Z</time>
      </trkpt>
      <trkpt lat="51.910252030938864" lon="-9.783342964947224">
        <ele>97.230000000000004</ele>
        <time>2026-06-28T15:33:19Z</time>
      </trkpt>
      <trkpt lat="51.910658972337842" lon="-9.782413998618722">
        <ele>95.790000000000006</ele>
        <time>2026-06-28T15:33:25Z</time>
      </trkpt>
      <trkpt lat="51.910725021734834" lon="-9.782279971987009">
        <ele>95.790000000000006</ele>
        <time>2026-06-28T15:33:26Z</time>
      </trkpt>
      <trkpt lat="51.910800039768219" lon="-9.782162038609386">
        <ele>95.310000000000002</ele>
        <time>2026-06-28T15:33:27Z</time>
      </trkpt>
      <trkpt lat="51.910882014781237" lon="-9.782072016969323">
        <ele>95.310000000000002</ele>
        <time>2026-06-28T15:33:28Z</time>
      </trkpt>
      <trkpt lat="51.910972036421299" lon="-9.78204402141273">
        <ele>95.310000000000002</ele>
        <time>2026-06-28T15:33:29Z</time>
      </trkpt>
      <trkpt lat="51.911068009212613" lon="-9.782014014199376">
        <ele>95.310000000000002</ele>
        <time>2026-06-28T15:33:30Z</time>
      </trkpt>
      <trkpt lat="51.911171022802591" lon="-9.781999010592699">
        <ele>94.829999999999998</ele>
        <time>2026-06-28T15:33:31Z</time>
      </trkpt>
      <trkpt lat="51.911281999200583" lon="-9.782012002542615">
        <ele>94.829999999999998</ele>
        <time>2026-06-28T15:33:32Z</time>
      </trkpt>
      <trkpt lat="51.91159799695015" lon="-9.782093977555633">
        <ele>94.349999999999994</ele>
        <time>2026-06-28T15:33:35Z</time>
      </trkpt>
      <trkpt lat="51.911677038297057" lon="-9.782149968668819">
        <ele>94.349999999999994</ele>
        <time>2026-06-28T15:33:36Z</time>
      </trkpt>
      <trkpt lat="51.911754989996552" lon="-9.782232027500868">
        <ele>93.870000000000005</ele>
        <time>2026-06-28T15:33:37Z</time>
      </trkpt>
      <trkpt lat="51.912304004654288" lon="-9.782908027991653">
        <ele>92.900000000000006</ele>
        <time>2026-06-28T15:33:43Z</time>
      </trkpt>
      <trkpt lat="51.91241598688066" lon="-9.782986985519528">
        <ele>92.420000000000002</ele>
        <time>2026-06-28T15:33:44Z</time>
      </trkpt>
      <trkpt lat="51.912534004077315" lon="-9.783026967197657">
        <ele>92.420000000000002</ele>
        <time>2026-06-28T15:33:45Z</time>
      </trkpt>
      <trkpt lat="51.912655960768461" lon="-9.783057980239391">
        <ele>92.420000000000002</ele>
        <time>2026-06-28T15:33:46Z</time>
      </trkpt>
      <trkpt lat="51.912779007107019" lon="-9.783087987452745">
        <ele>91.939999999999998</ele>
        <time>2026-06-28T15:33:47Z</time>
      </trkpt>
      <trkpt lat="51.912910016253591" lon="-9.783068038523197">
        <ele>91.939999999999998</ele>
        <time>2026-06-28T15:33:48Z</time>
      </trkpt>
      <trkpt lat="51.913043037056923" lon="-9.783044988289475">
        <ele>91.459999999999994</ele>
        <time>2026-06-28T15:33:49Z</time>
      </trkpt>
      <trkpt lat="51.913558021187782" lon="-9.78296703658998">
        <ele>90.5</ele>
        <time>2026-06-28T15:33:53Z</time>
      </trkpt>
      <trkpt lat="51.913672015070915" lon="-9.782996959984303">
        <ele>90.019999999999996</ele>
        <time>2026-06-28T15:33:54Z</time>
      </trkpt>
      <trkpt lat="51.914494028314948" lon="-9.783169962465763">
        <ele>89.060000000000002</ele>
        <time>2026-06-28T15:34:01Z</time>
      </trkpt>
      <trkpt lat="51.914596036076546" lon="-9.783125035464764">
        <ele>89.060000000000002</ele>
        <time>2026-06-28T15:34:02Z</time>
      </trkpt>
      <trkpt lat="51.914683040231466" lon="-9.78305303491652">
        <ele>89.060000000000002</ele>
        <time>2026-06-28T15:34:03Z</time>
      </trkpt>
      <trkpt lat="51.914769960567355" lon="-9.782963013276458">
        <ele>89.060000000000002</ele>
        <time>2026-06-28T15:34:04Z</time>
      </trkpt>
      <trkpt lat="51.914860988035798" lon="-9.782867962494493">
        <ele>88.579999999999998</ele>
        <time>2026-06-28T15:34:05Z</time>
      </trkpt>
      <trkpt lat="51.914946986362338" lon="-9.782778024673462">
        <ele>88.579999999999998</ele>
        <time>2026-06-28T15:34:06Z</time>
      </trkpt>
      <trkpt lat="51.915023010224104" lon="-9.782697977498174">
        <ele>88.579999999999998</ele>
        <time>2026-06-28T15:34:07Z</time>
      </trkpt>
      <trkpt lat="51.91510003991425" lon="-9.782617008313537">
        <ele>88.099999999999994</ele>
        <time>2026-06-28T15:34:08Z</time>
      </trkpt>
      <trkpt lat="51.915177991613746" lon="-9.78258197195828">
        <ele>88.099999999999994</ele>
        <time>2026-06-28T15:34:09Z</time>
      </trkpt>
      <trkpt lat="51.915262984111905" lon="-9.782544001936913">
        <ele>87.620000000000005</ele>
        <time>2026-06-28T15:34:10Z</time>
      </trkpt>
      <trkpt lat="51.91535803489387" lon="-9.782502008602023">
        <ele>87.140000000000001</ele>
        <time>2026-06-28T15:34:11Z</time>
      </trkpt>
      <trkpt lat="51.915460964664817" lon="-9.782455991953611">
        <ele>87.140000000000001</ele>
        <time>2026-06-28T15:34:12Z</time>
      </trkpt>
      <trkpt lat="51.91557202488184" lon="-9.782406035810709">
        <ele>86.180000000000007</ele>
        <time>2026-06-28T15:34:13Z</time>
      </trkpt>
      <trkpt lat="51.91654097288847" lon="-9.782075034454465">
        <ele>81.849999999999994</ele>
        <time>2026-06-28T15:34:21Z</time>
      </trkpt>
      <trkpt lat="51.916656978428364" lon="-9.782102024182677">
        <ele>80.890000000000001</ele>
        <time>2026-06-28T15:34:22Z</time>
      </trkpt>
      <trkpt lat="51.916752029210329" lon="-9.782123984768987">
        <ele>80.409999999999997</ele>
        <time>2026-06-28T15:34:23Z</time>
      </trkpt>
      <trkpt lat="51.91682000644505" lon="-9.782242001965642">
        <ele>79.450000000000003</ele>
        <time>2026-06-28T15:34:24Z</time>
      </trkpt>
      <trkpt lat="51.916924025863409" lon="-9.782423973083496">
        <ele>78.969999999999999</ele>
        <time>2026-06-28T15:34:25Z</time>
      </trkpt>
      <trkpt lat="51.916943974792957" lon="-9.782519023865461">
        <ele>78.480000000000004</ele>
        <time>2026-06-28T15:34:26Z</time>
      </trkpt>
      <trkpt lat="51.916981022804976" lon="-9.782693032175303">
        <ele>78</ele>
        <time>2026-06-28T15:34:27Z</time>
      </trkpt>
      <trkpt lat="51.91731596365571" lon="-9.783922992646694">
        <ele>77.040000000000006</ele>
        <time>2026-06-28T15:34:34Z</time>
      </trkpt>
      <trkpt lat="51.917384024709463" lon="-9.784088032320142">
        <ele>77.040000000000006</ele>
        <time>2026-06-28T15:34:35Z</time>
      </trkpt>
      <trkpt lat="51.917492989450693" lon="-9.784175958484411">
        <ele>77.519999999999996</ele>
        <time>2026-06-28T15:34:36Z</time>
      </trkpt>
      <trkpt lat="51.917606983333826" lon="-9.784243013709784">
        <ele>77.519999999999996</ele>
        <time>2026-06-28T15:34:37Z</time>
      </trkpt>
      <trkpt lat="51.917730029672384" lon="-9.784316020086408">
        <ele>77.519999999999996</ele>
        <time>2026-06-28T15:34:38Z</time>
      </trkpt>
      <trkpt lat="51.918118027970195" lon="-9.784545013681054">
        <ele>78</ele>
        <time>2026-06-28T15:34:41Z</time>
      </trkpt>
      <trkpt lat="51.918256999924779" lon="-9.784617014229298">
        <ele>78</ele>
        <time>2026-06-28T15:34:42Z</time>
      </trkpt>
      <trkpt lat="51.919622998684645" lon="-9.784868974238634">
        <ele>80.409999999999997</ele>
        <time>2026-06-28T15:34:52Z</time>
      </trkpt>
      <trkpt lat="51.919717965647578" lon="-9.784934017807245">
        <ele>80.890000000000001</ele>
        <time>2026-06-28T15:34:53Z</time>
      </trkpt>
      <trkpt lat="51.919811004772782" lon="-9.784998977556825">
        <ele>81.370000000000005</ele>
        <time>2026-06-28T15:34:54Z</time>
      </trkpt>
      <trkpt lat="51.919891973957419" lon="-9.785107020288706">
        <ele>81.849999999999994</ele>
        <time>2026-06-28T15:34:55Z</time>
      </trkpt>
      <trkpt lat="51.919970009475946" lon="-9.785242974758148">
        <ele>82.329999999999998</ele>
        <time>2026-06-28T15:34:56Z</time>
      </trkpt>
      <trkpt lat="51.920052990317345" lon="-9.785386975854635">
        <ele>82.810000000000002</ele>
        <time>2026-06-28T15:34:57Z</time>
      </trkpt>
      <trkpt lat="51.920137982815504" lon="-9.785535000264645">
        <ele>83.769999999999996</ele>
        <time>2026-06-28T15:34:58Z</time>
      </trkpt>
      <trkpt lat="51.920224986970425" lon="-9.785685958340764">
        <ele>84.730000000000004</ele>
        <time>2026-06-28T15:34:59Z</time>
      </trkpt>
      <trkpt lat="51.920310985296965" lon="-9.785834988579154">
        <ele>85.689999999999998</ele>
        <time>2026-06-28T15:35:00Z</time>
      </trkpt>
      <trkpt lat="51.920421961694956" lon="-9.786029029637575">
        <ele>86.180000000000007</ele>
        <time>2026-06-28T15:35:01Z</time>
      </trkpt>
      <trkpt lat="51.920508965849876" lon="-9.786090971902013">
        <ele>86.659999999999997</ele>
        <time>2026-06-28T15:35:02Z</time>
      </trkpt>
      <trkpt lat="51.920632012188435" lon="-9.786177976056933">
        <ele>87.140000000000001</ele>
        <time>2026-06-28T15:35:03Z</time>
      </trkpt>
      <trkpt lat="51.921015987172723" lon="-9.786419039592147">
        <ele>87.140000000000001</ele>
        <time>2026-06-28T15:35:06Z</time>
      </trkpt>
      <trkpt lat="51.921904971823096" lon="-9.786739982664585">
        <ele>88.579999999999998</ele>
        <time>2026-06-28T15:35:14Z</time>
      </trkpt>
      <trkpt lat="51.922285007312894" lon="-9.787027984857559">
        <ele>88.099999999999994</ele>
        <time>2026-06-28T15:35:18Z</time>
      </trkpt>
      <trkpt lat="51.922590024769306" lon="-9.787250021472573">
        <ele>88.579999999999998</ele>
        <time>2026-06-28T15:35:24Z</time>
      </trkpt>
      <trkpt lat="51.92274902947247" lon="-9.787349011749029">
        <ele>89.060000000000002</ele>
        <time>2026-06-28T15:35:47Z</time>
      </trkpt>
      <trkpt lat="51.923196958377957" lon="-9.787629973143339">
        <ele>89.540000000000006</ele>
        <time>2026-06-28T15:35:52Z</time>
      </trkpt>
      <trkpt lat="51.923256972804666" lon="-9.787592003121972">
        <ele>89.540000000000006</ele>
        <time>2026-06-28T15:35:53Z</time>
      </trkpt>
      <trkpt lat="51.923320004716516" lon="-9.787529977038503">
        <ele>90.019999999999996</ele>
        <time>2026-06-28T15:35:54Z</time>
      </trkpt>
      <trkpt lat="51.923399968072772" lon="-9.787450013682246">
        <ele>90.019999999999996</ele>
        <time>2026-06-28T15:35:55Z</time>
      </trkpt>
      <trkpt lat="51.923495018854737" lon="-9.787354962900281">
        <ele>90.019999999999996</ele>
        <time>2026-06-28T15:35:56Z</time>
      </trkpt>
      <trkpt lat="51.92358797416091" lon="-9.787261001765728">
        <ele>90.019999999999996</ele>
        <time>2026-06-28T15:35:57Z</time>
      </trkpt>
      <trkpt lat="51.923666009679437" lon="-9.787274999544025">
        <ele>90.5</ele>
        <time>2026-06-28T15:35:58Z</time>
      </trkpt>
      <trkpt lat="51.923729041591287" lon="-9.787296038120985">
        <ele>90.5</ele>
        <time>2026-06-28T15:35:59Z</time>
      </trkpt>
      <trkpt lat="51.923801964148879" lon="-9.787324033677578">
        <ele>90.980000000000004</ele>
        <time>2026-06-28T15:36:00Z</time>
      </trkpt>
      <trkpt lat="51.923898020759225" lon="-9.787385975942016">
        <ele>91.459999999999994</ele>
        <time>2026-06-28T15:36:01Z</time>
      </trkpt>
      <trkpt lat="51.924530016258359" lon="-9.787713037803769">
        <ele>92.900000000000006</ele>
        <time>2026-06-28T15:36:07Z</time>
      </trkpt>
      <trkpt lat="51.924877027049661" lon="-9.787580017000437">
        <ele>94.829999999999998</ele>
        <time>2026-06-28T15:36:10Z</time>
      </trkpt>
      <trkpt lat="51.924953972920775" lon="-9.787593008950353">
        <ele>95.310000000000002</ele>
        <time>2026-06-28T15:36:11Z</time>
      </trkpt>
      <trkpt lat="51.925008958205581" lon="-9.787671966478229">
        <ele>95.790000000000006</ele>
        <time>2026-06-28T15:36:12Z</time>
      </trkpt>
      <trkpt lat="51.925049023702741" lon="-9.78778000921011">
        <ele>96.269999999999996</ele>
        <time>2026-06-28T15:36:13Z</time>
      </trkpt>
      <trkpt lat="51.925087999552488" lon="-9.787929961457849">
        <ele>97.230000000000004</ele>
        <time>2026-06-28T15:36:14Z</time>
      </trkpt>
      <trkpt lat="51.925135022029281" lon="-9.788113022223115">
        <ele>98.189999999999998</ele>
        <time>2026-06-28T15:36:15Z</time>
      </trkpt>
      <trkpt lat="51.925255972892046" lon="-9.788588024675846">
        <ele>99.629999999999995</ele>
        <time>2026-06-28T15:36:18Z</time>
      </trkpt>
      <trkpt lat="51.925319004803896" lon="-9.788671005517244">
        <ele>100.11</ele>
        <time>2026-06-28T15:36:19Z</time>
      </trkpt>
      <trkpt lat="51.925399973988533" lon="-9.788710987195373">
        <ele>100.11</ele>
        <time>2026-06-28T15:36:20Z</time>
      </trkpt>
      <trkpt lat="51.925480021163821" lon="-9.788678968325257">
        <ele>100.59999999999999</ele>
        <time>2026-06-28T15:36:21Z</time>
      </trkpt>
      <trkpt lat="51.925569036975503" lon="-9.788644015789032">
        <ele>100.59999999999999</ele>
        <time>2026-06-28T15:36:22Z</time>
      </trkpt>
      <trkpt lat="51.925653023645282" lon="-9.788609985262156">
        <ele>100.59999999999999</ele>
        <time>2026-06-28T15:36:23Z</time>
      </trkpt>
      <trkpt lat="51.925730975344777" lon="-9.788588024675846">
        <ele>100.59999999999999</ele>
        <time>2026-06-28T15:36:24Z</time>
      </trkpt>
      <trkpt lat="51.92579903639853" lon="-9.788629012182355">
        <ele>101.08</ele>
        <time>2026-06-28T15:36:25Z</time>
      </trkpt>
      <trkpt lat="51.925875982269645" lon="-9.788728002458811">
        <ele>101.56</ele>
        <time>2026-06-28T15:36:26Z</time>
      </trkpt>
      <trkpt lat="51.925958041101694" lon="-9.788870997726917">
        <ele>102.04000000000001</ele>
        <time>2026-06-28T15:36:27Z</time>
      </trkpt>
      <trkpt lat="51.926244031637907" lon="-9.789368966594338">
        <ele>104.44</ele>
        <time>2026-06-28T15:36:30Z</time>
      </trkpt>
      <trkpt lat="51.926321983337402" lon="-9.789503999054432">
        <ele>105.40000000000001</ele>
        <time>2026-06-28T15:36:31Z</time>
      </trkpt>
      <trkpt lat="51.926385015249252" lon="-9.789613969624043">
        <ele>105.88</ele>
        <time>2026-06-28T15:36:32Z</time>
      </trkpt>
      <trkpt lat="51.926473025232553" lon="-9.789666021242738">
        <ele>106.36</ele>
        <time>2026-06-28T15:36:33Z</time>
      </trkpt>
      <trkpt lat="51.926576038822532" lon="-9.789656968787313">
        <ele>106.84</ele>
        <time>2026-06-28T15:36:34Z</time>
      </trkpt>
      <trkpt lat="51.926685003563762" lon="-9.789599971845746">
        <ele>107.31999999999999</ele>
        <time>2026-06-28T15:36:35Z</time>
      </trkpt>
      <trkpt lat="51.926800003275275" lon="-9.78954004123807">
        <ele>107.81</ele>
        <time>2026-06-28T15:36:36Z</time>
      </trkpt>
      <trkpt lat="51.926995972171426" lon="-9.789437027648091">
        <ele>108.77</ele>
        <time>2026-06-28T15:36:38Z</time>
      </trkpt>
      <trkpt lat="51.927060009911656" lon="-9.789430992677808">
        <ele>109.25</ele>
        <time>2026-06-28T15:36:39Z</time>
      </trkpt>
      <trkpt lat="51.927137961611152" lon="-9.789462005719543">
        <ele>109.73</ele>
        <time>2026-06-28T15:36:40Z</time>
      </trkpt>
      <trkpt lat="51.927194958552718" lon="-9.78954297490418">
        <ele>110.20999999999999</ele>
        <time>2026-06-28T15:36:41Z</time>
      </trkpt>
      <trkpt lat="51.927276011556387" lon="-9.789659986272454">
        <ele>111.17</ele>
        <time>2026-06-28T15:36:42Z</time>
      </trkpt>
      <trkpt lat="51.927652023732662" lon="-9.790197014808655">
        <ele>113.09</ele>
        <time>2026-06-28T15:36:46Z</time>
      </trkpt>
      <trkpt lat="51.927722012624145" lon="-9.790297010913491">
        <ele>113.56999999999999</ele>
        <time>2026-06-28T15:36:47Z</time>
      </trkpt>
      <trkpt lat="51.927829971536994" lon="-9.790269015356898">
        <ele>114.05</ele>
        <time>2026-06-28T15:36:48Z</time>
      </trkpt>
      <trkpt lat="51.927910018712282" lon="-9.790224004536867">
        <ele>114.05</ele>
        <time>2026-06-28T15:36:49Z</time>
      </trkpt>
      <trkpt lat="51.927986964583397" lon="-9.790181005373597">
        <ele>114.53</ele>
        <time>2026-06-28T15:36:50Z</time>
      </trkpt>
      <trkpt lat="51.92805603146553" lon="-9.79014202952385">
        <ele>114.53</ele>
        <time>2026-06-28T15:36:51Z</time>
      </trkpt>
      <trkpt lat="51.928111016750336" lon="-9.790157033130527">
        <ele>115.01000000000001</ele>
        <time>2026-06-28T15:36:52Z</time>
      </trkpt>
      <trkpt lat="51.928168013691902" lon="-9.790213024243712">
        <ele>115.5</ele>
        <time>2026-06-28T15:36:53Z</time>
      </trkpt>
      <trkpt lat="51.928188968449831" lon="-9.790296005085111">
        <ele>115.5</ele>
        <time>2026-06-28T15:36:54Z</time>
      </trkpt>
      <trkpt lat="51.928222998976707" lon="-9.790434977039695">
        <ele>115.98</ele>
        <time>2026-06-28T15:36:55Z</time>
      </trkpt>
      <trkpt lat="51.928306985646486" lon="-9.790768995881081">
        <ele>116.94</ele>
        <time>2026-06-28T15:36:57Z</time>
      </trkpt>
      <trkpt lat="51.928383009508252" lon="-9.790892964228988">
        <ele>117.42</ele>
        <time>2026-06-28T15:36:58Z</time>
      </trkpt>
      <trkpt lat="51.928473031148314" lon="-9.791002012789249">
        <ele>118.38</ele>
        <time>2026-06-28T15:36:59Z</time>
      </trkpt>
      <trkpt lat="51.928556011989713" lon="-9.791103014722467">
        <ele>119.34</ele>
        <time>2026-06-28T15:37:00Z</time>
      </trkpt>
      <trkpt lat="51.928648967295885" lon="-9.79115498252213">
        <ele>119.81999999999999</ele>
        <time>2026-06-28T15:37:01Z</time>
      </trkpt>
      <trkpt lat="51.928725996986032" lon="-9.791094968095422">
        <ele>120.3</ele>
        <time>2026-06-28T15:37:02Z</time>
      </trkpt>
      <trkpt lat="51.928820963948965" lon="-9.791021039709449">
        <ele>120.78</ele>
        <time>2026-06-28T15:37:03Z</time>
      </trkpt>
      <trkpt lat="51.928929006680846" lon="-9.790936969220638">
        <ele>121.26000000000001</ele>
        <time>2026-06-28T15:37:04Z</time>
      </trkpt>
      <trkpt lat="51.929005030542612" lon="-9.790877960622311">
        <ele>121.73999999999999</ele>
        <time>2026-06-28T15:37:05Z</time>
      </trkpt>
      <trkpt lat="51.92913101054728" lon="-9.790842002257705">
        <ele>121.73999999999999</ele>
        <time>2026-06-28T15:37:06Z</time>
      </trkpt>
      <trkpt lat="51.929209968075156" lon="-9.790820041671395">
        <ele>122.22</ele>
        <time>2026-06-28T15:37:07Z</time>
      </trkpt>
      <trkpt lat="51.929305018857121" lon="-9.790792968124151">
        <ele>122.70999999999999</ele>
        <time>2026-06-28T15:37:08Z</time>
      </trkpt>
      <trkpt lat="51.929357992485166" lon="-9.790845019742847">
        <ele>123.19</ele>
        <time>2026-06-28T15:37:09Z</time>
      </trkpt>
      <trkpt lat="51.92941197194159" lon="-9.790900005027652">
        <ele>123.19</ele>
        <time>2026-06-28T15:37:10Z</time>
      </trkpt>
      <trkpt lat="51.929455976933241" lon="-9.791013998910785">
        <ele>123.19</ele>
        <time>2026-06-28T15:37:11Z</time>
      </trkpt>
      <trkpt lat="51.929491013288498" lon="-9.791104020550847">
        <ele>123.67</ele>
        <time>2026-06-28T15:37:12Z</time>
      </trkpt>
      <trkpt lat="51.929520014673471" lon="-9.791219020262361">
        <ele>123.67</ele>
        <time>2026-06-28T15:37:13Z</time>
      </trkpt>
      <trkpt lat="51.929520014673471" lon="-9.791377019137144">
        <ele>123.67</ele>
        <time>2026-06-28T15:37:14Z</time>
      </trkpt>
      <trkpt lat="51.929520014673471" lon="-9.791563013568521">
        <ele>124.15000000000001</ele>
        <time>2026-06-28T15:37:15Z</time>
      </trkpt>
      <trkpt lat="51.929520014673471" lon="-9.791769040748477">
        <ele>124.63</ele>
        <time>2026-06-28T15:37:16Z</time>
      </trkpt>
      <trkpt lat="51.929528983309865" lon="-9.791986970230937">
        <ele>125.59</ele>
        <time>2026-06-28T15:37:17Z</time>
      </trkpt>
      <trkpt lat="51.929548010230064" lon="-9.792202971875668">
        <ele>126.06999999999999</ele>
        <time>2026-06-28T15:37:18Z</time>
      </trkpt>
      <trkpt lat="51.92958103492856" lon="-9.792560040950775">
        <ele>127.03</ele>
        <time>2026-06-28T15:37:20Z</time>
      </trkpt>
      <trkpt lat="51.92962596192956" lon="-9.79265701957047">
        <ele>127.51000000000001</ele>
        <time>2026-06-28T15:37:21Z</time>
      </trkpt>
      <trkpt lat="51.92971296608448" lon="-9.792788028717041">
        <ele>127.98999999999999</ele>
        <time>2026-06-28T15:37:22Z</time>
      </trkpt>
      <trkpt lat="51.929777003824711" lon="-9.792843014001846">
        <ele>128.47</ele>
        <time>2026-06-28T15:37:23Z</time>
      </trkpt>
      <trkpt lat="51.929883034899831" lon="-9.792934963479638">
        <ele>128.94999999999999</ele>
        <time>2026-06-28T15:37:24Z</time>
      </trkpt>
      <trkpt lat="51.930001974105835" lon="-9.793037977069616">
        <ele>129.43000000000001</ele>
        <time>2026-06-28T15:37:25Z</time>
      </trkpt>
      <trkpt lat="51.93011999130249" lon="-9.793139984831214">
        <ele>130.40000000000001</ele>
        <time>2026-06-28T15:37:26Z</time>
      </trkpt>
      <trkpt lat="51.930213030427694" lon="-9.793254984542728">
        <ele>130.88</ele>
        <time>2026-06-28T15:37:27Z</time>
      </trkpt>
      <trkpt lat="51.930282013490796" lon="-9.793400997295976">
        <ele>131.36000000000001</ele>
        <time>2026-06-28T15:37:28Z</time>
      </trkpt>
      <trkpt lat="51.930360971018672" lon="-9.793566958978772">
        <ele>132.31999999999999</ele>
        <time>2026-06-28T15:37:29Z</time>
      </trkpt>
      <trkpt lat="51.930416962131858" lon="-9.793790001422167">
        <ele>132.80000000000001</ele>
        <time>2026-06-28T15:37:30Z</time>
      </trkpt>
      <trkpt lat="51.930473959073424" lon="-9.794027963653207">
        <ele>133.28</ele>
        <time>2026-06-28T15:37:31Z</time>
      </trkpt>
      <trkpt lat="51.930584013462067" lon="-9.794201971963048">
        <ele>133.75999999999999</ele>
        <time>2026-06-28T15:37:32Z</time>
      </trkpt>
      <trkpt lat="51.930694989860058" lon="-9.79437698610127">
        <ele>134.24000000000001</ele>
        <time>2026-06-28T15:37:33Z</time>
      </trkpt>
      <trkpt lat="51.930814012885094" lon="-9.794518975540996">
        <ele>134.72</ele>
        <time>2026-06-28T15:37:34Z</time>
      </trkpt>
      <trkpt lat="51.930924989283085" lon="-9.794637998566032">
        <ele>135.68000000000001</ele>
        <time>2026-06-28T15:37:35Z</time>
      </trkpt>
      <trkpt lat="51.93102297373116" lon="-9.794757021591067">
        <ele>136.16</ele>
        <time>2026-06-28T15:37:36Z</time>
      </trkpt>
      <trkpt lat="51.93110503256321" lon="-9.794898005202413">
        <ele>136.63999999999999</ele>
        <time>2026-06-28T15:37:37Z</time>
      </trkpt>
      <trkpt lat="51.931464029476047" lon="-9.795511979609728">
        <ele>138.09</ele>
        <time>2026-06-28T15:37:41Z</time>
      </trkpt>
      <trkpt lat="51.931533012539148" lon="-9.795606024563313">
        <ele>138.56999999999999</ele>
        <time>2026-06-28T15:37:42Z</time>
      </trkpt>
      <trkpt lat="51.931623034179211" lon="-9.795641982927918">
        <ele>139.05000000000001</ele>
        <time>2026-06-28T15:37:43Z</time>
      </trkpt>
      <trkpt lat="51.931695034727454" lon="-9.795598983764648">
        <ele>139.53</ele>
        <time>2026-06-28T15:37:44Z</time>
      </trkpt>
      <trkpt lat="51.93179695867002" lon="-9.79553796350956">
        <ele>140.00999999999999</ele>
        <time>2026-06-28T15:37:45Z</time>
      </trkpt>
      <trkpt lat="51.931913970038295" lon="-9.795466968789697">
        <ele>140.49000000000001</ele>
        <time>2026-06-28T15:37:46Z</time>
      </trkpt>
      <trkpt lat="51.93205201998353" lon="-9.795384993776679">
        <ele>140.49000000000001</ele>
        <time>2026-06-28T15:37:47Z</time>
      </trkpt>
      <trkpt lat="51.932727014645934" lon="-9.795239986851811">
        <ele>144.34</ele>
        <time>2026-06-28T15:37:53Z</time>
      </trkpt>
      <trkpt lat="51.933489013463259" lon="-9.794718967750669">
        <ele>148.18000000000001</ele>
        <time>2026-06-28T15:38:01Z</time>
      </trkpt>
      <trkpt lat="51.933551961556077" lon="-9.794616959989071">
        <ele>148.66</ele>
        <time>2026-06-28T15:38:02Z</time>
      </trkpt>
      <trkpt lat="51.93372999317944" lon="-9.79440095834434">
        <ele>150.09999999999999</ele>
        <time>2026-06-28T15:38:04Z</time>
      </trkpt>
      <trkpt lat="51.933838035911322" lon="-9.794339016079903">
        <ele>151.06</ele>
        <time>2026-06-28T15:38:05Z</time>
      </trkpt>
      <trkpt lat="51.93394498899579" lon="-9.794277995824814">
        <ele>151.53999999999999</ele>
        <time>2026-06-28T15:38:06Z</time>
      </trkpt>
      <trkpt lat="51.934023024514318" lon="-9.7941629961133">
        <ele>152.03</ele>
        <time>2026-06-28T15:38:07Z</time>
      </trkpt>
      <trkpt lat="51.934084966778755" lon="-9.794057970866561">
        <ele>152.99000000000001</ele>
        <time>2026-06-28T15:38:08Z</time>
      </trkpt>
      <trkpt lat="51.934170965105295" lon="-9.794004997238517">
        <ele>153.47</ele>
        <time>2026-06-28T15:38:09Z</time>
      </trkpt>
      <trkpt lat="51.934246988967061" lon="-9.793998040258884">
        <ele>154.91</ele>
        <time>2026-06-28T15:38:10Z</time>
      </trkpt>
      <trkpt lat="51.934326030313969" lon="-9.79398999363184">
        <ele>155.87</ele>
        <time>2026-06-28T15:38:11Z</time>
      </trkpt>
      <trkpt lat="51.934426026418805" lon="-9.794018995016813">
        <ele>156.34999999999999</ele>
        <time>2026-06-28T15:38:12Z</time>
      </trkpt>
      <trkpt lat="51.934529962018132" lon="-9.794050008058548">
        <ele>157.31</ele>
        <time>2026-06-28T15:38:13Z</time>
      </trkpt>
      <trkpt lat="51.935645006597042" lon="-9.794456027448177">
        <ele>160.68000000000001</ele>
        <time>2026-06-28T15:38:22Z</time>
      </trkpt>
      <trkpt lat="51.935966033488512" lon="-9.794616959989071">
        <ele>161.16</ele>
        <time>2026-06-28T15:38:25Z</time>
      </trkpt>
      <trkpt lat="51.936067035421729" lon="-9.794658031314611">
        <ele>162.12</ele>
        <time>2026-06-28T15:38:26Z</time>
      </trkpt>
      <trkpt lat="51.936382027342916" lon="-9.794697007164359">
        <ele>162.12</ele>
        <time>2026-06-28T15:38:29Z</time>
      </trkpt>
      <trkpt lat="51.93647800013423" lon="-9.794755009934306">
        <ele>162.12</ele>
        <time>2026-06-28T15:38:30Z</time>
      </trkpt>
      <trkpt lat="51.936575984582305" lon="-9.794814018532634">
        <ele>162.12</ele>
        <time>2026-06-28T15:38:31Z</time>
      </trkpt>
      <trkpt lat="51.936665000393987" lon="-9.79487000964582">
        <ele>162.12</ele>
        <time>2026-06-28T15:38:32Z</time>
      </trkpt>
      <trkpt lat="51.936748987063766" lon="-9.795028008520603">
        <ele>161.63999999999999</ele>
        <time>2026-06-28T15:38:33Z</time>
      </trkpt>
      <trkpt lat="51.936817970126867" lon="-9.795160023495555">
        <ele>161.16</ele>
        <time>2026-06-28T15:38:34Z</time>
      </trkpt>
      <trkpt lat="51.936879996210337" lon="-9.79527703486383">
        <ele>160.19999999999999</ele>
        <time>2026-06-28T15:38:35Z</time>
      </trkpt>
      <trkpt lat="51.936978986486793" lon="-9.795393040403724">
        <ele>159.24000000000001</ele>
        <time>2026-06-28T15:38:36Z</time>
      </trkpt>
      <trkpt lat="51.937090968713164" lon="-9.795479960739613">
        <ele>158.27000000000001</ele>
        <time>2026-06-28T15:38:37Z</time>
      </trkpt>
      <trkpt lat="51.937210997566581" lon="-9.795555984601378">
        <ele>157.31</ele>
        <time>2026-06-28T15:38:38Z</time>
      </trkpt>
      <trkpt lat="51.937597990036011" lon="-9.795873994007707">
        <ele>154.43000000000001</ele>
        <time>2026-06-28T15:38:42Z</time>
      </trkpt>
      <trkpt lat="51.937663033604622" lon="-9.795977007597685">
        <ele>153.94999999999999</ele>
        <time>2026-06-28T15:38:43Z</time>
      </trkpt>
      <trkpt lat="51.937709972262383" lon="-9.796122014522553">
        <ele>153.47</ele>
        <time>2026-06-28T15:38:44Z</time>
      </trkpt>
      <trkpt lat="51.937953969463706" lon="-9.796874960884452">
        <ele>153.47</ele>
        <time>2026-06-28T15:38:51Z</time>
      </trkpt>
      <trkpt lat="51.937980959191918" lon="-9.796959031373262">
        <ele>153.47</ele>
        <time>2026-06-28T15:38:52Z</time>
      </trkpt>
      <trkpt lat="51.938257981091738" lon="-9.797647017985582">
        <ele>153.47</ele>
        <time>2026-06-28T15:38:59Z</time>
      </trkpt>
      <trkpt lat="51.938323024660349" lon="-9.797778027132154">
        <ele>153.47</ele>
        <time>2026-06-28T15:39:07Z</time>
      </trkpt>
      <trkpt lat="51.938354959711432" lon="-9.797841981053352">
        <ele>152.99000000000001</ele>
        <time>2026-06-28T15:39:08Z</time>
      </trkpt>
      <trkpt lat="51.938383039087057" lon="-9.797933008521795">
        <ele>152.99000000000001</ele>
        <time>2026-06-28T15:39:09Z</time>
      </trkpt>
      <trkpt lat="51.938385972753167" lon="-9.798020012676716">
        <ele>153.47</ele>
        <time>2026-06-28T15:39:10Z</time>
      </trkpt>
      <trkpt lat="51.938401982188225" lon="-9.798470037057996">
        <ele>154.43000000000001</ele>
        <time>2026-06-28T15:39:14Z</time>
      </trkpt>
      <trkpt lat="51.938432995229959" lon="-9.798571038991213">
        <ele>155.38999999999999</ele>
        <time>2026-06-28T15:39:15Z</time>
      </trkpt>
      <trkpt lat="51.938469037413597" lon="-9.798660976812244">
        <ele>156.34999999999999</ele>
        <time>2026-06-28T15:39:16Z</time>
      </trkpt>
      <trkpt lat="51.938538020476699" lon="-9.798859041184187">
        <ele>158.27000000000001</ele>
        <time>2026-06-28T15:39:18Z</time>
      </trkpt>
      <trkpt lat="51.938556041568518" lon="-9.798974962905049">
        <ele>159.24000000000001</ele>
        <time>2026-06-28T15:39:19Z</time>
      </trkpt>
      <trkpt lat="51.938573978841305" lon="-9.799097003415227">
        <ele>159.72</ele>
        <time>2026-06-28T15:39:20Z</time>
      </trkpt>
      <trkpt lat="51.938759973272681" lon="-9.800214981660247">
        <ele>161.63999999999999</ele>
        <time>2026-06-28T15:39:28Z</time>
      </trkpt>
      <trkpt lat="51.938896011561155" lon="-9.800644973292947">
        <ele>162.12</ele>
        <time>2026-06-28T15:39:32Z</time>
      </trkpt>
      <trkpt lat="51.938958037644625" lon="-9.80084203183651">
        <ele>161.63999999999999</ele>
        <time>2026-06-28T15:39:34Z</time>
      </trkpt>
      <trkpt lat="51.939089968800545" lon="-9.801044035702944">
        <ele>160.68000000000001</ele>
        <time>2026-06-28T15:39:37Z</time>
      </trkpt>
      <trkpt lat="51.939140008762479" lon="-9.801102038472891">
        <ele>160.68000000000001</ele>
        <time>2026-06-28T15:39:38Z</time>
      </trkpt>
      <trkpt lat="51.939453994855285" lon="-9.801521971821785">
        <ele>160.68000000000001</ele>
        <time>2026-06-28T15:39:45Z</time>
      </trkpt>
      <trkpt lat="51.939490037038922" lon="-9.801612999290228">
        <ele>161.16</ele>
        <time>2026-06-28T15:39:46Z</time>
      </trkpt>
      <trkpt lat="51.939664967358112" lon="-9.802059000357986">
        <ele>163.56</ele>
        <time>2026-06-28T15:39:51Z</time>
      </trkpt>
      <trkpt lat="51.940124966204166" lon="-9.803203968331218">
        <ele>172.21000000000001</ele>
        <time>2026-06-28T15:40:03Z</time>
      </trkpt>
      <trkpt lat="51.940397964790463" lon="-9.803737979382277">
        <ele>179.90000000000001</ele>
        <time>2026-06-28T15:40:08Z</time>
      </trkpt>
      <trkpt lat="51.940598040819168" lon="-9.80419403873384">
        <ele>189.03999999999999</ele>
        <time>2026-06-28T15:40:15Z</time>
      </trkpt>
      <trkpt lat="51.9406049977988" lon="-9.804228991270065">
        <ele>191.44</ele>
        <time>2026-06-28T15:40:29Z</time>
      </trkpt>
      <trkpt lat="51.940665012225509" lon="-9.804491009563208">
        <ele>194.80000000000001</ele>
        <time>2026-06-28T15:40:46Z</time>
      </trkpt>
      <trkpt lat="51.940681021660566" lon="-9.804568039253354">
        <ele>195.77000000000001</ele>
        <time>2026-06-28T15:40:47Z</time>
      </trkpt>
      <trkpt lat="51.940725026652217" lon="-9.804889988154173">
        <ele>196.72999999999999</ele>
        <time>2026-06-28T15:40:51Z</time>
      </trkpt>
      <trkpt lat="51.940737012773752" lon="-9.804973974823952">
        <ele>197.21000000000001</ele>
        <time>2026-06-28T15:40:52Z</time>
      </trkpt>
      <trkpt lat="51.940748998895288" lon="-9.805062990635634">
        <ele>197.69</ele>
        <time>2026-06-28T15:40:53Z</time>
      </trkpt>
      <trkpt lat="51.940760985016823" lon="-9.805149994790554">
        <ele>198.16999999999999</ele>
        <time>2026-06-28T15:40:54Z</time>
      </trkpt>
      <trkpt lat="51.940772971138358" lon="-9.805233981460333">
        <ele>198.65000000000001</ele>
        <time>2026-06-28T15:40:55Z</time>
      </trkpt>
      <trkpt lat="51.940785041078925" lon="-9.805320985615253">
        <ele>199.61000000000001</ele>
        <time>2026-06-28T15:40:56Z</time>
      </trkpt>
      <trkpt lat="51.94079702720046" lon="-9.805410001426935">
        <ele>199.61000000000001</ele>
        <time>2026-06-28T15:40:57Z</time>
      </trkpt>
      <trkpt lat="51.940810019150376" lon="-9.805503040552139">
        <ele>200.56999999999999</ele>
        <time>2026-06-28T15:40:58Z</time>
      </trkpt>
      <trkpt lat="51.940822005271912" lon="-9.805591972544789">
        <ele>201.05000000000001</ele>
        <time>2026-06-28T15:40:59Z</time>
      </trkpt>
      <trkpt lat="51.940834997221828" lon="-9.805684005841613">
        <ele>202.00999999999999</ele>
        <time>2026-06-28T15:41:00Z</time>
      </trkpt>
      <trkpt lat="51.940850000828505" lon="-9.805788025259972">
        <ele>202.49000000000001</ele>
        <time>2026-06-28T15:41:01Z</time>
      </trkpt>
      <trkpt lat="51.940958965569735" lon="-9.806202007457614">
        <ele>204.41999999999999</ele>
        <time>2026-06-28T15:41:05Z</time>
      </trkpt>
      <trkpt lat="51.940988972783089" lon="-9.806286999955773">
        <ele>204.90000000000001</ele>
        <time>2026-06-28T15:41:06Z</time>
      </trkpt>
      <trkpt lat="51.941017974168062" lon="-9.806372998282313">
        <ele>205.86000000000001</ele>
        <time>2026-06-28T15:41:07Z</time>
      </trkpt>
      <trkpt lat="51.941075976938009" lon="-9.806544994935393">
        <ele>207.30000000000001</ele>
        <time>2026-06-28T15:41:09Z</time>
      </trkpt>
      <trkpt lat="51.941167004406452" lon="-9.806811036542058">
        <ele>209.69999999999999</ele>
        <time>2026-06-28T15:41:12Z</time>
      </trkpt>
      <trkpt lat="51.941192988306284" lon="-9.806885970756412">
        <ele>210.19</ele>
        <time>2026-06-28T15:41:13Z</time>
      </trkpt>
      <trkpt lat="51.941245039924979" lon="-9.806925030425191">
        <ele>210.66999999999999</ele>
        <time>2026-06-28T15:41:14Z</time>
      </trkpt>
      <trkpt lat="51.941305976361036" lon="-9.806970963254571">
        <ele>211.15000000000001</ele>
        <time>2026-06-28T15:41:15Z</time>
      </trkpt>
      <trkpt lat="51.941373031586409" lon="-9.807021003216505">
        <ele>212.11000000000001</ele>
        <time>2026-06-28T15:41:16Z</time>
      </trkpt>
      <trkpt lat="51.941443020477891" lon="-9.807073976844549">
        <ele>213.06999999999999</ele>
        <time>2026-06-28T15:41:17Z</time>
      </trkpt>
      <trkpt lat="51.941510997712612" lon="-9.807124016806483">
        <ele>214.03</ele>
        <time>2026-06-28T15:41:18Z</time>
      </trkpt>
      <trkpt lat="51.941576041281223" lon="-9.807172967121005">
        <ele>214.99000000000001</ele>
        <time>2026-06-28T15:41:19Z</time>
      </trkpt>
      <trkpt lat="51.941634966060519" lon="-9.807230969890952">
        <ele>215.47</ele>
        <time>2026-06-28T15:41:20Z</time>
      </trkpt>
      <trkpt lat="51.941684000194073" lon="-9.807324009016156">
        <ele>216.43000000000001</ele>
        <time>2026-06-28T15:41:21Z</time>
      </trkpt>
      <trkpt lat="51.941734040156007" lon="-9.80741897597909">
        <ele>217.40000000000001</ele>
        <time>2026-06-28T15:41:22Z</time>
      </trkpt>
      <trkpt lat="51.941779972985387" lon="-9.807502962648869">
        <ele>218.84</ele>
        <time>2026-06-28T15:41:23Z</time>
      </trkpt>
      <trkpt lat="51.942025981843472" lon="-9.807819966226816">
        <ele>225.56999999999999</ele>
        <time>2026-06-28T15:41:30Z</time>
      </trkpt>
      <trkpt lat="51.94206696934998" lon="-9.807872017845511">
        <ele>226.53</ele>
        <time>2026-06-28T15:41:31Z</time>
      </trkpt>
      <trkpt lat="51.942108040675521" lon="-9.807921973988414">
        <ele>227.49000000000001</ele>
        <time>2026-06-28T15:41:32Z</time>
      </trkpt>
      <trkpt lat="51.942143999040127" lon="-9.807991040870547">
        <ele>228.44999999999999</ele>
        <time>2026-06-28T15:41:33Z</time>
      </trkpt>
      <trkpt lat="51.942166965454817" lon="-9.808094976469874">
        <ele>229.41</ele>
        <time>2026-06-28T15:41:34Z</time>
      </trkpt>
      <trkpt lat="51.942167971283197" lon="-9.808217016980052">
        <ele>230.37</ele>
        <time>2026-06-28T15:41:35Z</time>
      </trkpt>
      <trkpt lat="51.942147016525269" lon="-9.808336962014437">
        <ele>231.33000000000001</ele>
        <time>2026-06-28T15:41:36Z</time>
      </trkpt>
      <trkpt lat="51.942122960463166" lon="-9.808468976989389">
        <ele>232.30000000000001</ele>
        <time>2026-06-28T15:41:37Z</time>
      </trkpt>
      <trkpt lat="51.942098988220096" lon="-9.808606021106243">
        <ele>233.25999999999999</ele>
        <time>2026-06-28T15:41:38Z</time>
      </trkpt>
      <trkpt lat="51.942050959914923" lon="-9.808876002207398">
        <ele>235.66</ele>
        <time>2026-06-28T15:41:40Z</time>
      </trkpt>
      <trkpt lat="51.942026987671852" lon="-9.809010028839111">
        <ele>237.09999999999999</ele>
        <time>2026-06-28T15:41:41Z</time>
      </trkpt>
      <trkpt lat="51.941962027922273" lon="-9.8096530046314">
        <ele>241.91</ele>
        <time>2026-06-28T15:41:46Z</time>
      </trkpt>
      <trkpt lat="51.94180897437036" lon="-9.810838038101792">
        <ele>249.12</ele>
        <time>2026-06-28T15:41:55Z</time>
      </trkpt>
      <trkpt lat="51.941662039607763" lon="-9.811476990580559">
        <ele>255.37</ele>
        <time>2026-06-28T15:42:01Z</time>
      </trkpt>
      <trkpt lat="51.941634966060519" lon="-9.811591990292072">
        <ele>256.81</ele>
        <time>2026-06-28T15:42:03Z</time>
      </trkpt>
      <trkpt lat="51.941621974110603" lon="-9.811648987233639">
        <ele>257.76999999999998</ele>
        <time>2026-06-28T15:42:04Z</time>
      </trkpt>
      <trkpt lat="51.941621974110603" lon="-9.811648987233639">
        <ele>258.25</ele>
        <time>2026-06-28T15:42:05Z</time>
      </trkpt>
      <trkpt lat="51.941621974110603" lon="-9.811648987233639">
        <ele>259.20999999999998</ele>
        <time>2026-06-28T15:42:06Z</time>
      </trkpt>
      <trkpt lat="51.941621974110603" lon="-9.811648987233639">
        <ele>260.17000000000002</ele>
        <time>2026-06-28T15:42:07Z</time>
      </trkpt>
      <trkpt lat="51.941621974110603" lon="-9.811648987233639">
        <ele>260.64999999999998</ele>
        <time>2026-06-28T15:42:08Z</time>
      </trkpt>
      <trkpt lat="51.941621974110603" lon="-9.811648987233639">
        <ele>260.64999999999998</ele>
        <time>2026-06-28T15:42:22Z</time>
      </trkpt>
      <trkpt lat="51.941621974110603" lon="-9.811648987233639">
        <ele>262.57999999999998</ele>
        <time>2026-06-28T15:43:03Z</time>
      </trkpt>
      <trkpt lat="51.941621974110603" lon="-9.811648987233639">
        <ele>263.06</ele>
        <time>2026-06-28T15:43:51Z</time>
      </trkpt>
      <trkpt lat="51.941621974110603" lon="-9.811648987233639">
        <ele>263.54000000000002</ele>
        <time>2026-06-28T15:44:33Z</time>
      </trkpt>
      <trkpt lat="51.941486019641161" lon="-9.811706990003586">
        <ele>256.81</ele>
        <time>2026-06-28T15:47:40Z</time>
      </trkpt>
      <trkpt lat="51.941474033519626" lon="-9.811715958639979">
        <ele>254.88999999999999</ele>
        <time>2026-06-28T15:48:27Z</time>
      </trkpt>
      <trkpt lat="51.941477973014116" lon="-9.811686035245657">
        <ele>253.93000000000001</ele>
        <time>2026-06-28T15:49:08Z</time>
      </trkpt>
      <trkpt lat="51.941479984670877" lon="-9.81169399805367">
        <ele>253.93000000000001</ele>
        <time>2026-06-28T15:49:45Z</time>
      </trkpt>
      <trkpt lat="51.941503034904599" lon="-9.811759041622281">
        <ele>253.44</ele>
        <time>2026-06-28T15:50:05Z</time>
      </trkpt>
      <trkpt lat="51.941616022959352" lon="-9.811807991936803">
        <ele>252.96000000000001</ele>
        <time>2026-06-28T15:50:07Z</time>
      </trkpt>
      <trkpt lat="51.94161401130259" lon="-9.81186599470675">
        <ele>252.96000000000001</ele>
        <time>2026-06-28T15:50:08Z</time>
      </trkpt>
      <trkpt lat="51.941602025181055" lon="-9.812176963314414">
        <ele>252.47999999999999</ele>
        <time>2026-06-28T15:50:11Z</time>
      </trkpt>
      <trkpt lat="51.941605964675546" lon="-9.812251981347799">
        <ele>252.47999999999999</ele>
        <time>2026-06-28T15:50:12Z</time>
      </trkpt>
      <trkpt lat="51.941632032394409" lon="-9.812363963574171">
        <ele>252</ele>
        <time>2026-06-28T15:50:13Z</time>
      </trkpt>
      <trkpt lat="51.941659022122622" lon="-9.812481980770826">
        <ele>251.52000000000001</ele>
        <time>2026-06-28T15:50:14Z</time>
      </trkpt>
      <trkpt lat="51.941688023507595" lon="-9.812606032937765">
        <ele>250.56</ele>
        <time>2026-06-28T15:50:15Z</time>
      </trkpt>
      <trkpt lat="51.941718030720949" lon="-9.812731007114053">
        <ele>250.08000000000001</ele>
        <time>2026-06-28T15:50:16Z</time>
      </trkpt>
      <trkpt lat="51.941740997135639" lon="-9.812913984060288">
        <ele>249.59999999999999</ele>
        <time>2026-06-28T15:50:17Z</time>
      </trkpt>
      <trkpt lat="51.941713001579046" lon="-9.813037030398846">
        <ele>249.12</ele>
        <time>2026-06-28T15:50:18Z</time>
      </trkpt>
      <trkpt lat="51.941682994365692" lon="-9.813171979039908">
        <ele>248.63999999999999</ele>
        <time>2026-06-28T15:50:19Z</time>
      </trkpt>
      <trkpt lat="51.941650975495577" lon="-9.813311034813523">
        <ele>248.16</ele>
        <time>2026-06-28T15:50:20Z</time>
      </trkpt>
      <trkpt lat="51.941521978005767" lon="-9.813945963978767">
        <ele>245.27000000000001</ele>
        <time>2026-06-28T15:50:24Z</time>
      </trkpt>
      <trkpt lat="51.94144201464951" lon="-9.814693965017796">
        <ele>240.47</ele>
        <time>2026-06-28T15:50:28Z</time>
      </trkpt>
      <trkpt lat="51.941286027431488" lon="-9.816318964585662">
        <ele>232.30000000000001</ele>
        <time>2026-06-28T15:50:36Z</time>
      </trkpt>
      <trkpt lat="51.941300025209785" lon="-9.8165069706738">
        <ele>231.33000000000001</ele>
        <time>2026-06-28T15:50:37Z</time>
      </trkpt>
      <trkpt lat="51.941331038251519" lon="-9.81685096397996">
        <ele>228.93000000000001</ele>
        <time>2026-06-28T15:50:39Z</time>
      </trkpt>
      <trkpt lat="51.941443020477891" lon="-9.817566024139524">
        <ele>224.12</ele>
        <time>2026-06-28T15:50:43Z</time>
      </trkpt>
      <trkpt lat="51.941431034356356" lon="-9.817762998864055">
        <ele>222.68000000000001</ele>
        <time>2026-06-28T15:50:44Z</time>
      </trkpt>
      <trkpt lat="51.941444026306272" lon="-9.817975983023644">
        <ele>221.24000000000001</ele>
        <time>2026-06-28T15:50:45Z</time>
      </trkpt>
      <trkpt lat="51.941500017419457" lon="-9.818895980715752">
        <ele>214.50999999999999</ele>
        <time>2026-06-28T15:50:49Z</time>
      </trkpt>
      <trkpt lat="51.94154997356236" lon="-9.81932396069169">
        <ele>211.15000000000001</ele>
        <time>2026-06-28T15:50:51Z</time>
      </trkpt>
      <trkpt lat="51.941588027402759" lon="-9.819702990353108">
        <ele>208.25999999999999</ele>
        <time>2026-06-28T15:50:53Z</time>
      </trkpt>
      <trkpt lat="51.94157000631094" lon="-9.819872975349426">
        <ele>206.34</ele>
        <time>2026-06-28T15:50:54Z</time>
      </trkpt>
      <trkpt lat="51.941621974110603" lon="-9.820960024371743">
        <ele>199.13</ele>
        <time>2026-06-28T15:50:59Z</time>
      </trkpt>
      <trkpt lat="51.941621974110603" lon="-9.821197986602783">
        <ele>197.69</ele>
        <time>2026-06-28T15:51:00Z</time>
      </trkpt>
      <trkpt lat="51.941639995202422" lon="-9.821867030113936">
        <ele>194.31999999999999</ele>
        <time>2026-06-28T15:51:03Z</time>
      </trkpt>
      <trkpt lat="51.941648963838816" lon="-9.822083031758666">
        <ele>193.36000000000001</ele>
        <time>2026-06-28T15:51:04Z</time>
      </trkpt>
      <trkpt lat="51.941659022122622" lon="-9.822317976504564">
        <ele>192.40000000000001</ele>
        <time>2026-06-28T15:51:05Z</time>
      </trkpt>
      <trkpt lat="51.941724987700582" lon="-9.822808988392353">
        <ele>190</ele>
        <time>2026-06-28T15:51:07Z</time>
      </trkpt>
      <trkpt lat="51.94176304154098" lon="-9.823045022785664">
        <ele>188.56</ele>
        <time>2026-06-28T15:51:08Z</time>
      </trkpt>
      <trkpt lat="51.941801011562347" lon="-9.82327401638031">
        <ele>187.59</ele>
        <time>2026-06-28T15:51:09Z</time>
      </trkpt>
      <trkpt lat="51.941837975755334" lon="-9.823498986661434">
        <ele>187.11000000000001</ele>
        <time>2026-06-28T15:51:10Z</time>
      </trkpt>
      <trkpt lat="51.941907964646816" lon="-9.823714988306165">
        <ele>186.15000000000001</ele>
        <time>2026-06-28T15:51:11Z</time>
      </trkpt>
      <trkpt lat="51.941978959366679" lon="-9.823935013264418">
        <ele>185.19</ele>
        <time>2026-06-28T15:51:12Z</time>
      </trkpt>
      <trkpt lat="51.942047020420432" lon="-9.824146991595626">
        <ele>184.71000000000001</ele>
        <time>2026-06-28T15:51:13Z</time>
      </trkpt>
      <trkpt lat="51.942166965454817" lon="-9.8242830298841">
        <ele>184.22999999999999</ele>
        <time>2026-06-28T15:51:14Z</time>
      </trkpt>
      <trkpt lat="51.942272996529937" lon="-9.824396017938852">
        <ele>182.78999999999999</ele>
        <time>2026-06-28T15:51:15Z</time>
      </trkpt>
      <trkpt lat="51.942375004291534" lon="-9.824502971023321">
        <ele>181.83000000000001</ele>
        <time>2026-06-28T15:51:16Z</time>
      </trkpt>
      <trkpt lat="51.942498972639441" lon="-9.824544964358211">
        <ele>180.87</ele>
        <time>2026-06-28T15:51:17Z</time>
      </trkpt>
      <trkpt lat="51.942630987614393" lon="-9.824587963521481">
        <ele>179.90000000000001</ele>
        <time>2026-06-28T15:51:18Z</time>
      </trkpt>
      <trkpt lat="51.942755961790681" lon="-9.824571032077074">
        <ele>178.94</ele>
        <time>2026-06-28T15:51:19Z</time>
      </trkpt>
      <trkpt lat="51.942868027836084" lon="-9.824555022642016">
        <ele>177.5</ele>
        <time>2026-06-28T15:51:20Z</time>
      </trkpt>
      <trkpt lat="51.942970035597682" lon="-9.824513029307127">
        <ele>176.53999999999999</ele>
        <time>2026-06-28T15:51:21Z</time>
      </trkpt>
      <trkpt lat="51.943067014217377" lon="-9.824424013495445">
        <ele>176.06</ele>
        <time>2026-06-28T15:51:22Z</time>
      </trkpt>
      <trkpt lat="51.943142032250762" lon="-9.824271965771914">
        <ele>175.09999999999999</ele>
        <time>2026-06-28T15:51:23Z</time>
      </trkpt>
      <trkpt lat="51.94322501309216" lon="-9.824107009917498">
        <ele>174.62</ele>
        <time>2026-06-28T15:51:24Z</time>
      </trkpt>
      <trkpt lat="51.943313023075461" lon="-9.823931995779276">
        <ele>174.62</ele>
        <time>2026-06-28T15:51:25Z</time>
      </trkpt>
      <trkpt lat="51.943715019151568" lon="-9.823128003627062">
        <ele>174.62</ele>
        <time>2026-06-28T15:51:30Z</time>
      </trkpt>
      <trkpt lat="51.943820966407657" lon="-9.823039993643761">
        <ele>174.62</ele>
        <time>2026-06-28T15:51:31Z</time>
      </trkpt>
      <trkpt lat="51.943926997482777" lon="-9.822992971166968">
        <ele>174.62</ele>
        <time>2026-06-28T15:51:32Z</time>
      </trkpt>
      <trkpt lat="51.944036968052387" lon="-9.822977967560291">
        <ele>175.09999999999999</ele>
        <time>2026-06-28T15:51:33Z</time>
      </trkpt>
      <trkpt lat="51.944142999127507" lon="-9.822961958125234">
        <ele>175.58000000000001</ele>
        <time>2026-06-28T15:51:34Z</time>
      </trkpt>
      <trkpt lat="51.944230003282428" lon="-9.822907978668809">
        <ele>176.06</ele>
        <time>2026-06-28T15:51:35Z</time>
      </trkpt>
      <trkpt lat="51.944305021315813" lon="-9.822840001434088">
        <ele>176.53999999999999</ele>
        <time>2026-06-28T15:51:36Z</time>
      </trkpt>
      <trkpt lat="51.94438498467207" lon="-9.822766995057464">
        <ele>177.02000000000001</ele>
        <time>2026-06-28T15:51:37Z</time>
      </trkpt>
      <trkpt lat="51.944474000483751" lon="-9.822685020044446">
        <ele>177.97999999999999</ele>
        <time>2026-06-28T15:51:38Z</time>
      </trkpt>
      <trkpt lat="51.944569973275065" lon="-9.822598015889525">
        <ele>177.97999999999999</ele>
        <time>2026-06-28T15:51:39Z</time>
      </trkpt>
      <trkpt lat="51.944668041542172" lon="-9.822507994249463">
        <ele>178.46000000000001</ele>
        <time>2026-06-28T15:51:40Z</time>
      </trkpt>
      <trkpt lat="51.944789998233318" lon="-9.822474969550967">
        <ele>178.46000000000001</ele>
        <time>2026-06-28T15:51:41Z</time>
      </trkpt>
      <trkpt lat="51.945151006802917" lon="-9.822376985102892">
        <ele>177.5</ele>
        <time>2026-06-28T15:51:44Z</time>
      </trkpt>
      <trkpt lat="51.945227030664682" lon="-9.822357036173344">
        <ele>177.5</ele>
        <time>2026-06-28T15:51:45Z</time>
      </trkpt>
      <trkpt lat="51.945290984585881" lon="-9.822439011186361">
        <ele>177.02000000000001</ele>
        <time>2026-06-28T15:51:46Z</time>
      </trkpt>
      <trkpt lat="51.945353010669351" lon="-9.822518974542618">
        <ele>176.53999999999999</ele>
        <time>2026-06-28T15:51:47Z</time>
      </trkpt>
      <trkpt lat="51.94539500400424" lon="-9.822622993960977">
        <ele>176.53999999999999</ele>
        <time>2026-06-28T15:51:48Z</time>
      </trkpt>
      <trkpt lat="51.945429034531116" lon="-9.822766995057464">
        <ele>176.53999999999999</ele>
        <time>2026-06-28T15:51:49Z</time>
      </trkpt>
      <trkpt lat="51.945467004552484" lon="-9.822924993932247">
        <ele>177.02000000000001</ele>
        <time>2026-06-28T15:51:50Z</time>
      </trkpt>
      <trkpt lat="51.945506986230612" lon="-9.823091961443424">
        <ele>177.02000000000001</ele>
        <time>2026-06-28T15:51:51Z</time>
      </trkpt>
      <trkpt lat="51.945547973737121" lon="-9.823261024430394">
        <ele>176.53999999999999</ele>
        <time>2026-06-28T15:51:52Z</time>
      </trkpt>
      <trkpt lat="51.945585021749139" lon="-9.823414999991655">
        <ele>176.06</ele>
        <time>2026-06-28T15:51:53Z</time>
      </trkpt>
      <trkpt lat="51.945618968456984" lon="-9.823560006916523">
        <ele>175.09999999999999</ele>
        <time>2026-06-28T15:51:54Z</time>
      </trkpt>
      <trkpt lat="51.945666996762156" lon="-9.823708031326532">
        <ele>174.13999999999999</ele>
        <time>2026-06-28T15:51:55Z</time>
      </trkpt>
      <trkpt lat="51.945726005360484" lon="-9.823865024372935">
        <ele>173.16999999999999</ele>
        <time>2026-06-28T15:51:56Z</time>
      </trkpt>
      <trkpt lat="51.945788031443954" lon="-9.824028974398971">
        <ele>171.72999999999999</ele>
        <time>2026-06-28T15:51:57Z</time>
      </trkpt>
      <trkpt lat="51.945849973708391" lon="-9.824193008244038">
        <ele>170.28999999999999</ele>
        <time>2026-06-28T15:51:58Z</time>
      </trkpt>
      <trkpt lat="51.945907976478338" lon="-9.824344972148538">
        <ele>169.33000000000001</ele>
        <time>2026-06-28T15:51:59Z</time>
      </trkpt>
      <trkpt lat="51.945934966206551" lon="-9.824416972696781">
        <ele>168.84999999999999</ele>
        <time>2026-06-28T15:52:00Z</time>
      </trkpt>
      <trkpt lat="51.946019036695361" lon="-9.824486961588264">
        <ele>167.88999999999999</ele>
        <time>2026-06-28T15:52:01Z</time>
      </trkpt>
      <trkpt lat="51.946065975353122" lon="-9.824524009600282">
        <ele>167.41</ele>
        <time>2026-06-28T15:52:02Z</time>
      </trkpt>
      <trkpt lat="51.946149040013552" lon="-9.824506994336844">
        <ele>166.44999999999999</ele>
        <time>2026-06-28T15:52:03Z</time>
      </trkpt>
      <trkpt lat="51.946246018633246" lon="-9.824487967416644">
        <ele>165.96000000000001</ele>
        <time>2026-06-28T15:52:04Z</time>
      </trkpt>
      <trkpt lat="51.946461014449596" lon="-9.824444968253374">
        <ele>165</ele>
        <time>2026-06-28T15:52:06Z</time>
      </trkpt>
      <trkpt lat="51.946556987240911" lon="-9.824381014332175">
        <ele>164.03999999999999</ele>
        <time>2026-06-28T15:52:07Z</time>
      </trkpt>
      <trkpt lat="51.946652038022876" lon="-9.824295016005635">
        <ele>163.56</ele>
        <time>2026-06-28T15:52:08Z</time>
      </trkpt>
      <trkpt lat="51.946825962513685" lon="-9.824138022959232">
        <ele>163.08000000000001</ele>
        <time>2026-06-28T15:52:10Z</time>
      </trkpt>
      <trkpt lat="51.946922019124031" lon="-9.824052024632692">
        <ele>163.08000000000001</ele>
        <time>2026-06-28T15:52:11Z</time>
      </trkpt>
      <trkpt lat="51.946997959166765" lon="-9.824073985219002">
        <ele>163.08000000000001</ele>
        <time>2026-06-28T15:52:12Z</time>
      </trkpt>
      <trkpt lat="51.94707197137177" lon="-9.824095023795962">
        <ele>163.08000000000001</ele>
        <time>2026-06-28T15:52:13Z</time>
      </trkpt>
      <trkpt lat="51.947141038253903" lon="-9.824209017679095">
        <ele>162.59999999999999</ele>
        <time>2026-06-28T15:52:14Z</time>
      </trkpt>
      <trkpt lat="51.947205998003483" lon="-9.824317982420325">
        <ele>162.12</ele>
        <time>2026-06-28T15:52:15Z</time>
      </trkpt>
      <trkpt lat="51.947353016585112" lon="-9.82458402402699">
        <ele>161.16</ele>
        <time>2026-06-28T15:52:17Z</time>
      </trkpt>
      <trkpt lat="51.9474140368402" lon="-9.824745040386915">
        <ele>161.16</ele>
        <time>2026-06-28T15:52:18Z</time>
      </trkpt>
      <trkpt lat="51.947466004639864" lon="-9.824880994856358">
        <ele>160.68000000000001</ele>
        <time>2026-06-28T15:52:19Z</time>
      </trkpt>
      <trkpt lat="51.947519984096289" lon="-9.824995994567871">
        <ele>160.19999999999999</ele>
        <time>2026-06-28T15:52:20Z</time>
      </trkpt>
      <trkpt lat="51.947598019614816" lon="-9.825088027864695">
        <ele>159.72</ele>
        <time>2026-06-28T15:52:21Z</time>
      </trkpt>
      <trkpt lat="51.947677982971072" lon="-9.825180983170867">
        <ele>159.24000000000001</ele>
        <time>2026-06-28T15:52:22Z</time>
      </trkpt>
      <trkpt lat="51.947762975469232" lon="-9.825291037559509">
        <ele>158.75</ele>
        <time>2026-06-28T15:52:23Z</time>
      </trkpt>
      <trkpt lat="51.947804968804121" lon="-9.825451970100403">
        <ele>158.75</ele>
        <time>2026-06-28T15:52:24Z</time>
      </trkpt>
      <trkpt lat="51.947851991280913" lon="-9.825626984238625">
        <ele>158.27000000000001</ele>
        <time>2026-06-28T15:52:25Z</time>
      </trkpt>
      <trkpt lat="51.94788702763617" lon="-9.825823958963156">
        <ele>158.27000000000001</ele>
        <time>2026-06-28T15:52:26Z</time>
      </trkpt>
      <trkpt lat="51.947918040677905" lon="-9.826036021113396">
        <ele>157.78999999999999</ele>
        <time>2026-06-28T15:52:27Z</time>
      </trkpt>
      <trkpt lat="51.947949975728989" lon="-9.826249005272985">
        <ele>157.78999999999999</ele>
        <time>2026-06-28T15:52:28Z</time>
      </trkpt>
      <trkpt lat="51.94790898822248" lon="-9.826464001089335">
        <ele>157.78999999999999</ele>
        <time>2026-06-28T15:52:29Z</time>
      </trkpt>
      <trkpt lat="51.947863977402449" lon="-9.826673967763782">
        <ele>157.31</ele>
        <time>2026-06-28T15:52:30Z</time>
      </trkpt>
      <trkpt lat="51.947817960754037" lon="-9.826890975236893">
        <ele>156.83000000000001</ele>
        <time>2026-06-28T15:52:31Z</time>
      </trkpt>
      <trkpt lat="51.947772027924657" lon="-9.827107982710004">
        <ele>156.83000000000001</ele>
        <time>2026-06-28T15:52:32Z</time>
      </trkpt>
      <trkpt lat="51.947729028761387" lon="-9.827309986576438">
        <ele>156.34999999999999</ele>
        <time>2026-06-28T15:52:33Z</time>
      </trkpt>
      <trkpt lat="51.947688963264227" lon="-9.827495981007814">
        <ele>155.87</ele>
        <time>2026-06-28T15:52:34Z</time>
      </trkpt>
      <trkpt lat="51.947689969092607" lon="-9.827690022066236">
        <ele>155.38999999999999</ele>
        <time>2026-06-28T15:52:35Z</time>
      </trkpt>
      <trkpt lat="51.947720982134342" lon="-9.827904012054205">
        <ele>154.91</ele>
        <time>2026-06-28T15:52:36Z</time>
      </trkpt>
      <trkpt lat="51.947756018489599" lon="-9.82815102674067">
        <ele>154.43000000000001</ele>
        <time>2026-06-28T15:52:37Z</time>
      </trkpt>
      <trkpt lat="51.947970008477569" lon="-9.829649962484837">
        <ele>152.50999999999999</ele>
        <time>2026-06-28T15:52:43Z</time>
      </trkpt>
      <trkpt lat="51.94799498654902" lon="-9.829823970794678">
        <ele>152.50999999999999</ele>
        <time>2026-06-28T15:52:44Z</time>
      </trkpt>
      <trkpt lat="51.948076039552689" lon="-9.829925978556275">
        <ele>152.03</ele>
        <time>2026-06-28T15:52:45Z</time>
      </trkpt>
      <trkpt lat="51.948386002331972" lon="-9.830311965197325">
        <ele>151.06</ele>
        <time>2026-06-28T15:52:48Z</time>
      </trkpt>
      <trkpt lat="51.949195023626089" lon="-9.831695985049009">
        <ele>146.74000000000001</ele>
        <time>2026-06-28T15:52:55Z</time>
      </trkpt>
      <trkpt lat="51.949465004727244" lon="-9.832020029425621">
        <ele>145.30000000000001</ele>
        <time>2026-06-28T15:52:57Z</time>
      </trkpt>
      <trkpt lat="51.949748983606696" lon="-9.832307025790215">
        <ele>143.84999999999999</ele>
        <time>2026-06-28T15:52:59Z</time>
      </trkpt>
      <trkpt lat="51.949867000803351" lon="-9.832487991079688">
        <ele>143.37</ele>
        <time>2026-06-28T15:53:00Z</time>
      </trkpt>
      <trkpt lat="51.95010001771152" lon="-9.832795020192862">
        <ele>141.93000000000001</ele>
        <time>2026-06-28T15:53:02Z</time>
      </trkpt>
      <trkpt lat="51.950217029079795" lon="-9.832885041832924">
        <ele>141.44999999999999</ele>
        <time>2026-06-28T15:53:03Z</time>
      </trkpt>
      <trkpt lat="51.95035700686276" lon="-9.832913959398866">
        <ele>140.49000000000001</ele>
        <time>2026-06-28T15:53:04Z</time>
      </trkpt>
      <trkpt lat="51.95050997659564" lon="-9.832955030724406">
        <ele>139.53</ele>
        <time>2026-06-28T15:53:05Z</time>
      </trkpt>
      <trkpt lat="51.950653977692127" lon="-9.833066007122397">
        <ele>139.05000000000001</ele>
        <time>2026-06-28T15:53:06Z</time>
      </trkpt>
      <trkpt lat="51.950811976566911" lon="-9.833187041804195">
        <ele>138.09</ele>
        <time>2026-06-28T15:53:07Z</time>
      </trkpt>
      <trkpt lat="51.950975004583597" lon="-9.833313021808863">
        <ele>137.13</ele>
        <time>2026-06-28T15:53:08Z</time>
      </trkpt>
      <trkpt lat="51.951267030090094" lon="-9.833647962659597">
        <ele>134.72</ele>
        <time>2026-06-28T15:53:10Z</time>
      </trkpt>
      <trkpt lat="51.951412037014961" lon="-9.833829011768103">
        <ele>133.75999999999999</ele>
        <time>2026-06-28T15:53:11Z</time>
      </trkpt>
      <trkpt lat="51.951676988974214" lon="-9.834163030609489">
        <ele>131.84</ele>
        <time>2026-06-28T15:53:13Z</time>
      </trkpt>
      <trkpt lat="51.95179701782763" lon="-9.834311977028847">
        <ele>130.88</ele>
        <time>2026-06-28T15:53:14Z</time>
      </trkpt>
      <trkpt lat="51.952337985858321" lon="-9.834656976163387">
        <ele>127.03</ele>
        <time>2026-06-28T15:53:18Z</time>
      </trkpt>
      <trkpt lat="51.952446028590202" lon="-9.83466200530529">
        <ele>126.06999999999999</ele>
        <time>2026-06-28T15:53:19Z</time>
      </trkpt>
      <trkpt lat="51.952558010816574" lon="-9.834637027233839">
        <ele>125.59</ele>
        <time>2026-06-28T15:53:20Z</time>
      </trkpt>
      <trkpt lat="51.952666975557804" lon="-9.83455496840179">
        <ele>124.63</ele>
        <time>2026-06-28T15:53:21Z</time>
      </trkpt>
      <trkpt lat="51.952789016067982" lon="-9.834439968690276">
        <ele>124.15000000000001</ele>
        <time>2026-06-28T15:53:22Z</time>
      </trkpt>
      <trkpt lat="51.952920025214553" lon="-9.83431700617075">
        <ele>123.67</ele>
        <time>2026-06-28T15:53:23Z</time>
      </trkpt>
      <trkpt lat="51.953315986320376" lon="-9.833944011479616">
        <ele>122.70999999999999</ele>
        <time>2026-06-28T15:53:26Z</time>
      </trkpt>
      <trkpt lat="51.953872041776776" lon="-9.833131972700357">
        <ele>121.26000000000001</ele>
        <time>2026-06-28T15:53:32Z</time>
      </trkpt>
      <trkpt lat="51.954004978761077" lon="-9.833085034042597">
        <ele>121.73999999999999</ele>
        <time>2026-06-28T15:53:33Z</time>
      </trkpt>
      <trkpt lat="51.954131964594126" lon="-9.833043040707707">
        <ele>122.22</ele>
        <time>2026-06-28T15:53:34Z</time>
      </trkpt>
      <trkpt lat="51.954246964305639" lon="-9.833034994080663">
        <ele>122.70999999999999</ele>
        <time>2026-06-28T15:53:35Z</time>
      </trkpt>
      <trkpt lat="51.954359030351043" lon="-9.83302703127265">
        <ele>122.70999999999999</ele>
        <time>2026-06-28T15:53:36Z</time>
      </trkpt>
      <trkpt lat="51.954467995092273" lon="-9.833019990473986">
        <ele>123.19</ele>
        <time>2026-06-28T15:53:37Z</time>
      </trkpt>
      <trkpt lat="51.955463010817766" lon="-9.833040023222566">
        <ele>120.3</ele>
        <time>2026-06-28T15:53:45Z</time>
      </trkpt>
      <trkpt lat="51.9558360055089" lon="-9.833205984905362">
        <ele>120.3</ele>
        <time>2026-06-28T15:53:48Z</time>
      </trkpt>
      <trkpt lat="51.955961985513568" lon="-9.833287037909031">
        <ele>119.81999999999999</ele>
        <time>2026-06-28T15:53:49Z</time>
      </trkpt>
      <trkpt lat="51.956087965518236" lon="-9.833370018750429">
        <ele>119.34</ele>
        <time>2026-06-28T15:53:50Z</time>
      </trkpt>
      <trkpt lat="51.956191984936595" lon="-9.833530029281974">
        <ele>118.86</ele>
        <time>2026-06-28T15:53:51Z</time>
      </trkpt>
      <trkpt lat="51.956300027668476" lon="-9.83369498513639">
        <ele>118.38</ele>
        <time>2026-06-28T15:53:52Z</time>
      </trkpt>
      <trkpt lat="51.956403963267803" lon="-9.833853989839554">
        <ele>117.90000000000001</ele>
        <time>2026-06-28T15:53:53Z</time>
      </trkpt>
      <trkpt lat="51.956907967105508" lon="-9.83532601967454">
        <ele>115.5</ele>
        <time>2026-06-28T15:54:01Z</time>
      </trkpt>
      <trkpt lat="51.956920959055424" lon="-9.835534980520606">
        <ele>115.01000000000001</ele>
        <time>2026-06-28T15:54:02Z</time>
      </trkpt>
      <trkpt lat="51.956988014280796" lon="-9.83614300377667">
        <ele>115.01000000000001</ele>
        <time>2026-06-28T15:54:05Z</time>
      </trkpt>
      <trkpt lat="51.957029001787305" lon="-9.836304020136595">
        <ele>115.01000000000001</ele>
        <time>2026-06-28T15:54:06Z</time>
      </trkpt>
      <trkpt lat="51.95710401982069" lon="-9.83648699708283">
        <ele>115.01000000000001</ele>
        <time>2026-06-28T15:54:07Z</time>
      </trkpt>
      <trkpt lat="51.957175014540553" lon="-9.836657987907529">
        <ele>114.53</ele>
        <time>2026-06-28T15:54:08Z</time>
      </trkpt>
      <trkpt lat="51.957248020917177" lon="-9.836833002045751">
        <ele>114.53</ele>
        <time>2026-06-28T15:54:09Z</time>
      </trkpt>
      <trkpt lat="51.957519007846713" lon="-9.837505985051394">
        <ele>112.61</ele>
        <time>2026-06-28T15:54:13Z</time>
      </trkpt>
      <trkpt lat="51.957568963989615" lon="-9.837673958390951">
        <ele>112.13</ele>
        <time>2026-06-28T15:54:14Z</time>
      </trkpt>
      <trkpt lat="51.957605006173253" lon="-9.837842015549541">
        <ele>112.13</ele>
        <time>2026-06-28T15:54:15Z</time>
      </trkpt>
      <trkpt lat="51.957594025880098" lon="-9.838004037737846">
        <ele>111.65000000000001</ele>
        <time>2026-06-28T15:54:16Z</time>
      </trkpt>
      <trkpt lat="51.957569969817996" lon="-9.838165976107121">
        <ele>111.17</ele>
        <time>2026-06-28T15:54:17Z</time>
      </trkpt>
      <trkpt lat="51.957524036988616" lon="-9.838325986638665">
        <ele>110.69</ele>
        <time>2026-06-28T15:54:18Z</time>
      </trkpt>
      <trkpt lat="51.957479026168585" lon="-9.838484991341829">
        <ele>110.20999999999999</ele>
        <time>2026-06-28T15:54:19Z</time>
      </trkpt>
      <trkpt lat="51.957333013415337" lon="-9.83900198712945">
        <ele>109.25</ele>
        <time>2026-06-28T15:54:22Z</time>
      </trkpt>
      <trkpt lat="51.957281967625022" lon="-9.839181024581194">
        <ele>109.25</ele>
        <time>2026-06-28T15:54:23Z</time>
      </trkpt>
      <trkpt lat="51.957265036180615" lon="-9.839379005134106">
        <ele>108.77</ele>
        <time>2026-06-28T15:54:24Z</time>
      </trkpt>
      <trkpt lat="51.957265036180615" lon="-9.839587965980172">
        <ele>108.29000000000001</ele>
        <time>2026-06-28T15:54:25Z</time>
      </trkpt>
      <trkpt lat="51.957265036180615" lon="-9.839802961796522">
        <ele>108.29000000000001</ele>
        <time>2026-06-28T15:54:26Z</time>
      </trkpt>
      <trkpt lat="51.957285990938544" lon="-9.840638972818852">
        <ele>106.36</ele>
        <time>2026-06-28T15:54:30Z</time>
      </trkpt>
      <trkpt lat="51.957337958738208" lon="-9.840846005827189">
        <ele>106.36</ele>
        <time>2026-06-28T15:54:31Z</time>
      </trkpt>
      <trkpt lat="51.95738104172051" lon="-9.84102001413703">
        <ele>105.88</ele>
        <time>2026-06-28T15:54:32Z</time>
      </trkpt>
      <trkpt lat="51.957449018955231" lon="-9.841189999133349">
        <ele>105.88</ele>
        <time>2026-06-28T15:54:33Z</time>
      </trkpt>
      <trkpt lat="51.957531999796629" lon="-9.841373981907964">
        <ele>104.92</ele>
        <time>2026-06-28T15:54:34Z</time>
      </trkpt>
      <trkpt lat="51.957842968404293" lon="-9.842057023197413">
        <ele>103</ele>
        <time>2026-06-28T15:54:39Z</time>
      </trkpt>
      <trkpt lat="51.957842968404293" lon="-9.842057023197413">
        <ele>102.04000000000001</ele>
        <time>2026-06-28T15:54:50Z</time>
      </trkpt>
      <trkpt lat="51.957927960902452" lon="-9.842243017628789">
        <ele>102.04000000000001</ele>
        <time>2026-06-28T15:54:58Z</time>
      </trkpt>
      <trkpt lat="51.958340015262365" lon="-9.843042986467481">
        <ele>100.11</ele>
        <time>2026-06-28T15:55:04Z</time>
      </trkpt>
      <trkpt lat="51.959206033498049" lon="-9.844376966357231">
        <ele>96.269999999999996</ele>
        <time>2026-06-28T15:55:12Z</time>
      </trkpt>
      <trkpt lat="51.959691010415554" lon="-9.845008961856365">
        <ele>93.870000000000005</ele>
        <time>2026-06-28T15:55:17Z</time>
      </trkpt>
      <trkpt lat="51.959783965721726" lon="-9.845094038173556">
        <ele>93.390000000000001</ele>
        <time>2026-06-28T15:55:18Z</time>
      </trkpt>
      <trkpt lat="51.959880022332072" lon="-9.845156986266375">
        <ele>92.900000000000006</ele>
        <time>2026-06-28T15:55:19Z</time>
      </trkpt>
      <trkpt lat="51.959984041750431" lon="-9.845187999308109">
        <ele>91.939999999999998</ele>
        <time>2026-06-28T15:55:20Z</time>
      </trkpt>
      <trkpt lat="51.960088983178139" lon="-9.845219012349844">
        <ele>91.459999999999994</ele>
        <time>2026-06-28T15:55:21Z</time>
      </trkpt>
      <trkpt lat="51.96030599065125" lon="-9.845282966271043">
        <ele>90.019999999999996</ele>
        <time>2026-06-28T15:55:23Z</time>
      </trkpt>
      <trkpt lat="51.960424007847905" lon="-9.845324037596583">
        <ele>89.060000000000002</ele>
        <time>2026-06-28T15:55:24Z</time>
      </trkpt>
      <trkpt lat="51.960512017831206" lon="-9.845453035086393">
        <ele>88.099999999999994</ele>
        <time>2026-06-28T15:55:25Z</time>
      </trkpt>
      <trkpt lat="51.960602961480618" lon="-9.845583960413933">
        <ele>87.620000000000005</ele>
        <time>2026-06-28T15:55:26Z</time>
      </trkpt>
      <trkpt lat="51.960683008655906" lon="-9.845746988430619">
        <ele>86.659999999999997</ele>
        <time>2026-06-28T15:55:27Z</time>
      </trkpt>
      <trkpt lat="51.960744028910995" lon="-9.84594002366066">
        <ele>86.180000000000007</ele>
        <time>2026-06-28T15:55:28Z</time>
      </trkpt>
      <trkpt lat="51.960803037509322" lon="-9.846127023920417">
        <ele>85.209999999999994</ele>
        <time>2026-06-28T15:55:29Z</time>
      </trkpt>
      <trkpt lat="51.960904039442539" lon="-9.846445033326745">
        <ele>84.25</ele>
        <time>2026-06-28T15:55:31Z</time>
      </trkpt>
      <trkpt lat="51.960980985313654" lon="-9.846575958654285">
        <ele>83.769999999999996</ele>
        <time>2026-06-28T15:55:32Z</time>
      </trkpt>
      <trkpt lat="51.961064971983433" lon="-9.846639996394515">
        <ele>82.810000000000002</ele>
        <time>2026-06-28T15:55:33Z</time>
      </trkpt>
      <trkpt lat="51.961163962259889" lon="-9.846717026084662">
        <ele>82.329999999999998</ele>
        <time>2026-06-28T15:55:34Z</time>
      </trkpt>
      <trkpt lat="51.961281979456544" lon="-9.846787014976144">
        <ele>81.849999999999994</ele>
        <time>2026-06-28T15:55:35Z</time>
      </trkpt>
      <trkpt lat="51.961626978591084" lon="-9.846989018842578">
        <ele>79.450000000000003</ele>
        <time>2026-06-28T15:55:38Z</time>
      </trkpt>
      <trkpt lat="51.961729992181063" lon="-9.84708197414875">
        <ele>78.969999999999999</ele>
        <time>2026-06-28T15:55:39Z</time>
      </trkpt>
      <trkpt lat="51.961822025477886" lon="-9.847221029922366">
        <ele>78.480000000000004</ele>
        <time>2026-06-28T15:55:40Z</time>
      </trkpt>
      <trkpt lat="51.961902994662523" lon="-9.84738296829164">
        <ele>78</ele>
        <time>2026-06-28T15:55:41Z</time>
      </trkpt>
      <trkpt lat="51.962000979110599" lon="-9.847535016015172">
        <ele>77.519999999999996</ele>
        <time>2026-06-28T15:55:42Z</time>
      </trkpt>
      <trkpt lat="51.962204994633794" lon="-9.84778999350965">
        <ele>76.079999999999998</ele>
        <time>2026-06-28T15:55:44Z</time>
      </trkpt>
      <trkpt lat="51.962308008223772" lon="-9.847908010706306">
        <ele>75.120000000000005</ele>
        <time>2026-06-28T15:55:45Z</time>
      </trkpt>
      <trkpt lat="51.962423007935286" lon="-9.847989985719323">
        <ele>74.159999999999997</ele>
        <time>2026-06-28T15:55:46Z</time>
      </trkpt>
      <trkpt lat="51.96253901347518" lon="-9.848073972389102">
        <ele>73.200000000000003</ele>
        <time>2026-06-28T15:55:47Z</time>
      </trkpt>
      <trkpt lat="51.962650995701551" lon="-9.848155025392771">
        <ele>72.719999999999999</ele>
        <time>2026-06-28T15:55:48Z</time>
      </trkpt>
      <trkpt lat="51.962764989584684" lon="-9.848191989585757">
        <ele>71.760000000000005</ele>
        <time>2026-06-28T15:55:49Z</time>
      </trkpt>
      <trkpt lat="51.96288401260972" lon="-9.84821998514235">
        <ele>70.790000000000006</ele>
        <time>2026-06-28T15:55:50Z</time>
      </trkpt>
      <trkpt lat="51.963005969300866" lon="-9.848248986527324">
        <ele>69.829999999999998</ele>
        <time>2026-06-28T15:55:51Z</time>
      </trkpt>
      <trkpt lat="51.96312197484076" lon="-9.848220990970731">
        <ele>69.349999999999994</ele>
        <time>2026-06-28T15:55:52Z</time>
      </trkpt>
      <trkpt lat="51.9632270000875" lon="-9.84817698597908">
        <ele>68.390000000000001</ele>
        <time>2026-06-28T15:55:53Z</time>
      </trkpt>
      <trkpt lat="51.963322972878814" lon="-9.848115965723991">
        <ele>67.909999999999997</ele>
        <time>2026-06-28T15:55:54Z</time>
      </trkpt>
      <trkpt lat="51.963403020054102" lon="-9.84802502207458">
        <ele>66.950000000000003</ele>
        <time>2026-06-28T15:55:55Z</time>
      </trkpt>
      <trkpt lat="51.963482983410358" lon="-9.847928965464234">
        <ele>65.989999999999995</ele>
        <time>2026-06-28T15:55:56Z</time>
      </trkpt>
      <trkpt lat="51.963566970080137" lon="-9.847825029864907">
        <ele>65.510000000000005</ele>
        <time>2026-06-28T15:55:57Z</time>
      </trkpt>
      <trkpt lat="51.964049013331532" lon="-9.847221029922366">
        <ele>64.069999999999993</ele>
        <time>2026-06-28T15:56:02Z</time>
      </trkpt>
      <trkpt lat="51.964144986122847" lon="-9.84710200689733">
        <ele>63.579999999999998</ele>
        <time>2026-06-28T15:56:03Z</time>
      </trkpt>
      <trkpt lat="51.964247999712825" lon="-9.847005028277636">
        <ele>62.619999999999997</ele>
        <time>2026-06-28T15:56:04Z</time>
      </trkpt>
      <trkpt lat="51.964347995817661" lon="-9.846982983872294">
        <ele>62.140000000000001</ele>
        <time>2026-06-28T15:56:05Z</time>
      </trkpt>
      <trkpt lat="51.964447991922498" lon="-9.846976026892662">
        <ele>61.18</ele>
        <time>2026-06-28T15:56:06Z</time>
      </trkpt>
      <trkpt lat="51.964555028825998" lon="-9.84699496999383">
        <ele>60.219999999999999</ele>
        <time>2026-06-28T15:56:07Z</time>
      </trkpt>
      <trkpt lat="51.964677991345525" lon="-9.847017014399171">
        <ele>59.740000000000002</ele>
        <time>2026-06-28T15:56:08Z</time>
      </trkpt>
      <trkpt lat="51.965435966849327" lon="-9.847130002453923">
        <ele>54.93</ele>
        <time>2026-06-28T15:56:14Z</time>
      </trkpt>
      <trkpt lat="51.965529005974531" lon="-9.847116004675627">
        <ele>53.969999999999999</ele>
        <time>2026-06-28T15:56:15Z</time>
      </trkpt>
      <trkpt lat="51.965617015957832" lon="-9.847047021612525">
        <ele>53.490000000000002</ele>
        <time>2026-06-28T15:56:16Z</time>
      </trkpt>
      <trkpt lat="51.965813990682364" lon="-9.846892962232232">
        <ele>51.57</ele>
        <time>2026-06-28T15:56:18Z</time>
      </trkpt>
      <trkpt lat="51.965918010100722" lon="-9.846811993047595">
        <ele>50.130000000000003</ele>
        <time>2026-06-28T15:56:19Z</time>
      </trkpt>
      <trkpt lat="51.966019012033939" lon="-9.846733035519719">
        <ele>49.649999999999999</ele>
        <time>2026-06-28T15:56:20Z</time>
      </trkpt>
      <trkpt lat="51.966126970946789" lon="-9.846740998327732">
        <ele>49.159999999999997</ele>
        <time>2026-06-28T15:56:21Z</time>
      </trkpt>
      <trkpt lat="51.966239959001541" lon="-9.846749966964126">
        <ele>48.68</ele>
        <time>2026-06-28T15:56:22Z</time>
      </trkpt>
      <trkpt lat="51.966355964541435" lon="-9.84677997417748">
        <ele>48.200000000000003</ele>
        <time>2026-06-28T15:56:23Z</time>
      </trkpt>
      <trkpt lat="51.966703981161118" lon="-9.846938978880644">
        <ele>45.32</ele>
        <time>2026-06-28T15:56:28Z</time>
      </trkpt>
      <trkpt lat="51.966745974496007" lon="-9.846958005800843">
        <ele>41.469999999999999</ele>
        <time>2026-06-28T15:56:36Z</time>
      </trkpt>
      <trkpt lat="51.967025008052588" lon="-9.847084991633892">
        <ele>40.509999999999998</ele>
        <time>2026-06-28T15:56:44Z</time>
      </trkpt>
      <trkpt lat="51.968082971870899" lon="-9.847566029056907">
        <ele>40.990000000000002</ele>
        <time>2026-06-28T15:56:52Z</time>
      </trkpt>
      <trkpt lat="51.969471015036106" lon="-9.84819601289928">
        <ele>42.920000000000002</ele>
        <time>2026-06-28T15:57:02Z</time>
      </trkpt>
      <trkpt lat="51.969561036676168" lon="-9.848237000405788">
        <ele>43.399999999999999</ele>
        <time>2026-06-28T15:57:03Z</time>
      </trkpt>
      <trkpt lat="51.969645023345947" lon="-9.84823901206255">
        <ele>43.880000000000003</ele>
        <time>2026-06-28T15:57:04Z</time>
      </trkpt>
      <trkpt lat="51.969720963388681" lon="-9.848209004849196">
        <ele>43.880000000000003</ele>
        <time>2026-06-28T15:57:05Z</time>
      </trkpt>
      <trkpt lat="51.969817019999027" lon="-9.848170028999448">
        <ele>44.359999999999999</ele>
        <time>2026-06-28T15:57:06Z</time>
      </trkpt>
      <trkpt lat="51.969892038032413" lon="-9.848114959895611">
        <ele>44.359999999999999</ele>
        <time>2026-06-28T15:57:07Z</time>
      </trkpt>
      <trkpt lat="51.970319012179971" lon="-9.847820000723004">
        <ele>44.840000000000003</ele>
        <time>2026-06-28T15:57:13Z</time>
      </trkpt>
      <trkpt lat="51.970788985490799" lon="-9.847631994634867">
        <ele>45.799999999999997</ele>
        <time>2026-06-28T15:57:19Z</time>
      </trkpt>
      <trkpt lat="51.970969028770924" lon="-9.84759796410799">
        <ele>45.799999999999997</ele>
        <time>2026-06-28T15:57:21Z</time>
      </trkpt>
      <trkpt lat="51.971038011834025" lon="-9.847603999078274">
        <ele>46.280000000000001</ele>
        <time>2026-06-28T15:57:22Z</time>
      </trkpt>
      <trkpt lat="51.971106994897127" lon="-9.847611039876938">
        <ele>46.759999999999998</ele>
        <time>2026-06-28T15:57:23Z</time>
      </trkpt>
      <trkpt lat="51.971152005717158" lon="-9.847682034596801">
        <ele>47.240000000000002</ele>
        <time>2026-06-28T15:57:24Z</time>
      </trkpt>
      <trkpt lat="51.971197016537189" lon="-9.847799967974424">
        <ele>47.719999999999999</ele>
        <time>2026-06-28T15:57:25Z</time>
      </trkpt>
      <trkpt lat="51.971246972680092" lon="-9.847935000434518">
        <ele>48.68</ele>
        <time>2026-06-28T15:57:26Z</time>
      </trkpt>
      <trkpt lat="51.971698002889752" lon="-9.849137971177697">
        <ele>50.130000000000003</ele>
        <time>2026-06-28T15:57:32Z</time>
      </trkpt>
      <trkpt lat="51.972219021990895" lon="-9.851274015381932">
        <ele>51.57</ele>
        <time>2026-06-28T15:57:40Z</time>
      </trkpt>
      <trkpt lat="51.972566032782197" lon="-9.853177964687347">
        <ele>51.090000000000003</ele>
        <time>2026-06-28T15:57:47Z</time>
      </trkpt>
      <trkpt lat="51.972799971699715" lon="-9.85621296800673">
        <ele>49.649999999999999</ele>
        <time>2026-06-28T15:57:57Z</time>
      </trkpt>
      <trkpt lat="51.972892004996538" lon="-9.857039004564285">
        <ele>50.130000000000003</ele>
        <time>2026-06-28T15:58:00Z</time>
      </trkpt>
      <trkpt lat="51.97293802164495" lon="-9.857289958745241">
        <ele>50.609999999999999</ele>
        <time>2026-06-28T15:58:01Z</time>
      </trkpt>
      <trkpt lat="51.973409000784159" lon="-9.859840990975499">
        <ele>51.57</ele>
        <time>2026-06-28T15:58:11Z</time>
      </trkpt>
      <trkpt lat="51.973503967747092" lon="-9.860310964286327">
        <ele>52.049999999999997</ele>
        <time>2026-06-28T15:58:13Z</time>
      </trkpt>
      <trkpt lat="51.973550990223885" lon="-9.860509028658271">
        <ele>52.049999999999997</ele>
        <time>2026-06-28T15:58:14Z</time>
      </trkpt>
      <trkpt lat="51.973621984943748" lon="-9.860669961199164">
        <ele>52.049999999999997</ele>
        <time>2026-06-28T15:58:15Z</time>
      </trkpt>
      <trkpt lat="51.974260015413165" lon="-9.862123969942331">
        <ele>51.57</ele>
        <time>2026-06-28T15:58:22Z</time>
      </trkpt>
      <trkpt lat="51.974325980991125" lon="-9.862294960767031">
        <ele>51.57</ele>
        <time>2026-06-28T15:58:23Z</time>
      </trkpt>
      <trkpt lat="51.974344002082944" lon="-9.862467041239142">
        <ele>51.57</ele>
        <time>2026-06-28T15:58:24Z</time>
      </trkpt>
      <trkpt lat="51.974456990137696" lon="-9.863354014232755">
        <ele>50.609999999999999</ele>
        <time>2026-06-28T15:58:31Z</time>
      </trkpt>
      <trkpt lat="51.974480962380767" lon="-9.863458033651114">
        <ele>50.609999999999999</ele>
        <time>2026-06-28T15:58:32Z</time>
      </trkpt>
      <trkpt lat="51.974526979029179" lon="-9.863519975915551">
        <ele>50.609999999999999</ele>
        <time>2026-06-28T15:58:33Z</time>
      </trkpt>
      <trkpt lat="51.974601997062564" lon="-9.863619972020388">
        <ele>50.609999999999999</ele>
        <time>2026-06-28T15:58:34Z</time>
      </trkpt>
      <trkpt lat="51.974665028974414" lon="-9.863661965355277">
        <ele>50.130000000000003</ele>
        <time>2026-06-28T15:58:35Z</time>
      </trkpt>
      <trkpt lat="51.97476401925087" lon="-9.863728014752269">
        <ele>50.130000000000003</ele>
        <time>2026-06-28T15:58:36Z</time>
      </trkpt>
      <trkpt lat="51.9748729839921" lon="-9.863820970058441">
        <ele>50.130000000000003</ele>
        <time>2026-06-28T15:58:37Z</time>
      </trkpt>
      <trkpt lat="51.975998003035784" lon="-9.864863008260727">
        <ele>49.649999999999999</ele>
        <time>2026-06-28T15:58:47Z</time>
      </trkpt>
      <trkpt lat="51.977008022367954" lon="-9.86570798791945">
        <ele>47.240000000000002</ele>
        <time>2026-06-28T15:58:55Z</time>
      </trkpt>
      <trkpt lat="51.977134002372622" lon="-9.865808989852667">
        <ele>47.240000000000002</ele>
        <time>2026-06-28T15:58:56Z</time>
      </trkpt>
      <trkpt lat="51.978239994496107" lon="-9.866201011464">
        <ele>46.280000000000001</ele>
        <time>2026-06-28T15:59:04Z</time>
      </trkpt>
      <trkpt lat="51.978421965613961" lon="-9.866264965385199">
        <ele>47.240000000000002</ele>
        <time>2026-06-28T15:59:09Z</time>
      </trkpt>
      <trkpt lat="51.978490026667714" lon="-9.866290027275682">
        <ele>48.200000000000003</ele>
        <time>2026-06-28T15:59:19Z</time>
      </trkpt>
      <trkpt lat="51.978932004421949" lon="-9.866447020322084">
        <ele>48.68</ele>
        <time>2026-06-28T15:59:24Z</time>
      </trkpt>
      <trkpt lat="51.980056017637253" lon="-9.866871982812882">
        <ele>48.200000000000003</ele>
        <time>2026-06-28T15:59:31Z</time>
      </trkpt>
      <trkpt lat="51.982418037950993" lon="-9.867975963279605">
        <ele>49.649999999999999</ele>
        <time>2026-06-28T15:59:44Z</time>
      </trkpt>
      <trkpt lat="51.984107997268438" lon="-9.868774004280567">
        <ele>51.57</ele>
        <time>2026-06-28T15:59:54Z</time>
      </trkpt>
      <trkpt lat="51.984250992536545" lon="-9.86878196708858">
        <ele>52.049999999999997</ele>
        <time>2026-06-28T15:59:55Z</time>
      </trkpt>
      <trkpt lat="51.984389964491129" lon="-9.868790013715625">
        <ele>51.57</ele>
        <time>2026-06-28T15:59:56Z</time>
      </trkpt>
      <trkpt lat="51.984522985294461" lon="-9.868746008723974">
        <ele>51.57</ele>
        <time>2026-06-28T15:59:57Z</time>
      </trkpt>
      <trkpt lat="51.984667992219329" lon="-9.868690017610788">
        <ele>51.090000000000003</ele>
        <time>2026-06-28T15:59:58Z</time>
      </trkpt>
      <trkpt lat="51.984826996922493" lon="-9.868626985698938">
        <ele>50.609999999999999</ele>
        <time>2026-06-28T15:59:59Z</time>
      </trkpt>
      <trkpt lat="51.986100040376186" lon="-9.868128011003137">
        <ele>46.759999999999998</ele>
        <time>2026-06-28T16:00:06Z</time>
      </trkpt>
      <trkpt lat="51.987255988642573" lon="-9.867740012705326">
        <ele>48.200000000000003</ele>
        <time>2026-06-28T16:00:13Z</time>
      </trkpt>
      <trkpt lat="51.987348021939397" lon="-9.867740012705326">
        <ele>48.68</ele>
        <time>2026-06-28T16:00:14Z</time>
      </trkpt>
      <trkpt lat="51.987439971417189" lon="-9.867837997153401">
        <ele>49.649999999999999</ele>
        <time>2026-06-28T16:00:15Z</time>
      </trkpt>
      <trkpt lat="51.987500991672277" lon="-9.867960037663579">
        <ele>50.130000000000003</ele>
        <time>2026-06-28T16:00:16Z</time>
      </trkpt>
      <trkpt lat="51.98752798140049" lon="-9.868133962154388">
        <ele>51.090000000000003</ele>
        <time>2026-06-28T16:00:17Z</time>
      </trkpt>
      <trkpt lat="51.987538039684296" lon="-9.868290033191443">
        <ele>51.57</ele>
        <time>2026-06-28T16:00:18Z</time>
      </trkpt>
      <trkpt lat="51.987515995278955" lon="-9.868433028459549">
        <ele>52.049999999999997</ele>
        <time>2026-06-28T16:00:19Z</time>
      </trkpt>
      <trkpt lat="51.987475007772446" lon="-9.868578035384417">
        <ele>52.049999999999997</ele>
        <time>2026-06-28T16:00:20Z</time>
      </trkpt>
      <trkpt lat="51.987424967810512" lon="-9.868745002895594">
        <ele>52.049999999999997</ele>
        <time>2026-06-28T16:00:21Z</time>
      </trkpt>
      <trkpt lat="51.987340981140733" lon="-9.868909036740661">
        <ele>52.049999999999997</ele>
        <time>2026-06-28T16:00:22Z</time>
      </trkpt>
      <trkpt lat="51.986608989536762" lon="-9.870348041877151">
        <ele>48.68</ele>
        <time>2026-06-28T16:00:29Z</time>
      </trkpt>
      <trkpt lat="51.986231971532106" lon="-9.871089002117515">
        <ele>49.159999999999997</ele>
        <time>2026-06-28T16:00:34Z</time>
      </trkpt>
      <trkpt lat="51.986241023987532" lon="-9.871167959645391">
        <ele>49.649999999999999</ele>
        <time>2026-06-28T16:00:35Z</time>
      </trkpt>
      <trkpt lat="51.986259967088699" lon="-9.871192015707493">
        <ele>49.649999999999999</ele>
        <time>2026-06-28T16:00:36Z</time>
      </trkpt>
      <trkpt lat="51.986286034807563" lon="-9.871224034577608">
        <ele>50.130000000000003</ele>
        <time>2026-06-28T16:00:37Z</time>
      </trkpt>
      <trkpt lat="51.986321993172169" lon="-9.871233003214002">
        <ele>50.609999999999999</ele>
        <time>2026-06-28T16:00:38Z</time>
      </trkpt>
      <trkpt lat="51.986383013427258" lon="-9.871223028749228">
        <ele>50.609999999999999</ele>
        <time>2026-06-28T16:00:39Z</time>
      </trkpt>
      <trkpt lat="51.986467000097036" lon="-9.871209030970931">
        <ele>50.609999999999999</ele>
        <time>2026-06-28T16:00:40Z</time>
      </trkpt>
      <trkpt lat="51.986566996201873" lon="-9.871192015707493">
        <ele>50.609999999999999</ele>
        <time>2026-06-28T16:00:41Z</time>
      </trkpt>
      <trkpt lat="51.987464027479291" lon="-9.871040973812342">
        <ele>49.649999999999999</ele>
        <time>2026-06-28T16:00:47Z</time>
      </trkpt>
      <trkpt lat="51.988962963223457" lon="-9.870573012158275">
        <ele>52.049999999999997</ele>
        <time>2026-06-28T16:00:56Z</time>
      </trkpt>
      <trkpt lat="51.989554977044463" lon="-9.870275035500526">
        <ele>50.609999999999999</ele>
        <time>2026-06-28T16:01:00Z</time>
      </trkpt>
      <trkpt lat="51.989706018939614" lon="-9.870175961405039">
        <ele>50.130000000000003</ele>
        <time>2026-06-28T16:01:01Z</time>
      </trkpt>
      <trkpt lat="51.990607995539904" lon="-9.869586965069175">
        <ele>48.200000000000003</ele>
        <time>2026-06-28T16:01:07Z</time>
      </trkpt>
      <trkpt lat="51.990975039079785" lon="-9.869387978687882">
        <ele>49.649999999999999</ele>
        <time>2026-06-28T16:01:10Z</time>
      </trkpt>
      <trkpt lat="51.991102024912834" lon="-9.869378004223108">
        <ele>50.609999999999999</ele>
        <time>2026-06-28T16:01:11Z</time>
      </trkpt>
      <trkpt lat="51.991237979382277" lon="-9.86938102170825">
        <ele>50.609999999999999</ele>
        <time>2026-06-28T16:01:12Z</time>
      </trkpt>
      <trkpt lat="51.991367982700467" lon="-9.869430977851152">
        <ele>51.090000000000003</ele>
        <time>2026-06-28T16:01:13Z</time>
      </trkpt>
      <trkpt lat="51.991490023210645" lon="-9.869478000327945">
        <ele>51.57</ele>
        <time>2026-06-28T16:01:14Z</time>
      </trkpt>
      <trkpt lat="51.991624971851707" lon="-9.869599035009742">
        <ele>52.530000000000001</ele>
        <time>2026-06-28T16:01:15Z</time>
      </trkpt>
      <trkpt lat="51.991764027625322" lon="-9.869690984487534">
        <ele>53.490000000000002</ele>
        <time>2026-06-28T16:01:16Z</time>
      </trkpt>
      <trkpt lat="51.99190903455019" lon="-9.869739012792707">
        <ele>54.93</ele>
        <time>2026-06-28T16:01:17Z</time>
      </trkpt>
      <trkpt lat="51.992051023989916" lon="-9.869786035269499">
        <ele>55.890000000000001</ele>
        <time>2026-06-28T16:01:18Z</time>
      </trkpt>
      <trkpt lat="51.992192007601261" lon="-9.86983397975564">
        <ele>56.859999999999999</ele>
        <time>2026-06-28T16:01:19Z</time>
      </trkpt>
      <trkpt lat="51.992332991212606" lon="-9.869836997240782">
        <ele>57.82</ele>
        <time>2026-06-28T16:01:20Z</time>
      </trkpt>
      <trkpt lat="51.992472968995571" lon="-9.869761979207397">
        <ele>58.299999999999997</ele>
        <time>2026-06-28T16:01:21Z</time>
      </trkpt>
      <trkpt lat="51.9926199875772" lon="-9.869683021679521">
        <ele>58.780000000000001</ele>
        <time>2026-06-28T16:01:22Z</time>
      </trkpt>
      <trkpt lat="51.99277002364397" lon="-9.869601968675852">
        <ele>59.259999999999998</ele>
        <time>2026-06-28T16:01:23Z</time>
      </trkpt>
      <trkpt lat="51.9928980153054" lon="-9.869475988671184">
        <ele>59.740000000000002</ele>
        <time>2026-06-28T16:01:24Z</time>
      </trkpt>
      <trkpt lat="51.993005974218249" lon="-9.869310026988387">
        <ele>60.219999999999999</ele>
        <time>2026-06-28T16:01:25Z</time>
      </trkpt>
      <trkpt lat="51.993119968101382" lon="-9.869135012850165">
        <ele>60.700000000000003</ele>
        <time>2026-06-28T16:01:26Z</time>
      </trkpt>
      <trkpt lat="51.99317897669971" lon="-9.868927979841828">
        <ele>61.659999999999997</ele>
        <time>2026-06-28T16:01:27Z</time>
      </trkpt>
      <trkpt lat="51.993244020268321" lon="-9.868703009560704">
        <ele>62.140000000000001</ele>
        <time>2026-06-28T16:01:28Z</time>
      </trkpt>
      <trkpt lat="51.993299005553126" lon="-9.868462029844523">
        <ele>63.100000000000001</ele>
        <time>2026-06-28T16:01:29Z</time>
      </trkpt>
      <trkpt lat="51.993324989452958" lon="-9.868211997672916">
        <ele>63.579999999999998</ele>
        <time>2026-06-28T16:01:30Z</time>
      </trkpt>
      <trkpt lat="51.993561023846269" lon="-9.865960031747818">
        <ele>70.310000000000002</ele>
        <time>2026-06-28T16:01:39Z</time>
      </trkpt>
      <trkpt lat="51.99373503215611" lon="-9.864328997209668">
        <ele>72.239999999999995</ele>
        <time>2026-06-28T16:01:44Z</time>
      </trkpt>
      <trkpt lat="51.993770990520716" lon="-9.864016016945243">
        <ele>72.719999999999999</ele>
        <time>2026-06-28T16:01:45Z</time>
      </trkpt>
      <trkpt lat="51.994035020470619" lon="-9.861673023551703">
        <ele>79.450000000000003</ele>
        <time>2026-06-28T16:01:53Z</time>
      </trkpt>
      <trkpt lat="51.99427499435842" lon="-9.859550977125764">
        <ele>81.370000000000005</ele>
        <time>2026-06-28T16:02:01Z</time>
      </trkpt>
      <trkpt lat="51.994354035705328" lon="-9.858855027705431">
        <ele>82.810000000000002</ele>
        <time>2026-06-28T16:02:05Z</time>
      </trkpt>
      <trkpt lat="51.994371972978115" lon="-9.858693005517125">
        <ele>83.290000000000006</ele>
        <time>2026-06-28T16:02:06Z</time>
      </trkpt>
      <trkpt lat="51.994556961581111" lon="-9.857620038092136">
        <ele>88.579999999999998</ele>
        <time>2026-06-28T16:02:13Z</time>
      </trkpt>
      <trkpt lat="51.994600966572762" lon="-9.857462039217353">
        <ele>89.060000000000002</ele>
        <time>2026-06-28T16:02:14Z</time>
      </trkpt>
      <trkpt lat="51.995242014527321" lon="-9.85608296468854">
        <ele>92.420000000000002</ele>
        <time>2026-06-28T16:02:22Z</time>
      </trkpt>
      <trkpt lat="51.996347000822425" lon="-9.853555988520384">
        <ele>92.900000000000006</ele>
        <time>2026-06-28T16:02:34Z</time>
      </trkpt>
      <trkpt lat="51.997532034292817" lon="-9.851184999570251">
        <ele>92.900000000000006</ele>
        <time>2026-06-28T16:02:45Z</time>
      </trkpt>
      <trkpt lat="51.997978035360575" lon="-9.850306995213032">
        <ele>92.900000000000006</ele>
        <time>2026-06-28T16:02:49Z</time>
      </trkpt>
      <trkpt lat="51.998959975317121" lon="-9.848376978188753">
        <ele>91.939999999999998</ele>
        <time>2026-06-28T16:02:58Z</time>
      </trkpt>
      <trkpt lat="51.999831022694707" lon="-9.846663968637586">
        <ele>91.459999999999994</ele>
        <time>2026-06-28T16:03:06Z</time>
      </trkpt>
      <trkpt lat="52.000586986541748" lon="-9.845104012638331">
        <ele>90.980000000000004</ele>
        <time>2026-06-28T16:03:13Z</time>
      </trkpt>
      <trkpt lat="52.000650018453598" lon="-9.844850962981582">
        <ele>90.980000000000004</ele>
        <time>2026-06-28T16:03:14Z</time>
      </trkpt>
      <trkpt lat="52.000715984031558" lon="-9.84458701685071">
        <ele>91.459999999999994</ele>
        <time>2026-06-28T16:03:15Z</time>
      </trkpt>
      <trkpt lat="52.001511007547379" lon="-9.842011006549001">
        <ele>90.5</ele>
        <time>2026-06-28T16:03:25Z</time>
      </trkpt>
      <trkpt lat="52.002457994967699" lon="-9.840130023658276">
        <ele>89.540000000000006</ele>
        <time>2026-06-28T16:03:34Z</time>
      </trkpt>
      <trkpt lat="52.003466002643108" lon="-9.838649025186896">
        <ele>90.980000000000004</ele>
        <time>2026-06-28T16:03:42Z</time>
      </trkpt>
      <trkpt lat="52.003611009567976" lon="-9.838478034362197">
        <ele>91.939999999999998</ele>
        <time>2026-06-28T16:03:43Z</time>
      </trkpt>
      <trkpt lat="52.003760961815715" lon="-9.838347025215626">
        <ele>92.900000000000006</ele>
        <time>2026-06-28T16:03:44Z</time>
      </trkpt>
      <trkpt lat="52.003916027024388" lon="-9.838220961391926">
        <ele>93.870000000000005</ele>
        <time>2026-06-28T16:03:45Z</time>
      </trkpt>
      <trkpt lat="52.004070002585649" lon="-9.838095987215638">
        <ele>94.349999999999994</ele>
        <time>2026-06-28T16:03:46Z</time>
      </trkpt>
      <trkpt lat="52.004212997853756" lon="-9.837980987504125">
        <ele>95.310000000000002</ele>
        <time>2026-06-28T16:03:47Z</time>
      </trkpt>
      <trkpt lat="52.004321040585637" lon="-9.837891971692443">
        <ele>96.269999999999996</ele>
        <time>2026-06-28T16:03:48Z</time>
      </trkpt>
      <trkpt lat="52.004374014213681" lon="-9.837697008624673">
        <ele>97.709999999999994</ele>
        <time>2026-06-28T16:03:49Z</time>
      </trkpt>
      <trkpt lat="52.004421036690474" lon="-9.837524006143212">
        <ele>98.670000000000002</ele>
        <time>2026-06-28T16:03:50Z</time>
      </trkpt>
      <trkpt lat="52.004473004490137" lon="-9.837331976741552">
        <ele>100.11</ele>
        <time>2026-06-28T16:03:51Z</time>
      </trkpt>
      <trkpt lat="52.004527989774942" lon="-9.837127961218357">
        <ele>101.08</ele>
        <time>2026-06-28T16:03:52Z</time>
      </trkpt>
      <trkpt lat="52.004853039979935" lon="-9.835895989090204">
        <ele>107.31999999999999</ele>
        <time>2026-06-28T16:03:58Z</time>
      </trkpt>
      <trkpt lat="52.004862008616328" lon="-9.835658026859164">
        <ele>107.81</ele>
        <time>2026-06-28T16:03:59Z</time>
      </trkpt>
      <trkpt lat="52.004866031929851" lon="-9.835417969152331">
        <ele>108.77</ele>
        <time>2026-06-28T16:04:00Z</time>
      </trkpt>
      <trkpt lat="52.004870977252722" lon="-9.835161985829473">
        <ele>109.73</ele>
        <time>2026-06-28T16:04:01Z</time>
      </trkpt>
      <trkpt lat="52.004876006394625" lon="-9.834909019991756">
        <ele>109.73</ele>
        <time>2026-06-28T16:04:02Z</time>
      </trkpt>
      <trkpt lat="52.004894027486444" lon="-9.834652030840516">
        <ele>110.20999999999999</ele>
        <time>2026-06-28T16:04:03Z</time>
      </trkpt>
      <trkpt lat="52.004938032478094" lon="-9.834406021982431">
        <ele>111.17</ele>
        <time>2026-06-28T16:04:04Z</time>
      </trkpt>
      <trkpt lat="52.004980025812984" lon="-9.834171999245882">
        <ele>112.13</ele>
        <time>2026-06-28T16:04:05Z</time>
      </trkpt>
      <trkpt lat="52.005052026361227" lon="-9.833945017307997">
        <ele>113.09</ele>
        <time>2026-06-28T16:04:06Z</time>
      </trkpt>
      <trkpt lat="52.005131989717484" lon="-9.833710994571447">
        <ele>114.53</ele>
        <time>2026-06-28T16:04:07Z</time>
      </trkpt>
      <trkpt lat="52.005372969433665" lon="-9.83300800435245">
        <ele>117.42</ele>
        <time>2026-06-28T16:04:10Z</time>
      </trkpt>
      <trkpt lat="52.005543960258365" lon="-9.83255797997117">
        <ele>119.81999999999999</ele>
        <time>2026-06-28T16:04:12Z</time>
      </trkpt>
      <trkpt lat="52.005656026303768" lon="-9.832359999418259">
        <ele>121.26000000000001</ele>
        <time>2026-06-28T16:04:13Z</time>
      </trkpt>
      <trkpt lat="52.006209986284375" lon="-9.831326007843018">
        <ele>127.98999999999999</ele>
        <time>2026-06-28T16:04:18Z</time>
      </trkpt>
      <trkpt lat="52.006265977397561" lon="-9.831133978441358">
        <ele>129.43000000000001</ele>
        <time>2026-06-28T16:04:19Z</time>
      </trkpt>
      <trkpt lat="52.006321968510747" lon="-9.830916970968247">
        <ele>130.88</ele>
        <time>2026-06-28T16:04:20Z</time>
      </trkpt>
      <trkpt lat="52.006506035104394" lon="-9.829801004379988">
        <ele>135.68000000000001</ele>
        <time>2026-06-28T16:04:25Z</time>
      </trkpt>
      <trkpt lat="52.006564037874341" lon="-9.829614004120231">
        <ele>136.63999999999999</ele>
        <time>2026-06-28T16:04:26Z</time>
      </trkpt>
      <trkpt lat="52.006625980138779" lon="-9.829419041052461">
        <ele>137.61000000000001</ele>
        <time>2026-06-28T16:04:27Z</time>
      </trkpt>
      <trkpt lat="52.006666967645288" lon="-9.829198010265827">
        <ele>139.05000000000001</ele>
        <time>2026-06-28T16:04:28Z</time>
      </trkpt>
      <trkpt lat="52.006679959595203" lon="-9.828970022499561">
        <ele>140.00999999999999</ele>
        <time>2026-06-28T16:04:29Z</time>
      </trkpt>
      <trkpt lat="52.006694041192532" lon="-9.828724013641477">
        <ele>140.97</ele>
        <time>2026-06-28T16:04:30Z</time>
      </trkpt>
      <trkpt lat="52.006764030084014" lon="-9.827802004292607">
        <ele>144.34</ele>
        <time>2026-06-28T16:04:34Z</time>
      </trkpt>
      <trkpt lat="52.006833013147116" lon="-9.827619027346373">
        <ele>144.34</ele>
        <time>2026-06-28T16:04:35Z</time>
      </trkpt>
      <trkpt lat="52.007429972290993" lon="-9.825887996703386">
        <ele>145.30000000000001</ele>
        <time>2026-06-28T16:04:43Z</time>
      </trkpt>
      <trkpt lat="52.007471965625882" lon="-9.825678030028939">
        <ele>145.30000000000001</ele>
        <time>2026-06-28T16:04:44Z</time>
      </trkpt>
      <trkpt lat="52.007517982274294" lon="-9.825447024777532">
        <ele>145.30000000000001</ele>
        <time>2026-06-28T16:04:45Z</time>
      </trkpt>
      <trkpt lat="52.007491998374462" lon="-9.825247032567859">
        <ele>145.78</ele>
        <time>2026-06-28T16:04:46Z</time>
      </trkpt>
      <trkpt lat="52.007460985332727" lon="-9.825019966810942">
        <ele>145.78</ele>
        <time>2026-06-28T16:04:47Z</time>
      </trkpt>
      <trkpt lat="52.007428966462612" lon="-9.824783010408282">
        <ele>146.25999999999999</ele>
        <time>2026-06-28T16:04:48Z</time>
      </trkpt>
      <trkpt lat="52.007369035854936" lon="-9.824546976014972">
        <ele>146.25999999999999</ele>
        <time>2026-06-28T16:04:49Z</time>
      </trkpt>
      <trkpt lat="52.007282031700015" lon="-9.824328040704131">
        <ele>147.22</ele>
        <time>2026-06-28T16:04:50Z</time>
      </trkpt>
      <trkpt lat="52.007196033373475" lon="-9.82411103323102">
        <ele>147.69999999999999</ele>
        <time>2026-06-28T16:04:51Z</time>
      </trkpt>
      <trkpt lat="52.006952036172152" lon="-9.823494041338563">
        <ele>150.09999999999999</ele>
        <time>2026-06-28T16:04:54Z</time>
      </trkpt>
      <trkpt lat="52.006900990381837" lon="-9.823301006108522">
        <ele>150.58000000000001</ele>
        <time>2026-06-28T16:04:55Z</time>
      </trkpt>
      <trkpt lat="52.006867965683341" lon="-9.823089027777314">
        <ele>151.53999999999999</ele>
        <time>2026-06-28T16:04:56Z</time>
      </trkpt>
      <trkpt lat="52.006793031468987" lon="-9.8227150272578">
        <ele>152.50999999999999</ele>
        <time>2026-06-28T16:04:58Z</time>
      </trkpt>
      <trkpt lat="52.006739974021912" lon="-9.82254202477634">
        <ele>152.50999999999999</ele>
        <time>2026-06-28T16:04:59Z</time>
      </trkpt>
      <trkpt lat="52.006650036200881" lon="-9.822421995922923">
        <ele>152.99000000000001</ele>
        <time>2026-06-28T16:05:00Z</time>
      </trkpt>
      <trkpt lat="52.006552973762155" lon="-9.822291992604733">
        <ele>152.99000000000001</ele>
        <time>2026-06-28T16:05:01Z</time>
      </trkpt>
      <trkpt lat="52.00643696822226" lon="-9.822232984006405">
        <ele>153.47</ele>
        <time>2026-06-28T16:05:02Z</time>
      </trkpt>
      <trkpt lat="52.00630403123796" lon="-9.822164000943303">
        <ele>153.94999999999999</ele>
        <time>2026-06-28T16:05:03Z</time>
      </trkpt>
      <trkpt lat="52.006163969635963" lon="-9.82209300622344">
        <ele>154.43000000000001</ele>
        <time>2026-06-28T16:05:04Z</time>
      </trkpt>
      <trkpt lat="52.005888959392905" lon="-9.821951016783714">
        <ele>155.87</ele>
        <time>2026-06-28T16:05:06Z</time>
      </trkpt>
      <trkpt lat="52.005779994651675" lon="-9.821874992921948">
        <ele>156.34999999999999</ele>
        <time>2026-06-28T16:05:07Z</time>
      </trkpt>
      <trkpt lat="52.005696007981896" lon="-9.821754964068532">
        <ele>156.83000000000001</ele>
        <time>2026-06-28T16:05:08Z</time>
      </trkpt>
      <trkpt lat="52.005633981898427" lon="-9.821611968800426">
        <ele>157.31</ele>
        <time>2026-06-28T16:05:09Z</time>
      </trkpt>
      <trkpt lat="52.005589976906776" lon="-9.821414994075894">
        <ele>158.27000000000001</ele>
        <time>2026-06-28T16:05:10Z</time>
      </trkpt>
      <trkpt lat="52.005540020763874" lon="-9.821191029623151">
        <ele>158.27000000000001</ele>
        <time>2026-06-28T16:05:11Z</time>
      </trkpt>
      <trkpt lat="52.005200972780585" lon="-9.819582961499691">
        <ele>165</ele>
        <time>2026-06-28T16:05:17Z</time>
      </trkpt>
      <trkpt lat="52.005200972780585" lon="-9.819338964298368">
        <ele>165.96000000000001</ele>
        <time>2026-06-28T16:05:18Z</time>
      </trkpt>
      <trkpt lat="52.005208013579249" lon="-9.819096978753805">
        <ele>166.44999999999999</ele>
        <time>2026-06-28T16:05:19Z</time>
      </trkpt>
      <trkpt lat="52.005237014964223" lon="-9.818840995430946">
        <ele>166.93000000000001</ele>
        <time>2026-06-28T16:05:20Z</time>
      </trkpt>
      <trkpt lat="52.005310021340847" lon="-9.818650977686048">
        <ele>167.41</ele>
        <time>2026-06-28T16:05:21Z</time>
      </trkpt>
      <trkpt lat="52.005382021889091" lon="-9.818460959941149">
        <ele>166.93000000000001</ele>
        <time>2026-06-28T16:05:22Z</time>
      </trkpt>
      <trkpt lat="52.005503978580236" lon="-9.818316958844662">
        <ele>166.93000000000001</ele>
        <time>2026-06-28T16:05:23Z</time>
      </trkpt>
      <trkpt lat="52.005633981898427" lon="-9.8181820102036">
        <ele>166.93000000000001</ele>
        <time>2026-06-28T16:05:24Z</time>
      </trkpt>
      <trkpt lat="52.00576800853014" lon="-9.818043038249016">
        <ele>166.93000000000001</ele>
        <time>2026-06-28T16:05:25Z</time>
      </trkpt>
      <trkpt lat="52.005902035161853" lon="-9.8179039824754">
        <ele>166.44999999999999</ele>
        <time>2026-06-28T16:05:26Z</time>
      </trkpt>
      <trkpt lat="52.006839970126748" lon="-9.817049028351903">
        <ele>165.96000000000001</ele>
        <time>2026-06-28T16:05:34Z</time>
      </trkpt>
      <trkpt lat="52.007739013060927" lon="-9.816511999815702">
        <ele>164.52000000000001</ele>
        <time>2026-06-28T16:05:40Z</time>
      </trkpt>
      <trkpt lat="52.008058028295636" lon="-9.816200025379658">
        <ele>163.56</ele>
        <time>2026-06-28T16:05:42Z</time>
      </trkpt>
      <trkpt lat="52.008184008300304" lon="-9.816044038161635">
        <ele>163.08000000000001</ele>
        <time>2026-06-28T16:05:43Z</time>
      </trkpt>
      <trkpt lat="52.008843999356031" lon="-9.81500199995935">
        <ele>161.63999999999999</ele>
        <time>2026-06-28T16:05:50Z</time>
      </trkpt>
      <trkpt lat="52.009652014821768" lon="-9.813846973702312">
        <ele>162.12</ele>
        <time>2026-06-28T16:05:56Z</time>
      </trkpt>
      <trkpt lat="52.009906992316246" lon="-9.813360990956426">
        <ele>161.63999999999999</ele>
        <time>2026-06-28T16:05:58Z</time>
      </trkpt>
      <trkpt lat="52.010012017562985" lon="-9.813079023733735">
        <ele>161.63999999999999</ele>
        <time>2026-06-28T16:05:59Z</time>
      </trkpt>
      <trkpt lat="52.010422982275486" lon="-9.812028016895056">
        <ele>162.12</ele>
        <time>2026-06-28T16:06:03Z</time>
      </trkpt>
      <trkpt lat="52.010523984208703" lon="-9.811836993321776">
        <ele>162.59999999999999</ele>
        <time>2026-06-28T16:06:04Z</time>
      </trkpt>
      <trkpt lat="52.010653987526894" lon="-9.811727022752166">
        <ele>162.59999999999999</ele>
        <time>2026-06-28T16:06:05Z</time>
      </trkpt>
      <trkpt lat="52.010789019986987" lon="-9.811638006940484">
        <ele>162.59999999999999</ele>
        <time>2026-06-28T16:06:06Z</time>
      </trkpt>
      <trkpt lat="52.010930003598332" lon="-9.81154496781528">
        <ele>163.08000000000001</ele>
        <time>2026-06-28T16:06:07Z</time>
      </trkpt>
      <trkpt lat="52.011072998866439" lon="-9.811451006680727">
        <ele>163.08000000000001</ele>
        <time>2026-06-28T16:06:08Z</time>
      </trkpt>
      <trkpt lat="52.011214988306165" lon="-9.811357967555523">
        <ele>163.08000000000001</ele>
        <time>2026-06-28T16:06:09Z</time>
      </trkpt>
      <trkpt lat="52.011356977745891" lon="-9.811265012249351">
        <ele>163.08000000000001</ele>
        <time>2026-06-28T16:06:10Z</time>
      </trkpt>
      <trkpt lat="52.011483963578939" lon="-9.811138026416302">
        <ele>163.08000000000001</ele>
        <time>2026-06-28T16:06:11Z</time>
      </trkpt>
      <trkpt lat="52.011600974947214" lon="-9.810979021713138">
        <ele>163.08000000000001</ele>
        <time>2026-06-28T16:06:12Z</time>
      </trkpt>
      <trkpt lat="52.011700971052051" lon="-9.810795960947871">
        <ele>163.08000000000001</ele>
        <time>2026-06-28T16:06:13Z</time>
      </trkpt>
      <trkpt lat="52.011784035712481" lon="-9.810587000101805">
        <ele>163.08000000000001</ele>
        <time>2026-06-28T16:06:14Z</time>
      </trkpt>
      <trkpt lat="52.011855030432343" lon="-9.810362029820681">
        <ele>163.08000000000001</ele>
        <time>2026-06-28T16:06:15Z</time>
      </trkpt>
      <trkpt lat="52.011908004060388" lon="-9.810122977942228">
        <ele>163.08000000000001</ele>
        <time>2026-06-28T16:06:16Z</time>
      </trkpt>
      <trkpt lat="52.0119349937886" lon="-9.809877974912524">
        <ele>163.08000000000001</ele>
        <time>2026-06-28T16:06:17Z</time>
      </trkpt>
      <trkpt lat="52.01195502653718" lon="-9.809644035995007">
        <ele>162.59999999999999</ele>
        <time>2026-06-28T16:06:18Z</time>
      </trkpt>
      <trkpt lat="52.011947985738516" lon="-9.809410013258457">
        <ele>162.59999999999999</ele>
        <time>2026-06-28T16:06:19Z</time>
      </trkpt>
      <trkpt lat="52.011918984353542" lon="-9.808995025232434">
        <ele>162.59999999999999</ele>
        <time>2026-06-28T16:06:21Z</time>
      </trkpt>
      <trkpt lat="52.011956032365561" lon="-9.808802995830774">
        <ele>162.59999999999999</ele>
        <time>2026-06-28T16:06:22Z</time>
      </trkpt>
      <trkpt lat="52.011996014043689" lon="-9.808633010834456">
        <ele>163.08000000000001</ele>
        <time>2026-06-28T16:06:23Z</time>
      </trkpt>
      <trkpt lat="52.012039013206959" lon="-9.808450033888221">
        <ele>163.08000000000001</ele>
        <time>2026-06-28T16:06:24Z</time>
      </trkpt>
      <trkpt lat="52.012086035683751" lon="-9.808250041678548">
        <ele>162.59999999999999</ele>
        <time>2026-06-28T16:06:25Z</time>
      </trkpt>
      <trkpt lat="52.012135991826653" lon="-9.808038985356689">
        <ele>162.59999999999999</ele>
        <time>2026-06-28T16:06:26Z</time>
      </trkpt>
      <trkpt lat="52.012232970446348" lon="-9.807627014815807">
        <ele>163.08000000000001</ele>
        <time>2026-06-28T16:06:28Z</time>
      </trkpt>
      <trkpt lat="52.012293990701437" lon="-9.807450994849205">
        <ele>163.56</ele>
        <time>2026-06-28T16:06:29Z</time>
      </trkpt>
      <trkpt lat="52.012384012341499" lon="-9.807299030944705">
        <ele>163.56</ele>
        <time>2026-06-28T16:06:30Z</time>
      </trkpt>
      <trkpt lat="52.012480990961194" lon="-9.807136002928019">
        <ele>164.03999999999999</ele>
        <time>2026-06-28T16:06:31Z</time>
      </trkpt>
      <trkpt lat="52.012599008157849" lon="-9.806981021538377">
        <ele>164.03999999999999</ele>
        <time>2026-06-28T16:06:32Z</time>
      </trkpt>
      <trkpt lat="52.013746993616223" lon="-9.805574035272002">
        <ele>164.52000000000001</ele>
        <time>2026-06-28T16:06:41Z</time>
      </trkpt>
      <trkpt lat="52.01423498801887" lon="-9.805061984807253">
        <ele>164.03999999999999</ele>
        <time>2026-06-28T16:06:45Z</time>
      </trkpt>
      <trkpt lat="52.014331966638565" lon="-9.804852018132806">
        <ele>163.56</ele>
        <time>2026-06-28T16:06:46Z</time>
      </trkpt>
      <trkpt lat="52.014425005763769" lon="-9.804651020094752">
        <ele>163.08000000000001</ele>
        <time>2026-06-28T16:06:47Z</time>
      </trkpt>
      <trkpt lat="52.014618963003159" lon="-9.804229997098446">
        <ele>162.12</ele>
        <time>2026-06-28T16:06:49Z</time>
      </trkpt>
      <trkpt lat="52.01474997214973" lon="-9.804071998223662">
        <ele>161.16</ele>
        <time>2026-06-28T16:06:50Z</time>
      </trkpt>
      <trkpt lat="52.014882992953062" lon="-9.803921962156892">
        <ele>161.16</ele>
        <time>2026-06-28T16:06:51Z</time>
      </trkpt>
      <trkpt lat="52.01614698395133" lon="-9.802731983363628">
        <ele>156.83000000000001</ele>
        <time>2026-06-28T16:06:59Z</time>
      </trkpt>
      <trkpt lat="52.016525007784367" lon="-9.802297968417406">
        <ele>154.43000000000001</ele>
        <time>2026-06-28T16:07:02Z</time>
      </trkpt>
      <trkpt lat="52.0166199747473" lon="-9.802098982036114">
        <ele>153.94999999999999</ele>
        <time>2026-06-28T16:07:03Z</time>
      </trkpt>
      <trkpt lat="52.016717037186027" lon="-9.801883986219764">
        <ele>152.99000000000001</ele>
        <time>2026-06-28T16:07:04Z</time>
      </trkpt>
      <trkpt lat="52.01683103106916" lon="-9.801606964319944">
        <ele>152.50999999999999</ele>
        <time>2026-06-28T16:07:05Z</time>
      </trkpt>
      <trkpt lat="52.016878975555301" lon="-9.801387023180723">
        <ele>151.53999999999999</ele>
        <time>2026-06-28T16:07:06Z</time>
      </trkpt>
      <trkpt lat="52.016936978325248" lon="-9.801126010715962">
        <ele>151.06</ele>
        <time>2026-06-28T16:07:07Z</time>
      </trkpt>
      <trkpt lat="52.016991041600704" lon="-9.800881007686257">
        <ele>150.58000000000001</ele>
        <time>2026-06-28T16:07:08Z</time>
      </trkpt>
      <trkpt lat="52.017036974430084" lon="-9.80067296884954">
        <ele>150.09999999999999</ele>
        <time>2026-06-28T16:07:09Z</time>
      </trkpt>
      <trkpt lat="52.017066981643438" lon="-9.800533996894956">
        <ele>149.13999999999999</ele>
        <time>2026-06-28T16:07:10Z</time>
      </trkpt>
      <trkpt lat="52.017046026885509" lon="-9.800383960828185">
        <ele>148.66</ele>
        <time>2026-06-28T16:07:11Z</time>
      </trkpt>
      <trkpt lat="52.017023982480168" lon="-9.800234008580446">
        <ele>148.18000000000001</ele>
        <time>2026-06-28T16:07:12Z</time>
      </trkpt>
      <trkpt lat="52.016971008852124" lon="-9.800161002203822">
        <ele>147.69999999999999</ele>
        <time>2026-06-28T16:07:13Z</time>
      </trkpt>
      <trkpt lat="52.016894984990358" lon="-9.800056982785463">
        <ele>147.22</ele>
        <time>2026-06-28T16:07:14Z</time>
      </trkpt>
      <trkpt lat="52.016819966956973" lon="-9.799955980852246">
        <ele>146.74000000000001</ele>
        <time>2026-06-28T16:07:15Z</time>
      </trkpt>
      <trkpt lat="52.01678803190589" lon="-9.799828995019198">
        <ele>146.25999999999999</ele>
        <time>2026-06-28T16:07:16Z</time>
      </trkpt>
      <trkpt lat="52.01678803190589" lon="-9.799693962559104">
        <ele>145.78</ele>
        <time>2026-06-28T16:07:17Z</time>
      </trkpt>
      <trkpt lat="52.016807980835438" lon="-9.799594972282648">
        <ele>145.30000000000001</ele>
        <time>2026-06-28T16:07:18Z</time>
      </trkpt>
      <trkpt lat="52.016886016353965" lon="-9.79953202418983">
        <ele>145.30000000000001</ele>
        <time>2026-06-28T16:07:19Z</time>
      </trkpt>
      <trkpt lat="52.016979977488518" lon="-9.799454994499683">
        <ele>144.81999999999999</ele>
        <time>2026-06-28T16:07:20Z</time>
      </trkpt>
      <trkpt lat="52.017086008563638" lon="-9.799367990344763">
        <ele>144.81999999999999</ele>
        <time>2026-06-28T16:07:21Z</time>
      </trkpt>
      <trkpt lat="52.01719899661839" lon="-9.799276040866971">
        <ele>143.84999999999999</ele>
        <time>2026-06-28T16:07:22Z</time>
      </trkpt>
      <trkpt lat="52.017302010208368" lon="-9.799150982871652">
        <ele>143.37</ele>
        <time>2026-06-28T16:07:23Z</time>
      </trkpt>
      <trkpt lat="52.017382979393005" lon="-9.798988960683346">
        <ele>143.37</ele>
        <time>2026-06-28T16:07:24Z</time>
      </trkpt>
      <trkpt lat="52.017451040446758" lon="-9.79880397208035">
        <ele>142.88999999999999</ele>
        <time>2026-06-28T16:07:25Z</time>
      </trkpt>
      <trkpt lat="52.017521029338241" lon="-9.798613032326102">
        <ele>142.88999999999999</ele>
        <time>2026-06-28T16:07:26Z</time>
      </trkpt>
      <trkpt lat="52.017666036263108" lon="-9.798218999058008">
        <ele>142.41</ele>
        <time>2026-06-28T16:07:28Z</time>
      </trkpt>
      <trkpt lat="52.017753962427378" lon="-9.797981036826968">
        <ele>141.93000000000001</ele>
        <time>2026-06-28T16:07:29Z</time>
      </trkpt>
      <trkpt lat="52.018544040620327" lon="-9.796758033335209">
        <ele>140.00999999999999</ele>
        <time>2026-06-28T16:07:36Z</time>
      </trkpt>
      <trkpt lat="52.019516006112099" lon="-9.795615999028087">
        <ele>138.56999999999999</ele>
        <time>2026-06-28T16:07:44Z</time>
      </trkpt>
      <trkpt lat="52.019638968631625" lon="-9.795526983216405">
        <ele>139.05000000000001</ele>
        <time>2026-06-28T16:07:45Z</time>
      </trkpt>
      <trkpt lat="52.02016300521791" lon="-9.795177960768342">
        <ele>138.56999999999999</ele>
        <time>2026-06-28T16:07:49Z</time>
      </trkpt>
      <trkpt lat="52.020298959687352" lon="-9.795089028775692">
        <ele>138.09</ele>
        <time>2026-06-28T16:07:50Z</time>
      </trkpt>
      <trkpt lat="52.020427035167813" lon="-9.794959025457501">
        <ele>137.61000000000001</ele>
        <time>2026-06-28T16:07:51Z</time>
      </trkpt>
      <trkpt lat="52.020542034879327" lon="-9.794786022976041">
        <ele>137.13</ele>
        <time>2026-06-28T16:07:52Z</time>
      </trkpt>
      <trkpt lat="52.02065996825695" lon="-9.794607991352677">
        <ele>136.63999999999999</ele>
        <time>2026-06-28T16:07:53Z</time>
      </trkpt>
      <trkpt lat="52.020782008767128" lon="-9.794425014406443">
        <ele>136.16</ele>
        <time>2026-06-28T16:07:54Z</time>
      </trkpt>
      <trkpt lat="52.021144023165107" lon="-9.79377499781549">
        <ele>136.16</ele>
        <time>2026-06-28T16:07:58Z</time>
      </trkpt>
      <trkpt lat="52.021184004843235" lon="-9.793543992564082">
        <ele>136.16</ele>
        <time>2026-06-28T16:07:59Z</time>
      </trkpt>
      <trkpt lat="52.021212000399828" lon="-9.793380964547396">
        <ele>136.16</ele>
        <time>2026-06-28T16:08:00Z</time>
      </trkpt>
      <trkpt lat="52.021264974027872" lon="-9.79306798428297">
        <ele>136.16</ele>
        <time>2026-06-28T16:08:02Z</time>
      </trkpt>
      <trkpt lat="52.021328005939722" lon="-9.792936975136399">
        <ele>136.16</ele>
        <time>2026-06-28T16:08:03Z</time>
      </trkpt>
      <trkpt lat="52.021406963467598" lon="-9.792814012616873">
        <ele>136.16</ele>
        <time>2026-06-28T16:08:04Z</time>
      </trkpt>
      <trkpt lat="52.021490028128028" lon="-9.792683003470302">
        <ele>136.16</ele>
        <time>2026-06-28T16:08:05Z</time>
      </trkpt>
      <trkpt lat="52.021567979827523" lon="-9.792560040950775">
        <ele>136.16</ele>
        <time>2026-06-28T16:08:06Z</time>
      </trkpt>
      <trkpt lat="52.021591030061245" lon="-9.792403969913721">
        <ele>136.16</ele>
        <time>2026-06-28T16:08:07Z</time>
      </trkpt>
      <trkpt lat="52.021610978990793" lon="-9.792240019887686">
        <ele>136.16</ele>
        <time>2026-06-28T16:08:08Z</time>
      </trkpt>
      <trkpt lat="52.021632017567754" lon="-9.792070034891367">
        <ele>136.16</ele>
        <time>2026-06-28T16:08:09Z</time>
      </trkpt>
      <trkpt lat="52.021650960668921" lon="-9.791911030188203">
        <ele>136.16</ele>
        <time>2026-06-28T16:08:10Z</time>
      </trkpt>
      <trkpt lat="52.021705023944378" lon="-9.791802987456322">
        <ele>136.16</ele>
        <time>2026-06-28T16:08:11Z</time>
      </trkpt>
      <trkpt lat="52.021779036149383" lon="-9.791735010221601">
        <ele>136.16</ele>
        <time>2026-06-28T16:08:12Z</time>
      </trkpt>
      <trkpt lat="52.021866962313652" lon="-9.791654963046312">
        <ele>136.16</ele>
        <time>2026-06-28T16:08:13Z</time>
      </trkpt>
      <trkpt lat="52.021962013095617" lon="-9.791567958891392">
        <ele>135.68000000000001</ele>
        <time>2026-06-28T16:08:14Z</time>
      </trkpt>
      <trkpt lat="52.022059997543693" lon="-9.791480032727122">
        <ele>135.68000000000001</ele>
        <time>2026-06-28T16:08:15Z</time>
      </trkpt>
      <trkpt lat="52.022142978385091" lon="-9.791379030793905">
        <ele>135.19999999999999</ele>
        <time>2026-06-28T16:08:16Z</time>
      </trkpt>
      <trkpt lat="52.022198969498277" lon="-9.791202004998922">
        <ele>135.19999999999999</ele>
        <time>2026-06-28T16:08:17Z</time>
      </trkpt>
      <trkpt lat="52.022259989753366" lon="-9.791010981425643">
        <ele>135.19999999999999</ele>
        <time>2026-06-28T16:08:18Z</time>
      </trkpt>
      <trkpt lat="52.022322015836835" lon="-9.790815012529492">
        <ele>134.72</ele>
        <time>2026-06-28T16:08:19Z</time>
      </trkpt>
      <trkpt lat="52.022449001669884" lon="-9.790450986474752">
        <ele>134.24000000000001</ele>
        <time>2026-06-28T16:08:21Z</time>
      </trkpt>
      <trkpt lat="52.022539023309946" lon="-9.790346967056394">
        <ele>133.75999999999999</ele>
        <time>2026-06-28T16:08:22Z</time>
      </trkpt>
      <trkpt lat="52.022637007758021" lon="-9.79027396067977">
        <ele>133.75999999999999</ele>
        <time>2026-06-28T16:08:23Z</time>
      </trkpt>
      <trkpt lat="52.022751001641154" lon="-9.790224004536867">
        <ele>133.75999999999999</ele>
        <time>2026-06-28T16:08:24Z</time>
      </trkpt>
      <trkpt lat="52.0228729583323" lon="-9.790170025080442">
        <ele>133.75999999999999</ele>
        <time>2026-06-28T16:08:25Z</time>
      </trkpt>
      <trkpt lat="52.023890018463135" lon="-9.789855033159256">
        <ele>133.75999999999999</ele>
        <time>2026-06-28T16:08:32Z</time>
      </trkpt>
      <trkpt lat="52.024034019559622" lon="-9.789869030937553">
        <ele>133.75999999999999</ele>
        <time>2026-06-28T16:08:33Z</time>
      </trkpt>
      <trkpt lat="52.024179026484489" lon="-9.789939019829035">
        <ele>134.24000000000001</ele>
        <time>2026-06-28T16:08:34Z</time>
      </trkpt>
      <trkpt lat="52.024435009807348" lon="-9.790067011490464">
        <ele>133.75999999999999</ele>
        <time>2026-06-28T16:08:36Z</time>
      </trkpt>
      <trkpt lat="52.024541962891817" lon="-9.790097018703818">
        <ele>133.75999999999999</ele>
        <time>2026-06-28T16:08:37Z</time>
      </trkpt>
      <trkpt lat="52.024661991745234" lon="-9.7900599706918">
        <ele>133.75999999999999</ele>
        <time>2026-06-28T16:08:38Z</time>
      </trkpt>
      <trkpt lat="52.025028029456735" lon="-9.789913035929203">
        <ele>133.28</ele>
        <time>2026-06-28T16:08:41Z</time>
      </trkpt>
      <trkpt lat="52.025151997804642" lon="-9.789945976808667">
        <ele>132.80000000000001</ele>
        <time>2026-06-28T16:08:42Z</time>
      </trkpt>
      <trkpt lat="52.025291975587606" lon="-9.789983024820685">
        <ele>132.80000000000001</ele>
        <time>2026-06-28T16:08:43Z</time>
      </trkpt>
      <trkpt lat="52.02575096860528" lon="-9.790070028975606">
        <ele>131.36000000000001</ele>
        <time>2026-06-28T16:08:46Z</time>
      </trkpt>
      <trkpt lat="52.025909973308444" lon="-9.790041027590632">
        <ele>130.88</ele>
        <time>2026-06-28T16:08:47Z</time>
      </trkpt>
      <trkpt lat="52.02607300132513" lon="-9.790011020377278">
        <ele>129.91999999999999</ele>
        <time>2026-06-28T16:08:48Z</time>
      </trkpt>
      <trkpt lat="52.026236029341817" lon="-9.78995000012219">
        <ele>128.94999999999999</ele>
        <time>2026-06-28T16:08:49Z</time>
      </trkpt>
      <trkpt lat="52.026396039873362" lon="-9.789866013452411">
        <ele>128.47</ele>
        <time>2026-06-28T16:08:50Z</time>
      </trkpt>
      <trkpt lat="52.026558984071016" lon="-9.789780015125871">
        <ele>127.51000000000001</ele>
        <time>2026-06-28T16:08:51Z</time>
      </trkpt>
      <trkpt lat="52.027450986206532" lon="-9.789295960217714">
        <ele>124.15000000000001</ele>
        <time>2026-06-28T16:08:57Z</time>
      </trkpt>
      <trkpt lat="52.027580989524722" lon="-9.789205016568303">
        <ele>124.15000000000001</ele>
        <time>2026-06-28T16:08:58Z</time>
      </trkpt>
      <trkpt lat="52.027675034478307" lon="-9.789060009643436">
        <ele>124.15000000000001</ele>
        <time>2026-06-28T16:08:59Z</time>
      </trkpt>
      <trkpt lat="52.027883995324373" lon="-9.788740994408727">
        <ele>124.63</ele>
        <time>2026-06-28T16:09:01Z</time>
      </trkpt>
      <trkpt lat="52.028019027784467" lon="-9.788632029667497">
        <ele>124.63</ele>
        <time>2026-06-28T16:09:02Z</time>
      </trkpt>
      <trkpt lat="52.028166968375444" lon="-9.788530021905899">
        <ele>125.11</ele>
        <time>2026-06-28T16:09:03Z</time>
      </trkpt>
      <trkpt lat="52.028469974175096" lon="-9.788320977240801">
        <ele>125.59</ele>
        <time>2026-06-28T16:09:05Z</time>
      </trkpt>
      <trkpt lat="52.028617998585105" lon="-9.788225004449487">
        <ele>125.11</ele>
        <time>2026-06-28T16:09:06Z</time>
      </trkpt>
      <trkpt lat="52.028768034651875" lon="-9.788149986416102">
        <ele>124.63</ele>
        <time>2026-06-28T16:09:07Z</time>
      </trkpt>
      <trkpt lat="52.028916981071234" lon="-9.788075974211097">
        <ele>124.15000000000001</ele>
        <time>2026-06-28T16:09:08Z</time>
      </trkpt>
      <trkpt lat="52.02905897051096" lon="-9.788003973662853">
        <ele>124.15000000000001</ele>
        <time>2026-06-28T16:09:09Z</time>
      </trkpt>
      <trkpt lat="52.029200959950686" lon="-9.787959968671203">
        <ele>123.67</ele>
        <time>2026-06-28T16:09:10Z</time>
      </trkpt>
      <trkpt lat="52.029318977147341" lon="-9.787959968671203">
        <ele>123.67</ele>
        <time>2026-06-28T16:09:11Z</time>
      </trkpt>
      <trkpt lat="52.029491979628801" lon="-9.78801797144115">
        <ele>123.19</ele>
        <time>2026-06-28T16:09:12Z</time>
      </trkpt>
      <trkpt lat="52.02963899821043" lon="-9.788067005574703">
        <ele>122.70999999999999</ele>
        <time>2026-06-28T16:09:13Z</time>
      </trkpt>
      <trkpt lat="52.029765984043479" lon="-9.788108998909593">
        <ele>122.22</ele>
        <time>2026-06-28T16:09:14Z</time>
      </trkpt>
      <trkpt lat="52.029878972098231" lon="-9.788196003064513">
        <ele>122.22</ele>
        <time>2026-06-28T16:09:15Z</time>
      </trkpt>
      <trkpt lat="52.029975028708577" lon="-9.788335980847478">
        <ele>121.73999999999999</ele>
        <time>2026-06-28T16:09:16Z</time>
      </trkpt>
      <trkpt lat="52.030082987621427" lon="-9.788490040227771">
        <ele>121.26000000000001</ele>
        <time>2026-06-28T16:09:17Z</time>
      </trkpt>
      <trkpt lat="52.030187007039785" lon="-9.788642004132271">
        <ele>120.78</ele>
        <time>2026-06-28T16:09:18Z</time>
      </trkpt>
      <trkpt lat="52.030285997316241" lon="-9.788724984973669">
        <ele>120.78</ele>
        <time>2026-06-28T16:09:19Z</time>
      </trkpt>
      <trkpt lat="52.030382975935936" lon="-9.788777036592364">
        <ele>120.3</ele>
        <time>2026-06-28T16:09:20Z</time>
      </trkpt>
      <trkpt lat="52.030488001182675" lon="-9.78883302770555">
        <ele>120.3</ele>
        <time>2026-06-28T16:09:21Z</time>
      </trkpt>
      <trkpt lat="52.030589003115892" lon="-9.788800003007054">
        <ele>120.3</ele>
        <time>2026-06-28T16:09:22Z</time>
      </trkpt>
      <trkpt lat="52.030665026977658" lon="-9.788766978308559">
        <ele>119.81999999999999</ele>
        <time>2026-06-28T16:09:23Z</time>
      </trkpt>
      <trkpt lat="52.030719006434083" lon="-9.788699001073837">
        <ele>119.34</ele>
        <time>2026-06-28T16:09:24Z</time>
      </trkpt>
      <trkpt lat="52.030768040567636" lon="-9.788595987483859">
        <ele>118.86</ele>
        <time>2026-06-28T16:09:25Z</time>
      </trkpt>
      <trkpt lat="52.030871976166964" lon="-9.788379985839129">
        <ele>118.38</ele>
        <time>2026-06-28T16:09:27Z</time>
      </trkpt>
      <trkpt lat="52.03092897310853" lon="-9.788260962814093">
        <ele>118.38</ele>
        <time>2026-06-28T16:09:28Z</time>
      </trkpt>
      <trkpt lat="52.031036010012031" lon="-9.788153003901243">
        <ele>118.38</ele>
        <time>2026-06-28T16:09:29Z</time>
      </trkpt>
      <trkpt lat="52.03114103525877" lon="-9.78812500834465">
        <ele>118.38</ele>
        <time>2026-06-28T16:09:30Z</time>
      </trkpt>
      <trkpt lat="52.031271960586309" lon="-9.788088966161013">
        <ele>117.90000000000001</ele>
        <time>2026-06-28T16:09:31Z</time>
      </trkpt>
      <trkpt lat="52.031414033845067" lon="-9.788049990311265">
        <ele>117.42</ele>
        <time>2026-06-28T16:09:32Z</time>
      </trkpt>
      <trkpt lat="52.032567970454693" lon="-9.78803901001811">
        <ele>115.5</ele>
        <time>2026-06-28T16:09:39Z</time>
      </trkpt>
      <trkpt lat="52.033193008974195" lon="-9.788013026118279">
        <ele>113.09</ele>
        <time>2026-06-28T16:09:43Z</time>
      </trkpt>
      <trkpt lat="52.033338015899062" lon="-9.787949994206429">
        <ele>113.09</ele>
        <time>2026-06-28T16:09:44Z</time>
      </trkpt>
      <trkpt lat="52.033627023920417" lon="-9.787828959524632">
        <ele>112.61</ele>
        <time>2026-06-28T16:09:46Z</time>
      </trkpt>
      <trkpt lat="52.033787034451962" lon="-9.787810016423464">
        <ele>112.13</ele>
        <time>2026-06-28T16:09:47Z</time>
      </trkpt>
      <trkpt lat="52.035435000434518" lon="-9.787896014750004">
        <ele>106.84</ele>
        <time>2026-06-28T16:09:56Z</time>
      </trkpt>
      <trkpt lat="52.03657996840775" lon="-9.788236990571022">
        <ele>104.92</ele>
        <time>2026-06-28T16:10:03Z</time>
      </trkpt>
      <trkpt lat="52.036741990596056" lon="-9.788263980299234">
        <ele>104.44</ele>
        <time>2026-06-28T16:10:04Z</time>
      </trkpt>
      <trkpt lat="52.036905018612742" lon="-9.788265991955996">
        <ele>103.95999999999999</ele>
        <time>2026-06-28T16:10:05Z</time>
      </trkpt>
      <trkpt lat="52.037067962810397" lon="-9.788215029984713">
        <ele>103.48</ele>
        <time>2026-06-28T16:10:06Z</time>
      </trkpt>
      <trkpt lat="52.037235014140606" lon="-9.788163984194398">
        <ele>103</ele>
        <time>2026-06-28T16:10:07Z</time>
      </trkpt>
      <trkpt lat="52.037409022450447" lon="-9.788110004737973">
        <ele>102.04000000000001</ele>
        <time>2026-06-28T16:10:08Z</time>
      </trkpt>
      <trkpt lat="52.037547994405031" lon="-9.788001962006092">
        <ele>101.56</ele>
        <time>2026-06-28T16:10:09Z</time>
      </trkpt>
      <trkpt lat="52.037671962752938" lon="-9.787872964516282">
        <ele>101.08</ele>
        <time>2026-06-28T16:10:10Z</time>
      </trkpt>
      <trkpt lat="52.037784028798342" lon="-9.787727035582066">
        <ele>100.59999999999999</ele>
        <time>2026-06-28T16:10:11Z</time>
      </trkpt>
      <trkpt lat="52.037881007418036" lon="-9.787546992301941">
        <ele>100.59999999999999</ele>
        <time>2026-06-28T16:10:12Z</time>
      </trkpt>
      <trkpt lat="52.03879002481699" lon="-9.785769023001194">
        <ele>99.629999999999995</ele>
        <time>2026-06-28T16:10:20Z</time>
      </trkpt>
      <trkpt lat="52.039238037541509" lon="-9.784706030040979">
        <ele>99.629999999999995</ele>
        <time>2026-06-28T16:10:25Z</time>
      </trkpt>
      <trkpt lat="52.039386983960867" lon="-9.784566974267364">
        <ele>99.150000000000006</ele>
        <time>2026-06-28T16:10:26Z</time>
      </trkpt>
      <trkpt lat="52.039502989500761" lon="-9.784540990367532">
        <ele>98.670000000000002</ele>
        <time>2026-06-28T16:10:27Z</time>
      </trkpt>
      <trkpt lat="52.0396270416677" lon="-9.784512994810939">
        <ele>98.189999999999998</ele>
        <time>2026-06-28T16:10:28Z</time>
      </trkpt>
      <trkpt lat="52.039762996137142" lon="-9.784526992589235">
        <ele>97.709999999999994</ele>
        <time>2026-06-28T16:10:29Z</time>
      </trkpt>
      <trkpt lat="52.039905991405249" lon="-9.78455800563097">
        <ele>97.230000000000004</ele>
        <time>2026-06-28T16:10:30Z</time>
      </trkpt>
      <trkpt lat="52.040964961051941" lon="-9.784786999225617">
        <ele>95.310000000000002</ele>
        <time>2026-06-28T16:10:38Z</time>
      </trkpt>
      <trkpt lat="52.041887976229191" lon="-9.784985985606909">
        <ele>92.900000000000006</ele>
        <time>2026-06-28T16:10:49Z</time>
      </trkpt>
      <trkpt lat="52.042110012844205" lon="-9.785034013912082">
        <ele>90.5</ele>
        <time>2026-06-28T16:10:56Z</time>
      </trkpt>
      <trkpt lat="52.042110012844205" lon="-9.785034013912082">
        <ele>89.060000000000002</ele>
        <time>2026-06-28T16:11:12Z</time>
      </trkpt>
      <trkpt lat="52.042146977037191" lon="-9.785041976720095">
        <ele>88.579999999999998</ele>
        <time>2026-06-28T16:11:20Z</time>
      </trkpt>
      <trkpt lat="52.04212199896574" lon="-9.785037031397224">
        <ele>88.099999999999994</ele>
        <time>2026-06-28T16:11:21Z</time>
      </trkpt>
      <trkpt lat="52.042076988145709" lon="-9.785026973113418">
        <ele>88.099999999999994</ele>
        <time>2026-06-28T16:11:22Z</time>
      </trkpt>
      <trkpt lat="52.041439041495323" lon="-9.784889006987214">
        <ele>88.099999999999994</ele>
        <time>2026-06-28T16:11:28Z</time>
      </trkpt>
      <trkpt lat="52.040579980239272" lon="-9.784704018384218">
        <ele>92.420000000000002</ele>
        <time>2026-06-28T16:11:37Z</time>
      </trkpt>
      <trkpt lat="52.039535008370876" lon="-9.784533027559519">
        <ele>95.790000000000006</ele>
        <time>2026-06-28T16:11:47Z</time>
      </trkpt>
      <trkpt lat="52.039441969245672" lon="-9.784553982317448">
        <ele>96.269999999999996</ele>
        <time>2026-06-28T16:11:48Z</time>
      </trkpt>
      <trkpt lat="52.039367035031319" lon="-9.784570997580886">
        <ele>96.269999999999996</ele>
        <time>2026-06-28T16:11:49Z</time>
      </trkpt>
      <trkpt lat="52.039315989241004" lon="-9.784581977874041">
        <ele>96.75</ele>
        <time>2026-06-28T16:11:50Z</time>
      </trkpt>
      <trkpt lat="52.039281958714128" lon="-9.784590024501085">
        <ele>97.709999999999994</ele>
        <time>2026-06-28T16:11:51Z</time>
      </trkpt>
      <trkpt lat="52.039276007562876" lon="-9.784591030329466">
        <ele>97.709999999999994</ele>
        <time>2026-06-28T16:11:52Z</time>
      </trkpt>
      <trkpt lat="52.039276007562876" lon="-9.784591030329466">
        <ele>98.670000000000002</ele>
        <time>2026-06-28T16:11:53Z</time>
      </trkpt>
      <trkpt lat="52.039276007562876" lon="-9.784591030329466">
        <ele>99.150000000000006</ele>
        <time>2026-06-28T16:11:54Z</time>
      </trkpt>
      <trkpt lat="52.039298973977566" lon="-9.784523975104094">
        <ele>100.11</ele>
        <time>2026-06-28T16:11:55Z</time>
      </trkpt>
      <trkpt lat="52.039337027817965" lon="-9.784416016191244">
        <ele>100.59999999999999</ele>
        <time>2026-06-28T16:11:56Z</time>
      </trkpt>
      <trkpt lat="52.039383966475725" lon="-9.784280983731151">
        <ele>101.08</ele>
        <time>2026-06-28T16:11:57Z</time>
      </trkpt>
      <trkpt lat="52.039526961743832" lon="-9.783960962668061">
        <ele>101.56</ele>
        <time>2026-06-28T16:11:59Z</time>
      </trkpt>
      <trkpt lat="52.039626035839319" lon="-9.783812016248703">
        <ele>101.56</ele>
        <time>2026-06-28T16:12:00Z</time>
      </trkpt>
      <trkpt lat="52.039747992530465" lon="-9.783689975738525">
        <ele>102.04000000000001</ele>
        <time>2026-06-28T16:12:01Z</time>
      </trkpt>
      <trkpt lat="52.039876990020275" lon="-9.783560978248715">
        <ele>102.04000000000001</ele>
        <time>2026-06-28T16:12:02Z</time>
      </trkpt>
      <trkpt lat="52.040006993338466" lon="-9.783430974930525">
        <ele>102.04000000000001</ele>
        <time>2026-06-28T16:12:03Z</time>
      </trkpt>
      <trkpt lat="52.041169982403517" lon="-9.782092971727252">
        <ele>102.52</ele>
        <time>2026-06-28T16:12:12Z</time>
      </trkpt>
      <trkpt lat="52.041913038119674" lon="-9.7802600171417">
        <ele>99.150000000000006</ele>
        <time>2026-06-28T16:12:20Z</time>
      </trkpt>
      <trkpt lat="52.042728010565042" lon="-9.778295969590545">
        <ele>98.189999999999998</ele>
        <time>2026-06-28T16:12:28Z</time>
      </trkpt>
      <trkpt lat="52.042881986126304" lon="-9.778125984594226">
        <ele>98.670000000000002</ele>
        <time>2026-06-28T16:12:29Z</time>
      </trkpt>
      <trkpt lat="52.043034033849835" lon="-9.777959017083049">
        <ele>98.670000000000002</ele>
        <time>2026-06-28T16:12:30Z</time>
      </trkpt>
      <trkpt lat="52.043184991925955" lon="-9.777792971581221">
        <ele>99.150000000000006</ele>
        <time>2026-06-28T16:12:31Z</time>
      </trkpt>
      <trkpt lat="52.043333016335964" lon="-9.777629021555185">
        <ele>99.629999999999995</ele>
        <time>2026-06-28T16:12:32Z</time>
      </trkpt>
      <trkpt lat="52.043481962755322" lon="-9.777464987710118">
        <ele>100.11</ele>
        <time>2026-06-28T16:12:33Z</time>
      </trkpt>
      <trkpt lat="52.044877968728542" lon="-9.776024976745248">
        <ele>103</ele>
        <time>2026-06-28T16:12:42Z</time>
      </trkpt>
      <trkpt lat="52.045768965035677" lon="-9.775116965174675">
        <ele>103.48</ele>
        <time>2026-06-28T16:12:49Z</time>
      </trkpt>
      <trkpt lat="52.045853035524487" lon="-9.77495301514864">
        <ele>103.48</ele>
        <time>2026-06-28T16:12:50Z</time>
      </trkpt>
      <trkpt lat="52.045876001939178" lon="-9.774770038202405">
        <ele>103.48</ele>
        <time>2026-06-28T16:12:51Z</time>
      </trkpt>
      <trkpt lat="52.04590299166739" lon="-9.774557976052165">
        <ele>103</ele>
        <time>2026-06-28T16:12:52Z</time>
      </trkpt>
      <trkpt lat="52.045934004709125" lon="-9.774313978850842">
        <ele>102.52</ele>
        <time>2026-06-28T16:12:53Z</time>
      </trkpt>
      <trkpt lat="52.04622401855886" lon="-9.77203200571239">
        <ele>98.189999999999998</ele>
        <time>2026-06-28T16:13:00Z</time>
      </trkpt>
      <trkpt lat="52.046659039333463" lon="-9.768599029630423">
        <ele>97.709999999999994</ele>
        <time>2026-06-28T16:13:10Z</time>
      </trkpt>
      <trkpt lat="52.047166982665658" lon="-9.764572028070688">
        <ele>94.349999999999994</ele>
        <time>2026-06-28T16:13:22Z</time>
      </trkpt>
      <trkpt lat="52.04755799844861" lon="-9.761470975354314">
        <ele>98.189999999999998</ele>
        <time>2026-06-28T16:13:32Z</time>
      </trkpt>
      <trkpt lat="52.047996958717704" lon="-9.758576033636928">
        <ele>100.59999999999999</ele>
        <time>2026-06-28T16:13:41Z</time>
      </trkpt>
      <trkpt lat="52.048645969480276" lon="-9.75589700974524">
        <ele>97.230000000000004</ele>
        <time>2026-06-28T16:13:50Z</time>
      </trkpt>
      <trkpt lat="52.04953202046454" lon="-9.752259012311697">
        <ele>86.180000000000007</ele>
        <time>2026-06-28T16:14:02Z</time>
      </trkpt>
      <trkpt lat="52.050166027620435" lon="-9.749252004548907">
        <ele>80.409999999999997</ele>
        <time>2026-06-28T16:14:12Z</time>
      </trkpt>
      <trkpt lat="52.050236016511917" lon="-9.748959979042411">
        <ele>80.409999999999997</ele>
        <time>2026-06-28T16:14:13Z</time>
      </trkpt>
      <trkpt lat="52.050323020666838" lon="-9.748684968799353">
        <ele>79.930000000000007</ele>
        <time>2026-06-28T16:14:14Z</time>
      </trkpt>
      <trkpt lat="52.050412036478519" lon="-9.748404007405043">
        <ele>79.450000000000003</ele>
        <time>2026-06-28T16:14:15Z</time>
      </trkpt>
      <trkpt lat="52.050498034805059" lon="-9.748135032132268">
        <ele>78.969999999999999</ele>
        <time>2026-06-28T16:14:16Z</time>
      </trkpt>
      <trkpt lat="52.050556959584355" lon="-9.747828003019095">
        <ele>78.480000000000004</ele>
        <time>2026-06-28T16:14:17Z</time>
      </trkpt>
      <trkpt lat="52.050614962354302" lon="-9.747530026361346">
        <ele>78</ele>
        <time>2026-06-28T16:14:18Z</time>
      </trkpt>
      <trkpt lat="52.050774972885847" lon="-9.746675994247198">
        <ele>77.040000000000006</ele>
        <time>2026-06-28T16:14:21Z</time>
      </trkpt>
      <trkpt lat="52.050761980935931" lon="-9.746428979560733">
        <ele>76.560000000000002</ele>
        <time>2026-06-28T16:14:22Z</time>
      </trkpt>
      <trkpt lat="52.050739014521241" lon="-9.746242985129356">
        <ele>76.079999999999998</ele>
        <time>2026-06-28T16:14:23Z</time>
      </trkpt>
      <trkpt lat="52.050690986216068" lon="-9.746052967384458">
        <ele>75.599999999999994</ele>
        <time>2026-06-28T16:14:24Z</time>
      </trkpt>
      <trkpt lat="52.050622003152966" lon="-9.745913995429874">
        <ele>75.120000000000005</ele>
        <time>2026-06-28T16:14:25Z</time>
      </trkpt>
      <trkpt lat="52.050538016483188" lon="-9.745746022090316">
        <ele>74.640000000000001</ele>
        <time>2026-06-28T16:14:26Z</time>
      </trkpt>
      <trkpt lat="52.050455035641789" lon="-9.745580982416868">
        <ele>73.680000000000007</ele>
        <time>2026-06-28T16:14:27Z</time>
      </trkpt>
      <trkpt lat="52.050257977098227" lon="-9.745186027139425">
        <ele>72.719999999999999</ele>
        <time>2026-06-28T16:14:29Z</time>
      </trkpt>
      <trkpt lat="52.050168039277196" lon="-9.745005983859301">
        <ele>72.239999999999995</ele>
        <time>2026-06-28T16:14:30Z</time>
      </trkpt>
      <trkpt lat="52.050086986273527" lon="-9.744838010519743">
        <ele>71.760000000000005</ele>
        <time>2026-06-28T16:14:31Z</time>
      </trkpt>
      <trkpt lat="52.050043987110257" lon="-9.744643969461322">
        <ele>71.269999999999996</ele>
        <time>2026-06-28T16:14:32Z</time>
      </trkpt>
      <trkpt lat="52.05002898350358" lon="-9.744436014443636">
        <ele>70.790000000000006</ele>
        <time>2026-06-28T16:14:33Z</time>
      </trkpt>
      <trkpt lat="52.050014985725284" lon="-9.744227975606918">
        <ele>70.310000000000002</ele>
        <time>2026-06-28T16:14:34Z</time>
      </trkpt>
      <trkpt lat="52.049999982118607" lon="-9.744009962305427">
        <ele>69.829999999999998</ele>
        <time>2026-06-28T16:14:35Z</time>
      </trkpt>
      <trkpt lat="52.049962012097239" lon="-9.741872996091843">
        <ele>67.430000000000007</ele>
        <time>2026-06-28T16:14:44Z</time>
      </trkpt>
      <trkpt lat="52.049982966855168" lon="-9.741618018597364">
        <ele>67.430000000000007</ele>
        <time>2026-06-28T16:14:45Z</time>
      </trkpt>
      <trkpt lat="52.050133002921939" lon="-9.740582015365362">
        <ele>67.909999999999997</ele>
        <time>2026-06-28T16:14:51Z</time>
      </trkpt>
      <trkpt lat="52.050179019570351" lon="-9.740446982905269">
        <ele>67.909999999999997</ele>
        <time>2026-06-28T16:14:52Z</time>
      </trkpt>
      <trkpt lat="52.050230987370014" lon="-9.740390991792083">
        <ele>67.909999999999997</ele>
        <time>2026-06-28T16:14:53Z</time>
      </trkpt>
      <trkpt lat="52.050801962614059" lon="-9.739811969920993">
        <ele>66.469999999999999</ele>
        <time>2026-06-28T16:14:59Z</time>
      </trkpt>
      <trkpt lat="52.051903009414673" lon="-9.738907981663942">
        <ele>61.18</ele>
        <time>2026-06-28T16:15:08Z</time>
      </trkpt>
      <trkpt lat="52.052017003297806" lon="-9.738774038851261">
        <ele>60.700000000000003</ele>
        <time>2026-06-28T16:15:09Z</time>
      </trkpt>
      <trkpt lat="52.052342975512147" lon="-9.738306999206543">
        <ele>58.780000000000001</ele>
        <time>2026-06-28T16:15:12Z</time>
      </trkpt>
      <trkpt lat="52.053576037287712" lon="-9.735950008034706">
        <ele>51.57</ele>
        <time>2026-06-28T16:15:25Z</time>
      </trkpt>
      <trkpt lat="52.05383000895381" lon="-9.735581958666444">
        <ele>51.090000000000003</ele>
        <time>2026-06-28T16:15:28Z</time>
      </trkpt>
      <trkpt lat="52.053897986188531" lon="-9.735498977825046">
        <ele>51.090000000000003</ele>
        <time>2026-06-28T16:15:29Z</time>
      </trkpt>
      <trkpt lat="52.053966969251633" lon="-9.735428988933563">
        <ele>51.090000000000003</ele>
        <time>2026-06-28T16:15:30Z</time>
      </trkpt>
      <trkpt lat="52.054038969799876" lon="-9.735414991155267">
        <ele>51.090000000000003</ele>
        <time>2026-06-28T16:15:31Z</time>
      </trkpt>
      <trkpt lat="52.054122034460306" lon="-9.735397975891829">
        <ele>51.090000000000003</ele>
        <time>2026-06-28T16:15:32Z</time>
      </trkpt>
      <trkpt lat="52.054214989766479" lon="-9.735379032790661">
        <ele>51.090000000000003</ele>
        <time>2026-06-28T16:15:33Z</time>
      </trkpt>
      <trkpt lat="52.055134987458587" lon="-9.735276019200683">
        <ele>48.200000000000003</ele>
        <time>2026-06-28T16:15:40Z</time>
      </trkpt>
      <trkpt lat="52.056353967636824" lon="-9.73524802364409">
        <ele>45.32</ele>
        <time>2026-06-28T16:15:49Z</time>
      </trkpt>
      <trkpt lat="52.056918991729617" lon="-9.735462013632059">
        <ele>44.840000000000003</ele>
        <time>2026-06-28T16:15:54Z</time>
      </trkpt>
      <trkpt lat="52.056998033076525" lon="-9.735495038330555">
        <ele>44.840000000000003</ele>
        <time>2026-06-28T16:15:55Z</time>
      </trkpt>
      <trkpt lat="52.057066010311246" lon="-9.735425971448422">
        <ele>44.359999999999999</ele>
        <time>2026-06-28T16:15:56Z</time>
      </trkpt>
      <trkpt lat="52.057137005031109" lon="-9.735350031405687">
        <ele>44.359999999999999</ele>
        <time>2026-06-28T16:15:57Z</time>
      </trkpt>
      <trkpt lat="52.057220991700888" lon="-9.735260009765625">
        <ele>44.359999999999999</ele>
        <time>2026-06-28T16:15:58Z</time>
      </trkpt>
      <trkpt lat="52.057392988353968" lon="-9.735027998685837">
        <ele>44.359999999999999</ele>
        <time>2026-06-28T16:16:00Z</time>
      </trkpt>
      <trkpt lat="52.05744001083076" lon="-9.73486396484077">
        <ele>44.840000000000003</ele>
        <time>2026-06-28T16:16:01Z</time>
      </trkpt>
      <trkpt lat="52.05748300999403" lon="-9.734678976237774">
        <ele>44.840000000000003</ele>
        <time>2026-06-28T16:16:02Z</time>
      </trkpt>
      <trkpt lat="52.057773023843765" lon="-9.732561958953738">
        <ele>42.439999999999998</ele>
        <time>2026-06-28T16:16:12Z</time>
      </trkpt>
      <trkpt lat="52.057818034663796" lon="-9.732346041128039">
        <ele>42.439999999999998</ele>
        <time>2026-06-28T16:16:13Z</time>
      </trkpt>
      <trkpt lat="52.057878971099854" lon="-9.732148982584477">
        <ele>42.439999999999998</ele>
        <time>2026-06-28T16:16:14Z</time>
      </trkpt>
      <trkpt lat="52.058698972687125" lon="-9.730078987777233">
        <ele>40.509999999999998</ele>
        <time>2026-06-28T16:16:25Z</time>
      </trkpt>
      <trkpt lat="52.05956700257957" lon="-9.728033971041441">
        <ele>40.030000000000001</ele>
        <time>2026-06-28T16:16:36Z</time>
      </trkpt>
      <trkpt lat="52.060093972831964" lon="-9.726328002288938">
        <ele>37.630000000000003</ele>
        <time>2026-06-28T16:16:44Z</time>
      </trkpt>
      <trkpt lat="52.06012699753046" lon="-9.7261399962008">
        <ele>37.630000000000003</ele>
        <time>2026-06-28T16:16:45Z</time>
      </trkpt>
      <trkpt lat="52.060489011928439" lon="-9.724715994670987">
        <ele>34.740000000000002</ele>
        <time>2026-06-28T16:16:53Z</time>
      </trkpt>
      <trkpt lat="52.060822024941444" lon="-9.723613020032644">
        <ele>31.379999999999999</ele>
        <time>2026-06-28T16:16:59Z</time>
      </trkpt>
      <trkpt lat="52.060892013832927" lon="-9.723124019801617">
        <ele>29.940000000000001</ele>
        <time>2026-06-28T16:17:05Z</time>
      </trkpt>
      <trkpt lat="52.060905005782843" lon="-9.722971972078085">
        <ele>29.460000000000001</ele>
        <time>2026-06-28T16:17:09Z</time>
      </trkpt>
      <trkpt lat="52.061088988557458" lon="-9.721996989101172">
        <ele>29.460000000000001</ele>
        <time>2026-06-28T16:17:16Z</time>
      </trkpt>
      <trkpt lat="52.06111597828567" lon="-9.721807977184653">
        <ele>29.940000000000001</ele>
        <time>2026-06-28T16:17:17Z</time>
      </trkpt>
      <trkpt lat="52.061313036829233" lon="-9.720259001478553">
        <ele>30.420000000000002</ele>
        <time>2026-06-28T16:17:26Z</time>
      </trkpt>
      <trkpt lat="52.061418984085321" lon="-9.718223037198186">
        <ele>32.340000000000003</ele>
        <time>2026-06-28T16:17:37Z</time>
      </trkpt>
      <trkpt lat="52.06141303293407" lon="-9.716210039332509">
        <ele>32.340000000000003</ele>
        <time>2026-06-28T16:17:45Z</time>
      </trkpt>
      <trkpt lat="52.061484027653933" lon="-9.713671999052167">
        <ele>34.740000000000002</ele>
        <time>2026-06-28T16:17:54Z</time>
      </trkpt>
      <trkpt lat="52.061504982411861" lon="-9.711324982345104">
        <ele>33.780000000000001</ele>
        <time>2026-06-28T16:18:03Z</time>
      </trkpt>
      <trkpt lat="52.061554016545415" lon="-9.708656016737223">
        <ele>32.82</ele>
        <time>2026-06-28T16:18:13Z</time>
      </trkpt>
      <trkpt lat="52.061677984893322" lon="-9.705654960125685">
        <ele>33.299999999999997</ele>
        <time>2026-06-28T16:18:25Z</time>
      </trkpt>
      <trkpt lat="52.06184595823288" lon="-9.702692041173577">
        <ele>37.149999999999999</ele>
        <time>2026-06-28T16:18:37Z</time>
      </trkpt>
      <trkpt lat="52.062024995684624" lon="-9.7012609988451">
        <ele>33.299999999999997</ele>
        <time>2026-06-28T16:18:43Z</time>
      </trkpt>
      <trkpt lat="52.062078975141048" lon="-9.701035022735596">
        <ele>31.859999999999999</ele>
        <time>2026-06-28T16:18:44Z</time>
      </trkpt>
      <trkpt lat="52.062157010659575" lon="-9.70080703496933">
        <ele>30.420000000000002</ele>
        <time>2026-06-28T16:18:45Z</time>
      </trkpt>
      <trkpt lat="52.063105003908277" lon="-9.698042012751102">
        <ele>22.73</ele>
        <time>2026-06-28T16:18:57Z</time>
      </trkpt>
      <trkpt lat="52.064060959964991" lon="-9.695215970277786">
        <ele>20.809999999999999</ele>
        <time>2026-06-28T16:19:09Z</time>
      </trkpt>
      <trkpt lat="52.064575022086501" lon="-9.694095980376005">
        <ele>23.690000000000001</ele>
        <time>2026-06-28T16:19:15Z</time>
      </trkpt>
      <trkpt lat="52.064693961292505" lon="-9.694001013413072">
        <ele>24.170000000000002</ele>
        <time>2026-06-28T16:19:16Z</time>
      </trkpt>
      <trkpt lat="52.064816001802683" lon="-9.693905040621758">
        <ele>24.649999999999999</ele>
        <time>2026-06-28T16:19:17Z</time>
      </trkpt>
      <trkpt lat="52.064943993464112" lon="-9.69380303286016">
        <ele>25.129999999999999</ele>
        <time>2026-06-28T16:19:18Z</time>
      </trkpt>
      <trkpt lat="52.065079025924206" lon="-9.693695995956659">
        <ele>25.609999999999999</ele>
        <time>2026-06-28T16:19:19Z</time>
      </trkpt>
      <trkpt lat="52.065230989828706" lon="-9.693614020943642">
        <ele>26.09</ele>
        <time>2026-06-28T16:19:20Z</time>
      </trkpt>
      <trkpt lat="52.066543009132147" lon="-9.692941959947348">
        <ele>28.02</ele>
        <time>2026-06-28T16:19:29Z</time>
      </trkpt>
      <trkpt lat="52.068335982039571" lon="-9.691891958937049">
        <ele>23.210000000000001</ele>
        <time>2026-06-28T16:19:39Z</time>
      </trkpt>
      <trkpt lat="52.068849038332701" lon="-9.691706970334053">
        <ele>23.210000000000001</ele>
        <time>2026-06-28T16:19:42Z</time>
      </trkpt>
      <trkpt lat="52.070264993235469" lon="-9.691516030579805">
        <ele>22.73</ele>
        <time>2026-06-28T16:19:50Z</time>
      </trkpt>
      <trkpt lat="52.070718035101891" lon="-9.691528016701341">
        <ele>24.170000000000002</ele>
        <time>2026-06-28T16:19:53Z</time>
      </trkpt>
      <trkpt lat="52.070810990408063" lon="-9.69148300588131">
        <ele>24.170000000000002</ele>
        <time>2026-06-28T16:19:54Z</time>
      </trkpt>
      <trkpt lat="52.070890031754971" lon="-9.691382003948093">
        <ele>24.170000000000002</ele>
        <time>2026-06-28T16:19:55Z</time>
      </trkpt>
      <trkpt lat="52.070957003161311" lon="-9.691233979538083">
        <ele>23.690000000000001</ele>
        <time>2026-06-28T16:19:56Z</time>
      </trkpt>
      <trkpt lat="52.071012994274497" lon="-9.691052008420229">
        <ele>23.690000000000001</ele>
        <time>2026-06-28T16:19:57Z</time>
      </trkpt>
      <trkpt lat="52.071440974250436" lon="-9.68955198302865">
        <ele>21.289999999999999</ele>
        <time>2026-06-28T16:20:04Z</time>
      </trkpt>
      <trkpt lat="52.071478022262454" lon="-9.689321983605623">
        <ele>20.809999999999999</ele>
        <time>2026-06-28T16:20:05Z</time>
      </trkpt>
      <trkpt lat="52.071501994505525" lon="-9.689090978354216">
        <ele>20.809999999999999</ele>
        <time>2026-06-28T16:20:06Z</time>
      </trkpt>
      <trkpt lat="52.071500988677144" lon="-9.688838012516499">
        <ele>20.809999999999999</ele>
        <time>2026-06-28T16:20:07Z</time>
      </trkpt>
      <trkpt lat="52.071496965363622" lon="-9.688584040850401">
        <ele>20.809999999999999</ele>
        <time>2026-06-28T16:20:08Z</time>
      </trkpt>
      <trkpt lat="52.071465030312538" lon="-9.686812022700906">
        <ele>23.690000000000001</ele>
        <time>2026-06-28T16:20:16Z</time>
      </trkpt>
      <trkpt lat="52.071494031697512" lon="-9.686437016353011">
        <ele>23.690000000000001</ele>
        <time>2026-06-28T16:20:18Z</time>
      </trkpt>
      <trkpt lat="52.071536025032401" lon="-9.686287986114621">
        <ele>23.690000000000001</ele>
        <time>2026-06-28T16:20:19Z</time>
      </trkpt>
      <trkpt lat="52.071591010317206" lon="-9.686165023595095">
        <ele>23.690000000000001</ele>
        <time>2026-06-28T16:20:20Z</time>
      </trkpt>
      <trkpt lat="52.071667034178972" lon="-9.686105009168387">
        <ele>23.690000000000001</ele>
        <time>2026-06-28T16:20:21Z</time>
      </trkpt>
      <trkpt lat="52.07175001502037" lon="-9.686039965599775">
        <ele>23.690000000000001</ele>
        <time>2026-06-28T16:20:22Z</time>
      </trkpt>
      <trkpt lat="52.071839030832052" lon="-9.685970982536674">
        <ele>23.690000000000001</ele>
        <time>2026-06-28T16:20:23Z</time>
      </trkpt>
      <trkpt lat="52.071938021108508" lon="-9.685914991423488">
        <ele>23.690000000000001</ele>
        <time>2026-06-28T16:20:24Z</time>
      </trkpt>
      <trkpt lat="52.072956003248692" lon="-9.685606034472585">
        <ele>26.57</ele>
        <time>2026-06-28T16:20:32Z</time>
      </trkpt>
      <trkpt lat="52.073066979646683" lon="-9.685572003945708">
        <ele>26.57</ele>
        <time>2026-06-28T16:20:33Z</time>
      </trkpt>
      <trkpt lat="52.073174016550183" lon="-9.685477958992124">
        <ele>27.050000000000001</ele>
        <time>2026-06-28T16:20:34Z</time>
      </trkpt>
      <trkpt lat="52.073283987119794" lon="-9.6853600256145">
        <ele>27.530000000000001</ele>
        <time>2026-06-28T16:20:35Z</time>
      </trkpt>
      <trkpt lat="52.07340401597321" lon="-9.685229016467929">
        <ele>27.530000000000001</ele>
        <time>2026-06-28T16:20:36Z</time>
      </trkpt>
      <trkpt lat="52.073515998199582" lon="-9.685079986229539">
        <ele>27.530000000000001</ele>
        <time>2026-06-28T16:20:37Z</time>
      </trkpt>
      <trkpt lat="52.073733005672693" lon="-9.684795001521707">
        <ele>27.530000000000001</ele>
        <time>2026-06-28T16:20:39Z</time>
      </trkpt>
      <trkpt lat="52.073825960978866" lon="-9.68467203900218">
        <ele>27.530000000000001</ele>
        <time>2026-06-28T16:20:40Z</time>
      </trkpt>
      <trkpt lat="52.073888992890716" lon="-9.684494007378817">
        <ele>27.530000000000001</ele>
        <time>2026-06-28T16:20:41Z</time>
      </trkpt>
      <trkpt lat="52.073922017589211" lon="-9.684310024604201">
        <ele>27.530000000000001</ele>
        <time>2026-06-28T16:20:42Z</time>
      </trkpt>
      <trkpt lat="52.073959987610579" lon="-9.684107014909387">
        <ele>27.530000000000001</ele>
        <time>2026-06-28T16:20:43Z</time>
      </trkpt>
      <trkpt lat="52.073998963460326" lon="-9.683892019093037">
        <ele>28.02</ele>
        <time>2026-06-28T16:20:44Z</time>
      </trkpt>
      <trkpt lat="52.074038023129106" lon="-9.683679034933448">
        <ele>28.02</ele>
        <time>2026-06-28T16:20:45Z</time>
      </trkpt>
      <trkpt lat="52.074053026735783" lon="-9.683444006368518">
        <ele>28.5</ele>
        <time>2026-06-28T16:20:46Z</time>
      </trkpt>
      <trkpt lat="52.074044980108738" lon="-9.683249965310097">
        <ele>28.5</ele>
        <time>2026-06-28T16:20:47Z</time>
      </trkpt>
      <trkpt lat="52.074037017300725" lon="-9.683066988363862">
        <ele>28.98</ele>
        <time>2026-06-28T16:20:48Z</time>
      </trkpt>
      <trkpt lat="52.074029976502061" lon="-9.682899015024304">
        <ele>29.460000000000001</ele>
        <time>2026-06-28T16:20:49Z</time>
      </trkpt>
      <trkpt lat="52.074023019522429" lon="-9.682746967300773">
        <ele>29.940000000000001</ele>
        <time>2026-06-28T16:20:50Z</time>
      </trkpt>
      <trkpt lat="52.074016984552145" lon="-9.682606989517808">
        <ele>30.420000000000002</ele>
        <time>2026-06-28T16:20:51Z</time>
      </trkpt>
      <trkpt lat="52.074011033400893" lon="-9.682469023391604">
        <ele>30.899999999999999</ele>
        <time>2026-06-28T16:20:52Z</time>
      </trkpt>
      <trkpt lat="52.07400499843061" lon="-9.682329967617989">
        <ele>31.379999999999999</ele>
        <time>2026-06-28T16:20:53Z</time>
      </trkpt>
      <trkpt lat="52.073999969288707" lon="-9.682212034240365">
        <ele>31.859999999999999</ele>
        <time>2026-06-28T16:20:54Z</time>
      </trkpt>
      <trkpt lat="52.074008015915751" lon="-9.682029979303479">
        <ele>31.859999999999999</ele>
        <time>2026-06-28T16:20:56Z</time>
      </trkpt>
      <trkpt lat="52.074042968451977" lon="-9.681878015398979">
        <ele>31.859999999999999</ele>
        <time>2026-06-28T16:20:58Z</time>
      </trkpt>
      <trkpt lat="52.074050009250641" lon="-9.681767961010337">
        <ele>32.340000000000003</ele>
        <time>2026-06-28T16:20:59Z</time>
      </trkpt>
      <trkpt lat="52.074023019522429" lon="-9.681629994884133">
        <ele>32.340000000000003</ele>
        <time>2026-06-28T16:21:00Z</time>
      </trkpt>
      <trkpt lat="52.073835013434291" lon="-9.680276988074184">
        <ele>34.259999999999998</ele>
        <time>2026-06-28T16:21:06Z</time>
      </trkpt>
      <trkpt lat="52.073561009019613" lon="-9.67797095887363">
        <ele>38.109999999999999</ele>
        <time>2026-06-28T16:21:14Z</time>
      </trkpt>
      <trkpt lat="52.073410972952843" lon="-9.676965968683362">
        <ele>37.149999999999999</ele>
        <time>2026-06-28T16:21:18Z</time>
      </trkpt>
      <trkpt lat="52.073371997103095" lon="-9.67670202255249">
        <ele>37.149999999999999</ele>
        <time>2026-06-28T16:21:19Z</time>
      </trkpt>
      <trkpt lat="52.072833040729165" lon="-9.675000999122858">
        <ele>35.710000000000001</ele>
        <time>2026-06-28T16:21:26Z</time>
      </trkpt>
      <trkpt lat="52.072410006076097" lon="-9.673628965392709">
        <ele>34.259999999999998</ele>
        <time>2026-06-28T16:21:32Z</time>
      </trkpt>
      <trkpt lat="52.072140024974942" lon="-9.67275096103549">
        <ele>29.460000000000001</ele>
        <time>2026-06-28T16:21:36Z</time>
      </trkpt>
      <trkpt lat="52.071485985070467" lon="-9.671034011989832">
        <ele>23.690000000000001</ele>
        <time>2026-06-28T16:21:44Z</time>
      </trkpt>
      <trkpt lat="52.071175016462803" lon="-9.670144021511078">
        <ele>21.289999999999999</ele>
        <time>2026-06-28T16:21:48Z</time>
      </trkpt>
      <trkpt lat="52.071097986772656" lon="-9.669900024309754">
        <ele>20.809999999999999</ele>
        <time>2026-06-28T16:21:49Z</time>
      </trkpt>
      <trkpt lat="52.070890031754971" lon="-9.668685989454389">
        <ele>22.25</ele>
        <time>2026-06-28T16:21:54Z</time>
      </trkpt>
      <trkpt lat="52.070834962651134" lon="-9.668442998081446">
        <ele>22.73</ele>
        <time>2026-06-28T16:21:55Z</time>
      </trkpt>
      <trkpt lat="52.070746030658484" lon="-9.668235965073109">
        <ele>23.210000000000001</ele>
        <time>2026-06-28T16:21:56Z</time>
      </trkpt>
      <trkpt lat="52.070528017356992" lon="-9.667870011180639">
        <ele>23.210000000000001</ele>
        <time>2026-06-28T16:21:58Z</time>
      </trkpt>
      <trkpt lat="52.070413017645478" lon="-9.667680999264121">
        <ele>23.690000000000001</ele>
        <time>2026-06-28T16:21:59Z</time>
      </trkpt>
      <trkpt lat="52.069974979385734" lon="-9.666911959648132">
        <ele>25.609999999999999</ele>
        <time>2026-06-28T16:22:03Z</time>
      </trkpt>
      <trkpt lat="52.069896021857858" lon="-9.666694030165672">
        <ele>26.57</ele>
        <time>2026-06-28T16:22:04Z</time>
      </trkpt>
      <trkpt lat="52.069821003824472" lon="-9.666490014642477">
        <ele>27.050000000000001</ele>
        <time>2026-06-28T16:22:05Z</time>
      </trkpt>
      <trkpt lat="52.069752020761371" lon="-9.666302008554339">
        <ele>27.530000000000001</ele>
        <time>2026-06-28T16:22:06Z</time>
      </trkpt>
      <trkpt lat="52.069672979414463" lon="-9.666138980537653">
        <ele>28.02</ele>
        <time>2026-06-28T16:22:07Z</time>
      </trkpt>
      <trkpt lat="52.069566026329994" lon="-9.666038984432817">
        <ele>28.5</ele>
        <time>2026-06-28T16:22:08Z</time>
      </trkpt>
      <trkpt lat="52.069456977769732" lon="-9.66593898832798">
        <ele>29.460000000000001</ele>
        <time>2026-06-28T16:22:09Z</time>
      </trkpt>
      <trkpt lat="52.069329991936684" lon="-9.665864976122975">
        <ele>29.940000000000001</ele>
        <time>2026-06-28T16:22:10Z</time>
      </trkpt>
      <trkpt lat="52.069194037467241" lon="-9.665822982788086">
        <ele>29.940000000000001</ele>
        <time>2026-06-28T16:22:11Z</time>
      </trkpt>
      <trkpt lat="52.06893302500248" lon="-9.665742013603449">
        <ele>31.379999999999999</ele>
        <time>2026-06-28T16:22:13Z</time>
      </trkpt>
      <trkpt lat="52.068815007805824" lon="-9.665704965591431">
        <ele>31.859999999999999</ele>
        <time>2026-06-28T16:22:14Z</time>
      </trkpt>
      <trkpt lat="52.068725991994143" lon="-9.6656150277704">
        <ele>32.82</ele>
        <time>2026-06-28T16:22:15Z</time>
      </trkpt>
      <trkpt lat="52.068647034466267" lon="-9.665498016402125">
        <ele>33.299999999999997</ele>
        <time>2026-06-28T16:22:16Z</time>
      </trkpt>
      <trkpt lat="52.068565981462598" lon="-9.66537899337709">
        <ele>34.259999999999998</ele>
        <time>2026-06-28T16:22:17Z</time>
      </trkpt>
      <trkpt lat="52.068485012277961" lon="-9.665259970352054">
        <ele>34.740000000000002</ele>
        <time>2026-06-28T16:22:18Z</time>
      </trkpt>
      <trkpt lat="52.06822601146996" lon="-9.664879012852907">
        <ele>36.189999999999998</ele>
        <time>2026-06-28T16:22:21Z</time>
      </trkpt>
      <trkpt lat="52.068019984290004" lon="-9.664576007053256">
        <ele>36.670000000000002</ele>
        <time>2026-06-28T16:22:23Z</time>
      </trkpt>
      <trkpt lat="52.067923005670309" lon="-9.664394035935402">
        <ele>37.149999999999999</ele>
        <time>2026-06-28T16:22:24Z</time>
      </trkpt>
      <trkpt lat="52.067636009305716" lon="-9.663842003792524">
        <ele>37.630000000000003</ele>
        <time>2026-06-28T16:22:27Z</time>
      </trkpt>
      <trkpt lat="52.067547999322414" lon="-9.663672018796206">
        <ele>37.630000000000003</ele>
        <time>2026-06-28T16:22:28Z</time>
      </trkpt>
      <trkpt lat="52.067468035966158" lon="-9.663517959415913">
        <ele>37.149999999999999</ele>
        <time>2026-06-28T16:22:29Z</time>
      </trkpt>
      <trkpt lat="52.067374996840954" lon="-9.66338099911809">
        <ele>36.670000000000002</ele>
        <time>2026-06-28T16:22:30Z</time>
      </trkpt>
      <trkpt lat="52.06725999712944" lon="-9.66325300745666">
        <ele>36.189999999999998</ele>
        <time>2026-06-28T16:22:31Z</time>
      </trkpt>
      <trkpt lat="52.067138962447643" lon="-9.663115963339806">
        <ele>36.189999999999998</ele>
        <time>2026-06-28T16:22:32Z</time>
      </trkpt>
      <trkpt lat="52.067014994099736" lon="-9.662976991385222">
        <ele>36.189999999999998</ele>
        <time>2026-06-28T16:22:33Z</time>
      </trkpt>
      <trkpt lat="52.06689496524632" lon="-9.662841958925128">
        <ele>36.189999999999998</ele>
        <time>2026-06-28T16:22:34Z</time>
      </trkpt>
      <trkpt lat="52.066784994676709" lon="-9.662717990577221">
        <ele>35.710000000000001</ele>
        <time>2026-06-28T16:22:35Z</time>
      </trkpt>
      <trkpt lat="52.066697990521789" lon="-9.662582036107779">
        <ele>35.710000000000001</ele>
        <time>2026-06-28T16:22:36Z</time>
      </trkpt>
      <trkpt lat="52.066666977480054" lon="-9.662426970899105">
        <ele>35.710000000000001</ele>
        <time>2026-06-28T16:22:37Z</time>
      </trkpt>
      <trkpt lat="52.066650968044996" lon="-9.662252040579915">
        <ele>35.710000000000001</ele>
        <time>2026-06-28T16:22:38Z</time>
      </trkpt>
      <trkpt lat="52.066634958609939" lon="-9.662065040320158">
        <ele>35.710000000000001</ele>
        <time>2026-06-28T16:22:39Z</time>
      </trkpt>
      <trkpt lat="52.066660020500422" lon="-9.66185700148344">
        <ele>35.229999999999997</ele>
        <time>2026-06-28T16:22:40Z</time>
      </trkpt>
      <trkpt lat="52.066688016057014" lon="-9.661628007888794">
        <ele>35.229999999999997</ele>
        <time>2026-06-28T16:22:41Z</time>
      </trkpt>
      <trkpt lat="52.066924972459674" lon="-9.659691033884883">
        <ele>34.259999999999998</ele>
        <time>2026-06-28T16:22:49Z</time>
      </trkpt>
      <trkpt lat="52.066975012421608" lon="-9.659276967868209">
        <ele>34.740000000000002</ele>
        <time>2026-06-28T16:22:51Z</time>
      </trkpt>
      <trkpt lat="52.066965037956834" lon="-9.659053003415465">
        <ele>34.740000000000002</ele>
        <time>2026-06-28T16:22:52Z</time>
      </trkpt>
      <trkpt lat="52.066951040178537" lon="-9.658817974850535">
        <ele>34.740000000000002</ele>
        <time>2026-06-28T16:22:53Z</time>
      </trkpt>
      <trkpt lat="52.066811984404922" lon="-9.657020978629589">
        <ele>30.899999999999999</ele>
        <time>2026-06-28T16:23:01Z</time>
      </trkpt>
      <trkpt lat="52.066414011642337" lon="-9.655354991555214">
        <ele>27.050000000000001</ele>
        <time>2026-06-28T16:23:08Z</time>
      </trkpt>
      <trkpt lat="52.066384004428983" lon="-9.655117029324174">
        <ele>27.050000000000001</ele>
        <time>2026-06-28T16:23:09Z</time>
      </trkpt>
      <trkpt lat="52.066363971680403" lon="-9.654875965788961">
        <ele>27.050000000000001</ele>
        <time>2026-06-28T16:23:10Z</time>
      </trkpt>
      <trkpt lat="52.06637604162097" lon="-9.654625011608005">
        <ele>27.530000000000001</ele>
        <time>2026-06-28T16:23:11Z</time>
      </trkpt>
      <trkpt lat="52.066462961956859" lon="-9.652809994295239">
        <ele>28.02</ele>
        <time>2026-06-28T16:23:18Z</time>
      </trkpt>
      <trkpt lat="52.066891025751829" lon="-9.650903027504683">
        <ele>30.899999999999999</ele>
        <time>2026-06-28T16:23:26Z</time>
      </trkpt>
      <trkpt lat="52.067036032676697" lon="-9.65023297816515">
        <ele>31.379999999999999</ele>
        <time>2026-06-28T16:23:29Z</time>
      </trkpt>
      <trkpt lat="52.067081965506077" lon="-9.650022005662322">
        <ele>30.899999999999999</ele>
        <time>2026-06-28T16:23:30Z</time>
      </trkpt>
      <trkpt lat="52.067479016259313" lon="-9.648029962554574">
        <ele>33.299999999999997</ele>
        <time>2026-06-28T16:23:39Z</time>
      </trkpt>
      <trkpt lat="52.067776992917061" lon="-9.646719032898545">
        <ele>32.82</ele>
        <time>2026-06-28T16:23:45Z</time>
      </trkpt>
      <trkpt lat="52.067892998456955" lon="-9.64488297700882">
        <ele>32.340000000000003</ele>
        <time>2026-06-28T16:23:53Z</time>
      </trkpt>
      <trkpt lat="52.06790397875011" lon="-9.644658006727696">
        <ele>31.859999999999999</ele>
        <time>2026-06-28T16:23:54Z</time>
      </trkpt>
      <trkpt lat="52.067974973469973" lon="-9.64348403736949">
        <ele>33.299999999999997</ele>
        <time>2026-06-28T16:24:01Z</time>
      </trkpt>
      <trkpt lat="52.068020990118384" lon="-9.643002999946475">
        <ele>33.780000000000001</ele>
        <time>2026-06-28T16:24:04Z</time>
      </trkpt>
      <trkpt lat="52.068060971796513" lon="-9.642641991376877">
        <ele>34.740000000000002</ele>
        <time>2026-06-28T16:24:06Z</time>
      </trkpt>
      <trkpt lat="52.068088967353106" lon="-9.642462031915784">
        <ele>34.740000000000002</ele>
        <time>2026-06-28T16:24:07Z</time>
      </trkpt>
      <trkpt lat="52.068169014528394" lon="-9.642098005861044">
        <ele>35.710000000000001</ele>
        <time>2026-06-28T16:24:09Z</time>
      </trkpt>
      <trkpt lat="52.068208996206522" lon="-9.641914023086429">
        <ele>36.189999999999998</ele>
        <time>2026-06-28T16:24:10Z</time>
      </trkpt>
      <trkpt lat="52.068251995369792" lon="-9.641721993684769">
        <ele>36.670000000000002</ele>
        <time>2026-06-28T16:24:11Z</time>
      </trkpt>
      <trkpt lat="52.068293988704681" lon="-9.641528036445379">
        <ele>37.149999999999999</ele>
        <time>2026-06-28T16:24:12Z</time>
      </trkpt>
      <trkpt lat="52.068335982039571" lon="-9.641336007043719">
        <ele>37.630000000000003</ele>
        <time>2026-06-28T16:24:13Z</time>
      </trkpt>
      <trkpt lat="52.068466991186142" lon="-9.640783974900842">
        <ele>39.07</ele>
        <time>2026-06-28T16:24:16Z</time>
      </trkpt>
      <trkpt lat="52.068556006997824" lon="-9.640451967716217">
        <ele>40.030000000000001</ele>
        <time>2026-06-28T16:24:18Z</time>
      </trkpt>
      <trkpt lat="52.068605963140726" lon="-9.640265973284841">
        <ele>40.030000000000001</ele>
        <time>2026-06-28T16:24:19Z</time>
      </trkpt>
      <trkpt lat="52.069211974740028" lon="-9.637724999338388">
        <ele>40.509999999999998</ele>
        <time>2026-06-28T16:24:33Z</time>
      </trkpt>
      <trkpt lat="52.069433005526662" lon="-9.635389968752861">
        <ele>40.990000000000002</ele>
        <time>2026-06-28T16:24:45Z</time>
      </trkpt>
      <trkpt lat="52.069851011037827" lon="-9.633486019447446">
        <ele>35.710000000000001</ele>
        <time>2026-06-28T16:24:56Z</time>
      </trkpt>
      <trkpt lat="52.069870037958026" lon="-9.633403960615397">
        <ele>35.710000000000001</ele>
        <time>2026-06-28T16:24:57Z</time>
      </trkpt>
      <trkpt lat="52.069882024079561" lon="-9.633351992815733">
        <ele>35.229999999999997</ele>
        <time>2026-06-28T16:24:58Z</time>
      </trkpt>
      <trkpt lat="52.069889986887574" lon="-9.633317962288857">
        <ele>35.229999999999997</ele>
        <time>2026-06-28T16:24:59Z</time>
      </trkpt>
      <trkpt lat="52.069983026012778" lon="-9.633292984217405">
        <ele>34.740000000000002</ele>
        <time>2026-06-28T16:25:04Z</time>
      </trkpt>
      <trkpt lat="52.070026025176048" lon="-9.633292984217405">
        <ele>34.740000000000002</ele>
        <time>2026-06-28T16:25:05Z</time>
      </trkpt>
      <trkpt lat="52.070110011845827" lon="-9.633292984217405">
        <ele>34.259999999999998</ele>
        <time>2026-06-28T16:25:06Z</time>
      </trkpt>
      <trkpt lat="52.070893971249461" lon="-9.633354004472494">
        <ele>34.740000000000002</ele>
        <time>2026-06-28T16:25:13Z</time>
      </trkpt>
      <trkpt lat="52.072075987234712" lon="-9.633378982543945">
        <ele>32.82</ele>
        <time>2026-06-28T16:25:21Z</time>
      </trkpt>
      <trkpt lat="52.07220297306776" lon="-9.633378982543945">
        <ele>32.340000000000003</ele>
        <time>2026-06-28T16:25:22Z</time>
      </trkpt>
      <trkpt lat="52.07232903689146" lon="-9.633373031392694">
        <ele>31.859999999999999</ele>
        <time>2026-06-28T16:25:23Z</time>
      </trkpt>
      <trkpt lat="52.072555013000965" lon="-9.633216038346291">
        <ele>30.899999999999999</ele>
        <time>2026-06-28T16:25:25Z</time>
      </trkpt>
      <trkpt lat="52.073701992630959" lon="-9.632471976801753">
        <ele>26.57</ele>
        <time>2026-06-28T16:25:33Z</time>
      </trkpt>
      <trkpt lat="52.073846999555826" lon="-9.632383966818452">
        <ele>26.57</ele>
        <time>2026-06-28T16:25:34Z</time>
      </trkpt>
      <trkpt lat="52.075019041076303" lon="-9.631928997114301">
        <ele>22.73</ele>
        <time>2026-06-28T16:25:43Z</time>
      </trkpt>
      <trkpt lat="52.075334032997489" lon="-9.631810979917646">
        <ele>21.77</ele>
        <time>2026-06-28T16:25:49Z</time>
      </trkpt>
      <trkpt lat="52.075367979705334" lon="-9.631796982139349">
        <ele>22.25</ele>
        <time>2026-06-28T16:25:54Z</time>
      </trkpt>
      <trkpt lat="52.075393041595817" lon="-9.631786001846194">
        <ele>22.25</ele>
        <time>2026-06-28T16:25:55Z</time>
      </trkpt>
      <trkpt lat="52.075419025495648" lon="-9.631687011569738">
        <ele>21.77</ele>
        <time>2026-06-28T16:25:56Z</time>
      </trkpt>
      <trkpt lat="52.075399998575449" lon="-9.631572011858225">
        <ele>21.77</ele>
        <time>2026-06-28T16:25:57Z</time>
      </trkpt>
      <trkpt lat="52.075379965826869" lon="-9.631442008540034">
        <ele>21.77</ele>
        <time>2026-06-28T16:25:58Z</time>
      </trkpt>
      <trkpt lat="52.075356999412179" lon="-9.63130303658545">
        <ele>21.77</ele>
        <time>2026-06-28T16:25:59Z</time>
      </trkpt>
      <trkpt lat="52.075056005269289" lon="-9.629966039210558">
        <ele>21.77</ele>
        <time>2026-06-28T16:26:06Z</time>
      </trkpt>
      <trkpt lat="52.074887026101351" lon="-9.629243016242981">
        <ele>21.77</ele>
        <time>2026-06-28T16:26:09Z</time>
      </trkpt>
      <trkpt lat="52.074831034988165" lon="-9.629002036526799">
        <ele>22.25</ele>
        <time>2026-06-28T16:26:10Z</time>
      </trkpt>
      <trkpt lat="52.074831034988165" lon="-9.628737000748515">
        <ele>22.73</ele>
        <time>2026-06-28T16:26:11Z</time>
      </trkpt>
      <trkpt lat="52.074831034988165" lon="-9.628460984677076">
        <ele>23.210000000000001</ele>
        <time>2026-06-28T16:26:12Z</time>
      </trkpt>
      <trkpt lat="52.074831034988165" lon="-9.628181029111147">
        <ele>23.210000000000001</ele>
        <time>2026-06-28T16:26:13Z</time>
      </trkpt>
      <trkpt lat="52.074938993901014" lon="-9.625235041603446">
        <ele>27.530000000000001</ele>
        <time>2026-06-28T16:26:23Z</time>
      </trkpt>
      <trkpt lat="52.075067991390824" lon="-9.622448980808258">
        <ele>28.98</ele>
        <time>2026-06-28T16:26:33Z</time>
      </trkpt>
      <trkpt lat="52.074612015858293" lon="-9.620233979076147">
        <ele>34.259999999999998</ele>
        <time>2026-06-28T16:26:41Z</time>
      </trkpt>
      <trkpt lat="52.073893016204238" lon="-9.61742402985692">
        <ele>38.109999999999999</ele>
        <time>2026-06-28T16:26:52Z</time>
      </trkpt>
      <trkpt lat="52.072772020474076" lon="-9.613783014938235">
        <ele>39.07</ele>
        <time>2026-06-28T16:27:06Z</time>
      </trkpt>
      <trkpt lat="52.072166008874774" lon="-9.610911961644888">
        <ele>40.030000000000001</ele>
        <time>2026-06-28T16:27:16Z</time>
      </trkpt>
      <trkpt lat="52.07187901251018" lon="-9.606677005067468">
        <ele>42.920000000000002</ele>
        <time>2026-06-28T16:27:28Z</time>
      </trkpt>
      <trkpt lat="52.071633003652096" lon="-9.602539027109742">
        <ele>41.950000000000003</ele>
        <time>2026-06-28T16:27:40Z</time>
      </trkpt>
      <trkpt lat="52.071638032793999" lon="-9.601888004690409">
        <ele>41.469999999999999</ele>
        <time>2026-06-28T16:27:42Z</time>
      </trkpt>
      <trkpt lat="52.071908013895154" lon="-9.599652970209718">
        <ele>41.950000000000003</ele>
        <time>2026-06-28T16:27:49Z</time>
      </trkpt>
      <trkpt lat="52.071865014731884" lon="-9.597045024856925">
        <ele>38.109999999999999</ele>
        <time>2026-06-28T16:27:57Z</time>
      </trkpt>
      <trkpt lat="52.071596961468458" lon="-9.595011994242668">
        <ele>35.229999999999997</ele>
        <time>2026-06-28T16:28:05Z</time>
      </trkpt>
      <trkpt lat="52.071199994534254" lon="-9.592149993404746">
        <ele>32.340000000000003</ele>
        <time>2026-06-28T16:28:17Z</time>
      </trkpt>
      <trkpt lat="52.070721974596381" lon="-9.588307980448008">
        <ele>31.859999999999999</ele>
        <time>2026-06-28T16:28:33Z</time>
      </trkpt>
      <trkpt lat="52.070560958236456" lon="-9.584889002144337">
        <ele>28.02</ele>
        <time>2026-06-28T16:28:47Z</time>
      </trkpt>
      <trkpt lat="52.070616027340293" lon="-9.583301972597837">
        <ele>28.98</ele>
        <time>2026-06-28T16:28:55Z</time>
      </trkpt>
      <trkpt lat="52.070704959332943" lon="-9.581884006038308">
        <ele>30.420000000000002</ele>
        <time>2026-06-28T16:29:03Z</time>
      </trkpt>
      <trkpt lat="52.070629019290209" lon="-9.579573031514883">
        <ele>30.420000000000002</ele>
        <time>2026-06-28T16:29:13Z</time>
      </trkpt>
      <trkpt lat="52.070487029850483" lon="-9.577497001737356">
        <ele>30.420000000000002</ele>
        <time>2026-06-28T16:29:22Z</time>
      </trkpt>
      <trkpt lat="52.070214031264186" lon="-9.573566978797317">
        <ele>30.420000000000002</ele>
        <time>2026-06-28T16:29:38Z</time>
      </trkpt>
      <trkpt lat="52.070158040151" lon="-9.572432991117239">
        <ele>28.98</ele>
        <time>2026-06-28T16:29:45Z</time>
      </trkpt>
      <trkpt lat="52.070097019895911" lon="-9.571385001763701">
        <ele>29.940000000000001</ele>
        <time>2026-06-28T16:29:52Z</time>
      </trkpt>
      <trkpt lat="52.070008004084229" lon="-9.570731967687607">
        <ele>30.420000000000002</ele>
        <time>2026-06-28T16:29:55Z</time>
      </trkpt>
      <trkpt lat="52.069528978317976" lon="-9.568921979516745">
        <ele>28.02</ele>
        <time>2026-06-28T16:30:03Z</time>
      </trkpt>
      <trkpt lat="52.069314988330007" lon="-9.56717099994421">
        <ele>25.129999999999999</ele>
        <time>2026-06-28T16:30:10Z</time>
      </trkpt>
      <trkpt lat="52.069205017760396" lon="-9.566177995875478">
        <ele>24.170000000000002</ele>
        <time>2026-06-28T16:30:15Z</time>
      </trkpt>
      <trkpt lat="52.068926990032196" lon="-9.564239010214806">
        <ele>23.690000000000001</ele>
        <time>2026-06-28T16:30:25Z</time>
      </trkpt>
      <trkpt lat="52.06889103166759" lon="-9.564041029661894">
        <ele>23.690000000000001</ele>
        <time>2026-06-28T16:30:26Z</time>
      </trkpt>
      <trkpt lat="52.068537985906005" lon="-9.562100032344461">
        <ele>25.129999999999999</ele>
        <time>2026-06-28T16:30:36Z</time>
      </trkpt>
      <trkpt lat="52.068459028378129" lon="-9.561684038490057">
        <ele>25.129999999999999</ele>
        <time>2026-06-28T16:30:38Z</time>
      </trkpt>
      <trkpt lat="52.06841996870935" lon="-9.56147700548172">
        <ele>25.129999999999999</ele>
        <time>2026-06-28T16:30:39Z</time>
      </trkpt>
      <trkpt lat="52.068229028955102" lon="-9.560365984216332">
        <ele>26.09</ele>
        <time>2026-06-28T16:30:44Z</time>
      </trkpt>
      <trkpt lat="52.068099025636911" lon="-9.559605997055769">
        <ele>26.57</ele>
        <time>2026-06-28T16:30:47Z</time>
      </trkpt>
      <trkpt lat="52.067779004573822" lon="-9.557735994458199">
        <ele>24.649999999999999</ele>
        <time>2026-06-28T16:30:54Z</time>
      </trkpt>
      <trkpt lat="52.067741034552455" lon="-9.557514041662216">
        <ele>24.649999999999999</ele>
        <time>2026-06-28T16:30:55Z</time>
      </trkpt>
      <trkpt lat="52.067673979327083" lon="-9.557080026715994">
        <ele>24.170000000000002</ele>
        <time>2026-06-28T16:30:57Z</time>
      </trkpt>
      <trkpt lat="52.067640032619238" lon="-9.556856984272599">
        <ele>24.170000000000002</ele>
        <time>2026-06-28T16:30:58Z</time>
      </trkpt>
      <trkpt lat="52.067551016807556" lon="-9.55619296990335">
        <ele>24.170000000000002</ele>
        <time>2026-06-28T16:31:01Z</time>
      </trkpt>
      <trkpt lat="52.067508017644286" lon="-9.555792985484004">
        <ele>24.649999999999999</ele>
        <time>2026-06-28T16:31:03Z</time>
      </trkpt>
      <trkpt lat="52.067339960485697" lon="-9.554224982857704">
        <ele>24.649999999999999</ele>
        <time>2026-06-28T16:31:11Z</time>
      </trkpt>
      <trkpt lat="52.067319005727768" lon="-9.554025996476412">
        <ele>24.649999999999999</ele>
        <time>2026-06-28T16:31:12Z</time>
      </trkpt>
      <trkpt lat="52.067256979644299" lon="-9.552955962717533">
        <ele>25.609999999999999</ele>
        <time>2026-06-28T16:31:18Z</time>
      </trkpt>
      <trkpt lat="52.067253040149808" lon="-9.551269020885229">
        <ele>25.609999999999999</ele>
        <time>2026-06-28T16:31:28Z</time>
      </trkpt>
      <trkpt lat="52.067313976585865" lon="-9.549162983894348">
        <ele>27.050000000000001</ele>
        <time>2026-06-28T16:31:40Z</time>
      </trkpt>
      <trkpt lat="52.067222027108073" lon="-9.547604033723474">
        <ele>27.050000000000001</ele>
        <time>2026-06-28T16:31:51Z</time>
      </trkpt>
      <trkpt lat="52.0671930257231" lon="-9.547285018488765">
        <ele>26.57</ele>
        <time>2026-06-28T16:31:57Z</time>
      </trkpt>
      <trkpt lat="52.067192019894719" lon="-9.547269009053707">
        <ele>26.57</ele>
        <time>2026-06-28T16:31:58Z</time>
      </trkpt>
      <trkpt lat="52.067192019894719" lon="-9.547269009053707">
        <ele>26.09</ele>
        <time>2026-06-28T16:32:09Z</time>
      </trkpt>
      <trkpt lat="52.06719696521759" lon="-9.547053007408977">
        <ele>41.950000000000003</ele>
        <time>2026-06-28T16:35:31Z</time>
      </trkpt>
      <trkpt lat="52.06723703071475" lon="-9.547072034329176">
        <ele>40.509999999999998</ele>
        <time>2026-06-28T16:36:06Z</time>
      </trkpt>
      <trkpt lat="52.067207023501396" lon="-9.547058958560228">
        <ele>45.799999999999997</ele>
        <time>2026-06-28T16:36:34Z</time>
      </trkpt>
      <trkpt lat="52.06723996438086" lon="-9.547087959945202">
        <ele>39.07</ele>
        <time>2026-06-28T16:36:44Z</time>
      </trkpt>
      <trkpt lat="52.067167041823268" lon="-9.546977989375591">
        <ele>36.670000000000002</ele>
        <time>2026-06-28T16:36:50Z</time>
      </trkpt>
      <trkpt lat="52.067126976326108" lon="-9.545825980603695">
        <ele>33.780000000000001</ele>
        <time>2026-06-28T16:36:58Z</time>
      </trkpt>
      <trkpt lat="52.067155977711082" lon="-9.54564300365746">
        <ele>33.299999999999997</ele>
        <time>2026-06-28T16:36:59Z</time>
      </trkpt>
      <trkpt lat="52.06721599213779" lon="-9.54525500535965">
        <ele>32.82</ele>
        <time>2026-06-28T16:37:01Z</time>
      </trkpt>
      <trkpt lat="52.067245999351144" lon="-9.545060964301229">
        <ele>32.82</ele>
        <time>2026-06-28T16:37:02Z</time>
      </trkpt>
      <trkpt lat="52.067636009305716" lon="-9.54330001026392">
        <ele>33.780000000000001</ele>
        <time>2026-06-28T16:37:11Z</time>
      </trkpt>
      <trkpt lat="52.067913031205535" lon="-9.541522040963173">
        <ele>35.229999999999997</ele>
        <time>2026-06-28T16:37:19Z</time>
      </trkpt>
      <trkpt lat="52.068444024771452" lon="-9.539427990093827">
        <ele>34.259999999999998</ele>
        <time>2026-06-28T16:37:28Z</time>
      </trkpt>
      <trkpt lat="52.068604035302997" lon="-9.538751989603043">
        <ele>34.740000000000002</ele>
        <time>2026-06-28T16:37:31Z</time>
      </trkpt>
      <trkpt lat="52.068974012508988" lon="-9.536681994795799">
        <ele>35.710000000000001</ele>
        <time>2026-06-28T16:37:40Z</time>
      </trkpt>
      <trkpt lat="52.069184985011816" lon="-9.534773016348481">
        <ele>35.710000000000001</ele>
        <time>2026-06-28T16:37:48Z</time>
      </trkpt>
      <trkpt lat="52.069161012768745" lon="-9.534543016925454">
        <ele>35.229999999999997</ele>
        <time>2026-06-28T16:37:49Z</time>
      </trkpt>
      <trkpt lat="52.069122036918998" lon="-9.534317040815949">
        <ele>35.229999999999997</ele>
        <time>2026-06-28T16:37:50Z</time>
      </trkpt>
      <trkpt lat="52.068778965622187" lon="-9.532738979905844">
        <ele>35.229999999999997</ele>
        <time>2026-06-28T16:37:57Z</time>
      </trkpt>
      <trkpt lat="52.068627001717687" lon="-9.532040013000369">
        <ele>35.710000000000001</ele>
        <time>2026-06-28T16:38:00Z</time>
      </trkpt>
      <trkpt lat="52.068481994792819" lon="-9.530438985675573">
        <ele>36.189999999999998</ele>
        <time>2026-06-28T16:38:07Z</time>
      </trkpt>
      <trkpt lat="52.068318966776133" lon="-9.529539020732045">
        <ele>35.710000000000001</ele>
        <time>2026-06-28T16:38:11Z</time>
      </trkpt>
      <trkpt lat="52.068271022289991" lon="-9.529146999120712">
        <ele>34.740000000000002</ele>
        <time>2026-06-28T16:38:13Z</time>
      </trkpt>
      <trkpt lat="52.06824797205627" lon="-9.528958993032575">
        <ele>34.259999999999998</ele>
        <time>2026-06-28T16:38:14Z</time>
      </trkpt>
      <trkpt lat="52.068170020356774" lon="-9.528597984462977">
        <ele>33.299999999999997</ele>
        <time>2026-06-28T16:38:16Z</time>
      </trkpt>
      <trkpt lat="52.068111011758447" lon="-9.528422970324755">
        <ele>32.340000000000003</ele>
        <time>2026-06-28T16:38:17Z</time>
      </trkpt>
      <trkpt lat="52.068050997331738" lon="-9.528248040005565">
        <ele>31.379999999999999</ele>
        <time>2026-06-28T16:38:18Z</time>
      </trkpt>
      <trkpt lat="52.067863997071981" lon="-9.527698019519448">
        <ele>29.460000000000001</ele>
        <time>2026-06-28T16:38:21Z</time>
      </trkpt>
      <trkpt lat="52.067819992080331" lon="-9.527511019259691">
        <ele>29.460000000000001</ele>
        <time>2026-06-28T16:38:22Z</time>
      </trkpt>
      <trkpt lat="52.067790990695357" lon="-9.527318989858031">
        <ele>29.460000000000001</ele>
        <time>2026-06-28T16:38:23Z</time>
      </trkpt>
      <trkpt lat="52.067762995138764" lon="-9.527128972113133">
        <ele>29.460000000000001</ele>
        <time>2026-06-28T16:38:24Z</time>
      </trkpt>
      <trkpt lat="52.067734999582171" lon="-9.526947000995278">
        <ele>29.460000000000001</ele>
        <time>2026-06-28T16:38:25Z</time>
      </trkpt>
      <trkpt lat="52.067496031522751" lon="-9.52452396042645">
        <ele>31.859999999999999</ele>
        <time>2026-06-28T16:38:38Z</time>
      </trkpt>
      <trkpt lat="52.067510029301047" lon="-9.524325979873538">
        <ele>31.859999999999999</ele>
        <time>2026-06-28T16:38:39Z</time>
      </trkpt>
      <trkpt lat="52.067549005150795" lon="-9.523775959387422">
        <ele>31.859999999999999</ele>
        <time>2026-06-28T16:38:42Z</time>
      </trkpt>
      <trkpt lat="52.067567026242614" lon="-9.523604968562722">
        <ele>32.340000000000003</ele>
        <time>2026-06-28T16:38:43Z</time>
      </trkpt>
      <trkpt lat="52.067590998485684" lon="-9.523453004658222">
        <ele>32.340000000000003</ele>
        <time>2026-06-28T16:38:44Z</time>
      </trkpt>
      <trkpt lat="52.067613964900374" lon="-9.523310009390116">
        <ele>32.82</ele>
        <time>2026-06-28T16:38:45Z</time>
      </trkpt>
      <trkpt lat="52.067636009305716" lon="-9.523172965273261">
        <ele>32.82</ele>
        <time>2026-06-28T16:38:46Z</time>
      </trkpt>
      <trkpt lat="52.067701974883676" lon="-9.522931985557079">
        <ele>33.299999999999997</ele>
        <time>2026-06-28T16:38:48Z</time>
      </trkpt>
      <trkpt lat="52.067738017067313" lon="-9.522822014987469">
        <ele>33.299999999999997</ele>
        <time>2026-06-28T16:38:49Z</time>
      </trkpt>
      <trkpt lat="52.067800965160131" lon="-9.522697040811181">
        <ele>33.299999999999997</ele>
        <time>2026-06-28T16:38:50Z</time>
      </trkpt>
      <trkpt lat="52.067900039255619" lon="-9.522614981979132">
        <ele>33.780000000000001</ele>
        <time>2026-06-28T16:38:51Z</time>
      </trkpt>
      <trkpt lat="52.067913031205535" lon="-9.52250299975276">
        <ele>33.780000000000001</ele>
        <time>2026-06-28T16:38:52Z</time>
      </trkpt>
      <trkpt lat="52.067932980135083" lon="-9.522340977564454">
        <ele>33.780000000000001</ele>
        <time>2026-06-28T16:38:53Z</time>
      </trkpt>
      <trkpt lat="52.067957036197186" lon="-9.522164035588503">
        <ele>33.780000000000001</ele>
        <time>2026-06-28T16:38:54Z</time>
      </trkpt>
      <trkpt lat="52.067986037582159" lon="-9.521949039772153">
        <ele>34.259999999999998</ele>
        <time>2026-06-28T16:38:55Z</time>
      </trkpt>
      <trkpt lat="52.06822500564158" lon="-9.521243032068014">
        <ele>34.740000000000002</ele>
        <time>2026-06-28T16:38:59Z</time>
      </trkpt>
      <trkpt lat="52.068748958408833" lon="-9.518871959298849">
        <ele>36.189999999999998</ele>
        <time>2026-06-28T16:39:11Z</time>
      </trkpt>
      <trkpt lat="52.068962026387453" lon="-9.51728199608624">
        <ele>37.630000000000003</ele>
        <time>2026-06-28T16:39:20Z</time>
      </trkpt>
      <trkpt lat="52.069013994187117" lon="-9.516971027478576">
        <ele>38.109999999999999</ele>
        <time>2026-06-28T16:39:23Z</time>
      </trkpt>
      <trkpt lat="52.069024974480271" lon="-9.516919981688261">
        <ele>38.109999999999999</ele>
        <time>2026-06-28T16:39:24Z</time>
      </trkpt>
      <trkpt lat="52.069031009450555" lon="-9.516887962818146">
        <ele>38.109999999999999</ele>
        <time>2026-06-28T16:39:25Z</time>
      </trkpt>
      <trkpt lat="52.069038972258568" lon="-9.516849992796779">
        <ele>38.109999999999999</ele>
        <time>2026-06-28T16:39:26Z</time>
      </trkpt>
      <trkpt lat="52.069095969200134" lon="-9.516751002520323">
        <ele>38.590000000000003</ele>
        <time>2026-06-28T16:39:27Z</time>
      </trkpt>
      <trkpt lat="52.069156989455223" lon="-9.516741028055549">
        <ele>38.590000000000003</ele>
        <time>2026-06-28T16:39:28Z</time>
      </trkpt>
      <trkpt lat="52.069188002496958" lon="-9.516734993085265">
        <ele>39.07</ele>
        <time>2026-06-28T16:39:29Z</time>
      </trkpt>
      <trkpt lat="52.069350024685264" lon="-9.516689982265234">
        <ele>39.07</ele>
        <time>2026-06-28T16:39:30Z</time>
      </trkpt>
      <trkpt lat="52.069421019405127" lon="-9.51676701195538">
        <ele>39.07</ele>
        <time>2026-06-28T16:39:31Z</time>
      </trkpt>
      <trkpt lat="52.069496959447861" lon="-9.516848986968398">
        <ele>39.07</ele>
        <time>2026-06-28T16:39:32Z</time>
      </trkpt>
      <trkpt lat="52.06957901827991" lon="-9.516941020265222">
        <ele>39.07</ele>
        <time>2026-06-28T16:39:33Z</time>
      </trkpt>
      <trkpt lat="52.070379992946982" lon="-9.517965959385037">
        <ele>40.030000000000001</ele>
        <time>2026-06-28T16:39:41Z</time>
      </trkpt>
      <trkpt lat="52.071307031437755" lon="-9.519592970609665">
        <ele>43.880000000000003</ele>
        <time>2026-06-28T16:39:50Z</time>
      </trkpt>
      <trkpt lat="52.072592983022332" lon="-9.52127798460424">
        <ele>49.649999999999999</ele>
        <time>2026-06-28T16:40:01Z</time>
      </trkpt>
      <trkpt lat="52.073097992688417" lon="-9.521881984546781">
        <ele>52.049999999999997</ele>
        <time>2026-06-28T16:40:05Z</time>
      </trkpt>
      <trkpt lat="52.07323201932013" lon="-9.522003019228578">
        <ele>52.049999999999997</ele>
        <time>2026-06-28T16:40:06Z</time>
      </trkpt>
      <trkpt lat="52.073370991274714" lon="-9.522084994241595">
        <ele>52.530000000000001</ele>
        <time>2026-06-28T16:40:07Z</time>
      </trkpt>
      <trkpt lat="52.073513986542821" lon="-9.52213604003191">
        <ele>53.009999999999998</ele>
        <time>2026-06-28T16:40:08Z</time>
      </trkpt>
      <trkpt lat="52.07366201095283" lon="-9.522164035588503">
        <ele>53.490000000000002</ele>
        <time>2026-06-28T16:40:09Z</time>
      </trkpt>
      <trkpt lat="52.073811963200569" lon="-9.522193036973476">
        <ele>53.969999999999999</ele>
        <time>2026-06-28T16:40:10Z</time>
      </trkpt>
      <trkpt lat="52.073969962075353" lon="-9.522182978689671">
        <ele>53.969999999999999</ele>
        <time>2026-06-28T16:40:11Z</time>
      </trkpt>
      <trkpt lat="52.074122009798884" lon="-9.522137967869639">
        <ele>54.93</ele>
        <time>2026-06-28T16:40:12Z</time>
      </trkpt>
      <trkpt lat="52.074273973703384" lon="-9.522080970928073">
        <ele>55.409999999999997</ele>
        <time>2026-06-28T16:40:13Z</time>
      </trkpt>
      <trkpt lat="52.074411017820239" lon="-9.521963959559798">
        <ele>55.890000000000001</ele>
        <time>2026-06-28T16:40:14Z</time>
      </trkpt>
      <trkpt lat="52.074550995603204" lon="-9.521845020353794">
        <ele>56.369999999999997</ele>
        <time>2026-06-28T16:40:15Z</time>
      </trkpt>
      <trkpt lat="52.074689967557788" lon="-9.521718034520745">
        <ele>56.859999999999999</ele>
        <time>2026-06-28T16:40:16Z</time>
      </trkpt>
      <trkpt lat="52.074797004461288" lon="-9.521520975977182">
        <ele>57.340000000000003</ele>
        <time>2026-06-28T16:40:17Z</time>
      </trkpt>
      <trkpt lat="52.07490898668766" lon="-9.521314026787877">
        <ele>57.82</ele>
        <time>2026-06-28T16:40:18Z</time>
      </trkpt>
      <trkpt lat="52.075019041076303" lon="-9.521086039021611">
        <ele>58.780000000000001</ele>
        <time>2026-06-28T16:40:19Z</time>
      </trkpt>
      <trkpt lat="52.075828984379768" lon="-9.519148981198669">
        <ele>63.579999999999998</ele>
        <time>2026-06-28T16:40:26Z</time>
      </trkpt>
      <trkpt lat="52.076465003192425" lon="-9.516380019485951">
        <ele>67.430000000000007</ele>
        <time>2026-06-28T16:40:34Z</time>
      </trkpt>
      <trkpt lat="52.076646974310279" lon="-9.515737965703011">
        <ele>68.870000000000005</ele>
        <time>2026-06-28T16:40:36Z</time>
      </trkpt>
      <trkpt lat="52.076774965971708" lon="-9.515448035672307">
        <ele>69.349999999999994</ele>
        <time>2026-06-28T16:40:37Z</time>
      </trkpt>
      <trkpt lat="52.076947968453169" lon="-9.515234967693687">
        <ele>69.829999999999998</ele>
        <time>2026-06-28T16:40:38Z</time>
      </trkpt>
      <trkpt lat="52.077127005904913" lon="-9.515029024332762">
        <ele>70.310000000000002</ele>
        <time>2026-06-28T16:40:39Z</time>
      </trkpt>
      <trkpt lat="52.077337978407741" lon="-9.51491896994412">
        <ele>71.269999999999996</ele>
        <time>2026-06-28T16:40:40Z</time>
      </trkpt>
      <trkpt lat="52.077555991709232" lon="-9.514805981889367">
        <ele>72.239999999999995</ele>
        <time>2026-06-28T16:40:41Z</time>
      </trkpt>
      <trkpt lat="52.077791020274162" lon="-9.514762982726097">
        <ele>73.200000000000003</ele>
        <time>2026-06-28T16:40:42Z</time>
      </trkpt>
      <trkpt lat="52.078031999990344" lon="-9.514764994382858">
        <ele>73.680000000000007</ele>
        <time>2026-06-28T16:40:43Z</time>
      </trkpt>
      <trkpt lat="52.079717013984919" lon="-9.514815034344792">
        <ele>77.040000000000006</ele>
        <time>2026-06-28T16:40:50Z</time>
      </trkpt>
      <trkpt lat="52.079932009801269" lon="-9.514883011579514">
        <ele>77.519999999999996</ele>
        <time>2026-06-28T16:40:51Z</time>
      </trkpt>
      <trkpt lat="52.08015002310276" lon="-9.514986025169492">
        <ele>78</ele>
        <time>2026-06-28T16:40:52Z</time>
      </trkpt>
      <trkpt lat="52.080354960635304" lon="-9.515161961317062">
        <ele>78.480000000000004</ele>
        <time>2026-06-28T16:40:53Z</time>
      </trkpt>
      <trkpt lat="52.080565011128783" lon="-9.515343010425568">
        <ele>78.480000000000004</ele>
        <time>2026-06-28T16:40:54Z</time>
      </trkpt>
      <trkpt lat="52.080990979447961" lon="-9.515708964318037">
        <ele>78.969999999999999</ele>
        <time>2026-06-28T16:40:56Z</time>
      </trkpt>
      <trkpt lat="52.081209998577833" lon="-9.515881966799498">
        <ele>78.480000000000004</ele>
        <time>2026-06-28T16:40:57Z</time>
      </trkpt>
      <trkpt lat="52.081445027142763" lon="-9.516011970117688">
        <ele>78</ele>
        <time>2026-06-28T16:40:58Z</time>
      </trkpt>
      <trkpt lat="52.081681983545423" lon="-9.516142979264259">
        <ele>77.040000000000006</ele>
        <time>2026-06-28T16:40:59Z</time>
      </trkpt>
      <trkpt lat="52.081925980746746" lon="-9.516240041702986">
        <ele>76.560000000000002</ele>
        <time>2026-06-28T16:41:00Z</time>
      </trkpt>
      <trkpt lat="52.08216997794807" lon="-9.516311036422849">
        <ele>75.599999999999994</ele>
        <time>2026-06-28T16:41:01Z</time>
      </trkpt>
      <trkpt lat="52.082421015948057" lon="-9.516344983130693">
        <ele>75.120000000000005</ele>
        <time>2026-06-28T16:41:02Z</time>
      </trkpt>
      <trkpt lat="52.082669036462903" lon="-9.5163360144943">
        <ele>74.640000000000001</ele>
        <time>2026-06-28T16:41:03Z</time>
      </trkpt>
      <trkpt lat="52.082915967330337" lon="-9.516327967867255">
        <ele>74.159999999999997</ele>
        <time>2026-06-28T16:41:04Z</time>
      </trkpt>
      <trkpt lat="52.083158036693931" lon="-9.516245992854238">
        <ele>74.159999999999997</ele>
        <time>2026-06-28T16:41:05Z</time>
      </trkpt>
      <trkpt lat="52.083399016410112" lon="-9.516162006184459">
        <ele>73.680000000000007</ele>
        <time>2026-06-28T16:41:06Z</time>
      </trkpt>
      <trkpt lat="52.083638990297914" lon="-9.516080031171441">
        <ele>73.680000000000007</ele>
        <time>2026-06-28T16:41:07Z</time>
      </trkpt>
      <trkpt lat="52.085489965975285" lon="-9.514951994642615">
        <ele>73.680000000000007</ele>
        <time>2026-06-28T16:41:15Z</time>
      </trkpt>
      <trkpt lat="52.087266007438302" lon="-9.513516006991267">
        <ele>73.680000000000007</ele>
        <time>2026-06-28T16:41:23Z</time>
      </trkpt>
      <trkpt lat="52.08897901698947" lon="-9.513073023408651">
        <ele>76.560000000000002</ele>
        <time>2026-06-28T16:41:30Z</time>
      </trkpt>
      <trkpt lat="52.089228965342045" lon="-9.513116022571921">
        <ele>76.560000000000002</ele>
        <time>2026-06-28T16:41:31Z</time>
      </trkpt>
      <trkpt lat="52.089471034705639" lon="-9.513172013685107">
        <ele>77.519999999999996</ele>
        <time>2026-06-28T16:41:32Z</time>
      </trkpt>
      <trkpt lat="52.089717965573072" lon="-9.513260023668408">
        <ele>77.519999999999996</ele>
        <time>2026-06-28T16:41:33Z</time>
      </trkpt>
      <trkpt lat="52.089944025501609" lon="-9.513427997007966">
        <ele>77.519999999999996</ele>
        <time>2026-06-28T16:41:34Z</time>
      </trkpt>
      <trkpt lat="52.090173019096255" lon="-9.513596976175904">
        <ele>77.519999999999996</ele>
        <time>2026-06-28T16:41:35Z</time>
      </trkpt>
      <trkpt lat="52.092391960322857" lon="-9.515489023178816">
        <ele>78.480000000000004</ele>
        <time>2026-06-28T16:41:45Z</time>
      </trkpt>
      <trkpt lat="52.093838006258011" lon="-9.516076007857919">
        <ele>76.560000000000002</ele>
        <time>2026-06-28T16:41:51Z</time>
      </trkpt>
      <trkpt lat="52.095820996910334" lon="-9.516169968992472">
        <ele>78.480000000000004</ele>
        <time>2026-06-28T16:41:59Z</time>
      </trkpt>
      <trkpt lat="52.096560029312968" lon="-9.516325034201145">
        <ele>80.409999999999997</ele>
        <time>2026-06-28T16:42:02Z</time>
      </trkpt>
      <trkpt lat="52.096792962402105" lon="-9.516447996720672">
        <ele>80.890000000000001</ele>
        <time>2026-06-28T16:42:03Z</time>
      </trkpt>
      <trkpt lat="52.098890030756593" lon="-9.517793040722609">
        <ele>78.969999999999999</ele>
        <time>2026-06-28T16:42:12Z</time>
      </trkpt>
      <trkpt lat="52.099816985428333" lon="-9.518364015966654">
        <ele>77.519999999999996</ele>
        <time>2026-06-28T16:42:16Z</time>
      </trkpt>
      <trkpt lat="52.100062994286418" lon="-9.518398968502879">
        <ele>77.040000000000006</ele>
        <time>2026-06-28T16:42:17Z</time>
      </trkpt>
      <trkpt lat="52.100305985659361" lon="-9.518425036221743">
        <ele>76.560000000000002</ele>
        <time>2026-06-28T16:42:18Z</time>
      </trkpt>
      <trkpt lat="52.100548977032304" lon="-9.518373990431428">
        <ele>76.079999999999998</ele>
        <time>2026-06-28T16:42:19Z</time>
      </trkpt>
      <trkpt lat="52.100793980062008" lon="-9.518321016803384">
        <ele>75.599999999999994</ele>
        <time>2026-06-28T16:42:20Z</time>
      </trkpt>
      <trkpt lat="52.104254029691219" lon="-9.517400013282895">
        <ele>70.310000000000002</ele>
        <time>2026-06-28T16:42:34Z</time>
      </trkpt>
      <trkpt lat="52.107405960559845" lon="-9.516531983390451">
        <ele>73.680000000000007</ele>
        <time>2026-06-28T16:42:47Z</time>
      </trkpt>
      <trkpt lat="52.109203040599823" lon="-9.515929995104671">
        <ele>76.560000000000002</ele>
        <time>2026-06-28T16:42:56Z</time>
      </trkpt>
      <trkpt lat="52.110900962725282" lon="-9.515619026497006">
        <ele>82.329999999999998</ele>
        <time>2026-06-28T16:43:05Z</time>
      </trkpt>
      <trkpt lat="52.111087962985039" lon="-9.515650039538741">
        <ele>82.329999999999998</ele>
        <time>2026-06-28T16:43:06Z</time>
      </trkpt>
      <trkpt lat="52.111269012093544" lon="-9.515709970146418">
        <ele>82.810000000000002</ele>
        <time>2026-06-28T16:43:07Z</time>
      </trkpt>
      <trkpt lat="52.112813964486122" lon="-9.516425030305982">
        <ele>80.890000000000001</ele>
        <time>2026-06-28T16:43:17Z</time>
      </trkpt>
      <trkpt lat="52.112960983067751" lon="-9.516498958691955">
        <ele>81.370000000000005</ele>
        <time>2026-06-28T16:43:22Z</time>
      </trkpt>
      <trkpt lat="52.112962994724512" lon="-9.516467023640871">
        <ele>81.370000000000005</ele>
        <time>2026-06-28T16:43:30Z</time>
      </trkpt>
      <trkpt lat="52.112965006381273" lon="-9.516418995335698">
        <ele>80.890000000000001</ele>
        <time>2026-06-28T16:43:31Z</time>
      </trkpt>
      <trkpt lat="52.112970035523176" lon="-9.516332997009158">
        <ele>80.890000000000001</ele>
        <time>2026-06-28T16:43:32Z</time>
      </trkpt>
      <trkpt lat="52.112975986674428" lon="-9.516217997297645">
        <ele>80.890000000000001</ele>
        <time>2026-06-28T16:43:33Z</time>
      </trkpt>
      <trkpt lat="52.112982021644711" lon="-9.516086988151074">
        <ele>80.890000000000001</ele>
        <time>2026-06-28T16:43:34Z</time>
      </trkpt>
      <trkpt lat="52.113046981394291" lon="-9.514589980244637">
        <ele>83.290000000000006</ele>
        <time>2026-06-28T16:43:42Z</time>
      </trkpt>
      <trkpt lat="52.113026026636362" lon="-9.511650027707219">
        <ele>88.099999999999994</ele>
        <time>2026-06-28T16:43:55Z</time>
      </trkpt>
      <trkpt lat="52.112740958109498" lon="-9.508696999400854">
        <ele>90.5</ele>
        <time>2026-06-28T16:44:07Z</time>
      </trkpt>
      <trkpt lat="52.112645991146564" lon="-9.508231971412897">
        <ele>90.980000000000004</ele>
        <time>2026-06-28T16:44:09Z</time>
      </trkpt>
      <trkpt lat="52.112584970891476" lon="-9.50800096616149">
        <ele>90.980000000000004</ele>
        <time>2026-06-28T16:44:10Z</time>
      </trkpt>
      <trkpt lat="52.112525040283799" lon="-9.507769960910082">
        <ele>91.459999999999994</ele>
        <time>2026-06-28T16:44:11Z</time>
      </trkpt>
      <trkpt lat="52.111979965120554" lon="-9.505928037688136">
        <ele>95.310000000000002</ele>
        <time>2026-06-28T16:44:20Z</time>
      </trkpt>
      <trkpt lat="52.111916011199355" lon="-9.505651015788317">
        <ele>95.790000000000006</ele>
        <time>2026-06-28T16:44:22Z</time>
      </trkpt>
      <trkpt lat="52.111825989559293" lon="-9.505537021905184">
        <ele>95.790000000000006</ele>
        <time>2026-06-28T16:44:23Z</time>
      </trkpt>
      <trkpt lat="52.111764969304204" lon="-9.505539033561945">
        <ele>96.269999999999996</ele>
        <time>2026-06-28T16:44:24Z</time>
      </trkpt>
      <trkpt lat="52.111693974584341" lon="-9.505541967228055">
        <ele>96.269999999999996</ele>
        <time>2026-06-28T16:44:25Z</time>
      </trkpt>
      <trkpt lat="52.111618034541607" lon="-9.505545990541577">
        <ele>96.269999999999996</ele>
        <time>2026-06-28T16:44:26Z</time>
      </trkpt>
      <trkpt lat="52.111374037340283" lon="-9.505555965006352">
        <ele>96.269999999999996</ele>
        <time>2026-06-28T16:44:33Z</time>
      </trkpt>
    </trkseg>
  </trk>

</gpx>